<?xml version="1.0" encoding="UTF-8" standalone="no" ?>
<gpx xmlns="http://www.topografix.com/GPX/1/1" xmlns:xsi="http://www.w3.org/2001/XMLSchema-instance" xsi:schemaLocation="http://www.topografix.com/GPX/1/1 http://www.topografix.com/GPX/1/1/gpx.xsd" version="1.1" creator="VisuGPX - https://www.visugpx.com">
  <metadata>
    <name>E-N-St Aignan Pont St Martin Vertou Basse Goulaine Carquefou Le Gesvres Le Cens St Herblain Indre Nantes</name>
    <desc><![CDATA[E-N-St Aignan Pont St Martin Vertou Basse Goulaine Carquefou Le Gesvres Le Cens St Herblain Indre Nantes]]></desc>
  </metadata>
  <trk>
    <name><![CDATA[2021-04-20 12:18 +02:00]]></name>
    <trkseg>
      <trkpt lat="47.16781" lon="-1.62646">
        <ele>52</ele>
        <time>2021-04-20T10:18:07.560Z</time>
      </trkpt>
      <trkpt lat="47.16776" lon="-1.62658">
        <ele>73</ele>
        <time>2021-04-20T10:20:48.000Z</time>
      </trkpt>
      <trkpt lat="47.16775" lon="-1.62675">
        <ele>72</ele>
        <time>2021-04-20T10:20:51.000Z</time>
      </trkpt>
      <trkpt lat="47.16765" lon="-1.62679">
        <ele>72</ele>
        <time>2021-04-20T10:20:53.000Z</time>
      </trkpt>
      <trkpt lat="47.16755" lon="-1.62673">
        <ele>72</ele>
        <time>2021-04-20T10:20:55.000Z</time>
      </trkpt>
      <trkpt lat="47.16745" lon="-1.62674">
        <ele>72</ele>
        <time>2021-04-20T10:20:57.000Z</time>
      </trkpt>
      <trkpt lat="47.16735" lon="-1.6268">
        <ele>72</ele>
        <time>2021-04-20T10:20:59.000Z</time>
      </trkpt>
      <trkpt lat="47.16726" lon="-1.62687">
        <ele>72</ele>
        <time>2021-04-20T10:21:01.000Z</time>
      </trkpt>
      <trkpt lat="47.16715" lon="-1.62695">
        <ele>72</ele>
        <time>2021-04-20T10:21:04.000Z</time>
      </trkpt>
      <trkpt lat="47.16707" lon="-1.62685">
        <ele>72</ele>
        <time>2021-04-20T10:21:06.000Z</time>
      </trkpt>
      <trkpt lat="47.16702" lon="-1.6267">
        <ele>71</ele>
        <time>2021-04-20T10:21:08.000Z</time>
      </trkpt>
      <trkpt lat="47.16699" lon="-1.62652">
        <ele>71</ele>
        <time>2021-04-20T10:21:10.000Z</time>
      </trkpt>
      <trkpt lat="47.16697" lon="-1.62633">
        <ele>71</ele>
        <time>2021-04-20T10:21:12.000Z</time>
      </trkpt>
      <trkpt lat="47.16697" lon="-1.62614">
        <ele>71</ele>
        <time>2021-04-20T10:21:14.000Z</time>
      </trkpt>
      <trkpt lat="47.16698" lon="-1.62594">
        <ele>71</ele>
        <time>2021-04-20T10:21:16.000Z</time>
      </trkpt>
      <trkpt lat="47.16699" lon="-1.62576">
        <ele>71</ele>
        <time>2021-04-20T10:21:18.000Z</time>
      </trkpt>
      <trkpt lat="47.16701" lon="-1.62557">
        <ele>70</ele>
        <time>2021-04-20T10:21:20.000Z</time>
      </trkpt>
      <trkpt lat="47.16703" lon="-1.62538">
        <ele>70</ele>
        <time>2021-04-20T10:21:22.000Z</time>
      </trkpt>
      <trkpt lat="47.16705" lon="-1.6252">
        <ele>69</ele>
        <time>2021-04-20T10:21:24.000Z</time>
      </trkpt>
      <trkpt lat="47.16709" lon="-1.62501">
        <ele>69</ele>
        <time>2021-04-20T10:21:26.000Z</time>
      </trkpt>
      <trkpt lat="47.16712" lon="-1.62483">
        <ele>69</ele>
        <time>2021-04-20T10:21:28.000Z</time>
      </trkpt>
      <trkpt lat="47.16715" lon="-1.62465">
        <ele>69</ele>
        <time>2021-04-20T10:21:30.000Z</time>
      </trkpt>
      <trkpt lat="47.16718" lon="-1.62447">
        <ele>69</ele>
        <time>2021-04-20T10:21:32.000Z</time>
      </trkpt>
      <trkpt lat="47.16721" lon="-1.6243">
        <ele>69</ele>
        <time>2021-04-20T10:21:34.000Z</time>
      </trkpt>
      <trkpt lat="47.16727" lon="-1.62417">
        <ele>69</ele>
        <time>2021-04-20T10:21:36.000Z</time>
      </trkpt>
      <trkpt lat="47.16724" lon="-1.62403">
        <ele>68</ele>
        <time>2021-04-20T10:21:38.000Z</time>
      </trkpt>
      <trkpt lat="47.16715" lon="-1.62393">
        <ele>69</ele>
        <time>2021-04-20T10:21:40.000Z</time>
      </trkpt>
      <trkpt lat="47.16707" lon="-1.6238">
        <ele>69</ele>
        <time>2021-04-20T10:21:42.000Z</time>
      </trkpt>
      <trkpt lat="47.16697" lon="-1.62368">
        <ele>69</ele>
        <time>2021-04-20T10:21:44.000Z</time>
      </trkpt>
      <trkpt lat="47.16684" lon="-1.62362">
        <ele>70</ele>
        <time>2021-04-20T10:21:46.000Z</time>
      </trkpt>
      <trkpt lat="47.16672" lon="-1.6236">
        <ele>70</ele>
        <time>2021-04-20T10:21:48.000Z</time>
      </trkpt>
      <trkpt lat="47.1666" lon="-1.62363">
        <ele>70</ele>
        <time>2021-04-20T10:21:50.000Z</time>
      </trkpt>
      <trkpt lat="47.16648" lon="-1.62371">
        <ele>70</ele>
        <time>2021-04-20T10:21:52.000Z</time>
      </trkpt>
      <trkpt lat="47.16639" lon="-1.6238">
        <ele>69</ele>
        <time>2021-04-20T10:21:54.000Z</time>
      </trkpt>
      <trkpt lat="47.16629" lon="-1.62392">
        <ele>69</ele>
        <time>2021-04-20T10:21:56.000Z</time>
      </trkpt>
      <trkpt lat="47.1662" lon="-1.62405">
        <ele>69</ele>
        <time>2021-04-20T10:21:58.000Z</time>
      </trkpt>
      <trkpt lat="47.16613" lon="-1.6242">
        <ele>70</ele>
        <time>2021-04-20T10:22:00.000Z</time>
      </trkpt>
      <trkpt lat="47.16606" lon="-1.62434">
        <ele>71</ele>
        <time>2021-04-20T10:22:02.000Z</time>
      </trkpt>
      <trkpt lat="47.16599" lon="-1.62449">
        <ele>71</ele>
        <time>2021-04-20T10:22:04.000Z</time>
      </trkpt>
      <trkpt lat="47.16593" lon="-1.62465">
        <ele>72</ele>
        <time>2021-04-20T10:22:06.000Z</time>
      </trkpt>
      <trkpt lat="47.16587" lon="-1.62479">
        <ele>72</ele>
        <time>2021-04-20T10:22:08.000Z</time>
      </trkpt>
      <trkpt lat="47.16581" lon="-1.62494">
        <ele>73</ele>
        <time>2021-04-20T10:22:10.000Z</time>
      </trkpt>
      <trkpt lat="47.16575" lon="-1.62509">
        <ele>73</ele>
        <time>2021-04-20T10:22:12.000Z</time>
      </trkpt>
      <trkpt lat="47.16569" lon="-1.62524">
        <ele>74</ele>
        <time>2021-04-20T10:22:14.000Z</time>
      </trkpt>
      <trkpt lat="47.16562" lon="-1.62537">
        <ele>74</ele>
        <time>2021-04-20T10:22:16.000Z</time>
      </trkpt>
      <trkpt lat="47.16553" lon="-1.62548">
        <ele>74</ele>
        <time>2021-04-20T10:22:18.000Z</time>
      </trkpt>
      <trkpt lat="47.16543" lon="-1.62558">
        <ele>75</ele>
        <time>2021-04-20T10:22:20.000Z</time>
      </trkpt>
      <trkpt lat="47.16532" lon="-1.62564">
        <ele>75</ele>
        <time>2021-04-20T10:22:22.000Z</time>
      </trkpt>
      <trkpt lat="47.16519" lon="-1.62563">
        <ele>76</ele>
        <time>2021-04-20T10:22:24.000Z</time>
      </trkpt>
      <trkpt lat="47.16507" lon="-1.62559">
        <ele>77</ele>
        <time>2021-04-20T10:22:26.000Z</time>
      </trkpt>
      <trkpt lat="47.16495" lon="-1.62555">
        <ele>77</ele>
        <time>2021-04-20T10:22:28.000Z</time>
      </trkpt>
      <trkpt lat="47.16484" lon="-1.62552">
        <ele>77</ele>
        <time>2021-04-20T10:22:30.000Z</time>
      </trkpt>
      <trkpt lat="47.16472" lon="-1.62548">
        <ele>77</ele>
        <time>2021-04-20T10:22:32.000Z</time>
      </trkpt>
      <trkpt lat="47.16461" lon="-1.62544">
        <ele>78</ele>
        <time>2021-04-20T10:22:34.000Z</time>
      </trkpt>
      <trkpt lat="47.16449" lon="-1.62541">
        <ele>78</ele>
        <time>2021-04-20T10:22:36.000Z</time>
      </trkpt>
      <trkpt lat="47.16437" lon="-1.62541">
        <ele>77</ele>
        <time>2021-04-20T10:22:38.000Z</time>
      </trkpt>
      <trkpt lat="47.16427" lon="-1.62548">
        <ele>77</ele>
        <time>2021-04-20T10:22:40.000Z</time>
      </trkpt>
      <trkpt lat="47.16418" lon="-1.62558">
        <ele>77</ele>
        <time>2021-04-20T10:22:42.000Z</time>
      </trkpt>
      <trkpt lat="47.16407" lon="-1.62567">
        <ele>76</ele>
        <time>2021-04-20T10:22:44.000Z</time>
      </trkpt>
      <trkpt lat="47.16396" lon="-1.62575">
        <ele>76</ele>
        <time>2021-04-20T10:22:46.000Z</time>
      </trkpt>
      <trkpt lat="47.16384" lon="-1.6258">
        <ele>76</ele>
        <time>2021-04-20T10:22:48.000Z</time>
      </trkpt>
      <trkpt lat="47.16371" lon="-1.62582">
        <ele>77</ele>
        <time>2021-04-20T10:22:50.000Z</time>
      </trkpt>
      <trkpt lat="47.16358" lon="-1.62581">
        <ele>77</ele>
        <time>2021-04-20T10:22:52.000Z</time>
      </trkpt>
      <trkpt lat="47.16346" lon="-1.62576">
        <ele>77</ele>
        <time>2021-04-20T10:22:54.000Z</time>
      </trkpt>
      <trkpt lat="47.16335" lon="-1.62571">
        <ele>77</ele>
        <time>2021-04-20T10:22:56.000Z</time>
      </trkpt>
      <trkpt lat="47.16323" lon="-1.62569">
        <ele>77</ele>
        <time>2021-04-20T10:22:58.000Z</time>
      </trkpt>
      <trkpt lat="47.16311" lon="-1.62571">
        <ele>76</ele>
        <time>2021-04-20T10:23:00.000Z</time>
      </trkpt>
      <trkpt lat="47.163" lon="-1.62579">
        <ele>77</ele>
        <time>2021-04-20T10:23:02.000Z</time>
      </trkpt>
      <trkpt lat="47.16292" lon="-1.62593">
        <ele>77</ele>
        <time>2021-04-20T10:23:04.000Z</time>
      </trkpt>
      <trkpt lat="47.16288" lon="-1.6261">
        <ele>77</ele>
        <time>2021-04-20T10:23:06.000Z</time>
      </trkpt>
      <trkpt lat="47.16283" lon="-1.62627">
        <ele>77</ele>
        <time>2021-04-20T10:23:08.000Z</time>
      </trkpt>
      <trkpt lat="47.16281" lon="-1.62645">
        <ele>77</ele>
        <time>2021-04-20T10:23:10.000Z</time>
      </trkpt>
      <trkpt lat="47.1628" lon="-1.62663">
        <ele>76</ele>
        <time>2021-04-20T10:23:12.000Z</time>
      </trkpt>
      <trkpt lat="47.1628" lon="-1.62678">
        <ele>77</ele>
        <time>2021-04-20T10:23:14.000Z</time>
      </trkpt>
      <trkpt lat="47.1628" lon="-1.62693">
        <ele>77</ele>
        <time>2021-04-20T10:23:17.000Z</time>
      </trkpt>
      <trkpt lat="47.16282" lon="-1.62708">
        <ele>77</ele>
        <time>2021-04-20T10:23:23.000Z</time>
      </trkpt>
      <trkpt lat="47.16283" lon="-1.62732">
        <ele>77</ele>
        <time>2021-04-20T10:23:29.000Z</time>
      </trkpt>
      <trkpt lat="47.16271" lon="-1.62735">
        <ele>76</ele>
        <time>2021-04-20T10:23:31.000Z</time>
      </trkpt>
      <trkpt lat="47.1625" lon="-1.62744">
        <ele>75</ele>
        <time>2021-04-20T10:23:34.000Z</time>
      </trkpt>
      <trkpt lat="47.16236" lon="-1.62752">
        <ele>75</ele>
        <time>2021-04-20T10:23:36.000Z</time>
      </trkpt>
      <trkpt lat="47.16214" lon="-1.62762">
        <ele>74</ele>
        <time>2021-04-20T10:23:39.000Z</time>
      </trkpt>
      <trkpt lat="47.16193" lon="-1.62778">
        <ele>73</ele>
        <time>2021-04-20T10:23:42.000Z</time>
      </trkpt>
      <trkpt lat="47.16179" lon="-1.62791">
        <ele>72</ele>
        <time>2021-04-20T10:23:44.000Z</time>
      </trkpt>
      <trkpt lat="47.16165" lon="-1.62804">
        <ele>72</ele>
        <time>2021-04-20T10:23:46.000Z</time>
      </trkpt>
      <trkpt lat="47.16151" lon="-1.62816">
        <ele>72</ele>
        <time>2021-04-20T10:23:48.000Z</time>
      </trkpt>
      <trkpt lat="47.16129" lon="-1.62836">
        <ele>71</ele>
        <time>2021-04-20T10:23:51.000Z</time>
      </trkpt>
      <trkpt lat="47.16115" lon="-1.62848">
        <ele>70</ele>
        <time>2021-04-20T10:23:53.000Z</time>
      </trkpt>
      <trkpt lat="47.16101" lon="-1.62861">
        <ele>70</ele>
        <time>2021-04-20T10:23:55.000Z</time>
      </trkpt>
      <trkpt lat="47.16087" lon="-1.62873">
        <ele>70</ele>
        <time>2021-04-20T10:23:57.000Z</time>
      </trkpt>
      <trkpt lat="47.16073" lon="-1.62886">
        <ele>69</ele>
        <time>2021-04-20T10:23:59.000Z</time>
      </trkpt>
      <trkpt lat="47.16059" lon="-1.62898">
        <ele>69</ele>
        <time>2021-04-20T10:24:01.000Z</time>
      </trkpt>
      <trkpt lat="47.16045" lon="-1.6291">
        <ele>68</ele>
        <time>2021-04-20T10:24:03.000Z</time>
      </trkpt>
      <trkpt lat="47.16031" lon="-1.62922">
        <ele>67</ele>
        <time>2021-04-20T10:24:05.000Z</time>
      </trkpt>
      <trkpt lat="47.16017" lon="-1.62935">
        <ele>67</ele>
        <time>2021-04-20T10:24:07.000Z</time>
      </trkpt>
      <trkpt lat="47.16002" lon="-1.62948">
        <ele>67</ele>
        <time>2021-04-20T10:24:09.000Z</time>
      </trkpt>
      <trkpt lat="47.15988" lon="-1.62961">
        <ele>66</ele>
        <time>2021-04-20T10:24:11.000Z</time>
      </trkpt>
      <trkpt lat="47.15973" lon="-1.62974">
        <ele>66</ele>
        <time>2021-04-20T10:24:13.000Z</time>
      </trkpt>
      <trkpt lat="47.15958" lon="-1.62987">
        <ele>65</ele>
        <time>2021-04-20T10:24:15.000Z</time>
      </trkpt>
      <trkpt lat="47.15944" lon="-1.62999">
        <ele>64</ele>
        <time>2021-04-20T10:24:17.000Z</time>
      </trkpt>
      <trkpt lat="47.1593" lon="-1.63012">
        <ele>63</ele>
        <time>2021-04-20T10:24:19.000Z</time>
      </trkpt>
      <trkpt lat="47.15916" lon="-1.63025">
        <ele>63</ele>
        <time>2021-04-20T10:24:21.000Z</time>
      </trkpt>
      <trkpt lat="47.15902" lon="-1.63037">
        <ele>63</ele>
        <time>2021-04-20T10:24:23.000Z</time>
      </trkpt>
      <trkpt lat="47.15889" lon="-1.63048">
        <ele>62</ele>
        <time>2021-04-20T10:24:25.000Z</time>
      </trkpt>
      <trkpt lat="47.15876" lon="-1.6306">
        <ele>63</ele>
        <time>2021-04-20T10:24:27.000Z</time>
      </trkpt>
      <trkpt lat="47.15863" lon="-1.63071">
        <ele>64</ele>
        <time>2021-04-20T10:24:29.000Z</time>
      </trkpt>
      <trkpt lat="47.15851" lon="-1.63081">
        <ele>64</ele>
        <time>2021-04-20T10:24:31.000Z</time>
      </trkpt>
      <trkpt lat="47.1584" lon="-1.63093">
        <ele>64</ele>
        <time>2021-04-20T10:24:33.000Z</time>
      </trkpt>
      <trkpt lat="47.15828" lon="-1.63103">
        <ele>64</ele>
        <time>2021-04-20T10:24:35.000Z</time>
      </trkpt>
      <trkpt lat="47.15816" lon="-1.63113">
        <ele>65</ele>
        <time>2021-04-20T10:24:37.000Z</time>
      </trkpt>
      <trkpt lat="47.15804" lon="-1.63123">
        <ele>65</ele>
        <time>2021-04-20T10:24:39.000Z</time>
      </trkpt>
      <trkpt lat="47.15792" lon="-1.63133">
        <ele>66</ele>
        <time>2021-04-20T10:24:41.000Z</time>
      </trkpt>
      <trkpt lat="47.15781" lon="-1.63143">
        <ele>66</ele>
        <time>2021-04-20T10:24:43.000Z</time>
      </trkpt>
      <trkpt lat="47.15769" lon="-1.63154">
        <ele>66</ele>
        <time>2021-04-20T10:24:45.000Z</time>
      </trkpt>
      <trkpt lat="47.15757" lon="-1.63165">
        <ele>67</ele>
        <time>2021-04-20T10:24:47.000Z</time>
      </trkpt>
      <trkpt lat="47.15745" lon="-1.63175">
        <ele>67</ele>
        <time>2021-04-20T10:24:49.000Z</time>
      </trkpt>
      <trkpt lat="47.15732" lon="-1.63185">
        <ele>68</ele>
        <time>2021-04-20T10:24:51.000Z</time>
      </trkpt>
      <trkpt lat="47.15721" lon="-1.63196">
        <ele>68</ele>
        <time>2021-04-20T10:24:53.000Z</time>
      </trkpt>
      <trkpt lat="47.15709" lon="-1.63206">
        <ele>68</ele>
        <time>2021-04-20T10:24:55.000Z</time>
      </trkpt>
      <trkpt lat="47.15697" lon="-1.63217">
        <ele>68</ele>
        <time>2021-04-20T10:24:57.000Z</time>
      </trkpt>
      <trkpt lat="47.1568" lon="-1.63233">
        <ele>68</ele>
        <time>2021-04-20T10:25:00.000Z</time>
      </trkpt>
      <trkpt lat="47.15668" lon="-1.63244">
        <ele>69</ele>
        <time>2021-04-20T10:25:02.000Z</time>
      </trkpt>
      <trkpt lat="47.15657" lon="-1.63254">
        <ele>68</ele>
        <time>2021-04-20T10:25:04.000Z</time>
      </trkpt>
      <trkpt lat="47.15645" lon="-1.63265">
        <ele>69</ele>
        <time>2021-04-20T10:25:06.000Z</time>
      </trkpt>
      <trkpt lat="47.15633" lon="-1.63276">
        <ele>68</ele>
        <time>2021-04-20T10:25:08.000Z</time>
      </trkpt>
      <trkpt lat="47.15621" lon="-1.63286">
        <ele>68</ele>
        <time>2021-04-20T10:25:10.000Z</time>
      </trkpt>
      <trkpt lat="47.15609" lon="-1.63296">
        <ele>68</ele>
        <time>2021-04-20T10:25:12.000Z</time>
      </trkpt>
      <trkpt lat="47.15597" lon="-1.63306">
        <ele>68</ele>
        <time>2021-04-20T10:25:14.000Z</time>
      </trkpt>
      <trkpt lat="47.15585" lon="-1.63316">
        <ele>69</ele>
        <time>2021-04-20T10:25:16.000Z</time>
      </trkpt>
      <trkpt lat="47.15574" lon="-1.63327">
        <ele>69</ele>
        <time>2021-04-20T10:25:18.000Z</time>
      </trkpt>
      <trkpt lat="47.15563" lon="-1.63336">
        <ele>70</ele>
        <time>2021-04-20T10:25:20.000Z</time>
      </trkpt>
      <trkpt lat="47.15552" lon="-1.63346">
        <ele>70</ele>
        <time>2021-04-20T10:25:22.000Z</time>
      </trkpt>
      <trkpt lat="47.15541" lon="-1.63356">
        <ele>71</ele>
        <time>2021-04-20T10:25:24.000Z</time>
      </trkpt>
      <trkpt lat="47.15529" lon="-1.63366">
        <ele>71</ele>
        <time>2021-04-20T10:25:26.000Z</time>
      </trkpt>
      <trkpt lat="47.15518" lon="-1.63377">
        <ele>72</ele>
        <time>2021-04-20T10:25:28.000Z</time>
      </trkpt>
      <trkpt lat="47.15507" lon="-1.63387">
        <ele>72</ele>
        <time>2021-04-20T10:25:30.000Z</time>
      </trkpt>
      <trkpt lat="47.15496" lon="-1.63397">
        <ele>72</ele>
        <time>2021-04-20T10:25:32.000Z</time>
      </trkpt>
      <trkpt lat="47.15479" lon="-1.63412">
        <ele>73</ele>
        <time>2021-04-20T10:25:35.000Z</time>
      </trkpt>
      <trkpt lat="47.15468" lon="-1.63423">
        <ele>73</ele>
        <time>2021-04-20T10:25:37.000Z</time>
      </trkpt>
      <trkpt lat="47.15457" lon="-1.63433">
        <ele>73</ele>
        <time>2021-04-20T10:25:39.000Z</time>
      </trkpt>
      <trkpt lat="47.15446" lon="-1.63443">
        <ele>74</ele>
        <time>2021-04-20T10:25:41.000Z</time>
      </trkpt>
      <trkpt lat="47.15435" lon="-1.63453">
        <ele>74</ele>
        <time>2021-04-20T10:25:43.000Z</time>
      </trkpt>
      <trkpt lat="47.15424" lon="-1.63463">
        <ele>74</ele>
        <time>2021-04-20T10:25:45.000Z</time>
      </trkpt>
      <trkpt lat="47.15414" lon="-1.63473">
        <ele>74</ele>
        <time>2021-04-20T10:25:47.000Z</time>
      </trkpt>
      <trkpt lat="47.15406" lon="-1.63486">
        <ele>75</ele>
        <time>2021-04-20T10:25:49.000Z</time>
      </trkpt>
      <trkpt lat="47.15391" lon="-1.63502">
        <ele>75</ele>
        <time>2021-04-20T10:25:52.000Z</time>
      </trkpt>
      <trkpt lat="47.1538" lon="-1.63509">
        <ele>75</ele>
        <time>2021-04-20T10:25:54.000Z</time>
      </trkpt>
      <trkpt lat="47.15368" lon="-1.63514">
        <ele>75</ele>
        <time>2021-04-20T10:25:56.000Z</time>
      </trkpt>
      <trkpt lat="47.15357" lon="-1.63525">
        <ele>75</ele>
        <time>2021-04-20T10:25:58.000Z</time>
      </trkpt>
      <trkpt lat="47.15346" lon="-1.63536">
        <ele>75</ele>
        <time>2021-04-20T10:26:00.000Z</time>
      </trkpt>
      <trkpt lat="47.15335" lon="-1.63547">
        <ele>75</ele>
        <time>2021-04-20T10:26:02.000Z</time>
      </trkpt>
      <trkpt lat="47.15323" lon="-1.63556">
        <ele>75</ele>
        <time>2021-04-20T10:26:04.000Z</time>
      </trkpt>
      <trkpt lat="47.15311" lon="-1.63563">
        <ele>75</ele>
        <time>2021-04-20T10:26:06.000Z</time>
      </trkpt>
      <trkpt lat="47.153" lon="-1.63573">
        <ele>75</ele>
        <time>2021-04-20T10:26:08.000Z</time>
      </trkpt>
      <trkpt lat="47.15288" lon="-1.63585">
        <ele>75</ele>
        <time>2021-04-20T10:26:10.000Z</time>
      </trkpt>
      <trkpt lat="47.15276" lon="-1.63595">
        <ele>74</ele>
        <time>2021-04-20T10:26:12.000Z</time>
      </trkpt>
      <trkpt lat="47.15263" lon="-1.63605">
        <ele>74</ele>
        <time>2021-04-20T10:26:14.000Z</time>
      </trkpt>
      <trkpt lat="47.15251" lon="-1.63616">
        <ele>74</ele>
        <time>2021-04-20T10:26:16.000Z</time>
      </trkpt>
      <trkpt lat="47.15239" lon="-1.63626">
        <ele>74</ele>
        <time>2021-04-20T10:26:18.000Z</time>
      </trkpt>
      <trkpt lat="47.15227" lon="-1.63636">
        <ele>74</ele>
        <time>2021-04-20T10:26:20.000Z</time>
      </trkpt>
      <trkpt lat="47.15214" lon="-1.63646">
        <ele>73</ele>
        <time>2021-04-20T10:26:22.000Z</time>
      </trkpt>
      <trkpt lat="47.15202" lon="-1.63657">
        <ele>73</ele>
        <time>2021-04-20T10:26:24.000Z</time>
      </trkpt>
      <trkpt lat="47.1519" lon="-1.63668">
        <ele>73</ele>
        <time>2021-04-20T10:26:26.000Z</time>
      </trkpt>
      <trkpt lat="47.15178" lon="-1.63679">
        <ele>73</ele>
        <time>2021-04-20T10:26:28.000Z</time>
      </trkpt>
      <trkpt lat="47.15166" lon="-1.6369">
        <ele>74</ele>
        <time>2021-04-20T10:26:30.000Z</time>
      </trkpt>
      <trkpt lat="47.15154" lon="-1.63701">
        <ele>74</ele>
        <time>2021-04-20T10:26:32.000Z</time>
      </trkpt>
      <trkpt lat="47.15142" lon="-1.63712">
        <ele>74</ele>
        <time>2021-04-20T10:26:34.000Z</time>
      </trkpt>
      <trkpt lat="47.1513" lon="-1.63723">
        <ele>74</ele>
        <time>2021-04-20T10:26:36.000Z</time>
      </trkpt>
      <trkpt lat="47.15119" lon="-1.63735">
        <ele>74</ele>
        <time>2021-04-20T10:26:38.000Z</time>
      </trkpt>
      <trkpt lat="47.15108" lon="-1.63747">
        <ele>74</ele>
        <time>2021-04-20T10:26:40.000Z</time>
      </trkpt>
      <trkpt lat="47.15097" lon="-1.6376">
        <ele>74</ele>
        <time>2021-04-20T10:26:42.000Z</time>
      </trkpt>
      <trkpt lat="47.15086" lon="-1.63772">
        <ele>74</ele>
        <time>2021-04-20T10:26:44.000Z</time>
      </trkpt>
      <trkpt lat="47.15076" lon="-1.63785">
        <ele>74</ele>
        <time>2021-04-20T10:26:46.000Z</time>
      </trkpt>
      <trkpt lat="47.15066" lon="-1.63797">
        <ele>74</ele>
        <time>2021-04-20T10:26:48.000Z</time>
      </trkpt>
      <trkpt lat="47.15056" lon="-1.6381">
        <ele>74</ele>
        <time>2021-04-20T10:26:50.000Z</time>
      </trkpt>
      <trkpt lat="47.15046" lon="-1.63824">
        <ele>74</ele>
        <time>2021-04-20T10:26:52.000Z</time>
      </trkpt>
      <trkpt lat="47.15035" lon="-1.63837">
        <ele>74</ele>
        <time>2021-04-20T10:26:54.000Z</time>
      </trkpt>
      <trkpt lat="47.15026" lon="-1.63852">
        <ele>73</ele>
        <time>2021-04-20T10:26:56.000Z</time>
      </trkpt>
      <trkpt lat="47.15016" lon="-1.63866">
        <ele>73</ele>
        <time>2021-04-20T10:26:58.000Z</time>
      </trkpt>
      <trkpt lat="47.15006" lon="-1.6388">
        <ele>73</ele>
        <time>2021-04-20T10:27:00.000Z</time>
      </trkpt>
      <trkpt lat="47.14997" lon="-1.63894">
        <ele>74</ele>
        <time>2021-04-20T10:27:02.000Z</time>
      </trkpt>
      <trkpt lat="47.14988" lon="-1.63908">
        <ele>74</ele>
        <time>2021-04-20T10:27:04.000Z</time>
      </trkpt>
      <trkpt lat="47.14979" lon="-1.63921">
        <ele>74</ele>
        <time>2021-04-20T10:27:06.000Z</time>
      </trkpt>
      <trkpt lat="47.14971" lon="-1.63936">
        <ele>73</ele>
        <time>2021-04-20T10:27:08.000Z</time>
      </trkpt>
      <trkpt lat="47.14963" lon="-1.6395">
        <ele>73</ele>
        <time>2021-04-20T10:27:10.000Z</time>
      </trkpt>
      <trkpt lat="47.14955" lon="-1.63964">
        <ele>73</ele>
        <time>2021-04-20T10:27:12.000Z</time>
      </trkpt>
      <trkpt lat="47.14947" lon="-1.63978">
        <ele>73</ele>
        <time>2021-04-20T10:27:14.000Z</time>
      </trkpt>
      <trkpt lat="47.1494" lon="-1.63992">
        <ele>73</ele>
        <time>2021-04-20T10:27:16.000Z</time>
      </trkpt>
      <trkpt lat="47.14932" lon="-1.64005">
        <ele>74</ele>
        <time>2021-04-20T10:27:18.000Z</time>
      </trkpt>
      <trkpt lat="47.14922" lon="-1.64017">
        <ele>74</ele>
        <time>2021-04-20T10:27:20.000Z</time>
      </trkpt>
      <trkpt lat="47.14913" lon="-1.64031">
        <ele>74</ele>
        <time>2021-04-20T10:27:22.000Z</time>
      </trkpt>
      <trkpt lat="47.14902" lon="-1.6404">
        <ele>74</ele>
        <time>2021-04-20T10:27:24.000Z</time>
      </trkpt>
      <trkpt lat="47.14889" lon="-1.64037">
        <ele>74</ele>
        <time>2021-04-20T10:27:26.000Z</time>
      </trkpt>
      <trkpt lat="47.14878" lon="-1.64024">
        <ele>74</ele>
        <time>2021-04-20T10:27:28.000Z</time>
      </trkpt>
      <trkpt lat="47.1487" lon="-1.6401">
        <ele>74</ele>
        <time>2021-04-20T10:27:30.000Z</time>
      </trkpt>
      <trkpt lat="47.14862" lon="-1.63996">
        <ele>74</ele>
        <time>2021-04-20T10:27:32.000Z</time>
      </trkpt>
      <trkpt lat="47.14849" lon="-1.63989">
        <ele>74</ele>
        <time>2021-04-20T10:27:34.000Z</time>
      </trkpt>
      <trkpt lat="47.14834" lon="-1.63986">
        <ele>74</ele>
        <time>2021-04-20T10:27:36.000Z</time>
      </trkpt>
      <trkpt lat="47.14821" lon="-1.63993">
        <ele>74</ele>
        <time>2021-04-20T10:27:38.000Z</time>
      </trkpt>
      <trkpt lat="47.1481" lon="-1.64005">
        <ele>74</ele>
        <time>2021-04-20T10:27:40.000Z</time>
      </trkpt>
      <trkpt lat="47.14799" lon="-1.64016">
        <ele>74</ele>
        <time>2021-04-20T10:27:42.000Z</time>
      </trkpt>
      <trkpt lat="47.14788" lon="-1.64027">
        <ele>73</ele>
        <time>2021-04-20T10:27:44.000Z</time>
      </trkpt>
      <trkpt lat="47.14776" lon="-1.64037">
        <ele>73</ele>
        <time>2021-04-20T10:27:46.000Z</time>
      </trkpt>
      <trkpt lat="47.14763" lon="-1.64045">
        <ele>72</ele>
        <time>2021-04-20T10:27:48.000Z</time>
      </trkpt>
      <trkpt lat="47.14749" lon="-1.64052">
        <ele>73</ele>
        <time>2021-04-20T10:27:50.000Z</time>
      </trkpt>
      <trkpt lat="47.14735" lon="-1.64057">
        <ele>73</ele>
        <time>2021-04-20T10:27:52.000Z</time>
      </trkpt>
      <trkpt lat="47.14722" lon="-1.64063">
        <ele>73</ele>
        <time>2021-04-20T10:27:54.000Z</time>
      </trkpt>
      <trkpt lat="47.14709" lon="-1.64068">
        <ele>73</ele>
        <time>2021-04-20T10:27:56.000Z</time>
      </trkpt>
      <trkpt lat="47.14696" lon="-1.64073">
        <ele>74</ele>
        <time>2021-04-20T10:27:58.000Z</time>
      </trkpt>
      <trkpt lat="47.14684" lon="-1.64079">
        <ele>74</ele>
        <time>2021-04-20T10:28:00.000Z</time>
      </trkpt>
      <trkpt lat="47.14671" lon="-1.64085">
        <ele>73</ele>
        <time>2021-04-20T10:28:02.000Z</time>
      </trkpt>
      <trkpt lat="47.14658" lon="-1.64092">
        <ele>72</ele>
        <time>2021-04-20T10:28:04.000Z</time>
      </trkpt>
      <trkpt lat="47.14644" lon="-1.641">
        <ele>72</ele>
        <time>2021-04-20T10:28:06.000Z</time>
      </trkpt>
      <trkpt lat="47.1463" lon="-1.64107">
        <ele>71</ele>
        <time>2021-04-20T10:28:08.000Z</time>
      </trkpt>
      <trkpt lat="47.14616" lon="-1.64114">
        <ele>71</ele>
        <time>2021-04-20T10:28:10.000Z</time>
      </trkpt>
      <trkpt lat="47.14603" lon="-1.64122">
        <ele>71</ele>
        <time>2021-04-20T10:28:12.000Z</time>
      </trkpt>
      <trkpt lat="47.14589" lon="-1.6413">
        <ele>70</ele>
        <time>2021-04-20T10:28:14.000Z</time>
      </trkpt>
      <trkpt lat="47.14575" lon="-1.64138">
        <ele>70</ele>
        <time>2021-04-20T10:28:16.000Z</time>
      </trkpt>
      <trkpt lat="47.14562" lon="-1.64146">
        <ele>70</ele>
        <time>2021-04-20T10:28:18.000Z</time>
      </trkpt>
      <trkpt lat="47.14549" lon="-1.64156">
        <ele>70</ele>
        <time>2021-04-20T10:28:20.000Z</time>
      </trkpt>
      <trkpt lat="47.14535" lon="-1.64165">
        <ele>70</ele>
        <time>2021-04-20T10:28:22.000Z</time>
      </trkpt>
      <trkpt lat="47.14521" lon="-1.64174">
        <ele>70</ele>
        <time>2021-04-20T10:28:24.000Z</time>
      </trkpt>
      <trkpt lat="47.14507" lon="-1.64183">
        <ele>69</ele>
        <time>2021-04-20T10:28:26.000Z</time>
      </trkpt>
      <trkpt lat="47.14493" lon="-1.64192">
        <ele>69</ele>
        <time>2021-04-20T10:28:28.000Z</time>
      </trkpt>
      <trkpt lat="47.14479" lon="-1.64201">
        <ele>69</ele>
        <time>2021-04-20T10:28:30.000Z</time>
      </trkpt>
      <trkpt lat="47.14464" lon="-1.64208">
        <ele>68</ele>
        <time>2021-04-20T10:28:32.000Z</time>
      </trkpt>
      <trkpt lat="47.1445" lon="-1.64213">
        <ele>68</ele>
        <time>2021-04-20T10:28:34.000Z</time>
      </trkpt>
      <trkpt lat="47.14436" lon="-1.64216">
        <ele>67</ele>
        <time>2021-04-20T10:28:36.000Z</time>
      </trkpt>
      <trkpt lat="47.14421" lon="-1.64219">
        <ele>67</ele>
        <time>2021-04-20T10:28:38.000Z</time>
      </trkpt>
      <trkpt lat="47.14406" lon="-1.64221">
        <ele>67</ele>
        <time>2021-04-20T10:28:40.000Z</time>
      </trkpt>
      <trkpt lat="47.14391" lon="-1.64223">
        <ele>66</ele>
        <time>2021-04-20T10:28:42.000Z</time>
      </trkpt>
      <trkpt lat="47.14378" lon="-1.64226">
        <ele>66</ele>
        <time>2021-04-20T10:28:44.000Z</time>
      </trkpt>
      <trkpt lat="47.14365" lon="-1.64227">
        <ele>66</ele>
        <time>2021-04-20T10:28:46.000Z</time>
      </trkpt>
      <trkpt lat="47.14352" lon="-1.64229">
        <ele>65</ele>
        <time>2021-04-20T10:28:48.000Z</time>
      </trkpt>
      <trkpt lat="47.14337" lon="-1.64231">
        <ele>66</ele>
        <time>2021-04-20T10:28:50.000Z</time>
      </trkpt>
      <trkpt lat="47.14322" lon="-1.64234">
        <ele>66</ele>
        <time>2021-04-20T10:28:52.000Z</time>
      </trkpt>
      <trkpt lat="47.14307" lon="-1.64236">
        <ele>66</ele>
        <time>2021-04-20T10:28:54.000Z</time>
      </trkpt>
      <trkpt lat="47.14293" lon="-1.6424">
        <ele>66</ele>
        <time>2021-04-20T10:28:56.000Z</time>
      </trkpt>
      <trkpt lat="47.14279" lon="-1.64247">
        <ele>66</ele>
        <time>2021-04-20T10:28:58.000Z</time>
      </trkpt>
      <trkpt lat="47.14266" lon="-1.64253">
        <ele>67</ele>
        <time>2021-04-20T10:29:00.000Z</time>
      </trkpt>
      <trkpt lat="47.14254" lon="-1.64263">
        <ele>65</ele>
        <time>2021-04-20T10:29:02.000Z</time>
      </trkpt>
      <trkpt lat="47.14241" lon="-1.64273">
        <ele>64</ele>
        <time>2021-04-20T10:29:04.000Z</time>
      </trkpt>
      <trkpt lat="47.14229" lon="-1.64285">
        <ele>64</ele>
        <time>2021-04-20T10:29:06.000Z</time>
      </trkpt>
      <trkpt lat="47.14217" lon="-1.64297">
        <ele>65</ele>
        <time>2021-04-20T10:29:08.000Z</time>
      </trkpt>
      <trkpt lat="47.14205" lon="-1.64309">
        <ele>65</ele>
        <time>2021-04-20T10:29:10.000Z</time>
      </trkpt>
      <trkpt lat="47.14194" lon="-1.64323">
        <ele>65</ele>
        <time>2021-04-20T10:29:12.000Z</time>
      </trkpt>
      <trkpt lat="47.14183" lon="-1.64337">
        <ele>66</ele>
        <time>2021-04-20T10:29:14.000Z</time>
      </trkpt>
      <trkpt lat="47.1417" lon="-1.6435">
        <ele>66</ele>
        <time>2021-04-20T10:29:16.000Z</time>
      </trkpt>
      <trkpt lat="47.14159" lon="-1.64362">
        <ele>65</ele>
        <time>2021-04-20T10:29:18.000Z</time>
      </trkpt>
      <trkpt lat="47.14146" lon="-1.64372">
        <ele>65</ele>
        <time>2021-04-20T10:29:20.000Z</time>
      </trkpt>
      <trkpt lat="47.14132" lon="-1.64382">
        <ele>65</ele>
        <time>2021-04-20T10:29:22.000Z</time>
      </trkpt>
      <trkpt lat="47.14119" lon="-1.64392">
        <ele>65</ele>
        <time>2021-04-20T10:29:24.000Z</time>
      </trkpt>
      <trkpt lat="47.14106" lon="-1.64402">
        <ele>65</ele>
        <time>2021-04-20T10:29:26.000Z</time>
      </trkpt>
      <trkpt lat="47.14093" lon="-1.64412">
        <ele>65</ele>
        <time>2021-04-20T10:29:28.000Z</time>
      </trkpt>
      <trkpt lat="47.14081" lon="-1.64423">
        <ele>65</ele>
        <time>2021-04-20T10:29:30.000Z</time>
      </trkpt>
      <trkpt lat="47.14067" lon="-1.64434">
        <ele>65</ele>
        <time>2021-04-20T10:29:32.000Z</time>
      </trkpt>
      <trkpt lat="47.14054" lon="-1.64444">
        <ele>65</ele>
        <time>2021-04-20T10:29:34.000Z</time>
      </trkpt>
      <trkpt lat="47.14043" lon="-1.64454">
        <ele>65</ele>
        <time>2021-04-20T10:29:36.000Z</time>
      </trkpt>
      <trkpt lat="47.14031" lon="-1.64464">
        <ele>65</ele>
        <time>2021-04-20T10:29:38.000Z</time>
      </trkpt>
      <trkpt lat="47.14019" lon="-1.64474">
        <ele>65</ele>
        <time>2021-04-20T10:29:40.000Z</time>
      </trkpt>
      <trkpt lat="47.14007" lon="-1.64484">
        <ele>65</ele>
        <time>2021-04-20T10:29:42.000Z</time>
      </trkpt>
      <trkpt lat="47.13994" lon="-1.64494">
        <ele>64</ele>
        <time>2021-04-20T10:29:44.000Z</time>
      </trkpt>
      <trkpt lat="47.13981" lon="-1.64506">
        <ele>63</ele>
        <time>2021-04-20T10:29:46.000Z</time>
      </trkpt>
      <trkpt lat="47.13968" lon="-1.64518">
        <ele>62</ele>
        <time>2021-04-20T10:29:48.000Z</time>
      </trkpt>
      <trkpt lat="47.13956" lon="-1.64531">
        <ele>61</ele>
        <time>2021-04-20T10:29:50.000Z</time>
      </trkpt>
      <trkpt lat="47.13944" lon="-1.64543">
        <ele>61</ele>
        <time>2021-04-20T10:29:52.000Z</time>
      </trkpt>
      <trkpt lat="47.13932" lon="-1.64555">
        <ele>61</ele>
        <time>2021-04-20T10:29:54.000Z</time>
      </trkpt>
      <trkpt lat="47.13921" lon="-1.64566">
        <ele>61</ele>
        <time>2021-04-20T10:29:56.000Z</time>
      </trkpt>
      <trkpt lat="47.1391" lon="-1.64576">
        <ele>61</ele>
        <time>2021-04-20T10:29:58.000Z</time>
      </trkpt>
      <trkpt lat="47.13897" lon="-1.64585">
        <ele>61</ele>
        <time>2021-04-20T10:30:00.000Z</time>
      </trkpt>
      <trkpt lat="47.13883" lon="-1.64592">
        <ele>60</ele>
        <time>2021-04-20T10:30:02.000Z</time>
      </trkpt>
      <trkpt lat="47.13869" lon="-1.64597">
        <ele>61</ele>
        <time>2021-04-20T10:30:04.000Z</time>
      </trkpt>
      <trkpt lat="47.13853" lon="-1.64599">
        <ele>61</ele>
        <time>2021-04-20T10:30:06.000Z</time>
      </trkpt>
      <trkpt lat="47.13839" lon="-1.64601">
        <ele>62</ele>
        <time>2021-04-20T10:30:08.000Z</time>
      </trkpt>
      <trkpt lat="47.13825" lon="-1.64602">
        <ele>63</ele>
        <time>2021-04-20T10:30:10.000Z</time>
      </trkpt>
      <trkpt lat="47.13812" lon="-1.64601">
        <ele>63</ele>
        <time>2021-04-20T10:30:12.000Z</time>
      </trkpt>
      <trkpt lat="47.13799" lon="-1.646">
        <ele>64</ele>
        <time>2021-04-20T10:30:14.000Z</time>
      </trkpt>
      <trkpt lat="47.13786" lon="-1.64597">
        <ele>64</ele>
        <time>2021-04-20T10:30:16.000Z</time>
      </trkpt>
      <trkpt lat="47.13773" lon="-1.64595">
        <ele>64</ele>
        <time>2021-04-20T10:30:18.000Z</time>
      </trkpt>
      <trkpt lat="47.1376" lon="-1.64593">
        <ele>65</ele>
        <time>2021-04-20T10:30:20.000Z</time>
      </trkpt>
      <trkpt lat="47.13747" lon="-1.64589">
        <ele>66</ele>
        <time>2021-04-20T10:30:22.000Z</time>
      </trkpt>
      <trkpt lat="47.13733" lon="-1.64586">
        <ele>66</ele>
        <time>2021-04-20T10:30:24.000Z</time>
      </trkpt>
      <trkpt lat="47.13721" lon="-1.64583">
        <ele>66</ele>
        <time>2021-04-20T10:30:26.000Z</time>
      </trkpt>
      <trkpt lat="47.13709" lon="-1.64581">
        <ele>67</ele>
        <time>2021-04-20T10:30:28.000Z</time>
      </trkpt>
      <trkpt lat="47.13697" lon="-1.64579">
        <ele>68</ele>
        <time>2021-04-20T10:30:30.000Z</time>
      </trkpt>
      <trkpt lat="47.13684" lon="-1.64576">
        <ele>68</ele>
        <time>2021-04-20T10:30:32.000Z</time>
      </trkpt>
      <trkpt lat="47.13673" lon="-1.64574">
        <ele>69</ele>
        <time>2021-04-20T10:30:34.000Z</time>
      </trkpt>
      <trkpt lat="47.13661" lon="-1.6457">
        <ele>69</ele>
        <time>2021-04-20T10:30:36.000Z</time>
      </trkpt>
      <trkpt lat="47.13649" lon="-1.64567">
        <ele>69</ele>
        <time>2021-04-20T10:30:38.000Z</time>
      </trkpt>
      <trkpt lat="47.13638" lon="-1.64564">
        <ele>69</ele>
        <time>2021-04-20T10:30:40.000Z</time>
      </trkpt>
      <trkpt lat="47.13627" lon="-1.64562">
        <ele>70</ele>
        <time>2021-04-20T10:30:42.000Z</time>
      </trkpt>
      <trkpt lat="47.13615" lon="-1.64559">
        <ele>70</ele>
        <time>2021-04-20T10:30:44.000Z</time>
      </trkpt>
      <trkpt lat="47.13603" lon="-1.64558">
        <ele>70</ele>
        <time>2021-04-20T10:30:46.000Z</time>
      </trkpt>
      <trkpt lat="47.13592" lon="-1.64559">
        <ele>70</ele>
        <time>2021-04-20T10:30:48.000Z</time>
      </trkpt>
      <trkpt lat="47.1358" lon="-1.64563">
        <ele>70</ele>
        <time>2021-04-20T10:30:50.000Z</time>
      </trkpt>
      <trkpt lat="47.1357" lon="-1.64568">
        <ele>70</ele>
        <time>2021-04-20T10:30:52.000Z</time>
      </trkpt>
      <trkpt lat="47.1356" lon="-1.64575">
        <ele>69</ele>
        <time>2021-04-20T10:30:54.000Z</time>
      </trkpt>
      <trkpt lat="47.1355" lon="-1.64584">
        <ele>69</ele>
        <time>2021-04-20T10:30:56.000Z</time>
      </trkpt>
      <trkpt lat="47.13541" lon="-1.64593">
        <ele>69</ele>
        <time>2021-04-20T10:30:58.000Z</time>
      </trkpt>
      <trkpt lat="47.13531" lon="-1.64604">
        <ele>70</ele>
        <time>2021-04-20T10:31:00.000Z</time>
      </trkpt>
      <trkpt lat="47.13521" lon="-1.64614">
        <ele>69</ele>
        <time>2021-04-20T10:31:02.000Z</time>
      </trkpt>
      <trkpt lat="47.13511" lon="-1.64624">
        <ele>69</ele>
        <time>2021-04-20T10:31:04.000Z</time>
      </trkpt>
      <trkpt lat="47.13502" lon="-1.64634">
        <ele>69</ele>
        <time>2021-04-20T10:31:06.000Z</time>
      </trkpt>
      <trkpt lat="47.13491" lon="-1.64641">
        <ele>69</ele>
        <time>2021-04-20T10:31:08.000Z</time>
      </trkpt>
      <trkpt lat="47.13479" lon="-1.64644">
        <ele>69</ele>
        <time>2021-04-20T10:31:10.000Z</time>
      </trkpt>
      <trkpt lat="47.13467" lon="-1.64646">
        <ele>69</ele>
        <time>2021-04-20T10:31:12.000Z</time>
      </trkpt>
      <trkpt lat="47.13455" lon="-1.64645">
        <ele>69</ele>
        <time>2021-04-20T10:31:14.000Z</time>
      </trkpt>
      <trkpt lat="47.13443" lon="-1.64644">
        <ele>68</ele>
        <time>2021-04-20T10:31:16.000Z</time>
      </trkpt>
      <trkpt lat="47.13432" lon="-1.64644">
        <ele>69</ele>
        <time>2021-04-20T10:31:18.000Z</time>
      </trkpt>
      <trkpt lat="47.13421" lon="-1.64643">
        <ele>69</ele>
        <time>2021-04-20T10:31:20.000Z</time>
      </trkpt>
      <trkpt lat="47.13412" lon="-1.64643">
        <ele>69</ele>
        <time>2021-04-20T10:31:22.000Z</time>
      </trkpt>
      <trkpt lat="47.13401" lon="-1.64635">
        <ele>70</ele>
        <time>2021-04-20T10:31:25.000Z</time>
      </trkpt>
      <trkpt lat="47.13398" lon="-1.64619">
        <ele>70</ele>
        <time>2021-04-20T10:31:27.000Z</time>
      </trkpt>
      <trkpt lat="47.13395" lon="-1.64601">
        <ele>70</ele>
        <time>2021-04-20T10:31:29.000Z</time>
      </trkpt>
      <trkpt lat="47.13392" lon="-1.64584">
        <ele>70</ele>
        <time>2021-04-20T10:31:31.000Z</time>
      </trkpt>
      <trkpt lat="47.13388" lon="-1.64566">
        <ele>70</ele>
        <time>2021-04-20T10:31:33.000Z</time>
      </trkpt>
      <trkpt lat="47.13384" lon="-1.64549">
        <ele>70</ele>
        <time>2021-04-20T10:31:35.000Z</time>
      </trkpt>
      <trkpt lat="47.1338" lon="-1.64532">
        <ele>69</ele>
        <time>2021-04-20T10:31:37.000Z</time>
      </trkpt>
      <trkpt lat="47.13375" lon="-1.64515">
        <ele>69</ele>
        <time>2021-04-20T10:31:39.000Z</time>
      </trkpt>
      <trkpt lat="47.13369" lon="-1.64499">
        <ele>69</ele>
        <time>2021-04-20T10:31:41.000Z</time>
      </trkpt>
      <trkpt lat="47.13362" lon="-1.64483">
        <ele>68</ele>
        <time>2021-04-20T10:31:43.000Z</time>
      </trkpt>
      <trkpt lat="47.13354" lon="-1.64467">
        <ele>68</ele>
        <time>2021-04-20T10:31:45.000Z</time>
      </trkpt>
      <trkpt lat="47.13346" lon="-1.6445">
        <ele>67</ele>
        <time>2021-04-20T10:31:47.000Z</time>
      </trkpt>
      <trkpt lat="47.13339" lon="-1.64433">
        <ele>67</ele>
        <time>2021-04-20T10:31:49.000Z</time>
      </trkpt>
      <trkpt lat="47.1333" lon="-1.64415">
        <ele>66</ele>
        <time>2021-04-20T10:31:51.000Z</time>
      </trkpt>
      <trkpt lat="47.13321" lon="-1.64398">
        <ele>66</ele>
        <time>2021-04-20T10:31:53.000Z</time>
      </trkpt>
      <trkpt lat="47.13312" lon="-1.64379">
        <ele>65</ele>
        <time>2021-04-20T10:31:55.000Z</time>
      </trkpt>
      <trkpt lat="47.13303" lon="-1.6436">
        <ele>65</ele>
        <time>2021-04-20T10:31:57.000Z</time>
      </trkpt>
      <trkpt lat="47.13295" lon="-1.64343">
        <ele>65</ele>
        <time>2021-04-20T10:31:59.000Z</time>
      </trkpt>
      <trkpt lat="47.13286" lon="-1.64324">
        <ele>65</ele>
        <time>2021-04-20T10:32:01.000Z</time>
      </trkpt>
      <trkpt lat="47.13276" lon="-1.64306">
        <ele>65</ele>
        <time>2021-04-20T10:32:03.000Z</time>
      </trkpt>
      <trkpt lat="47.13268" lon="-1.64288">
        <ele>64</ele>
        <time>2021-04-20T10:32:05.000Z</time>
      </trkpt>
      <trkpt lat="47.13259" lon="-1.64269">
        <ele>63</ele>
        <time>2021-04-20T10:32:07.000Z</time>
      </trkpt>
      <trkpt lat="47.13251" lon="-1.64251">
        <ele>63</ele>
        <time>2021-04-20T10:32:09.000Z</time>
      </trkpt>
      <trkpt lat="47.13244" lon="-1.64232">
        <ele>62</ele>
        <time>2021-04-20T10:32:11.000Z</time>
      </trkpt>
      <trkpt lat="47.13235" lon="-1.64213">
        <ele>62</ele>
        <time>2021-04-20T10:32:13.000Z</time>
      </trkpt>
      <trkpt lat="47.13226" lon="-1.64195">
        <ele>62</ele>
        <time>2021-04-20T10:32:15.000Z</time>
      </trkpt>
      <trkpt lat="47.13217" lon="-1.64178">
        <ele>62</ele>
        <time>2021-04-20T10:32:17.000Z</time>
      </trkpt>
      <trkpt lat="47.1321" lon="-1.6416">
        <ele>61</ele>
        <time>2021-04-20T10:32:19.000Z</time>
      </trkpt>
      <trkpt lat="47.13202" lon="-1.64142">
        <ele>61</ele>
        <time>2021-04-20T10:32:21.000Z</time>
      </trkpt>
      <trkpt lat="47.13193" lon="-1.64124">
        <ele>61</ele>
        <time>2021-04-20T10:32:23.000Z</time>
      </trkpt>
      <trkpt lat="47.13186" lon="-1.64106">
        <ele>61</ele>
        <time>2021-04-20T10:32:25.000Z</time>
      </trkpt>
      <trkpt lat="47.13178" lon="-1.64089">
        <ele>60</ele>
        <time>2021-04-20T10:32:27.000Z</time>
      </trkpt>
      <trkpt lat="47.13171" lon="-1.64071">
        <ele>60</ele>
        <time>2021-04-20T10:32:29.000Z</time>
      </trkpt>
      <trkpt lat="47.13163" lon="-1.64053">
        <ele>59</ele>
        <time>2021-04-20T10:32:31.000Z</time>
      </trkpt>
      <trkpt lat="47.13155" lon="-1.64036">
        <ele>59</ele>
        <time>2021-04-20T10:32:33.000Z</time>
      </trkpt>
      <trkpt lat="47.13149" lon="-1.64018">
        <ele>58</ele>
        <time>2021-04-20T10:32:35.000Z</time>
      </trkpt>
      <trkpt lat="47.13142" lon="-1.64">
        <ele>58</ele>
        <time>2021-04-20T10:32:37.000Z</time>
      </trkpt>
      <trkpt lat="47.13135" lon="-1.63983">
        <ele>58</ele>
        <time>2021-04-20T10:32:39.000Z</time>
      </trkpt>
      <trkpt lat="47.13128" lon="-1.63964">
        <ele>58</ele>
        <time>2021-04-20T10:32:41.000Z</time>
      </trkpt>
      <trkpt lat="47.13121" lon="-1.63945">
        <ele>58</ele>
        <time>2021-04-20T10:32:43.000Z</time>
      </trkpt>
      <trkpt lat="47.13114" lon="-1.63926">
        <ele>58</ele>
        <time>2021-04-20T10:32:45.000Z</time>
      </trkpt>
      <trkpt lat="47.13108" lon="-1.63908">
        <ele>58</ele>
        <time>2021-04-20T10:32:47.000Z</time>
      </trkpt>
      <trkpt lat="47.13101" lon="-1.6389">
        <ele>57</ele>
        <time>2021-04-20T10:32:49.000Z</time>
      </trkpt>
      <trkpt lat="47.13094" lon="-1.63872">
        <ele>57</ele>
        <time>2021-04-20T10:32:51.000Z</time>
      </trkpt>
      <trkpt lat="47.13087" lon="-1.63854">
        <ele>57</ele>
        <time>2021-04-20T10:32:53.000Z</time>
      </trkpt>
      <trkpt lat="47.13079" lon="-1.63835">
        <ele>57</ele>
        <time>2021-04-20T10:32:55.000Z</time>
      </trkpt>
      <trkpt lat="47.13072" lon="-1.63817">
        <ele>57</ele>
        <time>2021-04-20T10:32:57.000Z</time>
      </trkpt>
      <trkpt lat="47.13064" lon="-1.638">
        <ele>57</ele>
        <time>2021-04-20T10:32:59.000Z</time>
      </trkpt>
      <trkpt lat="47.13056" lon="-1.63783">
        <ele>57</ele>
        <time>2021-04-20T10:33:01.000Z</time>
      </trkpt>
      <trkpt lat="47.13049" lon="-1.63766">
        <ele>57</ele>
        <time>2021-04-20T10:33:03.000Z</time>
      </trkpt>
      <trkpt lat="47.13041" lon="-1.63749">
        <ele>57</ele>
        <time>2021-04-20T10:33:05.000Z</time>
      </trkpt>
      <trkpt lat="47.13032" lon="-1.63732">
        <ele>57</ele>
        <time>2021-04-20T10:33:07.000Z</time>
      </trkpt>
      <trkpt lat="47.13024" lon="-1.63715">
        <ele>56</ele>
        <time>2021-04-20T10:33:09.000Z</time>
      </trkpt>
      <trkpt lat="47.13017" lon="-1.637">
        <ele>56</ele>
        <time>2021-04-20T10:33:11.000Z</time>
      </trkpt>
      <trkpt lat="47.13009" lon="-1.63683">
        <ele>55</ele>
        <time>2021-04-20T10:33:13.000Z</time>
      </trkpt>
      <trkpt lat="47.13001" lon="-1.63668">
        <ele>55</ele>
        <time>2021-04-20T10:33:15.000Z</time>
      </trkpt>
      <trkpt lat="47.12994" lon="-1.6365">
        <ele>55</ele>
        <time>2021-04-20T10:33:17.000Z</time>
      </trkpt>
      <trkpt lat="47.12988" lon="-1.63632">
        <ele>56</ele>
        <time>2021-04-20T10:33:19.000Z</time>
      </trkpt>
      <trkpt lat="47.12982" lon="-1.63613">
        <ele>55</ele>
        <time>2021-04-20T10:33:21.000Z</time>
      </trkpt>
      <trkpt lat="47.12975" lon="-1.63595">
        <ele>55</ele>
        <time>2021-04-20T10:33:23.000Z</time>
      </trkpt>
      <trkpt lat="47.12968" lon="-1.63577">
        <ele>55</ele>
        <time>2021-04-20T10:33:25.000Z</time>
      </trkpt>
      <trkpt lat="47.12961" lon="-1.63559">
        <ele>55</ele>
        <time>2021-04-20T10:33:27.000Z</time>
      </trkpt>
      <trkpt lat="47.12953" lon="-1.63541">
        <ele>55</ele>
        <time>2021-04-20T10:33:29.000Z</time>
      </trkpt>
      <trkpt lat="47.12947" lon="-1.63523">
        <ele>55</ele>
        <time>2021-04-20T10:33:31.000Z</time>
      </trkpt>
      <trkpt lat="47.1294" lon="-1.63505">
        <ele>55</ele>
        <time>2021-04-20T10:33:33.000Z</time>
      </trkpt>
      <trkpt lat="47.12933" lon="-1.63488">
        <ele>55</ele>
        <time>2021-04-20T10:33:35.000Z</time>
      </trkpt>
      <trkpt lat="47.12926" lon="-1.63469">
        <ele>55</ele>
        <time>2021-04-20T10:33:37.000Z</time>
      </trkpt>
      <trkpt lat="47.12919" lon="-1.63452">
        <ele>55</ele>
        <time>2021-04-20T10:33:39.000Z</time>
      </trkpt>
      <trkpt lat="47.12912" lon="-1.63434">
        <ele>55</ele>
        <time>2021-04-20T10:33:41.000Z</time>
      </trkpt>
      <trkpt lat="47.12906" lon="-1.63416">
        <ele>55</ele>
        <time>2021-04-20T10:33:43.000Z</time>
      </trkpt>
      <trkpt lat="47.12898" lon="-1.63399">
        <ele>55</ele>
        <time>2021-04-20T10:33:45.000Z</time>
      </trkpt>
      <trkpt lat="47.12891" lon="-1.63382">
        <ele>55</ele>
        <time>2021-04-20T10:33:47.000Z</time>
      </trkpt>
      <trkpt lat="47.12885" lon="-1.63364">
        <ele>55</ele>
        <time>2021-04-20T10:33:49.000Z</time>
      </trkpt>
      <trkpt lat="47.12878" lon="-1.63346">
        <ele>55</ele>
        <time>2021-04-20T10:33:51.000Z</time>
      </trkpt>
      <trkpt lat="47.12871" lon="-1.63328">
        <ele>55</ele>
        <time>2021-04-20T10:33:53.000Z</time>
      </trkpt>
      <trkpt lat="47.12864" lon="-1.6331">
        <ele>54</ele>
        <time>2021-04-20T10:33:55.000Z</time>
      </trkpt>
      <trkpt lat="47.12856" lon="-1.63292">
        <ele>54</ele>
        <time>2021-04-20T10:33:57.000Z</time>
      </trkpt>
      <trkpt lat="47.12849" lon="-1.63274">
        <ele>54</ele>
        <time>2021-04-20T10:33:59.000Z</time>
      </trkpt>
      <trkpt lat="47.12841" lon="-1.63256">
        <ele>54</ele>
        <time>2021-04-20T10:34:01.000Z</time>
      </trkpt>
      <trkpt lat="47.12834" lon="-1.63238">
        <ele>54</ele>
        <time>2021-04-20T10:34:03.000Z</time>
      </trkpt>
      <trkpt lat="47.12827" lon="-1.63219">
        <ele>54</ele>
        <time>2021-04-20T10:34:05.000Z</time>
      </trkpt>
      <trkpt lat="47.12821" lon="-1.63203">
        <ele>54</ele>
        <time>2021-04-20T10:34:07.000Z</time>
      </trkpt>
      <trkpt lat="47.12814" lon="-1.63185">
        <ele>54</ele>
        <time>2021-04-20T10:34:09.000Z</time>
      </trkpt>
      <trkpt lat="47.12808" lon="-1.63168">
        <ele>55</ele>
        <time>2021-04-20T10:34:11.000Z</time>
      </trkpt>
      <trkpt lat="47.128" lon="-1.63149">
        <ele>55</ele>
        <time>2021-04-20T10:34:13.000Z</time>
      </trkpt>
      <trkpt lat="47.12793" lon="-1.63131">
        <ele>55</ele>
        <time>2021-04-20T10:34:15.000Z</time>
      </trkpt>
      <trkpt lat="47.12786" lon="-1.63114">
        <ele>55</ele>
        <time>2021-04-20T10:34:17.000Z</time>
      </trkpt>
      <trkpt lat="47.12779" lon="-1.63096">
        <ele>55</ele>
        <time>2021-04-20T10:34:19.000Z</time>
      </trkpt>
      <trkpt lat="47.12772" lon="-1.63079">
        <ele>55</ele>
        <time>2021-04-20T10:34:21.000Z</time>
      </trkpt>
      <trkpt lat="47.12765" lon="-1.63062">
        <ele>55</ele>
        <time>2021-04-20T10:34:23.000Z</time>
      </trkpt>
      <trkpt lat="47.12759" lon="-1.63046">
        <ele>56</ele>
        <time>2021-04-20T10:34:25.000Z</time>
      </trkpt>
      <trkpt lat="47.12753" lon="-1.63029">
        <ele>55</ele>
        <time>2021-04-20T10:34:27.000Z</time>
      </trkpt>
      <trkpt lat="47.12746" lon="-1.63011">
        <ele>55</ele>
        <time>2021-04-20T10:34:29.000Z</time>
      </trkpt>
      <trkpt lat="47.1274" lon="-1.62994">
        <ele>55</ele>
        <time>2021-04-20T10:34:31.000Z</time>
      </trkpt>
      <trkpt lat="47.12734" lon="-1.62978">
        <ele>56</ele>
        <time>2021-04-20T10:34:33.000Z</time>
      </trkpt>
      <trkpt lat="47.12727" lon="-1.62961">
        <ele>56</ele>
        <time>2021-04-20T10:34:35.000Z</time>
      </trkpt>
      <trkpt lat="47.12721" lon="-1.62944">
        <ele>56</ele>
        <time>2021-04-20T10:34:37.000Z</time>
      </trkpt>
      <trkpt lat="47.12715" lon="-1.62928">
        <ele>56</ele>
        <time>2021-04-20T10:34:39.000Z</time>
      </trkpt>
      <trkpt lat="47.12708" lon="-1.62911">
        <ele>56</ele>
        <time>2021-04-20T10:34:41.000Z</time>
      </trkpt>
      <trkpt lat="47.12702" lon="-1.62894">
        <ele>57</ele>
        <time>2021-04-20T10:34:43.000Z</time>
      </trkpt>
      <trkpt lat="47.12695" lon="-1.62878">
        <ele>57</ele>
        <time>2021-04-20T10:34:45.000Z</time>
      </trkpt>
      <trkpt lat="47.12689" lon="-1.62862">
        <ele>59</ele>
        <time>2021-04-20T10:34:47.000Z</time>
      </trkpt>
      <trkpt lat="47.12681" lon="-1.62847">
        <ele>60</ele>
        <time>2021-04-20T10:34:49.000Z</time>
      </trkpt>
      <trkpt lat="47.12674" lon="-1.62831">
        <ele>60</ele>
        <time>2021-04-20T10:34:51.000Z</time>
      </trkpt>
      <trkpt lat="47.12666" lon="-1.62818">
        <ele>60</ele>
        <time>2021-04-20T10:34:53.000Z</time>
      </trkpt>
      <trkpt lat="47.1266" lon="-1.62802">
        <ele>60</ele>
        <time>2021-04-20T10:34:55.000Z</time>
      </trkpt>
      <trkpt lat="47.12655" lon="-1.62784">
        <ele>59</ele>
        <time>2021-04-20T10:34:57.000Z</time>
      </trkpt>
      <trkpt lat="47.12648" lon="-1.62768">
        <ele>60</ele>
        <time>2021-04-20T10:34:59.000Z</time>
      </trkpt>
      <trkpt lat="47.12641" lon="-1.62751">
        <ele>59</ele>
        <time>2021-04-20T10:35:01.000Z</time>
      </trkpt>
      <trkpt lat="47.12632" lon="-1.62735">
        <ele>58</ele>
        <time>2021-04-20T10:35:03.000Z</time>
      </trkpt>
      <trkpt lat="47.12625" lon="-1.62719">
        <ele>58</ele>
        <time>2021-04-20T10:35:05.000Z</time>
      </trkpt>
      <trkpt lat="47.12617" lon="-1.62703">
        <ele>58</ele>
        <time>2021-04-20T10:35:07.000Z</time>
      </trkpt>
      <trkpt lat="47.12608" lon="-1.62686">
        <ele>58</ele>
        <time>2021-04-20T10:35:09.000Z</time>
      </trkpt>
      <trkpt lat="47.126" lon="-1.6267">
        <ele>58</ele>
        <time>2021-04-20T10:35:11.000Z</time>
      </trkpt>
      <trkpt lat="47.12592" lon="-1.62652">
        <ele>57</ele>
        <time>2021-04-20T10:35:13.000Z</time>
      </trkpt>
      <trkpt lat="47.12585" lon="-1.62635">
        <ele>57</ele>
        <time>2021-04-20T10:35:15.000Z</time>
      </trkpt>
      <trkpt lat="47.12579" lon="-1.62617">
        <ele>57</ele>
        <time>2021-04-20T10:35:17.000Z</time>
      </trkpt>
      <trkpt lat="47.12573" lon="-1.62598">
        <ele>57</ele>
        <time>2021-04-20T10:35:19.000Z</time>
      </trkpt>
      <trkpt lat="47.12569" lon="-1.62579">
        <ele>57</ele>
        <time>2021-04-20T10:35:21.000Z</time>
      </trkpt>
      <trkpt lat="47.12565" lon="-1.62558">
        <ele>57</ele>
        <time>2021-04-20T10:35:23.000Z</time>
      </trkpt>
      <trkpt lat="47.12562" lon="-1.62538">
        <ele>57</ele>
        <time>2021-04-20T10:35:25.000Z</time>
      </trkpt>
      <trkpt lat="47.12558" lon="-1.62518">
        <ele>57</ele>
        <time>2021-04-20T10:35:27.000Z</time>
      </trkpt>
      <trkpt lat="47.12555" lon="-1.62499">
        <ele>57</ele>
        <time>2021-04-20T10:35:29.000Z</time>
      </trkpt>
      <trkpt lat="47.12551" lon="-1.6248">
        <ele>56</ele>
        <time>2021-04-20T10:35:31.000Z</time>
      </trkpt>
      <trkpt lat="47.12546" lon="-1.62461">
        <ele>56</ele>
        <time>2021-04-20T10:35:33.000Z</time>
      </trkpt>
      <trkpt lat="47.12541" lon="-1.62442">
        <ele>56</ele>
        <time>2021-04-20T10:35:35.000Z</time>
      </trkpt>
      <trkpt lat="47.12535" lon="-1.62424">
        <ele>56</ele>
        <time>2021-04-20T10:35:37.000Z</time>
      </trkpt>
      <trkpt lat="47.12529" lon="-1.62406">
        <ele>56</ele>
        <time>2021-04-20T10:35:39.000Z</time>
      </trkpt>
      <trkpt lat="47.12522" lon="-1.62388">
        <ele>56</ele>
        <time>2021-04-20T10:35:41.000Z</time>
      </trkpt>
      <trkpt lat="47.12515" lon="-1.6237">
        <ele>56</ele>
        <time>2021-04-20T10:35:43.000Z</time>
      </trkpt>
      <trkpt lat="47.12507" lon="-1.62354">
        <ele>56</ele>
        <time>2021-04-20T10:35:45.000Z</time>
      </trkpt>
      <trkpt lat="47.125" lon="-1.62338">
        <ele>55</ele>
        <time>2021-04-20T10:35:47.000Z</time>
      </trkpt>
      <trkpt lat="47.12491" lon="-1.62322">
        <ele>55</ele>
        <time>2021-04-20T10:35:49.000Z</time>
      </trkpt>
      <trkpt lat="47.12483" lon="-1.62307">
        <ele>55</ele>
        <time>2021-04-20T10:35:51.000Z</time>
      </trkpt>
      <trkpt lat="47.12473" lon="-1.62292">
        <ele>55</ele>
        <time>2021-04-20T10:35:53.000Z</time>
      </trkpt>
      <trkpt lat="47.12463" lon="-1.62277">
        <ele>55</ele>
        <time>2021-04-20T10:35:55.000Z</time>
      </trkpt>
      <trkpt lat="47.12454" lon="-1.62263">
        <ele>55</ele>
        <time>2021-04-20T10:35:57.000Z</time>
      </trkpt>
      <trkpt lat="47.12444" lon="-1.62249">
        <ele>55</ele>
        <time>2021-04-20T10:35:59.000Z</time>
      </trkpt>
      <trkpt lat="47.12435" lon="-1.62235">
        <ele>55</ele>
        <time>2021-04-20T10:36:01.000Z</time>
      </trkpt>
      <trkpt lat="47.12426" lon="-1.62221">
        <ele>55</ele>
        <time>2021-04-20T10:36:03.000Z</time>
      </trkpt>
      <trkpt lat="47.12417" lon="-1.62206">
        <ele>56</ele>
        <time>2021-04-20T10:36:05.000Z</time>
      </trkpt>
      <trkpt lat="47.12409" lon="-1.6219">
        <ele>56</ele>
        <time>2021-04-20T10:36:07.000Z</time>
      </trkpt>
      <trkpt lat="47.12402" lon="-1.62174">
        <ele>56</ele>
        <time>2021-04-20T10:36:09.000Z</time>
      </trkpt>
      <trkpt lat="47.12396" lon="-1.62156">
        <ele>56</ele>
        <time>2021-04-20T10:36:11.000Z</time>
      </trkpt>
      <trkpt lat="47.1239" lon="-1.62137">
        <ele>56</ele>
        <time>2021-04-20T10:36:13.000Z</time>
      </trkpt>
      <trkpt lat="47.12387" lon="-1.62119">
        <ele>56</ele>
        <time>2021-04-20T10:36:15.000Z</time>
      </trkpt>
      <trkpt lat="47.12385" lon="-1.62099">
        <ele>57</ele>
        <time>2021-04-20T10:36:17.000Z</time>
      </trkpt>
      <trkpt lat="47.12383" lon="-1.62079">
        <ele>57</ele>
        <time>2021-04-20T10:36:19.000Z</time>
      </trkpt>
      <trkpt lat="47.12383" lon="-1.6206">
        <ele>57</ele>
        <time>2021-04-20T10:36:21.000Z</time>
      </trkpt>
      <trkpt lat="47.12384" lon="-1.6204">
        <ele>57</ele>
        <time>2021-04-20T10:36:23.000Z</time>
      </trkpt>
      <trkpt lat="47.12386" lon="-1.6202">
        <ele>57</ele>
        <time>2021-04-20T10:36:25.000Z</time>
      </trkpt>
      <trkpt lat="47.1239" lon="-1.62001">
        <ele>57</ele>
        <time>2021-04-20T10:36:27.000Z</time>
      </trkpt>
      <trkpt lat="47.12395" lon="-1.61982">
        <ele>58</ele>
        <time>2021-04-20T10:36:29.000Z</time>
      </trkpt>
      <trkpt lat="47.124" lon="-1.61964">
        <ele>57</ele>
        <time>2021-04-20T10:36:31.000Z</time>
      </trkpt>
      <trkpt lat="47.12405" lon="-1.61947">
        <ele>58</ele>
        <time>2021-04-20T10:36:33.000Z</time>
      </trkpt>
      <trkpt lat="47.1241" lon="-1.61929">
        <ele>58</ele>
        <time>2021-04-20T10:36:35.000Z</time>
      </trkpt>
      <trkpt lat="47.12414" lon="-1.61911">
        <ele>58</ele>
        <time>2021-04-20T10:36:37.000Z</time>
      </trkpt>
      <trkpt lat="47.12418" lon="-1.61894">
        <ele>59</ele>
        <time>2021-04-20T10:36:39.000Z</time>
      </trkpt>
      <trkpt lat="47.12422" lon="-1.61877">
        <ele>59</ele>
        <time>2021-04-20T10:36:41.000Z</time>
      </trkpt>
      <trkpt lat="47.12429" lon="-1.61863">
        <ele>59</ele>
        <time>2021-04-20T10:36:43.000Z</time>
      </trkpt>
      <trkpt lat="47.12433" lon="-1.61846">
        <ele>60</ele>
        <time>2021-04-20T10:36:45.000Z</time>
      </trkpt>
      <trkpt lat="47.12437" lon="-1.61828">
        <ele>59</ele>
        <time>2021-04-20T10:36:47.000Z</time>
      </trkpt>
      <trkpt lat="47.1244" lon="-1.61811">
        <ele>59</ele>
        <time>2021-04-20T10:36:49.000Z</time>
      </trkpt>
      <trkpt lat="47.12445" lon="-1.61794">
        <ele>60</ele>
        <time>2021-04-20T10:36:51.000Z</time>
      </trkpt>
      <trkpt lat="47.12449" lon="-1.61777">
        <ele>60</ele>
        <time>2021-04-20T10:36:53.000Z</time>
      </trkpt>
      <trkpt lat="47.12453" lon="-1.6176">
        <ele>60</ele>
        <time>2021-04-20T10:36:55.000Z</time>
      </trkpt>
      <trkpt lat="47.12458" lon="-1.61743">
        <ele>61</ele>
        <time>2021-04-20T10:36:57.000Z</time>
      </trkpt>
      <trkpt lat="47.12463" lon="-1.61725">
        <ele>61</ele>
        <time>2021-04-20T10:36:59.000Z</time>
      </trkpt>
      <trkpt lat="47.12467" lon="-1.61708">
        <ele>61</ele>
        <time>2021-04-20T10:37:01.000Z</time>
      </trkpt>
      <trkpt lat="47.12471" lon="-1.61689">
        <ele>61</ele>
        <time>2021-04-20T10:37:03.000Z</time>
      </trkpt>
      <trkpt lat="47.12474" lon="-1.61671">
        <ele>61</ele>
        <time>2021-04-20T10:37:05.000Z</time>
      </trkpt>
      <trkpt lat="47.12478" lon="-1.61652">
        <ele>62</ele>
        <time>2021-04-20T10:37:07.000Z</time>
      </trkpt>
      <trkpt lat="47.1248" lon="-1.61634">
        <ele>62</ele>
        <time>2021-04-20T10:37:09.000Z</time>
      </trkpt>
      <trkpt lat="47.12479" lon="-1.61616">
        <ele>61</ele>
        <time>2021-04-20T10:37:11.000Z</time>
      </trkpt>
      <trkpt lat="47.12478" lon="-1.61597">
        <ele>61</ele>
        <time>2021-04-20T10:37:13.000Z</time>
      </trkpt>
      <trkpt lat="47.12476" lon="-1.61578">
        <ele>61</ele>
        <time>2021-04-20T10:37:15.000Z</time>
      </trkpt>
      <trkpt lat="47.12474" lon="-1.6156">
        <ele>61</ele>
        <time>2021-04-20T10:37:17.000Z</time>
      </trkpt>
      <trkpt lat="47.12472" lon="-1.61541">
        <ele>61</ele>
        <time>2021-04-20T10:37:19.000Z</time>
      </trkpt>
      <trkpt lat="47.12469" lon="-1.61523">
        <ele>61</ele>
        <time>2021-04-20T10:37:21.000Z</time>
      </trkpt>
      <trkpt lat="47.12467" lon="-1.61506">
        <ele>61</ele>
        <time>2021-04-20T10:37:23.000Z</time>
      </trkpt>
      <trkpt lat="47.12465" lon="-1.61489">
        <ele>62</ele>
        <time>2021-04-20T10:37:25.000Z</time>
      </trkpt>
      <trkpt lat="47.12463" lon="-1.61471">
        <ele>62</ele>
        <time>2021-04-20T10:37:27.000Z</time>
      </trkpt>
      <trkpt lat="47.12461" lon="-1.61453">
        <ele>62</ele>
        <time>2021-04-20T10:37:29.000Z</time>
      </trkpt>
      <trkpt lat="47.12459" lon="-1.61435">
        <ele>62</ele>
        <time>2021-04-20T10:37:31.000Z</time>
      </trkpt>
      <trkpt lat="47.12458" lon="-1.61418">
        <ele>62</ele>
        <time>2021-04-20T10:37:33.000Z</time>
      </trkpt>
      <trkpt lat="47.12456" lon="-1.614">
        <ele>62</ele>
        <time>2021-04-20T10:37:35.000Z</time>
      </trkpt>
      <trkpt lat="47.12455" lon="-1.61383">
        <ele>62</ele>
        <time>2021-04-20T10:37:37.000Z</time>
      </trkpt>
      <trkpt lat="47.12456" lon="-1.61365">
        <ele>63</ele>
        <time>2021-04-20T10:37:39.000Z</time>
      </trkpt>
      <trkpt lat="47.12458" lon="-1.61346">
        <ele>63</ele>
        <time>2021-04-20T10:37:41.000Z</time>
      </trkpt>
      <trkpt lat="47.12462" lon="-1.61329">
        <ele>63</ele>
        <time>2021-04-20T10:37:43.000Z</time>
      </trkpt>
      <trkpt lat="47.12468" lon="-1.61311">
        <ele>63</ele>
        <time>2021-04-20T10:37:45.000Z</time>
      </trkpt>
      <trkpt lat="47.12473" lon="-1.61294">
        <ele>63</ele>
        <time>2021-04-20T10:37:47.000Z</time>
      </trkpt>
      <trkpt lat="47.12479" lon="-1.61277">
        <ele>62</ele>
        <time>2021-04-20T10:37:49.000Z</time>
      </trkpt>
      <trkpt lat="47.12485" lon="-1.6126">
        <ele>62</ele>
        <time>2021-04-20T10:37:51.000Z</time>
      </trkpt>
      <trkpt lat="47.1249" lon="-1.61243">
        <ele>62</ele>
        <time>2021-04-20T10:37:53.000Z</time>
      </trkpt>
      <trkpt lat="47.12495" lon="-1.61225">
        <ele>62</ele>
        <time>2021-04-20T10:37:55.000Z</time>
      </trkpt>
      <trkpt lat="47.12498" lon="-1.61207">
        <ele>62</ele>
        <time>2021-04-20T10:37:57.000Z</time>
      </trkpt>
      <trkpt lat="47.12501" lon="-1.61188">
        <ele>62</ele>
        <time>2021-04-20T10:37:59.000Z</time>
      </trkpt>
      <trkpt lat="47.12504" lon="-1.6117">
        <ele>62</ele>
        <time>2021-04-20T10:38:01.000Z</time>
      </trkpt>
      <trkpt lat="47.12506" lon="-1.61152">
        <ele>62</ele>
        <time>2021-04-20T10:38:03.000Z</time>
      </trkpt>
      <trkpt lat="47.12508" lon="-1.61134">
        <ele>62</ele>
        <time>2021-04-20T10:38:05.000Z</time>
      </trkpt>
      <trkpt lat="47.12509" lon="-1.61115">
        <ele>62</ele>
        <time>2021-04-20T10:38:07.000Z</time>
      </trkpt>
      <trkpt lat="47.1251" lon="-1.61096">
        <ele>62</ele>
        <time>2021-04-20T10:38:09.000Z</time>
      </trkpt>
      <trkpt lat="47.12512" lon="-1.61077">
        <ele>61</ele>
        <time>2021-04-20T10:38:11.000Z</time>
      </trkpt>
      <trkpt lat="47.12514" lon="-1.6106">
        <ele>61</ele>
        <time>2021-04-20T10:38:13.000Z</time>
      </trkpt>
      <trkpt lat="47.12516" lon="-1.61041">
        <ele>61</ele>
        <time>2021-04-20T10:38:15.000Z</time>
      </trkpt>
      <trkpt lat="47.12518" lon="-1.61022">
        <ele>61</ele>
        <time>2021-04-20T10:38:17.000Z</time>
      </trkpt>
      <trkpt lat="47.1252" lon="-1.61003">
        <ele>61</ele>
        <time>2021-04-20T10:38:19.000Z</time>
      </trkpt>
      <trkpt lat="47.12521" lon="-1.60985">
        <ele>61</ele>
        <time>2021-04-20T10:38:21.000Z</time>
      </trkpt>
      <trkpt lat="47.12523" lon="-1.60967">
        <ele>61</ele>
        <time>2021-04-20T10:38:23.000Z</time>
      </trkpt>
      <trkpt lat="47.12524" lon="-1.60948">
        <ele>61</ele>
        <time>2021-04-20T10:38:25.000Z</time>
      </trkpt>
      <trkpt lat="47.12526" lon="-1.60929">
        <ele>61</ele>
        <time>2021-04-20T10:38:27.000Z</time>
      </trkpt>
      <trkpt lat="47.12528" lon="-1.6091">
        <ele>61</ele>
        <time>2021-04-20T10:38:29.000Z</time>
      </trkpt>
      <trkpt lat="47.12529" lon="-1.60891">
        <ele>62</ele>
        <time>2021-04-20T10:38:31.000Z</time>
      </trkpt>
      <trkpt lat="47.12531" lon="-1.60872">
        <ele>62</ele>
        <time>2021-04-20T10:38:33.000Z</time>
      </trkpt>
      <trkpt lat="47.12532" lon="-1.60852">
        <ele>62</ele>
        <time>2021-04-20T10:38:35.000Z</time>
      </trkpt>
      <trkpt lat="47.12534" lon="-1.60834">
        <ele>62</ele>
        <time>2021-04-20T10:38:37.000Z</time>
      </trkpt>
      <trkpt lat="47.12536" lon="-1.60815">
        <ele>62</ele>
        <time>2021-04-20T10:38:39.000Z</time>
      </trkpt>
      <trkpt lat="47.12538" lon="-1.60796">
        <ele>62</ele>
        <time>2021-04-20T10:38:41.000Z</time>
      </trkpt>
      <trkpt lat="47.12541" lon="-1.60776">
        <ele>62</ele>
        <time>2021-04-20T10:38:43.000Z</time>
      </trkpt>
      <trkpt lat="47.12542" lon="-1.60756">
        <ele>62</ele>
        <time>2021-04-20T10:38:45.000Z</time>
      </trkpt>
      <trkpt lat="47.12543" lon="-1.60736">
        <ele>61</ele>
        <time>2021-04-20T10:38:47.000Z</time>
      </trkpt>
      <trkpt lat="47.12544" lon="-1.60715">
        <ele>61</ele>
        <time>2021-04-20T10:38:49.000Z</time>
      </trkpt>
      <trkpt lat="47.12544" lon="-1.60696">
        <ele>61</ele>
        <time>2021-04-20T10:38:51.000Z</time>
      </trkpt>
      <trkpt lat="47.12543" lon="-1.60676">
        <ele>61</ele>
        <time>2021-04-20T10:38:53.000Z</time>
      </trkpt>
      <trkpt lat="47.12543" lon="-1.60656">
        <ele>60</ele>
        <time>2021-04-20T10:38:55.000Z</time>
      </trkpt>
      <trkpt lat="47.12542" lon="-1.60636">
        <ele>60</ele>
        <time>2021-04-20T10:38:57.000Z</time>
      </trkpt>
      <trkpt lat="47.12542" lon="-1.60617">
        <ele>60</ele>
        <time>2021-04-20T10:38:59.000Z</time>
      </trkpt>
      <trkpt lat="47.12542" lon="-1.60598">
        <ele>60</ele>
        <time>2021-04-20T10:39:01.000Z</time>
      </trkpt>
      <trkpt lat="47.12541" lon="-1.60579">
        <ele>60</ele>
        <time>2021-04-20T10:39:03.000Z</time>
      </trkpt>
      <trkpt lat="47.12541" lon="-1.60559">
        <ele>60</ele>
        <time>2021-04-20T10:39:05.000Z</time>
      </trkpt>
      <trkpt lat="47.1254" lon="-1.6054">
        <ele>59</ele>
        <time>2021-04-20T10:39:07.000Z</time>
      </trkpt>
      <trkpt lat="47.12539" lon="-1.60521">
        <ele>60</ele>
        <time>2021-04-20T10:39:09.000Z</time>
      </trkpt>
      <trkpt lat="47.12537" lon="-1.60502">
        <ele>60</ele>
        <time>2021-04-20T10:39:11.000Z</time>
      </trkpt>
      <trkpt lat="47.12535" lon="-1.60484">
        <ele>59</ele>
        <time>2021-04-20T10:39:13.000Z</time>
      </trkpt>
      <trkpt lat="47.12532" lon="-1.60464">
        <ele>59</ele>
        <time>2021-04-20T10:39:15.000Z</time>
      </trkpt>
      <trkpt lat="47.12528" lon="-1.60445">
        <ele>59</ele>
        <time>2021-04-20T10:39:17.000Z</time>
      </trkpt>
      <trkpt lat="47.12525" lon="-1.60425">
        <ele>59</ele>
        <time>2021-04-20T10:39:19.000Z</time>
      </trkpt>
      <trkpt lat="47.12521" lon="-1.60406">
        <ele>59</ele>
        <time>2021-04-20T10:39:21.000Z</time>
      </trkpt>
      <trkpt lat="47.12517" lon="-1.60386">
        <ele>58</ele>
        <time>2021-04-20T10:39:23.000Z</time>
      </trkpt>
      <trkpt lat="47.12513" lon="-1.60366">
        <ele>58</ele>
        <time>2021-04-20T10:39:25.000Z</time>
      </trkpt>
      <trkpt lat="47.12509" lon="-1.60347">
        <ele>58</ele>
        <time>2021-04-20T10:39:27.000Z</time>
      </trkpt>
      <trkpt lat="47.12505" lon="-1.60327">
        <ele>57</ele>
        <time>2021-04-20T10:39:29.000Z</time>
      </trkpt>
      <trkpt lat="47.12502" lon="-1.60307">
        <ele>57</ele>
        <time>2021-04-20T10:39:31.000Z</time>
      </trkpt>
      <trkpt lat="47.12499" lon="-1.60287">
        <ele>56</ele>
        <time>2021-04-20T10:39:33.000Z</time>
      </trkpt>
      <trkpt lat="47.12495" lon="-1.60268">
        <ele>56</ele>
        <time>2021-04-20T10:39:35.000Z</time>
      </trkpt>
      <trkpt lat="47.12491" lon="-1.60249">
        <ele>56</ele>
        <time>2021-04-20T10:39:37.000Z</time>
      </trkpt>
      <trkpt lat="47.12488" lon="-1.60229">
        <ele>56</ele>
        <time>2021-04-20T10:39:39.000Z</time>
      </trkpt>
      <trkpt lat="47.12485" lon="-1.6021">
        <ele>56</ele>
        <time>2021-04-20T10:39:41.000Z</time>
      </trkpt>
      <trkpt lat="47.12482" lon="-1.60192">
        <ele>56</ele>
        <time>2021-04-20T10:39:43.000Z</time>
      </trkpt>
      <trkpt lat="47.1248" lon="-1.60173">
        <ele>56</ele>
        <time>2021-04-20T10:39:45.000Z</time>
      </trkpt>
      <trkpt lat="47.12479" lon="-1.60155">
        <ele>57</ele>
        <time>2021-04-20T10:39:47.000Z</time>
      </trkpt>
      <trkpt lat="47.12478" lon="-1.60136">
        <ele>57</ele>
        <time>2021-04-20T10:39:49.000Z</time>
      </trkpt>
      <trkpt lat="47.12477" lon="-1.60118">
        <ele>58</ele>
        <time>2021-04-20T10:39:51.000Z</time>
      </trkpt>
      <trkpt lat="47.12476" lon="-1.60099">
        <ele>58</ele>
        <time>2021-04-20T10:39:53.000Z</time>
      </trkpt>
      <trkpt lat="47.12475" lon="-1.60081">
        <ele>58</ele>
        <time>2021-04-20T10:39:55.000Z</time>
      </trkpt>
      <trkpt lat="47.12475" lon="-1.60062">
        <ele>58</ele>
        <time>2021-04-20T10:39:57.000Z</time>
      </trkpt>
      <trkpt lat="47.12473" lon="-1.60044">
        <ele>58</ele>
        <time>2021-04-20T10:39:59.000Z</time>
      </trkpt>
      <trkpt lat="47.12472" lon="-1.60025">
        <ele>58</ele>
        <time>2021-04-20T10:40:01.000Z</time>
      </trkpt>
      <trkpt lat="47.12472" lon="-1.60006">
        <ele>58</ele>
        <time>2021-04-20T10:40:03.000Z</time>
      </trkpt>
      <trkpt lat="47.12471" lon="-1.59987">
        <ele>59</ele>
        <time>2021-04-20T10:40:05.000Z</time>
      </trkpt>
      <trkpt lat="47.1247" lon="-1.59968">
        <ele>59</ele>
        <time>2021-04-20T10:40:07.000Z</time>
      </trkpt>
      <trkpt lat="47.12469" lon="-1.59949">
        <ele>59</ele>
        <time>2021-04-20T10:40:09.000Z</time>
      </trkpt>
      <trkpt lat="47.12468" lon="-1.59929">
        <ele>59</ele>
        <time>2021-04-20T10:40:11.000Z</time>
      </trkpt>
      <trkpt lat="47.12467" lon="-1.5991">
        <ele>59</ele>
        <time>2021-04-20T10:40:13.000Z</time>
      </trkpt>
      <trkpt lat="47.12466" lon="-1.59891">
        <ele>59</ele>
        <time>2021-04-20T10:40:15.000Z</time>
      </trkpt>
      <trkpt lat="47.12465" lon="-1.59873">
        <ele>60</ele>
        <time>2021-04-20T10:40:17.000Z</time>
      </trkpt>
      <trkpt lat="47.12465" lon="-1.59854">
        <ele>60</ele>
        <time>2021-04-20T10:40:19.000Z</time>
      </trkpt>
      <trkpt lat="47.12464" lon="-1.59835">
        <ele>60</ele>
        <time>2021-04-20T10:40:21.000Z</time>
      </trkpt>
      <trkpt lat="47.12463" lon="-1.59816">
        <ele>60</ele>
        <time>2021-04-20T10:40:23.000Z</time>
      </trkpt>
      <trkpt lat="47.12463" lon="-1.59797">
        <ele>59</ele>
        <time>2021-04-20T10:40:25.000Z</time>
      </trkpt>
      <trkpt lat="47.12462" lon="-1.59777">
        <ele>59</ele>
        <time>2021-04-20T10:40:27.000Z</time>
      </trkpt>
      <trkpt lat="47.12461" lon="-1.59757">
        <ele>59</ele>
        <time>2021-04-20T10:40:29.000Z</time>
      </trkpt>
      <trkpt lat="47.12459" lon="-1.59738">
        <ele>59</ele>
        <time>2021-04-20T10:40:31.000Z</time>
      </trkpt>
      <trkpt lat="47.12458" lon="-1.59718">
        <ele>60</ele>
        <time>2021-04-20T10:40:33.000Z</time>
      </trkpt>
      <trkpt lat="47.12457" lon="-1.59699">
        <ele>59</ele>
        <time>2021-04-20T10:40:35.000Z</time>
      </trkpt>
      <trkpt lat="47.12457" lon="-1.5968">
        <ele>59</ele>
        <time>2021-04-20T10:40:37.000Z</time>
      </trkpt>
      <trkpt lat="47.12456" lon="-1.59661">
        <ele>59</ele>
        <time>2021-04-20T10:40:39.000Z</time>
      </trkpt>
      <trkpt lat="47.12455" lon="-1.59642">
        <ele>59</ele>
        <time>2021-04-20T10:40:41.000Z</time>
      </trkpt>
      <trkpt lat="47.12454" lon="-1.59623">
        <ele>58</ele>
        <time>2021-04-20T10:40:43.000Z</time>
      </trkpt>
      <trkpt lat="47.12453" lon="-1.59603">
        <ele>58</ele>
        <time>2021-04-20T10:40:45.000Z</time>
      </trkpt>
      <trkpt lat="47.12452" lon="-1.59584">
        <ele>58</ele>
        <time>2021-04-20T10:40:47.000Z</time>
      </trkpt>
      <trkpt lat="47.12451" lon="-1.59564">
        <ele>58</ele>
        <time>2021-04-20T10:40:49.000Z</time>
      </trkpt>
      <trkpt lat="47.1245" lon="-1.59545">
        <ele>57</ele>
        <time>2021-04-20T10:40:51.000Z</time>
      </trkpt>
      <trkpt lat="47.12449" lon="-1.59526">
        <ele>57</ele>
        <time>2021-04-20T10:40:53.000Z</time>
      </trkpt>
      <trkpt lat="47.12448" lon="-1.59506">
        <ele>57</ele>
        <time>2021-04-20T10:40:55.000Z</time>
      </trkpt>
      <trkpt lat="47.12447" lon="-1.59486">
        <ele>57</ele>
        <time>2021-04-20T10:40:57.000Z</time>
      </trkpt>
      <trkpt lat="47.12446" lon="-1.59466">
        <ele>57</ele>
        <time>2021-04-20T10:40:59.000Z</time>
      </trkpt>
      <trkpt lat="47.12445" lon="-1.59447">
        <ele>56</ele>
        <time>2021-04-20T10:41:01.000Z</time>
      </trkpt>
      <trkpt lat="47.12444" lon="-1.59427">
        <ele>56</ele>
        <time>2021-04-20T10:41:03.000Z</time>
      </trkpt>
      <trkpt lat="47.12443" lon="-1.59407">
        <ele>55</ele>
        <time>2021-04-20T10:41:05.000Z</time>
      </trkpt>
      <trkpt lat="47.12442" lon="-1.59387">
        <ele>55</ele>
        <time>2021-04-20T10:41:07.000Z</time>
      </trkpt>
      <trkpt lat="47.12441" lon="-1.59366">
        <ele>55</ele>
        <time>2021-04-20T10:41:09.000Z</time>
      </trkpt>
      <trkpt lat="47.12441" lon="-1.59346">
        <ele>54</ele>
        <time>2021-04-20T10:41:11.000Z</time>
      </trkpt>
      <trkpt lat="47.12439" lon="-1.59325">
        <ele>54</ele>
        <time>2021-04-20T10:41:13.000Z</time>
      </trkpt>
      <trkpt lat="47.12438" lon="-1.59305">
        <ele>54</ele>
        <time>2021-04-20T10:41:15.000Z</time>
      </trkpt>
      <trkpt lat="47.12437" lon="-1.59285">
        <ele>55</ele>
        <time>2021-04-20T10:41:17.000Z</time>
      </trkpt>
      <trkpt lat="47.12436" lon="-1.59265">
        <ele>55</ele>
        <time>2021-04-20T10:41:19.000Z</time>
      </trkpt>
      <trkpt lat="47.12435" lon="-1.59245">
        <ele>55</ele>
        <time>2021-04-20T10:41:21.000Z</time>
      </trkpt>
      <trkpt lat="47.12433" lon="-1.59225">
        <ele>55</ele>
        <time>2021-04-20T10:41:23.000Z</time>
      </trkpt>
      <trkpt lat="47.12429" lon="-1.59205">
        <ele>55</ele>
        <time>2021-04-20T10:41:25.000Z</time>
      </trkpt>
      <trkpt lat="47.12428" lon="-1.59185">
        <ele>54</ele>
        <time>2021-04-20T10:41:27.000Z</time>
      </trkpt>
      <trkpt lat="47.12429" lon="-1.59165">
        <ele>54</ele>
        <time>2021-04-20T10:41:29.000Z</time>
      </trkpt>
      <trkpt lat="47.1243" lon="-1.59144">
        <ele>54</ele>
        <time>2021-04-20T10:41:31.000Z</time>
      </trkpt>
      <trkpt lat="47.12431" lon="-1.59124">
        <ele>54</ele>
        <time>2021-04-20T10:41:33.000Z</time>
      </trkpt>
      <trkpt lat="47.12431" lon="-1.59105">
        <ele>54</ele>
        <time>2021-04-20T10:41:35.000Z</time>
      </trkpt>
      <trkpt lat="47.12429" lon="-1.59085">
        <ele>53</ele>
        <time>2021-04-20T10:41:37.000Z</time>
      </trkpt>
      <trkpt lat="47.12428" lon="-1.59066">
        <ele>54</ele>
        <time>2021-04-20T10:41:39.000Z</time>
      </trkpt>
      <trkpt lat="47.12427" lon="-1.59048">
        <ele>55</ele>
        <time>2021-04-20T10:41:41.000Z</time>
      </trkpt>
      <trkpt lat="47.12426" lon="-1.5903">
        <ele>55</ele>
        <time>2021-04-20T10:41:43.000Z</time>
      </trkpt>
      <trkpt lat="47.12426" lon="-1.59012">
        <ele>55</ele>
        <time>2021-04-20T10:41:45.000Z</time>
      </trkpt>
      <trkpt lat="47.12425" lon="-1.58995">
        <ele>56</ele>
        <time>2021-04-20T10:41:47.000Z</time>
      </trkpt>
      <trkpt lat="47.12424" lon="-1.58977">
        <ele>57</ele>
        <time>2021-04-20T10:41:49.000Z</time>
      </trkpt>
      <trkpt lat="47.12423" lon="-1.58961">
        <ele>57</ele>
        <time>2021-04-20T10:41:51.000Z</time>
      </trkpt>
      <trkpt lat="47.12421" lon="-1.58944">
        <ele>58</ele>
        <time>2021-04-20T10:41:53.000Z</time>
      </trkpt>
      <trkpt lat="47.1242" lon="-1.58927">
        <ele>58</ele>
        <time>2021-04-20T10:41:55.000Z</time>
      </trkpt>
      <trkpt lat="47.12419" lon="-1.5891">
        <ele>58</ele>
        <time>2021-04-20T10:41:57.000Z</time>
      </trkpt>
      <trkpt lat="47.12417" lon="-1.58893">
        <ele>59</ele>
        <time>2021-04-20T10:41:59.000Z</time>
      </trkpt>
      <trkpt lat="47.12416" lon="-1.58876">
        <ele>59</ele>
        <time>2021-04-20T10:42:01.000Z</time>
      </trkpt>
      <trkpt lat="47.12414" lon="-1.58859">
        <ele>59</ele>
        <time>2021-04-20T10:42:03.000Z</time>
      </trkpt>
      <trkpt lat="47.12412" lon="-1.58843">
        <ele>59</ele>
        <time>2021-04-20T10:42:05.000Z</time>
      </trkpt>
      <trkpt lat="47.12411" lon="-1.58826">
        <ele>59</ele>
        <time>2021-04-20T10:42:07.000Z</time>
      </trkpt>
      <trkpt lat="47.12408" lon="-1.58809">
        <ele>58</ele>
        <time>2021-04-20T10:42:09.000Z</time>
      </trkpt>
      <trkpt lat="47.12405" lon="-1.58792">
        <ele>59</ele>
        <time>2021-04-20T10:42:11.000Z</time>
      </trkpt>
      <trkpt lat="47.12403" lon="-1.58775">
        <ele>59</ele>
        <time>2021-04-20T10:42:13.000Z</time>
      </trkpt>
      <trkpt lat="47.124" lon="-1.58758">
        <ele>58</ele>
        <time>2021-04-20T10:42:15.000Z</time>
      </trkpt>
      <trkpt lat="47.12397" lon="-1.58741">
        <ele>58</ele>
        <time>2021-04-20T10:42:17.000Z</time>
      </trkpt>
      <trkpt lat="47.12393" lon="-1.58724">
        <ele>58</ele>
        <time>2021-04-20T10:42:19.000Z</time>
      </trkpt>
      <trkpt lat="47.12389" lon="-1.58707">
        <ele>58</ele>
        <time>2021-04-20T10:42:21.000Z</time>
      </trkpt>
      <trkpt lat="47.12385" lon="-1.58691">
        <ele>58</ele>
        <time>2021-04-20T10:42:23.000Z</time>
      </trkpt>
      <trkpt lat="47.12382" lon="-1.58673">
        <ele>57</ele>
        <time>2021-04-20T10:42:25.000Z</time>
      </trkpt>
      <trkpt lat="47.12377" lon="-1.58656">
        <ele>58</ele>
        <time>2021-04-20T10:42:27.000Z</time>
      </trkpt>
      <trkpt lat="47.12374" lon="-1.58638">
        <ele>58</ele>
        <time>2021-04-20T10:42:29.000Z</time>
      </trkpt>
      <trkpt lat="47.1237" lon="-1.58619">
        <ele>58</ele>
        <time>2021-04-20T10:42:31.000Z</time>
      </trkpt>
      <trkpt lat="47.12366" lon="-1.586">
        <ele>58</ele>
        <time>2021-04-20T10:42:33.000Z</time>
      </trkpt>
      <trkpt lat="47.12361" lon="-1.58581">
        <ele>58</ele>
        <time>2021-04-20T10:42:35.000Z</time>
      </trkpt>
      <trkpt lat="47.12357" lon="-1.58562">
        <ele>58</ele>
        <time>2021-04-20T10:42:37.000Z</time>
      </trkpt>
      <trkpt lat="47.12352" lon="-1.58544">
        <ele>57</ele>
        <time>2021-04-20T10:42:39.000Z</time>
      </trkpt>
      <trkpt lat="47.12348" lon="-1.58526">
        <ele>57</ele>
        <time>2021-04-20T10:42:41.000Z</time>
      </trkpt>
      <trkpt lat="47.12344" lon="-1.58508">
        <ele>57</ele>
        <time>2021-04-20T10:42:43.000Z</time>
      </trkpt>
      <trkpt lat="47.1234" lon="-1.5849">
        <ele>57</ele>
        <time>2021-04-20T10:42:45.000Z</time>
      </trkpt>
      <trkpt lat="47.12336" lon="-1.58473">
        <ele>56</ele>
        <time>2021-04-20T10:42:47.000Z</time>
      </trkpt>
      <trkpt lat="47.1233" lon="-1.58457">
        <ele>57</ele>
        <time>2021-04-20T10:42:49.000Z</time>
      </trkpt>
      <trkpt lat="47.12322" lon="-1.58444">
        <ele>57</ele>
        <time>2021-04-20T10:42:51.000Z</time>
      </trkpt>
      <trkpt lat="47.12315" lon="-1.58431">
        <ele>58</ele>
        <time>2021-04-20T10:42:53.000Z</time>
      </trkpt>
      <trkpt lat="47.12309" lon="-1.58416">
        <ele>58</ele>
        <time>2021-04-20T10:42:55.000Z</time>
      </trkpt>
      <trkpt lat="47.12302" lon="-1.58401">
        <ele>58</ele>
        <time>2021-04-20T10:42:57.000Z</time>
      </trkpt>
      <trkpt lat="47.12298" lon="-1.58385">
        <ele>58</ele>
        <time>2021-04-20T10:42:59.000Z</time>
      </trkpt>
      <trkpt lat="47.12295" lon="-1.58366">
        <ele>57</ele>
        <time>2021-04-20T10:43:01.000Z</time>
      </trkpt>
      <trkpt lat="47.12291" lon="-1.58346">
        <ele>56</ele>
        <time>2021-04-20T10:43:03.000Z</time>
      </trkpt>
      <trkpt lat="47.1228" lon="-1.58334">
        <ele>56</ele>
        <time>2021-04-20T10:43:05.000Z</time>
      </trkpt>
      <trkpt lat="47.1227" lon="-1.58323">
        <ele>56</ele>
        <time>2021-04-20T10:43:07.000Z</time>
      </trkpt>
      <trkpt lat="47.12259" lon="-1.58312">
        <ele>56</ele>
        <time>2021-04-20T10:43:09.000Z</time>
      </trkpt>
      <trkpt lat="47.12248" lon="-1.58301">
        <ele>56</ele>
        <time>2021-04-20T10:43:11.000Z</time>
      </trkpt>
      <trkpt lat="47.12237" lon="-1.58291">
        <ele>56</ele>
        <time>2021-04-20T10:43:13.000Z</time>
      </trkpt>
      <trkpt lat="47.12227" lon="-1.5828">
        <ele>56</ele>
        <time>2021-04-20T10:43:15.000Z</time>
      </trkpt>
      <trkpt lat="47.12216" lon="-1.58268">
        <ele>56</ele>
        <time>2021-04-20T10:43:17.000Z</time>
      </trkpt>
      <trkpt lat="47.12207" lon="-1.58258">
        <ele>55</ele>
        <time>2021-04-20T10:43:19.000Z</time>
      </trkpt>
      <trkpt lat="47.122" lon="-1.58251">
        <ele>56</ele>
        <time>2021-04-20T10:43:22.000Z</time>
      </trkpt>
      <trkpt lat="47.12201" lon="-1.58229">
        <ele>56</ele>
        <time>2021-04-20T10:43:27.000Z</time>
      </trkpt>
      <trkpt lat="47.12202" lon="-1.58211">
        <ele>56</ele>
        <time>2021-04-20T10:43:29.000Z</time>
      </trkpt>
      <trkpt lat="47.12203" lon="-1.58192">
        <ele>56</ele>
        <time>2021-04-20T10:43:31.000Z</time>
      </trkpt>
      <trkpt lat="47.12204" lon="-1.58172">
        <ele>57</ele>
        <time>2021-04-20T10:43:33.000Z</time>
      </trkpt>
      <trkpt lat="47.12208" lon="-1.58154">
        <ele>56</ele>
        <time>2021-04-20T10:43:35.000Z</time>
      </trkpt>
      <trkpt lat="47.12215" lon="-1.58137">
        <ele>57</ele>
        <time>2021-04-20T10:43:37.000Z</time>
      </trkpt>
      <trkpt lat="47.12223" lon="-1.58121">
        <ele>56</ele>
        <time>2021-04-20T10:43:39.000Z</time>
      </trkpt>
      <trkpt lat="47.1223" lon="-1.58104">
        <ele>55</ele>
        <time>2021-04-20T10:43:41.000Z</time>
      </trkpt>
      <trkpt lat="47.12236" lon="-1.58088">
        <ele>55</ele>
        <time>2021-04-20T10:43:43.000Z</time>
      </trkpt>
      <trkpt lat="47.12242" lon="-1.58071">
        <ele>55</ele>
        <time>2021-04-20T10:43:45.000Z</time>
      </trkpt>
      <trkpt lat="47.12247" lon="-1.58053">
        <ele>55</ele>
        <time>2021-04-20T10:43:47.000Z</time>
      </trkpt>
      <trkpt lat="47.12245" lon="-1.58034">
        <ele>56</ele>
        <time>2021-04-20T10:43:49.000Z</time>
      </trkpt>
      <trkpt lat="47.12238" lon="-1.58019">
        <ele>56</ele>
        <time>2021-04-20T10:43:51.000Z</time>
      </trkpt>
      <trkpt lat="47.12231" lon="-1.58006">
        <ele>56</ele>
        <time>2021-04-20T10:43:53.000Z</time>
      </trkpt>
      <trkpt lat="47.12223" lon="-1.57992">
        <ele>56</ele>
        <time>2021-04-20T10:43:55.000Z</time>
      </trkpt>
      <trkpt lat="47.12215" lon="-1.57978">
        <ele>56</ele>
        <time>2021-04-20T10:43:57.000Z</time>
      </trkpt>
      <trkpt lat="47.12208" lon="-1.57965">
        <ele>56</ele>
        <time>2021-04-20T10:43:59.000Z</time>
      </trkpt>
      <trkpt lat="47.12202" lon="-1.57952">
        <ele>57</ele>
        <time>2021-04-20T10:44:01.000Z</time>
      </trkpt>
      <trkpt lat="47.12196" lon="-1.57939">
        <ele>57</ele>
        <time>2021-04-20T10:44:03.000Z</time>
      </trkpt>
      <trkpt lat="47.12191" lon="-1.57925">
        <ele>57</ele>
        <time>2021-04-20T10:44:05.000Z</time>
      </trkpt>
      <trkpt lat="47.12187" lon="-1.5791">
        <ele>58</ele>
        <time>2021-04-20T10:44:07.000Z</time>
      </trkpt>
      <trkpt lat="47.12185" lon="-1.57894">
        <ele>58</ele>
        <time>2021-04-20T10:44:09.000Z</time>
      </trkpt>
      <trkpt lat="47.12184" lon="-1.57878">
        <ele>58</ele>
        <time>2021-04-20T10:44:11.000Z</time>
      </trkpt>
      <trkpt lat="47.12184" lon="-1.57862">
        <ele>58</ele>
        <time>2021-04-20T10:44:13.000Z</time>
      </trkpt>
      <trkpt lat="47.12183" lon="-1.57847">
        <ele>58</ele>
        <time>2021-04-20T10:44:15.000Z</time>
      </trkpt>
      <trkpt lat="47.12183" lon="-1.57831">
        <ele>59</ele>
        <time>2021-04-20T10:44:17.000Z</time>
      </trkpt>
      <trkpt lat="47.12183" lon="-1.57814">
        <ele>59</ele>
        <time>2021-04-20T10:44:19.000Z</time>
      </trkpt>
      <trkpt lat="47.12182" lon="-1.57798">
        <ele>59</ele>
        <time>2021-04-20T10:44:21.000Z</time>
      </trkpt>
      <trkpt lat="47.12182" lon="-1.57782">
        <ele>60</ele>
        <time>2021-04-20T10:44:23.000Z</time>
      </trkpt>
      <trkpt lat="47.12182" lon="-1.57765">
        <ele>60</ele>
        <time>2021-04-20T10:44:25.000Z</time>
      </trkpt>
      <trkpt lat="47.12181" lon="-1.57749">
        <ele>61</ele>
        <time>2021-04-20T10:44:27.000Z</time>
      </trkpt>
      <trkpt lat="47.12181" lon="-1.57733">
        <ele>60</ele>
        <time>2021-04-20T10:44:29.000Z</time>
      </trkpt>
      <trkpt lat="47.1218" lon="-1.57718">
        <ele>61</ele>
        <time>2021-04-20T10:44:31.000Z</time>
      </trkpt>
      <trkpt lat="47.1218" lon="-1.57703">
        <ele>61</ele>
        <time>2021-04-20T10:44:33.000Z</time>
      </trkpt>
      <trkpt lat="47.1218" lon="-1.57687">
        <ele>61</ele>
        <time>2021-04-20T10:44:35.000Z</time>
      </trkpt>
      <trkpt lat="47.1218" lon="-1.57671">
        <ele>61</ele>
        <time>2021-04-20T10:44:37.000Z</time>
      </trkpt>
      <trkpt lat="47.1218" lon="-1.57656">
        <ele>61</ele>
        <time>2021-04-20T10:44:39.000Z</time>
      </trkpt>
      <trkpt lat="47.1218" lon="-1.5764">
        <ele>61</ele>
        <time>2021-04-20T10:44:41.000Z</time>
      </trkpt>
      <trkpt lat="47.12181" lon="-1.57624">
        <ele>61</ele>
        <time>2021-04-20T10:44:43.000Z</time>
      </trkpt>
      <trkpt lat="47.1218" lon="-1.57607">
        <ele>61</ele>
        <time>2021-04-20T10:44:45.000Z</time>
      </trkpt>
      <trkpt lat="47.1218" lon="-1.57591">
        <ele>61</ele>
        <time>2021-04-20T10:44:47.000Z</time>
      </trkpt>
      <trkpt lat="47.12178" lon="-1.57574">
        <ele>61</ele>
        <time>2021-04-20T10:44:49.000Z</time>
      </trkpt>
      <trkpt lat="47.12178" lon="-1.57558">
        <ele>61</ele>
        <time>2021-04-20T10:44:51.000Z</time>
      </trkpt>
      <trkpt lat="47.12177" lon="-1.57541">
        <ele>60</ele>
        <time>2021-04-20T10:44:53.000Z</time>
      </trkpt>
      <trkpt lat="47.12176" lon="-1.57524">
        <ele>60</ele>
        <time>2021-04-20T10:44:55.000Z</time>
      </trkpt>
      <trkpt lat="47.12174" lon="-1.57508">
        <ele>60</ele>
        <time>2021-04-20T10:44:57.000Z</time>
      </trkpt>
      <trkpt lat="47.12171" lon="-1.57491">
        <ele>60</ele>
        <time>2021-04-20T10:44:59.000Z</time>
      </trkpt>
      <trkpt lat="47.12169" lon="-1.57475">
        <ele>60</ele>
        <time>2021-04-20T10:45:01.000Z</time>
      </trkpt>
      <trkpt lat="47.12166" lon="-1.57459">
        <ele>60</ele>
        <time>2021-04-20T10:45:03.000Z</time>
      </trkpt>
      <trkpt lat="47.12163" lon="-1.57443">
        <ele>60</ele>
        <time>2021-04-20T10:45:05.000Z</time>
      </trkpt>
      <trkpt lat="47.12159" lon="-1.57427">
        <ele>60</ele>
        <time>2021-04-20T10:45:07.000Z</time>
      </trkpt>
      <trkpt lat="47.12156" lon="-1.5741">
        <ele>60</ele>
        <time>2021-04-20T10:45:09.000Z</time>
      </trkpt>
      <trkpt lat="47.12153" lon="-1.57393">
        <ele>60</ele>
        <time>2021-04-20T10:45:11.000Z</time>
      </trkpt>
      <trkpt lat="47.1215" lon="-1.57376">
        <ele>60</ele>
        <time>2021-04-20T10:45:13.000Z</time>
      </trkpt>
      <trkpt lat="47.12147" lon="-1.57359">
        <ele>60</ele>
        <time>2021-04-20T10:45:15.000Z</time>
      </trkpt>
      <trkpt lat="47.12144" lon="-1.57341">
        <ele>60</ele>
        <time>2021-04-20T10:45:17.000Z</time>
      </trkpt>
      <trkpt lat="47.12141" lon="-1.57323">
        <ele>60</ele>
        <time>2021-04-20T10:45:19.000Z</time>
      </trkpt>
      <trkpt lat="47.12138" lon="-1.57304">
        <ele>59</ele>
        <time>2021-04-20T10:45:21.000Z</time>
      </trkpt>
      <trkpt lat="47.12133" lon="-1.57286">
        <ele>59</ele>
        <time>2021-04-20T10:45:23.000Z</time>
      </trkpt>
      <trkpt lat="47.12129" lon="-1.57268">
        <ele>59</ele>
        <time>2021-04-20T10:45:25.000Z</time>
      </trkpt>
      <trkpt lat="47.12126" lon="-1.5725">
        <ele>59</ele>
        <time>2021-04-20T10:45:27.000Z</time>
      </trkpt>
      <trkpt lat="47.12122" lon="-1.57232">
        <ele>58</ele>
        <time>2021-04-20T10:45:29.000Z</time>
      </trkpt>
      <trkpt lat="47.12118" lon="-1.57212">
        <ele>58</ele>
        <time>2021-04-20T10:45:31.000Z</time>
      </trkpt>
      <trkpt lat="47.12115" lon="-1.57193">
        <ele>58</ele>
        <time>2021-04-20T10:45:33.000Z</time>
      </trkpt>
      <trkpt lat="47.12111" lon="-1.57173">
        <ele>58</ele>
        <time>2021-04-20T10:45:35.000Z</time>
      </trkpt>
      <trkpt lat="47.12107" lon="-1.57154">
        <ele>57</ele>
        <time>2021-04-20T10:45:37.000Z</time>
      </trkpt>
      <trkpt lat="47.12103" lon="-1.57135">
        <ele>57</ele>
        <time>2021-04-20T10:45:39.000Z</time>
      </trkpt>
      <trkpt lat="47.121" lon="-1.57116">
        <ele>56</ele>
        <time>2021-04-20T10:45:41.000Z</time>
      </trkpt>
      <trkpt lat="47.12097" lon="-1.57097">
        <ele>56</ele>
        <time>2021-04-20T10:45:43.000Z</time>
      </trkpt>
      <trkpt lat="47.12093" lon="-1.57077">
        <ele>55</ele>
        <time>2021-04-20T10:45:45.000Z</time>
      </trkpt>
      <trkpt lat="47.1209" lon="-1.57064">
        <ele>55</ele>
        <time>2021-04-20T10:45:48.000Z</time>
      </trkpt>
      <trkpt lat="47.12088" lon="-1.57051">
        <ele>56</ele>
        <time>2021-04-20T10:45:50.000Z</time>
      </trkpt>
      <trkpt lat="47.12085" lon="-1.57038">
        <ele>57</ele>
        <time>2021-04-20T10:45:51.000Z</time>
      </trkpt>
      <trkpt lat="47.12082" lon="-1.57025">
        <ele>57</ele>
        <time>2021-04-20T10:45:52.000Z</time>
      </trkpt>
      <trkpt lat="47.12077" lon="-1.57002">
        <ele>58</ele>
        <time>2021-04-20T10:45:54.000Z</time>
      </trkpt>
      <trkpt lat="47.12074" lon="-1.56981">
        <ele>58</ele>
        <time>2021-04-20T10:45:56.000Z</time>
      </trkpt>
      <trkpt lat="47.1207" lon="-1.56961">
        <ele>58</ele>
        <time>2021-04-20T10:45:58.000Z</time>
      </trkpt>
      <trkpt lat="47.12066" lon="-1.56944">
        <ele>58</ele>
        <time>2021-04-20T10:46:00.000Z</time>
      </trkpt>
      <trkpt lat="47.12063" lon="-1.56928">
        <ele>58</ele>
        <time>2021-04-20T10:46:02.000Z</time>
      </trkpt>
      <trkpt lat="47.12059" lon="-1.56911">
        <ele>58</ele>
        <time>2021-04-20T10:46:04.000Z</time>
      </trkpt>
      <trkpt lat="47.12056" lon="-1.56896">
        <ele>58</ele>
        <time>2021-04-20T10:46:06.000Z</time>
      </trkpt>
      <trkpt lat="47.12054" lon="-1.56881">
        <ele>58</ele>
        <time>2021-04-20T10:46:08.000Z</time>
      </trkpt>
      <trkpt lat="47.12051" lon="-1.56866">
        <ele>59</ele>
        <time>2021-04-20T10:46:10.000Z</time>
      </trkpt>
      <trkpt lat="47.12049" lon="-1.5685">
        <ele>59</ele>
        <time>2021-04-20T10:46:12.000Z</time>
      </trkpt>
      <trkpt lat="47.12046" lon="-1.56834">
        <ele>59</ele>
        <time>2021-04-20T10:46:14.000Z</time>
      </trkpt>
      <trkpt lat="47.12043" lon="-1.5682">
        <ele>59</ele>
        <time>2021-04-20T10:46:16.000Z</time>
      </trkpt>
      <trkpt lat="47.1204" lon="-1.56805">
        <ele>59</ele>
        <time>2021-04-20T10:46:18.000Z</time>
      </trkpt>
      <trkpt lat="47.12037" lon="-1.56789">
        <ele>59</ele>
        <time>2021-04-20T10:46:20.000Z</time>
      </trkpt>
      <trkpt lat="47.12035" lon="-1.56774">
        <ele>59</ele>
        <time>2021-04-20T10:46:22.000Z</time>
      </trkpt>
      <trkpt lat="47.12032" lon="-1.56759">
        <ele>60</ele>
        <time>2021-04-20T10:46:24.000Z</time>
      </trkpt>
      <trkpt lat="47.12029" lon="-1.56744">
        <ele>60</ele>
        <time>2021-04-20T10:46:26.000Z</time>
      </trkpt>
      <trkpt lat="47.12026" lon="-1.5673">
        <ele>60</ele>
        <time>2021-04-20T10:46:28.000Z</time>
      </trkpt>
      <trkpt lat="47.12023" lon="-1.56716">
        <ele>61</ele>
        <time>2021-04-20T10:46:30.000Z</time>
      </trkpt>
      <trkpt lat="47.12021" lon="-1.56702">
        <ele>61</ele>
        <time>2021-04-20T10:46:32.000Z</time>
      </trkpt>
      <trkpt lat="47.12018" lon="-1.56687">
        <ele>62</ele>
        <time>2021-04-20T10:46:34.000Z</time>
      </trkpt>
      <trkpt lat="47.12015" lon="-1.56672">
        <ele>62</ele>
        <time>2021-04-20T10:46:36.000Z</time>
      </trkpt>
      <trkpt lat="47.12013" lon="-1.56658">
        <ele>62</ele>
        <time>2021-04-20T10:46:38.000Z</time>
      </trkpt>
      <trkpt lat="47.1201" lon="-1.56644">
        <ele>62</ele>
        <time>2021-04-20T10:46:40.000Z</time>
      </trkpt>
      <trkpt lat="47.12007" lon="-1.56629">
        <ele>63</ele>
        <time>2021-04-20T10:46:42.000Z</time>
      </trkpt>
      <trkpt lat="47.12004" lon="-1.56615">
        <ele>63</ele>
        <time>2021-04-20T10:46:44.000Z</time>
      </trkpt>
      <trkpt lat="47.12002" lon="-1.566">
        <ele>63</ele>
        <time>2021-04-20T10:46:46.000Z</time>
      </trkpt>
      <trkpt lat="47.11999" lon="-1.56585">
        <ele>63</ele>
        <time>2021-04-20T10:46:48.000Z</time>
      </trkpt>
      <trkpt lat="47.11995" lon="-1.56571">
        <ele>63</ele>
        <time>2021-04-20T10:46:50.000Z</time>
      </trkpt>
      <trkpt lat="47.11992" lon="-1.56555">
        <ele>63</ele>
        <time>2021-04-20T10:46:52.000Z</time>
      </trkpt>
      <trkpt lat="47.11989" lon="-1.56541">
        <ele>63</ele>
        <time>2021-04-20T10:46:54.000Z</time>
      </trkpt>
      <trkpt lat="47.11986" lon="-1.56526">
        <ele>63</ele>
        <time>2021-04-20T10:46:56.000Z</time>
      </trkpt>
      <trkpt lat="47.11982" lon="-1.56511">
        <ele>63</ele>
        <time>2021-04-20T10:46:58.000Z</time>
      </trkpt>
      <trkpt lat="47.11979" lon="-1.56497">
        <ele>63</ele>
        <time>2021-04-20T10:47:00.000Z</time>
      </trkpt>
      <trkpt lat="47.11975" lon="-1.56483">
        <ele>63</ele>
        <time>2021-04-20T10:47:02.000Z</time>
      </trkpt>
      <trkpt lat="47.11971" lon="-1.56467">
        <ele>63</ele>
        <time>2021-04-20T10:47:04.000Z</time>
      </trkpt>
      <trkpt lat="47.11967" lon="-1.56452">
        <ele>63</ele>
        <time>2021-04-20T10:47:06.000Z</time>
      </trkpt>
      <trkpt lat="47.11963" lon="-1.56438">
        <ele>63</ele>
        <time>2021-04-20T10:47:08.000Z</time>
      </trkpt>
      <trkpt lat="47.1196" lon="-1.56422">
        <ele>63</ele>
        <time>2021-04-20T10:47:10.000Z</time>
      </trkpt>
      <trkpt lat="47.11956" lon="-1.56407">
        <ele>63</ele>
        <time>2021-04-20T10:47:12.000Z</time>
      </trkpt>
      <trkpt lat="47.11952" lon="-1.56392">
        <ele>62</ele>
        <time>2021-04-20T10:47:14.000Z</time>
      </trkpt>
      <trkpt lat="47.11948" lon="-1.56376">
        <ele>62</ele>
        <time>2021-04-20T10:47:16.000Z</time>
      </trkpt>
      <trkpt lat="47.11944" lon="-1.56361">
        <ele>62</ele>
        <time>2021-04-20T10:47:18.000Z</time>
      </trkpt>
      <trkpt lat="47.1194" lon="-1.56346">
        <ele>62</ele>
        <time>2021-04-20T10:47:20.000Z</time>
      </trkpt>
      <trkpt lat="47.11936" lon="-1.5633">
        <ele>61</ele>
        <time>2021-04-20T10:47:22.000Z</time>
      </trkpt>
      <trkpt lat="47.11932" lon="-1.56314">
        <ele>61</ele>
        <time>2021-04-20T10:47:24.000Z</time>
      </trkpt>
      <trkpt lat="47.11928" lon="-1.56299">
        <ele>61</ele>
        <time>2021-04-20T10:47:26.000Z</time>
      </trkpt>
      <trkpt lat="47.11924" lon="-1.56283">
        <ele>61</ele>
        <time>2021-04-20T10:47:28.000Z</time>
      </trkpt>
      <trkpt lat="47.1192" lon="-1.56268">
        <ele>62</ele>
        <time>2021-04-20T10:47:30.000Z</time>
      </trkpt>
      <trkpt lat="47.11916" lon="-1.56253">
        <ele>62</ele>
        <time>2021-04-20T10:47:32.000Z</time>
      </trkpt>
      <trkpt lat="47.11912" lon="-1.56238">
        <ele>62</ele>
        <time>2021-04-20T10:47:34.000Z</time>
      </trkpt>
      <trkpt lat="47.11908" lon="-1.56222">
        <ele>62</ele>
        <time>2021-04-20T10:47:36.000Z</time>
      </trkpt>
      <trkpt lat="47.11904" lon="-1.56207">
        <ele>62</ele>
        <time>2021-04-20T10:47:38.000Z</time>
      </trkpt>
      <trkpt lat="47.11901" lon="-1.56193">
        <ele>62</ele>
        <time>2021-04-20T10:47:40.000Z</time>
      </trkpt>
      <trkpt lat="47.11897" lon="-1.56177">
        <ele>62</ele>
        <time>2021-04-20T10:47:42.000Z</time>
      </trkpt>
      <trkpt lat="47.11893" lon="-1.56161">
        <ele>61</ele>
        <time>2021-04-20T10:47:44.000Z</time>
      </trkpt>
      <trkpt lat="47.11889" lon="-1.56146">
        <ele>61</ele>
        <time>2021-04-20T10:47:46.000Z</time>
      </trkpt>
      <trkpt lat="47.11885" lon="-1.56131">
        <ele>61</ele>
        <time>2021-04-20T10:47:48.000Z</time>
      </trkpt>
      <trkpt lat="47.11882" lon="-1.56117">
        <ele>61</ele>
        <time>2021-04-20T10:47:50.000Z</time>
      </trkpt>
      <trkpt lat="47.11878" lon="-1.56102">
        <ele>61</ele>
        <time>2021-04-20T10:47:52.000Z</time>
      </trkpt>
      <trkpt lat="47.11875" lon="-1.56086">
        <ele>61</ele>
        <time>2021-04-20T10:47:54.000Z</time>
      </trkpt>
      <trkpt lat="47.11872" lon="-1.56071">
        <ele>61</ele>
        <time>2021-04-20T10:47:56.000Z</time>
      </trkpt>
      <trkpt lat="47.1187" lon="-1.56055">
        <ele>61</ele>
        <time>2021-04-20T10:47:58.000Z</time>
      </trkpt>
      <trkpt lat="47.11867" lon="-1.56039">
        <ele>62</ele>
        <time>2021-04-20T10:48:00.000Z</time>
      </trkpt>
      <trkpt lat="47.11865" lon="-1.56023">
        <ele>61</ele>
        <time>2021-04-20T10:48:02.000Z</time>
      </trkpt>
      <trkpt lat="47.11864" lon="-1.56007">
        <ele>61</ele>
        <time>2021-04-20T10:48:04.000Z</time>
      </trkpt>
      <trkpt lat="47.11862" lon="-1.5599">
        <ele>62</ele>
        <time>2021-04-20T10:48:06.000Z</time>
      </trkpt>
      <trkpt lat="47.1186" lon="-1.55973">
        <ele>62</ele>
        <time>2021-04-20T10:48:08.000Z</time>
      </trkpt>
      <trkpt lat="47.11859" lon="-1.55956">
        <ele>62</ele>
        <time>2021-04-20T10:48:10.000Z</time>
      </trkpt>
      <trkpt lat="47.11858" lon="-1.5594">
        <ele>63</ele>
        <time>2021-04-20T10:48:12.000Z</time>
      </trkpt>
      <trkpt lat="47.11856" lon="-1.55923">
        <ele>63</ele>
        <time>2021-04-20T10:48:14.000Z</time>
      </trkpt>
      <trkpt lat="47.11855" lon="-1.55906">
        <ele>63</ele>
        <time>2021-04-20T10:48:16.000Z</time>
      </trkpt>
      <trkpt lat="47.11854" lon="-1.5589">
        <ele>63</ele>
        <time>2021-04-20T10:48:18.000Z</time>
      </trkpt>
      <trkpt lat="47.11853" lon="-1.55873">
        <ele>64</ele>
        <time>2021-04-20T10:48:20.000Z</time>
      </trkpt>
      <trkpt lat="47.11852" lon="-1.55856">
        <ele>64</ele>
        <time>2021-04-20T10:48:22.000Z</time>
      </trkpt>
      <trkpt lat="47.1185" lon="-1.55839">
        <ele>64</ele>
        <time>2021-04-20T10:48:24.000Z</time>
      </trkpt>
      <trkpt lat="47.11849" lon="-1.55823">
        <ele>64</ele>
        <time>2021-04-20T10:48:26.000Z</time>
      </trkpt>
      <trkpt lat="47.11848" lon="-1.55806">
        <ele>63</ele>
        <time>2021-04-20T10:48:28.000Z</time>
      </trkpt>
      <trkpt lat="47.11846" lon="-1.55789">
        <ele>64</ele>
        <time>2021-04-20T10:48:30.000Z</time>
      </trkpt>
      <trkpt lat="47.11845" lon="-1.55772">
        <ele>64</ele>
        <time>2021-04-20T10:48:32.000Z</time>
      </trkpt>
      <trkpt lat="47.11844" lon="-1.55755">
        <ele>64</ele>
        <time>2021-04-20T10:48:34.000Z</time>
      </trkpt>
      <trkpt lat="47.11842" lon="-1.55738">
        <ele>65</ele>
        <time>2021-04-20T10:48:36.000Z</time>
      </trkpt>
      <trkpt lat="47.11841" lon="-1.55721">
        <ele>64</ele>
        <time>2021-04-20T10:48:38.000Z</time>
      </trkpt>
      <trkpt lat="47.1184" lon="-1.55704">
        <ele>64</ele>
        <time>2021-04-20T10:48:40.000Z</time>
      </trkpt>
      <trkpt lat="47.11839" lon="-1.55687">
        <ele>64</ele>
        <time>2021-04-20T10:48:42.000Z</time>
      </trkpt>
      <trkpt lat="47.11838" lon="-1.5567">
        <ele>64</ele>
        <time>2021-04-20T10:48:44.000Z</time>
      </trkpt>
      <trkpt lat="47.11836" lon="-1.55653">
        <ele>64</ele>
        <time>2021-04-20T10:48:46.000Z</time>
      </trkpt>
      <trkpt lat="47.11835" lon="-1.55636">
        <ele>64</ele>
        <time>2021-04-20T10:48:48.000Z</time>
      </trkpt>
      <trkpt lat="47.11834" lon="-1.55619">
        <ele>64</ele>
        <time>2021-04-20T10:48:50.000Z</time>
      </trkpt>
      <trkpt lat="47.11832" lon="-1.55602">
        <ele>64</ele>
        <time>2021-04-20T10:48:52.000Z</time>
      </trkpt>
      <trkpt lat="47.11831" lon="-1.55586">
        <ele>63</ele>
        <time>2021-04-20T10:48:54.000Z</time>
      </trkpt>
      <trkpt lat="47.1183" lon="-1.5557">
        <ele>63</ele>
        <time>2021-04-20T10:48:56.000Z</time>
      </trkpt>
      <trkpt lat="47.11828" lon="-1.55552">
        <ele>63</ele>
        <time>2021-04-20T10:48:58.000Z</time>
      </trkpt>
      <trkpt lat="47.11827" lon="-1.55536">
        <ele>64</ele>
        <time>2021-04-20T10:49:00.000Z</time>
      </trkpt>
      <trkpt lat="47.11826" lon="-1.55518">
        <ele>64</ele>
        <time>2021-04-20T10:49:02.000Z</time>
      </trkpt>
      <trkpt lat="47.11825" lon="-1.55502">
        <ele>64</ele>
        <time>2021-04-20T10:49:04.000Z</time>
      </trkpt>
      <trkpt lat="47.11823" lon="-1.55485">
        <ele>64</ele>
        <time>2021-04-20T10:49:06.000Z</time>
      </trkpt>
      <trkpt lat="47.11822" lon="-1.55469">
        <ele>64</ele>
        <time>2021-04-20T10:49:08.000Z</time>
      </trkpt>
      <trkpt lat="47.11822" lon="-1.55453">
        <ele>64</ele>
        <time>2021-04-20T10:49:10.000Z</time>
      </trkpt>
      <trkpt lat="47.11821" lon="-1.55436">
        <ele>64</ele>
        <time>2021-04-20T10:49:12.000Z</time>
      </trkpt>
      <trkpt lat="47.1182" lon="-1.5542">
        <ele>64</ele>
        <time>2021-04-20T10:49:14.000Z</time>
      </trkpt>
      <trkpt lat="47.1182" lon="-1.55403">
        <ele>65</ele>
        <time>2021-04-20T10:49:16.000Z</time>
      </trkpt>
      <trkpt lat="47.11819" lon="-1.55386">
        <ele>65</ele>
        <time>2021-04-20T10:49:18.000Z</time>
      </trkpt>
      <trkpt lat="47.11819" lon="-1.5537">
        <ele>65</ele>
        <time>2021-04-20T10:49:20.000Z</time>
      </trkpt>
      <trkpt lat="47.11819" lon="-1.55353">
        <ele>65</ele>
        <time>2021-04-20T10:49:22.000Z</time>
      </trkpt>
      <trkpt lat="47.11818" lon="-1.55336">
        <ele>65</ele>
        <time>2021-04-20T10:49:24.000Z</time>
      </trkpt>
      <trkpt lat="47.11818" lon="-1.5532">
        <ele>65</ele>
        <time>2021-04-20T10:49:26.000Z</time>
      </trkpt>
      <trkpt lat="47.11818" lon="-1.55303">
        <ele>65</ele>
        <time>2021-04-20T10:49:28.000Z</time>
      </trkpt>
      <trkpt lat="47.11818" lon="-1.55287">
        <ele>65</ele>
        <time>2021-04-20T10:49:30.000Z</time>
      </trkpt>
      <trkpt lat="47.11817" lon="-1.5527">
        <ele>65</ele>
        <time>2021-04-20T10:49:32.000Z</time>
      </trkpt>
      <trkpt lat="47.11817" lon="-1.55254">
        <ele>65</ele>
        <time>2021-04-20T10:49:34.000Z</time>
      </trkpt>
      <trkpt lat="47.11816" lon="-1.55237">
        <ele>65</ele>
        <time>2021-04-20T10:49:36.000Z</time>
      </trkpt>
      <trkpt lat="47.11816" lon="-1.55221">
        <ele>65</ele>
        <time>2021-04-20T10:49:38.000Z</time>
      </trkpt>
      <trkpt lat="47.11816" lon="-1.55204">
        <ele>65</ele>
        <time>2021-04-20T10:49:40.000Z</time>
      </trkpt>
      <trkpt lat="47.11815" lon="-1.55187">
        <ele>65</ele>
        <time>2021-04-20T10:49:42.000Z</time>
      </trkpt>
      <trkpt lat="47.11815" lon="-1.55171">
        <ele>65</ele>
        <time>2021-04-20T10:49:44.000Z</time>
      </trkpt>
      <trkpt lat="47.11814" lon="-1.55155">
        <ele>65</ele>
        <time>2021-04-20T10:49:46.000Z</time>
      </trkpt>
      <trkpt lat="47.11812" lon="-1.55139">
        <ele>66</ele>
        <time>2021-04-20T10:49:48.000Z</time>
      </trkpt>
      <trkpt lat="47.11811" lon="-1.55122">
        <ele>66</ele>
        <time>2021-04-20T10:49:50.000Z</time>
      </trkpt>
      <trkpt lat="47.11809" lon="-1.55105">
        <ele>66</ele>
        <time>2021-04-20T10:49:52.000Z</time>
      </trkpt>
      <trkpt lat="47.11807" lon="-1.55088">
        <ele>66</ele>
        <time>2021-04-20T10:49:54.000Z</time>
      </trkpt>
      <trkpt lat="47.11805" lon="-1.55071">
        <ele>66</ele>
        <time>2021-04-20T10:49:56.000Z</time>
      </trkpt>
      <trkpt lat="47.11802" lon="-1.55054">
        <ele>66</ele>
        <time>2021-04-20T10:49:58.000Z</time>
      </trkpt>
      <trkpt lat="47.11799" lon="-1.55038">
        <ele>66</ele>
        <time>2021-04-20T10:50:00.000Z</time>
      </trkpt>
      <trkpt lat="47.11796" lon="-1.55021">
        <ele>66</ele>
        <time>2021-04-20T10:50:02.000Z</time>
      </trkpt>
      <trkpt lat="47.11793" lon="-1.55004">
        <ele>66</ele>
        <time>2021-04-20T10:50:04.000Z</time>
      </trkpt>
      <trkpt lat="47.1179" lon="-1.54988">
        <ele>66</ele>
        <time>2021-04-20T10:50:06.000Z</time>
      </trkpt>
      <trkpt lat="47.11787" lon="-1.54972">
        <ele>66</ele>
        <time>2021-04-20T10:50:08.000Z</time>
      </trkpt>
      <trkpt lat="47.11783" lon="-1.54956">
        <ele>67</ele>
        <time>2021-04-20T10:50:10.000Z</time>
      </trkpt>
      <trkpt lat="47.11779" lon="-1.54939">
        <ele>66</ele>
        <time>2021-04-20T10:50:12.000Z</time>
      </trkpt>
      <trkpt lat="47.11775" lon="-1.54923">
        <ele>66</ele>
        <time>2021-04-20T10:50:14.000Z</time>
      </trkpt>
      <trkpt lat="47.1177" lon="-1.54908">
        <ele>67</ele>
        <time>2021-04-20T10:50:16.000Z</time>
      </trkpt>
      <trkpt lat="47.11765" lon="-1.54892">
        <ele>67</ele>
        <time>2021-04-20T10:50:18.000Z</time>
      </trkpt>
      <trkpt lat="47.11761" lon="-1.54876">
        <ele>67</ele>
        <time>2021-04-20T10:50:20.000Z</time>
      </trkpt>
      <trkpt lat="47.11756" lon="-1.54862">
        <ele>66</ele>
        <time>2021-04-20T10:50:22.000Z</time>
      </trkpt>
      <trkpt lat="47.11751" lon="-1.54847">
        <ele>67</ele>
        <time>2021-04-20T10:50:24.000Z</time>
      </trkpt>
      <trkpt lat="47.11746" lon="-1.54831">
        <ele>67</ele>
        <time>2021-04-20T10:50:26.000Z</time>
      </trkpt>
      <trkpt lat="47.11742" lon="-1.54816">
        <ele>66</ele>
        <time>2021-04-20T10:50:28.000Z</time>
      </trkpt>
      <trkpt lat="47.11737" lon="-1.54801">
        <ele>67</ele>
        <time>2021-04-20T10:50:30.000Z</time>
      </trkpt>
      <trkpt lat="47.11732" lon="-1.54786">
        <ele>67</ele>
        <time>2021-04-20T10:50:32.000Z</time>
      </trkpt>
      <trkpt lat="47.11728" lon="-1.54771">
        <ele>67</ele>
        <time>2021-04-20T10:50:34.000Z</time>
      </trkpt>
      <trkpt lat="47.11723" lon="-1.54755">
        <ele>67</ele>
        <time>2021-04-20T10:50:36.000Z</time>
      </trkpt>
      <trkpt lat="47.11719" lon="-1.54741">
        <ele>67</ele>
        <time>2021-04-20T10:50:38.000Z</time>
      </trkpt>
      <trkpt lat="47.11714" lon="-1.54726">
        <ele>68</ele>
        <time>2021-04-20T10:50:40.000Z</time>
      </trkpt>
      <trkpt lat="47.1171" lon="-1.54711">
        <ele>68</ele>
        <time>2021-04-20T10:50:42.000Z</time>
      </trkpt>
      <trkpt lat="47.11705" lon="-1.54696">
        <ele>68</ele>
        <time>2021-04-20T10:50:44.000Z</time>
      </trkpt>
      <trkpt lat="47.11701" lon="-1.54681">
        <ele>68</ele>
        <time>2021-04-20T10:50:46.000Z</time>
      </trkpt>
      <trkpt lat="47.11696" lon="-1.54666">
        <ele>68</ele>
        <time>2021-04-20T10:50:48.000Z</time>
      </trkpt>
      <trkpt lat="47.11692" lon="-1.54651">
        <ele>68</ele>
        <time>2021-04-20T10:50:50.000Z</time>
      </trkpt>
      <trkpt lat="47.11687" lon="-1.54637">
        <ele>68</ele>
        <time>2021-04-20T10:50:52.000Z</time>
      </trkpt>
      <trkpt lat="47.11682" lon="-1.54621">
        <ele>69</ele>
        <time>2021-04-20T10:50:54.000Z</time>
      </trkpt>
      <trkpt lat="47.11678" lon="-1.54607">
        <ele>69</ele>
        <time>2021-04-20T10:50:56.000Z</time>
      </trkpt>
      <trkpt lat="47.11673" lon="-1.54592">
        <ele>69</ele>
        <time>2021-04-20T10:50:58.000Z</time>
      </trkpt>
      <trkpt lat="47.11668" lon="-1.54577">
        <ele>70</ele>
        <time>2021-04-20T10:51:00.000Z</time>
      </trkpt>
      <trkpt lat="47.11663" lon="-1.54562">
        <ele>70</ele>
        <time>2021-04-20T10:51:02.000Z</time>
      </trkpt>
      <trkpt lat="47.11658" lon="-1.54548">
        <ele>70</ele>
        <time>2021-04-20T10:51:04.000Z</time>
      </trkpt>
      <trkpt lat="47.11654" lon="-1.54533">
        <ele>70</ele>
        <time>2021-04-20T10:51:06.000Z</time>
      </trkpt>
      <trkpt lat="47.11649" lon="-1.54518">
        <ele>71</ele>
        <time>2021-04-20T10:51:08.000Z</time>
      </trkpt>
      <trkpt lat="47.11644" lon="-1.54504">
        <ele>71</ele>
        <time>2021-04-20T10:51:10.000Z</time>
      </trkpt>
      <trkpt lat="47.11639" lon="-1.54489">
        <ele>71</ele>
        <time>2021-04-20T10:51:12.000Z</time>
      </trkpt>
      <trkpt lat="47.11634" lon="-1.54474">
        <ele>71</ele>
        <time>2021-04-20T10:51:14.000Z</time>
      </trkpt>
      <trkpt lat="47.1163" lon="-1.54459">
        <ele>71</ele>
        <time>2021-04-20T10:51:16.000Z</time>
      </trkpt>
      <trkpt lat="47.11625" lon="-1.54445">
        <ele>71</ele>
        <time>2021-04-20T10:51:18.000Z</time>
      </trkpt>
      <trkpt lat="47.11619" lon="-1.5443">
        <ele>71</ele>
        <time>2021-04-20T10:51:20.000Z</time>
      </trkpt>
      <trkpt lat="47.11614" lon="-1.54415">
        <ele>71</ele>
        <time>2021-04-20T10:51:22.000Z</time>
      </trkpt>
      <trkpt lat="47.11609" lon="-1.54401">
        <ele>71</ele>
        <time>2021-04-20T10:51:24.000Z</time>
      </trkpt>
      <trkpt lat="47.11604" lon="-1.54386">
        <ele>71</ele>
        <time>2021-04-20T10:51:26.000Z</time>
      </trkpt>
      <trkpt lat="47.11599" lon="-1.54372">
        <ele>71</ele>
        <time>2021-04-20T10:51:28.000Z</time>
      </trkpt>
      <trkpt lat="47.11595" lon="-1.54357">
        <ele>71</ele>
        <time>2021-04-20T10:51:30.000Z</time>
      </trkpt>
      <trkpt lat="47.1159" lon="-1.54342">
        <ele>71</ele>
        <time>2021-04-20T10:51:32.000Z</time>
      </trkpt>
      <trkpt lat="47.11584" lon="-1.54328">
        <ele>71</ele>
        <time>2021-04-20T10:51:34.000Z</time>
      </trkpt>
      <trkpt lat="47.1158" lon="-1.54313">
        <ele>71</ele>
        <time>2021-04-20T10:51:36.000Z</time>
      </trkpt>
      <trkpt lat="47.11576" lon="-1.54299">
        <ele>71</ele>
        <time>2021-04-20T10:51:38.000Z</time>
      </trkpt>
      <trkpt lat="47.1157" lon="-1.54287">
        <ele>70</ele>
        <time>2021-04-20T10:51:40.000Z</time>
      </trkpt>
      <trkpt lat="47.11566" lon="-1.54275">
        <ele>70</ele>
        <time>2021-04-20T10:51:42.000Z</time>
      </trkpt>
      <trkpt lat="47.11568" lon="-1.5426">
        <ele>70</ele>
        <time>2021-04-20T10:51:44.000Z</time>
      </trkpt>
      <trkpt lat="47.11576" lon="-1.54248">
        <ele>69</ele>
        <time>2021-04-20T10:51:46.000Z</time>
      </trkpt>
      <trkpt lat="47.11586" lon="-1.54241">
        <ele>69</ele>
        <time>2021-04-20T10:51:48.000Z</time>
      </trkpt>
      <trkpt lat="47.11596" lon="-1.54235">
        <ele>69</ele>
        <time>2021-04-20T10:51:50.000Z</time>
      </trkpt>
      <trkpt lat="47.11606" lon="-1.54228">
        <ele>69</ele>
        <time>2021-04-20T10:51:52.000Z</time>
      </trkpt>
      <trkpt lat="47.11616" lon="-1.54221">
        <ele>69</ele>
        <time>2021-04-20T10:51:54.000Z</time>
      </trkpt>
      <trkpt lat="47.11625" lon="-1.54213">
        <ele>69</ele>
        <time>2021-04-20T10:51:56.000Z</time>
      </trkpt>
      <trkpt lat="47.11634" lon="-1.54203">
        <ele>69</ele>
        <time>2021-04-20T10:51:58.000Z</time>
      </trkpt>
      <trkpt lat="47.11641" lon="-1.54191">
        <ele>70</ele>
        <time>2021-04-20T10:52:00.000Z</time>
      </trkpt>
      <trkpt lat="47.11645" lon="-1.54177">
        <ele>70</ele>
        <time>2021-04-20T10:52:02.000Z</time>
      </trkpt>
      <trkpt lat="47.11648" lon="-1.54162">
        <ele>69</ele>
        <time>2021-04-20T10:52:04.000Z</time>
      </trkpt>
      <trkpt lat="47.11656" lon="-1.54151">
        <ele>69</ele>
        <time>2021-04-20T10:52:06.000Z</time>
      </trkpt>
      <trkpt lat="47.11667" lon="-1.54146">
        <ele>69</ele>
        <time>2021-04-20T10:52:08.000Z</time>
      </trkpt>
      <trkpt lat="47.11676" lon="-1.5414">
        <ele>69</ele>
        <time>2021-04-20T10:52:10.000Z</time>
      </trkpt>
      <trkpt lat="47.11686" lon="-1.54132">
        <ele>69</ele>
        <time>2021-04-20T10:52:12.000Z</time>
      </trkpt>
      <trkpt lat="47.11694" lon="-1.54121">
        <ele>70</ele>
        <time>2021-04-20T10:52:14.000Z</time>
      </trkpt>
      <trkpt lat="47.117" lon="-1.54109">
        <ele>70</ele>
        <time>2021-04-20T10:52:16.000Z</time>
      </trkpt>
      <trkpt lat="47.11706" lon="-1.54096">
        <ele>70</ele>
        <time>2021-04-20T10:52:18.000Z</time>
      </trkpt>
      <trkpt lat="47.11712" lon="-1.54082">
        <ele>69</ele>
        <time>2021-04-20T10:52:20.000Z</time>
      </trkpt>
      <trkpt lat="47.11717" lon="-1.54069">
        <ele>69</ele>
        <time>2021-04-20T10:52:22.000Z</time>
      </trkpt>
      <trkpt lat="47.11723" lon="-1.54055">
        <ele>70</ele>
        <time>2021-04-20T10:52:24.000Z</time>
      </trkpt>
      <trkpt lat="47.11729" lon="-1.54041">
        <ele>70</ele>
        <time>2021-04-20T10:52:26.000Z</time>
      </trkpt>
      <trkpt lat="47.11735" lon="-1.54028">
        <ele>70</ele>
        <time>2021-04-20T10:52:28.000Z</time>
      </trkpt>
      <trkpt lat="47.11741" lon="-1.54014">
        <ele>70</ele>
        <time>2021-04-20T10:52:30.000Z</time>
      </trkpt>
      <trkpt lat="47.11746" lon="-1.53999">
        <ele>71</ele>
        <time>2021-04-20T10:52:32.000Z</time>
      </trkpt>
      <trkpt lat="47.11752" lon="-1.53984">
        <ele>70</ele>
        <time>2021-04-20T10:52:34.000Z</time>
      </trkpt>
      <trkpt lat="47.11758" lon="-1.53969">
        <ele>70</ele>
        <time>2021-04-20T10:52:36.000Z</time>
      </trkpt>
      <trkpt lat="47.11765" lon="-1.53953">
        <ele>69</ele>
        <time>2021-04-20T10:52:38.000Z</time>
      </trkpt>
      <trkpt lat="47.11772" lon="-1.53935">
        <ele>69</ele>
        <time>2021-04-20T10:52:40.000Z</time>
      </trkpt>
      <trkpt lat="47.11779" lon="-1.53918">
        <ele>68</ele>
        <time>2021-04-20T10:52:42.000Z</time>
      </trkpt>
      <trkpt lat="47.11786" lon="-1.53901">
        <ele>67</ele>
        <time>2021-04-20T10:52:44.000Z</time>
      </trkpt>
      <trkpt lat="47.11795" lon="-1.53884">
        <ele>67</ele>
        <time>2021-04-20T10:52:46.000Z</time>
      </trkpt>
      <trkpt lat="47.11805" lon="-1.53866">
        <ele>66</ele>
        <time>2021-04-20T10:52:48.000Z</time>
      </trkpt>
      <trkpt lat="47.11815" lon="-1.5385">
        <ele>66</ele>
        <time>2021-04-20T10:52:50.000Z</time>
      </trkpt>
      <trkpt lat="47.11824" lon="-1.53834">
        <ele>65</ele>
        <time>2021-04-20T10:52:52.000Z</time>
      </trkpt>
      <trkpt lat="47.11833" lon="-1.53816">
        <ele>64</ele>
        <time>2021-04-20T10:52:54.000Z</time>
      </trkpt>
      <trkpt lat="47.11842" lon="-1.53799">
        <ele>64</ele>
        <time>2021-04-20T10:52:56.000Z</time>
      </trkpt>
      <trkpt lat="47.1185" lon="-1.53781">
        <ele>63</ele>
        <time>2021-04-20T10:52:58.000Z</time>
      </trkpt>
      <trkpt lat="47.11858" lon="-1.53763">
        <ele>62</ele>
        <time>2021-04-20T10:53:00.000Z</time>
      </trkpt>
      <trkpt lat="47.11865" lon="-1.53744">
        <ele>62</ele>
        <time>2021-04-20T10:53:02.000Z</time>
      </trkpt>
      <trkpt lat="47.11872" lon="-1.53724">
        <ele>62</ele>
        <time>2021-04-20T10:53:04.000Z</time>
      </trkpt>
      <trkpt lat="47.11879" lon="-1.53706">
        <ele>61</ele>
        <time>2021-04-20T10:53:06.000Z</time>
      </trkpt>
      <trkpt lat="47.11888" lon="-1.53688">
        <ele>61</ele>
        <time>2021-04-20T10:53:08.000Z</time>
      </trkpt>
      <trkpt lat="47.11896" lon="-1.53672">
        <ele>61</ele>
        <time>2021-04-20T10:53:10.000Z</time>
      </trkpt>
      <trkpt lat="47.11905" lon="-1.53656">
        <ele>61</ele>
        <time>2021-04-20T10:53:12.000Z</time>
      </trkpt>
      <trkpt lat="47.11914" lon="-1.53641">
        <ele>61</ele>
        <time>2021-04-20T10:53:14.000Z</time>
      </trkpt>
      <trkpt lat="47.11921" lon="-1.53626">
        <ele>61</ele>
        <time>2021-04-20T10:53:16.000Z</time>
      </trkpt>
      <trkpt lat="47.1193" lon="-1.5361">
        <ele>61</ele>
        <time>2021-04-20T10:53:18.000Z</time>
      </trkpt>
      <trkpt lat="47.11938" lon="-1.53595">
        <ele>60</ele>
        <time>2021-04-20T10:53:20.000Z</time>
      </trkpt>
      <trkpt lat="47.11946" lon="-1.53579">
        <ele>60</ele>
        <time>2021-04-20T10:53:22.000Z</time>
      </trkpt>
      <trkpt lat="47.11956" lon="-1.53563">
        <ele>59</ele>
        <time>2021-04-20T10:53:24.000Z</time>
      </trkpt>
      <trkpt lat="47.11964" lon="-1.53546">
        <ele>59</ele>
        <time>2021-04-20T10:53:26.000Z</time>
      </trkpt>
      <trkpt lat="47.11973" lon="-1.53531">
        <ele>58</ele>
        <time>2021-04-20T10:53:28.000Z</time>
      </trkpt>
      <trkpt lat="47.11981" lon="-1.53514">
        <ele>58</ele>
        <time>2021-04-20T10:53:30.000Z</time>
      </trkpt>
      <trkpt lat="47.11989" lon="-1.53498">
        <ele>57</ele>
        <time>2021-04-20T10:53:32.000Z</time>
      </trkpt>
      <trkpt lat="47.11998" lon="-1.53482">
        <ele>57</ele>
        <time>2021-04-20T10:53:34.000Z</time>
      </trkpt>
      <trkpt lat="47.12006" lon="-1.53466">
        <ele>57</ele>
        <time>2021-04-20T10:53:36.000Z</time>
      </trkpt>
      <trkpt lat="47.12015" lon="-1.53451">
        <ele>57</ele>
        <time>2021-04-20T10:53:38.000Z</time>
      </trkpt>
      <trkpt lat="47.12023" lon="-1.53435">
        <ele>57</ele>
        <time>2021-04-20T10:53:40.000Z</time>
      </trkpt>
      <trkpt lat="47.12031" lon="-1.53419">
        <ele>57</ele>
        <time>2021-04-20T10:53:42.000Z</time>
      </trkpt>
      <trkpt lat="47.1204" lon="-1.53404">
        <ele>57</ele>
        <time>2021-04-20T10:53:44.000Z</time>
      </trkpt>
      <trkpt lat="47.12048" lon="-1.53388">
        <ele>57</ele>
        <time>2021-04-20T10:53:46.000Z</time>
      </trkpt>
      <trkpt lat="47.12057" lon="-1.53371">
        <ele>57</ele>
        <time>2021-04-20T10:53:48.000Z</time>
      </trkpt>
      <trkpt lat="47.12066" lon="-1.53355">
        <ele>57</ele>
        <time>2021-04-20T10:53:50.000Z</time>
      </trkpt>
      <trkpt lat="47.12074" lon="-1.53338">
        <ele>57</ele>
        <time>2021-04-20T10:53:52.000Z</time>
      </trkpt>
      <trkpt lat="47.12083" lon="-1.53322">
        <ele>57</ele>
        <time>2021-04-20T10:53:54.000Z</time>
      </trkpt>
      <trkpt lat="47.12091" lon="-1.53306">
        <ele>57</ele>
        <time>2021-04-20T10:53:56.000Z</time>
      </trkpt>
      <trkpt lat="47.121" lon="-1.53291">
        <ele>56</ele>
        <time>2021-04-20T10:53:58.000Z</time>
      </trkpt>
      <trkpt lat="47.12108" lon="-1.53275">
        <ele>57</ele>
        <time>2021-04-20T10:54:00.000Z</time>
      </trkpt>
      <trkpt lat="47.12117" lon="-1.53259">
        <ele>56</ele>
        <time>2021-04-20T10:54:02.000Z</time>
      </trkpt>
      <trkpt lat="47.12125" lon="-1.53242">
        <ele>56</ele>
        <time>2021-04-20T10:54:04.000Z</time>
      </trkpt>
      <trkpt lat="47.12134" lon="-1.53226">
        <ele>55</ele>
        <time>2021-04-20T10:54:06.000Z</time>
      </trkpt>
      <trkpt lat="47.12142" lon="-1.5321">
        <ele>55</ele>
        <time>2021-04-20T10:54:08.000Z</time>
      </trkpt>
      <trkpt lat="47.12151" lon="-1.53194">
        <ele>55</ele>
        <time>2021-04-20T10:54:10.000Z</time>
      </trkpt>
      <trkpt lat="47.12159" lon="-1.53178">
        <ele>56</ele>
        <time>2021-04-20T10:54:12.000Z</time>
      </trkpt>
      <trkpt lat="47.12167" lon="-1.53163">
        <ele>56</ele>
        <time>2021-04-20T10:54:14.000Z</time>
      </trkpt>
      <trkpt lat="47.12176" lon="-1.53147">
        <ele>56</ele>
        <time>2021-04-20T10:54:16.000Z</time>
      </trkpt>
      <trkpt lat="47.12184" lon="-1.53132">
        <ele>56</ele>
        <time>2021-04-20T10:54:18.000Z</time>
      </trkpt>
      <trkpt lat="47.12191" lon="-1.53116">
        <ele>57</ele>
        <time>2021-04-20T10:54:20.000Z</time>
      </trkpt>
      <trkpt lat="47.12199" lon="-1.53101">
        <ele>57</ele>
        <time>2021-04-20T10:54:22.000Z</time>
      </trkpt>
      <trkpt lat="47.12207" lon="-1.53085">
        <ele>56</ele>
        <time>2021-04-20T10:54:24.000Z</time>
      </trkpt>
      <trkpt lat="47.12215" lon="-1.53071">
        <ele>57</ele>
        <time>2021-04-20T10:54:26.000Z</time>
      </trkpt>
      <trkpt lat="47.12223" lon="-1.53057">
        <ele>57</ele>
        <time>2021-04-20T10:54:28.000Z</time>
      </trkpt>
      <trkpt lat="47.1223" lon="-1.53041">
        <ele>57</ele>
        <time>2021-04-20T10:54:30.000Z</time>
      </trkpt>
      <trkpt lat="47.12239" lon="-1.53026">
        <ele>57</ele>
        <time>2021-04-20T10:54:32.000Z</time>
      </trkpt>
      <trkpt lat="47.12247" lon="-1.53012">
        <ele>57</ele>
        <time>2021-04-20T10:54:34.000Z</time>
      </trkpt>
      <trkpt lat="47.12254" lon="-1.52998">
        <ele>57</ele>
        <time>2021-04-20T10:54:36.000Z</time>
      </trkpt>
      <trkpt lat="47.12262" lon="-1.52984">
        <ele>57</ele>
        <time>2021-04-20T10:54:38.000Z</time>
      </trkpt>
      <trkpt lat="47.12269" lon="-1.5297">
        <ele>57</ele>
        <time>2021-04-20T10:54:40.000Z</time>
      </trkpt>
      <trkpt lat="47.12277" lon="-1.52956">
        <ele>58</ele>
        <time>2021-04-20T10:54:42.000Z</time>
      </trkpt>
      <trkpt lat="47.12284" lon="-1.52943">
        <ele>58</ele>
        <time>2021-04-20T10:54:44.000Z</time>
      </trkpt>
      <trkpt lat="47.12291" lon="-1.5293">
        <ele>58</ele>
        <time>2021-04-20T10:54:46.000Z</time>
      </trkpt>
      <trkpt lat="47.12298" lon="-1.52917">
        <ele>59</ele>
        <time>2021-04-20T10:54:48.000Z</time>
      </trkpt>
      <trkpt lat="47.12305" lon="-1.52904">
        <ele>59</ele>
        <time>2021-04-20T10:54:50.000Z</time>
      </trkpt>
      <trkpt lat="47.12312" lon="-1.52891">
        <ele>60</ele>
        <time>2021-04-20T10:54:52.000Z</time>
      </trkpt>
      <trkpt lat="47.1232" lon="-1.52879">
        <ele>60</ele>
        <time>2021-04-20T10:54:54.000Z</time>
      </trkpt>
      <trkpt lat="47.12329" lon="-1.52867">
        <ele>61</ele>
        <time>2021-04-20T10:54:56.000Z</time>
      </trkpt>
      <trkpt lat="47.12337" lon="-1.52856">
        <ele>61</ele>
        <time>2021-04-20T10:54:58.000Z</time>
      </trkpt>
      <trkpt lat="47.12346" lon="-1.52844">
        <ele>61</ele>
        <time>2021-04-20T10:55:00.000Z</time>
      </trkpt>
      <trkpt lat="47.12354" lon="-1.52835">
        <ele>62</ele>
        <time>2021-04-20T10:55:02.000Z</time>
      </trkpt>
      <trkpt lat="47.12363" lon="-1.52826">
        <ele>61</ele>
        <time>2021-04-20T10:55:04.000Z</time>
      </trkpt>
      <trkpt lat="47.12372" lon="-1.52818">
        <ele>62</ele>
        <time>2021-04-20T10:55:06.000Z</time>
      </trkpt>
      <trkpt lat="47.1238" lon="-1.52808">
        <ele>62</ele>
        <time>2021-04-20T10:55:08.000Z</time>
      </trkpt>
      <trkpt lat="47.12389" lon="-1.528">
        <ele>63</ele>
        <time>2021-04-20T10:55:10.000Z</time>
      </trkpt>
      <trkpt lat="47.12397" lon="-1.52792">
        <ele>63</ele>
        <time>2021-04-20T10:55:12.000Z</time>
      </trkpt>
      <trkpt lat="47.12405" lon="-1.52783">
        <ele>63</ele>
        <time>2021-04-20T10:55:14.000Z</time>
      </trkpt>
      <trkpt lat="47.12414" lon="-1.52775">
        <ele>64</ele>
        <time>2021-04-20T10:55:16.000Z</time>
      </trkpt>
      <trkpt lat="47.12422" lon="-1.52766">
        <ele>65</ele>
        <time>2021-04-20T10:55:18.000Z</time>
      </trkpt>
      <trkpt lat="47.12431" lon="-1.52759">
        <ele>65</ele>
        <time>2021-04-20T10:55:20.000Z</time>
      </trkpt>
      <trkpt lat="47.1244" lon="-1.52751">
        <ele>65</ele>
        <time>2021-04-20T10:55:22.000Z</time>
      </trkpt>
      <trkpt lat="47.1245" lon="-1.52743">
        <ele>65</ele>
        <time>2021-04-20T10:55:24.000Z</time>
      </trkpt>
      <trkpt lat="47.12459" lon="-1.52738">
        <ele>66</ele>
        <time>2021-04-20T10:55:26.000Z</time>
      </trkpt>
      <trkpt lat="47.12468" lon="-1.52733">
        <ele>67</ele>
        <time>2021-04-20T10:55:28.000Z</time>
      </trkpt>
      <trkpt lat="47.12478" lon="-1.5273">
        <ele>67</ele>
        <time>2021-04-20T10:55:30.000Z</time>
      </trkpt>
      <trkpt lat="47.12488" lon="-1.52728">
        <ele>67</ele>
        <time>2021-04-20T10:55:32.000Z</time>
      </trkpt>
      <trkpt lat="47.12499" lon="-1.52726">
        <ele>68</ele>
        <time>2021-04-20T10:55:34.000Z</time>
      </trkpt>
      <trkpt lat="47.12509" lon="-1.52718">
        <ele>69</ele>
        <time>2021-04-20T10:55:37.000Z</time>
      </trkpt>
      <trkpt lat="47.12513" lon="-1.52705">
        <ele>70</ele>
        <time>2021-04-20T10:55:40.000Z</time>
      </trkpt>
      <trkpt lat="47.12521" lon="-1.52702">
        <ele>70</ele>
        <time>2021-04-20T10:55:42.000Z</time>
      </trkpt>
      <trkpt lat="47.12532" lon="-1.52707">
        <ele>69</ele>
        <time>2021-04-20T10:55:44.000Z</time>
      </trkpt>
      <trkpt lat="47.12543" lon="-1.52714">
        <ele>69</ele>
        <time>2021-04-20T10:55:46.000Z</time>
      </trkpt>
      <trkpt lat="47.12555" lon="-1.52721">
        <ele>69</ele>
        <time>2021-04-20T10:55:48.000Z</time>
      </trkpt>
      <trkpt lat="47.12567" lon="-1.52731">
        <ele>68</ele>
        <time>2021-04-20T10:55:50.000Z</time>
      </trkpt>
      <trkpt lat="47.12578" lon="-1.52743">
        <ele>68</ele>
        <time>2021-04-20T10:55:52.000Z</time>
      </trkpt>
      <trkpt lat="47.12589" lon="-1.52755">
        <ele>68</ele>
        <time>2021-04-20T10:55:54.000Z</time>
      </trkpt>
      <trkpt lat="47.12599" lon="-1.52767">
        <ele>68</ele>
        <time>2021-04-20T10:55:56.000Z</time>
      </trkpt>
      <trkpt lat="47.12608" lon="-1.5278">
        <ele>68</ele>
        <time>2021-04-20T10:55:58.000Z</time>
      </trkpt>
      <trkpt lat="47.12618" lon="-1.52791">
        <ele>68</ele>
        <time>2021-04-20T10:56:00.000Z</time>
      </trkpt>
      <trkpt lat="47.12628" lon="-1.52803">
        <ele>68</ele>
        <time>2021-04-20T10:56:02.000Z</time>
      </trkpt>
      <trkpt lat="47.12637" lon="-1.52816">
        <ele>68</ele>
        <time>2021-04-20T10:56:04.000Z</time>
      </trkpt>
      <trkpt lat="47.12647" lon="-1.52828">
        <ele>69</ele>
        <time>2021-04-20T10:56:06.000Z</time>
      </trkpt>
      <trkpt lat="47.12657" lon="-1.52841">
        <ele>69</ele>
        <time>2021-04-20T10:56:08.000Z</time>
      </trkpt>
      <trkpt lat="47.12666" lon="-1.52853">
        <ele>69</ele>
        <time>2021-04-20T10:56:10.000Z</time>
      </trkpt>
      <trkpt lat="47.12677" lon="-1.52866">
        <ele>69</ele>
        <time>2021-04-20T10:56:12.000Z</time>
      </trkpt>
      <trkpt lat="47.12687" lon="-1.52878">
        <ele>69</ele>
        <time>2021-04-20T10:56:14.000Z</time>
      </trkpt>
      <trkpt lat="47.12698" lon="-1.52891">
        <ele>69</ele>
        <time>2021-04-20T10:56:16.000Z</time>
      </trkpt>
      <trkpt lat="47.12708" lon="-1.52904">
        <ele>69</ele>
        <time>2021-04-20T10:56:18.000Z</time>
      </trkpt>
      <trkpt lat="47.12718" lon="-1.52917">
        <ele>69</ele>
        <time>2021-04-20T10:56:20.000Z</time>
      </trkpt>
      <trkpt lat="47.12729" lon="-1.52929">
        <ele>68</ele>
        <time>2021-04-20T10:56:22.000Z</time>
      </trkpt>
      <trkpt lat="47.12739" lon="-1.52942">
        <ele>68</ele>
        <time>2021-04-20T10:56:24.000Z</time>
      </trkpt>
      <trkpt lat="47.12749" lon="-1.52955">
        <ele>68</ele>
        <time>2021-04-20T10:56:26.000Z</time>
      </trkpt>
      <trkpt lat="47.1276" lon="-1.52967">
        <ele>68</ele>
        <time>2021-04-20T10:56:28.000Z</time>
      </trkpt>
      <trkpt lat="47.12771" lon="-1.52981">
        <ele>68</ele>
        <time>2021-04-20T10:56:30.000Z</time>
      </trkpt>
      <trkpt lat="47.12781" lon="-1.52994">
        <ele>68</ele>
        <time>2021-04-20T10:56:32.000Z</time>
      </trkpt>
      <trkpt lat="47.12791" lon="-1.53007">
        <ele>69</ele>
        <time>2021-04-20T10:56:34.000Z</time>
      </trkpt>
      <trkpt lat="47.12802" lon="-1.53021">
        <ele>69</ele>
        <time>2021-04-20T10:56:36.000Z</time>
      </trkpt>
      <trkpt lat="47.12812" lon="-1.53033">
        <ele>68</ele>
        <time>2021-04-20T10:56:38.000Z</time>
      </trkpt>
      <trkpt lat="47.12822" lon="-1.53046">
        <ele>69</ele>
        <time>2021-04-20T10:56:40.000Z</time>
      </trkpt>
      <trkpt lat="47.12833" lon="-1.53059">
        <ele>69</ele>
        <time>2021-04-20T10:56:42.000Z</time>
      </trkpt>
      <trkpt lat="47.12843" lon="-1.53072">
        <ele>69</ele>
        <time>2021-04-20T10:56:44.000Z</time>
      </trkpt>
      <trkpt lat="47.12853" lon="-1.53085">
        <ele>69</ele>
        <time>2021-04-20T10:56:46.000Z</time>
      </trkpt>
      <trkpt lat="47.12863" lon="-1.53097">
        <ele>69</ele>
        <time>2021-04-20T10:56:48.000Z</time>
      </trkpt>
      <trkpt lat="47.12873" lon="-1.5311">
        <ele>69</ele>
        <time>2021-04-20T10:56:50.000Z</time>
      </trkpt>
      <trkpt lat="47.12883" lon="-1.53123">
        <ele>70</ele>
        <time>2021-04-20T10:56:52.000Z</time>
      </trkpt>
      <trkpt lat="47.12893" lon="-1.53135">
        <ele>70</ele>
        <time>2021-04-20T10:56:54.000Z</time>
      </trkpt>
      <trkpt lat="47.12904" lon="-1.53148">
        <ele>71</ele>
        <time>2021-04-20T10:56:56.000Z</time>
      </trkpt>
      <trkpt lat="47.12914" lon="-1.5316">
        <ele>71</ele>
        <time>2021-04-20T10:56:58.000Z</time>
      </trkpt>
      <trkpt lat="47.12924" lon="-1.53173">
        <ele>71</ele>
        <time>2021-04-20T10:57:00.000Z</time>
      </trkpt>
      <trkpt lat="47.12935" lon="-1.53186">
        <ele>71</ele>
        <time>2021-04-20T10:57:02.000Z</time>
      </trkpt>
      <trkpt lat="47.12945" lon="-1.53199">
        <ele>71</ele>
        <time>2021-04-20T10:57:04.000Z</time>
      </trkpt>
      <trkpt lat="47.12956" lon="-1.53211">
        <ele>71</ele>
        <time>2021-04-20T10:57:06.000Z</time>
      </trkpt>
      <trkpt lat="47.12967" lon="-1.53222">
        <ele>71</ele>
        <time>2021-04-20T10:57:08.000Z</time>
      </trkpt>
      <trkpt lat="47.12979" lon="-1.53233">
        <ele>71</ele>
        <time>2021-04-20T10:57:10.000Z</time>
      </trkpt>
      <trkpt lat="47.1299" lon="-1.53242">
        <ele>71</ele>
        <time>2021-04-20T10:57:12.000Z</time>
      </trkpt>
      <trkpt lat="47.13003" lon="-1.5325">
        <ele>71</ele>
        <time>2021-04-20T10:57:14.000Z</time>
      </trkpt>
      <trkpt lat="47.13015" lon="-1.53256">
        <ele>72</ele>
        <time>2021-04-20T10:57:16.000Z</time>
      </trkpt>
      <trkpt lat="47.13028" lon="-1.53258">
        <ele>72</ele>
        <time>2021-04-20T10:57:18.000Z</time>
      </trkpt>
      <trkpt lat="47.13041" lon="-1.53258">
        <ele>72</ele>
        <time>2021-04-20T10:57:20.000Z</time>
      </trkpt>
      <trkpt lat="47.13054" lon="-1.53255">
        <ele>73</ele>
        <time>2021-04-20T10:57:22.000Z</time>
      </trkpt>
      <trkpt lat="47.13067" lon="-1.53251">
        <ele>73</ele>
        <time>2021-04-20T10:57:24.000Z</time>
      </trkpt>
      <trkpt lat="47.1308" lon="-1.53247">
        <ele>73</ele>
        <time>2021-04-20T10:57:26.000Z</time>
      </trkpt>
      <trkpt lat="47.13093" lon="-1.53241">
        <ele>73</ele>
        <time>2021-04-20T10:57:28.000Z</time>
      </trkpt>
      <trkpt lat="47.13105" lon="-1.53236">
        <ele>74</ele>
        <time>2021-04-20T10:57:30.000Z</time>
      </trkpt>
      <trkpt lat="47.13118" lon="-1.53232">
        <ele>73</ele>
        <time>2021-04-20T10:57:32.000Z</time>
      </trkpt>
      <trkpt lat="47.1313" lon="-1.53227">
        <ele>74</ele>
        <time>2021-04-20T10:57:34.000Z</time>
      </trkpt>
      <trkpt lat="47.13143" lon="-1.53222">
        <ele>73</ele>
        <time>2021-04-20T10:57:36.000Z</time>
      </trkpt>
      <trkpt lat="47.13156" lon="-1.53217">
        <ele>73</ele>
        <time>2021-04-20T10:57:38.000Z</time>
      </trkpt>
      <trkpt lat="47.13169" lon="-1.53212">
        <ele>74</ele>
        <time>2021-04-20T10:57:40.000Z</time>
      </trkpt>
      <trkpt lat="47.13181" lon="-1.53208">
        <ele>74</ele>
        <time>2021-04-20T10:57:42.000Z</time>
      </trkpt>
      <trkpt lat="47.13193" lon="-1.53203">
        <ele>74</ele>
        <time>2021-04-20T10:57:44.000Z</time>
      </trkpt>
      <trkpt lat="47.13206" lon="-1.53198">
        <ele>74</ele>
        <time>2021-04-20T10:57:46.000Z</time>
      </trkpt>
      <trkpt lat="47.13218" lon="-1.53193">
        <ele>74</ele>
        <time>2021-04-20T10:57:48.000Z</time>
      </trkpt>
      <trkpt lat="47.1323" lon="-1.53188">
        <ele>74</ele>
        <time>2021-04-20T10:57:50.000Z</time>
      </trkpt>
      <trkpt lat="47.13242" lon="-1.53183">
        <ele>74</ele>
        <time>2021-04-20T10:57:52.000Z</time>
      </trkpt>
      <trkpt lat="47.13254" lon="-1.53178">
        <ele>74</ele>
        <time>2021-04-20T10:57:54.000Z</time>
      </trkpt>
      <trkpt lat="47.13265" lon="-1.53173">
        <ele>74</ele>
        <time>2021-04-20T10:57:56.000Z</time>
      </trkpt>
      <trkpt lat="47.13277" lon="-1.53169">
        <ele>75</ele>
        <time>2021-04-20T10:57:58.000Z</time>
      </trkpt>
      <trkpt lat="47.13289" lon="-1.53163">
        <ele>75</ele>
        <time>2021-04-20T10:58:00.000Z</time>
      </trkpt>
      <trkpt lat="47.13301" lon="-1.53156">
        <ele>76</ele>
        <time>2021-04-20T10:58:02.000Z</time>
      </trkpt>
      <trkpt lat="47.13312" lon="-1.53152">
        <ele>76</ele>
        <time>2021-04-20T10:58:04.000Z</time>
      </trkpt>
      <trkpt lat="47.13324" lon="-1.53149">
        <ele>76</ele>
        <time>2021-04-20T10:58:06.000Z</time>
      </trkpt>
      <trkpt lat="47.13336" lon="-1.53146">
        <ele>77</ele>
        <time>2021-04-20T10:58:08.000Z</time>
      </trkpt>
      <trkpt lat="47.13348" lon="-1.53143">
        <ele>77</ele>
        <time>2021-04-20T10:58:10.000Z</time>
      </trkpt>
      <trkpt lat="47.13359" lon="-1.53141">
        <ele>77</ele>
        <time>2021-04-20T10:58:12.000Z</time>
      </trkpt>
      <trkpt lat="47.13372" lon="-1.53139">
        <ele>77</ele>
        <time>2021-04-20T10:58:14.000Z</time>
      </trkpt>
      <trkpt lat="47.13384" lon="-1.53138">
        <ele>77</ele>
        <time>2021-04-20T10:58:16.000Z</time>
      </trkpt>
      <trkpt lat="47.13396" lon="-1.53139">
        <ele>77</ele>
        <time>2021-04-20T10:58:18.000Z</time>
      </trkpt>
      <trkpt lat="47.13407" lon="-1.53139">
        <ele>77</ele>
        <time>2021-04-20T10:58:20.000Z</time>
      </trkpt>
      <trkpt lat="47.13417" lon="-1.53137">
        <ele>77</ele>
        <time>2021-04-20T10:58:22.000Z</time>
      </trkpt>
      <trkpt lat="47.13426" lon="-1.53134">
        <ele>76</ele>
        <time>2021-04-20T10:58:24.000Z</time>
      </trkpt>
      <trkpt lat="47.13435" lon="-1.53126">
        <ele>77</ele>
        <time>2021-04-20T10:58:26.000Z</time>
      </trkpt>
      <trkpt lat="47.13441" lon="-1.5311">
        <ele>77</ele>
        <time>2021-04-20T10:58:28.000Z</time>
      </trkpt>
      <trkpt lat="47.13447" lon="-1.53095">
        <ele>77</ele>
        <time>2021-04-20T10:58:30.000Z</time>
      </trkpt>
      <trkpt lat="47.13454" lon="-1.53079">
        <ele>78</ele>
        <time>2021-04-20T10:58:32.000Z</time>
      </trkpt>
      <trkpt lat="47.13461" lon="-1.53064">
        <ele>78</ele>
        <time>2021-04-20T10:58:34.000Z</time>
      </trkpt>
      <trkpt lat="47.13468" lon="-1.53048">
        <ele>79</ele>
        <time>2021-04-20T10:58:36.000Z</time>
      </trkpt>
      <trkpt lat="47.13475" lon="-1.53033">
        <ele>79</ele>
        <time>2021-04-20T10:58:38.000Z</time>
      </trkpt>
      <trkpt lat="47.13482" lon="-1.53018">
        <ele>79</ele>
        <time>2021-04-20T10:58:40.000Z</time>
      </trkpt>
      <trkpt lat="47.13489" lon="-1.53004">
        <ele>79</ele>
        <time>2021-04-20T10:58:42.000Z</time>
      </trkpt>
      <trkpt lat="47.13496" lon="-1.52989">
        <ele>79</ele>
        <time>2021-04-20T10:58:44.000Z</time>
      </trkpt>
      <trkpt lat="47.13502" lon="-1.52976">
        <ele>79</ele>
        <time>2021-04-20T10:58:46.000Z</time>
      </trkpt>
      <trkpt lat="47.13509" lon="-1.5296">
        <ele>79</ele>
        <time>2021-04-20T10:58:48.000Z</time>
      </trkpt>
      <trkpt lat="47.13516" lon="-1.52945">
        <ele>79</ele>
        <time>2021-04-20T10:58:50.000Z</time>
      </trkpt>
      <trkpt lat="47.13523" lon="-1.5293">
        <ele>79</ele>
        <time>2021-04-20T10:58:52.000Z</time>
      </trkpt>
      <trkpt lat="47.13529" lon="-1.52915">
        <ele>79</ele>
        <time>2021-04-20T10:58:54.000Z</time>
      </trkpt>
      <trkpt lat="47.13536" lon="-1.529">
        <ele>79</ele>
        <time>2021-04-20T10:58:56.000Z</time>
      </trkpt>
      <trkpt lat="47.13543" lon="-1.52886">
        <ele>79</ele>
        <time>2021-04-20T10:58:58.000Z</time>
      </trkpt>
      <trkpt lat="47.13549" lon="-1.52871">
        <ele>79</ele>
        <time>2021-04-20T10:59:00.000Z</time>
      </trkpt>
      <trkpt lat="47.13556" lon="-1.52857">
        <ele>79</ele>
        <time>2021-04-20T10:59:02.000Z</time>
      </trkpt>
      <trkpt lat="47.13562" lon="-1.52842">
        <ele>79</ele>
        <time>2021-04-20T10:59:04.000Z</time>
      </trkpt>
      <trkpt lat="47.1357" lon="-1.52827">
        <ele>79</ele>
        <time>2021-04-20T10:59:06.000Z</time>
      </trkpt>
      <trkpt lat="47.13576" lon="-1.52812">
        <ele>79</ele>
        <time>2021-04-20T10:59:08.000Z</time>
      </trkpt>
      <trkpt lat="47.13583" lon="-1.52797">
        <ele>79</ele>
        <time>2021-04-20T10:59:10.000Z</time>
      </trkpt>
      <trkpt lat="47.13589" lon="-1.52783">
        <ele>80</ele>
        <time>2021-04-20T10:59:12.000Z</time>
      </trkpt>
      <trkpt lat="47.13597" lon="-1.52768">
        <ele>79</ele>
        <time>2021-04-20T10:59:14.000Z</time>
      </trkpt>
      <trkpt lat="47.13604" lon="-1.52754">
        <ele>79</ele>
        <time>2021-04-20T10:59:16.000Z</time>
      </trkpt>
      <trkpt lat="47.13612" lon="-1.52741">
        <ele>79</ele>
        <time>2021-04-20T10:59:18.000Z</time>
      </trkpt>
      <trkpt lat="47.1362" lon="-1.52728">
        <ele>79</ele>
        <time>2021-04-20T10:59:20.000Z</time>
      </trkpt>
      <trkpt lat="47.13627" lon="-1.52714">
        <ele>80</ele>
        <time>2021-04-20T10:59:22.000Z</time>
      </trkpt>
      <trkpt lat="47.13636" lon="-1.52701">
        <ele>80</ele>
        <time>2021-04-20T10:59:24.000Z</time>
      </trkpt>
      <trkpt lat="47.13644" lon="-1.52688">
        <ele>80</ele>
        <time>2021-04-20T10:59:26.000Z</time>
      </trkpt>
      <trkpt lat="47.13652" lon="-1.52674">
        <ele>80</ele>
        <time>2021-04-20T10:59:28.000Z</time>
      </trkpt>
      <trkpt lat="47.1366" lon="-1.52662">
        <ele>80</ele>
        <time>2021-04-20T10:59:30.000Z</time>
      </trkpt>
      <trkpt lat="47.13668" lon="-1.52648">
        <ele>80</ele>
        <time>2021-04-20T10:59:32.000Z</time>
      </trkpt>
      <trkpt lat="47.13676" lon="-1.52634">
        <ele>80</ele>
        <time>2021-04-20T10:59:34.000Z</time>
      </trkpt>
      <trkpt lat="47.13684" lon="-1.52622">
        <ele>80</ele>
        <time>2021-04-20T10:59:36.000Z</time>
      </trkpt>
      <trkpt lat="47.13692" lon="-1.52609">
        <ele>80</ele>
        <time>2021-04-20T10:59:38.000Z</time>
      </trkpt>
      <trkpt lat="47.137" lon="-1.52596">
        <ele>80</ele>
        <time>2021-04-20T10:59:40.000Z</time>
      </trkpt>
      <trkpt lat="47.13707" lon="-1.52583">
        <ele>80</ele>
        <time>2021-04-20T10:59:42.000Z</time>
      </trkpt>
      <trkpt lat="47.13716" lon="-1.5257">
        <ele>81</ele>
        <time>2021-04-20T10:59:44.000Z</time>
      </trkpt>
      <trkpt lat="47.13724" lon="-1.52557">
        <ele>81</ele>
        <time>2021-04-20T10:59:46.000Z</time>
      </trkpt>
      <trkpt lat="47.13733" lon="-1.52543">
        <ele>81</ele>
        <time>2021-04-20T10:59:48.000Z</time>
      </trkpt>
      <trkpt lat="47.13741" lon="-1.5253">
        <ele>82</ele>
        <time>2021-04-20T10:59:50.000Z</time>
      </trkpt>
      <trkpt lat="47.13749" lon="-1.52516">
        <ele>81</ele>
        <time>2021-04-20T10:59:52.000Z</time>
      </trkpt>
      <trkpt lat="47.13758" lon="-1.52503">
        <ele>82</ele>
        <time>2021-04-20T10:59:54.000Z</time>
      </trkpt>
      <trkpt lat="47.13766" lon="-1.5249">
        <ele>81</ele>
        <time>2021-04-20T10:59:56.000Z</time>
      </trkpt>
      <trkpt lat="47.13775" lon="-1.52477">
        <ele>81</ele>
        <time>2021-04-20T10:59:58.000Z</time>
      </trkpt>
      <trkpt lat="47.13783" lon="-1.52464">
        <ele>81</ele>
        <time>2021-04-20T11:00:00.000Z</time>
      </trkpt>
      <trkpt lat="47.13792" lon="-1.52451">
        <ele>81</ele>
        <time>2021-04-20T11:00:02.000Z</time>
      </trkpt>
      <trkpt lat="47.13801" lon="-1.52439">
        <ele>80</ele>
        <time>2021-04-20T11:00:04.000Z</time>
      </trkpt>
      <trkpt lat="47.13809" lon="-1.52425">
        <ele>81</ele>
        <time>2021-04-20T11:00:06.000Z</time>
      </trkpt>
      <trkpt lat="47.13818" lon="-1.52411">
        <ele>81</ele>
        <time>2021-04-20T11:00:08.000Z</time>
      </trkpt>
      <trkpt lat="47.13826" lon="-1.52398">
        <ele>81</ele>
        <time>2021-04-20T11:00:10.000Z</time>
      </trkpt>
      <trkpt lat="47.13835" lon="-1.52385">
        <ele>81</ele>
        <time>2021-04-20T11:00:12.000Z</time>
      </trkpt>
      <trkpt lat="47.13844" lon="-1.52372">
        <ele>81</ele>
        <time>2021-04-20T11:00:14.000Z</time>
      </trkpt>
      <trkpt lat="47.13852" lon="-1.52359">
        <ele>81</ele>
        <time>2021-04-20T11:00:16.000Z</time>
      </trkpt>
      <trkpt lat="47.1386" lon="-1.52344">
        <ele>80</ele>
        <time>2021-04-20T11:00:18.000Z</time>
      </trkpt>
      <trkpt lat="47.13865" lon="-1.52328">
        <ele>80</ele>
        <time>2021-04-20T11:00:20.000Z</time>
      </trkpt>
      <trkpt lat="47.13872" lon="-1.52314">
        <ele>79</ele>
        <time>2021-04-20T11:00:22.000Z</time>
      </trkpt>
      <trkpt lat="47.13882" lon="-1.52304">
        <ele>79</ele>
        <time>2021-04-20T11:00:24.000Z</time>
      </trkpt>
      <trkpt lat="47.13893" lon="-1.52296">
        <ele>79</ele>
        <time>2021-04-20T11:00:26.000Z</time>
      </trkpt>
      <trkpt lat="47.13903" lon="-1.52285">
        <ele>79</ele>
        <time>2021-04-20T11:00:28.000Z</time>
      </trkpt>
      <trkpt lat="47.13912" lon="-1.52271">
        <ele>79</ele>
        <time>2021-04-20T11:00:30.000Z</time>
      </trkpt>
      <trkpt lat="47.1392" lon="-1.52257">
        <ele>80</ele>
        <time>2021-04-20T11:00:32.000Z</time>
      </trkpt>
      <trkpt lat="47.13929" lon="-1.52244">
        <ele>80</ele>
        <time>2021-04-20T11:00:34.000Z</time>
      </trkpt>
      <trkpt lat="47.13938" lon="-1.5223">
        <ele>80</ele>
        <time>2021-04-20T11:00:36.000Z</time>
      </trkpt>
      <trkpt lat="47.13947" lon="-1.52218">
        <ele>80</ele>
        <time>2021-04-20T11:00:38.000Z</time>
      </trkpt>
      <trkpt lat="47.13956" lon="-1.52206">
        <ele>80</ele>
        <time>2021-04-20T11:00:40.000Z</time>
      </trkpt>
      <trkpt lat="47.13965" lon="-1.52194">
        <ele>80</ele>
        <time>2021-04-20T11:00:42.000Z</time>
      </trkpt>
      <trkpt lat="47.13974" lon="-1.52182">
        <ele>80</ele>
        <time>2021-04-20T11:00:44.000Z</time>
      </trkpt>
      <trkpt lat="47.13983" lon="-1.5217">
        <ele>80</ele>
        <time>2021-04-20T11:00:46.000Z</time>
      </trkpt>
      <trkpt lat="47.13992" lon="-1.5216">
        <ele>80</ele>
        <time>2021-04-20T11:00:48.000Z</time>
      </trkpt>
      <trkpt lat="47.14002" lon="-1.52151">
        <ele>80</ele>
        <time>2021-04-20T11:00:50.000Z</time>
      </trkpt>
      <trkpt lat="47.14012" lon="-1.52143">
        <ele>80</ele>
        <time>2021-04-20T11:00:52.000Z</time>
      </trkpt>
      <trkpt lat="47.14019" lon="-1.52133">
        <ele>80</ele>
        <time>2021-04-20T11:00:54.000Z</time>
      </trkpt>
      <trkpt lat="47.14024" lon="-1.52121">
        <ele>81</ele>
        <time>2021-04-20T11:00:56.000Z</time>
      </trkpt>
      <trkpt lat="47.1403" lon="-1.52111">
        <ele>81</ele>
        <time>2021-04-20T11:01:00.000Z</time>
      </trkpt>
      <trkpt lat="47.14038" lon="-1.521">
        <ele>81</ele>
        <time>2021-04-20T11:01:09.000Z</time>
      </trkpt>
      <trkpt lat="47.14049" lon="-1.52093">
        <ele>81</ele>
        <time>2021-04-20T11:01:11.000Z</time>
      </trkpt>
      <trkpt lat="47.1406" lon="-1.52083">
        <ele>80</ele>
        <time>2021-04-20T11:01:13.000Z</time>
      </trkpt>
      <trkpt lat="47.14071" lon="-1.5207">
        <ele>81</ele>
        <time>2021-04-20T11:01:15.000Z</time>
      </trkpt>
      <trkpt lat="47.14083" lon="-1.52058">
        <ele>81</ele>
        <time>2021-04-20T11:01:17.000Z</time>
      </trkpt>
      <trkpt lat="47.14095" lon="-1.52046">
        <ele>81</ele>
        <time>2021-04-20T11:01:19.000Z</time>
      </trkpt>
      <trkpt lat="47.14107" lon="-1.52035">
        <ele>81</ele>
        <time>2021-04-20T11:01:21.000Z</time>
      </trkpt>
      <trkpt lat="47.14119" lon="-1.52025">
        <ele>80</ele>
        <time>2021-04-20T11:01:23.000Z</time>
      </trkpt>
      <trkpt lat="47.14135" lon="-1.52008">
        <ele>80</ele>
        <time>2021-04-20T11:01:26.000Z</time>
      </trkpt>
      <trkpt lat="47.14147" lon="-1.51997">
        <ele>80</ele>
        <time>2021-04-20T11:01:28.000Z</time>
      </trkpt>
      <trkpt lat="47.14158" lon="-1.51986">
        <ele>80</ele>
        <time>2021-04-20T11:01:30.000Z</time>
      </trkpt>
      <trkpt lat="47.14169" lon="-1.51975">
        <ele>80</ele>
        <time>2021-04-20T11:01:32.000Z</time>
      </trkpt>
      <trkpt lat="47.14181" lon="-1.51965">
        <ele>80</ele>
        <time>2021-04-20T11:01:34.000Z</time>
      </trkpt>
      <trkpt lat="47.14193" lon="-1.51954">
        <ele>80</ele>
        <time>2021-04-20T11:01:36.000Z</time>
      </trkpt>
      <trkpt lat="47.14205" lon="-1.51943">
        <ele>80</ele>
        <time>2021-04-20T11:01:38.000Z</time>
      </trkpt>
      <trkpt lat="47.14216" lon="-1.51931">
        <ele>79</ele>
        <time>2021-04-20T11:01:40.000Z</time>
      </trkpt>
      <trkpt lat="47.14227" lon="-1.5192">
        <ele>79</ele>
        <time>2021-04-20T11:01:42.000Z</time>
      </trkpt>
      <trkpt lat="47.14244" lon="-1.51904">
        <ele>79</ele>
        <time>2021-04-20T11:01:45.000Z</time>
      </trkpt>
      <trkpt lat="47.14256" lon="-1.51893">
        <ele>80</ele>
        <time>2021-04-20T11:01:47.000Z</time>
      </trkpt>
      <trkpt lat="47.14267" lon="-1.51881">
        <ele>80</ele>
        <time>2021-04-20T11:01:49.000Z</time>
      </trkpt>
      <trkpt lat="47.14278" lon="-1.51869">
        <ele>80</ele>
        <time>2021-04-20T11:01:51.000Z</time>
      </trkpt>
      <trkpt lat="47.14289" lon="-1.51858">
        <ele>79</ele>
        <time>2021-04-20T11:01:53.000Z</time>
      </trkpt>
      <trkpt lat="47.143" lon="-1.51846">
        <ele>79</ele>
        <time>2021-04-20T11:01:55.000Z</time>
      </trkpt>
      <trkpt lat="47.14311" lon="-1.51835">
        <ele>79</ele>
        <time>2021-04-20T11:01:57.000Z</time>
      </trkpt>
      <trkpt lat="47.14322" lon="-1.51823">
        <ele>79</ele>
        <time>2021-04-20T11:01:59.000Z</time>
      </trkpt>
      <trkpt lat="47.14333" lon="-1.51811">
        <ele>80</ele>
        <time>2021-04-20T11:02:01.000Z</time>
      </trkpt>
      <trkpt lat="47.14344" lon="-1.518">
        <ele>79</ele>
        <time>2021-04-20T11:02:03.000Z</time>
      </trkpt>
      <trkpt lat="47.14355" lon="-1.51789">
        <ele>79</ele>
        <time>2021-04-20T11:02:05.000Z</time>
      </trkpt>
      <trkpt lat="47.14367" lon="-1.51777">
        <ele>79</ele>
        <time>2021-04-20T11:02:07.000Z</time>
      </trkpt>
      <trkpt lat="47.14378" lon="-1.51766">
        <ele>79</ele>
        <time>2021-04-20T11:02:09.000Z</time>
      </trkpt>
      <trkpt lat="47.14389" lon="-1.51755">
        <ele>79</ele>
        <time>2021-04-20T11:02:11.000Z</time>
      </trkpt>
      <trkpt lat="47.14401" lon="-1.51743">
        <ele>79</ele>
        <time>2021-04-20T11:02:13.000Z</time>
      </trkpt>
      <trkpt lat="47.14412" lon="-1.51732">
        <ele>80</ele>
        <time>2021-04-20T11:02:15.000Z</time>
      </trkpt>
      <trkpt lat="47.14424" lon="-1.51719">
        <ele>80</ele>
        <time>2021-04-20T11:02:17.000Z</time>
      </trkpt>
      <trkpt lat="47.1444" lon="-1.51702">
        <ele>79</ele>
        <time>2021-04-20T11:02:20.000Z</time>
      </trkpt>
      <trkpt lat="47.14456" lon="-1.51685">
        <ele>79</ele>
        <time>2021-04-20T11:02:23.000Z</time>
      </trkpt>
      <trkpt lat="47.14474" lon="-1.51667">
        <ele>80</ele>
        <time>2021-04-20T11:02:26.000Z</time>
      </trkpt>
      <trkpt lat="47.14486" lon="-1.51655">
        <ele>79</ele>
        <time>2021-04-20T11:02:28.000Z</time>
      </trkpt>
      <trkpt lat="47.14497" lon="-1.51644">
        <ele>79</ele>
        <time>2021-04-20T11:02:30.000Z</time>
      </trkpt>
      <trkpt lat="47.14509" lon="-1.51631">
        <ele>79</ele>
        <time>2021-04-20T11:02:32.000Z</time>
      </trkpt>
      <trkpt lat="47.14525" lon="-1.51612">
        <ele>78</ele>
        <time>2021-04-20T11:02:35.000Z</time>
      </trkpt>
      <trkpt lat="47.14536" lon="-1.51598">
        <ele>78</ele>
        <time>2021-04-20T11:02:37.000Z</time>
      </trkpt>
      <trkpt lat="47.14547" lon="-1.51584">
        <ele>78</ele>
        <time>2021-04-20T11:02:39.000Z</time>
      </trkpt>
      <trkpt lat="47.14558" lon="-1.51572">
        <ele>78</ele>
        <time>2021-04-20T11:02:41.000Z</time>
      </trkpt>
      <trkpt lat="47.14568" lon="-1.51557">
        <ele>78</ele>
        <time>2021-04-20T11:02:43.000Z</time>
      </trkpt>
      <trkpt lat="47.1458" lon="-1.51534">
        <ele>78</ele>
        <time>2021-04-20T11:02:46.000Z</time>
      </trkpt>
      <trkpt lat="47.14588" lon="-1.51519">
        <ele>78</ele>
        <time>2021-04-20T11:02:48.000Z</time>
      </trkpt>
      <trkpt lat="47.14595" lon="-1.51504">
        <ele>78</ele>
        <time>2021-04-20T11:02:50.000Z</time>
      </trkpt>
      <trkpt lat="47.14603" lon="-1.51488">
        <ele>79</ele>
        <time>2021-04-20T11:02:52.000Z</time>
      </trkpt>
      <trkpt lat="47.1461" lon="-1.51474">
        <ele>79</ele>
        <time>2021-04-20T11:02:54.000Z</time>
      </trkpt>
      <trkpt lat="47.14617" lon="-1.51459">
        <ele>79</ele>
        <time>2021-04-20T11:02:56.000Z</time>
      </trkpt>
      <trkpt lat="47.14624" lon="-1.51445">
        <ele>79</ele>
        <time>2021-04-20T11:02:58.000Z</time>
      </trkpt>
      <trkpt lat="47.14635" lon="-1.51424">
        <ele>78</ele>
        <time>2021-04-20T11:03:01.000Z</time>
      </trkpt>
      <trkpt lat="47.14643" lon="-1.51409">
        <ele>78</ele>
        <time>2021-04-20T11:03:03.000Z</time>
      </trkpt>
      <trkpt lat="47.14651" lon="-1.51393">
        <ele>77</ele>
        <time>2021-04-20T11:03:05.000Z</time>
      </trkpt>
      <trkpt lat="47.1466" lon="-1.51376">
        <ele>77</ele>
        <time>2021-04-20T11:03:07.000Z</time>
      </trkpt>
      <trkpt lat="47.14674" lon="-1.51349">
        <ele>76</ele>
        <time>2021-04-20T11:03:10.000Z</time>
      </trkpt>
      <trkpt lat="47.14683" lon="-1.51332">
        <ele>76</ele>
        <time>2021-04-20T11:03:12.000Z</time>
      </trkpt>
      <trkpt lat="47.14687" lon="-1.51308">
        <ele>76</ele>
        <time>2021-04-20T11:03:15.000Z</time>
      </trkpt>
      <trkpt lat="47.14673" lon="-1.51299">
        <ele>75</ele>
        <time>2021-04-20T11:03:17.000Z</time>
      </trkpt>
      <trkpt lat="47.14659" lon="-1.51302">
        <ele>76</ele>
        <time>2021-04-20T11:03:19.000Z</time>
      </trkpt>
      <trkpt lat="47.14645" lon="-1.51305">
        <ele>76</ele>
        <time>2021-04-20T11:03:21.000Z</time>
      </trkpt>
      <trkpt lat="47.14631" lon="-1.51308">
        <ele>76</ele>
        <time>2021-04-20T11:03:23.000Z</time>
      </trkpt>
      <trkpt lat="47.14617" lon="-1.51311">
        <ele>76</ele>
        <time>2021-04-20T11:03:25.000Z</time>
      </trkpt>
      <trkpt lat="47.14603" lon="-1.51313">
        <ele>76</ele>
        <time>2021-04-20T11:03:27.000Z</time>
      </trkpt>
      <trkpt lat="47.14589" lon="-1.51315">
        <ele>77</ele>
        <time>2021-04-20T11:03:29.000Z</time>
      </trkpt>
      <trkpt lat="47.14568" lon="-1.51315">
        <ele>77</ele>
        <time>2021-04-20T11:03:32.000Z</time>
      </trkpt>
      <trkpt lat="47.14554" lon="-1.51315">
        <ele>77</ele>
        <time>2021-04-20T11:03:34.000Z</time>
      </trkpt>
      <trkpt lat="47.1454" lon="-1.51314">
        <ele>77</ele>
        <time>2021-04-20T11:03:36.000Z</time>
      </trkpt>
      <trkpt lat="47.14526" lon="-1.51313">
        <ele>77</ele>
        <time>2021-04-20T11:03:38.000Z</time>
      </trkpt>
      <trkpt lat="47.14512" lon="-1.51312">
        <ele>77</ele>
        <time>2021-04-20T11:03:40.000Z</time>
      </trkpt>
      <trkpt lat="47.14499" lon="-1.51311">
        <ele>78</ele>
        <time>2021-04-20T11:03:42.000Z</time>
      </trkpt>
      <trkpt lat="47.14485" lon="-1.5131">
        <ele>78</ele>
        <time>2021-04-20T11:03:44.000Z</time>
      </trkpt>
      <trkpt lat="47.14473" lon="-1.51307">
        <ele>78</ele>
        <time>2021-04-20T11:03:46.000Z</time>
      </trkpt>
      <trkpt lat="47.14461" lon="-1.51302">
        <ele>77</ele>
        <time>2021-04-20T11:03:48.000Z</time>
      </trkpt>
      <trkpt lat="47.14448" lon="-1.51298">
        <ele>78</ele>
        <time>2021-04-20T11:03:50.000Z</time>
      </trkpt>
      <trkpt lat="47.14436" lon="-1.5129">
        <ele>78</ele>
        <time>2021-04-20T11:03:52.000Z</time>
      </trkpt>
      <trkpt lat="47.14425" lon="-1.5128">
        <ele>78</ele>
        <time>2021-04-20T11:03:54.000Z</time>
      </trkpt>
      <trkpt lat="47.14416" lon="-1.51267">
        <ele>77</ele>
        <time>2021-04-20T11:03:56.000Z</time>
      </trkpt>
      <trkpt lat="47.14409" lon="-1.5125">
        <ele>77</ele>
        <time>2021-04-20T11:03:58.000Z</time>
      </trkpt>
      <trkpt lat="47.14402" lon="-1.51231">
        <ele>77</ele>
        <time>2021-04-20T11:04:00.000Z</time>
      </trkpt>
      <trkpt lat="47.14394" lon="-1.51214">
        <ele>78</ele>
        <time>2021-04-20T11:04:02.000Z</time>
      </trkpt>
      <trkpt lat="47.14388" lon="-1.51196">
        <ele>78</ele>
        <time>2021-04-20T11:04:04.000Z</time>
      </trkpt>
      <trkpt lat="47.14381" lon="-1.5118">
        <ele>78</ele>
        <time>2021-04-20T11:04:06.000Z</time>
      </trkpt>
      <trkpt lat="47.14374" lon="-1.51163">
        <ele>78</ele>
        <time>2021-04-20T11:04:08.000Z</time>
      </trkpt>
      <trkpt lat="47.14368" lon="-1.51145">
        <ele>78</ele>
        <time>2021-04-20T11:04:10.000Z</time>
      </trkpt>
      <trkpt lat="47.14361" lon="-1.51127">
        <ele>78</ele>
        <time>2021-04-20T11:04:12.000Z</time>
      </trkpt>
      <trkpt lat="47.14354" lon="-1.5111">
        <ele>78</ele>
        <time>2021-04-20T11:04:14.000Z</time>
      </trkpt>
      <trkpt lat="47.14347" lon="-1.51093">
        <ele>78</ele>
        <time>2021-04-20T11:04:16.000Z</time>
      </trkpt>
      <trkpt lat="47.1434" lon="-1.51075">
        <ele>77</ele>
        <time>2021-04-20T11:04:18.000Z</time>
      </trkpt>
      <trkpt lat="47.14334" lon="-1.51058">
        <ele>78</ele>
        <time>2021-04-20T11:04:20.000Z</time>
      </trkpt>
      <trkpt lat="47.14327" lon="-1.51039">
        <ele>78</ele>
        <time>2021-04-20T11:04:22.000Z</time>
      </trkpt>
      <trkpt lat="47.1432" lon="-1.51021">
        <ele>78</ele>
        <time>2021-04-20T11:04:24.000Z</time>
      </trkpt>
      <trkpt lat="47.14314" lon="-1.51002">
        <ele>78</ele>
        <time>2021-04-20T11:04:26.000Z</time>
      </trkpt>
      <trkpt lat="47.14308" lon="-1.50983">
        <ele>78</ele>
        <time>2021-04-20T11:04:28.000Z</time>
      </trkpt>
      <trkpt lat="47.14302" lon="-1.50964">
        <ele>78</ele>
        <time>2021-04-20T11:04:30.000Z</time>
      </trkpt>
      <trkpt lat="47.14297" lon="-1.50945">
        <ele>78</ele>
        <time>2021-04-20T11:04:32.000Z</time>
      </trkpt>
      <trkpt lat="47.14291" lon="-1.50927">
        <ele>77</ele>
        <time>2021-04-20T11:04:34.000Z</time>
      </trkpt>
      <trkpt lat="47.14287" lon="-1.50909">
        <ele>77</ele>
        <time>2021-04-20T11:04:36.000Z</time>
      </trkpt>
      <trkpt lat="47.14282" lon="-1.5089">
        <ele>77</ele>
        <time>2021-04-20T11:04:38.000Z</time>
      </trkpt>
      <trkpt lat="47.14276" lon="-1.50871">
        <ele>77</ele>
        <time>2021-04-20T11:04:40.000Z</time>
      </trkpt>
      <trkpt lat="47.14271" lon="-1.50852">
        <ele>78</ele>
        <time>2021-04-20T11:04:42.000Z</time>
      </trkpt>
      <trkpt lat="47.14266" lon="-1.50834">
        <ele>78</ele>
        <time>2021-04-20T11:04:44.000Z</time>
      </trkpt>
      <trkpt lat="47.14261" lon="-1.50815">
        <ele>78</ele>
        <time>2021-04-20T11:04:46.000Z</time>
      </trkpt>
      <trkpt lat="47.14256" lon="-1.50797">
        <ele>77</ele>
        <time>2021-04-20T11:04:48.000Z</time>
      </trkpt>
      <trkpt lat="47.14251" lon="-1.50778">
        <ele>78</ele>
        <time>2021-04-20T11:04:50.000Z</time>
      </trkpt>
      <trkpt lat="47.14246" lon="-1.5076">
        <ele>78</ele>
        <time>2021-04-20T11:04:52.000Z</time>
      </trkpt>
      <trkpt lat="47.14242" lon="-1.50741">
        <ele>78</ele>
        <time>2021-04-20T11:04:54.000Z</time>
      </trkpt>
      <trkpt lat="47.14238" lon="-1.50723">
        <ele>78</ele>
        <time>2021-04-20T11:04:56.000Z</time>
      </trkpt>
      <trkpt lat="47.14233" lon="-1.50705">
        <ele>78</ele>
        <time>2021-04-20T11:04:58.000Z</time>
      </trkpt>
      <trkpt lat="47.14229" lon="-1.50685">
        <ele>78</ele>
        <time>2021-04-20T11:05:00.000Z</time>
      </trkpt>
      <trkpt lat="47.14225" lon="-1.50667">
        <ele>78</ele>
        <time>2021-04-20T11:05:02.000Z</time>
      </trkpt>
      <trkpt lat="47.14222" lon="-1.50648">
        <ele>78</ele>
        <time>2021-04-20T11:05:04.000Z</time>
      </trkpt>
      <trkpt lat="47.14218" lon="-1.5063">
        <ele>79</ele>
        <time>2021-04-20T11:05:06.000Z</time>
      </trkpt>
      <trkpt lat="47.14212" lon="-1.50601">
        <ele>79</ele>
        <time>2021-04-20T11:05:09.000Z</time>
      </trkpt>
      <trkpt lat="47.14209" lon="-1.50582">
        <ele>79</ele>
        <time>2021-04-20T11:05:11.000Z</time>
      </trkpt>
      <trkpt lat="47.14205" lon="-1.50563">
        <ele>79</ele>
        <time>2021-04-20T11:05:13.000Z</time>
      </trkpt>
      <trkpt lat="47.14201" lon="-1.50543">
        <ele>79</ele>
        <time>2021-04-20T11:05:15.000Z</time>
      </trkpt>
      <trkpt lat="47.14198" lon="-1.50524">
        <ele>79</ele>
        <time>2021-04-20T11:05:17.000Z</time>
      </trkpt>
      <trkpt lat="47.14194" lon="-1.50505">
        <ele>79</ele>
        <time>2021-04-20T11:05:19.000Z</time>
      </trkpt>
      <trkpt lat="47.1419" lon="-1.50486">
        <ele>80</ele>
        <time>2021-04-20T11:05:21.000Z</time>
      </trkpt>
      <trkpt lat="47.14186" lon="-1.50467">
        <ele>80</ele>
        <time>2021-04-20T11:05:23.000Z</time>
      </trkpt>
      <trkpt lat="47.14182" lon="-1.50448">
        <ele>80</ele>
        <time>2021-04-20T11:05:25.000Z</time>
      </trkpt>
      <trkpt lat="47.14178" lon="-1.50429">
        <ele>80</ele>
        <time>2021-04-20T11:05:27.000Z</time>
      </trkpt>
      <trkpt lat="47.14174" lon="-1.5041">
        <ele>80</ele>
        <time>2021-04-20T11:05:29.000Z</time>
      </trkpt>
      <trkpt lat="47.14171" lon="-1.50391">
        <ele>80</ele>
        <time>2021-04-20T11:05:31.000Z</time>
      </trkpt>
      <trkpt lat="47.14167" lon="-1.50372">
        <ele>81</ele>
        <time>2021-04-20T11:05:33.000Z</time>
      </trkpt>
      <trkpt lat="47.14164" lon="-1.50353">
        <ele>81</ele>
        <time>2021-04-20T11:05:35.000Z</time>
      </trkpt>
      <trkpt lat="47.14163" lon="-1.50333">
        <ele>81</ele>
        <time>2021-04-20T11:05:37.000Z</time>
      </trkpt>
      <trkpt lat="47.14161" lon="-1.50314">
        <ele>81</ele>
        <time>2021-04-20T11:05:39.000Z</time>
      </trkpt>
      <trkpt lat="47.14159" lon="-1.50295">
        <ele>81</ele>
        <time>2021-04-20T11:05:41.000Z</time>
      </trkpt>
      <trkpt lat="47.14158" lon="-1.50275">
        <ele>82</ele>
        <time>2021-04-20T11:05:43.000Z</time>
      </trkpt>
      <trkpt lat="47.14158" lon="-1.50255">
        <ele>82</ele>
        <time>2021-04-20T11:05:45.000Z</time>
      </trkpt>
      <trkpt lat="47.14157" lon="-1.50235">
        <ele>82</ele>
        <time>2021-04-20T11:05:47.000Z</time>
      </trkpt>
      <trkpt lat="47.14156" lon="-1.50216">
        <ele>82</ele>
        <time>2021-04-20T11:05:49.000Z</time>
      </trkpt>
      <trkpt lat="47.14154" lon="-1.50197">
        <ele>82</ele>
        <time>2021-04-20T11:05:51.000Z</time>
      </trkpt>
      <trkpt lat="47.14152" lon="-1.50179">
        <ele>81</ele>
        <time>2021-04-20T11:05:53.000Z</time>
      </trkpt>
      <trkpt lat="47.14149" lon="-1.5016">
        <ele>81</ele>
        <time>2021-04-20T11:05:55.000Z</time>
      </trkpt>
      <trkpt lat="47.14146" lon="-1.50142">
        <ele>81</ele>
        <time>2021-04-20T11:05:57.000Z</time>
      </trkpt>
      <trkpt lat="47.14143" lon="-1.50124">
        <ele>81</ele>
        <time>2021-04-20T11:05:59.000Z</time>
      </trkpt>
      <trkpt lat="47.14139" lon="-1.50107">
        <ele>81</ele>
        <time>2021-04-20T11:06:01.000Z</time>
      </trkpt>
      <trkpt lat="47.14136" lon="-1.50089">
        <ele>81</ele>
        <time>2021-04-20T11:06:03.000Z</time>
      </trkpt>
      <trkpt lat="47.14133" lon="-1.5007">
        <ele>81</ele>
        <time>2021-04-20T11:06:05.000Z</time>
      </trkpt>
      <trkpt lat="47.1413" lon="-1.50052">
        <ele>81</ele>
        <time>2021-04-20T11:06:07.000Z</time>
      </trkpt>
      <trkpt lat="47.14127" lon="-1.50033">
        <ele>81</ele>
        <time>2021-04-20T11:06:09.000Z</time>
      </trkpt>
      <trkpt lat="47.14124" lon="-1.50015">
        <ele>81</ele>
        <time>2021-04-20T11:06:11.000Z</time>
      </trkpt>
      <trkpt lat="47.14121" lon="-1.49997">
        <ele>80</ele>
        <time>2021-04-20T11:06:13.000Z</time>
      </trkpt>
      <trkpt lat="47.14117" lon="-1.49979">
        <ele>81</ele>
        <time>2021-04-20T11:06:15.000Z</time>
      </trkpt>
      <trkpt lat="47.14114" lon="-1.4996">
        <ele>81</ele>
        <time>2021-04-20T11:06:17.000Z</time>
      </trkpt>
      <trkpt lat="47.14111" lon="-1.49942">
        <ele>80</ele>
        <time>2021-04-20T11:06:19.000Z</time>
      </trkpt>
      <trkpt lat="47.14108" lon="-1.49923">
        <ele>80</ele>
        <time>2021-04-20T11:06:21.000Z</time>
      </trkpt>
      <trkpt lat="47.14105" lon="-1.49905">
        <ele>81</ele>
        <time>2021-04-20T11:06:23.000Z</time>
      </trkpt>
      <trkpt lat="47.14102" lon="-1.49886">
        <ele>81</ele>
        <time>2021-04-20T11:06:25.000Z</time>
      </trkpt>
      <trkpt lat="47.141" lon="-1.49868">
        <ele>81</ele>
        <time>2021-04-20T11:06:27.000Z</time>
      </trkpt>
      <trkpt lat="47.14098" lon="-1.49849">
        <ele>81</ele>
        <time>2021-04-20T11:06:29.000Z</time>
      </trkpt>
      <trkpt lat="47.14097" lon="-1.4983">
        <ele>81</ele>
        <time>2021-04-20T11:06:31.000Z</time>
      </trkpt>
      <trkpt lat="47.14096" lon="-1.49812">
        <ele>82</ele>
        <time>2021-04-20T11:06:33.000Z</time>
      </trkpt>
      <trkpt lat="47.14096" lon="-1.49793">
        <ele>82</ele>
        <time>2021-04-20T11:06:35.000Z</time>
      </trkpt>
      <trkpt lat="47.14096" lon="-1.49773">
        <ele>83</ele>
        <time>2021-04-20T11:06:37.000Z</time>
      </trkpt>
      <trkpt lat="47.14095" lon="-1.49754">
        <ele>83</ele>
        <time>2021-04-20T11:06:39.000Z</time>
      </trkpt>
      <trkpt lat="47.14096" lon="-1.49735">
        <ele>83</ele>
        <time>2021-04-20T11:06:41.000Z</time>
      </trkpt>
      <trkpt lat="47.14096" lon="-1.49715">
        <ele>83</ele>
        <time>2021-04-20T11:06:43.000Z</time>
      </trkpt>
      <trkpt lat="47.14096" lon="-1.49696">
        <ele>84</ele>
        <time>2021-04-20T11:06:45.000Z</time>
      </trkpt>
      <trkpt lat="47.14096" lon="-1.49677">
        <ele>84</ele>
        <time>2021-04-20T11:06:47.000Z</time>
      </trkpt>
      <trkpt lat="47.14096" lon="-1.49658">
        <ele>84</ele>
        <time>2021-04-20T11:06:49.000Z</time>
      </trkpt>
      <trkpt lat="47.14096" lon="-1.49638">
        <ele>84</ele>
        <time>2021-04-20T11:06:51.000Z</time>
      </trkpt>
      <trkpt lat="47.14096" lon="-1.49619">
        <ele>84</ele>
        <time>2021-04-20T11:06:53.000Z</time>
      </trkpt>
      <trkpt lat="47.14096" lon="-1.49601">
        <ele>85</ele>
        <time>2021-04-20T11:06:55.000Z</time>
      </trkpt>
      <trkpt lat="47.14096" lon="-1.49582">
        <ele>85</ele>
        <time>2021-04-20T11:06:57.000Z</time>
      </trkpt>
      <trkpt lat="47.14096" lon="-1.49563">
        <ele>86</ele>
        <time>2021-04-20T11:06:59.000Z</time>
      </trkpt>
      <trkpt lat="47.14096" lon="-1.49545">
        <ele>86</ele>
        <time>2021-04-20T11:07:01.000Z</time>
      </trkpt>
      <trkpt lat="47.14097" lon="-1.49526">
        <ele>86</ele>
        <time>2021-04-20T11:07:03.000Z</time>
      </trkpt>
      <trkpt lat="47.14097" lon="-1.49508">
        <ele>86</ele>
        <time>2021-04-20T11:07:05.000Z</time>
      </trkpt>
      <trkpt lat="47.14097" lon="-1.49489">
        <ele>86</ele>
        <time>2021-04-20T11:07:07.000Z</time>
      </trkpt>
      <trkpt lat="47.14097" lon="-1.4947">
        <ele>87</ele>
        <time>2021-04-20T11:07:09.000Z</time>
      </trkpt>
      <trkpt lat="47.14097" lon="-1.49452">
        <ele>88</ele>
        <time>2021-04-20T11:07:11.000Z</time>
      </trkpt>
      <trkpt lat="47.14097" lon="-1.49434">
        <ele>88</ele>
        <time>2021-04-20T11:07:13.000Z</time>
      </trkpt>
      <trkpt lat="47.14097" lon="-1.49415">
        <ele>88</ele>
        <time>2021-04-20T11:07:15.000Z</time>
      </trkpt>
      <trkpt lat="47.14097" lon="-1.49398">
        <ele>88</ele>
        <time>2021-04-20T11:07:17.000Z</time>
      </trkpt>
      <trkpt lat="47.14097" lon="-1.4938">
        <ele>88</ele>
        <time>2021-04-20T11:07:19.000Z</time>
      </trkpt>
      <trkpt lat="47.14097" lon="-1.49361">
        <ele>89</ele>
        <time>2021-04-20T11:07:21.000Z</time>
      </trkpt>
      <trkpt lat="47.14097" lon="-1.49342">
        <ele>89</ele>
        <time>2021-04-20T11:07:23.000Z</time>
      </trkpt>
      <trkpt lat="47.14097" lon="-1.49324">
        <ele>89</ele>
        <time>2021-04-20T11:07:25.000Z</time>
      </trkpt>
      <trkpt lat="47.14097" lon="-1.49305">
        <ele>88</ele>
        <time>2021-04-20T11:07:27.000Z</time>
      </trkpt>
      <trkpt lat="47.14098" lon="-1.49286">
        <ele>88</ele>
        <time>2021-04-20T11:07:29.000Z</time>
      </trkpt>
      <trkpt lat="47.14098" lon="-1.49267">
        <ele>89</ele>
        <time>2021-04-20T11:07:31.000Z</time>
      </trkpt>
      <trkpt lat="47.14098" lon="-1.49249">
        <ele>88</ele>
        <time>2021-04-20T11:07:33.000Z</time>
      </trkpt>
      <trkpt lat="47.14098" lon="-1.4923">
        <ele>88</ele>
        <time>2021-04-20T11:07:35.000Z</time>
      </trkpt>
      <trkpt lat="47.14098" lon="-1.49211">
        <ele>88</ele>
        <time>2021-04-20T11:07:37.000Z</time>
      </trkpt>
      <trkpt lat="47.14098" lon="-1.49192">
        <ele>87</ele>
        <time>2021-04-20T11:07:39.000Z</time>
      </trkpt>
      <trkpt lat="47.14098" lon="-1.49173">
        <ele>87</ele>
        <time>2021-04-20T11:07:41.000Z</time>
      </trkpt>
      <trkpt lat="47.14097" lon="-1.49154">
        <ele>88</ele>
        <time>2021-04-20T11:07:43.000Z</time>
      </trkpt>
      <trkpt lat="47.14098" lon="-1.49136">
        <ele>88</ele>
        <time>2021-04-20T11:07:45.000Z</time>
      </trkpt>
      <trkpt lat="47.14098" lon="-1.49117">
        <ele>88</ele>
        <time>2021-04-20T11:07:47.000Z</time>
      </trkpt>
      <trkpt lat="47.14099" lon="-1.49098">
        <ele>87</ele>
        <time>2021-04-20T11:07:49.000Z</time>
      </trkpt>
      <trkpt lat="47.14099" lon="-1.4908">
        <ele>87</ele>
        <time>2021-04-20T11:07:51.000Z</time>
      </trkpt>
      <trkpt lat="47.14099" lon="-1.4906">
        <ele>87</ele>
        <time>2021-04-20T11:07:53.000Z</time>
      </trkpt>
      <trkpt lat="47.14097" lon="-1.49041">
        <ele>87</ele>
        <time>2021-04-20T11:07:55.000Z</time>
      </trkpt>
      <trkpt lat="47.14094" lon="-1.49023">
        <ele>87</ele>
        <time>2021-04-20T11:07:57.000Z</time>
      </trkpt>
      <trkpt lat="47.14091" lon="-1.49006">
        <ele>87</ele>
        <time>2021-04-20T11:07:59.000Z</time>
      </trkpt>
      <trkpt lat="47.14087" lon="-1.48988">
        <ele>88</ele>
        <time>2021-04-20T11:08:01.000Z</time>
      </trkpt>
      <trkpt lat="47.14083" lon="-1.48971">
        <ele>88</ele>
        <time>2021-04-20T11:08:03.000Z</time>
      </trkpt>
      <trkpt lat="47.14079" lon="-1.48953">
        <ele>88</ele>
        <time>2021-04-20T11:08:05.000Z</time>
      </trkpt>
      <trkpt lat="47.14075" lon="-1.48935">
        <ele>87</ele>
        <time>2021-04-20T11:08:07.000Z</time>
      </trkpt>
      <trkpt lat="47.14071" lon="-1.48918">
        <ele>87</ele>
        <time>2021-04-20T11:08:09.000Z</time>
      </trkpt>
      <trkpt lat="47.14067" lon="-1.489">
        <ele>87</ele>
        <time>2021-04-20T11:08:11.000Z</time>
      </trkpt>
      <trkpt lat="47.14063" lon="-1.48883">
        <ele>87</ele>
        <time>2021-04-20T11:08:13.000Z</time>
      </trkpt>
      <trkpt lat="47.1406" lon="-1.48866">
        <ele>88</ele>
        <time>2021-04-20T11:08:15.000Z</time>
      </trkpt>
      <trkpt lat="47.14056" lon="-1.48848">
        <ele>88</ele>
        <time>2021-04-20T11:08:17.000Z</time>
      </trkpt>
      <trkpt lat="47.14053" lon="-1.48831">
        <ele>88</ele>
        <time>2021-04-20T11:08:19.000Z</time>
      </trkpt>
      <trkpt lat="47.1405" lon="-1.48813">
        <ele>88</ele>
        <time>2021-04-20T11:08:21.000Z</time>
      </trkpt>
      <trkpt lat="47.14047" lon="-1.48796">
        <ele>88</ele>
        <time>2021-04-20T11:08:23.000Z</time>
      </trkpt>
      <trkpt lat="47.14043" lon="-1.48777">
        <ele>88</ele>
        <time>2021-04-20T11:08:25.000Z</time>
      </trkpt>
      <trkpt lat="47.1404" lon="-1.48758">
        <ele>88</ele>
        <time>2021-04-20T11:08:27.000Z</time>
      </trkpt>
      <trkpt lat="47.14037" lon="-1.48739">
        <ele>88</ele>
        <time>2021-04-20T11:08:29.000Z</time>
      </trkpt>
      <trkpt lat="47.14034" lon="-1.48721">
        <ele>88</ele>
        <time>2021-04-20T11:08:31.000Z</time>
      </trkpt>
      <trkpt lat="47.14032" lon="-1.48703">
        <ele>87</ele>
        <time>2021-04-20T11:08:33.000Z</time>
      </trkpt>
      <trkpt lat="47.14029" lon="-1.48684">
        <ele>87</ele>
        <time>2021-04-20T11:08:35.000Z</time>
      </trkpt>
      <trkpt lat="47.14026" lon="-1.48666">
        <ele>87</ele>
        <time>2021-04-20T11:08:37.000Z</time>
      </trkpt>
      <trkpt lat="47.14023" lon="-1.48649">
        <ele>87</ele>
        <time>2021-04-20T11:08:39.000Z</time>
      </trkpt>
      <trkpt lat="47.1402" lon="-1.48632">
        <ele>87</ele>
        <time>2021-04-20T11:08:41.000Z</time>
      </trkpt>
      <trkpt lat="47.14017" lon="-1.48615">
        <ele>87</ele>
        <time>2021-04-20T11:08:43.000Z</time>
      </trkpt>
      <trkpt lat="47.14015" lon="-1.48596">
        <ele>88</ele>
        <time>2021-04-20T11:08:45.000Z</time>
      </trkpt>
      <trkpt lat="47.14012" lon="-1.48578">
        <ele>88</ele>
        <time>2021-04-20T11:08:47.000Z</time>
      </trkpt>
      <trkpt lat="47.14009" lon="-1.48559">
        <ele>88</ele>
        <time>2021-04-20T11:08:49.000Z</time>
      </trkpt>
      <trkpt lat="47.14007" lon="-1.48541">
        <ele>88</ele>
        <time>2021-04-20T11:08:51.000Z</time>
      </trkpt>
      <trkpt lat="47.14004" lon="-1.48523">
        <ele>88</ele>
        <time>2021-04-20T11:08:53.000Z</time>
      </trkpt>
      <trkpt lat="47.14001" lon="-1.48505">
        <ele>88</ele>
        <time>2021-04-20T11:08:55.000Z</time>
      </trkpt>
      <trkpt lat="47.13999" lon="-1.48487">
        <ele>89</ele>
        <time>2021-04-20T11:08:57.000Z</time>
      </trkpt>
      <trkpt lat="47.13996" lon="-1.48469">
        <ele>89</ele>
        <time>2021-04-20T11:08:59.000Z</time>
      </trkpt>
      <trkpt lat="47.13995" lon="-1.48452">
        <ele>89</ele>
        <time>2021-04-20T11:09:01.000Z</time>
      </trkpt>
      <trkpt lat="47.13993" lon="-1.48433">
        <ele>89</ele>
        <time>2021-04-20T11:09:03.000Z</time>
      </trkpt>
      <trkpt lat="47.13992" lon="-1.48415">
        <ele>89</ele>
        <time>2021-04-20T11:09:05.000Z</time>
      </trkpt>
      <trkpt lat="47.13992" lon="-1.48397">
        <ele>89</ele>
        <time>2021-04-20T11:09:07.000Z</time>
      </trkpt>
      <trkpt lat="47.13991" lon="-1.48379">
        <ele>89</ele>
        <time>2021-04-20T11:09:09.000Z</time>
      </trkpt>
      <trkpt lat="47.13991" lon="-1.4836">
        <ele>89</ele>
        <time>2021-04-20T11:09:11.000Z</time>
      </trkpt>
      <trkpt lat="47.1399" lon="-1.48341">
        <ele>89</ele>
        <time>2021-04-20T11:09:13.000Z</time>
      </trkpt>
      <trkpt lat="47.13989" lon="-1.48322">
        <ele>90</ele>
        <time>2021-04-20T11:09:15.000Z</time>
      </trkpt>
      <trkpt lat="47.13989" lon="-1.48303">
        <ele>90</ele>
        <time>2021-04-20T11:09:17.000Z</time>
      </trkpt>
      <trkpt lat="47.13988" lon="-1.48284">
        <ele>90</ele>
        <time>2021-04-20T11:09:19.000Z</time>
      </trkpt>
      <trkpt lat="47.13988" lon="-1.48265">
        <ele>90</ele>
        <time>2021-04-20T11:09:21.000Z</time>
      </trkpt>
      <trkpt lat="47.13987" lon="-1.48246">
        <ele>90</ele>
        <time>2021-04-20T11:09:23.000Z</time>
      </trkpt>
      <trkpt lat="47.13987" lon="-1.48227">
        <ele>90</ele>
        <time>2021-04-20T11:09:25.000Z</time>
      </trkpt>
      <trkpt lat="47.13986" lon="-1.48208">
        <ele>90</ele>
        <time>2021-04-20T11:09:27.000Z</time>
      </trkpt>
      <trkpt lat="47.13986" lon="-1.48189">
        <ele>90</ele>
        <time>2021-04-20T11:09:29.000Z</time>
      </trkpt>
      <trkpt lat="47.13985" lon="-1.4817">
        <ele>91</ele>
        <time>2021-04-20T11:09:31.000Z</time>
      </trkpt>
      <trkpt lat="47.13985" lon="-1.48151">
        <ele>91</ele>
        <time>2021-04-20T11:09:33.000Z</time>
      </trkpt>
      <trkpt lat="47.13984" lon="-1.48132">
        <ele>91</ele>
        <time>2021-04-20T11:09:35.000Z</time>
      </trkpt>
      <trkpt lat="47.13984" lon="-1.48113">
        <ele>91</ele>
        <time>2021-04-20T11:09:37.000Z</time>
      </trkpt>
      <trkpt lat="47.13983" lon="-1.48095">
        <ele>92</ele>
        <time>2021-04-20T11:09:39.000Z</time>
      </trkpt>
      <trkpt lat="47.13982" lon="-1.48076">
        <ele>92</ele>
        <time>2021-04-20T11:09:41.000Z</time>
      </trkpt>
      <trkpt lat="47.13982" lon="-1.48057">
        <ele>92</ele>
        <time>2021-04-20T11:09:43.000Z</time>
      </trkpt>
      <trkpt lat="47.13981" lon="-1.48039">
        <ele>92</ele>
        <time>2021-04-20T11:09:45.000Z</time>
      </trkpt>
      <trkpt lat="47.1398" lon="-1.48021">
        <ele>92</ele>
        <time>2021-04-20T11:09:47.000Z</time>
      </trkpt>
      <trkpt lat="47.13979" lon="-1.48003">
        <ele>92</ele>
        <time>2021-04-20T11:09:49.000Z</time>
      </trkpt>
      <trkpt lat="47.13978" lon="-1.47985">
        <ele>92</ele>
        <time>2021-04-20T11:09:51.000Z</time>
      </trkpt>
      <trkpt lat="47.13976" lon="-1.47966">
        <ele>92</ele>
        <time>2021-04-20T11:09:53.000Z</time>
      </trkpt>
      <trkpt lat="47.13973" lon="-1.47948">
        <ele>92</ele>
        <time>2021-04-20T11:09:55.000Z</time>
      </trkpt>
      <trkpt lat="47.1397" lon="-1.4793">
        <ele>92</ele>
        <time>2021-04-20T11:09:57.000Z</time>
      </trkpt>
      <trkpt lat="47.13965" lon="-1.47913">
        <ele>93</ele>
        <time>2021-04-20T11:09:59.000Z</time>
      </trkpt>
      <trkpt lat="47.13961" lon="-1.47896">
        <ele>93</ele>
        <time>2021-04-20T11:10:01.000Z</time>
      </trkpt>
      <trkpt lat="47.13956" lon="-1.47878">
        <ele>93</ele>
        <time>2021-04-20T11:10:03.000Z</time>
      </trkpt>
      <trkpt lat="47.13951" lon="-1.47861">
        <ele>93</ele>
        <time>2021-04-20T11:10:05.000Z</time>
      </trkpt>
      <trkpt lat="47.13947" lon="-1.47843">
        <ele>94</ele>
        <time>2021-04-20T11:10:07.000Z</time>
      </trkpt>
      <trkpt lat="47.13941" lon="-1.47826">
        <ele>93</ele>
        <time>2021-04-20T11:10:09.000Z</time>
      </trkpt>
      <trkpt lat="47.13937" lon="-1.47808">
        <ele>93</ele>
        <time>2021-04-20T11:10:11.000Z</time>
      </trkpt>
      <trkpt lat="47.13932" lon="-1.4779">
        <ele>93</ele>
        <time>2021-04-20T11:10:13.000Z</time>
      </trkpt>
      <trkpt lat="47.13927" lon="-1.47772">
        <ele>93</ele>
        <time>2021-04-20T11:10:15.000Z</time>
      </trkpt>
      <trkpt lat="47.13922" lon="-1.47755">
        <ele>94</ele>
        <time>2021-04-20T11:10:17.000Z</time>
      </trkpt>
      <trkpt lat="47.13918" lon="-1.47738">
        <ele>94</ele>
        <time>2021-04-20T11:10:19.000Z</time>
      </trkpt>
      <trkpt lat="47.13913" lon="-1.4772">
        <ele>94</ele>
        <time>2021-04-20T11:10:21.000Z</time>
      </trkpt>
      <trkpt lat="47.13908" lon="-1.47703">
        <ele>94</ele>
        <time>2021-04-20T11:10:23.000Z</time>
      </trkpt>
      <trkpt lat="47.13903" lon="-1.47684">
        <ele>94</ele>
        <time>2021-04-20T11:10:25.000Z</time>
      </trkpt>
      <trkpt lat="47.13898" lon="-1.47666">
        <ele>94</ele>
        <time>2021-04-20T11:10:27.000Z</time>
      </trkpt>
      <trkpt lat="47.13892" lon="-1.47648">
        <ele>94</ele>
        <time>2021-04-20T11:10:29.000Z</time>
      </trkpt>
      <trkpt lat="47.13888" lon="-1.47631">
        <ele>94</ele>
        <time>2021-04-20T11:10:31.000Z</time>
      </trkpt>
      <trkpt lat="47.13883" lon="-1.47614">
        <ele>94</ele>
        <time>2021-04-20T11:10:33.000Z</time>
      </trkpt>
      <trkpt lat="47.13878" lon="-1.47597">
        <ele>94</ele>
        <time>2021-04-20T11:10:35.000Z</time>
      </trkpt>
      <trkpt lat="47.13873" lon="-1.47579">
        <ele>93</ele>
        <time>2021-04-20T11:10:37.000Z</time>
      </trkpt>
      <trkpt lat="47.13869" lon="-1.47562">
        <ele>93</ele>
        <time>2021-04-20T11:10:39.000Z</time>
      </trkpt>
      <trkpt lat="47.13864" lon="-1.47544">
        <ele>93</ele>
        <time>2021-04-20T11:10:41.000Z</time>
      </trkpt>
      <trkpt lat="47.13859" lon="-1.47525">
        <ele>93</ele>
        <time>2021-04-20T11:10:43.000Z</time>
      </trkpt>
      <trkpt lat="47.13855" lon="-1.47508">
        <ele>93</ele>
        <time>2021-04-20T11:10:45.000Z</time>
      </trkpt>
      <trkpt lat="47.1385" lon="-1.47489">
        <ele>94</ele>
        <time>2021-04-20T11:10:47.000Z</time>
      </trkpt>
      <trkpt lat="47.13845" lon="-1.4747">
        <ele>94</ele>
        <time>2021-04-20T11:10:49.000Z</time>
      </trkpt>
      <trkpt lat="47.1384" lon="-1.47452">
        <ele>94</ele>
        <time>2021-04-20T11:10:51.000Z</time>
      </trkpt>
      <trkpt lat="47.13835" lon="-1.47435">
        <ele>93</ele>
        <time>2021-04-20T11:10:53.000Z</time>
      </trkpt>
      <trkpt lat="47.1383" lon="-1.47418">
        <ele>93</ele>
        <time>2021-04-20T11:10:55.000Z</time>
      </trkpt>
      <trkpt lat="47.13825" lon="-1.474">
        <ele>93</ele>
        <time>2021-04-20T11:10:57.000Z</time>
      </trkpt>
      <trkpt lat="47.13821" lon="-1.47384">
        <ele>94</ele>
        <time>2021-04-20T11:10:59.000Z</time>
      </trkpt>
      <trkpt lat="47.13816" lon="-1.47366">
        <ele>94</ele>
        <time>2021-04-20T11:11:01.000Z</time>
      </trkpt>
      <trkpt lat="47.13812" lon="-1.47348">
        <ele>94</ele>
        <time>2021-04-20T11:11:03.000Z</time>
      </trkpt>
      <trkpt lat="47.13806" lon="-1.4733">
        <ele>93</ele>
        <time>2021-04-20T11:11:05.000Z</time>
      </trkpt>
      <trkpt lat="47.13802" lon="-1.47312">
        <ele>93</ele>
        <time>2021-04-20T11:11:07.000Z</time>
      </trkpt>
      <trkpt lat="47.13797" lon="-1.47294">
        <ele>93</ele>
        <time>2021-04-20T11:11:09.000Z</time>
      </trkpt>
      <trkpt lat="47.13792" lon="-1.47277">
        <ele>92</ele>
        <time>2021-04-20T11:11:11.000Z</time>
      </trkpt>
      <trkpt lat="47.13788" lon="-1.47259">
        <ele>92</ele>
        <time>2021-04-20T11:11:13.000Z</time>
      </trkpt>
      <trkpt lat="47.13784" lon="-1.47242">
        <ele>92</ele>
        <time>2021-04-20T11:11:15.000Z</time>
      </trkpt>
      <trkpt lat="47.1378" lon="-1.47224">
        <ele>92</ele>
        <time>2021-04-20T11:11:17.000Z</time>
      </trkpt>
      <trkpt lat="47.13777" lon="-1.47205">
        <ele>92</ele>
        <time>2021-04-20T11:11:19.000Z</time>
      </trkpt>
      <trkpt lat="47.13776" lon="-1.47187">
        <ele>91</ele>
        <time>2021-04-20T11:11:21.000Z</time>
      </trkpt>
      <trkpt lat="47.13776" lon="-1.47168">
        <ele>91</ele>
        <time>2021-04-20T11:11:23.000Z</time>
      </trkpt>
      <trkpt lat="47.13776" lon="-1.47149">
        <ele>91</ele>
        <time>2021-04-20T11:11:25.000Z</time>
      </trkpt>
      <trkpt lat="47.13777" lon="-1.47131">
        <ele>91</ele>
        <time>2021-04-20T11:11:27.000Z</time>
      </trkpt>
      <trkpt lat="47.13778" lon="-1.47112">
        <ele>92</ele>
        <time>2021-04-20T11:11:29.000Z</time>
      </trkpt>
      <trkpt lat="47.1378" lon="-1.47093">
        <ele>92</ele>
        <time>2021-04-20T11:11:31.000Z</time>
      </trkpt>
      <trkpt lat="47.13781" lon="-1.47075">
        <ele>92</ele>
        <time>2021-04-20T11:11:33.000Z</time>
      </trkpt>
      <trkpt lat="47.13782" lon="-1.47056">
        <ele>92</ele>
        <time>2021-04-20T11:11:35.000Z</time>
      </trkpt>
      <trkpt lat="47.13782" lon="-1.47037">
        <ele>93</ele>
        <time>2021-04-20T11:11:37.000Z</time>
      </trkpt>
      <trkpt lat="47.13782" lon="-1.47019">
        <ele>92</ele>
        <time>2021-04-20T11:11:39.000Z</time>
      </trkpt>
      <trkpt lat="47.13781" lon="-1.46999">
        <ele>92</ele>
        <time>2021-04-20T11:11:41.000Z</time>
      </trkpt>
      <trkpt lat="47.1378" lon="-1.4698">
        <ele>92</ele>
        <time>2021-04-20T11:11:43.000Z</time>
      </trkpt>
      <trkpt lat="47.13778" lon="-1.46961">
        <ele>92</ele>
        <time>2021-04-20T11:11:45.000Z</time>
      </trkpt>
      <trkpt lat="47.13777" lon="-1.46942">
        <ele>92</ele>
        <time>2021-04-20T11:11:47.000Z</time>
      </trkpt>
      <trkpt lat="47.13775" lon="-1.46924">
        <ele>91</ele>
        <time>2021-04-20T11:11:49.000Z</time>
      </trkpt>
      <trkpt lat="47.13773" lon="-1.46906">
        <ele>91</ele>
        <time>2021-04-20T11:11:51.000Z</time>
      </trkpt>
      <trkpt lat="47.13771" lon="-1.46888">
        <ele>92</ele>
        <time>2021-04-20T11:11:53.000Z</time>
      </trkpt>
      <trkpt lat="47.13768" lon="-1.4687">
        <ele>92</ele>
        <time>2021-04-20T11:11:55.000Z</time>
      </trkpt>
      <trkpt lat="47.13765" lon="-1.46853">
        <ele>92</ele>
        <time>2021-04-20T11:11:57.000Z</time>
      </trkpt>
      <trkpt lat="47.13761" lon="-1.46836">
        <ele>92</ele>
        <time>2021-04-20T11:11:59.000Z</time>
      </trkpt>
      <trkpt lat="47.13758" lon="-1.46821">
        <ele>92</ele>
        <time>2021-04-20T11:12:01.000Z</time>
      </trkpt>
      <trkpt lat="47.13756" lon="-1.46806">
        <ele>93</ele>
        <time>2021-04-20T11:12:03.000Z</time>
      </trkpt>
      <trkpt lat="47.13753" lon="-1.46788">
        <ele>93</ele>
        <time>2021-04-20T11:12:06.000Z</time>
      </trkpt>
      <trkpt lat="47.1375" lon="-1.46775">
        <ele>93</ele>
        <time>2021-04-20T11:12:10.000Z</time>
      </trkpt>
      <trkpt lat="47.13757" lon="-1.46761">
        <ele>94</ele>
        <time>2021-04-20T11:12:14.000Z</time>
      </trkpt>
      <trkpt lat="47.13768" lon="-1.4676">
        <ele>94</ele>
        <time>2021-04-20T11:12:16.000Z</time>
      </trkpt>
      <trkpt lat="47.1378" lon="-1.46756">
        <ele>94</ele>
        <time>2021-04-20T11:12:18.000Z</time>
      </trkpt>
      <trkpt lat="47.13792" lon="-1.46753">
        <ele>94</ele>
        <time>2021-04-20T11:12:20.000Z</time>
      </trkpt>
      <trkpt lat="47.13806" lon="-1.4675">
        <ele>94</ele>
        <time>2021-04-20T11:12:22.000Z</time>
      </trkpt>
      <trkpt lat="47.13819" lon="-1.46747">
        <ele>94</ele>
        <time>2021-04-20T11:12:24.000Z</time>
      </trkpt>
      <trkpt lat="47.13832" lon="-1.46744">
        <ele>94</ele>
        <time>2021-04-20T11:12:26.000Z</time>
      </trkpt>
      <trkpt lat="47.13845" lon="-1.46741">
        <ele>93</ele>
        <time>2021-04-20T11:12:28.000Z</time>
      </trkpt>
      <trkpt lat="47.13859" lon="-1.46737">
        <ele>93</ele>
        <time>2021-04-20T11:12:30.000Z</time>
      </trkpt>
      <trkpt lat="47.13872" lon="-1.46734">
        <ele>93</ele>
        <time>2021-04-20T11:12:32.000Z</time>
      </trkpt>
      <trkpt lat="47.13886" lon="-1.46731">
        <ele>93</ele>
        <time>2021-04-20T11:12:34.000Z</time>
      </trkpt>
      <trkpt lat="47.13899" lon="-1.46729">
        <ele>93</ele>
        <time>2021-04-20T11:12:36.000Z</time>
      </trkpt>
      <trkpt lat="47.13913" lon="-1.46725">
        <ele>93</ele>
        <time>2021-04-20T11:12:38.000Z</time>
      </trkpt>
      <trkpt lat="47.13927" lon="-1.46722">
        <ele>92</ele>
        <time>2021-04-20T11:12:40.000Z</time>
      </trkpt>
      <trkpt lat="47.13941" lon="-1.4672">
        <ele>92</ele>
        <time>2021-04-20T11:12:42.000Z</time>
      </trkpt>
      <trkpt lat="47.13957" lon="-1.4672">
        <ele>92</ele>
        <time>2021-04-20T11:12:44.000Z</time>
      </trkpt>
      <trkpt lat="47.13973" lon="-1.4672">
        <ele>92</ele>
        <time>2021-04-20T11:12:46.000Z</time>
      </trkpt>
      <trkpt lat="47.13989" lon="-1.46722">
        <ele>91</ele>
        <time>2021-04-20T11:12:48.000Z</time>
      </trkpt>
      <trkpt lat="47.14005" lon="-1.46724">
        <ele>90</ele>
        <time>2021-04-20T11:12:50.000Z</time>
      </trkpt>
      <trkpt lat="47.14021" lon="-1.46727">
        <ele>90</ele>
        <time>2021-04-20T11:12:52.000Z</time>
      </trkpt>
      <trkpt lat="47.14037" lon="-1.46729">
        <ele>90</ele>
        <time>2021-04-20T11:12:54.000Z</time>
      </trkpt>
      <trkpt lat="47.14053" lon="-1.46732">
        <ele>90</ele>
        <time>2021-04-20T11:12:56.000Z</time>
      </trkpt>
      <trkpt lat="47.14069" lon="-1.46735">
        <ele>89</ele>
        <time>2021-04-20T11:12:58.000Z</time>
      </trkpt>
      <trkpt lat="47.14086" lon="-1.46739">
        <ele>88</ele>
        <time>2021-04-20T11:13:00.000Z</time>
      </trkpt>
      <trkpt lat="47.14103" lon="-1.46742">
        <ele>87</ele>
        <time>2021-04-20T11:13:02.000Z</time>
      </trkpt>
      <trkpt lat="47.1412" lon="-1.46746">
        <ele>86</ele>
        <time>2021-04-20T11:13:04.000Z</time>
      </trkpt>
      <trkpt lat="47.14137" lon="-1.46749">
        <ele>86</ele>
        <time>2021-04-20T11:13:06.000Z</time>
      </trkpt>
      <trkpt lat="47.14153" lon="-1.46753">
        <ele>85</ele>
        <time>2021-04-20T11:13:08.000Z</time>
      </trkpt>
      <trkpt lat="47.1417" lon="-1.46755">
        <ele>85</ele>
        <time>2021-04-20T11:13:10.000Z</time>
      </trkpt>
      <trkpt lat="47.14187" lon="-1.46758">
        <ele>83</ele>
        <time>2021-04-20T11:13:12.000Z</time>
      </trkpt>
      <trkpt lat="47.14204" lon="-1.46761">
        <ele>82</ele>
        <time>2021-04-20T11:13:14.000Z</time>
      </trkpt>
      <trkpt lat="47.14221" lon="-1.46764">
        <ele>82</ele>
        <time>2021-04-20T11:13:16.000Z</time>
      </trkpt>
      <trkpt lat="47.14239" lon="-1.46767">
        <ele>81</ele>
        <time>2021-04-20T11:13:18.000Z</time>
      </trkpt>
      <trkpt lat="47.14256" lon="-1.4677">
        <ele>81</ele>
        <time>2021-04-20T11:13:20.000Z</time>
      </trkpt>
      <trkpt lat="47.14266" lon="-1.46772">
        <ele>81</ele>
        <time>2021-04-20T11:13:21.000Z</time>
      </trkpt>
      <trkpt lat="47.14283" lon="-1.46775">
        <ele>80</ele>
        <time>2021-04-20T11:13:23.000Z</time>
      </trkpt>
      <trkpt lat="47.14292" lon="-1.46777">
        <ele>80</ele>
        <time>2021-04-20T11:13:24.000Z</time>
      </trkpt>
      <trkpt lat="47.14301" lon="-1.46778">
        <ele>79</ele>
        <time>2021-04-20T11:13:25.000Z</time>
      </trkpt>
      <trkpt lat="47.1431" lon="-1.46779">
        <ele>79</ele>
        <time>2021-04-20T11:13:26.000Z</time>
      </trkpt>
      <trkpt lat="47.14319" lon="-1.46781">
        <ele>79</ele>
        <time>2021-04-20T11:13:27.000Z</time>
      </trkpt>
      <trkpt lat="47.14328" lon="-1.46783">
        <ele>79</ele>
        <time>2021-04-20T11:13:28.000Z</time>
      </trkpt>
      <trkpt lat="47.14338" lon="-1.46785">
        <ele>78</ele>
        <time>2021-04-20T11:13:29.000Z</time>
      </trkpt>
      <trkpt lat="47.14355" lon="-1.46787">
        <ele>77</ele>
        <time>2021-04-20T11:13:31.000Z</time>
      </trkpt>
      <trkpt lat="47.14372" lon="-1.4679">
        <ele>77</ele>
        <time>2021-04-20T11:13:33.000Z</time>
      </trkpt>
      <trkpt lat="47.1439" lon="-1.46793">
        <ele>77</ele>
        <time>2021-04-20T11:13:35.000Z</time>
      </trkpt>
      <trkpt lat="47.14408" lon="-1.46797">
        <ele>77</ele>
        <time>2021-04-20T11:13:37.000Z</time>
      </trkpt>
      <trkpt lat="47.14417" lon="-1.468">
        <ele>77</ele>
        <time>2021-04-20T11:13:38.000Z</time>
      </trkpt>
      <trkpt lat="47.14434" lon="-1.46805">
        <ele>76</ele>
        <time>2021-04-20T11:13:40.000Z</time>
      </trkpt>
      <trkpt lat="47.14444" lon="-1.46809">
        <ele>76</ele>
        <time>2021-04-20T11:13:41.000Z</time>
      </trkpt>
      <trkpt lat="47.14452" lon="-1.46812">
        <ele>76</ele>
        <time>2021-04-20T11:13:42.000Z</time>
      </trkpt>
      <trkpt lat="47.14462" lon="-1.46816">
        <ele>76</ele>
        <time>2021-04-20T11:13:43.000Z</time>
      </trkpt>
      <trkpt lat="47.14471" lon="-1.4682">
        <ele>75</ele>
        <time>2021-04-20T11:13:44.000Z</time>
      </trkpt>
      <trkpt lat="47.1448" lon="-1.46824">
        <ele>75</ele>
        <time>2021-04-20T11:13:45.000Z</time>
      </trkpt>
      <trkpt lat="47.1449" lon="-1.46829">
        <ele>74</ele>
        <time>2021-04-20T11:13:46.000Z</time>
      </trkpt>
      <trkpt lat="47.14499" lon="-1.46834">
        <ele>74</ele>
        <time>2021-04-20T11:13:47.000Z</time>
      </trkpt>
      <trkpt lat="47.14509" lon="-1.46839">
        <ele>73</ele>
        <time>2021-04-20T11:13:48.000Z</time>
      </trkpt>
      <trkpt lat="47.14519" lon="-1.46844">
        <ele>72</ele>
        <time>2021-04-20T11:13:49.000Z</time>
      </trkpt>
      <trkpt lat="47.14528" lon="-1.46851">
        <ele>71</ele>
        <time>2021-04-20T11:13:50.000Z</time>
      </trkpt>
      <trkpt lat="47.14539" lon="-1.46856">
        <ele>71</ele>
        <time>2021-04-20T11:13:51.000Z</time>
      </trkpt>
      <trkpt lat="47.14548" lon="-1.46862">
        <ele>71</ele>
        <time>2021-04-20T11:13:52.000Z</time>
      </trkpt>
      <trkpt lat="47.14558" lon="-1.46867">
        <ele>70</ele>
        <time>2021-04-20T11:13:53.000Z</time>
      </trkpt>
      <trkpt lat="47.14568" lon="-1.46872">
        <ele>71</ele>
        <time>2021-04-20T11:13:54.000Z</time>
      </trkpt>
      <trkpt lat="47.14577" lon="-1.46876">
        <ele>71</ele>
        <time>2021-04-20T11:13:55.000Z</time>
      </trkpt>
      <trkpt lat="47.14587" lon="-1.46879">
        <ele>71</ele>
        <time>2021-04-20T11:13:56.000Z</time>
      </trkpt>
      <trkpt lat="47.14597" lon="-1.46881">
        <ele>71</ele>
        <time>2021-04-20T11:13:57.000Z</time>
      </trkpt>
      <trkpt lat="47.14607" lon="-1.46881">
        <ele>71</ele>
        <time>2021-04-20T11:13:58.000Z</time>
      </trkpt>
      <trkpt lat="47.14616" lon="-1.4688">
        <ele>70</ele>
        <time>2021-04-20T11:13:59.000Z</time>
      </trkpt>
      <trkpt lat="47.14626" lon="-1.46879">
        <ele>70</ele>
        <time>2021-04-20T11:14:00.000Z</time>
      </trkpt>
      <trkpt lat="47.14635" lon="-1.46876">
        <ele>69</ele>
        <time>2021-04-20T11:14:01.000Z</time>
      </trkpt>
      <trkpt lat="47.14644" lon="-1.46874">
        <ele>69</ele>
        <time>2021-04-20T11:14:02.000Z</time>
      </trkpt>
      <trkpt lat="47.14653" lon="-1.46872">
        <ele>68</ele>
        <time>2021-04-20T11:14:03.000Z</time>
      </trkpt>
      <trkpt lat="47.14662" lon="-1.46871">
        <ele>67</ele>
        <time>2021-04-20T11:14:04.000Z</time>
      </trkpt>
      <trkpt lat="47.14671" lon="-1.46869">
        <ele>67</ele>
        <time>2021-04-20T11:14:05.000Z</time>
      </trkpt>
      <trkpt lat="47.14681" lon="-1.46868">
        <ele>67</ele>
        <time>2021-04-20T11:14:06.000Z</time>
      </trkpt>
      <trkpt lat="47.1469" lon="-1.46867">
        <ele>67</ele>
        <time>2021-04-20T11:14:07.000Z</time>
      </trkpt>
      <trkpt lat="47.147" lon="-1.46866">
        <ele>66</ele>
        <time>2021-04-20T11:14:08.000Z</time>
      </trkpt>
      <trkpt lat="47.14709" lon="-1.46865">
        <ele>65</ele>
        <time>2021-04-20T11:14:09.000Z</time>
      </trkpt>
      <trkpt lat="47.14718" lon="-1.46864">
        <ele>66</ele>
        <time>2021-04-20T11:14:10.000Z</time>
      </trkpt>
      <trkpt lat="47.14737" lon="-1.46863">
        <ele>65</ele>
        <time>2021-04-20T11:14:12.000Z</time>
      </trkpt>
      <trkpt lat="47.14747" lon="-1.46863">
        <ele>64</ele>
        <time>2021-04-20T11:14:13.000Z</time>
      </trkpt>
      <trkpt lat="47.14756" lon="-1.46863">
        <ele>64</ele>
        <time>2021-04-20T11:14:14.000Z</time>
      </trkpt>
      <trkpt lat="47.14766" lon="-1.46863">
        <ele>63</ele>
        <time>2021-04-20T11:14:15.000Z</time>
      </trkpt>
      <trkpt lat="47.14775" lon="-1.46863">
        <ele>62</ele>
        <time>2021-04-20T11:14:16.000Z</time>
      </trkpt>
      <trkpt lat="47.14794" lon="-1.46864">
        <ele>61</ele>
        <time>2021-04-20T11:14:18.000Z</time>
      </trkpt>
      <trkpt lat="47.14804" lon="-1.46864">
        <ele>61</ele>
        <time>2021-04-20T11:14:19.000Z</time>
      </trkpt>
      <trkpt lat="47.14813" lon="-1.46865">
        <ele>60</ele>
        <time>2021-04-20T11:14:20.000Z</time>
      </trkpt>
      <trkpt lat="47.14831" lon="-1.46865">
        <ele>58</ele>
        <time>2021-04-20T11:14:22.000Z</time>
      </trkpt>
      <trkpt lat="47.14849" lon="-1.46865">
        <ele>58</ele>
        <time>2021-04-20T11:14:24.000Z</time>
      </trkpt>
      <trkpt lat="47.14866" lon="-1.46865">
        <ele>57</ele>
        <time>2021-04-20T11:14:26.000Z</time>
      </trkpt>
      <trkpt lat="47.14882" lon="-1.46865">
        <ele>56</ele>
        <time>2021-04-20T11:14:28.000Z</time>
      </trkpt>
      <trkpt lat="47.14899" lon="-1.46865">
        <ele>55</ele>
        <time>2021-04-20T11:14:30.000Z</time>
      </trkpt>
      <trkpt lat="47.14914" lon="-1.46864">
        <ele>55</ele>
        <time>2021-04-20T11:14:32.000Z</time>
      </trkpt>
      <trkpt lat="47.14929" lon="-1.46861">
        <ele>55</ele>
        <time>2021-04-20T11:14:34.000Z</time>
      </trkpt>
      <trkpt lat="47.14944" lon="-1.46863">
        <ele>54</ele>
        <time>2021-04-20T11:14:36.000Z</time>
      </trkpt>
      <trkpt lat="47.1496" lon="-1.46862">
        <ele>54</ele>
        <time>2021-04-20T11:14:38.000Z</time>
      </trkpt>
      <trkpt lat="47.14975" lon="-1.4686">
        <ele>54</ele>
        <time>2021-04-20T11:14:40.000Z</time>
      </trkpt>
      <trkpt lat="47.1499" lon="-1.46858">
        <ele>55</ele>
        <time>2021-04-20T11:14:42.000Z</time>
      </trkpt>
      <trkpt lat="47.15006" lon="-1.46856">
        <ele>54</ele>
        <time>2021-04-20T11:14:44.000Z</time>
      </trkpt>
      <trkpt lat="47.15022" lon="-1.46856">
        <ele>56</ele>
        <time>2021-04-20T11:14:46.000Z</time>
      </trkpt>
      <trkpt lat="47.15036" lon="-1.46855">
        <ele>56</ele>
        <time>2021-04-20T11:14:48.000Z</time>
      </trkpt>
      <trkpt lat="47.1505" lon="-1.46855">
        <ele>56</ele>
        <time>2021-04-20T11:14:50.000Z</time>
      </trkpt>
      <trkpt lat="47.15064" lon="-1.46855">
        <ele>56</ele>
        <time>2021-04-20T11:14:52.000Z</time>
      </trkpt>
      <trkpt lat="47.15079" lon="-1.46854">
        <ele>56</ele>
        <time>2021-04-20T11:14:54.000Z</time>
      </trkpt>
      <trkpt lat="47.15095" lon="-1.46854">
        <ele>55</ele>
        <time>2021-04-20T11:14:56.000Z</time>
      </trkpt>
      <trkpt lat="47.1511" lon="-1.46853">
        <ele>55</ele>
        <time>2021-04-20T11:14:58.000Z</time>
      </trkpt>
      <trkpt lat="47.15125" lon="-1.46852">
        <ele>54</ele>
        <time>2021-04-20T11:15:00.000Z</time>
      </trkpt>
      <trkpt lat="47.15141" lon="-1.4685">
        <ele>54</ele>
        <time>2021-04-20T11:15:02.000Z</time>
      </trkpt>
      <trkpt lat="47.15157" lon="-1.46849">
        <ele>54</ele>
        <time>2021-04-20T11:15:04.000Z</time>
      </trkpt>
      <trkpt lat="47.15173" lon="-1.46848">
        <ele>53</ele>
        <time>2021-04-20T11:15:06.000Z</time>
      </trkpt>
      <trkpt lat="47.15188" lon="-1.46847">
        <ele>53</ele>
        <time>2021-04-20T11:15:08.000Z</time>
      </trkpt>
      <trkpt lat="47.15205" lon="-1.46846">
        <ele>52</ele>
        <time>2021-04-20T11:15:10.000Z</time>
      </trkpt>
      <trkpt lat="47.15221" lon="-1.46843">
        <ele>53</ele>
        <time>2021-04-20T11:15:12.000Z</time>
      </trkpt>
      <trkpt lat="47.15237" lon="-1.4684">
        <ele>53</ele>
        <time>2021-04-20T11:15:14.000Z</time>
      </trkpt>
      <trkpt lat="47.15252" lon="-1.46836">
        <ele>53</ele>
        <time>2021-04-20T11:15:16.000Z</time>
      </trkpt>
      <trkpt lat="47.15267" lon="-1.46832">
        <ele>53</ele>
        <time>2021-04-20T11:15:18.000Z</time>
      </trkpt>
      <trkpt lat="47.15282" lon="-1.46827">
        <ele>53</ele>
        <time>2021-04-20T11:15:20.000Z</time>
      </trkpt>
      <trkpt lat="47.15297" lon="-1.46821">
        <ele>53</ele>
        <time>2021-04-20T11:15:22.000Z</time>
      </trkpt>
      <trkpt lat="47.15312" lon="-1.46815">
        <ele>52</ele>
        <time>2021-04-20T11:15:24.000Z</time>
      </trkpt>
      <trkpt lat="47.15326" lon="-1.46808">
        <ele>52</ele>
        <time>2021-04-20T11:15:26.000Z</time>
      </trkpt>
      <trkpt lat="47.1534" lon="-1.46801">
        <ele>52</ele>
        <time>2021-04-20T11:15:28.000Z</time>
      </trkpt>
      <trkpt lat="47.15355" lon="-1.46794">
        <ele>51</ele>
        <time>2021-04-20T11:15:30.000Z</time>
      </trkpt>
      <trkpt lat="47.15369" lon="-1.46787">
        <ele>51</ele>
        <time>2021-04-20T11:15:32.000Z</time>
      </trkpt>
      <trkpt lat="47.15383" lon="-1.46779">
        <ele>52</ele>
        <time>2021-04-20T11:15:34.000Z</time>
      </trkpt>
      <trkpt lat="47.15396" lon="-1.4677">
        <ele>52</ele>
        <time>2021-04-20T11:15:36.000Z</time>
      </trkpt>
      <trkpt lat="47.15409" lon="-1.46762">
        <ele>52</ele>
        <time>2021-04-20T11:15:38.000Z</time>
      </trkpt>
      <trkpt lat="47.15421" lon="-1.46754">
        <ele>52</ele>
        <time>2021-04-20T11:15:40.000Z</time>
      </trkpt>
      <trkpt lat="47.15432" lon="-1.46746">
        <ele>52</ele>
        <time>2021-04-20T11:15:42.000Z</time>
      </trkpt>
      <trkpt lat="47.15442" lon="-1.46738">
        <ele>53</ele>
        <time>2021-04-20T11:15:44.000Z</time>
      </trkpt>
      <trkpt lat="47.15453" lon="-1.4673">
        <ele>53</ele>
        <time>2021-04-20T11:15:46.000Z</time>
      </trkpt>
      <trkpt lat="47.15462" lon="-1.46722">
        <ele>54</ele>
        <time>2021-04-20T11:15:48.000Z</time>
      </trkpt>
      <trkpt lat="47.15472" lon="-1.46714">
        <ele>55</ele>
        <time>2021-04-20T11:15:50.000Z</time>
      </trkpt>
      <trkpt lat="47.15482" lon="-1.46707">
        <ele>56</ele>
        <time>2021-04-20T11:15:52.000Z</time>
      </trkpt>
      <trkpt lat="47.15492" lon="-1.467">
        <ele>57</ele>
        <time>2021-04-20T11:15:54.000Z</time>
      </trkpt>
      <trkpt lat="47.15503" lon="-1.46692">
        <ele>58</ele>
        <time>2021-04-20T11:15:56.000Z</time>
      </trkpt>
      <trkpt lat="47.15513" lon="-1.46685">
        <ele>58</ele>
        <time>2021-04-20T11:15:58.000Z</time>
      </trkpt>
      <trkpt lat="47.15523" lon="-1.46678">
        <ele>59</ele>
        <time>2021-04-20T11:16:00.000Z</time>
      </trkpt>
      <trkpt lat="47.15534" lon="-1.46671">
        <ele>60</ele>
        <time>2021-04-20T11:16:02.000Z</time>
      </trkpt>
      <trkpt lat="47.15545" lon="-1.46666">
        <ele>60</ele>
        <time>2021-04-20T11:16:04.000Z</time>
      </trkpt>
      <trkpt lat="47.15555" lon="-1.4666">
        <ele>61</ele>
        <time>2021-04-20T11:16:06.000Z</time>
      </trkpt>
      <trkpt lat="47.15566" lon="-1.46655">
        <ele>62</ele>
        <time>2021-04-20T11:16:08.000Z</time>
      </trkpt>
      <trkpt lat="47.15576" lon="-1.46649">
        <ele>62</ele>
        <time>2021-04-20T11:16:10.000Z</time>
      </trkpt>
      <trkpt lat="47.15587" lon="-1.46644">
        <ele>63</ele>
        <time>2021-04-20T11:16:12.000Z</time>
      </trkpt>
      <trkpt lat="47.15598" lon="-1.4664">
        <ele>63</ele>
        <time>2021-04-20T11:16:14.000Z</time>
      </trkpt>
      <trkpt lat="47.15609" lon="-1.46637">
        <ele>64</ele>
        <time>2021-04-20T11:16:16.000Z</time>
      </trkpt>
      <trkpt lat="47.1562" lon="-1.46634">
        <ele>64</ele>
        <time>2021-04-20T11:16:18.000Z</time>
      </trkpt>
      <trkpt lat="47.15632" lon="-1.46631">
        <ele>65</ele>
        <time>2021-04-20T11:16:20.000Z</time>
      </trkpt>
      <trkpt lat="47.15643" lon="-1.46629">
        <ele>65</ele>
        <time>2021-04-20T11:16:22.000Z</time>
      </trkpt>
      <trkpt lat="47.15654" lon="-1.46627">
        <ele>65</ele>
        <time>2021-04-20T11:16:24.000Z</time>
      </trkpt>
      <trkpt lat="47.15665" lon="-1.46626">
        <ele>66</ele>
        <time>2021-04-20T11:16:26.000Z</time>
      </trkpt>
      <trkpt lat="47.15676" lon="-1.46625">
        <ele>66</ele>
        <time>2021-04-20T11:16:28.000Z</time>
      </trkpt>
      <trkpt lat="47.15687" lon="-1.46625">
        <ele>66</ele>
        <time>2021-04-20T11:16:30.000Z</time>
      </trkpt>
      <trkpt lat="47.15699" lon="-1.46625">
        <ele>67</ele>
        <time>2021-04-20T11:16:32.000Z</time>
      </trkpt>
      <trkpt lat="47.1571" lon="-1.46624">
        <ele>67</ele>
        <time>2021-04-20T11:16:34.000Z</time>
      </trkpt>
      <trkpt lat="47.15721" lon="-1.46623">
        <ele>67</ele>
        <time>2021-04-20T11:16:36.000Z</time>
      </trkpt>
      <trkpt lat="47.15733" lon="-1.46622">
        <ele>68</ele>
        <time>2021-04-20T11:16:38.000Z</time>
      </trkpt>
      <trkpt lat="47.15744" lon="-1.46622">
        <ele>68</ele>
        <time>2021-04-20T11:16:40.000Z</time>
      </trkpt>
      <trkpt lat="47.15756" lon="-1.46621">
        <ele>69</ele>
        <time>2021-04-20T11:16:42.000Z</time>
      </trkpt>
      <trkpt lat="47.15767" lon="-1.46621">
        <ele>69</ele>
        <time>2021-04-20T11:16:44.000Z</time>
      </trkpt>
      <trkpt lat="47.15779" lon="-1.46621">
        <ele>69</ele>
        <time>2021-04-20T11:16:46.000Z</time>
      </trkpt>
      <trkpt lat="47.15789" lon="-1.4662">
        <ele>70</ele>
        <time>2021-04-20T11:16:48.000Z</time>
      </trkpt>
      <trkpt lat="47.15801" lon="-1.4662">
        <ele>70</ele>
        <time>2021-04-20T11:16:50.000Z</time>
      </trkpt>
      <trkpt lat="47.15813" lon="-1.46619">
        <ele>70</ele>
        <time>2021-04-20T11:16:52.000Z</time>
      </trkpt>
      <trkpt lat="47.15824" lon="-1.46618">
        <ele>70</ele>
        <time>2021-04-20T11:16:54.000Z</time>
      </trkpt>
      <trkpt lat="47.15836" lon="-1.46618">
        <ele>71</ele>
        <time>2021-04-20T11:16:56.000Z</time>
      </trkpt>
      <trkpt lat="47.15848" lon="-1.46618">
        <ele>71</ele>
        <time>2021-04-20T11:16:58.000Z</time>
      </trkpt>
      <trkpt lat="47.15859" lon="-1.46618">
        <ele>71</ele>
        <time>2021-04-20T11:17:00.000Z</time>
      </trkpt>
      <trkpt lat="47.15871" lon="-1.46618">
        <ele>72</ele>
        <time>2021-04-20T11:17:02.000Z</time>
      </trkpt>
      <trkpt lat="47.15881" lon="-1.46617">
        <ele>72</ele>
        <time>2021-04-20T11:17:04.000Z</time>
      </trkpt>
      <trkpt lat="47.15892" lon="-1.46617">
        <ele>72</ele>
        <time>2021-04-20T11:17:06.000Z</time>
      </trkpt>
      <trkpt lat="47.15903" lon="-1.46617">
        <ele>73</ele>
        <time>2021-04-20T11:17:08.000Z</time>
      </trkpt>
      <trkpt lat="47.15915" lon="-1.46617">
        <ele>74</ele>
        <time>2021-04-20T11:17:10.000Z</time>
      </trkpt>
      <trkpt lat="47.15926" lon="-1.46618">
        <ele>74</ele>
        <time>2021-04-20T11:17:12.000Z</time>
      </trkpt>
      <trkpt lat="47.15938" lon="-1.4662">
        <ele>75</ele>
        <time>2021-04-20T11:17:14.000Z</time>
      </trkpt>
      <trkpt lat="47.15949" lon="-1.46621">
        <ele>75</ele>
        <time>2021-04-20T11:17:16.000Z</time>
      </trkpt>
      <trkpt lat="47.1596" lon="-1.46623">
        <ele>75</ele>
        <time>2021-04-20T11:17:18.000Z</time>
      </trkpt>
      <trkpt lat="47.1597" lon="-1.46626">
        <ele>75</ele>
        <time>2021-04-20T11:17:20.000Z</time>
      </trkpt>
      <trkpt lat="47.15981" lon="-1.46629">
        <ele>75</ele>
        <time>2021-04-20T11:17:22.000Z</time>
      </trkpt>
      <trkpt lat="47.15992" lon="-1.46633">
        <ele>76</ele>
        <time>2021-04-20T11:17:24.000Z</time>
      </trkpt>
      <trkpt lat="47.16003" lon="-1.46637">
        <ele>76</ele>
        <time>2021-04-20T11:17:26.000Z</time>
      </trkpt>
      <trkpt lat="47.16013" lon="-1.4664">
        <ele>76</ele>
        <time>2021-04-20T11:17:28.000Z</time>
      </trkpt>
      <trkpt lat="47.16024" lon="-1.46645">
        <ele>76</ele>
        <time>2021-04-20T11:17:30.000Z</time>
      </trkpt>
      <trkpt lat="47.16034" lon="-1.4665">
        <ele>76</ele>
        <time>2021-04-20T11:17:32.000Z</time>
      </trkpt>
      <trkpt lat="47.16044" lon="-1.46656">
        <ele>76</ele>
        <time>2021-04-20T11:17:34.000Z</time>
      </trkpt>
      <trkpt lat="47.16054" lon="-1.46662">
        <ele>76</ele>
        <time>2021-04-20T11:17:36.000Z</time>
      </trkpt>
      <trkpt lat="47.16064" lon="-1.46668">
        <ele>76</ele>
        <time>2021-04-20T11:17:38.000Z</time>
      </trkpt>
      <trkpt lat="47.16074" lon="-1.46675">
        <ele>76</ele>
        <time>2021-04-20T11:17:40.000Z</time>
      </trkpt>
      <trkpt lat="47.16084" lon="-1.46682">
        <ele>75</ele>
        <time>2021-04-20T11:17:42.000Z</time>
      </trkpt>
      <trkpt lat="47.16095" lon="-1.4669">
        <ele>75</ele>
        <time>2021-04-20T11:17:44.000Z</time>
      </trkpt>
      <trkpt lat="47.16105" lon="-1.46698">
        <ele>75</ele>
        <time>2021-04-20T11:17:46.000Z</time>
      </trkpt>
      <trkpt lat="47.16116" lon="-1.46706">
        <ele>74</ele>
        <time>2021-04-20T11:17:48.000Z</time>
      </trkpt>
      <trkpt lat="47.16128" lon="-1.46714">
        <ele>74</ele>
        <time>2021-04-20T11:17:50.000Z</time>
      </trkpt>
      <trkpt lat="47.1614" lon="-1.46723">
        <ele>74</ele>
        <time>2021-04-20T11:17:52.000Z</time>
      </trkpt>
      <trkpt lat="47.16152" lon="-1.46732">
        <ele>74</ele>
        <time>2021-04-20T11:17:54.000Z</time>
      </trkpt>
      <trkpt lat="47.16164" lon="-1.46742">
        <ele>73</ele>
        <time>2021-04-20T11:17:56.000Z</time>
      </trkpt>
      <trkpt lat="47.16178" lon="-1.46752">
        <ele>73</ele>
        <time>2021-04-20T11:17:58.000Z</time>
      </trkpt>
      <trkpt lat="47.16191" lon="-1.46762">
        <ele>72</ele>
        <time>2021-04-20T11:18:00.000Z</time>
      </trkpt>
      <trkpt lat="47.16205" lon="-1.46772">
        <ele>71</ele>
        <time>2021-04-20T11:18:02.000Z</time>
      </trkpt>
      <trkpt lat="47.1622" lon="-1.46783">
        <ele>71</ele>
        <time>2021-04-20T11:18:04.000Z</time>
      </trkpt>
      <trkpt lat="47.16234" lon="-1.46794">
        <ele>70</ele>
        <time>2021-04-20T11:18:06.000Z</time>
      </trkpt>
      <trkpt lat="47.16248" lon="-1.46801">
        <ele>69</ele>
        <time>2021-04-20T11:18:08.000Z</time>
      </trkpt>
      <trkpt lat="47.16261" lon="-1.46799">
        <ele>69</ele>
        <time>2021-04-20T11:18:10.000Z</time>
      </trkpt>
      <trkpt lat="47.16273" lon="-1.46804">
        <ele>70</ele>
        <time>2021-04-20T11:18:12.000Z</time>
      </trkpt>
      <trkpt lat="47.16284" lon="-1.46816">
        <ele>70</ele>
        <time>2021-04-20T11:18:14.000Z</time>
      </trkpt>
      <trkpt lat="47.16295" lon="-1.4683">
        <ele>69</ele>
        <time>2021-04-20T11:18:16.000Z</time>
      </trkpt>
      <trkpt lat="47.16309" lon="-1.46842">
        <ele>69</ele>
        <time>2021-04-20T11:18:18.000Z</time>
      </trkpt>
      <trkpt lat="47.16322" lon="-1.46854">
        <ele>68</ele>
        <time>2021-04-20T11:18:20.000Z</time>
      </trkpt>
      <trkpt lat="47.16335" lon="-1.46866">
        <ele>67</ele>
        <time>2021-04-20T11:18:22.000Z</time>
      </trkpt>
      <trkpt lat="47.1635" lon="-1.46879">
        <ele>66</ele>
        <time>2021-04-20T11:18:24.000Z</time>
      </trkpt>
      <trkpt lat="47.16358" lon="-1.46885">
        <ele>65</ele>
        <time>2021-04-20T11:18:25.000Z</time>
      </trkpt>
      <trkpt lat="47.16373" lon="-1.46897">
        <ele>65</ele>
        <time>2021-04-20T11:18:27.000Z</time>
      </trkpt>
      <trkpt lat="47.16387" lon="-1.4691">
        <ele>65</ele>
        <time>2021-04-20T11:18:29.000Z</time>
      </trkpt>
      <trkpt lat="47.16398" lon="-1.46927">
        <ele>65</ele>
        <time>2021-04-20T11:18:31.000Z</time>
      </trkpt>
      <trkpt lat="47.16406" lon="-1.46944">
        <ele>65</ele>
        <time>2021-04-20T11:18:33.000Z</time>
      </trkpt>
      <trkpt lat="47.16414" lon="-1.46963">
        <ele>65</ele>
        <time>2021-04-20T11:18:35.000Z</time>
      </trkpt>
      <trkpt lat="47.16421" lon="-1.46981">
        <ele>65</ele>
        <time>2021-04-20T11:18:37.000Z</time>
      </trkpt>
      <trkpt lat="47.16429" lon="-1.46998">
        <ele>65</ele>
        <time>2021-04-20T11:18:39.000Z</time>
      </trkpt>
      <trkpt lat="47.1644" lon="-1.47012">
        <ele>65</ele>
        <time>2021-04-20T11:18:41.000Z</time>
      </trkpt>
      <trkpt lat="47.1645" lon="-1.47024">
        <ele>66</ele>
        <time>2021-04-20T11:18:43.000Z</time>
      </trkpt>
      <trkpt lat="47.16462" lon="-1.47033">
        <ele>66</ele>
        <time>2021-04-20T11:18:45.000Z</time>
      </trkpt>
      <trkpt lat="47.16475" lon="-1.4704">
        <ele>69</ele>
        <time>2021-04-20T11:18:47.000Z</time>
      </trkpt>
      <trkpt lat="47.16486" lon="-1.47045">
        <ele>70</ele>
        <time>2021-04-20T11:18:49.000Z</time>
      </trkpt>
      <trkpt lat="47.16495" lon="-1.47052">
        <ele>70</ele>
        <time>2021-04-20T11:18:51.000Z</time>
      </trkpt>
      <trkpt lat="47.16502" lon="-1.47067">
        <ele>70</ele>
        <time>2021-04-20T11:18:54.000Z</time>
      </trkpt>
      <trkpt lat="47.165" lon="-1.47085">
        <ele>70</ele>
        <time>2021-04-20T11:18:56.000Z</time>
      </trkpt>
      <trkpt lat="47.16497" lon="-1.47101">
        <ele>68</ele>
        <time>2021-04-20T11:18:58.000Z</time>
      </trkpt>
      <trkpt lat="47.16495" lon="-1.47118">
        <ele>67</ele>
        <time>2021-04-20T11:19:00.000Z</time>
      </trkpt>
      <trkpt lat="47.16496" lon="-1.47137">
        <ele>67</ele>
        <time>2021-04-20T11:19:02.000Z</time>
      </trkpt>
      <trkpt lat="47.16497" lon="-1.47154">
        <ele>67</ele>
        <time>2021-04-20T11:19:04.000Z</time>
      </trkpt>
      <trkpt lat="47.16497" lon="-1.47172">
        <ele>67</ele>
        <time>2021-04-20T11:19:06.000Z</time>
      </trkpt>
      <trkpt lat="47.16498" lon="-1.47189">
        <ele>67</ele>
        <time>2021-04-20T11:19:08.000Z</time>
      </trkpt>
      <trkpt lat="47.16499" lon="-1.47207">
        <ele>66</ele>
        <time>2021-04-20T11:19:10.000Z</time>
      </trkpt>
      <trkpt lat="47.16499" lon="-1.47225">
        <ele>66</ele>
        <time>2021-04-20T11:19:12.000Z</time>
      </trkpt>
      <trkpt lat="47.165" lon="-1.47243">
        <ele>65</ele>
        <time>2021-04-20T11:19:14.000Z</time>
      </trkpt>
      <trkpt lat="47.16501" lon="-1.47262">
        <ele>65</ele>
        <time>2021-04-20T11:19:16.000Z</time>
      </trkpt>
      <trkpt lat="47.16502" lon="-1.47281">
        <ele>64</ele>
        <time>2021-04-20T11:19:18.000Z</time>
      </trkpt>
      <trkpt lat="47.16504" lon="-1.47298">
        <ele>64</ele>
        <time>2021-04-20T11:19:20.000Z</time>
      </trkpt>
      <trkpt lat="47.16507" lon="-1.47316">
        <ele>64</ele>
        <time>2021-04-20T11:19:22.000Z</time>
      </trkpt>
      <trkpt lat="47.16509" lon="-1.47332">
        <ele>64</ele>
        <time>2021-04-20T11:19:24.000Z</time>
      </trkpt>
      <trkpt lat="47.16511" lon="-1.47348">
        <ele>64</ele>
        <time>2021-04-20T11:19:26.000Z</time>
      </trkpt>
      <trkpt lat="47.16514" lon="-1.47364">
        <ele>64</ele>
        <time>2021-04-20T11:19:28.000Z</time>
      </trkpt>
      <trkpt lat="47.16523" lon="-1.47372">
        <ele>64</ele>
        <time>2021-04-20T11:19:30.000Z</time>
      </trkpt>
      <trkpt lat="47.16535" lon="-1.47371">
        <ele>64</ele>
        <time>2021-04-20T11:19:32.000Z</time>
      </trkpt>
      <trkpt lat="47.16546" lon="-1.47371">
        <ele>64</ele>
        <time>2021-04-20T11:19:34.000Z</time>
      </trkpt>
      <trkpt lat="47.16558" lon="-1.47369">
        <ele>65</ele>
        <time>2021-04-20T11:19:36.000Z</time>
      </trkpt>
      <trkpt lat="47.1657" lon="-1.47371">
        <ele>66</ele>
        <time>2021-04-20T11:19:38.000Z</time>
      </trkpt>
      <trkpt lat="47.16582" lon="-1.47374">
        <ele>66</ele>
        <time>2021-04-20T11:19:40.000Z</time>
      </trkpt>
      <trkpt lat="47.16595" lon="-1.47377">
        <ele>66</ele>
        <time>2021-04-20T11:19:42.000Z</time>
      </trkpt>
      <trkpt lat="47.16606" lon="-1.4738">
        <ele>67</ele>
        <time>2021-04-20T11:19:44.000Z</time>
      </trkpt>
      <trkpt lat="47.16617" lon="-1.47383">
        <ele>67</ele>
        <time>2021-04-20T11:19:46.000Z</time>
      </trkpt>
      <trkpt lat="47.16628" lon="-1.47387">
        <ele>67</ele>
        <time>2021-04-20T11:19:48.000Z</time>
      </trkpt>
      <trkpt lat="47.16639" lon="-1.47391">
        <ele>68</ele>
        <time>2021-04-20T11:19:50.000Z</time>
      </trkpt>
      <trkpt lat="47.1665" lon="-1.47391">
        <ele>68</ele>
        <time>2021-04-20T11:19:52.000Z</time>
      </trkpt>
      <trkpt lat="47.16661" lon="-1.47388">
        <ele>69</ele>
        <time>2021-04-20T11:19:54.000Z</time>
      </trkpt>
      <trkpt lat="47.16672" lon="-1.47386">
        <ele>69</ele>
        <time>2021-04-20T11:19:56.000Z</time>
      </trkpt>
      <trkpt lat="47.16683" lon="-1.47385">
        <ele>70</ele>
        <time>2021-04-20T11:19:58.000Z</time>
      </trkpt>
      <trkpt lat="47.16694" lon="-1.47383">
        <ele>71</ele>
        <time>2021-04-20T11:20:00.000Z</time>
      </trkpt>
      <trkpt lat="47.16704" lon="-1.4738">
        <ele>72</ele>
        <time>2021-04-20T11:20:02.000Z</time>
      </trkpt>
      <trkpt lat="47.16714" lon="-1.47378">
        <ele>72</ele>
        <time>2021-04-20T11:20:04.000Z</time>
      </trkpt>
      <trkpt lat="47.16724" lon="-1.47375">
        <ele>73</ele>
        <time>2021-04-20T11:20:06.000Z</time>
      </trkpt>
      <trkpt lat="47.16733" lon="-1.47372">
        <ele>74</ele>
        <time>2021-04-20T11:20:08.000Z</time>
      </trkpt>
      <trkpt lat="47.16743" lon="-1.4737">
        <ele>74</ele>
        <time>2021-04-20T11:20:10.000Z</time>
      </trkpt>
      <trkpt lat="47.16753" lon="-1.47368">
        <ele>75</ele>
        <time>2021-04-20T11:20:12.000Z</time>
      </trkpt>
      <trkpt lat="47.16763" lon="-1.47365">
        <ele>75</ele>
        <time>2021-04-20T11:20:14.000Z</time>
      </trkpt>
      <trkpt lat="47.16772" lon="-1.47363">
        <ele>76</ele>
        <time>2021-04-20T11:20:16.000Z</time>
      </trkpt>
      <trkpt lat="47.16781" lon="-1.4736">
        <ele>76</ele>
        <time>2021-04-20T11:20:18.000Z</time>
      </trkpt>
      <trkpt lat="47.16792" lon="-1.47355">
        <ele>77</ele>
        <time>2021-04-20T11:20:21.000Z</time>
      </trkpt>
      <trkpt lat="47.16796" lon="-1.47339">
        <ele>78</ele>
        <time>2021-04-20T11:20:24.000Z</time>
      </trkpt>
      <trkpt lat="47.168" lon="-1.47326">
        <ele>78</ele>
        <time>2021-04-20T11:20:26.000Z</time>
      </trkpt>
      <trkpt lat="47.16811" lon="-1.47325">
        <ele>78</ele>
        <time>2021-04-20T11:20:28.000Z</time>
      </trkpt>
      <trkpt lat="47.16824" lon="-1.47328">
        <ele>79</ele>
        <time>2021-04-20T11:20:31.000Z</time>
      </trkpt>
      <trkpt lat="47.16833" lon="-1.47329">
        <ele>79</ele>
        <time>2021-04-20T11:20:33.000Z</time>
      </trkpt>
      <trkpt lat="47.16847" lon="-1.47331">
        <ele>78</ele>
        <time>2021-04-20T11:20:36.000Z</time>
      </trkpt>
      <trkpt lat="47.16852" lon="-1.47316">
        <ele>79</ele>
        <time>2021-04-20T11:20:39.000Z</time>
      </trkpt>
      <trkpt lat="47.16855" lon="-1.47297">
        <ele>79</ele>
        <time>2021-04-20T11:20:42.000Z</time>
      </trkpt>
      <trkpt lat="47.16864" lon="-1.47285">
        <ele>79</ele>
        <time>2021-04-20T11:20:45.000Z</time>
      </trkpt>
      <trkpt lat="47.16873" lon="-1.47285">
        <ele>79</ele>
        <time>2021-04-20T11:20:47.000Z</time>
      </trkpt>
      <trkpt lat="47.16883" lon="-1.47287">
        <ele>79</ele>
        <time>2021-04-20T11:20:49.000Z</time>
      </trkpt>
      <trkpt lat="47.16893" lon="-1.47289">
        <ele>79</ele>
        <time>2021-04-20T11:20:51.000Z</time>
      </trkpt>
      <trkpt lat="47.16903" lon="-1.4729">
        <ele>79</ele>
        <time>2021-04-20T11:20:53.000Z</time>
      </trkpt>
      <trkpt lat="47.16913" lon="-1.47291">
        <ele>79</ele>
        <time>2021-04-20T11:20:55.000Z</time>
      </trkpt>
      <trkpt lat="47.16923" lon="-1.47293">
        <ele>79</ele>
        <time>2021-04-20T11:20:57.000Z</time>
      </trkpt>
      <trkpt lat="47.16935" lon="-1.47293">
        <ele>79</ele>
        <time>2021-04-20T11:20:59.000Z</time>
      </trkpt>
      <trkpt lat="47.16946" lon="-1.47294">
        <ele>80</ele>
        <time>2021-04-20T11:21:01.000Z</time>
      </trkpt>
      <trkpt lat="47.16955" lon="-1.47302">
        <ele>80</ele>
        <time>2021-04-20T11:21:03.000Z</time>
      </trkpt>
      <trkpt lat="47.16962" lon="-1.47316">
        <ele>80</ele>
        <time>2021-04-20T11:21:05.000Z</time>
      </trkpt>
      <trkpt lat="47.16971" lon="-1.47326">
        <ele>78</ele>
        <time>2021-04-20T11:21:07.000Z</time>
      </trkpt>
      <trkpt lat="47.16985" lon="-1.47325">
        <ele>78</ele>
        <time>2021-04-20T11:21:09.000Z</time>
      </trkpt>
      <trkpt lat="47.16998" lon="-1.47324">
        <ele>76</ele>
        <time>2021-04-20T11:21:11.000Z</time>
      </trkpt>
      <trkpt lat="47.17013" lon="-1.47322">
        <ele>76</ele>
        <time>2021-04-20T11:21:13.000Z</time>
      </trkpt>
      <trkpt lat="47.17028" lon="-1.4732">
        <ele>75</ele>
        <time>2021-04-20T11:21:15.000Z</time>
      </trkpt>
      <trkpt lat="47.17045" lon="-1.47318">
        <ele>74</ele>
        <time>2021-04-20T11:21:17.000Z</time>
      </trkpt>
      <trkpt lat="47.17063" lon="-1.47316">
        <ele>73</ele>
        <time>2021-04-20T11:21:19.000Z</time>
      </trkpt>
      <trkpt lat="47.17072" lon="-1.47314">
        <ele>72</ele>
        <time>2021-04-20T11:21:20.000Z</time>
      </trkpt>
      <trkpt lat="47.17082" lon="-1.47312">
        <ele>71</ele>
        <time>2021-04-20T11:21:21.000Z</time>
      </trkpt>
      <trkpt lat="47.17091" lon="-1.47312">
        <ele>70</ele>
        <time>2021-04-20T11:21:22.000Z</time>
      </trkpt>
      <trkpt lat="47.17102" lon="-1.47311">
        <ele>69</ele>
        <time>2021-04-20T11:21:23.000Z</time>
      </trkpt>
      <trkpt lat="47.17112" lon="-1.47309">
        <ele>67</ele>
        <time>2021-04-20T11:21:24.000Z</time>
      </trkpt>
      <trkpt lat="47.17122" lon="-1.47308">
        <ele>66</ele>
        <time>2021-04-20T11:21:25.000Z</time>
      </trkpt>
      <trkpt lat="47.17132" lon="-1.47306">
        <ele>65</ele>
        <time>2021-04-20T11:21:26.000Z</time>
      </trkpt>
      <trkpt lat="47.17141" lon="-1.47305">
        <ele>64</ele>
        <time>2021-04-20T11:21:27.000Z</time>
      </trkpt>
      <trkpt lat="47.17151" lon="-1.47304">
        <ele>63</ele>
        <time>2021-04-20T11:21:28.000Z</time>
      </trkpt>
      <trkpt lat="47.17162" lon="-1.47303">
        <ele>63</ele>
        <time>2021-04-20T11:21:29.000Z</time>
      </trkpt>
      <trkpt lat="47.17172" lon="-1.47301">
        <ele>62</ele>
        <time>2021-04-20T11:21:30.000Z</time>
      </trkpt>
      <trkpt lat="47.17182" lon="-1.473">
        <ele>62</ele>
        <time>2021-04-20T11:21:31.000Z</time>
      </trkpt>
      <trkpt lat="47.17193" lon="-1.47298">
        <ele>61</ele>
        <time>2021-04-20T11:21:32.000Z</time>
      </trkpt>
      <trkpt lat="47.17202" lon="-1.47297">
        <ele>60</ele>
        <time>2021-04-20T11:21:33.000Z</time>
      </trkpt>
      <trkpt lat="47.17212" lon="-1.47296">
        <ele>60</ele>
        <time>2021-04-20T11:21:34.000Z</time>
      </trkpt>
      <trkpt lat="47.17221" lon="-1.47295">
        <ele>59</ele>
        <time>2021-04-20T11:21:35.000Z</time>
      </trkpt>
      <trkpt lat="47.1723" lon="-1.47294">
        <ele>59</ele>
        <time>2021-04-20T11:21:36.000Z</time>
      </trkpt>
      <trkpt lat="47.1724" lon="-1.47293">
        <ele>59</ele>
        <time>2021-04-20T11:21:37.000Z</time>
      </trkpt>
      <trkpt lat="47.17249" lon="-1.47292">
        <ele>59</ele>
        <time>2021-04-20T11:21:38.000Z</time>
      </trkpt>
      <trkpt lat="47.17258" lon="-1.4729">
        <ele>59</ele>
        <time>2021-04-20T11:21:39.000Z</time>
      </trkpt>
      <trkpt lat="47.17271" lon="-1.4728">
        <ele>59</ele>
        <time>2021-04-20T11:21:41.000Z</time>
      </trkpt>
      <trkpt lat="47.17284" lon="-1.47277">
        <ele>58</ele>
        <time>2021-04-20T11:21:43.000Z</time>
      </trkpt>
      <trkpt lat="47.17292" lon="-1.4729">
        <ele>58</ele>
        <time>2021-04-20T11:21:45.000Z</time>
      </trkpt>
      <trkpt lat="47.17295" lon="-1.47312">
        <ele>58</ele>
        <time>2021-04-20T11:21:47.000Z</time>
      </trkpt>
      <trkpt lat="47.17299" lon="-1.47333">
        <ele>58</ele>
        <time>2021-04-20T11:21:49.000Z</time>
      </trkpt>
      <trkpt lat="47.17304" lon="-1.47354">
        <ele>57</ele>
        <time>2021-04-20T11:21:51.000Z</time>
      </trkpt>
      <trkpt lat="47.17315" lon="-1.47367">
        <ele>57</ele>
        <time>2021-04-20T11:21:53.000Z</time>
      </trkpt>
      <trkpt lat="47.17329" lon="-1.47365">
        <ele>57</ele>
        <time>2021-04-20T11:21:55.000Z</time>
      </trkpt>
      <trkpt lat="47.17344" lon="-1.47362">
        <ele>56</ele>
        <time>2021-04-20T11:21:57.000Z</time>
      </trkpt>
      <trkpt lat="47.17358" lon="-1.47358">
        <ele>56</ele>
        <time>2021-04-20T11:21:59.000Z</time>
      </trkpt>
      <trkpt lat="47.17373" lon="-1.47356">
        <ele>56</ele>
        <time>2021-04-20T11:22:01.000Z</time>
      </trkpt>
      <trkpt lat="47.17387" lon="-1.47354">
        <ele>56</ele>
        <time>2021-04-20T11:22:03.000Z</time>
      </trkpt>
      <trkpt lat="47.17401" lon="-1.47353">
        <ele>56</ele>
        <time>2021-04-20T11:22:05.000Z</time>
      </trkpt>
      <trkpt lat="47.17415" lon="-1.47351">
        <ele>56</ele>
        <time>2021-04-20T11:22:07.000Z</time>
      </trkpt>
      <trkpt lat="47.17429" lon="-1.47349">
        <ele>55</ele>
        <time>2021-04-20T11:22:09.000Z</time>
      </trkpt>
      <trkpt lat="47.17443" lon="-1.47349">
        <ele>55</ele>
        <time>2021-04-20T11:22:11.000Z</time>
      </trkpt>
      <trkpt lat="47.17458" lon="-1.4735">
        <ele>55</ele>
        <time>2021-04-20T11:22:13.000Z</time>
      </trkpt>
      <trkpt lat="47.17473" lon="-1.4735">
        <ele>54</ele>
        <time>2021-04-20T11:22:15.000Z</time>
      </trkpt>
      <trkpt lat="47.17488" lon="-1.4735">
        <ele>54</ele>
        <time>2021-04-20T11:22:17.000Z</time>
      </trkpt>
      <trkpt lat="47.17503" lon="-1.47351">
        <ele>54</ele>
        <time>2021-04-20T11:22:19.000Z</time>
      </trkpt>
      <trkpt lat="47.17518" lon="-1.47352">
        <ele>53</ele>
        <time>2021-04-20T11:22:21.000Z</time>
      </trkpt>
      <trkpt lat="47.17534" lon="-1.47352">
        <ele>53</ele>
        <time>2021-04-20T11:22:23.000Z</time>
      </trkpt>
      <trkpt lat="47.1755" lon="-1.47353">
        <ele>52</ele>
        <time>2021-04-20T11:22:25.000Z</time>
      </trkpt>
      <trkpt lat="47.17566" lon="-1.47355">
        <ele>52</ele>
        <time>2021-04-20T11:22:27.000Z</time>
      </trkpt>
      <trkpt lat="47.17581" lon="-1.47356">
        <ele>51</ele>
        <time>2021-04-20T11:22:29.000Z</time>
      </trkpt>
      <trkpt lat="47.17596" lon="-1.4736">
        <ele>51</ele>
        <time>2021-04-20T11:22:31.000Z</time>
      </trkpt>
      <trkpt lat="47.17612" lon="-1.47364">
        <ele>51</ele>
        <time>2021-04-20T11:22:33.000Z</time>
      </trkpt>
      <trkpt lat="47.17627" lon="-1.47368">
        <ele>51</ele>
        <time>2021-04-20T11:22:35.000Z</time>
      </trkpt>
      <trkpt lat="47.17642" lon="-1.47374">
        <ele>51</ele>
        <time>2021-04-20T11:22:37.000Z</time>
      </trkpt>
      <trkpt lat="47.17656" lon="-1.47382">
        <ele>51</ele>
        <time>2021-04-20T11:22:39.000Z</time>
      </trkpt>
      <trkpt lat="47.1767" lon="-1.47389">
        <ele>52</ele>
        <time>2021-04-20T11:22:41.000Z</time>
      </trkpt>
      <trkpt lat="47.17684" lon="-1.47396">
        <ele>53</ele>
        <time>2021-04-20T11:22:43.000Z</time>
      </trkpt>
      <trkpt lat="47.17697" lon="-1.47403">
        <ele>53</ele>
        <time>2021-04-20T11:22:45.000Z</time>
      </trkpt>
      <trkpt lat="47.17711" lon="-1.47408">
        <ele>53</ele>
        <time>2021-04-20T11:22:47.000Z</time>
      </trkpt>
      <trkpt lat="47.17724" lon="-1.47414">
        <ele>53</ele>
        <time>2021-04-20T11:22:49.000Z</time>
      </trkpt>
      <trkpt lat="47.17737" lon="-1.47422">
        <ele>53</ele>
        <time>2021-04-20T11:22:51.000Z</time>
      </trkpt>
      <trkpt lat="47.1775" lon="-1.47428">
        <ele>53</ele>
        <time>2021-04-20T11:22:53.000Z</time>
      </trkpt>
      <trkpt lat="47.17764" lon="-1.47436">
        <ele>53</ele>
        <time>2021-04-20T11:22:55.000Z</time>
      </trkpt>
      <trkpt lat="47.17778" lon="-1.47443">
        <ele>53</ele>
        <time>2021-04-20T11:22:57.000Z</time>
      </trkpt>
      <trkpt lat="47.17792" lon="-1.47449">
        <ele>53</ele>
        <time>2021-04-20T11:22:59.000Z</time>
      </trkpt>
      <trkpt lat="47.17806" lon="-1.47455">
        <ele>53</ele>
        <time>2021-04-20T11:23:01.000Z</time>
      </trkpt>
      <trkpt lat="47.17821" lon="-1.4746">
        <ele>52</ele>
        <time>2021-04-20T11:23:03.000Z</time>
      </trkpt>
      <trkpt lat="47.17836" lon="-1.47464">
        <ele>53</ele>
        <time>2021-04-20T11:23:05.000Z</time>
      </trkpt>
      <trkpt lat="47.1785" lon="-1.47468">
        <ele>52</ele>
        <time>2021-04-20T11:23:07.000Z</time>
      </trkpt>
      <trkpt lat="47.17864" lon="-1.47471">
        <ele>53</ele>
        <time>2021-04-20T11:23:09.000Z</time>
      </trkpt>
      <trkpt lat="47.17877" lon="-1.47474">
        <ele>53</ele>
        <time>2021-04-20T11:23:11.000Z</time>
      </trkpt>
      <trkpt lat="47.17888" lon="-1.47473">
        <ele>52</ele>
        <time>2021-04-20T11:23:13.000Z</time>
      </trkpt>
      <trkpt lat="47.179" lon="-1.47466">
        <ele>52</ele>
        <time>2021-04-20T11:23:15.000Z</time>
      </trkpt>
      <trkpt lat="47.17914" lon="-1.47466">
        <ele>52</ele>
        <time>2021-04-20T11:23:17.000Z</time>
      </trkpt>
      <trkpt lat="47.17927" lon="-1.4748">
        <ele>53</ele>
        <time>2021-04-20T11:23:19.000Z</time>
      </trkpt>
      <trkpt lat="47.1794" lon="-1.47491">
        <ele>53</ele>
        <time>2021-04-20T11:23:21.000Z</time>
      </trkpt>
      <trkpt lat="47.17955" lon="-1.47493">
        <ele>52</ele>
        <time>2021-04-20T11:23:23.000Z</time>
      </trkpt>
      <trkpt lat="47.17969" lon="-1.47497">
        <ele>52</ele>
        <time>2021-04-20T11:23:25.000Z</time>
      </trkpt>
      <trkpt lat="47.17983" lon="-1.47501">
        <ele>53</ele>
        <time>2021-04-20T11:23:27.000Z</time>
      </trkpt>
      <trkpt lat="47.17997" lon="-1.47504">
        <ele>53</ele>
        <time>2021-04-20T11:23:29.000Z</time>
      </trkpt>
      <trkpt lat="47.18012" lon="-1.47508">
        <ele>53</ele>
        <time>2021-04-20T11:23:31.000Z</time>
      </trkpt>
      <trkpt lat="47.18027" lon="-1.47512">
        <ele>53</ele>
        <time>2021-04-20T11:23:33.000Z</time>
      </trkpt>
      <trkpt lat="47.18041" lon="-1.47516">
        <ele>54</ele>
        <time>2021-04-20T11:23:35.000Z</time>
      </trkpt>
      <trkpt lat="47.18055" lon="-1.47519">
        <ele>54</ele>
        <time>2021-04-20T11:23:37.000Z</time>
      </trkpt>
      <trkpt lat="47.18069" lon="-1.47523">
        <ele>54</ele>
        <time>2021-04-20T11:23:39.000Z</time>
      </trkpt>
      <trkpt lat="47.18083" lon="-1.47526">
        <ele>54</ele>
        <time>2021-04-20T11:23:41.000Z</time>
      </trkpt>
      <trkpt lat="47.18096" lon="-1.4753">
        <ele>54</ele>
        <time>2021-04-20T11:23:43.000Z</time>
      </trkpt>
      <trkpt lat="47.1811" lon="-1.47534">
        <ele>54</ele>
        <time>2021-04-20T11:23:45.000Z</time>
      </trkpt>
      <trkpt lat="47.18123" lon="-1.47537">
        <ele>54</ele>
        <time>2021-04-20T11:23:47.000Z</time>
      </trkpt>
      <trkpt lat="47.18136" lon="-1.47541">
        <ele>55</ele>
        <time>2021-04-20T11:23:49.000Z</time>
      </trkpt>
      <trkpt lat="47.1815" lon="-1.47543">
        <ele>56</ele>
        <time>2021-04-20T11:23:51.000Z</time>
      </trkpt>
      <trkpt lat="47.18163" lon="-1.47547">
        <ele>56</ele>
        <time>2021-04-20T11:23:53.000Z</time>
      </trkpt>
      <trkpt lat="47.18176" lon="-1.47549">
        <ele>56</ele>
        <time>2021-04-20T11:23:55.000Z</time>
      </trkpt>
      <trkpt lat="47.18189" lon="-1.47553">
        <ele>56</ele>
        <time>2021-04-20T11:23:57.000Z</time>
      </trkpt>
      <trkpt lat="47.18202" lon="-1.47556">
        <ele>56</ele>
        <time>2021-04-20T11:23:59.000Z</time>
      </trkpt>
      <trkpt lat="47.18216" lon="-1.4756">
        <ele>57</ele>
        <time>2021-04-20T11:24:01.000Z</time>
      </trkpt>
      <trkpt lat="47.18229" lon="-1.47564">
        <ele>57</ele>
        <time>2021-04-20T11:24:03.000Z</time>
      </trkpt>
      <trkpt lat="47.18243" lon="-1.47567">
        <ele>57</ele>
        <time>2021-04-20T11:24:05.000Z</time>
      </trkpt>
      <trkpt lat="47.18256" lon="-1.47571">
        <ele>58</ele>
        <time>2021-04-20T11:24:07.000Z</time>
      </trkpt>
      <trkpt lat="47.18268" lon="-1.47575">
        <ele>58</ele>
        <time>2021-04-20T11:24:09.000Z</time>
      </trkpt>
      <trkpt lat="47.18281" lon="-1.47578">
        <ele>58</ele>
        <time>2021-04-20T11:24:11.000Z</time>
      </trkpt>
      <trkpt lat="47.18294" lon="-1.47583">
        <ele>59</ele>
        <time>2021-04-20T11:24:13.000Z</time>
      </trkpt>
      <trkpt lat="47.18306" lon="-1.47586">
        <ele>59</ele>
        <time>2021-04-20T11:24:15.000Z</time>
      </trkpt>
      <trkpt lat="47.18317" lon="-1.4759">
        <ele>60</ele>
        <time>2021-04-20T11:24:17.000Z</time>
      </trkpt>
      <trkpt lat="47.18329" lon="-1.47593">
        <ele>60</ele>
        <time>2021-04-20T11:24:19.000Z</time>
      </trkpt>
      <trkpt lat="47.18341" lon="-1.47596">
        <ele>61</ele>
        <time>2021-04-20T11:24:21.000Z</time>
      </trkpt>
      <trkpt lat="47.18353" lon="-1.47599">
        <ele>61</ele>
        <time>2021-04-20T11:24:23.000Z</time>
      </trkpt>
      <trkpt lat="47.18364" lon="-1.47601">
        <ele>62</ele>
        <time>2021-04-20T11:24:25.000Z</time>
      </trkpt>
      <trkpt lat="47.18374" lon="-1.47602">
        <ele>62</ele>
        <time>2021-04-20T11:24:27.000Z</time>
      </trkpt>
      <trkpt lat="47.18385" lon="-1.47605">
        <ele>62</ele>
        <time>2021-04-20T11:24:30.000Z</time>
      </trkpt>
      <trkpt lat="47.18394" lon="-1.47606">
        <ele>62</ele>
        <time>2021-04-20T11:24:52.000Z</time>
      </trkpt>
      <trkpt lat="47.18406" lon="-1.47609">
        <ele>63</ele>
        <time>2021-04-20T11:24:55.000Z</time>
      </trkpt>
      <trkpt lat="47.18416" lon="-1.47612">
        <ele>64</ele>
        <time>2021-04-20T11:24:57.000Z</time>
      </trkpt>
      <trkpt lat="47.18427" lon="-1.47616">
        <ele>64</ele>
        <time>2021-04-20T11:24:59.000Z</time>
      </trkpt>
      <trkpt lat="47.18438" lon="-1.47619">
        <ele>64</ele>
        <time>2021-04-20T11:25:01.000Z</time>
      </trkpt>
      <trkpt lat="47.18449" lon="-1.47622">
        <ele>65</ele>
        <time>2021-04-20T11:25:03.000Z</time>
      </trkpt>
      <trkpt lat="47.18461" lon="-1.47625">
        <ele>65</ele>
        <time>2021-04-20T11:25:05.000Z</time>
      </trkpt>
      <trkpt lat="47.18473" lon="-1.47628">
        <ele>66</ele>
        <time>2021-04-20T11:25:07.000Z</time>
      </trkpt>
      <trkpt lat="47.18484" lon="-1.47632">
        <ele>67</ele>
        <time>2021-04-20T11:25:09.000Z</time>
      </trkpt>
      <trkpt lat="47.18495" lon="-1.47635">
        <ele>67</ele>
        <time>2021-04-20T11:25:11.000Z</time>
      </trkpt>
      <trkpt lat="47.18505" lon="-1.47638">
        <ele>67</ele>
        <time>2021-04-20T11:25:13.000Z</time>
      </trkpt>
      <trkpt lat="47.18516" lon="-1.47641">
        <ele>67</ele>
        <time>2021-04-20T11:25:15.000Z</time>
      </trkpt>
      <trkpt lat="47.18528" lon="-1.47643">
        <ele>67</ele>
        <time>2021-04-20T11:25:17.000Z</time>
      </trkpt>
      <trkpt lat="47.18539" lon="-1.47646">
        <ele>69</ele>
        <time>2021-04-20T11:25:19.000Z</time>
      </trkpt>
      <trkpt lat="47.18551" lon="-1.4765">
        <ele>70</ele>
        <time>2021-04-20T11:25:21.000Z</time>
      </trkpt>
      <trkpt lat="47.18561" lon="-1.47653">
        <ele>70</ele>
        <time>2021-04-20T11:25:23.000Z</time>
      </trkpt>
      <trkpt lat="47.18571" lon="-1.47657">
        <ele>71</ele>
        <time>2021-04-20T11:25:25.000Z</time>
      </trkpt>
      <trkpt lat="47.18581" lon="-1.4766">
        <ele>71</ele>
        <time>2021-04-20T11:25:27.000Z</time>
      </trkpt>
      <trkpt lat="47.1859" lon="-1.47662">
        <ele>71</ele>
        <time>2021-04-20T11:25:29.000Z</time>
      </trkpt>
      <trkpt lat="47.18601" lon="-1.47665">
        <ele>71</ele>
        <time>2021-04-20T11:25:31.000Z</time>
      </trkpt>
      <trkpt lat="47.18612" lon="-1.4767">
        <ele>71</ele>
        <time>2021-04-20T11:25:33.000Z</time>
      </trkpt>
      <trkpt lat="47.18623" lon="-1.4767">
        <ele>71</ele>
        <time>2021-04-20T11:25:35.000Z</time>
      </trkpt>
      <trkpt lat="47.18635" lon="-1.47672">
        <ele>71</ele>
        <time>2021-04-20T11:25:37.000Z</time>
      </trkpt>
      <trkpt lat="47.18647" lon="-1.47675">
        <ele>72</ele>
        <time>2021-04-20T11:25:39.000Z</time>
      </trkpt>
      <trkpt lat="47.18657" lon="-1.47678">
        <ele>72</ele>
        <time>2021-04-20T11:25:41.000Z</time>
      </trkpt>
      <trkpt lat="47.18669" lon="-1.47681">
        <ele>72</ele>
        <time>2021-04-20T11:25:44.000Z</time>
      </trkpt>
      <trkpt lat="47.1868" lon="-1.47683">
        <ele>73</ele>
        <time>2021-04-20T11:25:49.000Z</time>
      </trkpt>
      <trkpt lat="47.18689" lon="-1.47682">
        <ele>73</ele>
        <time>2021-04-20T11:25:51.000Z</time>
      </trkpt>
      <trkpt lat="47.18699" lon="-1.4768">
        <ele>73</ele>
        <time>2021-04-20T11:25:53.000Z</time>
      </trkpt>
      <trkpt lat="47.18709" lon="-1.47674">
        <ele>74</ele>
        <time>2021-04-20T11:25:55.000Z</time>
      </trkpt>
      <trkpt lat="47.18716" lon="-1.4766">
        <ele>73</ele>
        <time>2021-04-20T11:25:57.000Z</time>
      </trkpt>
      <trkpt lat="47.18722" lon="-1.47645">
        <ele>72</ele>
        <time>2021-04-20T11:25:59.000Z</time>
      </trkpt>
      <trkpt lat="47.18728" lon="-1.47631">
        <ele>73</ele>
        <time>2021-04-20T11:26:01.000Z</time>
      </trkpt>
      <trkpt lat="47.18734" lon="-1.47617">
        <ele>73</ele>
        <time>2021-04-20T11:26:03.000Z</time>
      </trkpt>
      <trkpt lat="47.18741" lon="-1.47603">
        <ele>73</ele>
        <time>2021-04-20T11:26:05.000Z</time>
      </trkpt>
      <trkpt lat="47.18747" lon="-1.4759">
        <ele>73</ele>
        <time>2021-04-20T11:26:07.000Z</time>
      </trkpt>
      <trkpt lat="47.18753" lon="-1.47576">
        <ele>74</ele>
        <time>2021-04-20T11:26:09.000Z</time>
      </trkpt>
      <trkpt lat="47.18759" lon="-1.47563">
        <ele>74</ele>
        <time>2021-04-20T11:26:11.000Z</time>
      </trkpt>
      <trkpt lat="47.18766" lon="-1.4755">
        <ele>73</ele>
        <time>2021-04-20T11:26:13.000Z</time>
      </trkpt>
      <trkpt lat="47.18772" lon="-1.47537">
        <ele>73</ele>
        <time>2021-04-20T11:26:15.000Z</time>
      </trkpt>
      <trkpt lat="47.18779" lon="-1.47523">
        <ele>73</ele>
        <time>2021-04-20T11:26:17.000Z</time>
      </trkpt>
      <trkpt lat="47.18786" lon="-1.47509">
        <ele>74</ele>
        <time>2021-04-20T11:26:19.000Z</time>
      </trkpt>
      <trkpt lat="47.18792" lon="-1.47496">
        <ele>73</ele>
        <time>2021-04-20T11:26:21.000Z</time>
      </trkpt>
      <trkpt lat="47.18798" lon="-1.47482">
        <ele>74</ele>
        <time>2021-04-20T11:26:23.000Z</time>
      </trkpt>
      <trkpt lat="47.18804" lon="-1.47469">
        <ele>74</ele>
        <time>2021-04-20T11:26:25.000Z</time>
      </trkpt>
      <trkpt lat="47.18811" lon="-1.47455">
        <ele>73</ele>
        <time>2021-04-20T11:26:27.000Z</time>
      </trkpt>
      <trkpt lat="47.18818" lon="-1.47442">
        <ele>73</ele>
        <time>2021-04-20T11:26:29.000Z</time>
      </trkpt>
      <trkpt lat="47.18824" lon="-1.47429">
        <ele>73</ele>
        <time>2021-04-20T11:26:31.000Z</time>
      </trkpt>
      <trkpt lat="47.1883" lon="-1.47416">
        <ele>74</ele>
        <time>2021-04-20T11:26:33.000Z</time>
      </trkpt>
      <trkpt lat="47.18837" lon="-1.47404">
        <ele>75</ele>
        <time>2021-04-20T11:26:35.000Z</time>
      </trkpt>
      <trkpt lat="47.18843" lon="-1.47392">
        <ele>75</ele>
        <time>2021-04-20T11:26:37.000Z</time>
      </trkpt>
      <trkpt lat="47.18849" lon="-1.47379">
        <ele>75</ele>
        <time>2021-04-20T11:26:39.000Z</time>
      </trkpt>
      <trkpt lat="47.18855" lon="-1.47365">
        <ele>75</ele>
        <time>2021-04-20T11:26:41.000Z</time>
      </trkpt>
      <trkpt lat="47.18862" lon="-1.47351">
        <ele>75</ele>
        <time>2021-04-20T11:26:43.000Z</time>
      </trkpt>
      <trkpt lat="47.18868" lon="-1.47337">
        <ele>76</ele>
        <time>2021-04-20T11:26:45.000Z</time>
      </trkpt>
      <trkpt lat="47.18874" lon="-1.47325">
        <ele>77</ele>
        <time>2021-04-20T11:26:47.000Z</time>
      </trkpt>
      <trkpt lat="47.1888" lon="-1.47312">
        <ele>78</ele>
        <time>2021-04-20T11:26:49.000Z</time>
      </trkpt>
      <trkpt lat="47.18887" lon="-1.47299">
        <ele>78</ele>
        <time>2021-04-20T11:26:51.000Z</time>
      </trkpt>
      <trkpt lat="47.18893" lon="-1.47287">
        <ele>79</ele>
        <time>2021-04-20T11:26:53.000Z</time>
      </trkpt>
      <trkpt lat="47.189" lon="-1.47275">
        <ele>78</ele>
        <time>2021-04-20T11:26:55.000Z</time>
      </trkpt>
      <trkpt lat="47.18906" lon="-1.47263">
        <ele>78</ele>
        <time>2021-04-20T11:26:57.000Z</time>
      </trkpt>
      <trkpt lat="47.18912" lon="-1.47251">
        <ele>78</ele>
        <time>2021-04-20T11:26:59.000Z</time>
      </trkpt>
      <trkpt lat="47.18918" lon="-1.4724">
        <ele>78</ele>
        <time>2021-04-20T11:27:01.000Z</time>
      </trkpt>
      <trkpt lat="47.18924" lon="-1.47228">
        <ele>78</ele>
        <time>2021-04-20T11:27:03.000Z</time>
      </trkpt>
      <trkpt lat="47.18929" lon="-1.47215">
        <ele>78</ele>
        <time>2021-04-20T11:27:05.000Z</time>
      </trkpt>
      <trkpt lat="47.1893" lon="-1.472">
        <ele>79</ele>
        <time>2021-04-20T11:27:07.000Z</time>
      </trkpt>
      <trkpt lat="47.18933" lon="-1.47185">
        <ele>78</ele>
        <time>2021-04-20T11:27:09.000Z</time>
      </trkpt>
      <trkpt lat="47.18939" lon="-1.47172">
        <ele>78</ele>
        <time>2021-04-20T11:27:11.000Z</time>
      </trkpt>
      <trkpt lat="47.18947" lon="-1.47163">
        <ele>77</ele>
        <time>2021-04-20T11:27:13.000Z</time>
      </trkpt>
      <trkpt lat="47.18955" lon="-1.47152">
        <ele>76</ele>
        <time>2021-04-20T11:27:15.000Z</time>
      </trkpt>
      <trkpt lat="47.1896" lon="-1.4714">
        <ele>76</ele>
        <time>2021-04-20T11:27:17.000Z</time>
      </trkpt>
      <trkpt lat="47.18965" lon="-1.47126">
        <ele>75</ele>
        <time>2021-04-20T11:27:19.000Z</time>
      </trkpt>
      <trkpt lat="47.18972" lon="-1.4711">
        <ele>76</ele>
        <time>2021-04-20T11:27:21.000Z</time>
      </trkpt>
      <trkpt lat="47.1898" lon="-1.47095">
        <ele>76</ele>
        <time>2021-04-20T11:27:23.000Z</time>
      </trkpt>
      <trkpt lat="47.18987" lon="-1.47079">
        <ele>76</ele>
        <time>2021-04-20T11:27:25.000Z</time>
      </trkpt>
      <trkpt lat="47.18996" lon="-1.47062">
        <ele>76</ele>
        <time>2021-04-20T11:27:27.000Z</time>
      </trkpt>
      <trkpt lat="47.19005" lon="-1.47047">
        <ele>75</ele>
        <time>2021-04-20T11:27:29.000Z</time>
      </trkpt>
      <trkpt lat="47.19014" lon="-1.47031">
        <ele>74</ele>
        <time>2021-04-20T11:27:31.000Z</time>
      </trkpt>
      <trkpt lat="47.19022" lon="-1.47016">
        <ele>73</ele>
        <time>2021-04-20T11:27:33.000Z</time>
      </trkpt>
      <trkpt lat="47.19029" lon="-1.47">
        <ele>73</ele>
        <time>2021-04-20T11:27:35.000Z</time>
      </trkpt>
      <trkpt lat="47.19038" lon="-1.46985">
        <ele>73</ele>
        <time>2021-04-20T11:27:37.000Z</time>
      </trkpt>
      <trkpt lat="47.19045" lon="-1.46969">
        <ele>73</ele>
        <time>2021-04-20T11:27:39.000Z</time>
      </trkpt>
      <trkpt lat="47.19052" lon="-1.46954">
        <ele>73</ele>
        <time>2021-04-20T11:27:41.000Z</time>
      </trkpt>
      <trkpt lat="47.19059" lon="-1.4694">
        <ele>73</ele>
        <time>2021-04-20T11:27:43.000Z</time>
      </trkpt>
      <trkpt lat="47.19066" lon="-1.46925">
        <ele>72</ele>
        <time>2021-04-20T11:27:45.000Z</time>
      </trkpt>
      <trkpt lat="47.19073" lon="-1.46911">
        <ele>73</ele>
        <time>2021-04-20T11:27:47.000Z</time>
      </trkpt>
      <trkpt lat="47.1908" lon="-1.46896">
        <ele>73</ele>
        <time>2021-04-20T11:27:49.000Z</time>
      </trkpt>
      <trkpt lat="47.19086" lon="-1.46882">
        <ele>73</ele>
        <time>2021-04-20T11:27:51.000Z</time>
      </trkpt>
      <trkpt lat="47.19092" lon="-1.46868">
        <ele>73</ele>
        <time>2021-04-20T11:27:53.000Z</time>
      </trkpt>
      <trkpt lat="47.19099" lon="-1.46854">
        <ele>73</ele>
        <time>2021-04-20T11:27:55.000Z</time>
      </trkpt>
      <trkpt lat="47.19106" lon="-1.46841">
        <ele>73</ele>
        <time>2021-04-20T11:27:57.000Z</time>
      </trkpt>
      <trkpt lat="47.19113" lon="-1.46827">
        <ele>73</ele>
        <time>2021-04-20T11:27:59.000Z</time>
      </trkpt>
      <trkpt lat="47.19119" lon="-1.46812">
        <ele>74</ele>
        <time>2021-04-20T11:28:01.000Z</time>
      </trkpt>
      <trkpt lat="47.19126" lon="-1.46797">
        <ele>74</ele>
        <time>2021-04-20T11:28:03.000Z</time>
      </trkpt>
      <trkpt lat="47.19133" lon="-1.46782">
        <ele>74</ele>
        <time>2021-04-20T11:28:05.000Z</time>
      </trkpt>
      <trkpt lat="47.1914" lon="-1.46768">
        <ele>74</ele>
        <time>2021-04-20T11:28:07.000Z</time>
      </trkpt>
      <trkpt lat="47.19147" lon="-1.46754">
        <ele>74</ele>
        <time>2021-04-20T11:28:09.000Z</time>
      </trkpt>
      <trkpt lat="47.19154" lon="-1.46741">
        <ele>74</ele>
        <time>2021-04-20T11:28:11.000Z</time>
      </trkpt>
      <trkpt lat="47.1916" lon="-1.46727">
        <ele>74</ele>
        <time>2021-04-20T11:28:13.000Z</time>
      </trkpt>
      <trkpt lat="47.19166" lon="-1.46714">
        <ele>74</ele>
        <time>2021-04-20T11:28:15.000Z</time>
      </trkpt>
      <trkpt lat="47.19172" lon="-1.467">
        <ele>74</ele>
        <time>2021-04-20T11:28:17.000Z</time>
      </trkpt>
      <trkpt lat="47.19178" lon="-1.46687">
        <ele>74</ele>
        <time>2021-04-20T11:28:19.000Z</time>
      </trkpt>
      <trkpt lat="47.19185" lon="-1.46674">
        <ele>74</ele>
        <time>2021-04-20T11:28:21.000Z</time>
      </trkpt>
      <trkpt lat="47.19192" lon="-1.46659">
        <ele>74</ele>
        <time>2021-04-20T11:28:23.000Z</time>
      </trkpt>
      <trkpt lat="47.19198" lon="-1.46645">
        <ele>74</ele>
        <time>2021-04-20T11:28:25.000Z</time>
      </trkpt>
      <trkpt lat="47.19205" lon="-1.46631">
        <ele>74</ele>
        <time>2021-04-20T11:28:27.000Z</time>
      </trkpt>
      <trkpt lat="47.19212" lon="-1.46617">
        <ele>74</ele>
        <time>2021-04-20T11:28:29.000Z</time>
      </trkpt>
      <trkpt lat="47.19219" lon="-1.46603">
        <ele>75</ele>
        <time>2021-04-20T11:28:31.000Z</time>
      </trkpt>
      <trkpt lat="47.19226" lon="-1.46588">
        <ele>75</ele>
        <time>2021-04-20T11:28:33.000Z</time>
      </trkpt>
      <trkpt lat="47.19233" lon="-1.46574">
        <ele>75</ele>
        <time>2021-04-20T11:28:35.000Z</time>
      </trkpt>
      <trkpt lat="47.19239" lon="-1.4656">
        <ele>74</ele>
        <time>2021-04-20T11:28:37.000Z</time>
      </trkpt>
      <trkpt lat="47.19246" lon="-1.46546">
        <ele>74</ele>
        <time>2021-04-20T11:28:39.000Z</time>
      </trkpt>
      <trkpt lat="47.19253" lon="-1.46532">
        <ele>74</ele>
        <time>2021-04-20T11:28:41.000Z</time>
      </trkpt>
      <trkpt lat="47.19259" lon="-1.46518">
        <ele>75</ele>
        <time>2021-04-20T11:28:43.000Z</time>
      </trkpt>
      <trkpt lat="47.19266" lon="-1.46503">
        <ele>74</ele>
        <time>2021-04-20T11:28:45.000Z</time>
      </trkpt>
      <trkpt lat="47.19273" lon="-1.46489">
        <ele>74</ele>
        <time>2021-04-20T11:28:47.000Z</time>
      </trkpt>
      <trkpt lat="47.1928" lon="-1.46476">
        <ele>74</ele>
        <time>2021-04-20T11:28:49.000Z</time>
      </trkpt>
      <trkpt lat="47.19286" lon="-1.46462">
        <ele>74</ele>
        <time>2021-04-20T11:28:51.000Z</time>
      </trkpt>
      <trkpt lat="47.19293" lon="-1.46449">
        <ele>74</ele>
        <time>2021-04-20T11:28:53.000Z</time>
      </trkpt>
      <trkpt lat="47.19299" lon="-1.46435">
        <ele>75</ele>
        <time>2021-04-20T11:28:55.000Z</time>
      </trkpt>
      <trkpt lat="47.19306" lon="-1.46421">
        <ele>75</ele>
        <time>2021-04-20T11:28:57.000Z</time>
      </trkpt>
      <trkpt lat="47.19312" lon="-1.46407">
        <ele>75</ele>
        <time>2021-04-20T11:28:59.000Z</time>
      </trkpt>
      <trkpt lat="47.19319" lon="-1.46392">
        <ele>75</ele>
        <time>2021-04-20T11:29:01.000Z</time>
      </trkpt>
      <trkpt lat="47.19326" lon="-1.46378">
        <ele>75</ele>
        <time>2021-04-20T11:29:03.000Z</time>
      </trkpt>
      <trkpt lat="47.19331" lon="-1.46363">
        <ele>75</ele>
        <time>2021-04-20T11:29:05.000Z</time>
      </trkpt>
      <trkpt lat="47.19338" lon="-1.46349">
        <ele>75</ele>
        <time>2021-04-20T11:29:07.000Z</time>
      </trkpt>
      <trkpt lat="47.19344" lon="-1.46335">
        <ele>74</ele>
        <time>2021-04-20T11:29:09.000Z</time>
      </trkpt>
      <trkpt lat="47.1935" lon="-1.46322">
        <ele>74</ele>
        <time>2021-04-20T11:29:11.000Z</time>
      </trkpt>
      <trkpt lat="47.19354" lon="-1.46308">
        <ele>74</ele>
        <time>2021-04-20T11:29:13.000Z</time>
      </trkpt>
      <trkpt lat="47.19359" lon="-1.46294">
        <ele>74</ele>
        <time>2021-04-20T11:29:15.000Z</time>
      </trkpt>
      <trkpt lat="47.1937" lon="-1.46291">
        <ele>74</ele>
        <time>2021-04-20T11:29:17.000Z</time>
      </trkpt>
      <trkpt lat="47.19381" lon="-1.463">
        <ele>75</ele>
        <time>2021-04-20T11:29:19.000Z</time>
      </trkpt>
      <trkpt lat="47.19391" lon="-1.46312">
        <ele>75</ele>
        <time>2021-04-20T11:29:21.000Z</time>
      </trkpt>
      <trkpt lat="47.19402" lon="-1.46321">
        <ele>75</ele>
        <time>2021-04-20T11:29:23.000Z</time>
      </trkpt>
      <trkpt lat="47.19413" lon="-1.46326">
        <ele>76</ele>
        <time>2021-04-20T11:29:25.000Z</time>
      </trkpt>
      <trkpt lat="47.19424" lon="-1.46331">
        <ele>76</ele>
        <time>2021-04-20T11:29:27.000Z</time>
      </trkpt>
      <trkpt lat="47.19436" lon="-1.46337">
        <ele>76</ele>
        <time>2021-04-20T11:29:29.000Z</time>
      </trkpt>
      <trkpt lat="47.19447" lon="-1.46342">
        <ele>76</ele>
        <time>2021-04-20T11:29:31.000Z</time>
      </trkpt>
      <trkpt lat="47.19458" lon="-1.46348">
        <ele>75</ele>
        <time>2021-04-20T11:29:33.000Z</time>
      </trkpt>
      <trkpt lat="47.1947" lon="-1.46353">
        <ele>75</ele>
        <time>2021-04-20T11:29:35.000Z</time>
      </trkpt>
      <trkpt lat="47.19481" lon="-1.46358">
        <ele>75</ele>
        <time>2021-04-20T11:29:37.000Z</time>
      </trkpt>
      <trkpt lat="47.19492" lon="-1.46364">
        <ele>75</ele>
        <time>2021-04-20T11:29:39.000Z</time>
      </trkpt>
      <trkpt lat="47.19504" lon="-1.46369">
        <ele>75</ele>
        <time>2021-04-20T11:29:41.000Z</time>
      </trkpt>
      <trkpt lat="47.19516" lon="-1.46375">
        <ele>75</ele>
        <time>2021-04-20T11:29:43.000Z</time>
      </trkpt>
      <trkpt lat="47.19527" lon="-1.46381">
        <ele>75</ele>
        <time>2021-04-20T11:29:45.000Z</time>
      </trkpt>
      <trkpt lat="47.19538" lon="-1.46387">
        <ele>75</ele>
        <time>2021-04-20T11:29:47.000Z</time>
      </trkpt>
      <trkpt lat="47.1955" lon="-1.46392">
        <ele>75</ele>
        <time>2021-04-20T11:29:49.000Z</time>
      </trkpt>
      <trkpt lat="47.19563" lon="-1.46398">
        <ele>74</ele>
        <time>2021-04-20T11:29:51.000Z</time>
      </trkpt>
      <trkpt lat="47.19575" lon="-1.46403">
        <ele>74</ele>
        <time>2021-04-20T11:29:53.000Z</time>
      </trkpt>
      <trkpt lat="47.19587" lon="-1.46409">
        <ele>75</ele>
        <time>2021-04-20T11:29:55.000Z</time>
      </trkpt>
      <trkpt lat="47.196" lon="-1.46416">
        <ele>74</ele>
        <time>2021-04-20T11:29:57.000Z</time>
      </trkpt>
      <trkpt lat="47.19612" lon="-1.46421">
        <ele>74</ele>
        <time>2021-04-20T11:29:59.000Z</time>
      </trkpt>
      <trkpt lat="47.19625" lon="-1.46427">
        <ele>74</ele>
        <time>2021-04-20T11:30:01.000Z</time>
      </trkpt>
      <trkpt lat="47.19637" lon="-1.46432">
        <ele>74</ele>
        <time>2021-04-20T11:30:03.000Z</time>
      </trkpt>
      <trkpt lat="47.1965" lon="-1.46439">
        <ele>73</ele>
        <time>2021-04-20T11:30:05.000Z</time>
      </trkpt>
      <trkpt lat="47.19663" lon="-1.46445">
        <ele>73</ele>
        <time>2021-04-20T11:30:07.000Z</time>
      </trkpt>
      <trkpt lat="47.19676" lon="-1.46452">
        <ele>72</ele>
        <time>2021-04-20T11:30:09.000Z</time>
      </trkpt>
      <trkpt lat="47.1969" lon="-1.46459">
        <ele>72</ele>
        <time>2021-04-20T11:30:11.000Z</time>
      </trkpt>
      <trkpt lat="47.19704" lon="-1.46466">
        <ele>72</ele>
        <time>2021-04-20T11:30:13.000Z</time>
      </trkpt>
      <trkpt lat="47.19717" lon="-1.46472">
        <ele>72</ele>
        <time>2021-04-20T11:30:15.000Z</time>
      </trkpt>
      <trkpt lat="47.1973" lon="-1.46478">
        <ele>71</ele>
        <time>2021-04-20T11:30:17.000Z</time>
      </trkpt>
      <trkpt lat="47.19744" lon="-1.46485">
        <ele>71</ele>
        <time>2021-04-20T11:30:19.000Z</time>
      </trkpt>
      <trkpt lat="47.19757" lon="-1.46492">
        <ele>71</ele>
        <time>2021-04-20T11:30:21.000Z</time>
      </trkpt>
      <trkpt lat="47.1977" lon="-1.46498">
        <ele>70</ele>
        <time>2021-04-20T11:30:23.000Z</time>
      </trkpt>
      <trkpt lat="47.19784" lon="-1.46504">
        <ele>70</ele>
        <time>2021-04-20T11:30:25.000Z</time>
      </trkpt>
      <trkpt lat="47.19797" lon="-1.4651">
        <ele>70</ele>
        <time>2021-04-20T11:30:27.000Z</time>
      </trkpt>
      <trkpt lat="47.19811" lon="-1.46517">
        <ele>69</ele>
        <time>2021-04-20T11:30:29.000Z</time>
      </trkpt>
      <trkpt lat="47.19824" lon="-1.46523">
        <ele>69</ele>
        <time>2021-04-20T11:30:31.000Z</time>
      </trkpt>
      <trkpt lat="47.19838" lon="-1.4653">
        <ele>69</ele>
        <time>2021-04-20T11:30:33.000Z</time>
      </trkpt>
      <trkpt lat="47.19851" lon="-1.46536">
        <ele>69</ele>
        <time>2021-04-20T11:30:35.000Z</time>
      </trkpt>
      <trkpt lat="47.19864" lon="-1.46542">
        <ele>69</ele>
        <time>2021-04-20T11:30:37.000Z</time>
      </trkpt>
      <trkpt lat="47.19878" lon="-1.46549">
        <ele>69</ele>
        <time>2021-04-20T11:30:39.000Z</time>
      </trkpt>
      <trkpt lat="47.19891" lon="-1.46555">
        <ele>68</ele>
        <time>2021-04-20T11:30:41.000Z</time>
      </trkpt>
      <trkpt lat="47.19905" lon="-1.46561">
        <ele>68</ele>
        <time>2021-04-20T11:30:43.000Z</time>
      </trkpt>
      <trkpt lat="47.19918" lon="-1.46568">
        <ele>68</ele>
        <time>2021-04-20T11:30:45.000Z</time>
      </trkpt>
      <trkpt lat="47.19932" lon="-1.46574">
        <ele>68</ele>
        <time>2021-04-20T11:30:47.000Z</time>
      </trkpt>
      <trkpt lat="47.19946" lon="-1.4658">
        <ele>67</ele>
        <time>2021-04-20T11:30:49.000Z</time>
      </trkpt>
      <trkpt lat="47.1996" lon="-1.46586">
        <ele>67</ele>
        <time>2021-04-20T11:30:51.000Z</time>
      </trkpt>
      <trkpt lat="47.19973" lon="-1.46591">
        <ele>67</ele>
        <time>2021-04-20T11:30:53.000Z</time>
      </trkpt>
      <trkpt lat="47.19986" lon="-1.46596">
        <ele>67</ele>
        <time>2021-04-20T11:30:55.000Z</time>
      </trkpt>
      <trkpt lat="47.19999" lon="-1.46601">
        <ele>67</ele>
        <time>2021-04-20T11:30:57.000Z</time>
      </trkpt>
      <trkpt lat="47.20012" lon="-1.46607">
        <ele>67</ele>
        <time>2021-04-20T11:30:59.000Z</time>
      </trkpt>
      <trkpt lat="47.20026" lon="-1.46612">
        <ele>66</ele>
        <time>2021-04-20T11:31:01.000Z</time>
      </trkpt>
      <trkpt lat="47.20039" lon="-1.46618">
        <ele>65</ele>
        <time>2021-04-20T11:31:03.000Z</time>
      </trkpt>
      <trkpt lat="47.20051" lon="-1.46623">
        <ele>64</ele>
        <time>2021-04-20T11:31:05.000Z</time>
      </trkpt>
      <trkpt lat="47.20063" lon="-1.46628">
        <ele>65</ele>
        <time>2021-04-20T11:31:07.000Z</time>
      </trkpt>
      <trkpt lat="47.20076" lon="-1.46634">
        <ele>64</ele>
        <time>2021-04-20T11:31:09.000Z</time>
      </trkpt>
      <trkpt lat="47.20089" lon="-1.46639">
        <ele>64</ele>
        <time>2021-04-20T11:31:11.000Z</time>
      </trkpt>
      <trkpt lat="47.20102" lon="-1.46646">
        <ele>64</ele>
        <time>2021-04-20T11:31:13.000Z</time>
      </trkpt>
      <trkpt lat="47.20116" lon="-1.46655">
        <ele>64</ele>
        <time>2021-04-20T11:31:15.000Z</time>
      </trkpt>
      <trkpt lat="47.20128" lon="-1.46662">
        <ele>64</ele>
        <time>2021-04-20T11:31:17.000Z</time>
      </trkpt>
      <trkpt lat="47.2014" lon="-1.46668">
        <ele>64</ele>
        <time>2021-04-20T11:31:19.000Z</time>
      </trkpt>
      <trkpt lat="47.20153" lon="-1.46669">
        <ele>64</ele>
        <time>2021-04-20T11:31:21.000Z</time>
      </trkpt>
      <trkpt lat="47.20166" lon="-1.46671">
        <ele>64</ele>
        <time>2021-04-20T11:31:23.000Z</time>
      </trkpt>
      <trkpt lat="47.2018" lon="-1.46676">
        <ele>64</ele>
        <time>2021-04-20T11:31:25.000Z</time>
      </trkpt>
      <trkpt lat="47.20193" lon="-1.4668">
        <ele>64</ele>
        <time>2021-04-20T11:31:27.000Z</time>
      </trkpt>
      <trkpt lat="47.20206" lon="-1.46683">
        <ele>65</ele>
        <time>2021-04-20T11:31:29.000Z</time>
      </trkpt>
      <trkpt lat="47.20219" lon="-1.46686">
        <ele>65</ele>
        <time>2021-04-20T11:31:31.000Z</time>
      </trkpt>
      <trkpt lat="47.20232" lon="-1.46688">
        <ele>65</ele>
        <time>2021-04-20T11:31:33.000Z</time>
      </trkpt>
      <trkpt lat="47.20245" lon="-1.46692">
        <ele>65</ele>
        <time>2021-04-20T11:31:35.000Z</time>
      </trkpt>
      <trkpt lat="47.20258" lon="-1.46695">
        <ele>66</ele>
        <time>2021-04-20T11:31:37.000Z</time>
      </trkpt>
      <trkpt lat="47.20272" lon="-1.46697">
        <ele>66</ele>
        <time>2021-04-20T11:31:39.000Z</time>
      </trkpt>
      <trkpt lat="47.20285" lon="-1.46699">
        <ele>66</ele>
        <time>2021-04-20T11:31:41.000Z</time>
      </trkpt>
      <trkpt lat="47.20298" lon="-1.46701">
        <ele>65</ele>
        <time>2021-04-20T11:31:43.000Z</time>
      </trkpt>
      <trkpt lat="47.20311" lon="-1.46704">
        <ele>65</ele>
        <time>2021-04-20T11:31:45.000Z</time>
      </trkpt>
      <trkpt lat="47.20323" lon="-1.46706">
        <ele>65</ele>
        <time>2021-04-20T11:31:47.000Z</time>
      </trkpt>
      <trkpt lat="47.20336" lon="-1.46708">
        <ele>65</ele>
        <time>2021-04-20T11:31:49.000Z</time>
      </trkpt>
      <trkpt lat="47.20349" lon="-1.4671">
        <ele>65</ele>
        <time>2021-04-20T11:31:51.000Z</time>
      </trkpt>
      <trkpt lat="47.20362" lon="-1.46712">
        <ele>65</ele>
        <time>2021-04-20T11:31:53.000Z</time>
      </trkpt>
      <trkpt lat="47.20375" lon="-1.46713">
        <ele>65</ele>
        <time>2021-04-20T11:31:55.000Z</time>
      </trkpt>
      <trkpt lat="47.20388" lon="-1.46715">
        <ele>66</ele>
        <time>2021-04-20T11:31:57.000Z</time>
      </trkpt>
      <trkpt lat="47.20401" lon="-1.46717">
        <ele>66</ele>
        <time>2021-04-20T11:31:59.000Z</time>
      </trkpt>
      <trkpt lat="47.20414" lon="-1.4672">
        <ele>66</ele>
        <time>2021-04-20T11:32:01.000Z</time>
      </trkpt>
      <trkpt lat="47.20426" lon="-1.4672">
        <ele>66</ele>
        <time>2021-04-20T11:32:03.000Z</time>
      </trkpt>
      <trkpt lat="47.20439" lon="-1.46722">
        <ele>65</ele>
        <time>2021-04-20T11:32:05.000Z</time>
      </trkpt>
      <trkpt lat="47.20452" lon="-1.46724">
        <ele>66</ele>
        <time>2021-04-20T11:32:07.000Z</time>
      </trkpt>
      <trkpt lat="47.20464" lon="-1.46726">
        <ele>66</ele>
        <time>2021-04-20T11:32:09.000Z</time>
      </trkpt>
      <trkpt lat="47.20476" lon="-1.46728">
        <ele>66</ele>
        <time>2021-04-20T11:32:11.000Z</time>
      </trkpt>
      <trkpt lat="47.20488" lon="-1.4673">
        <ele>66</ele>
        <time>2021-04-20T11:32:13.000Z</time>
      </trkpt>
      <trkpt lat="47.20501" lon="-1.46731">
        <ele>67</ele>
        <time>2021-04-20T11:32:15.000Z</time>
      </trkpt>
      <trkpt lat="47.20514" lon="-1.46733">
        <ele>66</ele>
        <time>2021-04-20T11:32:17.000Z</time>
      </trkpt>
      <trkpt lat="47.20526" lon="-1.46735">
        <ele>66</ele>
        <time>2021-04-20T11:32:19.000Z</time>
      </trkpt>
      <trkpt lat="47.20539" lon="-1.46736">
        <ele>66</ele>
        <time>2021-04-20T11:32:21.000Z</time>
      </trkpt>
      <trkpt lat="47.20551" lon="-1.46736">
        <ele>66</ele>
        <time>2021-04-20T11:32:23.000Z</time>
      </trkpt>
      <trkpt lat="47.20562" lon="-1.46735">
        <ele>66</ele>
        <time>2021-04-20T11:32:25.000Z</time>
      </trkpt>
      <trkpt lat="47.20574" lon="-1.46734">
        <ele>66</ele>
        <time>2021-04-20T11:32:27.000Z</time>
      </trkpt>
      <trkpt lat="47.20586" lon="-1.46733">
        <ele>66</ele>
        <time>2021-04-20T11:32:29.000Z</time>
      </trkpt>
      <trkpt lat="47.20599" lon="-1.4673">
        <ele>66</ele>
        <time>2021-04-20T11:32:31.000Z</time>
      </trkpt>
      <trkpt lat="47.2061" lon="-1.46728">
        <ele>66</ele>
        <time>2021-04-20T11:32:33.000Z</time>
      </trkpt>
      <trkpt lat="47.20623" lon="-1.46725">
        <ele>66</ele>
        <time>2021-04-20T11:32:35.000Z</time>
      </trkpt>
      <trkpt lat="47.20635" lon="-1.46723">
        <ele>66</ele>
        <time>2021-04-20T11:32:37.000Z</time>
      </trkpt>
      <trkpt lat="47.20647" lon="-1.46721">
        <ele>66</ele>
        <time>2021-04-20T11:32:39.000Z</time>
      </trkpt>
      <trkpt lat="47.20659" lon="-1.46718">
        <ele>67</ele>
        <time>2021-04-20T11:32:41.000Z</time>
      </trkpt>
      <trkpt lat="47.20671" lon="-1.46714">
        <ele>68</ele>
        <time>2021-04-20T11:32:43.000Z</time>
      </trkpt>
      <trkpt lat="47.20683" lon="-1.46712">
        <ele>69</ele>
        <time>2021-04-20T11:32:45.000Z</time>
      </trkpt>
      <trkpt lat="47.20695" lon="-1.46709">
        <ele>69</ele>
        <time>2021-04-20T11:32:47.000Z</time>
      </trkpt>
      <trkpt lat="47.20708" lon="-1.46708">
        <ele>68</ele>
        <time>2021-04-20T11:32:49.000Z</time>
      </trkpt>
      <trkpt lat="47.20721" lon="-1.46707">
        <ele>68</ele>
        <time>2021-04-20T11:32:51.000Z</time>
      </trkpt>
      <trkpt lat="47.20733" lon="-1.46705">
        <ele>68</ele>
        <time>2021-04-20T11:32:53.000Z</time>
      </trkpt>
      <trkpt lat="47.20746" lon="-1.46703">
        <ele>68</ele>
        <time>2021-04-20T11:32:55.000Z</time>
      </trkpt>
      <trkpt lat="47.20758" lon="-1.46701">
        <ele>67</ele>
        <time>2021-04-20T11:32:57.000Z</time>
      </trkpt>
      <trkpt lat="47.20771" lon="-1.467">
        <ele>67</ele>
        <time>2021-04-20T11:32:59.000Z</time>
      </trkpt>
      <trkpt lat="47.20784" lon="-1.46698">
        <ele>67</ele>
        <time>2021-04-20T11:33:01.000Z</time>
      </trkpt>
      <trkpt lat="47.20796" lon="-1.46696">
        <ele>67</ele>
        <time>2021-04-20T11:33:03.000Z</time>
      </trkpt>
      <trkpt lat="47.20808" lon="-1.46695">
        <ele>67</ele>
        <time>2021-04-20T11:33:05.000Z</time>
      </trkpt>
      <trkpt lat="47.2082" lon="-1.46694">
        <ele>67</ele>
        <time>2021-04-20T11:33:07.000Z</time>
      </trkpt>
      <trkpt lat="47.20832" lon="-1.46691">
        <ele>67</ele>
        <time>2021-04-20T11:33:09.000Z</time>
      </trkpt>
      <trkpt lat="47.20843" lon="-1.46687">
        <ele>67</ele>
        <time>2021-04-20T11:33:11.000Z</time>
      </trkpt>
      <trkpt lat="47.20855" lon="-1.46681">
        <ele>68</ele>
        <time>2021-04-20T11:33:13.000Z</time>
      </trkpt>
      <trkpt lat="47.20867" lon="-1.46681">
        <ele>69</ele>
        <time>2021-04-20T11:33:15.000Z</time>
      </trkpt>
      <trkpt lat="47.20879" lon="-1.46678">
        <ele>68</ele>
        <time>2021-04-20T11:33:17.000Z</time>
      </trkpt>
      <trkpt lat="47.20891" lon="-1.46671">
        <ele>68</ele>
        <time>2021-04-20T11:33:19.000Z</time>
      </trkpt>
      <trkpt lat="47.20902" lon="-1.46666">
        <ele>68</ele>
        <time>2021-04-20T11:33:21.000Z</time>
      </trkpt>
      <trkpt lat="47.20914" lon="-1.46658">
        <ele>68</ele>
        <time>2021-04-20T11:33:23.000Z</time>
      </trkpt>
      <trkpt lat="47.20925" lon="-1.46651">
        <ele>68</ele>
        <time>2021-04-20T11:33:25.000Z</time>
      </trkpt>
      <trkpt lat="47.20936" lon="-1.46643">
        <ele>68</ele>
        <time>2021-04-20T11:33:27.000Z</time>
      </trkpt>
      <trkpt lat="47.20947" lon="-1.46635">
        <ele>68</ele>
        <time>2021-04-20T11:33:29.000Z</time>
      </trkpt>
      <trkpt lat="47.20959" lon="-1.46628">
        <ele>67</ele>
        <time>2021-04-20T11:33:31.000Z</time>
      </trkpt>
      <trkpt lat="47.20971" lon="-1.46623">
        <ele>67</ele>
        <time>2021-04-20T11:33:33.000Z</time>
      </trkpt>
      <trkpt lat="47.20983" lon="-1.46621">
        <ele>67</ele>
        <time>2021-04-20T11:33:35.000Z</time>
      </trkpt>
      <trkpt lat="47.20995" lon="-1.46618">
        <ele>68</ele>
        <time>2021-04-20T11:33:37.000Z</time>
      </trkpt>
      <trkpt lat="47.21007" lon="-1.46615">
        <ele>68</ele>
        <time>2021-04-20T11:33:39.000Z</time>
      </trkpt>
      <trkpt lat="47.21019" lon="-1.46611">
        <ele>68</ele>
        <time>2021-04-20T11:33:41.000Z</time>
      </trkpt>
      <trkpt lat="47.2103" lon="-1.46608">
        <ele>69</ele>
        <time>2021-04-20T11:33:43.000Z</time>
      </trkpt>
      <trkpt lat="47.21043" lon="-1.46602">
        <ele>69</ele>
        <time>2021-04-20T11:33:45.000Z</time>
      </trkpt>
      <trkpt lat="47.21052" lon="-1.46592">
        <ele>69</ele>
        <time>2021-04-20T11:33:47.000Z</time>
      </trkpt>
      <trkpt lat="47.21057" lon="-1.46575">
        <ele>69</ele>
        <time>2021-04-20T11:33:49.000Z</time>
      </trkpt>
      <trkpt lat="47.21063" lon="-1.46561">
        <ele>68</ele>
        <time>2021-04-20T11:33:51.000Z</time>
      </trkpt>
      <trkpt lat="47.21071" lon="-1.46547">
        <ele>68</ele>
        <time>2021-04-20T11:33:53.000Z</time>
      </trkpt>
      <trkpt lat="47.2108" lon="-1.46537">
        <ele>68</ele>
        <time>2021-04-20T11:33:55.000Z</time>
      </trkpt>
      <trkpt lat="47.21092" lon="-1.46537">
        <ele>68</ele>
        <time>2021-04-20T11:33:57.000Z</time>
      </trkpt>
      <trkpt lat="47.21104" lon="-1.46546">
        <ele>68</ele>
        <time>2021-04-20T11:33:59.000Z</time>
      </trkpt>
      <trkpt lat="47.21114" lon="-1.46557">
        <ele>68</ele>
        <time>2021-04-20T11:34:01.000Z</time>
      </trkpt>
      <trkpt lat="47.21125" lon="-1.46567">
        <ele>68</ele>
        <time>2021-04-20T11:34:03.000Z</time>
      </trkpt>
      <trkpt lat="47.21134" lon="-1.46579">
        <ele>67</ele>
        <time>2021-04-20T11:34:05.000Z</time>
      </trkpt>
      <trkpt lat="47.21144" lon="-1.46589">
        <ele>67</ele>
        <time>2021-04-20T11:34:07.000Z</time>
      </trkpt>
      <trkpt lat="47.21157" lon="-1.46592">
        <ele>67</ele>
        <time>2021-04-20T11:34:09.000Z</time>
      </trkpt>
      <trkpt lat="47.21169" lon="-1.46598">
        <ele>68</ele>
        <time>2021-04-20T11:34:11.000Z</time>
      </trkpt>
      <trkpt lat="47.2118" lon="-1.46604">
        <ele>68</ele>
        <time>2021-04-20T11:34:13.000Z</time>
      </trkpt>
      <trkpt lat="47.21191" lon="-1.4661">
        <ele>68</ele>
        <time>2021-04-20T11:34:15.000Z</time>
      </trkpt>
      <trkpt lat="47.21202" lon="-1.46616">
        <ele>68</ele>
        <time>2021-04-20T11:34:17.000Z</time>
      </trkpt>
      <trkpt lat="47.21214" lon="-1.46622">
        <ele>67</ele>
        <time>2021-04-20T11:34:19.000Z</time>
      </trkpt>
      <trkpt lat="47.21227" lon="-1.46625">
        <ele>67</ele>
        <time>2021-04-20T11:34:21.000Z</time>
      </trkpt>
      <trkpt lat="47.2124" lon="-1.46627">
        <ele>67</ele>
        <time>2021-04-20T11:34:23.000Z</time>
      </trkpt>
      <trkpt lat="47.21252" lon="-1.46629">
        <ele>66</ele>
        <time>2021-04-20T11:34:25.000Z</time>
      </trkpt>
      <trkpt lat="47.21265" lon="-1.46631">
        <ele>66</ele>
        <time>2021-04-20T11:34:27.000Z</time>
      </trkpt>
      <trkpt lat="47.21276" lon="-1.46633">
        <ele>66</ele>
        <time>2021-04-20T11:34:29.000Z</time>
      </trkpt>
      <trkpt lat="47.21287" lon="-1.46634">
        <ele>67</ele>
        <time>2021-04-20T11:34:31.000Z</time>
      </trkpt>
      <trkpt lat="47.21299" lon="-1.46635">
        <ele>67</ele>
        <time>2021-04-20T11:34:33.000Z</time>
      </trkpt>
      <trkpt lat="47.21311" lon="-1.46635">
        <ele>67</ele>
        <time>2021-04-20T11:34:35.000Z</time>
      </trkpt>
      <trkpt lat="47.21323" lon="-1.46634">
        <ele>66</ele>
        <time>2021-04-20T11:34:37.000Z</time>
      </trkpt>
      <trkpt lat="47.21336" lon="-1.46635">
        <ele>66</ele>
        <time>2021-04-20T11:34:39.000Z</time>
      </trkpt>
      <trkpt lat="47.21349" lon="-1.46636">
        <ele>65</ele>
        <time>2021-04-20T11:34:41.000Z</time>
      </trkpt>
      <trkpt lat="47.21361" lon="-1.46636">
        <ele>65</ele>
        <time>2021-04-20T11:34:43.000Z</time>
      </trkpt>
      <trkpt lat="47.21373" lon="-1.46637">
        <ele>65</ele>
        <time>2021-04-20T11:34:45.000Z</time>
      </trkpt>
      <trkpt lat="47.21386" lon="-1.46637">
        <ele>65</ele>
        <time>2021-04-20T11:34:47.000Z</time>
      </trkpt>
      <trkpt lat="47.21399" lon="-1.46637">
        <ele>65</ele>
        <time>2021-04-20T11:34:49.000Z</time>
      </trkpt>
      <trkpt lat="47.21412" lon="-1.46637">
        <ele>64</ele>
        <time>2021-04-20T11:34:51.000Z</time>
      </trkpt>
      <trkpt lat="47.21425" lon="-1.46638">
        <ele>64</ele>
        <time>2021-04-20T11:34:53.000Z</time>
      </trkpt>
      <trkpt lat="47.21438" lon="-1.46635">
        <ele>63</ele>
        <time>2021-04-20T11:34:55.000Z</time>
      </trkpt>
      <trkpt lat="47.21452" lon="-1.46629">
        <ele>62</ele>
        <time>2021-04-20T11:34:57.000Z</time>
      </trkpt>
      <trkpt lat="47.21465" lon="-1.46621">
        <ele>61</ele>
        <time>2021-04-20T11:34:59.000Z</time>
      </trkpt>
      <trkpt lat="47.21478" lon="-1.46611">
        <ele>61</ele>
        <time>2021-04-20T11:35:01.000Z</time>
      </trkpt>
      <trkpt lat="47.2149" lon="-1.46599">
        <ele>60</ele>
        <time>2021-04-20T11:35:03.000Z</time>
      </trkpt>
      <trkpt lat="47.21503" lon="-1.46587">
        <ele>60</ele>
        <time>2021-04-20T11:35:05.000Z</time>
      </trkpt>
      <trkpt lat="47.21513" lon="-1.46572">
        <ele>58</ele>
        <time>2021-04-20T11:35:07.000Z</time>
      </trkpt>
      <trkpt lat="47.21524" lon="-1.46556">
        <ele>57</ele>
        <time>2021-04-20T11:35:09.000Z</time>
      </trkpt>
      <trkpt lat="47.21537" lon="-1.46544">
        <ele>57</ele>
        <time>2021-04-20T11:35:11.000Z</time>
      </trkpt>
      <trkpt lat="47.21551" lon="-1.46538">
        <ele>56</ele>
        <time>2021-04-20T11:35:13.000Z</time>
      </trkpt>
      <trkpt lat="47.21567" lon="-1.46536">
        <ele>55</ele>
        <time>2021-04-20T11:35:15.000Z</time>
      </trkpt>
      <trkpt lat="47.21583" lon="-1.46535">
        <ele>54</ele>
        <time>2021-04-20T11:35:17.000Z</time>
      </trkpt>
      <trkpt lat="47.21599" lon="-1.46535">
        <ele>53</ele>
        <time>2021-04-20T11:35:19.000Z</time>
      </trkpt>
      <trkpt lat="47.21616" lon="-1.46533">
        <ele>53</ele>
        <time>2021-04-20T11:35:21.000Z</time>
      </trkpt>
      <trkpt lat="47.21631" lon="-1.46531">
        <ele>52</ele>
        <time>2021-04-20T11:35:23.000Z</time>
      </trkpt>
      <trkpt lat="47.21641" lon="-1.46528">
        <ele>52</ele>
        <time>2021-04-20T11:35:25.000Z</time>
      </trkpt>
      <trkpt lat="47.21645" lon="-1.46515">
        <ele>51</ele>
        <time>2021-04-20T11:35:27.000Z</time>
      </trkpt>
      <trkpt lat="47.21645" lon="-1.46498">
        <ele>51</ele>
        <time>2021-04-20T11:35:29.000Z</time>
      </trkpt>
      <trkpt lat="47.21646" lon="-1.4648">
        <ele>51</ele>
        <time>2021-04-20T11:35:31.000Z</time>
      </trkpt>
      <trkpt lat="47.2165" lon="-1.46463">
        <ele>51</ele>
        <time>2021-04-20T11:35:33.000Z</time>
      </trkpt>
      <trkpt lat="47.21655" lon="-1.46445">
        <ele>50</ele>
        <time>2021-04-20T11:35:35.000Z</time>
      </trkpt>
      <trkpt lat="47.21656" lon="-1.46426">
        <ele>50</ele>
        <time>2021-04-20T11:35:37.000Z</time>
      </trkpt>
      <trkpt lat="47.21658" lon="-1.46405">
        <ele>49</ele>
        <time>2021-04-20T11:35:39.000Z</time>
      </trkpt>
      <trkpt lat="47.21659" lon="-1.46385">
        <ele>49</ele>
        <time>2021-04-20T11:35:41.000Z</time>
      </trkpt>
      <trkpt lat="47.21661" lon="-1.46366">
        <ele>48</ele>
        <time>2021-04-20T11:35:43.000Z</time>
      </trkpt>
      <trkpt lat="47.21662" lon="-1.46346">
        <ele>48</ele>
        <time>2021-04-20T11:35:45.000Z</time>
      </trkpt>
      <trkpt lat="47.21664" lon="-1.46327">
        <ele>48</ele>
        <time>2021-04-20T11:35:47.000Z</time>
      </trkpt>
      <trkpt lat="47.21665" lon="-1.46309">
        <ele>48</ele>
        <time>2021-04-20T11:35:49.000Z</time>
      </trkpt>
      <trkpt lat="47.21667" lon="-1.46291">
        <ele>48</ele>
        <time>2021-04-20T11:35:51.000Z</time>
      </trkpt>
      <trkpt lat="47.21668" lon="-1.46273">
        <ele>49</ele>
        <time>2021-04-20T11:35:53.000Z</time>
      </trkpt>
      <trkpt lat="47.21669" lon="-1.46255">
        <ele>49</ele>
        <time>2021-04-20T11:35:55.000Z</time>
      </trkpt>
      <trkpt lat="47.21669" lon="-1.46236">
        <ele>48</ele>
        <time>2021-04-20T11:35:57.000Z</time>
      </trkpt>
      <trkpt lat="47.21669" lon="-1.46219">
        <ele>48</ele>
        <time>2021-04-20T11:35:59.000Z</time>
      </trkpt>
      <trkpt lat="47.21666" lon="-1.46203">
        <ele>49</ele>
        <time>2021-04-20T11:36:01.000Z</time>
      </trkpt>
      <trkpt lat="47.21666" lon="-1.46186">
        <ele>49</ele>
        <time>2021-04-20T11:36:03.000Z</time>
      </trkpt>
      <trkpt lat="47.21677" lon="-1.46181">
        <ele>48</ele>
        <time>2021-04-20T11:36:05.000Z</time>
      </trkpt>
      <trkpt lat="47.21687" lon="-1.46179">
        <ele>48</ele>
        <time>2021-04-20T11:36:07.000Z</time>
      </trkpt>
      <trkpt lat="47.21692" lon="-1.46166">
        <ele>47</ele>
        <time>2021-04-20T11:36:09.000Z</time>
      </trkpt>
      <trkpt lat="47.21697" lon="-1.4615">
        <ele>48</ele>
        <time>2021-04-20T11:36:11.000Z</time>
      </trkpt>
      <trkpt lat="47.21701" lon="-1.46135">
        <ele>48</ele>
        <time>2021-04-20T11:36:13.000Z</time>
      </trkpt>
      <trkpt lat="47.2171" lon="-1.46126">
        <ele>48</ele>
        <time>2021-04-20T11:36:15.000Z</time>
      </trkpt>
      <trkpt lat="47.21723" lon="-1.4613">
        <ele>49</ele>
        <time>2021-04-20T11:36:17.000Z</time>
      </trkpt>
      <trkpt lat="47.21736" lon="-1.46137">
        <ele>49</ele>
        <time>2021-04-20T11:36:19.000Z</time>
      </trkpt>
      <trkpt lat="47.21748" lon="-1.46144">
        <ele>49</ele>
        <time>2021-04-20T11:36:21.000Z</time>
      </trkpt>
      <trkpt lat="47.2176" lon="-1.46152">
        <ele>49</ele>
        <time>2021-04-20T11:36:23.000Z</time>
      </trkpt>
      <trkpt lat="47.21772" lon="-1.46158">
        <ele>49</ele>
        <time>2021-04-20T11:36:25.000Z</time>
      </trkpt>
      <trkpt lat="47.21783" lon="-1.46166">
        <ele>49</ele>
        <time>2021-04-20T11:36:27.000Z</time>
      </trkpt>
      <trkpt lat="47.21793" lon="-1.4617">
        <ele>49</ele>
        <time>2021-04-20T11:36:29.000Z</time>
      </trkpt>
      <trkpt lat="47.21804" lon="-1.46174">
        <ele>49</ele>
        <time>2021-04-20T11:36:31.000Z</time>
      </trkpt>
      <trkpt lat="47.21816" lon="-1.46179">
        <ele>49</ele>
        <time>2021-04-20T11:36:33.000Z</time>
      </trkpt>
      <trkpt lat="47.21828" lon="-1.46186">
        <ele>49</ele>
        <time>2021-04-20T11:36:35.000Z</time>
      </trkpt>
      <trkpt lat="47.21841" lon="-1.46193">
        <ele>49</ele>
        <time>2021-04-20T11:36:37.000Z</time>
      </trkpt>
      <trkpt lat="47.21853" lon="-1.46199">
        <ele>49</ele>
        <time>2021-04-20T11:36:39.000Z</time>
      </trkpt>
      <trkpt lat="47.21866" lon="-1.46205">
        <ele>49</ele>
        <time>2021-04-20T11:36:41.000Z</time>
      </trkpt>
      <trkpt lat="47.21878" lon="-1.46211">
        <ele>49</ele>
        <time>2021-04-20T11:36:43.000Z</time>
      </trkpt>
      <trkpt lat="47.21889" lon="-1.46217">
        <ele>49</ele>
        <time>2021-04-20T11:36:45.000Z</time>
      </trkpt>
      <trkpt lat="47.21901" lon="-1.46223">
        <ele>49</ele>
        <time>2021-04-20T11:36:47.000Z</time>
      </trkpt>
      <trkpt lat="47.21913" lon="-1.46229">
        <ele>49</ele>
        <time>2021-04-20T11:36:49.000Z</time>
      </trkpt>
      <trkpt lat="47.21925" lon="-1.46235">
        <ele>49</ele>
        <time>2021-04-20T11:36:51.000Z</time>
      </trkpt>
      <trkpt lat="47.21937" lon="-1.46241">
        <ele>49</ele>
        <time>2021-04-20T11:36:53.000Z</time>
      </trkpt>
      <trkpt lat="47.21949" lon="-1.46248">
        <ele>49</ele>
        <time>2021-04-20T11:36:55.000Z</time>
      </trkpt>
      <trkpt lat="47.2196" lon="-1.46255">
        <ele>50</ele>
        <time>2021-04-20T11:36:57.000Z</time>
      </trkpt>
      <trkpt lat="47.21971" lon="-1.46259">
        <ele>50</ele>
        <time>2021-04-20T11:36:59.000Z</time>
      </trkpt>
      <trkpt lat="47.21982" lon="-1.46264">
        <ele>50</ele>
        <time>2021-04-20T11:37:01.000Z</time>
      </trkpt>
      <trkpt lat="47.21993" lon="-1.4627">
        <ele>49</ele>
        <time>2021-04-20T11:37:03.000Z</time>
      </trkpt>
      <trkpt lat="47.22006" lon="-1.46277">
        <ele>49</ele>
        <time>2021-04-20T11:37:05.000Z</time>
      </trkpt>
      <trkpt lat="47.22019" lon="-1.46283">
        <ele>49</ele>
        <time>2021-04-20T11:37:07.000Z</time>
      </trkpt>
      <trkpt lat="47.22032" lon="-1.4629">
        <ele>49</ele>
        <time>2021-04-20T11:37:09.000Z</time>
      </trkpt>
      <trkpt lat="47.22044" lon="-1.46297">
        <ele>49</ele>
        <time>2021-04-20T11:37:11.000Z</time>
      </trkpt>
      <trkpt lat="47.22057" lon="-1.46303">
        <ele>49</ele>
        <time>2021-04-20T11:37:13.000Z</time>
      </trkpt>
      <trkpt lat="47.22069" lon="-1.46309">
        <ele>49</ele>
        <time>2021-04-20T11:37:15.000Z</time>
      </trkpt>
      <trkpt lat="47.22081" lon="-1.46316">
        <ele>49</ele>
        <time>2021-04-20T11:37:17.000Z</time>
      </trkpt>
      <trkpt lat="47.22094" lon="-1.46322">
        <ele>49</ele>
        <time>2021-04-20T11:37:19.000Z</time>
      </trkpt>
      <trkpt lat="47.22106" lon="-1.46328">
        <ele>49</ele>
        <time>2021-04-20T11:37:21.000Z</time>
      </trkpt>
      <trkpt lat="47.22118" lon="-1.46335">
        <ele>49</ele>
        <time>2021-04-20T11:37:23.000Z</time>
      </trkpt>
      <trkpt lat="47.2213" lon="-1.46341">
        <ele>49</ele>
        <time>2021-04-20T11:37:25.000Z</time>
      </trkpt>
      <trkpt lat="47.22143" lon="-1.46348">
        <ele>49</ele>
        <time>2021-04-20T11:37:27.000Z</time>
      </trkpt>
      <trkpt lat="47.22155" lon="-1.46354">
        <ele>49</ele>
        <time>2021-04-20T11:37:29.000Z</time>
      </trkpt>
      <trkpt lat="47.22167" lon="-1.4636">
        <ele>49</ele>
        <time>2021-04-20T11:37:31.000Z</time>
      </trkpt>
      <trkpt lat="47.22179" lon="-1.46367">
        <ele>49</ele>
        <time>2021-04-20T11:37:33.000Z</time>
      </trkpt>
      <trkpt lat="47.22192" lon="-1.46373">
        <ele>49</ele>
        <time>2021-04-20T11:37:35.000Z</time>
      </trkpt>
      <trkpt lat="47.22204" lon="-1.46379">
        <ele>49</ele>
        <time>2021-04-20T11:37:37.000Z</time>
      </trkpt>
      <trkpt lat="47.22217" lon="-1.46385">
        <ele>49</ele>
        <time>2021-04-20T11:37:39.000Z</time>
      </trkpt>
      <trkpt lat="47.22229" lon="-1.46392">
        <ele>49</ele>
        <time>2021-04-20T11:37:41.000Z</time>
      </trkpt>
      <trkpt lat="47.22241" lon="-1.46398">
        <ele>49</ele>
        <time>2021-04-20T11:37:43.000Z</time>
      </trkpt>
      <trkpt lat="47.22253" lon="-1.46405">
        <ele>49</ele>
        <time>2021-04-20T11:37:45.000Z</time>
      </trkpt>
      <trkpt lat="47.22265" lon="-1.46411">
        <ele>48</ele>
        <time>2021-04-20T11:37:47.000Z</time>
      </trkpt>
      <trkpt lat="47.22277" lon="-1.46417">
        <ele>48</ele>
        <time>2021-04-20T11:37:49.000Z</time>
      </trkpt>
      <trkpt lat="47.2229" lon="-1.46423">
        <ele>48</ele>
        <time>2021-04-20T11:37:51.000Z</time>
      </trkpt>
      <trkpt lat="47.22303" lon="-1.46429">
        <ele>47</ele>
        <time>2021-04-20T11:37:53.000Z</time>
      </trkpt>
      <trkpt lat="47.22315" lon="-1.46434">
        <ele>47</ele>
        <time>2021-04-20T11:37:55.000Z</time>
      </trkpt>
      <trkpt lat="47.22327" lon="-1.46442">
        <ele>47</ele>
        <time>2021-04-20T11:37:57.000Z</time>
      </trkpt>
      <trkpt lat="47.22337" lon="-1.46452">
        <ele>48</ele>
        <time>2021-04-20T11:37:59.000Z</time>
      </trkpt>
      <trkpt lat="47.22348" lon="-1.46463">
        <ele>48</ele>
        <time>2021-04-20T11:38:01.000Z</time>
      </trkpt>
      <trkpt lat="47.22357" lon="-1.46476">
        <ele>47</ele>
        <time>2021-04-20T11:38:03.000Z</time>
      </trkpt>
      <trkpt lat="47.22367" lon="-1.46489">
        <ele>47</ele>
        <time>2021-04-20T11:38:05.000Z</time>
      </trkpt>
      <trkpt lat="47.22376" lon="-1.46501">
        <ele>47</ele>
        <time>2021-04-20T11:38:07.000Z</time>
      </trkpt>
      <trkpt lat="47.22385" lon="-1.46514">
        <ele>47</ele>
        <time>2021-04-20T11:38:09.000Z</time>
      </trkpt>
      <trkpt lat="47.22395" lon="-1.46527">
        <ele>47</ele>
        <time>2021-04-20T11:38:11.000Z</time>
      </trkpt>
      <trkpt lat="47.22404" lon="-1.4654">
        <ele>48</ele>
        <time>2021-04-20T11:38:13.000Z</time>
      </trkpt>
      <trkpt lat="47.22414" lon="-1.46552">
        <ele>47</ele>
        <time>2021-04-20T11:38:15.000Z</time>
      </trkpt>
      <trkpt lat="47.22423" lon="-1.46564">
        <ele>47</ele>
        <time>2021-04-20T11:38:17.000Z</time>
      </trkpt>
      <trkpt lat="47.22433" lon="-1.46577">
        <ele>47</ele>
        <time>2021-04-20T11:38:19.000Z</time>
      </trkpt>
      <trkpt lat="47.22442" lon="-1.46589">
        <ele>47</ele>
        <time>2021-04-20T11:38:21.000Z</time>
      </trkpt>
      <trkpt lat="47.22452" lon="-1.46601">
        <ele>48</ele>
        <time>2021-04-20T11:38:23.000Z</time>
      </trkpt>
      <trkpt lat="47.22461" lon="-1.46613">
        <ele>48</ele>
        <time>2021-04-20T11:38:25.000Z</time>
      </trkpt>
      <trkpt lat="47.2247" lon="-1.46624">
        <ele>47</ele>
        <time>2021-04-20T11:38:27.000Z</time>
      </trkpt>
      <trkpt lat="47.22478" lon="-1.46635">
        <ele>47</ele>
        <time>2021-04-20T11:38:29.000Z</time>
      </trkpt>
      <trkpt lat="47.22485" lon="-1.46644">
        <ele>47</ele>
        <time>2021-04-20T11:38:31.000Z</time>
      </trkpt>
      <trkpt lat="47.22492" lon="-1.46657">
        <ele>48</ele>
        <time>2021-04-20T11:38:34.000Z</time>
      </trkpt>
      <trkpt lat="47.22501" lon="-1.46665">
        <ele>48</ele>
        <time>2021-04-20T11:38:37.000Z</time>
      </trkpt>
      <trkpt lat="47.2251" lon="-1.46675">
        <ele>48</ele>
        <time>2021-04-20T11:38:39.000Z</time>
      </trkpt>
      <trkpt lat="47.2252" lon="-1.46682">
        <ele>49</ele>
        <time>2021-04-20T11:38:41.000Z</time>
      </trkpt>
      <trkpt lat="47.2253" lon="-1.46688">
        <ele>50</ele>
        <time>2021-04-20T11:38:43.000Z</time>
      </trkpt>
      <trkpt lat="47.22539" lon="-1.46694">
        <ele>50</ele>
        <time>2021-04-20T11:38:45.000Z</time>
      </trkpt>
      <trkpt lat="47.22543" lon="-1.46709">
        <ele>50</ele>
        <time>2021-04-20T11:38:47.000Z</time>
      </trkpt>
      <trkpt lat="47.2255" lon="-1.46724">
        <ele>50</ele>
        <time>2021-04-20T11:38:49.000Z</time>
      </trkpt>
      <trkpt lat="47.22559" lon="-1.46736">
        <ele>50</ele>
        <time>2021-04-20T11:38:51.000Z</time>
      </trkpt>
      <trkpt lat="47.22569" lon="-1.46748">
        <ele>50</ele>
        <time>2021-04-20T11:38:53.000Z</time>
      </trkpt>
      <trkpt lat="47.2258" lon="-1.46758">
        <ele>50</ele>
        <time>2021-04-20T11:38:55.000Z</time>
      </trkpt>
      <trkpt lat="47.22591" lon="-1.46766">
        <ele>50</ele>
        <time>2021-04-20T11:38:57.000Z</time>
      </trkpt>
      <trkpt lat="47.22601" lon="-1.46774">
        <ele>50</ele>
        <time>2021-04-20T11:38:59.000Z</time>
      </trkpt>
      <trkpt lat="47.22609" lon="-1.4678">
        <ele>50</ele>
        <time>2021-04-20T11:39:01.000Z</time>
      </trkpt>
      <trkpt lat="47.22618" lon="-1.46789">
        <ele>50</ele>
        <time>2021-04-20T11:39:03.000Z</time>
      </trkpt>
      <trkpt lat="47.22625" lon="-1.46802">
        <ele>50</ele>
        <time>2021-04-20T11:39:05.000Z</time>
      </trkpt>
      <trkpt lat="47.22627" lon="-1.46817">
        <ele>51</ele>
        <time>2021-04-20T11:39:07.000Z</time>
      </trkpt>
      <trkpt lat="47.22622" lon="-1.46834">
        <ele>51</ele>
        <time>2021-04-20T11:39:09.000Z</time>
      </trkpt>
      <trkpt lat="47.22614" lon="-1.46846">
        <ele>51</ele>
        <time>2021-04-20T11:39:11.000Z</time>
      </trkpt>
      <trkpt lat="47.22607" lon="-1.4686">
        <ele>52</ele>
        <time>2021-04-20T11:39:13.000Z</time>
      </trkpt>
      <trkpt lat="47.22603" lon="-1.46876">
        <ele>51</ele>
        <time>2021-04-20T11:39:15.000Z</time>
      </trkpt>
      <trkpt lat="47.22604" lon="-1.46896">
        <ele>51</ele>
        <time>2021-04-20T11:39:17.000Z</time>
      </trkpt>
      <trkpt lat="47.22604" lon="-1.46924">
        <ele>51</ele>
        <time>2021-04-20T11:39:20.000Z</time>
      </trkpt>
      <trkpt lat="47.22604" lon="-1.46945">
        <ele>50</ele>
        <time>2021-04-20T11:39:22.000Z</time>
      </trkpt>
      <trkpt lat="47.22605" lon="-1.46966">
        <ele>50</ele>
        <time>2021-04-20T11:39:24.000Z</time>
      </trkpt>
      <trkpt lat="47.22607" lon="-1.46986">
        <ele>50</ele>
        <time>2021-04-20T11:39:26.000Z</time>
      </trkpt>
      <trkpt lat="47.22604" lon="-1.47007">
        <ele>51</ele>
        <time>2021-04-20T11:39:28.000Z</time>
      </trkpt>
      <trkpt lat="47.22601" lon="-1.47025">
        <ele>51</ele>
        <time>2021-04-20T11:39:30.000Z</time>
      </trkpt>
      <trkpt lat="47.22596" lon="-1.47043">
        <ele>51</ele>
        <time>2021-04-20T11:39:32.000Z</time>
      </trkpt>
      <trkpt lat="47.22586" lon="-1.47066">
        <ele>52</ele>
        <time>2021-04-20T11:39:35.000Z</time>
      </trkpt>
      <trkpt lat="47.22578" lon="-1.47078">
        <ele>52</ele>
        <time>2021-04-20T11:39:37.000Z</time>
      </trkpt>
      <trkpt lat="47.22569" lon="-1.47088">
        <ele>53</ele>
        <time>2021-04-20T11:39:39.000Z</time>
      </trkpt>
      <trkpt lat="47.2256" lon="-1.47096">
        <ele>53</ele>
        <time>2021-04-20T11:39:41.000Z</time>
      </trkpt>
      <trkpt lat="47.2255" lon="-1.47104">
        <ele>53</ele>
        <time>2021-04-20T11:39:43.000Z</time>
      </trkpt>
      <trkpt lat="47.22541" lon="-1.4711">
        <ele>54</ele>
        <time>2021-04-20T11:39:45.000Z</time>
      </trkpt>
      <trkpt lat="47.22531" lon="-1.47115">
        <ele>53</ele>
        <time>2021-04-20T11:39:47.000Z</time>
      </trkpt>
      <trkpt lat="47.22527" lon="-1.47127">
        <ele>53</ele>
        <time>2021-04-20T11:39:50.000Z</time>
      </trkpt>
      <trkpt lat="47.22536" lon="-1.47128">
        <ele>53</ele>
        <time>2021-04-20T11:39:52.000Z</time>
      </trkpt>
      <trkpt lat="47.22548" lon="-1.47122">
        <ele>52</ele>
        <time>2021-04-20T11:39:54.000Z</time>
      </trkpt>
      <trkpt lat="47.22565" lon="-1.47116">
        <ele>51</ele>
        <time>2021-04-20T11:39:57.000Z</time>
      </trkpt>
      <trkpt lat="47.22577" lon="-1.47109">
        <ele>51</ele>
        <time>2021-04-20T11:39:59.000Z</time>
      </trkpt>
      <trkpt lat="47.22588" lon="-1.471">
        <ele>50</ele>
        <time>2021-04-20T11:40:01.000Z</time>
      </trkpt>
      <trkpt lat="47.22597" lon="-1.47089">
        <ele>50</ele>
        <time>2021-04-20T11:40:03.000Z</time>
      </trkpt>
      <trkpt lat="47.22606" lon="-1.47075">
        <ele>50</ele>
        <time>2021-04-20T11:40:05.000Z</time>
      </trkpt>
      <trkpt lat="47.22613" lon="-1.47061">
        <ele>49</ele>
        <time>2021-04-20T11:40:07.000Z</time>
      </trkpt>
      <trkpt lat="47.22621" lon="-1.47048">
        <ele>49</ele>
        <time>2021-04-20T11:40:09.000Z</time>
      </trkpt>
      <trkpt lat="47.22628" lon="-1.47034">
        <ele>50</ele>
        <time>2021-04-20T11:40:11.000Z</time>
      </trkpt>
      <trkpt lat="47.22637" lon="-1.47023">
        <ele>49</ele>
        <time>2021-04-20T11:40:13.000Z</time>
      </trkpt>
      <trkpt lat="47.22646" lon="-1.47011">
        <ele>49</ele>
        <time>2021-04-20T11:40:15.000Z</time>
      </trkpt>
      <trkpt lat="47.22655" lon="-1.47">
        <ele>49</ele>
        <time>2021-04-20T11:40:17.000Z</time>
      </trkpt>
      <trkpt lat="47.22665" lon="-1.46991">
        <ele>49</ele>
        <time>2021-04-20T11:40:19.000Z</time>
      </trkpt>
      <trkpt lat="47.22675" lon="-1.46982">
        <ele>49</ele>
        <time>2021-04-20T11:40:21.000Z</time>
      </trkpt>
      <trkpt lat="47.22686" lon="-1.46975">
        <ele>49</ele>
        <time>2021-04-20T11:40:23.000Z</time>
      </trkpt>
      <trkpt lat="47.22697" lon="-1.46968">
        <ele>49</ele>
        <time>2021-04-20T11:40:25.000Z</time>
      </trkpt>
      <trkpt lat="47.22709" lon="-1.46963">
        <ele>49</ele>
        <time>2021-04-20T11:40:27.000Z</time>
      </trkpt>
      <trkpt lat="47.22721" lon="-1.46958">
        <ele>49</ele>
        <time>2021-04-20T11:40:29.000Z</time>
      </trkpt>
      <trkpt lat="47.22739" lon="-1.46955">
        <ele>49</ele>
        <time>2021-04-20T11:40:32.000Z</time>
      </trkpt>
      <trkpt lat="47.22757" lon="-1.46953">
        <ele>49</ele>
        <time>2021-04-20T11:40:35.000Z</time>
      </trkpt>
      <trkpt lat="47.22776" lon="-1.46954">
        <ele>50</ele>
        <time>2021-04-20T11:40:38.000Z</time>
      </trkpt>
      <trkpt lat="47.22788" lon="-1.46956">
        <ele>49</ele>
        <time>2021-04-20T11:40:40.000Z</time>
      </trkpt>
      <trkpt lat="47.228" lon="-1.46959">
        <ele>49</ele>
        <time>2021-04-20T11:40:42.000Z</time>
      </trkpt>
      <trkpt lat="47.22812" lon="-1.46964">
        <ele>49</ele>
        <time>2021-04-20T11:40:44.000Z</time>
      </trkpt>
      <trkpt lat="47.22824" lon="-1.46969">
        <ele>49</ele>
        <time>2021-04-20T11:40:46.000Z</time>
      </trkpt>
      <trkpt lat="47.22835" lon="-1.46975">
        <ele>50</ele>
        <time>2021-04-20T11:40:48.000Z</time>
      </trkpt>
      <trkpt lat="47.22847" lon="-1.4698">
        <ele>49</ele>
        <time>2021-04-20T11:40:50.000Z</time>
      </trkpt>
      <trkpt lat="47.22858" lon="-1.46987">
        <ele>49</ele>
        <time>2021-04-20T11:40:52.000Z</time>
      </trkpt>
      <trkpt lat="47.22869" lon="-1.46993">
        <ele>49</ele>
        <time>2021-04-20T11:40:54.000Z</time>
      </trkpt>
      <trkpt lat="47.22881" lon="-1.46998">
        <ele>49</ele>
        <time>2021-04-20T11:40:56.000Z</time>
      </trkpt>
      <trkpt lat="47.22894" lon="-1.47001">
        <ele>49</ele>
        <time>2021-04-20T11:40:58.000Z</time>
      </trkpt>
      <trkpt lat="47.22905" lon="-1.46992">
        <ele>48</ele>
        <time>2021-04-20T11:41:00.000Z</time>
      </trkpt>
      <trkpt lat="47.22912" lon="-1.46976">
        <ele>48</ele>
        <time>2021-04-20T11:41:02.000Z</time>
      </trkpt>
      <trkpt lat="47.22916" lon="-1.46958">
        <ele>48</ele>
        <time>2021-04-20T11:41:04.000Z</time>
      </trkpt>
      <trkpt lat="47.2292" lon="-1.46942">
        <ele>48</ele>
        <time>2021-04-20T11:41:06.000Z</time>
      </trkpt>
      <trkpt lat="47.22924" lon="-1.46925">
        <ele>48</ele>
        <time>2021-04-20T11:41:08.000Z</time>
      </trkpt>
      <trkpt lat="47.22928" lon="-1.46908">
        <ele>48</ele>
        <time>2021-04-20T11:41:10.000Z</time>
      </trkpt>
      <trkpt lat="47.22932" lon="-1.46891">
        <ele>48</ele>
        <time>2021-04-20T11:41:12.000Z</time>
      </trkpt>
      <trkpt lat="47.22936" lon="-1.46873">
        <ele>48</ele>
        <time>2021-04-20T11:41:14.000Z</time>
      </trkpt>
      <trkpt lat="47.22939" lon="-1.46858">
        <ele>48</ele>
        <time>2021-04-20T11:41:16.000Z</time>
      </trkpt>
      <trkpt lat="47.22947" lon="-1.46837">
        <ele>47</ele>
        <time>2021-04-20T11:41:19.000Z</time>
      </trkpt>
      <trkpt lat="47.22956" lon="-1.4683">
        <ele>47</ele>
        <time>2021-04-20T11:41:21.000Z</time>
      </trkpt>
      <trkpt lat="47.22966" lon="-1.46819">
        <ele>47</ele>
        <time>2021-04-20T11:41:23.000Z</time>
      </trkpt>
      <trkpt lat="47.22972" lon="-1.46804">
        <ele>48</ele>
        <time>2021-04-20T11:41:25.000Z</time>
      </trkpt>
      <trkpt lat="47.22977" lon="-1.46789">
        <ele>48</ele>
        <time>2021-04-20T11:41:27.000Z</time>
      </trkpt>
      <trkpt lat="47.22984" lon="-1.46775">
        <ele>49</ele>
        <time>2021-04-20T11:41:29.000Z</time>
      </trkpt>
      <trkpt lat="47.22993" lon="-1.46765">
        <ele>49</ele>
        <time>2021-04-20T11:41:31.000Z</time>
      </trkpt>
      <trkpt lat="47.23002" lon="-1.46757">
        <ele>49</ele>
        <time>2021-04-20T11:41:33.000Z</time>
      </trkpt>
      <trkpt lat="47.2301" lon="-1.46751">
        <ele>49</ele>
        <time>2021-04-20T11:41:35.000Z</time>
      </trkpt>
      <trkpt lat="47.23019" lon="-1.46745">
        <ele>48</ele>
        <time>2021-04-20T11:41:37.000Z</time>
      </trkpt>
      <trkpt lat="47.23031" lon="-1.46741">
        <ele>49</ele>
        <time>2021-04-20T11:41:40.000Z</time>
      </trkpt>
      <trkpt lat="47.23041" lon="-1.46734">
        <ele>48</ele>
        <time>2021-04-20T11:41:44.000Z</time>
      </trkpt>
      <trkpt lat="47.23047" lon="-1.46749">
        <ele>48</ele>
        <time>2021-04-20T11:41:50.000Z</time>
      </trkpt>
      <trkpt lat="47.23046" lon="-1.46767">
        <ele>46</ele>
        <time>2021-04-20T11:41:52.000Z</time>
      </trkpt>
      <trkpt lat="47.23046" lon="-1.46795">
        <ele>46</ele>
        <time>2021-04-20T11:41:55.000Z</time>
      </trkpt>
      <trkpt lat="47.23045" lon="-1.46813">
        <ele>46</ele>
        <time>2021-04-20T11:41:57.000Z</time>
      </trkpt>
      <trkpt lat="47.23045" lon="-1.4683">
        <ele>46</ele>
        <time>2021-04-20T11:41:59.000Z</time>
      </trkpt>
      <trkpt lat="47.23044" lon="-1.46847">
        <ele>47</ele>
        <time>2021-04-20T11:42:01.000Z</time>
      </trkpt>
      <trkpt lat="47.23044" lon="-1.46864">
        <ele>47</ele>
        <time>2021-04-20T11:42:03.000Z</time>
      </trkpt>
      <trkpt lat="47.23043" lon="-1.46879">
        <ele>47</ele>
        <time>2021-04-20T11:42:05.000Z</time>
      </trkpt>
      <trkpt lat="47.23043" lon="-1.46894">
        <ele>47</ele>
        <time>2021-04-20T11:42:07.000Z</time>
      </trkpt>
      <trkpt lat="47.23041" lon="-1.46908">
        <ele>47</ele>
        <time>2021-04-20T11:42:09.000Z</time>
      </trkpt>
      <trkpt lat="47.23037" lon="-1.46926">
        <ele>47</ele>
        <time>2021-04-20T11:42:12.000Z</time>
      </trkpt>
      <trkpt lat="47.23042" lon="-1.46937">
        <ele>48</ele>
        <time>2021-04-20T11:42:14.000Z</time>
      </trkpt>
      <trkpt lat="47.23049" lon="-1.46947">
        <ele>48</ele>
        <time>2021-04-20T11:42:16.000Z</time>
      </trkpt>
      <trkpt lat="47.23054" lon="-1.46959">
        <ele>49</ele>
        <time>2021-04-20T11:42:18.000Z</time>
      </trkpt>
      <trkpt lat="47.2306" lon="-1.46972">
        <ele>49</ele>
        <time>2021-04-20T11:42:20.000Z</time>
      </trkpt>
      <trkpt lat="47.23066" lon="-1.46983">
        <ele>50</ele>
        <time>2021-04-20T11:42:22.000Z</time>
      </trkpt>
      <trkpt lat="47.23072" lon="-1.46994">
        <ele>51</ele>
        <time>2021-04-20T11:42:24.000Z</time>
      </trkpt>
      <trkpt lat="47.23078" lon="-1.47006">
        <ele>52</ele>
        <time>2021-04-20T11:42:26.000Z</time>
      </trkpt>
      <trkpt lat="47.23085" lon="-1.47017">
        <ele>53</ele>
        <time>2021-04-20T11:42:28.000Z</time>
      </trkpt>
      <trkpt lat="47.23092" lon="-1.47029">
        <ele>53</ele>
        <time>2021-04-20T11:42:30.000Z</time>
      </trkpt>
      <trkpt lat="47.23099" lon="-1.47041">
        <ele>53</ele>
        <time>2021-04-20T11:42:32.000Z</time>
      </trkpt>
      <trkpt lat="47.23106" lon="-1.47053">
        <ele>54</ele>
        <time>2021-04-20T11:42:34.000Z</time>
      </trkpt>
      <trkpt lat="47.23112" lon="-1.47065">
        <ele>55</ele>
        <time>2021-04-20T11:42:36.000Z</time>
      </trkpt>
      <trkpt lat="47.23118" lon="-1.47078">
        <ele>55</ele>
        <time>2021-04-20T11:42:38.000Z</time>
      </trkpt>
      <trkpt lat="47.23124" lon="-1.4709">
        <ele>56</ele>
        <time>2021-04-20T11:42:40.000Z</time>
      </trkpt>
      <trkpt lat="47.23131" lon="-1.47101">
        <ele>56</ele>
        <time>2021-04-20T11:42:42.000Z</time>
      </trkpt>
      <trkpt lat="47.23138" lon="-1.47113">
        <ele>57</ele>
        <time>2021-04-20T11:42:44.000Z</time>
      </trkpt>
      <trkpt lat="47.23145" lon="-1.47125">
        <ele>57</ele>
        <time>2021-04-20T11:42:46.000Z</time>
      </trkpt>
      <trkpt lat="47.23152" lon="-1.47138">
        <ele>57</ele>
        <time>2021-04-20T11:42:48.000Z</time>
      </trkpt>
      <trkpt lat="47.23159" lon="-1.47151">
        <ele>58</ele>
        <time>2021-04-20T11:42:50.000Z</time>
      </trkpt>
      <trkpt lat="47.23166" lon="-1.47163">
        <ele>58</ele>
        <time>2021-04-20T11:42:52.000Z</time>
      </trkpt>
      <trkpt lat="47.23173" lon="-1.47175">
        <ele>58</ele>
        <time>2021-04-20T11:42:54.000Z</time>
      </trkpt>
      <trkpt lat="47.2318" lon="-1.47186">
        <ele>58</ele>
        <time>2021-04-20T11:42:56.000Z</time>
      </trkpt>
      <trkpt lat="47.23187" lon="-1.47198">
        <ele>58</ele>
        <time>2021-04-20T11:42:58.000Z</time>
      </trkpt>
      <trkpt lat="47.23194" lon="-1.4721">
        <ele>59</ele>
        <time>2021-04-20T11:43:00.000Z</time>
      </trkpt>
      <trkpt lat="47.23201" lon="-1.47222">
        <ele>58</ele>
        <time>2021-04-20T11:43:02.000Z</time>
      </trkpt>
      <trkpt lat="47.23208" lon="-1.47234">
        <ele>58</ele>
        <time>2021-04-20T11:43:04.000Z</time>
      </trkpt>
      <trkpt lat="47.23215" lon="-1.47246">
        <ele>58</ele>
        <time>2021-04-20T11:43:06.000Z</time>
      </trkpt>
      <trkpt lat="47.23222" lon="-1.47258">
        <ele>58</ele>
        <time>2021-04-20T11:43:08.000Z</time>
      </trkpt>
      <trkpt lat="47.23229" lon="-1.4727">
        <ele>59</ele>
        <time>2021-04-20T11:43:10.000Z</time>
      </trkpt>
      <trkpt lat="47.23236" lon="-1.47283">
        <ele>58</ele>
        <time>2021-04-20T11:43:12.000Z</time>
      </trkpt>
      <trkpt lat="47.23244" lon="-1.47296">
        <ele>59</ele>
        <time>2021-04-20T11:43:14.000Z</time>
      </trkpt>
      <trkpt lat="47.23251" lon="-1.47309">
        <ele>59</ele>
        <time>2021-04-20T11:43:16.000Z</time>
      </trkpt>
      <trkpt lat="47.23258" lon="-1.47321">
        <ele>59</ele>
        <time>2021-04-20T11:43:18.000Z</time>
      </trkpt>
      <trkpt lat="47.23266" lon="-1.47334">
        <ele>59</ele>
        <time>2021-04-20T11:43:20.000Z</time>
      </trkpt>
      <trkpt lat="47.23273" lon="-1.47347">
        <ele>59</ele>
        <time>2021-04-20T11:43:22.000Z</time>
      </trkpt>
      <trkpt lat="47.23281" lon="-1.4736">
        <ele>59</ele>
        <time>2021-04-20T11:43:24.000Z</time>
      </trkpt>
      <trkpt lat="47.23288" lon="-1.47373">
        <ele>59</ele>
        <time>2021-04-20T11:43:26.000Z</time>
      </trkpt>
      <trkpt lat="47.23296" lon="-1.47387">
        <ele>59</ele>
        <time>2021-04-20T11:43:28.000Z</time>
      </trkpt>
      <trkpt lat="47.23304" lon="-1.474">
        <ele>59</ele>
        <time>2021-04-20T11:43:30.000Z</time>
      </trkpt>
      <trkpt lat="47.23311" lon="-1.47413">
        <ele>59</ele>
        <time>2021-04-20T11:43:32.000Z</time>
      </trkpt>
      <trkpt lat="47.23319" lon="-1.47426">
        <ele>59</ele>
        <time>2021-04-20T11:43:34.000Z</time>
      </trkpt>
      <trkpt lat="47.23327" lon="-1.47441">
        <ele>59</ele>
        <time>2021-04-20T11:43:36.000Z</time>
      </trkpt>
      <trkpt lat="47.23335" lon="-1.47455">
        <ele>59</ele>
        <time>2021-04-20T11:43:38.000Z</time>
      </trkpt>
      <trkpt lat="47.23344" lon="-1.47468">
        <ele>59</ele>
        <time>2021-04-20T11:43:40.000Z</time>
      </trkpt>
      <trkpt lat="47.23352" lon="-1.47483">
        <ele>59</ele>
        <time>2021-04-20T11:43:42.000Z</time>
      </trkpt>
      <trkpt lat="47.23361" lon="-1.47497">
        <ele>58</ele>
        <time>2021-04-20T11:43:44.000Z</time>
      </trkpt>
      <trkpt lat="47.23371" lon="-1.47512">
        <ele>57</ele>
        <time>2021-04-20T11:43:46.000Z</time>
      </trkpt>
      <trkpt lat="47.23382" lon="-1.47526">
        <ele>57</ele>
        <time>2021-04-20T11:43:48.000Z</time>
      </trkpt>
      <trkpt lat="47.23392" lon="-1.47541">
        <ele>56</ele>
        <time>2021-04-20T11:43:50.000Z</time>
      </trkpt>
      <trkpt lat="47.23402" lon="-1.47557">
        <ele>56</ele>
        <time>2021-04-20T11:43:52.000Z</time>
      </trkpt>
      <trkpt lat="47.23413" lon="-1.47572">
        <ele>55</ele>
        <time>2021-04-20T11:43:54.000Z</time>
      </trkpt>
      <trkpt lat="47.23423" lon="-1.47588">
        <ele>54</ele>
        <time>2021-04-20T11:43:56.000Z</time>
      </trkpt>
      <trkpt lat="47.23433" lon="-1.47603">
        <ele>54</ele>
        <time>2021-04-20T11:43:58.000Z</time>
      </trkpt>
      <trkpt lat="47.23444" lon="-1.47619">
        <ele>54</ele>
        <time>2021-04-20T11:44:00.000Z</time>
      </trkpt>
      <trkpt lat="47.23455" lon="-1.47634">
        <ele>54</ele>
        <time>2021-04-20T11:44:02.000Z</time>
      </trkpt>
      <trkpt lat="47.23465" lon="-1.47647">
        <ele>53</ele>
        <time>2021-04-20T11:44:04.000Z</time>
      </trkpt>
      <trkpt lat="47.23478" lon="-1.4766">
        <ele>52</ele>
        <time>2021-04-20T11:44:06.000Z</time>
      </trkpt>
      <trkpt lat="47.2349" lon="-1.47669">
        <ele>51</ele>
        <time>2021-04-20T11:44:08.000Z</time>
      </trkpt>
      <trkpt lat="47.23503" lon="-1.47679">
        <ele>51</ele>
        <time>2021-04-20T11:44:10.000Z</time>
      </trkpt>
      <trkpt lat="47.23515" lon="-1.47686">
        <ele>51</ele>
        <time>2021-04-20T11:44:12.000Z</time>
      </trkpt>
      <trkpt lat="47.23528" lon="-1.47694">
        <ele>50</ele>
        <time>2021-04-20T11:44:14.000Z</time>
      </trkpt>
      <trkpt lat="47.23539" lon="-1.47701">
        <ele>50</ele>
        <time>2021-04-20T11:44:16.000Z</time>
      </trkpt>
      <trkpt lat="47.2355" lon="-1.47701">
        <ele>49</ele>
        <time>2021-04-20T11:44:18.000Z</time>
      </trkpt>
      <trkpt lat="47.23559" lon="-1.47693">
        <ele>48</ele>
        <time>2021-04-20T11:44:20.000Z</time>
      </trkpt>
      <trkpt lat="47.23569" lon="-1.47686">
        <ele>49</ele>
        <time>2021-04-20T11:44:23.000Z</time>
      </trkpt>
      <trkpt lat="47.2358" lon="-1.47689">
        <ele>49</ele>
        <time>2021-04-20T11:44:25.000Z</time>
      </trkpt>
      <trkpt lat="47.23591" lon="-1.47696">
        <ele>49</ele>
        <time>2021-04-20T11:44:27.000Z</time>
      </trkpt>
      <trkpt lat="47.23603" lon="-1.47704">
        <ele>49</ele>
        <time>2021-04-20T11:44:29.000Z</time>
      </trkpt>
      <trkpt lat="47.23616" lon="-1.47711">
        <ele>50</ele>
        <time>2021-04-20T11:44:31.000Z</time>
      </trkpt>
      <trkpt lat="47.2363" lon="-1.47719">
        <ele>50</ele>
        <time>2021-04-20T11:44:33.000Z</time>
      </trkpt>
      <trkpt lat="47.23643" lon="-1.47727">
        <ele>50</ele>
        <time>2021-04-20T11:44:35.000Z</time>
      </trkpt>
      <trkpt lat="47.23656" lon="-1.47735">
        <ele>50</ele>
        <time>2021-04-20T11:44:37.000Z</time>
      </trkpt>
      <trkpt lat="47.23669" lon="-1.47743">
        <ele>50</ele>
        <time>2021-04-20T11:44:39.000Z</time>
      </trkpt>
      <trkpt lat="47.23683" lon="-1.47747">
        <ele>50</ele>
        <time>2021-04-20T11:44:41.000Z</time>
      </trkpt>
      <trkpt lat="47.23696" lon="-1.47746">
        <ele>50</ele>
        <time>2021-04-20T11:44:43.000Z</time>
      </trkpt>
      <trkpt lat="47.23709" lon="-1.47741">
        <ele>50</ele>
        <time>2021-04-20T11:44:45.000Z</time>
      </trkpt>
      <trkpt lat="47.23721" lon="-1.47732">
        <ele>49</ele>
        <time>2021-04-20T11:44:47.000Z</time>
      </trkpt>
      <trkpt lat="47.23732" lon="-1.47721">
        <ele>49</ele>
        <time>2021-04-20T11:44:49.000Z</time>
      </trkpt>
      <trkpt lat="47.23742" lon="-1.47709">
        <ele>49</ele>
        <time>2021-04-20T11:44:51.000Z</time>
      </trkpt>
      <trkpt lat="47.23752" lon="-1.47698">
        <ele>49</ele>
        <time>2021-04-20T11:44:53.000Z</time>
      </trkpt>
      <trkpt lat="47.23763" lon="-1.47687">
        <ele>49</ele>
        <time>2021-04-20T11:44:55.000Z</time>
      </trkpt>
      <trkpt lat="47.23775" lon="-1.47678">
        <ele>49</ele>
        <time>2021-04-20T11:44:57.000Z</time>
      </trkpt>
      <trkpt lat="47.23787" lon="-1.47672">
        <ele>49</ele>
        <time>2021-04-20T11:44:59.000Z</time>
      </trkpt>
      <trkpt lat="47.23798" lon="-1.47663">
        <ele>50</ele>
        <time>2021-04-20T11:45:01.000Z</time>
      </trkpt>
      <trkpt lat="47.23809" lon="-1.47653">
        <ele>50</ele>
        <time>2021-04-20T11:45:03.000Z</time>
      </trkpt>
      <trkpt lat="47.23821" lon="-1.4765">
        <ele>50</ele>
        <time>2021-04-20T11:45:05.000Z</time>
      </trkpt>
      <trkpt lat="47.23834" lon="-1.47647">
        <ele>50</ele>
        <time>2021-04-20T11:45:07.000Z</time>
      </trkpt>
      <trkpt lat="47.23847" lon="-1.47641">
        <ele>50</ele>
        <time>2021-04-20T11:45:09.000Z</time>
      </trkpt>
      <trkpt lat="47.23859" lon="-1.47635">
        <ele>50</ele>
        <time>2021-04-20T11:45:11.000Z</time>
      </trkpt>
      <trkpt lat="47.23872" lon="-1.4763">
        <ele>50</ele>
        <time>2021-04-20T11:45:13.000Z</time>
      </trkpt>
      <trkpt lat="47.23884" lon="-1.47627">
        <ele>51</ele>
        <time>2021-04-20T11:45:15.000Z</time>
      </trkpt>
      <trkpt lat="47.23897" lon="-1.47627">
        <ele>50</ele>
        <time>2021-04-20T11:45:17.000Z</time>
      </trkpt>
      <trkpt lat="47.2391" lon="-1.47629">
        <ele>50</ele>
        <time>2021-04-20T11:45:19.000Z</time>
      </trkpt>
      <trkpt lat="47.23924" lon="-1.47634">
        <ele>49</ele>
        <time>2021-04-20T11:45:21.000Z</time>
      </trkpt>
      <trkpt lat="47.23936" lon="-1.47642">
        <ele>49</ele>
        <time>2021-04-20T11:45:23.000Z</time>
      </trkpt>
      <trkpt lat="47.23948" lon="-1.47653">
        <ele>49</ele>
        <time>2021-04-20T11:45:25.000Z</time>
      </trkpt>
      <trkpt lat="47.23958" lon="-1.47666">
        <ele>50</ele>
        <time>2021-04-20T11:45:27.000Z</time>
      </trkpt>
      <trkpt lat="47.23967" lon="-1.47681">
        <ele>50</ele>
        <time>2021-04-20T11:45:29.000Z</time>
      </trkpt>
      <trkpt lat="47.23975" lon="-1.47698">
        <ele>50</ele>
        <time>2021-04-20T11:45:31.000Z</time>
      </trkpt>
      <trkpt lat="47.23983" lon="-1.47715">
        <ele>50</ele>
        <time>2021-04-20T11:45:33.000Z</time>
      </trkpt>
      <trkpt lat="47.2399" lon="-1.47731">
        <ele>50</ele>
        <time>2021-04-20T11:45:35.000Z</time>
      </trkpt>
      <trkpt lat="47.23997" lon="-1.47747">
        <ele>50</ele>
        <time>2021-04-20T11:45:37.000Z</time>
      </trkpt>
      <trkpt lat="47.24001" lon="-1.47783">
        <ele>50</ele>
        <time>2021-04-20T11:45:41.000Z</time>
      </trkpt>
      <trkpt lat="47.24015" lon="-1.47796">
        <ele>50</ele>
        <time>2021-04-20T11:45:43.000Z</time>
      </trkpt>
      <trkpt lat="47.24021" lon="-1.47812">
        <ele>50</ele>
        <time>2021-04-20T11:45:45.000Z</time>
      </trkpt>
      <trkpt lat="47.24029" lon="-1.47828">
        <ele>51</ele>
        <time>2021-04-20T11:45:47.000Z</time>
      </trkpt>
      <trkpt lat="47.24037" lon="-1.47846">
        <ele>50</ele>
        <time>2021-04-20T11:45:49.000Z</time>
      </trkpt>
      <trkpt lat="47.24043" lon="-1.47864">
        <ele>50</ele>
        <time>2021-04-20T11:45:51.000Z</time>
      </trkpt>
      <trkpt lat="47.24049" lon="-1.47882">
        <ele>50</ele>
        <time>2021-04-20T11:45:53.000Z</time>
      </trkpt>
      <trkpt lat="47.24055" lon="-1.479">
        <ele>50</ele>
        <time>2021-04-20T11:45:55.000Z</time>
      </trkpt>
      <trkpt lat="47.24061" lon="-1.47918">
        <ele>50</ele>
        <time>2021-04-20T11:45:57.000Z</time>
      </trkpt>
      <trkpt lat="47.24067" lon="-1.47937">
        <ele>50</ele>
        <time>2021-04-20T11:45:59.000Z</time>
      </trkpt>
      <trkpt lat="47.24073" lon="-1.47957">
        <ele>50</ele>
        <time>2021-04-20T11:46:01.000Z</time>
      </trkpt>
      <trkpt lat="47.24079" lon="-1.47976">
        <ele>50</ele>
        <time>2021-04-20T11:46:03.000Z</time>
      </trkpt>
      <trkpt lat="47.24086" lon="-1.47997">
        <ele>49</ele>
        <time>2021-04-20T11:46:05.000Z</time>
      </trkpt>
      <trkpt lat="47.24095" lon="-1.48018">
        <ele>49</ele>
        <time>2021-04-20T11:46:07.000Z</time>
      </trkpt>
      <trkpt lat="47.24104" lon="-1.48037">
        <ele>48</ele>
        <time>2021-04-20T11:46:09.000Z</time>
      </trkpt>
      <trkpt lat="47.24115" lon="-1.48055">
        <ele>48</ele>
        <time>2021-04-20T11:46:11.000Z</time>
      </trkpt>
      <trkpt lat="47.24126" lon="-1.48072">
        <ele>48</ele>
        <time>2021-04-20T11:46:13.000Z</time>
      </trkpt>
      <trkpt lat="47.24137" lon="-1.48087">
        <ele>48</ele>
        <time>2021-04-20T11:46:15.000Z</time>
      </trkpt>
      <trkpt lat="47.24148" lon="-1.48101">
        <ele>48</ele>
        <time>2021-04-20T11:46:17.000Z</time>
      </trkpt>
      <trkpt lat="47.24159" lon="-1.48113">
        <ele>48</ele>
        <time>2021-04-20T11:46:19.000Z</time>
      </trkpt>
      <trkpt lat="47.24171" lon="-1.48125">
        <ele>48</ele>
        <time>2021-04-20T11:46:21.000Z</time>
      </trkpt>
      <trkpt lat="47.24183" lon="-1.48134">
        <ele>49</ele>
        <time>2021-04-20T11:46:23.000Z</time>
      </trkpt>
      <trkpt lat="47.24195" lon="-1.48144">
        <ele>49</ele>
        <time>2021-04-20T11:46:25.000Z</time>
      </trkpt>
      <trkpt lat="47.24207" lon="-1.48154">
        <ele>50</ele>
        <time>2021-04-20T11:46:27.000Z</time>
      </trkpt>
      <trkpt lat="47.2422" lon="-1.48162">
        <ele>50</ele>
        <time>2021-04-20T11:46:29.000Z</time>
      </trkpt>
      <trkpt lat="47.24232" lon="-1.48171">
        <ele>49</ele>
        <time>2021-04-20T11:46:31.000Z</time>
      </trkpt>
      <trkpt lat="47.24245" lon="-1.48178">
        <ele>49</ele>
        <time>2021-04-20T11:46:33.000Z</time>
      </trkpt>
      <trkpt lat="47.24258" lon="-1.48183">
        <ele>49</ele>
        <time>2021-04-20T11:46:35.000Z</time>
      </trkpt>
      <trkpt lat="47.24271" lon="-1.4819">
        <ele>49</ele>
        <time>2021-04-20T11:46:37.000Z</time>
      </trkpt>
      <trkpt lat="47.24283" lon="-1.48199">
        <ele>49</ele>
        <time>2021-04-20T11:46:39.000Z</time>
      </trkpt>
      <trkpt lat="47.24295" lon="-1.48208">
        <ele>49</ele>
        <time>2021-04-20T11:46:41.000Z</time>
      </trkpt>
      <trkpt lat="47.24307" lon="-1.48219">
        <ele>49</ele>
        <time>2021-04-20T11:46:43.000Z</time>
      </trkpt>
      <trkpt lat="47.24318" lon="-1.48229">
        <ele>49</ele>
        <time>2021-04-20T11:46:45.000Z</time>
      </trkpt>
      <trkpt lat="47.24329" lon="-1.4824">
        <ele>49</ele>
        <time>2021-04-20T11:46:47.000Z</time>
      </trkpt>
      <trkpt lat="47.24342" lon="-1.48246">
        <ele>50</ele>
        <time>2021-04-20T11:46:49.000Z</time>
      </trkpt>
      <trkpt lat="47.24353" lon="-1.48254">
        <ele>50</ele>
        <time>2021-04-20T11:46:51.000Z</time>
      </trkpt>
      <trkpt lat="47.24361" lon="-1.4827">
        <ele>49</ele>
        <time>2021-04-20T11:46:53.000Z</time>
      </trkpt>
      <trkpt lat="47.2437" lon="-1.48288">
        <ele>49</ele>
        <time>2021-04-20T11:46:55.000Z</time>
      </trkpt>
      <trkpt lat="47.2438" lon="-1.48302">
        <ele>49</ele>
        <time>2021-04-20T11:46:57.000Z</time>
      </trkpt>
      <trkpt lat="47.24391" lon="-1.48316">
        <ele>49</ele>
        <time>2021-04-20T11:46:59.000Z</time>
      </trkpt>
      <trkpt lat="47.24401" lon="-1.48329">
        <ele>49</ele>
        <time>2021-04-20T11:47:01.000Z</time>
      </trkpt>
      <trkpt lat="47.24412" lon="-1.48342">
        <ele>49</ele>
        <time>2021-04-20T11:47:03.000Z</time>
      </trkpt>
      <trkpt lat="47.24423" lon="-1.48353">
        <ele>48</ele>
        <time>2021-04-20T11:47:05.000Z</time>
      </trkpt>
      <trkpt lat="47.24435" lon="-1.4836">
        <ele>49</ele>
        <time>2021-04-20T11:47:07.000Z</time>
      </trkpt>
      <trkpt lat="47.24448" lon="-1.48366">
        <ele>49</ele>
        <time>2021-04-20T11:47:09.000Z</time>
      </trkpt>
      <trkpt lat="47.24461" lon="-1.48372">
        <ele>49</ele>
        <time>2021-04-20T11:47:11.000Z</time>
      </trkpt>
      <trkpt lat="47.24473" lon="-1.48381">
        <ele>49</ele>
        <time>2021-04-20T11:47:13.000Z</time>
      </trkpt>
      <trkpt lat="47.24485" lon="-1.4839">
        <ele>49</ele>
        <time>2021-04-20T11:47:15.000Z</time>
      </trkpt>
      <trkpt lat="47.24497" lon="-1.48398">
        <ele>49</ele>
        <time>2021-04-20T11:47:17.000Z</time>
      </trkpt>
      <trkpt lat="47.2451" lon="-1.48406">
        <ele>49</ele>
        <time>2021-04-20T11:47:19.000Z</time>
      </trkpt>
      <trkpt lat="47.24521" lon="-1.48415">
        <ele>49</ele>
        <time>2021-04-20T11:47:21.000Z</time>
      </trkpt>
      <trkpt lat="47.24533" lon="-1.48426">
        <ele>49</ele>
        <time>2021-04-20T11:47:23.000Z</time>
      </trkpt>
      <trkpt lat="47.24544" lon="-1.48438">
        <ele>49</ele>
        <time>2021-04-20T11:47:25.000Z</time>
      </trkpt>
      <trkpt lat="47.24555" lon="-1.4845">
        <ele>49</ele>
        <time>2021-04-20T11:47:27.000Z</time>
      </trkpt>
      <trkpt lat="47.24566" lon="-1.48461">
        <ele>49</ele>
        <time>2021-04-20T11:47:29.000Z</time>
      </trkpt>
      <trkpt lat="47.24576" lon="-1.48473">
        <ele>50</ele>
        <time>2021-04-20T11:47:31.000Z</time>
      </trkpt>
      <trkpt lat="47.24586" lon="-1.48486">
        <ele>50</ele>
        <time>2021-04-20T11:47:33.000Z</time>
      </trkpt>
      <trkpt lat="47.24597" lon="-1.48498">
        <ele>50</ele>
        <time>2021-04-20T11:47:35.000Z</time>
      </trkpt>
      <trkpt lat="47.24607" lon="-1.48511">
        <ele>50</ele>
        <time>2021-04-20T11:47:37.000Z</time>
      </trkpt>
      <trkpt lat="47.24618" lon="-1.48523">
        <ele>50</ele>
        <time>2021-04-20T11:47:39.000Z</time>
      </trkpt>
      <trkpt lat="47.24628" lon="-1.48536">
        <ele>51</ele>
        <time>2021-04-20T11:47:41.000Z</time>
      </trkpt>
      <trkpt lat="47.24638" lon="-1.48549">
        <ele>51</ele>
        <time>2021-04-20T11:47:43.000Z</time>
      </trkpt>
      <trkpt lat="47.24649" lon="-1.4856">
        <ele>51</ele>
        <time>2021-04-20T11:47:45.000Z</time>
      </trkpt>
      <trkpt lat="47.2466" lon="-1.48571">
        <ele>51</ele>
        <time>2021-04-20T11:47:47.000Z</time>
      </trkpt>
      <trkpt lat="47.24672" lon="-1.48581">
        <ele>51</ele>
        <time>2021-04-20T11:47:49.000Z</time>
      </trkpt>
      <trkpt lat="47.24683" lon="-1.48591">
        <ele>52</ele>
        <time>2021-04-20T11:47:51.000Z</time>
      </trkpt>
      <trkpt lat="47.24693" lon="-1.48601">
        <ele>52</ele>
        <time>2021-04-20T11:47:53.000Z</time>
      </trkpt>
      <trkpt lat="47.24704" lon="-1.48611">
        <ele>53</ele>
        <time>2021-04-20T11:47:55.000Z</time>
      </trkpt>
      <trkpt lat="47.24715" lon="-1.48621">
        <ele>53</ele>
        <time>2021-04-20T11:47:57.000Z</time>
      </trkpt>
      <trkpt lat="47.24725" lon="-1.48628">
        <ele>52</ele>
        <time>2021-04-20T11:47:59.000Z</time>
      </trkpt>
      <trkpt lat="47.24736" lon="-1.48631">
        <ele>53</ele>
        <time>2021-04-20T11:48:01.000Z</time>
      </trkpt>
      <trkpt lat="47.24747" lon="-1.48628">
        <ele>53</ele>
        <time>2021-04-20T11:48:03.000Z</time>
      </trkpt>
      <trkpt lat="47.24759" lon="-1.48631">
        <ele>54</ele>
        <time>2021-04-20T11:48:05.000Z</time>
      </trkpt>
      <trkpt lat="47.24768" lon="-1.48641">
        <ele>54</ele>
        <time>2021-04-20T11:48:07.000Z</time>
      </trkpt>
      <trkpt lat="47.24779" lon="-1.48649">
        <ele>55</ele>
        <time>2021-04-20T11:48:09.000Z</time>
      </trkpt>
      <trkpt lat="47.24793" lon="-1.4865">
        <ele>55</ele>
        <time>2021-04-20T11:48:11.000Z</time>
      </trkpt>
      <trkpt lat="47.24806" lon="-1.4865">
        <ele>56</ele>
        <time>2021-04-20T11:48:13.000Z</time>
      </trkpt>
      <trkpt lat="47.24819" lon="-1.48651">
        <ele>56</ele>
        <time>2021-04-20T11:48:15.000Z</time>
      </trkpt>
      <trkpt lat="47.24831" lon="-1.48651">
        <ele>56</ele>
        <time>2021-04-20T11:48:17.000Z</time>
      </trkpt>
      <trkpt lat="47.24843" lon="-1.48652">
        <ele>56</ele>
        <time>2021-04-20T11:48:19.000Z</time>
      </trkpt>
      <trkpt lat="47.24853" lon="-1.48655">
        <ele>56</ele>
        <time>2021-04-20T11:48:21.000Z</time>
      </trkpt>
      <trkpt lat="47.24863" lon="-1.48658">
        <ele>57</ele>
        <time>2021-04-20T11:48:23.000Z</time>
      </trkpt>
      <trkpt lat="47.24872" lon="-1.48661">
        <ele>57</ele>
        <time>2021-04-20T11:48:25.000Z</time>
      </trkpt>
      <trkpt lat="47.24884" lon="-1.48663">
        <ele>57</ele>
        <time>2021-04-20T11:48:28.000Z</time>
      </trkpt>
      <trkpt lat="47.24898" lon="-1.48664">
        <ele>58</ele>
        <time>2021-04-20T11:48:31.000Z</time>
      </trkpt>
      <trkpt lat="47.24908" lon="-1.48667">
        <ele>58</ele>
        <time>2021-04-20T11:48:33.000Z</time>
      </trkpt>
      <trkpt lat="47.24918" lon="-1.4867">
        <ele>58</ele>
        <time>2021-04-20T11:48:35.000Z</time>
      </trkpt>
      <trkpt lat="47.24928" lon="-1.48675">
        <ele>58</ele>
        <time>2021-04-20T11:48:37.000Z</time>
      </trkpt>
      <trkpt lat="47.24938" lon="-1.4868">
        <ele>59</ele>
        <time>2021-04-20T11:48:39.000Z</time>
      </trkpt>
      <trkpt lat="47.24947" lon="-1.48681">
        <ele>60</ele>
        <time>2021-04-20T11:48:41.000Z</time>
      </trkpt>
      <trkpt lat="47.24956" lon="-1.48687">
        <ele>60</ele>
        <time>2021-04-20T11:48:43.000Z</time>
      </trkpt>
      <trkpt lat="47.24965" lon="-1.48698">
        <ele>60</ele>
        <time>2021-04-20T11:48:45.000Z</time>
      </trkpt>
      <trkpt lat="47.24976" lon="-1.48706">
        <ele>62</ele>
        <time>2021-04-20T11:48:47.000Z</time>
      </trkpt>
      <trkpt lat="47.24988" lon="-1.48711">
        <ele>62</ele>
        <time>2021-04-20T11:48:49.000Z</time>
      </trkpt>
      <trkpt lat="47.24998" lon="-1.48718">
        <ele>63</ele>
        <time>2021-04-20T11:48:51.000Z</time>
      </trkpt>
      <trkpt lat="47.2501" lon="-1.48724">
        <ele>63</ele>
        <time>2021-04-20T11:48:53.000Z</time>
      </trkpt>
      <trkpt lat="47.25021" lon="-1.48729">
        <ele>63</ele>
        <time>2021-04-20T11:48:55.000Z</time>
      </trkpt>
      <trkpt lat="47.25031" lon="-1.48734">
        <ele>63</ele>
        <time>2021-04-20T11:48:57.000Z</time>
      </trkpt>
      <trkpt lat="47.25043" lon="-1.48736">
        <ele>63</ele>
        <time>2021-04-20T11:48:59.000Z</time>
      </trkpt>
      <trkpt lat="47.25055" lon="-1.4874">
        <ele>62</ele>
        <time>2021-04-20T11:49:01.000Z</time>
      </trkpt>
      <trkpt lat="47.25066" lon="-1.48742">
        <ele>62</ele>
        <time>2021-04-20T11:49:03.000Z</time>
      </trkpt>
      <trkpt lat="47.25076" lon="-1.48743">
        <ele>62</ele>
        <time>2021-04-20T11:49:05.000Z</time>
      </trkpt>
      <trkpt lat="47.25088" lon="-1.48745">
        <ele>62</ele>
        <time>2021-04-20T11:49:07.000Z</time>
      </trkpt>
      <trkpt lat="47.251" lon="-1.48748">
        <ele>62</ele>
        <time>2021-04-20T11:49:09.000Z</time>
      </trkpt>
      <trkpt lat="47.25113" lon="-1.4875">
        <ele>62</ele>
        <time>2021-04-20T11:49:11.000Z</time>
      </trkpt>
      <trkpt lat="47.25125" lon="-1.48751">
        <ele>62</ele>
        <time>2021-04-20T11:49:13.000Z</time>
      </trkpt>
      <trkpt lat="47.25137" lon="-1.4875">
        <ele>62</ele>
        <time>2021-04-20T11:49:15.000Z</time>
      </trkpt>
      <trkpt lat="47.25149" lon="-1.48748">
        <ele>63</ele>
        <time>2021-04-20T11:49:17.000Z</time>
      </trkpt>
      <trkpt lat="47.2516" lon="-1.48745">
        <ele>63</ele>
        <time>2021-04-20T11:49:19.000Z</time>
      </trkpt>
      <trkpt lat="47.25172" lon="-1.48743">
        <ele>62</ele>
        <time>2021-04-20T11:49:21.000Z</time>
      </trkpt>
      <trkpt lat="47.25184" lon="-1.48741">
        <ele>62</ele>
        <time>2021-04-20T11:49:23.000Z</time>
      </trkpt>
      <trkpt lat="47.25195" lon="-1.48739">
        <ele>62</ele>
        <time>2021-04-20T11:49:25.000Z</time>
      </trkpt>
      <trkpt lat="47.25207" lon="-1.48737">
        <ele>62</ele>
        <time>2021-04-20T11:49:27.000Z</time>
      </trkpt>
      <trkpt lat="47.25219" lon="-1.48735">
        <ele>62</ele>
        <time>2021-04-20T11:49:29.000Z</time>
      </trkpt>
      <trkpt lat="47.25231" lon="-1.48735">
        <ele>62</ele>
        <time>2021-04-20T11:49:31.000Z</time>
      </trkpt>
      <trkpt lat="47.25243" lon="-1.48735">
        <ele>63</ele>
        <time>2021-04-20T11:49:33.000Z</time>
      </trkpt>
      <trkpt lat="47.25254" lon="-1.48736">
        <ele>63</ele>
        <time>2021-04-20T11:49:35.000Z</time>
      </trkpt>
      <trkpt lat="47.25265" lon="-1.48737">
        <ele>63</ele>
        <time>2021-04-20T11:49:37.000Z</time>
      </trkpt>
      <trkpt lat="47.25276" lon="-1.48734">
        <ele>63</ele>
        <time>2021-04-20T11:49:39.000Z</time>
      </trkpt>
      <trkpt lat="47.25287" lon="-1.48735">
        <ele>63</ele>
        <time>2021-04-20T11:49:41.000Z</time>
      </trkpt>
      <trkpt lat="47.25297" lon="-1.48745">
        <ele>62</ele>
        <time>2021-04-20T11:49:43.000Z</time>
      </trkpt>
      <trkpt lat="47.25307" lon="-1.48752">
        <ele>63</ele>
        <time>2021-04-20T11:49:45.000Z</time>
      </trkpt>
      <trkpt lat="47.25319" lon="-1.48757">
        <ele>64</ele>
        <time>2021-04-20T11:49:47.000Z</time>
      </trkpt>
      <trkpt lat="47.25331" lon="-1.48761">
        <ele>64</ele>
        <time>2021-04-20T11:49:49.000Z</time>
      </trkpt>
      <trkpt lat="47.25342" lon="-1.48763">
        <ele>64</ele>
        <time>2021-04-20T11:49:51.000Z</time>
      </trkpt>
      <trkpt lat="47.25354" lon="-1.48766">
        <ele>64</ele>
        <time>2021-04-20T11:49:53.000Z</time>
      </trkpt>
      <trkpt lat="47.25366" lon="-1.48769">
        <ele>64</ele>
        <time>2021-04-20T11:49:55.000Z</time>
      </trkpt>
      <trkpt lat="47.25377" lon="-1.48771">
        <ele>65</ele>
        <time>2021-04-20T11:49:57.000Z</time>
      </trkpt>
      <trkpt lat="47.25389" lon="-1.48773">
        <ele>65</ele>
        <time>2021-04-20T11:49:59.000Z</time>
      </trkpt>
      <trkpt lat="47.25401" lon="-1.48774">
        <ele>65</ele>
        <time>2021-04-20T11:50:01.000Z</time>
      </trkpt>
      <trkpt lat="47.25413" lon="-1.48776">
        <ele>65</ele>
        <time>2021-04-20T11:50:03.000Z</time>
      </trkpt>
      <trkpt lat="47.25425" lon="-1.48777">
        <ele>65</ele>
        <time>2021-04-20T11:50:05.000Z</time>
      </trkpt>
      <trkpt lat="47.25436" lon="-1.48776">
        <ele>65</ele>
        <time>2021-04-20T11:50:07.000Z</time>
      </trkpt>
      <trkpt lat="47.25447" lon="-1.48776">
        <ele>65</ele>
        <time>2021-04-20T11:50:09.000Z</time>
      </trkpt>
      <trkpt lat="47.25459" lon="-1.48776">
        <ele>66</ele>
        <time>2021-04-20T11:50:11.000Z</time>
      </trkpt>
      <trkpt lat="47.25471" lon="-1.48775">
        <ele>66</ele>
        <time>2021-04-20T11:50:13.000Z</time>
      </trkpt>
      <trkpt lat="47.25482" lon="-1.48772">
        <ele>66</ele>
        <time>2021-04-20T11:50:15.000Z</time>
      </trkpt>
      <trkpt lat="47.25493" lon="-1.48769">
        <ele>66</ele>
        <time>2021-04-20T11:50:17.000Z</time>
      </trkpt>
      <trkpt lat="47.25504" lon="-1.48767">
        <ele>67</ele>
        <time>2021-04-20T11:50:19.000Z</time>
      </trkpt>
      <trkpt lat="47.25515" lon="-1.48764">
        <ele>67</ele>
        <time>2021-04-20T11:50:21.000Z</time>
      </trkpt>
      <trkpt lat="47.25526" lon="-1.4876">
        <ele>67</ele>
        <time>2021-04-20T11:50:23.000Z</time>
      </trkpt>
      <trkpt lat="47.25537" lon="-1.48757">
        <ele>67</ele>
        <time>2021-04-20T11:50:25.000Z</time>
      </trkpt>
      <trkpt lat="47.25548" lon="-1.48755">
        <ele>67</ele>
        <time>2021-04-20T11:50:27.000Z</time>
      </trkpt>
      <trkpt lat="47.25558" lon="-1.48751">
        <ele>67</ele>
        <time>2021-04-20T11:50:29.000Z</time>
      </trkpt>
      <trkpt lat="47.25569" lon="-1.48747">
        <ele>68</ele>
        <time>2021-04-20T11:50:31.000Z</time>
      </trkpt>
      <trkpt lat="47.25581" lon="-1.48745">
        <ele>68</ele>
        <time>2021-04-20T11:50:33.000Z</time>
      </trkpt>
      <trkpt lat="47.25592" lon="-1.48744">
        <ele>68</ele>
        <time>2021-04-20T11:50:35.000Z</time>
      </trkpt>
      <trkpt lat="47.25603" lon="-1.48744">
        <ele>68</ele>
        <time>2021-04-20T11:50:37.000Z</time>
      </trkpt>
      <trkpt lat="47.25614" lon="-1.48745">
        <ele>68</ele>
        <time>2021-04-20T11:50:39.000Z</time>
      </trkpt>
      <trkpt lat="47.25626" lon="-1.48746">
        <ele>69</ele>
        <time>2021-04-20T11:50:41.000Z</time>
      </trkpt>
      <trkpt lat="47.25636" lon="-1.48749">
        <ele>69</ele>
        <time>2021-04-20T11:50:43.000Z</time>
      </trkpt>
      <trkpt lat="47.25647" lon="-1.48752">
        <ele>69</ele>
        <time>2021-04-20T11:50:45.000Z</time>
      </trkpt>
      <trkpt lat="47.25658" lon="-1.48754">
        <ele>69</ele>
        <time>2021-04-20T11:50:47.000Z</time>
      </trkpt>
      <trkpt lat="47.25669" lon="-1.48753">
        <ele>70</ele>
        <time>2021-04-20T11:50:49.000Z</time>
      </trkpt>
      <trkpt lat="47.25681" lon="-1.48755">
        <ele>69</ele>
        <time>2021-04-20T11:50:51.000Z</time>
      </trkpt>
      <trkpt lat="47.25692" lon="-1.48759">
        <ele>69</ele>
        <time>2021-04-20T11:50:53.000Z</time>
      </trkpt>
      <trkpt lat="47.25704" lon="-1.48759">
        <ele>70</ele>
        <time>2021-04-20T11:50:55.000Z</time>
      </trkpt>
      <trkpt lat="47.25716" lon="-1.48759">
        <ele>71</ele>
        <time>2021-04-20T11:50:57.000Z</time>
      </trkpt>
      <trkpt lat="47.25728" lon="-1.48757">
        <ele>72</ele>
        <time>2021-04-20T11:50:59.000Z</time>
      </trkpt>
      <trkpt lat="47.25739" lon="-1.48755">
        <ele>72</ele>
        <time>2021-04-20T11:51:01.000Z</time>
      </trkpt>
      <trkpt lat="47.2575" lon="-1.48752">
        <ele>71</ele>
        <time>2021-04-20T11:51:03.000Z</time>
      </trkpt>
      <trkpt lat="47.25762" lon="-1.48749">
        <ele>71</ele>
        <time>2021-04-20T11:51:05.000Z</time>
      </trkpt>
      <trkpt lat="47.25773" lon="-1.48746">
        <ele>71</ele>
        <time>2021-04-20T11:51:07.000Z</time>
      </trkpt>
      <trkpt lat="47.25784" lon="-1.48744">
        <ele>71</ele>
        <time>2021-04-20T11:51:09.000Z</time>
      </trkpt>
      <trkpt lat="47.25795" lon="-1.48743">
        <ele>71</ele>
        <time>2021-04-20T11:51:11.000Z</time>
      </trkpt>
      <trkpt lat="47.25806" lon="-1.48742">
        <ele>71</ele>
        <time>2021-04-20T11:51:13.000Z</time>
      </trkpt>
      <trkpt lat="47.25817" lon="-1.48742">
        <ele>71</ele>
        <time>2021-04-20T11:51:15.000Z</time>
      </trkpt>
      <trkpt lat="47.25829" lon="-1.48744">
        <ele>71</ele>
        <time>2021-04-20T11:51:17.000Z</time>
      </trkpt>
      <trkpt lat="47.25841" lon="-1.48745">
        <ele>70</ele>
        <time>2021-04-20T11:51:19.000Z</time>
      </trkpt>
      <trkpt lat="47.25853" lon="-1.48745">
        <ele>70</ele>
        <time>2021-04-20T11:51:21.000Z</time>
      </trkpt>
      <trkpt lat="47.25865" lon="-1.48746">
        <ele>70</ele>
        <time>2021-04-20T11:51:23.000Z</time>
      </trkpt>
      <trkpt lat="47.25877" lon="-1.48746">
        <ele>70</ele>
        <time>2021-04-20T11:51:25.000Z</time>
      </trkpt>
      <trkpt lat="47.25889" lon="-1.48746">
        <ele>70</ele>
        <time>2021-04-20T11:51:27.000Z</time>
      </trkpt>
      <trkpt lat="47.25901" lon="-1.48747">
        <ele>70</ele>
        <time>2021-04-20T11:51:29.000Z</time>
      </trkpt>
      <trkpt lat="47.25912" lon="-1.48748">
        <ele>70</ele>
        <time>2021-04-20T11:51:31.000Z</time>
      </trkpt>
      <trkpt lat="47.25925" lon="-1.48748">
        <ele>70</ele>
        <time>2021-04-20T11:51:33.000Z</time>
      </trkpt>
      <trkpt lat="47.25937" lon="-1.48748">
        <ele>70</ele>
        <time>2021-04-20T11:51:35.000Z</time>
      </trkpt>
      <trkpt lat="47.25949" lon="-1.48749">
        <ele>70</ele>
        <time>2021-04-20T11:51:37.000Z</time>
      </trkpt>
      <trkpt lat="47.25962" lon="-1.4875">
        <ele>70</ele>
        <time>2021-04-20T11:51:39.000Z</time>
      </trkpt>
      <trkpt lat="47.25974" lon="-1.48751">
        <ele>70</ele>
        <time>2021-04-20T11:51:41.000Z</time>
      </trkpt>
      <trkpt lat="47.25987" lon="-1.48751">
        <ele>70</ele>
        <time>2021-04-20T11:51:43.000Z</time>
      </trkpt>
      <trkpt lat="47.25999" lon="-1.48751">
        <ele>70</ele>
        <time>2021-04-20T11:51:45.000Z</time>
      </trkpt>
      <trkpt lat="47.26012" lon="-1.4875">
        <ele>70</ele>
        <time>2021-04-20T11:51:47.000Z</time>
      </trkpt>
      <trkpt lat="47.26025" lon="-1.48748">
        <ele>70</ele>
        <time>2021-04-20T11:51:49.000Z</time>
      </trkpt>
      <trkpt lat="47.26038" lon="-1.48747">
        <ele>70</ele>
        <time>2021-04-20T11:51:51.000Z</time>
      </trkpt>
      <trkpt lat="47.2605" lon="-1.48744">
        <ele>69</ele>
        <time>2021-04-20T11:51:53.000Z</time>
      </trkpt>
      <trkpt lat="47.26063" lon="-1.48741">
        <ele>69</ele>
        <time>2021-04-20T11:51:55.000Z</time>
      </trkpt>
      <trkpt lat="47.26076" lon="-1.48738">
        <ele>69</ele>
        <time>2021-04-20T11:51:57.000Z</time>
      </trkpt>
      <trkpt lat="47.26089" lon="-1.48736">
        <ele>69</ele>
        <time>2021-04-20T11:51:59.000Z</time>
      </trkpt>
      <trkpt lat="47.26102" lon="-1.48732">
        <ele>69</ele>
        <time>2021-04-20T11:52:01.000Z</time>
      </trkpt>
      <trkpt lat="47.26114" lon="-1.48729">
        <ele>69</ele>
        <time>2021-04-20T11:52:03.000Z</time>
      </trkpt>
      <trkpt lat="47.26127" lon="-1.48726">
        <ele>68</ele>
        <time>2021-04-20T11:52:05.000Z</time>
      </trkpt>
      <trkpt lat="47.26138" lon="-1.48719">
        <ele>69</ele>
        <time>2021-04-20T11:52:07.000Z</time>
      </trkpt>
      <trkpt lat="47.26151" lon="-1.48713">
        <ele>69</ele>
        <time>2021-04-20T11:52:09.000Z</time>
      </trkpt>
      <trkpt lat="47.26162" lon="-1.48708">
        <ele>69</ele>
        <time>2021-04-20T11:52:11.000Z</time>
      </trkpt>
      <trkpt lat="47.26174" lon="-1.48704">
        <ele>69</ele>
        <time>2021-04-20T11:52:13.000Z</time>
      </trkpt>
      <trkpt lat="47.26185" lon="-1.48698">
        <ele>69</ele>
        <time>2021-04-20T11:52:15.000Z</time>
      </trkpt>
      <trkpt lat="47.26196" lon="-1.48693">
        <ele>70</ele>
        <time>2021-04-20T11:52:17.000Z</time>
      </trkpt>
      <trkpt lat="47.26208" lon="-1.48688">
        <ele>70</ele>
        <time>2021-04-20T11:52:19.000Z</time>
      </trkpt>
      <trkpt lat="47.26219" lon="-1.48683">
        <ele>70</ele>
        <time>2021-04-20T11:52:21.000Z</time>
      </trkpt>
      <trkpt lat="47.2623" lon="-1.48677">
        <ele>71</ele>
        <time>2021-04-20T11:52:23.000Z</time>
      </trkpt>
      <trkpt lat="47.26241" lon="-1.48672">
        <ele>72</ele>
        <time>2021-04-20T11:52:25.000Z</time>
      </trkpt>
      <trkpt lat="47.26253" lon="-1.48671">
        <ele>72</ele>
        <time>2021-04-20T11:52:27.000Z</time>
      </trkpt>
      <trkpt lat="47.26264" lon="-1.48669">
        <ele>72</ele>
        <time>2021-04-20T11:52:29.000Z</time>
      </trkpt>
      <trkpt lat="47.26275" lon="-1.48667">
        <ele>73</ele>
        <time>2021-04-20T11:52:31.000Z</time>
      </trkpt>
      <trkpt lat="47.26287" lon="-1.48666">
        <ele>73</ele>
        <time>2021-04-20T11:52:33.000Z</time>
      </trkpt>
      <trkpt lat="47.26298" lon="-1.48665">
        <ele>73</ele>
        <time>2021-04-20T11:52:35.000Z</time>
      </trkpt>
      <trkpt lat="47.2631" lon="-1.48664">
        <ele>73</ele>
        <time>2021-04-20T11:52:37.000Z</time>
      </trkpt>
      <trkpt lat="47.26321" lon="-1.48664">
        <ele>73</ele>
        <time>2021-04-20T11:52:39.000Z</time>
      </trkpt>
      <trkpt lat="47.26332" lon="-1.48663">
        <ele>73</ele>
        <time>2021-04-20T11:52:41.000Z</time>
      </trkpt>
      <trkpt lat="47.26344" lon="-1.48664">
        <ele>74</ele>
        <time>2021-04-20T11:52:43.000Z</time>
      </trkpt>
      <trkpt lat="47.26355" lon="-1.48666">
        <ele>73</ele>
        <time>2021-04-20T11:52:45.000Z</time>
      </trkpt>
      <trkpt lat="47.26366" lon="-1.48668">
        <ele>73</ele>
        <time>2021-04-20T11:52:47.000Z</time>
      </trkpt>
      <trkpt lat="47.26378" lon="-1.48669">
        <ele>74</ele>
        <time>2021-04-20T11:52:49.000Z</time>
      </trkpt>
      <trkpt lat="47.26389" lon="-1.4867">
        <ele>74</ele>
        <time>2021-04-20T11:52:51.000Z</time>
      </trkpt>
      <trkpt lat="47.26401" lon="-1.48671">
        <ele>74</ele>
        <time>2021-04-20T11:52:53.000Z</time>
      </trkpt>
      <trkpt lat="47.26412" lon="-1.48672">
        <ele>74</ele>
        <time>2021-04-20T11:52:55.000Z</time>
      </trkpt>
      <trkpt lat="47.26424" lon="-1.48673">
        <ele>74</ele>
        <time>2021-04-20T11:52:57.000Z</time>
      </trkpt>
      <trkpt lat="47.26436" lon="-1.48675">
        <ele>75</ele>
        <time>2021-04-20T11:52:59.000Z</time>
      </trkpt>
      <trkpt lat="47.26447" lon="-1.48677">
        <ele>75</ele>
        <time>2021-04-20T11:53:01.000Z</time>
      </trkpt>
      <trkpt lat="47.26458" lon="-1.4868">
        <ele>76</ele>
        <time>2021-04-20T11:53:03.000Z</time>
      </trkpt>
      <trkpt lat="47.2647" lon="-1.48684">
        <ele>76</ele>
        <time>2021-04-20T11:53:05.000Z</time>
      </trkpt>
      <trkpt lat="47.26481" lon="-1.48686">
        <ele>76</ele>
        <time>2021-04-20T11:53:07.000Z</time>
      </trkpt>
      <trkpt lat="47.26492" lon="-1.48689">
        <ele>76</ele>
        <time>2021-04-20T11:53:09.000Z</time>
      </trkpt>
      <trkpt lat="47.26503" lon="-1.48692">
        <ele>76</ele>
        <time>2021-04-20T11:53:11.000Z</time>
      </trkpt>
      <trkpt lat="47.26514" lon="-1.48696">
        <ele>77</ele>
        <time>2021-04-20T11:53:13.000Z</time>
      </trkpt>
      <trkpt lat="47.26525" lon="-1.48699">
        <ele>77</ele>
        <time>2021-04-20T11:53:15.000Z</time>
      </trkpt>
      <trkpt lat="47.26536" lon="-1.48704">
        <ele>77</ele>
        <time>2021-04-20T11:53:17.000Z</time>
      </trkpt>
      <trkpt lat="47.26547" lon="-1.48707">
        <ele>77</ele>
        <time>2021-04-20T11:53:19.000Z</time>
      </trkpt>
      <trkpt lat="47.26557" lon="-1.48711">
        <ele>78</ele>
        <time>2021-04-20T11:53:21.000Z</time>
      </trkpt>
      <trkpt lat="47.26568" lon="-1.48715">
        <ele>78</ele>
        <time>2021-04-20T11:53:23.000Z</time>
      </trkpt>
      <trkpt lat="47.26578" lon="-1.48716">
        <ele>78</ele>
        <time>2021-04-20T11:53:25.000Z</time>
      </trkpt>
      <trkpt lat="47.26589" lon="-1.48714">
        <ele>78</ele>
        <time>2021-04-20T11:53:27.000Z</time>
      </trkpt>
      <trkpt lat="47.26599" lon="-1.48713">
        <ele>78</ele>
        <time>2021-04-20T11:53:30.000Z</time>
      </trkpt>
      <trkpt lat="47.26608" lon="-1.48717">
        <ele>78</ele>
        <time>2021-04-20T11:54:28.000Z</time>
      </trkpt>
      <trkpt lat="47.26619" lon="-1.48728">
        <ele>78</ele>
        <time>2021-04-20T11:54:31.000Z</time>
      </trkpt>
      <trkpt lat="47.26628" lon="-1.48737">
        <ele>78</ele>
        <time>2021-04-20T11:54:33.000Z</time>
      </trkpt>
      <trkpt lat="47.26635" lon="-1.4875">
        <ele>79</ele>
        <time>2021-04-20T11:54:35.000Z</time>
      </trkpt>
      <trkpt lat="47.2664" lon="-1.48768">
        <ele>79</ele>
        <time>2021-04-20T11:54:37.000Z</time>
      </trkpt>
      <trkpt lat="47.26648" lon="-1.48782">
        <ele>79</ele>
        <time>2021-04-20T11:54:39.000Z</time>
      </trkpt>
      <trkpt lat="47.26659" lon="-1.48793">
        <ele>79</ele>
        <time>2021-04-20T11:54:41.000Z</time>
      </trkpt>
      <trkpt lat="47.2667" lon="-1.48804">
        <ele>80</ele>
        <time>2021-04-20T11:54:43.000Z</time>
      </trkpt>
      <trkpt lat="47.2668" lon="-1.48814">
        <ele>81</ele>
        <time>2021-04-20T11:54:45.000Z</time>
      </trkpt>
      <trkpt lat="47.26691" lon="-1.48825">
        <ele>82</ele>
        <time>2021-04-20T11:54:47.000Z</time>
      </trkpt>
      <trkpt lat="47.26702" lon="-1.48836">
        <ele>84</ele>
        <time>2021-04-20T11:54:49.000Z</time>
      </trkpt>
      <trkpt lat="47.26711" lon="-1.48848">
        <ele>85</ele>
        <time>2021-04-20T11:54:51.000Z</time>
      </trkpt>
      <trkpt lat="47.2672" lon="-1.48861">
        <ele>84</ele>
        <time>2021-04-20T11:54:53.000Z</time>
      </trkpt>
      <trkpt lat="47.26731" lon="-1.48867">
        <ele>83</ele>
        <time>2021-04-20T11:54:55.000Z</time>
      </trkpt>
      <trkpt lat="47.26743" lon="-1.48865">
        <ele>82</ele>
        <time>2021-04-20T11:54:57.000Z</time>
      </trkpt>
      <trkpt lat="47.26753" lon="-1.48855">
        <ele>81</ele>
        <time>2021-04-20T11:54:59.000Z</time>
      </trkpt>
      <trkpt lat="47.26761" lon="-1.48842">
        <ele>79</ele>
        <time>2021-04-20T11:55:01.000Z</time>
      </trkpt>
      <trkpt lat="47.2677" lon="-1.48829">
        <ele>79</ele>
        <time>2021-04-20T11:55:03.000Z</time>
      </trkpt>
      <trkpt lat="47.2678" lon="-1.48817">
        <ele>79</ele>
        <time>2021-04-20T11:55:05.000Z</time>
      </trkpt>
      <trkpt lat="47.26789" lon="-1.48804">
        <ele>78</ele>
        <time>2021-04-20T11:55:07.000Z</time>
      </trkpt>
      <trkpt lat="47.26797" lon="-1.48791">
        <ele>78</ele>
        <time>2021-04-20T11:55:09.000Z</time>
      </trkpt>
      <trkpt lat="47.26807" lon="-1.48779">
        <ele>79</ele>
        <time>2021-04-20T11:55:11.000Z</time>
      </trkpt>
      <trkpt lat="47.26817" lon="-1.48767">
        <ele>79</ele>
        <time>2021-04-20T11:55:13.000Z</time>
      </trkpt>
      <trkpt lat="47.26826" lon="-1.48754">
        <ele>79</ele>
        <time>2021-04-20T11:55:15.000Z</time>
      </trkpt>
      <trkpt lat="47.26835" lon="-1.48742">
        <ele>79</ele>
        <time>2021-04-20T11:55:17.000Z</time>
      </trkpt>
      <trkpt lat="47.26843" lon="-1.48729">
        <ele>79</ele>
        <time>2021-04-20T11:55:19.000Z</time>
      </trkpt>
      <trkpt lat="47.26852" lon="-1.48717">
        <ele>79</ele>
        <time>2021-04-20T11:55:21.000Z</time>
      </trkpt>
      <trkpt lat="47.26861" lon="-1.48705">
        <ele>79</ele>
        <time>2021-04-20T11:55:23.000Z</time>
      </trkpt>
      <trkpt lat="47.2687" lon="-1.48694">
        <ele>79</ele>
        <time>2021-04-20T11:55:25.000Z</time>
      </trkpt>
      <trkpt lat="47.26879" lon="-1.48682">
        <ele>79</ele>
        <time>2021-04-20T11:55:27.000Z</time>
      </trkpt>
      <trkpt lat="47.26889" lon="-1.48673">
        <ele>78</ele>
        <time>2021-04-20T11:55:29.000Z</time>
      </trkpt>
      <trkpt lat="47.26899" lon="-1.48664">
        <ele>78</ele>
        <time>2021-04-20T11:55:31.000Z</time>
      </trkpt>
      <trkpt lat="47.2691" lon="-1.48655">
        <ele>78</ele>
        <time>2021-04-20T11:55:33.000Z</time>
      </trkpt>
      <trkpt lat="47.26921" lon="-1.48645">
        <ele>78</ele>
        <time>2021-04-20T11:55:35.000Z</time>
      </trkpt>
      <trkpt lat="47.26932" lon="-1.48637">
        <ele>78</ele>
        <time>2021-04-20T11:55:37.000Z</time>
      </trkpt>
      <trkpt lat="47.26943" lon="-1.48629">
        <ele>78</ele>
        <time>2021-04-20T11:55:39.000Z</time>
      </trkpt>
      <trkpt lat="47.26954" lon="-1.4862">
        <ele>78</ele>
        <time>2021-04-20T11:55:41.000Z</time>
      </trkpt>
      <trkpt lat="47.26964" lon="-1.48611">
        <ele>78</ele>
        <time>2021-04-20T11:55:43.000Z</time>
      </trkpt>
      <trkpt lat="47.26975" lon="-1.48603">
        <ele>78</ele>
        <time>2021-04-20T11:55:45.000Z</time>
      </trkpt>
      <trkpt lat="47.26986" lon="-1.48594">
        <ele>79</ele>
        <time>2021-04-20T11:55:47.000Z</time>
      </trkpt>
      <trkpt lat="47.26998" lon="-1.48586">
        <ele>78</ele>
        <time>2021-04-20T11:55:49.000Z</time>
      </trkpt>
      <trkpt lat="47.27009" lon="-1.48578">
        <ele>78</ele>
        <time>2021-04-20T11:55:51.000Z</time>
      </trkpt>
      <trkpt lat="47.27021" lon="-1.4857">
        <ele>78</ele>
        <time>2021-04-20T11:55:53.000Z</time>
      </trkpt>
      <trkpt lat="47.27033" lon="-1.48562">
        <ele>78</ele>
        <time>2021-04-20T11:55:55.000Z</time>
      </trkpt>
      <trkpt lat="47.27045" lon="-1.48554">
        <ele>78</ele>
        <time>2021-04-20T11:55:57.000Z</time>
      </trkpt>
      <trkpt lat="47.27057" lon="-1.48546">
        <ele>78</ele>
        <time>2021-04-20T11:55:59.000Z</time>
      </trkpt>
      <trkpt lat="47.27068" lon="-1.48538">
        <ele>78</ele>
        <time>2021-04-20T11:56:01.000Z</time>
      </trkpt>
      <trkpt lat="47.2708" lon="-1.48533">
        <ele>77</ele>
        <time>2021-04-20T11:56:03.000Z</time>
      </trkpt>
      <trkpt lat="47.27091" lon="-1.48523">
        <ele>77</ele>
        <time>2021-04-20T11:56:05.000Z</time>
      </trkpt>
      <trkpt lat="47.27102" lon="-1.48513">
        <ele>77</ele>
        <time>2021-04-20T11:56:07.000Z</time>
      </trkpt>
      <trkpt lat="47.27112" lon="-1.48504">
        <ele>77</ele>
        <time>2021-04-20T11:56:09.000Z</time>
      </trkpt>
      <trkpt lat="47.27122" lon="-1.48495">
        <ele>77</ele>
        <time>2021-04-20T11:56:11.000Z</time>
      </trkpt>
      <trkpt lat="47.27133" lon="-1.48486">
        <ele>78</ele>
        <time>2021-04-20T11:56:13.000Z</time>
      </trkpt>
      <trkpt lat="47.27144" lon="-1.48477">
        <ele>78</ele>
        <time>2021-04-20T11:56:15.000Z</time>
      </trkpt>
      <trkpt lat="47.27154" lon="-1.48469">
        <ele>78</ele>
        <time>2021-04-20T11:56:17.000Z</time>
      </trkpt>
      <trkpt lat="47.27165" lon="-1.48459">
        <ele>78</ele>
        <time>2021-04-20T11:56:19.000Z</time>
      </trkpt>
      <trkpt lat="47.27176" lon="-1.48451">
        <ele>77</ele>
        <time>2021-04-20T11:56:21.000Z</time>
      </trkpt>
      <trkpt lat="47.27186" lon="-1.48442">
        <ele>77</ele>
        <time>2021-04-20T11:56:23.000Z</time>
      </trkpt>
      <trkpt lat="47.27198" lon="-1.48433">
        <ele>77</ele>
        <time>2021-04-20T11:56:25.000Z</time>
      </trkpt>
      <trkpt lat="47.27208" lon="-1.48424">
        <ele>77</ele>
        <time>2021-04-20T11:56:27.000Z</time>
      </trkpt>
      <trkpt lat="47.27218" lon="-1.48415">
        <ele>77</ele>
        <time>2021-04-20T11:56:29.000Z</time>
      </trkpt>
      <trkpt lat="47.27229" lon="-1.48408">
        <ele>77</ele>
        <time>2021-04-20T11:56:31.000Z</time>
      </trkpt>
      <trkpt lat="47.2724" lon="-1.48401">
        <ele>77</ele>
        <time>2021-04-20T11:56:33.000Z</time>
      </trkpt>
      <trkpt lat="47.27251" lon="-1.48393">
        <ele>78</ele>
        <time>2021-04-20T11:56:35.000Z</time>
      </trkpt>
      <trkpt lat="47.27261" lon="-1.48385">
        <ele>78</ele>
        <time>2021-04-20T11:56:37.000Z</time>
      </trkpt>
      <trkpt lat="47.2727" lon="-1.48376">
        <ele>79</ele>
        <time>2021-04-20T11:56:39.000Z</time>
      </trkpt>
      <trkpt lat="47.2728" lon="-1.48368">
        <ele>79</ele>
        <time>2021-04-20T11:56:41.000Z</time>
      </trkpt>
      <trkpt lat="47.27291" lon="-1.48361">
        <ele>79</ele>
        <time>2021-04-20T11:56:43.000Z</time>
      </trkpt>
      <trkpt lat="47.27301" lon="-1.48354">
        <ele>79</ele>
        <time>2021-04-20T11:56:45.000Z</time>
      </trkpt>
      <trkpt lat="47.27312" lon="-1.48347">
        <ele>78</ele>
        <time>2021-04-20T11:56:47.000Z</time>
      </trkpt>
      <trkpt lat="47.27324" lon="-1.4834">
        <ele>78</ele>
        <time>2021-04-20T11:56:49.000Z</time>
      </trkpt>
      <trkpt lat="47.27336" lon="-1.48335">
        <ele>79</ele>
        <time>2021-04-20T11:56:51.000Z</time>
      </trkpt>
      <trkpt lat="47.27348" lon="-1.48331">
        <ele>79</ele>
        <time>2021-04-20T11:56:53.000Z</time>
      </trkpt>
      <trkpt lat="47.27361" lon="-1.48328">
        <ele>79</ele>
        <time>2021-04-20T11:56:55.000Z</time>
      </trkpt>
      <trkpt lat="47.27373" lon="-1.48327">
        <ele>79</ele>
        <time>2021-04-20T11:56:57.000Z</time>
      </trkpt>
      <trkpt lat="47.27386" lon="-1.48327">
        <ele>80</ele>
        <time>2021-04-20T11:56:59.000Z</time>
      </trkpt>
      <trkpt lat="47.27398" lon="-1.48328">
        <ele>80</ele>
        <time>2021-04-20T11:57:01.000Z</time>
      </trkpt>
      <trkpt lat="47.2741" lon="-1.48329">
        <ele>80</ele>
        <time>2021-04-20T11:57:03.000Z</time>
      </trkpt>
      <trkpt lat="47.27422" lon="-1.4833">
        <ele>80</ele>
        <time>2021-04-20T11:57:05.000Z</time>
      </trkpt>
      <trkpt lat="47.27434" lon="-1.48333">
        <ele>80</ele>
        <time>2021-04-20T11:57:07.000Z</time>
      </trkpt>
      <trkpt lat="47.27447" lon="-1.48335">
        <ele>80</ele>
        <time>2021-04-20T11:57:09.000Z</time>
      </trkpt>
      <trkpt lat="47.27459" lon="-1.48337">
        <ele>80</ele>
        <time>2021-04-20T11:57:11.000Z</time>
      </trkpt>
      <trkpt lat="47.27471" lon="-1.48338">
        <ele>80</ele>
        <time>2021-04-20T11:57:13.000Z</time>
      </trkpt>
      <trkpt lat="47.27482" lon="-1.48339">
        <ele>81</ele>
        <time>2021-04-20T11:57:15.000Z</time>
      </trkpt>
      <trkpt lat="47.27494" lon="-1.48342">
        <ele>80</ele>
        <time>2021-04-20T11:57:17.000Z</time>
      </trkpt>
      <trkpt lat="47.27505" lon="-1.48344">
        <ele>80</ele>
        <time>2021-04-20T11:57:19.000Z</time>
      </trkpt>
      <trkpt lat="47.27517" lon="-1.48345">
        <ele>80</ele>
        <time>2021-04-20T11:57:21.000Z</time>
      </trkpt>
      <trkpt lat="47.27528" lon="-1.48347">
        <ele>81</ele>
        <time>2021-04-20T11:57:23.000Z</time>
      </trkpt>
      <trkpt lat="47.27538" lon="-1.4835">
        <ele>81</ele>
        <time>2021-04-20T11:57:25.000Z</time>
      </trkpt>
      <trkpt lat="47.2755" lon="-1.48351">
        <ele>81</ele>
        <time>2021-04-20T11:57:27.000Z</time>
      </trkpt>
      <trkpt lat="47.27562" lon="-1.48352">
        <ele>82</ele>
        <time>2021-04-20T11:57:29.000Z</time>
      </trkpt>
      <trkpt lat="47.27573" lon="-1.48353">
        <ele>82</ele>
        <time>2021-04-20T11:57:31.000Z</time>
      </trkpt>
      <trkpt lat="47.27585" lon="-1.48352">
        <ele>82</ele>
        <time>2021-04-20T11:57:33.000Z</time>
      </trkpt>
      <trkpt lat="47.27596" lon="-1.4835">
        <ele>81</ele>
        <time>2021-04-20T11:57:35.000Z</time>
      </trkpt>
      <trkpt lat="47.27608" lon="-1.48346">
        <ele>81</ele>
        <time>2021-04-20T11:57:37.000Z</time>
      </trkpt>
      <trkpt lat="47.27619" lon="-1.48343">
        <ele>81</ele>
        <time>2021-04-20T11:57:39.000Z</time>
      </trkpt>
      <trkpt lat="47.2763" lon="-1.48341">
        <ele>81</ele>
        <time>2021-04-20T11:57:41.000Z</time>
      </trkpt>
      <trkpt lat="47.27643" lon="-1.4834">
        <ele>80</ele>
        <time>2021-04-20T11:57:43.000Z</time>
      </trkpt>
      <trkpt lat="47.27656" lon="-1.48338">
        <ele>80</ele>
        <time>2021-04-20T11:57:45.000Z</time>
      </trkpt>
      <trkpt lat="47.27669" lon="-1.48337">
        <ele>80</ele>
        <time>2021-04-20T11:57:47.000Z</time>
      </trkpt>
      <trkpt lat="47.27681" lon="-1.48338">
        <ele>80</ele>
        <time>2021-04-20T11:57:49.000Z</time>
      </trkpt>
      <trkpt lat="47.27695" lon="-1.48343">
        <ele>79</ele>
        <time>2021-04-20T11:57:51.000Z</time>
      </trkpt>
      <trkpt lat="47.27709" lon="-1.4835">
        <ele>79</ele>
        <time>2021-04-20T11:57:53.000Z</time>
      </trkpt>
      <trkpt lat="47.27723" lon="-1.48358">
        <ele>78</ele>
        <time>2021-04-20T11:57:55.000Z</time>
      </trkpt>
      <trkpt lat="47.27736" lon="-1.4837">
        <ele>78</ele>
        <time>2021-04-20T11:57:57.000Z</time>
      </trkpt>
      <trkpt lat="47.2775" lon="-1.48384">
        <ele>78</ele>
        <time>2021-04-20T11:57:59.000Z</time>
      </trkpt>
      <trkpt lat="47.27764" lon="-1.48397">
        <ele>77</ele>
        <time>2021-04-20T11:58:01.000Z</time>
      </trkpt>
      <trkpt lat="47.27779" lon="-1.48408">
        <ele>76</ele>
        <time>2021-04-20T11:58:03.000Z</time>
      </trkpt>
      <trkpt lat="47.27793" lon="-1.48422">
        <ele>76</ele>
        <time>2021-04-20T11:58:05.000Z</time>
      </trkpt>
      <trkpt lat="47.27807" lon="-1.48434">
        <ele>75</ele>
        <time>2021-04-20T11:58:07.000Z</time>
      </trkpt>
      <trkpt lat="47.27822" lon="-1.48445">
        <ele>75</ele>
        <time>2021-04-20T11:58:09.000Z</time>
      </trkpt>
      <trkpt lat="47.27837" lon="-1.48454">
        <ele>74</ele>
        <time>2021-04-20T11:58:11.000Z</time>
      </trkpt>
      <trkpt lat="47.27852" lon="-1.48461">
        <ele>74</ele>
        <time>2021-04-20T11:58:13.000Z</time>
      </trkpt>
      <trkpt lat="47.27867" lon="-1.48467">
        <ele>73</ele>
        <time>2021-04-20T11:58:15.000Z</time>
      </trkpt>
      <trkpt lat="47.27882" lon="-1.48474">
        <ele>73</ele>
        <time>2021-04-20T11:58:17.000Z</time>
      </trkpt>
      <trkpt lat="47.27897" lon="-1.4848">
        <ele>73</ele>
        <time>2021-04-20T11:58:19.000Z</time>
      </trkpt>
      <trkpt lat="47.27911" lon="-1.48487">
        <ele>73</ele>
        <time>2021-04-20T11:58:21.000Z</time>
      </trkpt>
      <trkpt lat="47.27927" lon="-1.48493">
        <ele>73</ele>
        <time>2021-04-20T11:58:23.000Z</time>
      </trkpt>
      <trkpt lat="47.27942" lon="-1.485">
        <ele>72</ele>
        <time>2021-04-20T11:58:25.000Z</time>
      </trkpt>
      <trkpt lat="47.27956" lon="-1.48506">
        <ele>72</ele>
        <time>2021-04-20T11:58:27.000Z</time>
      </trkpt>
      <trkpt lat="47.27971" lon="-1.48513">
        <ele>71</ele>
        <time>2021-04-20T11:58:29.000Z</time>
      </trkpt>
      <trkpt lat="47.27985" lon="-1.48521">
        <ele>71</ele>
        <time>2021-04-20T11:58:31.000Z</time>
      </trkpt>
      <trkpt lat="47.28" lon="-1.48527">
        <ele>70</ele>
        <time>2021-04-20T11:58:33.000Z</time>
      </trkpt>
      <trkpt lat="47.28015" lon="-1.4853">
        <ele>70</ele>
        <time>2021-04-20T11:58:35.000Z</time>
      </trkpt>
      <trkpt lat="47.28029" lon="-1.48534">
        <ele>70</ele>
        <time>2021-04-20T11:58:37.000Z</time>
      </trkpt>
      <trkpt lat="47.28044" lon="-1.48537">
        <ele>69</ele>
        <time>2021-04-20T11:58:39.000Z</time>
      </trkpt>
      <trkpt lat="47.2806" lon="-1.48539">
        <ele>69</ele>
        <time>2021-04-20T11:58:41.000Z</time>
      </trkpt>
      <trkpt lat="47.28075" lon="-1.48538">
        <ele>69</ele>
        <time>2021-04-20T11:58:43.000Z</time>
      </trkpt>
      <trkpt lat="47.28091" lon="-1.48537">
        <ele>69</ele>
        <time>2021-04-20T11:58:45.000Z</time>
      </trkpt>
      <trkpt lat="47.28105" lon="-1.48537">
        <ele>68</ele>
        <time>2021-04-20T11:58:47.000Z</time>
      </trkpt>
      <trkpt lat="47.2812" lon="-1.48536">
        <ele>68</ele>
        <time>2021-04-20T11:58:49.000Z</time>
      </trkpt>
      <trkpt lat="47.28135" lon="-1.48536">
        <ele>68</ele>
        <time>2021-04-20T11:58:51.000Z</time>
      </trkpt>
      <trkpt lat="47.2815" lon="-1.48535">
        <ele>68</ele>
        <time>2021-04-20T11:58:53.000Z</time>
      </trkpt>
      <trkpt lat="47.28164" lon="-1.48534">
        <ele>67</ele>
        <time>2021-04-20T11:58:55.000Z</time>
      </trkpt>
      <trkpt lat="47.28177" lon="-1.48533">
        <ele>67</ele>
        <time>2021-04-20T11:58:57.000Z</time>
      </trkpt>
      <trkpt lat="47.2819" lon="-1.48533">
        <ele>66</ele>
        <time>2021-04-20T11:58:59.000Z</time>
      </trkpt>
      <trkpt lat="47.28201" lon="-1.48527">
        <ele>66</ele>
        <time>2021-04-20T11:59:01.000Z</time>
      </trkpt>
      <trkpt lat="47.28206" lon="-1.48512">
        <ele>66</ele>
        <time>2021-04-20T11:59:03.000Z</time>
      </trkpt>
      <trkpt lat="47.28212" lon="-1.48498">
        <ele>65</ele>
        <time>2021-04-20T11:59:05.000Z</time>
      </trkpt>
      <trkpt lat="47.28224" lon="-1.48499">
        <ele>65</ele>
        <time>2021-04-20T11:59:07.000Z</time>
      </trkpt>
      <trkpt lat="47.28235" lon="-1.4851">
        <ele>65</ele>
        <time>2021-04-20T11:59:09.000Z</time>
      </trkpt>
      <trkpt lat="47.28244" lon="-1.48523">
        <ele>65</ele>
        <time>2021-04-20T11:59:11.000Z</time>
      </trkpt>
      <trkpt lat="47.28256" lon="-1.48532">
        <ele>64</ele>
        <time>2021-04-20T11:59:13.000Z</time>
      </trkpt>
      <trkpt lat="47.28269" lon="-1.48541">
        <ele>64</ele>
        <time>2021-04-20T11:59:15.000Z</time>
      </trkpt>
      <trkpt lat="47.28281" lon="-1.48552">
        <ele>65</ele>
        <time>2021-04-20T11:59:17.000Z</time>
      </trkpt>
      <trkpt lat="47.28292" lon="-1.48562">
        <ele>65</ele>
        <time>2021-04-20T11:59:19.000Z</time>
      </trkpt>
      <trkpt lat="47.28301" lon="-1.48576">
        <ele>65</ele>
        <time>2021-04-20T11:59:21.000Z</time>
      </trkpt>
      <trkpt lat="47.28308" lon="-1.48591">
        <ele>65</ele>
        <time>2021-04-20T11:59:23.000Z</time>
      </trkpt>
      <trkpt lat="47.28316" lon="-1.48606">
        <ele>64</ele>
        <time>2021-04-20T11:59:25.000Z</time>
      </trkpt>
      <trkpt lat="47.28326" lon="-1.48611">
        <ele>64</ele>
        <time>2021-04-20T11:59:27.000Z</time>
      </trkpt>
      <trkpt lat="47.28334" lon="-1.48617">
        <ele>64</ele>
        <time>2021-04-20T11:59:29.000Z</time>
      </trkpt>
      <trkpt lat="47.28326" lon="-1.48634">
        <ele>64</ele>
        <time>2021-04-20T11:59:32.000Z</time>
      </trkpt>
      <trkpt lat="47.28319" lon="-1.4865">
        <ele>64</ele>
        <time>2021-04-20T11:59:34.000Z</time>
      </trkpt>
      <trkpt lat="47.2832" lon="-1.4867">
        <ele>65</ele>
        <time>2021-04-20T11:59:36.000Z</time>
      </trkpt>
      <trkpt lat="47.2832" lon="-1.48691">
        <ele>65</ele>
        <time>2021-04-20T11:59:38.000Z</time>
      </trkpt>
      <trkpt lat="47.28318" lon="-1.48711">
        <ele>65</ele>
        <time>2021-04-20T11:59:40.000Z</time>
      </trkpt>
      <trkpt lat="47.28314" lon="-1.4873">
        <ele>65</ele>
        <time>2021-04-20T11:59:42.000Z</time>
      </trkpt>
      <trkpt lat="47.28308" lon="-1.48748">
        <ele>65</ele>
        <time>2021-04-20T11:59:44.000Z</time>
      </trkpt>
      <trkpt lat="47.28301" lon="-1.48767">
        <ele>65</ele>
        <time>2021-04-20T11:59:46.000Z</time>
      </trkpt>
      <trkpt lat="47.28293" lon="-1.48785">
        <ele>65</ele>
        <time>2021-04-20T11:59:48.000Z</time>
      </trkpt>
      <trkpt lat="47.28284" lon="-1.488">
        <ele>66</ele>
        <time>2021-04-20T11:59:50.000Z</time>
      </trkpt>
      <trkpt lat="47.28272" lon="-1.48814">
        <ele>66</ele>
        <time>2021-04-20T11:59:52.000Z</time>
      </trkpt>
      <trkpt lat="47.28262" lon="-1.48825">
        <ele>66</ele>
        <time>2021-04-20T11:59:54.000Z</time>
      </trkpt>
      <trkpt lat="47.28252" lon="-1.48838">
        <ele>66</ele>
        <time>2021-04-20T11:59:56.000Z</time>
      </trkpt>
      <trkpt lat="47.28242" lon="-1.4885">
        <ele>66</ele>
        <time>2021-04-20T11:59:58.000Z</time>
      </trkpt>
      <trkpt lat="47.28234" lon="-1.48862">
        <ele>66</ele>
        <time>2021-04-20T12:00:00.000Z</time>
      </trkpt>
      <trkpt lat="47.28225" lon="-1.48875">
        <ele>65</ele>
        <time>2021-04-20T12:00:02.000Z</time>
      </trkpt>
      <trkpt lat="47.28215" lon="-1.48887">
        <ele>65</ele>
        <time>2021-04-20T12:00:04.000Z</time>
      </trkpt>
      <trkpt lat="47.28204" lon="-1.489">
        <ele>65</ele>
        <time>2021-04-20T12:00:06.000Z</time>
      </trkpt>
      <trkpt lat="47.28194" lon="-1.48913">
        <ele>64</ele>
        <time>2021-04-20T12:00:08.000Z</time>
      </trkpt>
      <trkpt lat="47.28184" lon="-1.48925">
        <ele>65</ele>
        <time>2021-04-20T12:00:10.000Z</time>
      </trkpt>
      <trkpt lat="47.28175" lon="-1.48936">
        <ele>64</ele>
        <time>2021-04-20T12:00:12.000Z</time>
      </trkpt>
      <trkpt lat="47.28166" lon="-1.48948">
        <ele>63</ele>
        <time>2021-04-20T12:00:14.000Z</time>
      </trkpt>
      <trkpt lat="47.28156" lon="-1.48962">
        <ele>63</ele>
        <time>2021-04-20T12:00:16.000Z</time>
      </trkpt>
      <trkpt lat="47.28145" lon="-1.48975">
        <ele>62</ele>
        <time>2021-04-20T12:00:18.000Z</time>
      </trkpt>
      <trkpt lat="47.28134" lon="-1.48988">
        <ele>63</ele>
        <time>2021-04-20T12:00:20.000Z</time>
      </trkpt>
      <trkpt lat="47.28124" lon="-1.49002">
        <ele>63</ele>
        <time>2021-04-20T12:00:22.000Z</time>
      </trkpt>
      <trkpt lat="47.28113" lon="-1.49015">
        <ele>63</ele>
        <time>2021-04-20T12:00:24.000Z</time>
      </trkpt>
      <trkpt lat="47.28103" lon="-1.49027">
        <ele>63</ele>
        <time>2021-04-20T12:00:26.000Z</time>
      </trkpt>
      <trkpt lat="47.28095" lon="-1.49037">
        <ele>63</ele>
        <time>2021-04-20T12:00:28.000Z</time>
      </trkpt>
      <trkpt lat="47.28085" lon="-1.49049">
        <ele>63</ele>
        <time>2021-04-20T12:00:30.000Z</time>
      </trkpt>
      <trkpt lat="47.28075" lon="-1.49061">
        <ele>62</ele>
        <time>2021-04-20T12:00:32.000Z</time>
      </trkpt>
      <trkpt lat="47.28066" lon="-1.49073">
        <ele>62</ele>
        <time>2021-04-20T12:00:34.000Z</time>
      </trkpt>
      <trkpt lat="47.28056" lon="-1.49085">
        <ele>62</ele>
        <time>2021-04-20T12:00:36.000Z</time>
      </trkpt>
      <trkpt lat="47.28045" lon="-1.49098">
        <ele>64</ele>
        <time>2021-04-20T12:00:38.000Z</time>
      </trkpt>
      <trkpt lat="47.28033" lon="-1.49109">
        <ele>64</ele>
        <time>2021-04-20T12:00:40.000Z</time>
      </trkpt>
      <trkpt lat="47.28022" lon="-1.4912">
        <ele>65</ele>
        <time>2021-04-20T12:00:42.000Z</time>
      </trkpt>
      <trkpt lat="47.28013" lon="-1.49134">
        <ele>66</ele>
        <time>2021-04-20T12:00:44.000Z</time>
      </trkpt>
      <trkpt lat="47.28003" lon="-1.49146">
        <ele>66</ele>
        <time>2021-04-20T12:00:46.000Z</time>
      </trkpt>
      <trkpt lat="47.27992" lon="-1.49159">
        <ele>67</ele>
        <time>2021-04-20T12:00:48.000Z</time>
      </trkpt>
      <trkpt lat="47.2798" lon="-1.49174">
        <ele>67</ele>
        <time>2021-04-20T12:00:50.000Z</time>
      </trkpt>
      <trkpt lat="47.2797" lon="-1.49189">
        <ele>68</ele>
        <time>2021-04-20T12:00:52.000Z</time>
      </trkpt>
      <trkpt lat="47.27959" lon="-1.49203">
        <ele>67</ele>
        <time>2021-04-20T12:00:54.000Z</time>
      </trkpt>
      <trkpt lat="47.27948" lon="-1.49216">
        <ele>67</ele>
        <time>2021-04-20T12:00:56.000Z</time>
      </trkpt>
      <trkpt lat="47.27936" lon="-1.49229">
        <ele>67</ele>
        <time>2021-04-20T12:00:58.000Z</time>
      </trkpt>
      <trkpt lat="47.27925" lon="-1.49242">
        <ele>67</ele>
        <time>2021-04-20T12:01:00.000Z</time>
      </trkpt>
      <trkpt lat="47.27915" lon="-1.49255">
        <ele>67</ele>
        <time>2021-04-20T12:01:02.000Z</time>
      </trkpt>
      <trkpt lat="47.27904" lon="-1.49268">
        <ele>68</ele>
        <time>2021-04-20T12:01:04.000Z</time>
      </trkpt>
      <trkpt lat="47.27894" lon="-1.49281">
        <ele>68</ele>
        <time>2021-04-20T12:01:06.000Z</time>
      </trkpt>
      <trkpt lat="47.27884" lon="-1.49294">
        <ele>68</ele>
        <time>2021-04-20T12:01:08.000Z</time>
      </trkpt>
      <trkpt lat="47.27874" lon="-1.49307">
        <ele>69</ele>
        <time>2021-04-20T12:01:10.000Z</time>
      </trkpt>
      <trkpt lat="47.27864" lon="-1.49319">
        <ele>69</ele>
        <time>2021-04-20T12:01:12.000Z</time>
      </trkpt>
      <trkpt lat="47.27854" lon="-1.49333">
        <ele>70</ele>
        <time>2021-04-20T12:01:14.000Z</time>
      </trkpt>
      <trkpt lat="47.27843" lon="-1.49345">
        <ele>70</ele>
        <time>2021-04-20T12:01:16.000Z</time>
      </trkpt>
      <trkpt lat="47.27833" lon="-1.49357">
        <ele>69</ele>
        <time>2021-04-20T12:01:18.000Z</time>
      </trkpt>
      <trkpt lat="47.27824" lon="-1.49369">
        <ele>69</ele>
        <time>2021-04-20T12:01:20.000Z</time>
      </trkpt>
      <trkpt lat="47.27816" lon="-1.49382">
        <ele>69</ele>
        <time>2021-04-20T12:01:22.000Z</time>
      </trkpt>
      <trkpt lat="47.27809" lon="-1.49393">
        <ele>69</ele>
        <time>2021-04-20T12:01:24.000Z</time>
      </trkpt>
      <trkpt lat="47.27802" lon="-1.49401">
        <ele>70</ele>
        <time>2021-04-20T12:01:26.000Z</time>
      </trkpt>
      <trkpt lat="47.27795" lon="-1.4941">
        <ele>70</ele>
        <time>2021-04-20T12:01:28.000Z</time>
      </trkpt>
      <trkpt lat="47.27786" lon="-1.49419">
        <ele>71</ele>
        <time>2021-04-20T12:01:30.000Z</time>
      </trkpt>
      <trkpt lat="47.27778" lon="-1.4943">
        <ele>71</ele>
        <time>2021-04-20T12:01:32.000Z</time>
      </trkpt>
      <trkpt lat="47.2777" lon="-1.49441">
        <ele>72</ele>
        <time>2021-04-20T12:01:34.000Z</time>
      </trkpt>
      <trkpt lat="47.27763" lon="-1.49451">
        <ele>72</ele>
        <time>2021-04-20T12:01:36.000Z</time>
      </trkpt>
      <trkpt lat="47.27758" lon="-1.49467">
        <ele>71</ele>
        <time>2021-04-20T12:01:38.000Z</time>
      </trkpt>
      <trkpt lat="47.27751" lon="-1.49482">
        <ele>70</ele>
        <time>2021-04-20T12:01:40.000Z</time>
      </trkpt>
      <trkpt lat="47.27741" lon="-1.49498">
        <ele>71</ele>
        <time>2021-04-20T12:01:42.000Z</time>
      </trkpt>
      <trkpt lat="47.27731" lon="-1.49513">
        <ele>71</ele>
        <time>2021-04-20T12:01:44.000Z</time>
      </trkpt>
      <trkpt lat="47.27721" lon="-1.49527">
        <ele>70</ele>
        <time>2021-04-20T12:01:46.000Z</time>
      </trkpt>
      <trkpt lat="47.2771" lon="-1.49541">
        <ele>70</ele>
        <time>2021-04-20T12:01:48.000Z</time>
      </trkpt>
      <trkpt lat="47.27701" lon="-1.49555">
        <ele>70</ele>
        <time>2021-04-20T12:01:50.000Z</time>
      </trkpt>
      <trkpt lat="47.27691" lon="-1.49569">
        <ele>70</ele>
        <time>2021-04-20T12:01:52.000Z</time>
      </trkpt>
      <trkpt lat="47.27681" lon="-1.49583">
        <ele>70</ele>
        <time>2021-04-20T12:01:54.000Z</time>
      </trkpt>
      <trkpt lat="47.27672" lon="-1.49597">
        <ele>70</ele>
        <time>2021-04-20T12:01:56.000Z</time>
      </trkpt>
      <trkpt lat="47.27661" lon="-1.49611">
        <ele>70</ele>
        <time>2021-04-20T12:01:58.000Z</time>
      </trkpt>
      <trkpt lat="47.27652" lon="-1.49624">
        <ele>70</ele>
        <time>2021-04-20T12:02:00.000Z</time>
      </trkpt>
      <trkpt lat="47.27642" lon="-1.49638">
        <ele>70</ele>
        <time>2021-04-20T12:02:02.000Z</time>
      </trkpt>
      <trkpt lat="47.27632" lon="-1.49652">
        <ele>70</ele>
        <time>2021-04-20T12:02:04.000Z</time>
      </trkpt>
      <trkpt lat="47.27622" lon="-1.49665">
        <ele>70</ele>
        <time>2021-04-20T12:02:06.000Z</time>
      </trkpt>
      <trkpt lat="47.27612" lon="-1.49678">
        <ele>70</ele>
        <time>2021-04-20T12:02:08.000Z</time>
      </trkpt>
      <trkpt lat="47.27603" lon="-1.49691">
        <ele>69</ele>
        <time>2021-04-20T12:02:10.000Z</time>
      </trkpt>
      <trkpt lat="47.27592" lon="-1.49704">
        <ele>69</ele>
        <time>2021-04-20T12:02:12.000Z</time>
      </trkpt>
      <trkpt lat="47.27582" lon="-1.49716">
        <ele>69</ele>
        <time>2021-04-20T12:02:14.000Z</time>
      </trkpt>
      <trkpt lat="47.27571" lon="-1.49729">
        <ele>69</ele>
        <time>2021-04-20T12:02:16.000Z</time>
      </trkpt>
      <trkpt lat="47.27561" lon="-1.49741">
        <ele>69</ele>
        <time>2021-04-20T12:02:18.000Z</time>
      </trkpt>
      <trkpt lat="47.27552" lon="-1.49755">
        <ele>70</ele>
        <time>2021-04-20T12:02:20.000Z</time>
      </trkpt>
      <trkpt lat="47.27542" lon="-1.49768">
        <ele>70</ele>
        <time>2021-04-20T12:02:22.000Z</time>
      </trkpt>
      <trkpt lat="47.27531" lon="-1.4978">
        <ele>70</ele>
        <time>2021-04-20T12:02:24.000Z</time>
      </trkpt>
      <trkpt lat="47.2752" lon="-1.49791">
        <ele>70</ele>
        <time>2021-04-20T12:02:26.000Z</time>
      </trkpt>
      <trkpt lat="47.27508" lon="-1.49801">
        <ele>69</ele>
        <time>2021-04-20T12:02:28.000Z</time>
      </trkpt>
      <trkpt lat="47.27495" lon="-1.4981">
        <ele>69</ele>
        <time>2021-04-20T12:02:30.000Z</time>
      </trkpt>
      <trkpt lat="47.27482" lon="-1.49817">
        <ele>69</ele>
        <time>2021-04-20T12:02:32.000Z</time>
      </trkpt>
      <trkpt lat="47.27468" lon="-1.49823">
        <ele>69</ele>
        <time>2021-04-20T12:02:34.000Z</time>
      </trkpt>
      <trkpt lat="47.27455" lon="-1.49829">
        <ele>69</ele>
        <time>2021-04-20T12:02:36.000Z</time>
      </trkpt>
      <trkpt lat="47.27442" lon="-1.49835">
        <ele>69</ele>
        <time>2021-04-20T12:02:38.000Z</time>
      </trkpt>
      <trkpt lat="47.27428" lon="-1.49842">
        <ele>69</ele>
        <time>2021-04-20T12:02:40.000Z</time>
      </trkpt>
      <trkpt lat="47.27415" lon="-1.49848">
        <ele>69</ele>
        <time>2021-04-20T12:02:42.000Z</time>
      </trkpt>
      <trkpt lat="47.27403" lon="-1.49854">
        <ele>69</ele>
        <time>2021-04-20T12:02:44.000Z</time>
      </trkpt>
      <trkpt lat="47.2739" lon="-1.4986">
        <ele>69</ele>
        <time>2021-04-20T12:02:46.000Z</time>
      </trkpt>
      <trkpt lat="47.27377" lon="-1.49868">
        <ele>69</ele>
        <time>2021-04-20T12:02:48.000Z</time>
      </trkpt>
      <trkpt lat="47.27364" lon="-1.49875">
        <ele>70</ele>
        <time>2021-04-20T12:02:50.000Z</time>
      </trkpt>
      <trkpt lat="47.27351" lon="-1.4988">
        <ele>70</ele>
        <time>2021-04-20T12:02:52.000Z</time>
      </trkpt>
      <trkpt lat="47.27338" lon="-1.49886">
        <ele>71</ele>
        <time>2021-04-20T12:02:54.000Z</time>
      </trkpt>
      <trkpt lat="47.27326" lon="-1.49891">
        <ele>71</ele>
        <time>2021-04-20T12:02:56.000Z</time>
      </trkpt>
      <trkpt lat="47.27314" lon="-1.49896">
        <ele>71</ele>
        <time>2021-04-20T12:02:58.000Z</time>
      </trkpt>
      <trkpt lat="47.27302" lon="-1.49901">
        <ele>71</ele>
        <time>2021-04-20T12:03:00.000Z</time>
      </trkpt>
      <trkpt lat="47.27289" lon="-1.49907">
        <ele>72</ele>
        <time>2021-04-20T12:03:02.000Z</time>
      </trkpt>
      <trkpt lat="47.27277" lon="-1.49913">
        <ele>72</ele>
        <time>2021-04-20T12:03:04.000Z</time>
      </trkpt>
      <trkpt lat="47.27264" lon="-1.49919">
        <ele>72</ele>
        <time>2021-04-20T12:03:06.000Z</time>
      </trkpt>
      <trkpt lat="47.27252" lon="-1.49925">
        <ele>72</ele>
        <time>2021-04-20T12:03:08.000Z</time>
      </trkpt>
      <trkpt lat="47.2724" lon="-1.49932">
        <ele>72</ele>
        <time>2021-04-20T12:03:10.000Z</time>
      </trkpt>
      <trkpt lat="47.2723" lon="-1.49943">
        <ele>71</ele>
        <time>2021-04-20T12:03:12.000Z</time>
      </trkpt>
      <trkpt lat="47.27219" lon="-1.49953">
        <ele>71</ele>
        <time>2021-04-20T12:03:14.000Z</time>
      </trkpt>
      <trkpt lat="47.27206" lon="-1.49959">
        <ele>71</ele>
        <time>2021-04-20T12:03:16.000Z</time>
      </trkpt>
      <trkpt lat="47.27193" lon="-1.49966">
        <ele>71</ele>
        <time>2021-04-20T12:03:18.000Z</time>
      </trkpt>
      <trkpt lat="47.27182" lon="-1.49973">
        <ele>71</ele>
        <time>2021-04-20T12:03:20.000Z</time>
      </trkpt>
      <trkpt lat="47.27171" lon="-1.49983">
        <ele>71</ele>
        <time>2021-04-20T12:03:22.000Z</time>
      </trkpt>
      <trkpt lat="47.27159" lon="-1.49993">
        <ele>72</ele>
        <time>2021-04-20T12:03:24.000Z</time>
      </trkpt>
      <trkpt lat="47.27147" lon="-1.50003">
        <ele>72</ele>
        <time>2021-04-20T12:03:26.000Z</time>
      </trkpt>
      <trkpt lat="47.27136" lon="-1.50013">
        <ele>72</ele>
        <time>2021-04-20T12:03:28.000Z</time>
      </trkpt>
      <trkpt lat="47.27125" lon="-1.50022">
        <ele>71</ele>
        <time>2021-04-20T12:03:30.000Z</time>
      </trkpt>
      <trkpt lat="47.27114" lon="-1.50031">
        <ele>71</ele>
        <time>2021-04-20T12:03:32.000Z</time>
      </trkpt>
      <trkpt lat="47.27103" lon="-1.5004">
        <ele>71</ele>
        <time>2021-04-20T12:03:34.000Z</time>
      </trkpt>
      <trkpt lat="47.27092" lon="-1.5005">
        <ele>70</ele>
        <time>2021-04-20T12:03:36.000Z</time>
      </trkpt>
      <trkpt lat="47.27081" lon="-1.50059">
        <ele>71</ele>
        <time>2021-04-20T12:03:38.000Z</time>
      </trkpt>
      <trkpt lat="47.2707" lon="-1.50068">
        <ele>71</ele>
        <time>2021-04-20T12:03:40.000Z</time>
      </trkpt>
      <trkpt lat="47.27059" lon="-1.50077">
        <ele>71</ele>
        <time>2021-04-20T12:03:42.000Z</time>
      </trkpt>
      <trkpt lat="47.27048" lon="-1.50086">
        <ele>71</ele>
        <time>2021-04-20T12:03:44.000Z</time>
      </trkpt>
      <trkpt lat="47.27037" lon="-1.50096">
        <ele>70</ele>
        <time>2021-04-20T12:03:46.000Z</time>
      </trkpt>
      <trkpt lat="47.27026" lon="-1.50105">
        <ele>70</ele>
        <time>2021-04-20T12:03:48.000Z</time>
      </trkpt>
      <trkpt lat="47.27015" lon="-1.50114">
        <ele>70</ele>
        <time>2021-04-20T12:03:50.000Z</time>
      </trkpt>
      <trkpt lat="47.27005" lon="-1.50121">
        <ele>70</ele>
        <time>2021-04-20T12:03:52.000Z</time>
      </trkpt>
      <trkpt lat="47.26993" lon="-1.5013">
        <ele>70</ele>
        <time>2021-04-20T12:03:54.000Z</time>
      </trkpt>
      <trkpt lat="47.26982" lon="-1.50137">
        <ele>70</ele>
        <time>2021-04-20T12:03:56.000Z</time>
      </trkpt>
      <trkpt lat="47.26971" lon="-1.50145">
        <ele>70</ele>
        <time>2021-04-20T12:03:58.000Z</time>
      </trkpt>
      <trkpt lat="47.2696" lon="-1.50152">
        <ele>70</ele>
        <time>2021-04-20T12:04:00.000Z</time>
      </trkpt>
      <trkpt lat="47.26949" lon="-1.50158">
        <ele>70</ele>
        <time>2021-04-20T12:04:02.000Z</time>
      </trkpt>
      <trkpt lat="47.26937" lon="-1.50166">
        <ele>70</ele>
        <time>2021-04-20T12:04:04.000Z</time>
      </trkpt>
      <trkpt lat="47.26926" lon="-1.50173">
        <ele>70</ele>
        <time>2021-04-20T12:04:06.000Z</time>
      </trkpt>
      <trkpt lat="47.26915" lon="-1.5018">
        <ele>70</ele>
        <time>2021-04-20T12:04:08.000Z</time>
      </trkpt>
      <trkpt lat="47.26904" lon="-1.50187">
        <ele>70</ele>
        <time>2021-04-20T12:04:10.000Z</time>
      </trkpt>
      <trkpt lat="47.26891" lon="-1.50193">
        <ele>70</ele>
        <time>2021-04-20T12:04:12.000Z</time>
      </trkpt>
      <trkpt lat="47.2688" lon="-1.50199">
        <ele>70</ele>
        <time>2021-04-20T12:04:14.000Z</time>
      </trkpt>
      <trkpt lat="47.26868" lon="-1.50205">
        <ele>70</ele>
        <time>2021-04-20T12:04:16.000Z</time>
      </trkpt>
      <trkpt lat="47.26856" lon="-1.5021">
        <ele>70</ele>
        <time>2021-04-20T12:04:18.000Z</time>
      </trkpt>
      <trkpt lat="47.26844" lon="-1.50217">
        <ele>70</ele>
        <time>2021-04-20T12:04:20.000Z</time>
      </trkpt>
      <trkpt lat="47.26831" lon="-1.50223">
        <ele>69</ele>
        <time>2021-04-20T12:04:22.000Z</time>
      </trkpt>
      <trkpt lat="47.26819" lon="-1.50228">
        <ele>70</ele>
        <time>2021-04-20T12:04:24.000Z</time>
      </trkpt>
      <trkpt lat="47.26806" lon="-1.50234">
        <ele>70</ele>
        <time>2021-04-20T12:04:26.000Z</time>
      </trkpt>
      <trkpt lat="47.26793" lon="-1.50239">
        <ele>72</ele>
        <time>2021-04-20T12:04:28.000Z</time>
      </trkpt>
      <trkpt lat="47.26781" lon="-1.50245">
        <ele>72</ele>
        <time>2021-04-20T12:04:30.000Z</time>
      </trkpt>
      <trkpt lat="47.26769" lon="-1.50252">
        <ele>72</ele>
        <time>2021-04-20T12:04:32.000Z</time>
      </trkpt>
      <trkpt lat="47.26756" lon="-1.50259">
        <ele>72</ele>
        <time>2021-04-20T12:04:34.000Z</time>
      </trkpt>
      <trkpt lat="47.26744" lon="-1.50265">
        <ele>72</ele>
        <time>2021-04-20T12:04:36.000Z</time>
      </trkpt>
      <trkpt lat="47.26731" lon="-1.50272">
        <ele>72</ele>
        <time>2021-04-20T12:04:38.000Z</time>
      </trkpt>
      <trkpt lat="47.26719" lon="-1.50279">
        <ele>72</ele>
        <time>2021-04-20T12:04:40.000Z</time>
      </trkpt>
      <trkpt lat="47.26709" lon="-1.50288">
        <ele>73</ele>
        <time>2021-04-20T12:04:42.000Z</time>
      </trkpt>
      <trkpt lat="47.26699" lon="-1.50299">
        <ele>73</ele>
        <time>2021-04-20T12:04:44.000Z</time>
      </trkpt>
      <trkpt lat="47.26689" lon="-1.50312">
        <ele>73</ele>
        <time>2021-04-20T12:04:46.000Z</time>
      </trkpt>
      <trkpt lat="47.26681" lon="-1.50326">
        <ele>73</ele>
        <time>2021-04-20T12:04:48.000Z</time>
      </trkpt>
      <trkpt lat="47.26669" lon="-1.50334">
        <ele>73</ele>
        <time>2021-04-20T12:04:50.000Z</time>
      </trkpt>
      <trkpt lat="47.26656" lon="-1.50339">
        <ele>73</ele>
        <time>2021-04-20T12:04:52.000Z</time>
      </trkpt>
      <trkpt lat="47.26643" lon="-1.50348">
        <ele>73</ele>
        <time>2021-04-20T12:04:54.000Z</time>
      </trkpt>
      <trkpt lat="47.26631" lon="-1.50359">
        <ele>73</ele>
        <time>2021-04-20T12:04:56.000Z</time>
      </trkpt>
      <trkpt lat="47.26621" lon="-1.50372">
        <ele>73</ele>
        <time>2021-04-20T12:04:58.000Z</time>
      </trkpt>
      <trkpt lat="47.2661" lon="-1.50386">
        <ele>73</ele>
        <time>2021-04-20T12:05:00.000Z</time>
      </trkpt>
      <trkpt lat="47.266" lon="-1.50401">
        <ele>73</ele>
        <time>2021-04-20T12:05:02.000Z</time>
      </trkpt>
      <trkpt lat="47.2659" lon="-1.50415">
        <ele>73</ele>
        <time>2021-04-20T12:05:04.000Z</time>
      </trkpt>
      <trkpt lat="47.2658" lon="-1.5043">
        <ele>74</ele>
        <time>2021-04-20T12:05:06.000Z</time>
      </trkpt>
      <trkpt lat="47.26571" lon="-1.50445">
        <ele>74</ele>
        <time>2021-04-20T12:05:08.000Z</time>
      </trkpt>
      <trkpt lat="47.26561" lon="-1.5046">
        <ele>74</ele>
        <time>2021-04-20T12:05:10.000Z</time>
      </trkpt>
      <trkpt lat="47.26551" lon="-1.50474">
        <ele>74</ele>
        <time>2021-04-20T12:05:12.000Z</time>
      </trkpt>
      <trkpt lat="47.26541" lon="-1.50489">
        <ele>73</ele>
        <time>2021-04-20T12:05:14.000Z</time>
      </trkpt>
      <trkpt lat="47.26532" lon="-1.50504">
        <ele>74</ele>
        <time>2021-04-20T12:05:16.000Z</time>
      </trkpt>
      <trkpt lat="47.26521" lon="-1.50518">
        <ele>73</ele>
        <time>2021-04-20T12:05:18.000Z</time>
      </trkpt>
      <trkpt lat="47.26512" lon="-1.50533">
        <ele>73</ele>
        <time>2021-04-20T12:05:20.000Z</time>
      </trkpt>
      <trkpt lat="47.26502" lon="-1.50547">
        <ele>73</ele>
        <time>2021-04-20T12:05:22.000Z</time>
      </trkpt>
      <trkpt lat="47.26492" lon="-1.50562">
        <ele>72</ele>
        <time>2021-04-20T12:05:24.000Z</time>
      </trkpt>
      <trkpt lat="47.26482" lon="-1.50578">
        <ele>72</ele>
        <time>2021-04-20T12:05:26.000Z</time>
      </trkpt>
      <trkpt lat="47.26471" lon="-1.50592">
        <ele>72</ele>
        <time>2021-04-20T12:05:28.000Z</time>
      </trkpt>
      <trkpt lat="47.26462" lon="-1.50606">
        <ele>72</ele>
        <time>2021-04-20T12:05:30.000Z</time>
      </trkpt>
      <trkpt lat="47.26452" lon="-1.50621">
        <ele>72</ele>
        <time>2021-04-20T12:05:32.000Z</time>
      </trkpt>
      <trkpt lat="47.26442" lon="-1.50636">
        <ele>72</ele>
        <time>2021-04-20T12:05:34.000Z</time>
      </trkpt>
      <trkpt lat="47.26432" lon="-1.50651">
        <ele>73</ele>
        <time>2021-04-20T12:05:36.000Z</time>
      </trkpt>
      <trkpt lat="47.26422" lon="-1.50666">
        <ele>73</ele>
        <time>2021-04-20T12:05:38.000Z</time>
      </trkpt>
      <trkpt lat="47.26413" lon="-1.50679">
        <ele>73</ele>
        <time>2021-04-20T12:05:40.000Z</time>
      </trkpt>
      <trkpt lat="47.26401" lon="-1.50691">
        <ele>73</ele>
        <time>2021-04-20T12:05:42.000Z</time>
      </trkpt>
      <trkpt lat="47.2639" lon="-1.50702">
        <ele>73</ele>
        <time>2021-04-20T12:05:44.000Z</time>
      </trkpt>
      <trkpt lat="47.26379" lon="-1.50711">
        <ele>72</ele>
        <time>2021-04-20T12:05:46.000Z</time>
      </trkpt>
      <trkpt lat="47.26367" lon="-1.50719">
        <ele>72</ele>
        <time>2021-04-20T12:05:48.000Z</time>
      </trkpt>
      <trkpt lat="47.26354" lon="-1.50726">
        <ele>72</ele>
        <time>2021-04-20T12:05:50.000Z</time>
      </trkpt>
      <trkpt lat="47.26343" lon="-1.50735">
        <ele>72</ele>
        <time>2021-04-20T12:05:52.000Z</time>
      </trkpt>
      <trkpt lat="47.26336" lon="-1.5075">
        <ele>72</ele>
        <time>2021-04-20T12:05:54.000Z</time>
      </trkpt>
      <trkpt lat="47.26327" lon="-1.50762">
        <ele>72</ele>
        <time>2021-04-20T12:05:56.000Z</time>
      </trkpt>
      <trkpt lat="47.26313" lon="-1.50766">
        <ele>72</ele>
        <time>2021-04-20T12:05:58.000Z</time>
      </trkpt>
      <trkpt lat="47.26299" lon="-1.50767">
        <ele>72</ele>
        <time>2021-04-20T12:06:00.000Z</time>
      </trkpt>
      <trkpt lat="47.26286" lon="-1.50772">
        <ele>73</ele>
        <time>2021-04-20T12:06:02.000Z</time>
      </trkpt>
      <trkpt lat="47.26273" lon="-1.5078">
        <ele>72</ele>
        <time>2021-04-20T12:06:04.000Z</time>
      </trkpt>
      <trkpt lat="47.26261" lon="-1.50788">
        <ele>73</ele>
        <time>2021-04-20T12:06:06.000Z</time>
      </trkpt>
      <trkpt lat="47.26248" lon="-1.50796">
        <ele>72</ele>
        <time>2021-04-20T12:06:08.000Z</time>
      </trkpt>
      <trkpt lat="47.26235" lon="-1.50805">
        <ele>72</ele>
        <time>2021-04-20T12:06:10.000Z</time>
      </trkpt>
      <trkpt lat="47.26222" lon="-1.50813">
        <ele>73</ele>
        <time>2021-04-20T12:06:12.000Z</time>
      </trkpt>
      <trkpt lat="47.26211" lon="-1.50821">
        <ele>73</ele>
        <time>2021-04-20T12:06:14.000Z</time>
      </trkpt>
      <trkpt lat="47.26198" lon="-1.5083">
        <ele>73</ele>
        <time>2021-04-20T12:06:16.000Z</time>
      </trkpt>
      <trkpt lat="47.26185" lon="-1.50839">
        <ele>72</ele>
        <time>2021-04-20T12:06:18.000Z</time>
      </trkpt>
      <trkpt lat="47.26172" lon="-1.50847">
        <ele>72</ele>
        <time>2021-04-20T12:06:20.000Z</time>
      </trkpt>
      <trkpt lat="47.26159" lon="-1.50855">
        <ele>72</ele>
        <time>2021-04-20T12:06:22.000Z</time>
      </trkpt>
      <trkpt lat="47.26146" lon="-1.50864">
        <ele>72</ele>
        <time>2021-04-20T12:06:24.000Z</time>
      </trkpt>
      <trkpt lat="47.26134" lon="-1.50873">
        <ele>72</ele>
        <time>2021-04-20T12:06:26.000Z</time>
      </trkpt>
      <trkpt lat="47.26122" lon="-1.50884">
        <ele>72</ele>
        <time>2021-04-20T12:06:28.000Z</time>
      </trkpt>
      <trkpt lat="47.26111" lon="-1.50894">
        <ele>72</ele>
        <time>2021-04-20T12:06:30.000Z</time>
      </trkpt>
      <trkpt lat="47.261" lon="-1.50906">
        <ele>72</ele>
        <time>2021-04-20T12:06:32.000Z</time>
      </trkpt>
      <trkpt lat="47.2609" lon="-1.50917">
        <ele>71</ele>
        <time>2021-04-20T12:06:34.000Z</time>
      </trkpt>
      <trkpt lat="47.26079" lon="-1.50929">
        <ele>71</ele>
        <time>2021-04-20T12:06:36.000Z</time>
      </trkpt>
      <trkpt lat="47.26069" lon="-1.50941">
        <ele>72</ele>
        <time>2021-04-20T12:06:38.000Z</time>
      </trkpt>
      <trkpt lat="47.26059" lon="-1.50953">
        <ele>72</ele>
        <time>2021-04-20T12:06:40.000Z</time>
      </trkpt>
      <trkpt lat="47.2605" lon="-1.50966">
        <ele>72</ele>
        <time>2021-04-20T12:06:42.000Z</time>
      </trkpt>
      <trkpt lat="47.2604" lon="-1.50979">
        <ele>72</ele>
        <time>2021-04-20T12:06:44.000Z</time>
      </trkpt>
      <trkpt lat="47.26031" lon="-1.50993">
        <ele>72</ele>
        <time>2021-04-20T12:06:46.000Z</time>
      </trkpt>
      <trkpt lat="47.26023" lon="-1.51008">
        <ele>72</ele>
        <time>2021-04-20T12:06:48.000Z</time>
      </trkpt>
      <trkpt lat="47.26014" lon="-1.51022">
        <ele>72</ele>
        <time>2021-04-20T12:06:50.000Z</time>
      </trkpt>
      <trkpt lat="47.26005" lon="-1.51036">
        <ele>72</ele>
        <time>2021-04-20T12:06:52.000Z</time>
      </trkpt>
      <trkpt lat="47.25998" lon="-1.5105">
        <ele>72</ele>
        <time>2021-04-20T12:06:54.000Z</time>
      </trkpt>
      <trkpt lat="47.25991" lon="-1.51065">
        <ele>73</ele>
        <time>2021-04-20T12:06:56.000Z</time>
      </trkpt>
      <trkpt lat="47.25983" lon="-1.51077">
        <ele>73</ele>
        <time>2021-04-20T12:06:58.000Z</time>
      </trkpt>
      <trkpt lat="47.25976" lon="-1.51092">
        <ele>73</ele>
        <time>2021-04-20T12:07:00.000Z</time>
      </trkpt>
      <trkpt lat="47.25971" lon="-1.51108">
        <ele>73</ele>
        <time>2021-04-20T12:07:02.000Z</time>
      </trkpt>
      <trkpt lat="47.25966" lon="-1.51126">
        <ele>74</ele>
        <time>2021-04-20T12:07:04.000Z</time>
      </trkpt>
      <trkpt lat="47.25957" lon="-1.5114">
        <ele>74</ele>
        <time>2021-04-20T12:07:06.000Z</time>
      </trkpt>
      <trkpt lat="47.25948" lon="-1.51154">
        <ele>74</ele>
        <time>2021-04-20T12:07:08.000Z</time>
      </trkpt>
      <trkpt lat="47.25938" lon="-1.5117">
        <ele>75</ele>
        <time>2021-04-20T12:07:10.000Z</time>
      </trkpt>
      <trkpt lat="47.25931" lon="-1.51188">
        <ele>75</ele>
        <time>2021-04-20T12:07:12.000Z</time>
      </trkpt>
      <trkpt lat="47.25925" lon="-1.51208">
        <ele>74</ele>
        <time>2021-04-20T12:07:14.000Z</time>
      </trkpt>
      <trkpt lat="47.25917" lon="-1.51226">
        <ele>74</ele>
        <time>2021-04-20T12:07:16.000Z</time>
      </trkpt>
      <trkpt lat="47.25909" lon="-1.51245">
        <ele>74</ele>
        <time>2021-04-20T12:07:18.000Z</time>
      </trkpt>
      <trkpt lat="47.25901" lon="-1.51263">
        <ele>74</ele>
        <time>2021-04-20T12:07:20.000Z</time>
      </trkpt>
      <trkpt lat="47.25894" lon="-1.51282">
        <ele>74</ele>
        <time>2021-04-20T12:07:22.000Z</time>
      </trkpt>
      <trkpt lat="47.25888" lon="-1.513">
        <ele>75</ele>
        <time>2021-04-20T12:07:24.000Z</time>
      </trkpt>
      <trkpt lat="47.25883" lon="-1.51318">
        <ele>76</ele>
        <time>2021-04-20T12:07:26.000Z</time>
      </trkpt>
      <trkpt lat="47.25877" lon="-1.51336">
        <ele>76</ele>
        <time>2021-04-20T12:07:28.000Z</time>
      </trkpt>
      <trkpt lat="47.25871" lon="-1.51354">
        <ele>75</ele>
        <time>2021-04-20T12:07:30.000Z</time>
      </trkpt>
      <trkpt lat="47.25865" lon="-1.51373">
        <ele>75</ele>
        <time>2021-04-20T12:07:32.000Z</time>
      </trkpt>
      <trkpt lat="47.25861" lon="-1.51392">
        <ele>75</ele>
        <time>2021-04-20T12:07:34.000Z</time>
      </trkpt>
      <trkpt lat="47.25857" lon="-1.51411">
        <ele>75</ele>
        <time>2021-04-20T12:07:36.000Z</time>
      </trkpt>
      <trkpt lat="47.25854" lon="-1.51429">
        <ele>76</ele>
        <time>2021-04-20T12:07:38.000Z</time>
      </trkpt>
      <trkpt lat="47.25852" lon="-1.51446">
        <ele>77</ele>
        <time>2021-04-20T12:07:40.000Z</time>
      </trkpt>
      <trkpt lat="47.2585" lon="-1.51463">
        <ele>77</ele>
        <time>2021-04-20T12:07:42.000Z</time>
      </trkpt>
      <trkpt lat="47.25848" lon="-1.51479">
        <ele>76</ele>
        <time>2021-04-20T12:07:44.000Z</time>
      </trkpt>
      <trkpt lat="47.25846" lon="-1.51498">
        <ele>77</ele>
        <time>2021-04-20T12:07:46.000Z</time>
      </trkpt>
      <trkpt lat="47.25844" lon="-1.51519">
        <ele>76</ele>
        <time>2021-04-20T12:07:48.000Z</time>
      </trkpt>
      <trkpt lat="47.25841" lon="-1.5154">
        <ele>75</ele>
        <time>2021-04-20T12:07:50.000Z</time>
      </trkpt>
      <trkpt lat="47.2584" lon="-1.51559">
        <ele>75</ele>
        <time>2021-04-20T12:07:52.000Z</time>
      </trkpt>
      <trkpt lat="47.25839" lon="-1.51579">
        <ele>74</ele>
        <time>2021-04-20T12:07:54.000Z</time>
      </trkpt>
      <trkpt lat="47.25838" lon="-1.51597">
        <ele>74</ele>
        <time>2021-04-20T12:07:56.000Z</time>
      </trkpt>
      <trkpt lat="47.25837" lon="-1.51617">
        <ele>74</ele>
        <time>2021-04-20T12:07:58.000Z</time>
      </trkpt>
      <trkpt lat="47.25838" lon="-1.51637">
        <ele>74</ele>
        <time>2021-04-20T12:08:00.000Z</time>
      </trkpt>
      <trkpt lat="47.25839" lon="-1.51656">
        <ele>74</ele>
        <time>2021-04-20T12:08:02.000Z</time>
      </trkpt>
      <trkpt lat="47.2584" lon="-1.51674">
        <ele>74</ele>
        <time>2021-04-20T12:08:04.000Z</time>
      </trkpt>
      <trkpt lat="47.25842" lon="-1.51693">
        <ele>74</ele>
        <time>2021-04-20T12:08:06.000Z</time>
      </trkpt>
      <trkpt lat="47.25843" lon="-1.51712">
        <ele>74</ele>
        <time>2021-04-20T12:08:08.000Z</time>
      </trkpt>
      <trkpt lat="47.25845" lon="-1.5173">
        <ele>74</ele>
        <time>2021-04-20T12:08:10.000Z</time>
      </trkpt>
      <trkpt lat="47.25847" lon="-1.51749">
        <ele>75</ele>
        <time>2021-04-20T12:08:12.000Z</time>
      </trkpt>
      <trkpt lat="47.25849" lon="-1.51767">
        <ele>75</ele>
        <time>2021-04-20T12:08:14.000Z</time>
      </trkpt>
      <trkpt lat="47.25852" lon="-1.51785">
        <ele>76</ele>
        <time>2021-04-20T12:08:16.000Z</time>
      </trkpt>
      <trkpt lat="47.25854" lon="-1.51803">
        <ele>76</ele>
        <time>2021-04-20T12:08:18.000Z</time>
      </trkpt>
      <trkpt lat="47.25856" lon="-1.51822">
        <ele>76</ele>
        <time>2021-04-20T12:08:20.000Z</time>
      </trkpt>
      <trkpt lat="47.25858" lon="-1.5184">
        <ele>77</ele>
        <time>2021-04-20T12:08:22.000Z</time>
      </trkpt>
      <trkpt lat="47.25861" lon="-1.51857">
        <ele>77</ele>
        <time>2021-04-20T12:08:24.000Z</time>
      </trkpt>
      <trkpt lat="47.25863" lon="-1.51875">
        <ele>77</ele>
        <time>2021-04-20T12:08:26.000Z</time>
      </trkpt>
      <trkpt lat="47.25866" lon="-1.51892">
        <ele>77</ele>
        <time>2021-04-20T12:08:28.000Z</time>
      </trkpt>
      <trkpt lat="47.25869" lon="-1.51908">
        <ele>77</ele>
        <time>2021-04-20T12:08:30.000Z</time>
      </trkpt>
      <trkpt lat="47.25872" lon="-1.51925">
        <ele>77</ele>
        <time>2021-04-20T12:08:32.000Z</time>
      </trkpt>
      <trkpt lat="47.25877" lon="-1.51941">
        <ele>76</ele>
        <time>2021-04-20T12:08:34.000Z</time>
      </trkpt>
      <trkpt lat="47.25879" lon="-1.5196">
        <ele>76</ele>
        <time>2021-04-20T12:08:36.000Z</time>
      </trkpt>
      <trkpt lat="47.25878" lon="-1.51979">
        <ele>76</ele>
        <time>2021-04-20T12:08:38.000Z</time>
      </trkpt>
      <trkpt lat="47.25879" lon="-1.51998">
        <ele>76</ele>
        <time>2021-04-20T12:08:40.000Z</time>
      </trkpt>
      <trkpt lat="47.25881" lon="-1.52017">
        <ele>76</ele>
        <time>2021-04-20T12:08:42.000Z</time>
      </trkpt>
      <trkpt lat="47.25882" lon="-1.52035">
        <ele>76</ele>
        <time>2021-04-20T12:08:44.000Z</time>
      </trkpt>
      <trkpt lat="47.25883" lon="-1.52054">
        <ele>76</ele>
        <time>2021-04-20T12:08:46.000Z</time>
      </trkpt>
      <trkpt lat="47.25885" lon="-1.52073">
        <ele>76</ele>
        <time>2021-04-20T12:08:48.000Z</time>
      </trkpt>
      <trkpt lat="47.25887" lon="-1.52092">
        <ele>76</ele>
        <time>2021-04-20T12:08:50.000Z</time>
      </trkpt>
      <trkpt lat="47.25889" lon="-1.52112">
        <ele>75</ele>
        <time>2021-04-20T12:08:52.000Z</time>
      </trkpt>
      <trkpt lat="47.2589" lon="-1.52131">
        <ele>75</ele>
        <time>2021-04-20T12:08:54.000Z</time>
      </trkpt>
      <trkpt lat="47.25892" lon="-1.52151">
        <ele>75</ele>
        <time>2021-04-20T12:08:56.000Z</time>
      </trkpt>
      <trkpt lat="47.25894" lon="-1.5217">
        <ele>74</ele>
        <time>2021-04-20T12:08:58.000Z</time>
      </trkpt>
      <trkpt lat="47.25895" lon="-1.52191">
        <ele>73</ele>
        <time>2021-04-20T12:09:00.000Z</time>
      </trkpt>
      <trkpt lat="47.25896" lon="-1.52213">
        <ele>72</ele>
        <time>2021-04-20T12:09:02.000Z</time>
      </trkpt>
      <trkpt lat="47.25897" lon="-1.52235">
        <ele>71</ele>
        <time>2021-04-20T12:09:04.000Z</time>
      </trkpt>
      <trkpt lat="47.25898" lon="-1.52258">
        <ele>70</ele>
        <time>2021-04-20T12:09:06.000Z</time>
      </trkpt>
      <trkpt lat="47.25898" lon="-1.5228">
        <ele>70</ele>
        <time>2021-04-20T12:09:08.000Z</time>
      </trkpt>
      <trkpt lat="47.25899" lon="-1.52303">
        <ele>69</ele>
        <time>2021-04-20T12:09:10.000Z</time>
      </trkpt>
      <trkpt lat="47.25899" lon="-1.52326">
        <ele>69</ele>
        <time>2021-04-20T12:09:12.000Z</time>
      </trkpt>
      <trkpt lat="47.25899" lon="-1.52349">
        <ele>68</ele>
        <time>2021-04-20T12:09:14.000Z</time>
      </trkpt>
      <trkpt lat="47.25899" lon="-1.52372">
        <ele>67</ele>
        <time>2021-04-20T12:09:16.000Z</time>
      </trkpt>
      <trkpt lat="47.25899" lon="-1.52394">
        <ele>67</ele>
        <time>2021-04-20T12:09:18.000Z</time>
      </trkpt>
      <trkpt lat="47.25899" lon="-1.52417">
        <ele>67</ele>
        <time>2021-04-20T12:09:20.000Z</time>
      </trkpt>
      <trkpt lat="47.25898" lon="-1.52439">
        <ele>67</ele>
        <time>2021-04-20T12:09:22.000Z</time>
      </trkpt>
      <trkpt lat="47.25899" lon="-1.5246">
        <ele>67</ele>
        <time>2021-04-20T12:09:24.000Z</time>
      </trkpt>
      <trkpt lat="47.25899" lon="-1.52483">
        <ele>67</ele>
        <time>2021-04-20T12:09:26.000Z</time>
      </trkpt>
      <trkpt lat="47.259" lon="-1.52504">
        <ele>68</ele>
        <time>2021-04-20T12:09:28.000Z</time>
      </trkpt>
      <trkpt lat="47.259" lon="-1.52524">
        <ele>67</ele>
        <time>2021-04-20T12:09:30.000Z</time>
      </trkpt>
      <trkpt lat="47.259" lon="-1.52546">
        <ele>67</ele>
        <time>2021-04-20T12:09:32.000Z</time>
      </trkpt>
      <trkpt lat="47.259" lon="-1.52567">
        <ele>66</ele>
        <time>2021-04-20T12:09:34.000Z</time>
      </trkpt>
      <trkpt lat="47.25899" lon="-1.52588">
        <ele>66</ele>
        <time>2021-04-20T12:09:36.000Z</time>
      </trkpt>
      <trkpt lat="47.259" lon="-1.52609">
        <ele>65</ele>
        <time>2021-04-20T12:09:38.000Z</time>
      </trkpt>
      <trkpt lat="47.259" lon="-1.52631">
        <ele>65</ele>
        <time>2021-04-20T12:09:40.000Z</time>
      </trkpt>
      <trkpt lat="47.259" lon="-1.52652">
        <ele>64</ele>
        <time>2021-04-20T12:09:42.000Z</time>
      </trkpt>
      <trkpt lat="47.259" lon="-1.52672">
        <ele>64</ele>
        <time>2021-04-20T12:09:44.000Z</time>
      </trkpt>
      <trkpt lat="47.259" lon="-1.52691">
        <ele>64</ele>
        <time>2021-04-20T12:09:46.000Z</time>
      </trkpt>
      <trkpt lat="47.25901" lon="-1.5271">
        <ele>63</ele>
        <time>2021-04-20T12:09:48.000Z</time>
      </trkpt>
      <trkpt lat="47.25901" lon="-1.52729">
        <ele>63</ele>
        <time>2021-04-20T12:09:50.000Z</time>
      </trkpt>
      <trkpt lat="47.25901" lon="-1.52747">
        <ele>63</ele>
        <time>2021-04-20T12:09:52.000Z</time>
      </trkpt>
      <trkpt lat="47.25904" lon="-1.52764">
        <ele>63</ele>
        <time>2021-04-20T12:09:54.000Z</time>
      </trkpt>
      <trkpt lat="47.25908" lon="-1.52781">
        <ele>63</ele>
        <time>2021-04-20T12:09:56.000Z</time>
      </trkpt>
      <trkpt lat="47.25901" lon="-1.52797">
        <ele>62</ele>
        <time>2021-04-20T12:09:58.000Z</time>
      </trkpt>
      <trkpt lat="47.25888" lon="-1.52799">
        <ele>63</ele>
        <time>2021-04-20T12:10:00.000Z</time>
      </trkpt>
      <trkpt lat="47.25875" lon="-1.528">
        <ele>63</ele>
        <time>2021-04-20T12:10:02.000Z</time>
      </trkpt>
      <trkpt lat="47.25862" lon="-1.52807">
        <ele>63</ele>
        <time>2021-04-20T12:10:04.000Z</time>
      </trkpt>
      <trkpt lat="47.2585" lon="-1.52815">
        <ele>64</ele>
        <time>2021-04-20T12:10:06.000Z</time>
      </trkpt>
      <trkpt lat="47.25839" lon="-1.52823">
        <ele>64</ele>
        <time>2021-04-20T12:10:08.000Z</time>
      </trkpt>
      <trkpt lat="47.25827" lon="-1.52832">
        <ele>64</ele>
        <time>2021-04-20T12:10:10.000Z</time>
      </trkpt>
      <trkpt lat="47.25814" lon="-1.5284">
        <ele>63</ele>
        <time>2021-04-20T12:10:12.000Z</time>
      </trkpt>
      <trkpt lat="47.25801" lon="-1.52852">
        <ele>63</ele>
        <time>2021-04-20T12:10:14.000Z</time>
      </trkpt>
      <trkpt lat="47.25787" lon="-1.52863">
        <ele>61</ele>
        <time>2021-04-20T12:10:16.000Z</time>
      </trkpt>
      <trkpt lat="47.25772" lon="-1.52876">
        <ele>60</ele>
        <time>2021-04-20T12:10:18.000Z</time>
      </trkpt>
      <trkpt lat="47.25757" lon="-1.52887">
        <ele>60</ele>
        <time>2021-04-20T12:10:20.000Z</time>
      </trkpt>
      <trkpt lat="47.25744" lon="-1.52898">
        <ele>60</ele>
        <time>2021-04-20T12:10:22.000Z</time>
      </trkpt>
      <trkpt lat="47.25731" lon="-1.52908">
        <ele>60</ele>
        <time>2021-04-20T12:10:24.000Z</time>
      </trkpt>
      <trkpt lat="47.25719" lon="-1.52918">
        <ele>60</ele>
        <time>2021-04-20T12:10:26.000Z</time>
      </trkpt>
      <trkpt lat="47.25707" lon="-1.52927">
        <ele>60</ele>
        <time>2021-04-20T12:10:28.000Z</time>
      </trkpt>
      <trkpt lat="47.25696" lon="-1.52937">
        <ele>60</ele>
        <time>2021-04-20T12:10:30.000Z</time>
      </trkpt>
      <trkpt lat="47.25684" lon="-1.52946">
        <ele>60</ele>
        <time>2021-04-20T12:10:32.000Z</time>
      </trkpt>
      <trkpt lat="47.25672" lon="-1.52954">
        <ele>60</ele>
        <time>2021-04-20T12:10:34.000Z</time>
      </trkpt>
      <trkpt lat="47.25661" lon="-1.52962">
        <ele>61</ele>
        <time>2021-04-20T12:10:36.000Z</time>
      </trkpt>
      <trkpt lat="47.2565" lon="-1.5297">
        <ele>61</ele>
        <time>2021-04-20T12:10:38.000Z</time>
      </trkpt>
      <trkpt lat="47.25638" lon="-1.52977">
        <ele>62</ele>
        <time>2021-04-20T12:10:40.000Z</time>
      </trkpt>
      <trkpt lat="47.25626" lon="-1.52983">
        <ele>63</ele>
        <time>2021-04-20T12:10:42.000Z</time>
      </trkpt>
      <trkpt lat="47.25614" lon="-1.52989">
        <ele>64</ele>
        <time>2021-04-20T12:10:44.000Z</time>
      </trkpt>
      <trkpt lat="47.25602" lon="-1.52995">
        <ele>65</ele>
        <time>2021-04-20T12:10:46.000Z</time>
      </trkpt>
      <trkpt lat="47.25595" lon="-1.53003">
        <ele>66</ele>
        <time>2021-04-20T12:10:48.000Z</time>
      </trkpt>
      <trkpt lat="47.25584" lon="-1.53005">
        <ele>66</ele>
        <time>2021-04-20T12:10:50.000Z</time>
      </trkpt>
      <trkpt lat="47.25572" lon="-1.53007">
        <ele>66</ele>
        <time>2021-04-20T12:10:52.000Z</time>
      </trkpt>
      <trkpt lat="47.25559" lon="-1.53009">
        <ele>67</ele>
        <time>2021-04-20T12:10:54.000Z</time>
      </trkpt>
      <trkpt lat="47.25548" lon="-1.53012">
        <ele>66</ele>
        <time>2021-04-20T12:10:56.000Z</time>
      </trkpt>
      <trkpt lat="47.25538" lon="-1.53013">
        <ele>66</ele>
        <time>2021-04-20T12:10:58.000Z</time>
      </trkpt>
      <trkpt lat="47.25525" lon="-1.53014">
        <ele>67</ele>
        <time>2021-04-20T12:11:01.000Z</time>
      </trkpt>
      <trkpt lat="47.25514" lon="-1.53012">
        <ele>67</ele>
        <time>2021-04-20T12:11:04.000Z</time>
      </trkpt>
      <trkpt lat="47.25505" lon="-1.53013">
        <ele>68</ele>
        <time>2021-04-20T12:11:06.000Z</time>
      </trkpt>
      <trkpt lat="47.25495" lon="-1.53015">
        <ele>68</ele>
        <time>2021-04-20T12:11:08.000Z</time>
      </trkpt>
      <trkpt lat="47.25483" lon="-1.53016">
        <ele>68</ele>
        <time>2021-04-20T12:11:10.000Z</time>
      </trkpt>
      <trkpt lat="47.25471" lon="-1.5302">
        <ele>68</ele>
        <time>2021-04-20T12:11:12.000Z</time>
      </trkpt>
      <trkpt lat="47.25467" lon="-1.53039">
        <ele>68</ele>
        <time>2021-04-20T12:11:14.000Z</time>
      </trkpt>
      <trkpt lat="47.2547" lon="-1.53059">
        <ele>68</ele>
        <time>2021-04-20T12:11:16.000Z</time>
      </trkpt>
      <trkpt lat="47.25475" lon="-1.53078">
        <ele>68</ele>
        <time>2021-04-20T12:11:18.000Z</time>
      </trkpt>
      <trkpt lat="47.25479" lon="-1.53098">
        <ele>68</ele>
        <time>2021-04-20T12:11:20.000Z</time>
      </trkpt>
      <trkpt lat="47.25479" lon="-1.53118">
        <ele>68</ele>
        <time>2021-04-20T12:11:22.000Z</time>
      </trkpt>
      <trkpt lat="47.2548" lon="-1.53138">
        <ele>68</ele>
        <time>2021-04-20T12:11:24.000Z</time>
      </trkpt>
      <trkpt lat="47.2548" lon="-1.53159">
        <ele>68</ele>
        <time>2021-04-20T12:11:26.000Z</time>
      </trkpt>
      <trkpt lat="47.25482" lon="-1.5318">
        <ele>68</ele>
        <time>2021-04-20T12:11:28.000Z</time>
      </trkpt>
      <trkpt lat="47.25483" lon="-1.53202">
        <ele>67</ele>
        <time>2021-04-20T12:11:30.000Z</time>
      </trkpt>
      <trkpt lat="47.25484" lon="-1.53223">
        <ele>67</ele>
        <time>2021-04-20T12:11:32.000Z</time>
      </trkpt>
      <trkpt lat="47.25486" lon="-1.53244">
        <ele>67</ele>
        <time>2021-04-20T12:11:34.000Z</time>
      </trkpt>
      <trkpt lat="47.25488" lon="-1.53265">
        <ele>67</ele>
        <time>2021-04-20T12:11:36.000Z</time>
      </trkpt>
      <trkpt lat="47.25491" lon="-1.53286">
        <ele>66</ele>
        <time>2021-04-20T12:11:38.000Z</time>
      </trkpt>
      <trkpt lat="47.25493" lon="-1.53306">
        <ele>66</ele>
        <time>2021-04-20T12:11:40.000Z</time>
      </trkpt>
      <trkpt lat="47.25495" lon="-1.53327">
        <ele>65</ele>
        <time>2021-04-20T12:11:42.000Z</time>
      </trkpt>
      <trkpt lat="47.25497" lon="-1.53349">
        <ele>65</ele>
        <time>2021-04-20T12:11:44.000Z</time>
      </trkpt>
      <trkpt lat="47.255" lon="-1.53371">
        <ele>64</ele>
        <time>2021-04-20T12:11:46.000Z</time>
      </trkpt>
      <trkpt lat="47.25502" lon="-1.53393">
        <ele>64</ele>
        <time>2021-04-20T12:11:48.000Z</time>
      </trkpt>
      <trkpt lat="47.25505" lon="-1.53415">
        <ele>63</ele>
        <time>2021-04-20T12:11:50.000Z</time>
      </trkpt>
      <trkpt lat="47.25507" lon="-1.53436">
        <ele>63</ele>
        <time>2021-04-20T12:11:52.000Z</time>
      </trkpt>
      <trkpt lat="47.25509" lon="-1.53457">
        <ele>62</ele>
        <time>2021-04-20T12:11:54.000Z</time>
      </trkpt>
      <trkpt lat="47.25511" lon="-1.53479">
        <ele>61</ele>
        <time>2021-04-20T12:11:56.000Z</time>
      </trkpt>
      <trkpt lat="47.25513" lon="-1.535">
        <ele>61</ele>
        <time>2021-04-20T12:11:58.000Z</time>
      </trkpt>
      <trkpt lat="47.25515" lon="-1.53521">
        <ele>60</ele>
        <time>2021-04-20T12:12:00.000Z</time>
      </trkpt>
      <trkpt lat="47.25517" lon="-1.53542">
        <ele>60</ele>
        <time>2021-04-20T12:12:02.000Z</time>
      </trkpt>
      <trkpt lat="47.25518" lon="-1.53563">
        <ele>60</ele>
        <time>2021-04-20T12:12:04.000Z</time>
      </trkpt>
      <trkpt lat="47.25521" lon="-1.53584">
        <ele>60</ele>
        <time>2021-04-20T12:12:06.000Z</time>
      </trkpt>
      <trkpt lat="47.25522" lon="-1.53606">
        <ele>60</ele>
        <time>2021-04-20T12:12:08.000Z</time>
      </trkpt>
      <trkpt lat="47.25522" lon="-1.53628">
        <ele>60</ele>
        <time>2021-04-20T12:12:10.000Z</time>
      </trkpt>
      <trkpt lat="47.25522" lon="-1.53647">
        <ele>61</ele>
        <time>2021-04-20T12:12:12.000Z</time>
      </trkpt>
      <trkpt lat="47.25521" lon="-1.53666">
        <ele>60</ele>
        <time>2021-04-20T12:12:14.000Z</time>
      </trkpt>
      <trkpt lat="47.25521" lon="-1.53684">
        <ele>61</ele>
        <time>2021-04-20T12:12:16.000Z</time>
      </trkpt>
      <trkpt lat="47.25524" lon="-1.53701">
        <ele>61</ele>
        <time>2021-04-20T12:12:18.000Z</time>
      </trkpt>
      <trkpt lat="47.25528" lon="-1.53718">
        <ele>61</ele>
        <time>2021-04-20T12:12:20.000Z</time>
      </trkpt>
      <trkpt lat="47.25533" lon="-1.53735">
        <ele>61</ele>
        <time>2021-04-20T12:12:22.000Z</time>
      </trkpt>
      <trkpt lat="47.25539" lon="-1.53753">
        <ele>61</ele>
        <time>2021-04-20T12:12:24.000Z</time>
      </trkpt>
      <trkpt lat="47.25544" lon="-1.53772">
        <ele>61</ele>
        <time>2021-04-20T12:12:26.000Z</time>
      </trkpt>
      <trkpt lat="47.2555" lon="-1.53791">
        <ele>61</ele>
        <time>2021-04-20T12:12:28.000Z</time>
      </trkpt>
      <trkpt lat="47.25555" lon="-1.5381">
        <ele>62</ele>
        <time>2021-04-20T12:12:30.000Z</time>
      </trkpt>
      <trkpt lat="47.2556" lon="-1.5383">
        <ele>62</ele>
        <time>2021-04-20T12:12:32.000Z</time>
      </trkpt>
      <trkpt lat="47.25565" lon="-1.53849">
        <ele>63</ele>
        <time>2021-04-20T12:12:34.000Z</time>
      </trkpt>
      <trkpt lat="47.2557" lon="-1.53867">
        <ele>64</ele>
        <time>2021-04-20T12:12:36.000Z</time>
      </trkpt>
      <trkpt lat="47.25575" lon="-1.53886">
        <ele>65</ele>
        <time>2021-04-20T12:12:38.000Z</time>
      </trkpt>
      <trkpt lat="47.2558" lon="-1.53904">
        <ele>65</ele>
        <time>2021-04-20T12:12:40.000Z</time>
      </trkpt>
      <trkpt lat="47.25585" lon="-1.53921">
        <ele>66</ele>
        <time>2021-04-20T12:12:42.000Z</time>
      </trkpt>
      <trkpt lat="47.2559" lon="-1.53939">
        <ele>66</ele>
        <time>2021-04-20T12:12:44.000Z</time>
      </trkpt>
      <trkpt lat="47.25594" lon="-1.53956">
        <ele>66</ele>
        <time>2021-04-20T12:12:46.000Z</time>
      </trkpt>
      <trkpt lat="47.25599" lon="-1.53974">
        <ele>66</ele>
        <time>2021-04-20T12:12:48.000Z</time>
      </trkpt>
      <trkpt lat="47.25605" lon="-1.53991">
        <ele>66</ele>
        <time>2021-04-20T12:12:50.000Z</time>
      </trkpt>
      <trkpt lat="47.25609" lon="-1.54008">
        <ele>66</ele>
        <time>2021-04-20T12:12:52.000Z</time>
      </trkpt>
      <trkpt lat="47.25614" lon="-1.54023">
        <ele>66</ele>
        <time>2021-04-20T12:12:54.000Z</time>
      </trkpt>
      <trkpt lat="47.25618" lon="-1.54039">
        <ele>66</ele>
        <time>2021-04-20T12:12:56.000Z</time>
      </trkpt>
      <trkpt lat="47.25623" lon="-1.54027">
        <ele>63</ele>
        <time>2021-04-20T12:13:02.000Z</time>
      </trkpt>
      <trkpt lat="47.25618" lon="-1.5401">
        <ele>63</ele>
        <time>2021-04-20T12:13:04.000Z</time>
      </trkpt>
      <trkpt lat="47.2561" lon="-1.54001">
        <ele>62</ele>
        <time>2021-04-20T12:13:07.000Z</time>
      </trkpt>
      <trkpt lat="47.25601" lon="-1.54006">
        <ele>62</ele>
        <time>2021-04-20T12:13:09.000Z</time>
      </trkpt>
      <trkpt lat="47.25589" lon="-1.54013">
        <ele>61</ele>
        <time>2021-04-20T12:13:11.000Z</time>
      </trkpt>
      <trkpt lat="47.25578" lon="-1.54017">
        <ele>61</ele>
        <time>2021-04-20T12:13:13.000Z</time>
      </trkpt>
      <trkpt lat="47.25569" lon="-1.54014">
        <ele>60</ele>
        <time>2021-04-20T12:13:16.000Z</time>
      </trkpt>
      <trkpt lat="47.25578" lon="-1.54002">
        <ele>59</ele>
        <time>2021-04-20T12:13:20.000Z</time>
      </trkpt>
      <trkpt lat="47.25589" lon="-1.53996">
        <ele>56</ele>
        <time>2021-04-20T12:13:22.000Z</time>
      </trkpt>
      <trkpt lat="47.25602" lon="-1.53992">
        <ele>55</ele>
        <time>2021-04-20T12:13:24.000Z</time>
      </trkpt>
      <trkpt lat="47.25611" lon="-1.53986">
        <ele>53</ele>
        <time>2021-04-20T12:13:26.000Z</time>
      </trkpt>
      <trkpt lat="47.25602" lon="-1.53982">
        <ele>51</ele>
        <time>2021-04-20T12:13:33.000Z</time>
      </trkpt>
      <trkpt lat="47.25591" lon="-1.53991">
        <ele>51</ele>
        <time>2021-04-20T12:13:35.000Z</time>
      </trkpt>
      <trkpt lat="47.25578" lon="-1.53995">
        <ele>50</ele>
        <time>2021-04-20T12:13:37.000Z</time>
      </trkpt>
      <trkpt lat="47.25566" lon="-1.54">
        <ele>49</ele>
        <time>2021-04-20T12:13:39.000Z</time>
      </trkpt>
      <trkpt lat="47.25553" lon="-1.54005">
        <ele>48</ele>
        <time>2021-04-20T12:13:41.000Z</time>
      </trkpt>
      <trkpt lat="47.25542" lon="-1.54007">
        <ele>48</ele>
        <time>2021-04-20T12:13:43.000Z</time>
      </trkpt>
      <trkpt lat="47.25532" lon="-1.54011">
        <ele>48</ele>
        <time>2021-04-20T12:13:45.000Z</time>
      </trkpt>
      <trkpt lat="47.25521" lon="-1.54015">
        <ele>49</ele>
        <time>2021-04-20T12:13:47.000Z</time>
      </trkpt>
      <trkpt lat="47.2551" lon="-1.54019">
        <ele>49</ele>
        <time>2021-04-20T12:13:49.000Z</time>
      </trkpt>
      <trkpt lat="47.25499" lon="-1.54022">
        <ele>49</ele>
        <time>2021-04-20T12:13:51.000Z</time>
      </trkpt>
      <trkpt lat="47.25489" lon="-1.54022">
        <ele>48</ele>
        <time>2021-04-20T12:13:53.000Z</time>
      </trkpt>
      <trkpt lat="47.25477" lon="-1.54021">
        <ele>48</ele>
        <time>2021-04-20T12:13:55.000Z</time>
      </trkpt>
      <trkpt lat="47.25466" lon="-1.54019">
        <ele>47</ele>
        <time>2021-04-20T12:13:57.000Z</time>
      </trkpt>
      <trkpt lat="47.2546" lon="-1.5403">
        <ele>47</ele>
        <time>2021-04-20T12:14:02.000Z</time>
      </trkpt>
      <trkpt lat="47.25469" lon="-1.54042">
        <ele>47</ele>
        <time>2021-04-20T12:14:05.000Z</time>
      </trkpt>
      <trkpt lat="47.25478" lon="-1.5405">
        <ele>47</ele>
        <time>2021-04-20T12:14:07.000Z</time>
      </trkpt>
      <trkpt lat="47.25487" lon="-1.54064">
        <ele>47</ele>
        <time>2021-04-20T12:14:09.000Z</time>
      </trkpt>
      <trkpt lat="47.25489" lon="-1.54085">
        <ele>47</ele>
        <time>2021-04-20T12:14:11.000Z</time>
      </trkpt>
      <trkpt lat="47.25487" lon="-1.54106">
        <ele>46</ele>
        <time>2021-04-20T12:14:13.000Z</time>
      </trkpt>
      <trkpt lat="47.25484" lon="-1.54126">
        <ele>46</ele>
        <time>2021-04-20T12:14:15.000Z</time>
      </trkpt>
      <trkpt lat="47.25482" lon="-1.54146">
        <ele>46</ele>
        <time>2021-04-20T12:14:17.000Z</time>
      </trkpt>
      <trkpt lat="47.2548" lon="-1.54166">
        <ele>46</ele>
        <time>2021-04-20T12:14:19.000Z</time>
      </trkpt>
      <trkpt lat="47.25479" lon="-1.54184">
        <ele>46</ele>
        <time>2021-04-20T12:14:21.000Z</time>
      </trkpt>
      <trkpt lat="47.25481" lon="-1.54201">
        <ele>46</ele>
        <time>2021-04-20T12:14:23.000Z</time>
      </trkpt>
      <trkpt lat="47.25482" lon="-1.54219">
        <ele>46</ele>
        <time>2021-04-20T12:14:25.000Z</time>
      </trkpt>
      <trkpt lat="47.25484" lon="-1.54239">
        <ele>46</ele>
        <time>2021-04-20T12:14:27.000Z</time>
      </trkpt>
      <trkpt lat="47.25487" lon="-1.54259">
        <ele>46</ele>
        <time>2021-04-20T12:14:29.000Z</time>
      </trkpt>
      <trkpt lat="47.25492" lon="-1.54279">
        <ele>45</ele>
        <time>2021-04-20T12:14:31.000Z</time>
      </trkpt>
      <trkpt lat="47.25496" lon="-1.54298">
        <ele>45</ele>
        <time>2021-04-20T12:14:33.000Z</time>
      </trkpt>
      <trkpt lat="47.25496" lon="-1.54315">
        <ele>45</ele>
        <time>2021-04-20T12:14:35.000Z</time>
      </trkpt>
      <trkpt lat="47.25492" lon="-1.54331">
        <ele>45</ele>
        <time>2021-04-20T12:14:37.000Z</time>
      </trkpt>
      <trkpt lat="47.2549" lon="-1.54348">
        <ele>46</ele>
        <time>2021-04-20T12:14:39.000Z</time>
      </trkpt>
      <trkpt lat="47.25494" lon="-1.54364">
        <ele>46</ele>
        <time>2021-04-20T12:14:41.000Z</time>
      </trkpt>
      <trkpt lat="47.25497" lon="-1.54379">
        <ele>46</ele>
        <time>2021-04-20T12:14:43.000Z</time>
      </trkpt>
      <trkpt lat="47.25498" lon="-1.54399">
        <ele>48</ele>
        <time>2021-04-20T12:14:45.000Z</time>
      </trkpt>
      <trkpt lat="47.255" lon="-1.54419">
        <ele>48</ele>
        <time>2021-04-20T12:14:47.000Z</time>
      </trkpt>
      <trkpt lat="47.25504" lon="-1.54438">
        <ele>49</ele>
        <time>2021-04-20T12:14:49.000Z</time>
      </trkpt>
      <trkpt lat="47.25509" lon="-1.54456">
        <ele>49</ele>
        <time>2021-04-20T12:14:51.000Z</time>
      </trkpt>
      <trkpt lat="47.25515" lon="-1.54473">
        <ele>50</ele>
        <time>2021-04-20T12:14:53.000Z</time>
      </trkpt>
      <trkpt lat="47.25521" lon="-1.5449">
        <ele>50</ele>
        <time>2021-04-20T12:14:55.000Z</time>
      </trkpt>
      <trkpt lat="47.25526" lon="-1.54506">
        <ele>51</ele>
        <time>2021-04-20T12:14:57.000Z</time>
      </trkpt>
      <trkpt lat="47.25531" lon="-1.54533">
        <ele>50</ele>
        <time>2021-04-20T12:15:00.000Z</time>
      </trkpt>
      <trkpt lat="47.25533" lon="-1.54553">
        <ele>50</ele>
        <time>2021-04-20T12:15:02.000Z</time>
      </trkpt>
      <trkpt lat="47.25533" lon="-1.54572">
        <ele>50</ele>
        <time>2021-04-20T12:15:04.000Z</time>
      </trkpt>
      <trkpt lat="47.25531" lon="-1.54587">
        <ele>50</ele>
        <time>2021-04-20T12:15:06.000Z</time>
      </trkpt>
      <trkpt lat="47.25524" lon="-1.546">
        <ele>49</ele>
        <time>2021-04-20T12:15:08.000Z</time>
      </trkpt>
      <trkpt lat="47.25515" lon="-1.54611">
        <ele>49</ele>
        <time>2021-04-20T12:15:10.000Z</time>
      </trkpt>
      <trkpt lat="47.25507" lon="-1.54626">
        <ele>49</ele>
        <time>2021-04-20T12:15:12.000Z</time>
      </trkpt>
      <trkpt lat="47.25499" lon="-1.5464">
        <ele>48</ele>
        <time>2021-04-20T12:15:14.000Z</time>
      </trkpt>
      <trkpt lat="47.25492" lon="-1.54656">
        <ele>47</ele>
        <time>2021-04-20T12:15:16.000Z</time>
      </trkpt>
      <trkpt lat="47.25487" lon="-1.54683">
        <ele>47</ele>
        <time>2021-04-20T12:15:19.000Z</time>
      </trkpt>
      <trkpt lat="47.25484" lon="-1.547">
        <ele>47</ele>
        <time>2021-04-20T12:15:21.000Z</time>
      </trkpt>
      <trkpt lat="47.25481" lon="-1.54716">
        <ele>47</ele>
        <time>2021-04-20T12:15:23.000Z</time>
      </trkpt>
      <trkpt lat="47.25482" lon="-1.54731">
        <ele>48</ele>
        <time>2021-04-20T12:15:25.000Z</time>
      </trkpt>
      <trkpt lat="47.2549" lon="-1.5474">
        <ele>49</ele>
        <time>2021-04-20T12:15:27.000Z</time>
      </trkpt>
      <trkpt lat="47.25497" lon="-1.54753">
        <ele>50</ele>
        <time>2021-04-20T12:15:29.000Z</time>
      </trkpt>
      <trkpt lat="47.255" lon="-1.54771">
        <ele>50</ele>
        <time>2021-04-20T12:15:31.000Z</time>
      </trkpt>
      <trkpt lat="47.25499" lon="-1.54789">
        <ele>50</ele>
        <time>2021-04-20T12:15:33.000Z</time>
      </trkpt>
      <trkpt lat="47.25498" lon="-1.54808">
        <ele>51</ele>
        <time>2021-04-20T12:15:35.000Z</time>
      </trkpt>
      <trkpt lat="47.25497" lon="-1.54827">
        <ele>51</ele>
        <time>2021-04-20T12:15:37.000Z</time>
      </trkpt>
      <trkpt lat="47.25498" lon="-1.54846">
        <ele>50</ele>
        <time>2021-04-20T12:15:39.000Z</time>
      </trkpt>
      <trkpt lat="47.25498" lon="-1.54864">
        <ele>50</ele>
        <time>2021-04-20T12:15:41.000Z</time>
      </trkpt>
      <trkpt lat="47.25499" lon="-1.54882">
        <ele>51</ele>
        <time>2021-04-20T12:15:43.000Z</time>
      </trkpt>
      <trkpt lat="47.25498" lon="-1.54901">
        <ele>51</ele>
        <time>2021-04-20T12:15:45.000Z</time>
      </trkpt>
      <trkpt lat="47.25497" lon="-1.54921">
        <ele>50</ele>
        <time>2021-04-20T12:15:47.000Z</time>
      </trkpt>
      <trkpt lat="47.25497" lon="-1.54939">
        <ele>50</ele>
        <time>2021-04-20T12:15:49.000Z</time>
      </trkpt>
      <trkpt lat="47.25499" lon="-1.54965">
        <ele>49</ele>
        <time>2021-04-20T12:15:52.000Z</time>
      </trkpt>
      <trkpt lat="47.25503" lon="-1.54983">
        <ele>49</ele>
        <time>2021-04-20T12:15:54.000Z</time>
      </trkpt>
      <trkpt lat="47.25506" lon="-1.55002">
        <ele>48</ele>
        <time>2021-04-20T12:15:56.000Z</time>
      </trkpt>
      <trkpt lat="47.2551" lon="-1.55021">
        <ele>49</ele>
        <time>2021-04-20T12:15:58.000Z</time>
      </trkpt>
      <trkpt lat="47.25514" lon="-1.55039">
        <ele>49</ele>
        <time>2021-04-20T12:16:00.000Z</time>
      </trkpt>
      <trkpt lat="47.25518" lon="-1.55057">
        <ele>48</ele>
        <time>2021-04-20T12:16:02.000Z</time>
      </trkpt>
      <trkpt lat="47.25521" lon="-1.55075">
        <ele>48</ele>
        <time>2021-04-20T12:16:04.000Z</time>
      </trkpt>
      <trkpt lat="47.25524" lon="-1.55093">
        <ele>49</ele>
        <time>2021-04-20T12:16:06.000Z</time>
      </trkpt>
      <trkpt lat="47.25528" lon="-1.5511">
        <ele>49</ele>
        <time>2021-04-20T12:16:08.000Z</time>
      </trkpt>
      <trkpt lat="47.25532" lon="-1.55126">
        <ele>49</ele>
        <time>2021-04-20T12:16:10.000Z</time>
      </trkpt>
      <trkpt lat="47.25538" lon="-1.55141">
        <ele>49</ele>
        <time>2021-04-20T12:16:12.000Z</time>
      </trkpt>
      <trkpt lat="47.25545" lon="-1.55155">
        <ele>49</ele>
        <time>2021-04-20T12:16:14.000Z</time>
      </trkpt>
      <trkpt lat="47.25552" lon="-1.55168">
        <ele>48</ele>
        <time>2021-04-20T12:16:16.000Z</time>
      </trkpt>
      <trkpt lat="47.2556" lon="-1.55179">
        <ele>48</ele>
        <time>2021-04-20T12:16:18.000Z</time>
      </trkpt>
      <trkpt lat="47.25568" lon="-1.5519">
        <ele>48</ele>
        <time>2021-04-20T12:16:20.000Z</time>
      </trkpt>
      <trkpt lat="47.25577" lon="-1.55203">
        <ele>48</ele>
        <time>2021-04-20T12:16:22.000Z</time>
      </trkpt>
      <trkpt lat="47.25585" lon="-1.55214">
        <ele>48</ele>
        <time>2021-04-20T12:16:24.000Z</time>
      </trkpt>
      <trkpt lat="47.25599" lon="-1.55235">
        <ele>46</ele>
        <time>2021-04-20T12:16:27.000Z</time>
      </trkpt>
      <trkpt lat="47.25605" lon="-1.55252">
        <ele>46</ele>
        <time>2021-04-20T12:16:29.000Z</time>
      </trkpt>
      <trkpt lat="47.25611" lon="-1.55271">
        <ele>45</ele>
        <time>2021-04-20T12:16:31.000Z</time>
      </trkpt>
      <trkpt lat="47.25621" lon="-1.5529">
        <ele>45</ele>
        <time>2021-04-20T12:16:33.000Z</time>
      </trkpt>
      <trkpt lat="47.25632" lon="-1.55307">
        <ele>46</ele>
        <time>2021-04-20T12:16:35.000Z</time>
      </trkpt>
      <trkpt lat="47.25641" lon="-1.55324">
        <ele>46</ele>
        <time>2021-04-20T12:16:37.000Z</time>
      </trkpt>
      <trkpt lat="47.25649" lon="-1.55339">
        <ele>47</ele>
        <time>2021-04-20T12:16:39.000Z</time>
      </trkpt>
      <trkpt lat="47.25658" lon="-1.55353">
        <ele>48</ele>
        <time>2021-04-20T12:16:41.000Z</time>
      </trkpt>
      <trkpt lat="47.25668" lon="-1.55368">
        <ele>49</ele>
        <time>2021-04-20T12:16:43.000Z</time>
      </trkpt>
      <trkpt lat="47.25679" lon="-1.55385">
        <ele>50</ele>
        <time>2021-04-20T12:16:45.000Z</time>
      </trkpt>
      <trkpt lat="47.25688" lon="-1.554">
        <ele>50</ele>
        <time>2021-04-20T12:16:47.000Z</time>
      </trkpt>
      <trkpt lat="47.25696" lon="-1.55413">
        <ele>50</ele>
        <time>2021-04-20T12:16:49.000Z</time>
      </trkpt>
      <trkpt lat="47.25704" lon="-1.55428">
        <ele>50</ele>
        <time>2021-04-20T12:16:51.000Z</time>
      </trkpt>
      <trkpt lat="47.2571" lon="-1.55444">
        <ele>50</ele>
        <time>2021-04-20T12:16:53.000Z</time>
      </trkpt>
      <trkpt lat="47.2572" lon="-1.55467">
        <ele>48</ele>
        <time>2021-04-20T12:16:56.000Z</time>
      </trkpt>
      <trkpt lat="47.25728" lon="-1.55481">
        <ele>48</ele>
        <time>2021-04-20T12:16:58.000Z</time>
      </trkpt>
      <trkpt lat="47.25735" lon="-1.55495">
        <ele>48</ele>
        <time>2021-04-20T12:17:00.000Z</time>
      </trkpt>
      <trkpt lat="47.25742" lon="-1.55508">
        <ele>49</ele>
        <time>2021-04-20T12:17:02.000Z</time>
      </trkpt>
      <trkpt lat="47.2575" lon="-1.55521">
        <ele>50</ele>
        <time>2021-04-20T12:17:04.000Z</time>
      </trkpt>
      <trkpt lat="47.25756" lon="-1.55535">
        <ele>51</ele>
        <time>2021-04-20T12:17:06.000Z</time>
      </trkpt>
      <trkpt lat="47.2576" lon="-1.5555">
        <ele>51</ele>
        <time>2021-04-20T12:17:08.000Z</time>
      </trkpt>
      <trkpt lat="47.25762" lon="-1.55565">
        <ele>52</ele>
        <time>2021-04-20T12:17:10.000Z</time>
      </trkpt>
      <trkpt lat="47.25763" lon="-1.5558">
        <ele>53</ele>
        <time>2021-04-20T12:17:12.000Z</time>
      </trkpt>
      <trkpt lat="47.25763" lon="-1.55595">
        <ele>54</ele>
        <time>2021-04-20T12:17:14.000Z</time>
      </trkpt>
      <trkpt lat="47.25765" lon="-1.55613">
        <ele>54</ele>
        <time>2021-04-20T12:17:17.000Z</time>
      </trkpt>
      <trkpt lat="47.25771" lon="-1.5563">
        <ele>55</ele>
        <time>2021-04-20T12:17:20.000Z</time>
      </trkpt>
      <trkpt lat="47.25773" lon="-1.55648">
        <ele>57</ele>
        <time>2021-04-20T12:17:23.000Z</time>
      </trkpt>
      <trkpt lat="47.25774" lon="-1.55663">
        <ele>57</ele>
        <time>2021-04-20T12:17:27.000Z</time>
      </trkpt>
      <trkpt lat="47.25772" lon="-1.55677">
        <ele>56</ele>
        <time>2021-04-20T12:17:35.000Z</time>
      </trkpt>
      <trkpt lat="47.25769" lon="-1.5569">
        <ele>56</ele>
        <time>2021-04-20T12:17:39.000Z</time>
      </trkpt>
      <trkpt lat="47.25759" lon="-1.55695">
        <ele>55</ele>
        <time>2021-04-20T12:17:44.000Z</time>
      </trkpt>
      <trkpt lat="47.2575" lon="-1.55686">
        <ele>55</ele>
        <time>2021-04-20T12:17:49.000Z</time>
      </trkpt>
      <trkpt lat="47.25742" lon="-1.55677">
        <ele>54</ele>
        <time>2021-04-20T12:17:52.000Z</time>
      </trkpt>
      <trkpt lat="47.25731" lon="-1.55665">
        <ele>54</ele>
        <time>2021-04-20T12:17:55.000Z</time>
      </trkpt>
      <trkpt lat="47.25722" lon="-1.55654">
        <ele>53</ele>
        <time>2021-04-20T12:17:57.000Z</time>
      </trkpt>
      <trkpt lat="47.25714" lon="-1.55641">
        <ele>53</ele>
        <time>2021-04-20T12:17:59.000Z</time>
      </trkpt>
      <trkpt lat="47.25704" lon="-1.55626">
        <ele>55</ele>
        <time>2021-04-20T12:18:01.000Z</time>
      </trkpt>
      <trkpt lat="47.25695" lon="-1.55611">
        <ele>56</ele>
        <time>2021-04-20T12:18:03.000Z</time>
      </trkpt>
      <trkpt lat="47.25687" lon="-1.55595">
        <ele>57</ele>
        <time>2021-04-20T12:18:05.000Z</time>
      </trkpt>
      <trkpt lat="47.2568" lon="-1.5558">
        <ele>57</ele>
        <time>2021-04-20T12:18:07.000Z</time>
      </trkpt>
      <trkpt lat="47.25672" lon="-1.55565">
        <ele>57</ele>
        <time>2021-04-20T12:18:09.000Z</time>
      </trkpt>
      <trkpt lat="47.25665" lon="-1.5555">
        <ele>57</ele>
        <time>2021-04-20T12:18:11.000Z</time>
      </trkpt>
      <trkpt lat="47.25659" lon="-1.55536">
        <ele>57</ele>
        <time>2021-04-20T12:18:13.000Z</time>
      </trkpt>
      <trkpt lat="47.25652" lon="-1.55522">
        <ele>57</ele>
        <time>2021-04-20T12:18:15.000Z</time>
      </trkpt>
      <trkpt lat="47.25646" lon="-1.55509">
        <ele>57</ele>
        <time>2021-04-20T12:18:17.000Z</time>
      </trkpt>
      <trkpt lat="47.25639" lon="-1.55495">
        <ele>57</ele>
        <time>2021-04-20T12:18:19.000Z</time>
      </trkpt>
      <trkpt lat="47.25632" lon="-1.55481">
        <ele>57</ele>
        <time>2021-04-20T12:18:21.000Z</time>
      </trkpt>
      <trkpt lat="47.25626" lon="-1.55467">
        <ele>58</ele>
        <time>2021-04-20T12:18:23.000Z</time>
      </trkpt>
      <trkpt lat="47.25619" lon="-1.55453">
        <ele>58</ele>
        <time>2021-04-20T12:18:25.000Z</time>
      </trkpt>
      <trkpt lat="47.25612" lon="-1.55438">
        <ele>58</ele>
        <time>2021-04-20T12:18:27.000Z</time>
      </trkpt>
      <trkpt lat="47.25605" lon="-1.55425">
        <ele>58</ele>
        <time>2021-04-20T12:18:29.000Z</time>
      </trkpt>
      <trkpt lat="47.25599" lon="-1.5541">
        <ele>58</ele>
        <time>2021-04-20T12:18:31.000Z</time>
      </trkpt>
      <trkpt lat="47.25592" lon="-1.55395">
        <ele>58</ele>
        <time>2021-04-20T12:18:33.000Z</time>
      </trkpt>
      <trkpt lat="47.25585" lon="-1.5538">
        <ele>58</ele>
        <time>2021-04-20T12:18:35.000Z</time>
      </trkpt>
      <trkpt lat="47.25577" lon="-1.55367">
        <ele>58</ele>
        <time>2021-04-20T12:18:37.000Z</time>
      </trkpt>
      <trkpt lat="47.25569" lon="-1.55355">
        <ele>58</ele>
        <time>2021-04-20T12:18:39.000Z</time>
      </trkpt>
      <trkpt lat="47.25561" lon="-1.55342">
        <ele>58</ele>
        <time>2021-04-20T12:18:41.000Z</time>
      </trkpt>
      <trkpt lat="47.25553" lon="-1.55331">
        <ele>57</ele>
        <time>2021-04-20T12:18:43.000Z</time>
      </trkpt>
      <trkpt lat="47.25543" lon="-1.55322">
        <ele>57</ele>
        <time>2021-04-20T12:18:45.000Z</time>
      </trkpt>
      <trkpt lat="47.25533" lon="-1.55314">
        <ele>56</ele>
        <time>2021-04-20T12:18:47.000Z</time>
      </trkpt>
      <trkpt lat="47.25523" lon="-1.55306">
        <ele>57</ele>
        <time>2021-04-20T12:18:49.000Z</time>
      </trkpt>
      <trkpt lat="47.25513" lon="-1.55299">
        <ele>57</ele>
        <time>2021-04-20T12:18:51.000Z</time>
      </trkpt>
      <trkpt lat="47.25502" lon="-1.55292">
        <ele>57</ele>
        <time>2021-04-20T12:18:53.000Z</time>
      </trkpt>
      <trkpt lat="47.25491" lon="-1.55288">
        <ele>57</ele>
        <time>2021-04-20T12:18:55.000Z</time>
      </trkpt>
      <trkpt lat="47.25479" lon="-1.55284">
        <ele>58</ele>
        <time>2021-04-20T12:18:57.000Z</time>
      </trkpt>
      <trkpt lat="47.25468" lon="-1.5528">
        <ele>58</ele>
        <time>2021-04-20T12:18:59.000Z</time>
      </trkpt>
      <trkpt lat="47.25456" lon="-1.55277">
        <ele>59</ele>
        <time>2021-04-20T12:19:01.000Z</time>
      </trkpt>
      <trkpt lat="47.25445" lon="-1.55277">
        <ele>59</ele>
        <time>2021-04-20T12:19:03.000Z</time>
      </trkpt>
      <trkpt lat="47.25433" lon="-1.55277">
        <ele>60</ele>
        <time>2021-04-20T12:19:05.000Z</time>
      </trkpt>
      <trkpt lat="47.25422" lon="-1.55277">
        <ele>61</ele>
        <time>2021-04-20T12:19:07.000Z</time>
      </trkpt>
      <trkpt lat="47.25411" lon="-1.55279">
        <ele>61</ele>
        <time>2021-04-20T12:19:09.000Z</time>
      </trkpt>
      <trkpt lat="47.25401" lon="-1.55282">
        <ele>61</ele>
        <time>2021-04-20T12:19:11.000Z</time>
      </trkpt>
      <trkpt lat="47.25391" lon="-1.55285">
        <ele>61</ele>
        <time>2021-04-20T12:19:13.000Z</time>
      </trkpt>
      <trkpt lat="47.2538" lon="-1.5529">
        <ele>61</ele>
        <time>2021-04-20T12:19:15.000Z</time>
      </trkpt>
      <trkpt lat="47.25369" lon="-1.55293">
        <ele>61</ele>
        <time>2021-04-20T12:19:17.000Z</time>
      </trkpt>
      <trkpt lat="47.25358" lon="-1.55297">
        <ele>61</ele>
        <time>2021-04-20T12:19:19.000Z</time>
      </trkpt>
      <trkpt lat="47.25347" lon="-1.55301">
        <ele>62</ele>
        <time>2021-04-20T12:19:21.000Z</time>
      </trkpt>
      <trkpt lat="47.25335" lon="-1.55306">
        <ele>62</ele>
        <time>2021-04-20T12:19:23.000Z</time>
      </trkpt>
      <trkpt lat="47.25323" lon="-1.55312">
        <ele>63</ele>
        <time>2021-04-20T12:19:25.000Z</time>
      </trkpt>
      <trkpt lat="47.25311" lon="-1.55317">
        <ele>62</ele>
        <time>2021-04-20T12:19:27.000Z</time>
      </trkpt>
      <trkpt lat="47.25299" lon="-1.55322">
        <ele>62</ele>
        <time>2021-04-20T12:19:29.000Z</time>
      </trkpt>
      <trkpt lat="47.25286" lon="-1.55326">
        <ele>62</ele>
        <time>2021-04-20T12:19:31.000Z</time>
      </trkpt>
      <trkpt lat="47.25274" lon="-1.55331">
        <ele>62</ele>
        <time>2021-04-20T12:19:33.000Z</time>
      </trkpt>
      <trkpt lat="47.25263" lon="-1.55335">
        <ele>62</ele>
        <time>2021-04-20T12:19:35.000Z</time>
      </trkpt>
      <trkpt lat="47.25253" lon="-1.55341">
        <ele>62</ele>
        <time>2021-04-20T12:19:37.000Z</time>
      </trkpt>
      <trkpt lat="47.25243" lon="-1.5535">
        <ele>62</ele>
        <time>2021-04-20T12:19:39.000Z</time>
      </trkpt>
      <trkpt lat="47.2523" lon="-1.55352">
        <ele>62</ele>
        <time>2021-04-20T12:19:41.000Z</time>
      </trkpt>
      <trkpt lat="47.25217" lon="-1.55353">
        <ele>63</ele>
        <time>2021-04-20T12:19:43.000Z</time>
      </trkpt>
      <trkpt lat="47.25205" lon="-1.55357">
        <ele>63</ele>
        <time>2021-04-20T12:19:45.000Z</time>
      </trkpt>
      <trkpt lat="47.25193" lon="-1.55363">
        <ele>64</ele>
        <time>2021-04-20T12:19:47.000Z</time>
      </trkpt>
      <trkpt lat="47.25181" lon="-1.55368">
        <ele>65</ele>
        <time>2021-04-20T12:19:49.000Z</time>
      </trkpt>
      <trkpt lat="47.2517" lon="-1.55373">
        <ele>65</ele>
        <time>2021-04-20T12:19:51.000Z</time>
      </trkpt>
      <trkpt lat="47.25159" lon="-1.55378">
        <ele>65</ele>
        <time>2021-04-20T12:19:53.000Z</time>
      </trkpt>
      <trkpt lat="47.25148" lon="-1.55382">
        <ele>66</ele>
        <time>2021-04-20T12:19:55.000Z</time>
      </trkpt>
      <trkpt lat="47.25136" lon="-1.55386">
        <ele>66</ele>
        <time>2021-04-20T12:19:57.000Z</time>
      </trkpt>
      <trkpt lat="47.25124" lon="-1.5539">
        <ele>67</ele>
        <time>2021-04-20T12:19:59.000Z</time>
      </trkpt>
      <trkpt lat="47.25112" lon="-1.55394">
        <ele>68</ele>
        <time>2021-04-20T12:20:01.000Z</time>
      </trkpt>
      <trkpt lat="47.25101" lon="-1.55398">
        <ele>69</ele>
        <time>2021-04-20T12:20:03.000Z</time>
      </trkpt>
      <trkpt lat="47.2509" lon="-1.55404">
        <ele>70</ele>
        <time>2021-04-20T12:20:05.000Z</time>
      </trkpt>
      <trkpt lat="47.2508" lon="-1.55411">
        <ele>71</ele>
        <time>2021-04-20T12:20:07.000Z</time>
      </trkpt>
      <trkpt lat="47.25069" lon="-1.55416">
        <ele>72</ele>
        <time>2021-04-20T12:20:09.000Z</time>
      </trkpt>
      <trkpt lat="47.25058" lon="-1.55421">
        <ele>72</ele>
        <time>2021-04-20T12:20:11.000Z</time>
      </trkpt>
      <trkpt lat="47.25046" lon="-1.55426">
        <ele>72</ele>
        <time>2021-04-20T12:20:13.000Z</time>
      </trkpt>
      <trkpt lat="47.25034" lon="-1.5543">
        <ele>73</ele>
        <time>2021-04-20T12:20:15.000Z</time>
      </trkpt>
      <trkpt lat="47.25021" lon="-1.55434">
        <ele>74</ele>
        <time>2021-04-20T12:20:17.000Z</time>
      </trkpt>
      <trkpt lat="47.25009" lon="-1.55436">
        <ele>75</ele>
        <time>2021-04-20T12:20:19.000Z</time>
      </trkpt>
      <trkpt lat="47.24999" lon="-1.5544">
        <ele>76</ele>
        <time>2021-04-20T12:20:21.000Z</time>
      </trkpt>
      <trkpt lat="47.24987" lon="-1.55444">
        <ele>76</ele>
        <time>2021-04-20T12:20:23.000Z</time>
      </trkpt>
      <trkpt lat="47.24976" lon="-1.55447">
        <ele>76</ele>
        <time>2021-04-20T12:20:25.000Z</time>
      </trkpt>
      <trkpt lat="47.24965" lon="-1.55451">
        <ele>76</ele>
        <time>2021-04-20T12:20:27.000Z</time>
      </trkpt>
      <trkpt lat="47.24955" lon="-1.55454">
        <ele>76</ele>
        <time>2021-04-20T12:20:29.000Z</time>
      </trkpt>
      <trkpt lat="47.24946" lon="-1.55458">
        <ele>76</ele>
        <time>2021-04-20T12:20:31.000Z</time>
      </trkpt>
      <trkpt lat="47.24938" lon="-1.55465">
        <ele>76</ele>
        <time>2021-04-20T12:20:33.000Z</time>
      </trkpt>
      <trkpt lat="47.24929" lon="-1.55469">
        <ele>76</ele>
        <time>2021-04-20T12:20:35.000Z</time>
      </trkpt>
      <trkpt lat="47.24918" lon="-1.55469">
        <ele>76</ele>
        <time>2021-04-20T12:20:37.000Z</time>
      </trkpt>
      <trkpt lat="47.24907" lon="-1.55471">
        <ele>75</ele>
        <time>2021-04-20T12:20:39.000Z</time>
      </trkpt>
      <trkpt lat="47.24894" lon="-1.55476">
        <ele>76</ele>
        <time>2021-04-20T12:20:41.000Z</time>
      </trkpt>
      <trkpt lat="47.24881" lon="-1.55482">
        <ele>75</ele>
        <time>2021-04-20T12:20:43.000Z</time>
      </trkpt>
      <trkpt lat="47.24867" lon="-1.55488">
        <ele>75</ele>
        <time>2021-04-20T12:20:45.000Z</time>
      </trkpt>
      <trkpt lat="47.24853" lon="-1.55494">
        <ele>75</ele>
        <time>2021-04-20T12:20:47.000Z</time>
      </trkpt>
      <trkpt lat="47.24836" lon="-1.55499">
        <ele>75</ele>
        <time>2021-04-20T12:20:49.000Z</time>
      </trkpt>
      <trkpt lat="47.24827" lon="-1.55504">
        <ele>73</ele>
        <time>2021-04-20T12:20:50.000Z</time>
      </trkpt>
      <trkpt lat="47.24817" lon="-1.55506">
        <ele>73</ele>
        <time>2021-04-20T12:20:51.000Z</time>
      </trkpt>
      <trkpt lat="47.24808" lon="-1.55509">
        <ele>72</ele>
        <time>2021-04-20T12:20:52.000Z</time>
      </trkpt>
      <trkpt lat="47.24799" lon="-1.55512">
        <ele>71</ele>
        <time>2021-04-20T12:20:53.000Z</time>
      </trkpt>
      <trkpt lat="47.24789" lon="-1.55515">
        <ele>70</ele>
        <time>2021-04-20T12:20:54.000Z</time>
      </trkpt>
      <trkpt lat="47.2478" lon="-1.55519">
        <ele>70</ele>
        <time>2021-04-20T12:20:55.000Z</time>
      </trkpt>
      <trkpt lat="47.2477" lon="-1.55522">
        <ele>69</ele>
        <time>2021-04-20T12:20:56.000Z</time>
      </trkpt>
      <trkpt lat="47.24761" lon="-1.55526">
        <ele>69</ele>
        <time>2021-04-20T12:20:57.000Z</time>
      </trkpt>
      <trkpt lat="47.24751" lon="-1.5553">
        <ele>67</ele>
        <time>2021-04-20T12:20:58.000Z</time>
      </trkpt>
      <trkpt lat="47.24741" lon="-1.55534">
        <ele>66</ele>
        <time>2021-04-20T12:20:59.000Z</time>
      </trkpt>
      <trkpt lat="47.24732" lon="-1.55538">
        <ele>65</ele>
        <time>2021-04-20T12:21:00.000Z</time>
      </trkpt>
      <trkpt lat="47.24722" lon="-1.55541">
        <ele>64</ele>
        <time>2021-04-20T12:21:01.000Z</time>
      </trkpt>
      <trkpt lat="47.24712" lon="-1.55544">
        <ele>63</ele>
        <time>2021-04-20T12:21:02.000Z</time>
      </trkpt>
      <trkpt lat="47.24702" lon="-1.55547">
        <ele>62</ele>
        <time>2021-04-20T12:21:03.000Z</time>
      </trkpt>
      <trkpt lat="47.24693" lon="-1.5555">
        <ele>62</ele>
        <time>2021-04-20T12:21:04.000Z</time>
      </trkpt>
      <trkpt lat="47.24683" lon="-1.55553">
        <ele>61</ele>
        <time>2021-04-20T12:21:05.000Z</time>
      </trkpt>
      <trkpt lat="47.24673" lon="-1.55554">
        <ele>61</ele>
        <time>2021-04-20T12:21:06.000Z</time>
      </trkpt>
      <trkpt lat="47.24663" lon="-1.55556">
        <ele>60</ele>
        <time>2021-04-20T12:21:07.000Z</time>
      </trkpt>
      <trkpt lat="47.24653" lon="-1.55557">
        <ele>60</ele>
        <time>2021-04-20T12:21:08.000Z</time>
      </trkpt>
      <trkpt lat="47.24644" lon="-1.55558">
        <ele>60</ele>
        <time>2021-04-20T12:21:09.000Z</time>
      </trkpt>
      <trkpt lat="47.24634" lon="-1.55558">
        <ele>60</ele>
        <time>2021-04-20T12:21:10.000Z</time>
      </trkpt>
      <trkpt lat="47.24625" lon="-1.55558">
        <ele>59</ele>
        <time>2021-04-20T12:21:11.000Z</time>
      </trkpt>
      <trkpt lat="47.24608" lon="-1.55561">
        <ele>59</ele>
        <time>2021-04-20T12:21:13.000Z</time>
      </trkpt>
      <trkpt lat="47.24594" lon="-1.55567">
        <ele>59</ele>
        <time>2021-04-20T12:21:15.000Z</time>
      </trkpt>
      <trkpt lat="47.24581" lon="-1.55573">
        <ele>58</ele>
        <time>2021-04-20T12:21:17.000Z</time>
      </trkpt>
      <trkpt lat="47.24569" lon="-1.5558">
        <ele>59</ele>
        <time>2021-04-20T12:21:19.000Z</time>
      </trkpt>
      <trkpt lat="47.24557" lon="-1.55588">
        <ele>59</ele>
        <time>2021-04-20T12:21:21.000Z</time>
      </trkpt>
      <trkpt lat="47.24546" lon="-1.55598">
        <ele>59</ele>
        <time>2021-04-20T12:21:23.000Z</time>
      </trkpt>
      <trkpt lat="47.24534" lon="-1.55605">
        <ele>59</ele>
        <time>2021-04-20T12:21:25.000Z</time>
      </trkpt>
      <trkpt lat="47.24523" lon="-1.55612">
        <ele>59</ele>
        <time>2021-04-20T12:21:27.000Z</time>
      </trkpt>
      <trkpt lat="47.24511" lon="-1.55619">
        <ele>59</ele>
        <time>2021-04-20T12:21:29.000Z</time>
      </trkpt>
      <trkpt lat="47.245" lon="-1.55624">
        <ele>59</ele>
        <time>2021-04-20T12:21:31.000Z</time>
      </trkpt>
      <trkpt lat="47.24489" lon="-1.55629">
        <ele>60</ele>
        <time>2021-04-20T12:21:33.000Z</time>
      </trkpt>
      <trkpt lat="47.24477" lon="-1.55634">
        <ele>60</ele>
        <time>2021-04-20T12:21:35.000Z</time>
      </trkpt>
      <trkpt lat="47.24465" lon="-1.55639">
        <ele>59</ele>
        <time>2021-04-20T12:21:37.000Z</time>
      </trkpt>
      <trkpt lat="47.24453" lon="-1.55643">
        <ele>58</ele>
        <time>2021-04-20T12:21:39.000Z</time>
      </trkpt>
      <trkpt lat="47.2444" lon="-1.55645">
        <ele>58</ele>
        <time>2021-04-20T12:21:41.000Z</time>
      </trkpt>
      <trkpt lat="47.24427" lon="-1.55647">
        <ele>57</ele>
        <time>2021-04-20T12:21:43.000Z</time>
      </trkpt>
      <trkpt lat="47.24414" lon="-1.55648">
        <ele>57</ele>
        <time>2021-04-20T12:21:45.000Z</time>
      </trkpt>
      <trkpt lat="47.24401" lon="-1.55649">
        <ele>57</ele>
        <time>2021-04-20T12:21:47.000Z</time>
      </trkpt>
      <trkpt lat="47.24387" lon="-1.55651">
        <ele>57</ele>
        <time>2021-04-20T12:21:49.000Z</time>
      </trkpt>
      <trkpt lat="47.24373" lon="-1.55659">
        <ele>57</ele>
        <time>2021-04-20T12:21:51.000Z</time>
      </trkpt>
      <trkpt lat="47.2436" lon="-1.55673">
        <ele>57</ele>
        <time>2021-04-20T12:21:53.000Z</time>
      </trkpt>
      <trkpt lat="47.24345" lon="-1.55675">
        <ele>57</ele>
        <time>2021-04-20T12:21:55.000Z</time>
      </trkpt>
      <trkpt lat="47.2433" lon="-1.55667">
        <ele>55</ele>
        <time>2021-04-20T12:21:57.000Z</time>
      </trkpt>
      <trkpt lat="47.24316" lon="-1.5566">
        <ele>55</ele>
        <time>2021-04-20T12:21:59.000Z</time>
      </trkpt>
      <trkpt lat="47.24302" lon="-1.55656">
        <ele>54</ele>
        <time>2021-04-20T12:22:01.000Z</time>
      </trkpt>
      <trkpt lat="47.24287" lon="-1.55655">
        <ele>52</ele>
        <time>2021-04-20T12:22:03.000Z</time>
      </trkpt>
      <trkpt lat="47.24273" lon="-1.55657">
        <ele>52</ele>
        <time>2021-04-20T12:22:05.000Z</time>
      </trkpt>
      <trkpt lat="47.24259" lon="-1.55658">
        <ele>52</ele>
        <time>2021-04-20T12:22:07.000Z</time>
      </trkpt>
      <trkpt lat="47.24246" lon="-1.5566">
        <ele>51</ele>
        <time>2021-04-20T12:22:09.000Z</time>
      </trkpt>
      <trkpt lat="47.24237" lon="-1.55664">
        <ele>51</ele>
        <time>2021-04-20T12:22:11.000Z</time>
      </trkpt>
      <trkpt lat="47.24232" lon="-1.55679">
        <ele>51</ele>
        <time>2021-04-20T12:22:15.000Z</time>
      </trkpt>
      <trkpt lat="47.24234" lon="-1.55693">
        <ele>51</ele>
        <time>2021-04-20T12:22:18.000Z</time>
      </trkpt>
      <trkpt lat="47.24238" lon="-1.55707">
        <ele>50</ele>
        <time>2021-04-20T12:22:22.000Z</time>
      </trkpt>
      <trkpt lat="47.24238" lon="-1.55725">
        <ele>49</ele>
        <time>2021-04-20T12:22:27.000Z</time>
      </trkpt>
      <trkpt lat="47.24242" lon="-1.55742">
        <ele>49</ele>
        <time>2021-04-20T12:22:30.000Z</time>
      </trkpt>
      <trkpt lat="47.24244" lon="-1.5576">
        <ele>49</ele>
        <time>2021-04-20T12:22:33.000Z</time>
      </trkpt>
      <trkpt lat="47.24244" lon="-1.5578">
        <ele>49</ele>
        <time>2021-04-20T12:22:36.000Z</time>
      </trkpt>
      <trkpt lat="47.24245" lon="-1.55797">
        <ele>49</ele>
        <time>2021-04-20T12:22:38.000Z</time>
      </trkpt>
      <trkpt lat="47.24247" lon="-1.55817">
        <ele>49</ele>
        <time>2021-04-20T12:22:40.000Z</time>
      </trkpt>
      <trkpt lat="47.24249" lon="-1.55837">
        <ele>49</ele>
        <time>2021-04-20T12:22:42.000Z</time>
      </trkpt>
      <trkpt lat="47.2425" lon="-1.55856">
        <ele>49</ele>
        <time>2021-04-20T12:22:44.000Z</time>
      </trkpt>
      <trkpt lat="47.24251" lon="-1.55875">
        <ele>48</ele>
        <time>2021-04-20T12:22:46.000Z</time>
      </trkpt>
      <trkpt lat="47.24252" lon="-1.55893">
        <ele>48</ele>
        <time>2021-04-20T12:22:48.000Z</time>
      </trkpt>
      <trkpt lat="47.24254" lon="-1.5591">
        <ele>47</ele>
        <time>2021-04-20T12:22:50.000Z</time>
      </trkpt>
      <trkpt lat="47.24256" lon="-1.55926">
        <ele>47</ele>
        <time>2021-04-20T12:22:52.000Z</time>
      </trkpt>
      <trkpt lat="47.24258" lon="-1.55941">
        <ele>47</ele>
        <time>2021-04-20T12:22:54.000Z</time>
      </trkpt>
      <trkpt lat="47.24259" lon="-1.55957">
        <ele>47</ele>
        <time>2021-04-20T12:22:56.000Z</time>
      </trkpt>
      <trkpt lat="47.2426" lon="-1.55973">
        <ele>47</ele>
        <time>2021-04-20T12:22:58.000Z</time>
      </trkpt>
      <trkpt lat="47.24263" lon="-1.5599">
        <ele>47</ele>
        <time>2021-04-20T12:23:00.000Z</time>
      </trkpt>
      <trkpt lat="47.24267" lon="-1.56005">
        <ele>48</ele>
        <time>2021-04-20T12:23:02.000Z</time>
      </trkpt>
      <trkpt lat="47.2427" lon="-1.56019">
        <ele>47</ele>
        <time>2021-04-20T12:23:04.000Z</time>
      </trkpt>
      <trkpt lat="47.24274" lon="-1.56034">
        <ele>47</ele>
        <time>2021-04-20T12:23:07.000Z</time>
      </trkpt>
      <trkpt lat="47.24271" lon="-1.5605">
        <ele>47</ele>
        <time>2021-04-20T12:23:17.000Z</time>
      </trkpt>
      <trkpt lat="47.24274" lon="-1.56065">
        <ele>47</ele>
        <time>2021-04-20T12:23:20.000Z</time>
      </trkpt>
      <trkpt lat="47.2428" lon="-1.56081">
        <ele>47</ele>
        <time>2021-04-20T12:23:23.000Z</time>
      </trkpt>
      <trkpt lat="47.24287" lon="-1.56098">
        <ele>46</ele>
        <time>2021-04-20T12:23:26.000Z</time>
      </trkpt>
      <trkpt lat="47.24295" lon="-1.56112">
        <ele>47</ele>
        <time>2021-04-20T12:23:29.000Z</time>
      </trkpt>
      <trkpt lat="47.24303" lon="-1.56124">
        <ele>47</ele>
        <time>2021-04-20T12:23:32.000Z</time>
      </trkpt>
      <trkpt lat="47.24311" lon="-1.56134">
        <ele>47</ele>
        <time>2021-04-20T12:23:34.000Z</time>
      </trkpt>
      <trkpt lat="47.2432" lon="-1.56144">
        <ele>47</ele>
        <time>2021-04-20T12:23:36.000Z</time>
      </trkpt>
      <trkpt lat="47.24326" lon="-1.56155">
        <ele>47</ele>
        <time>2021-04-20T12:23:38.000Z</time>
      </trkpt>
      <trkpt lat="47.24335" lon="-1.5617">
        <ele>48</ele>
        <time>2021-04-20T12:23:41.000Z</time>
      </trkpt>
      <trkpt lat="47.24344" lon="-1.56182">
        <ele>48</ele>
        <time>2021-04-20T12:23:43.000Z</time>
      </trkpt>
      <trkpt lat="47.24353" lon="-1.56195">
        <ele>47</ele>
        <time>2021-04-20T12:23:45.000Z</time>
      </trkpt>
      <trkpt lat="47.24361" lon="-1.56208">
        <ele>47</ele>
        <time>2021-04-20T12:23:47.000Z</time>
      </trkpt>
      <trkpt lat="47.24367" lon="-1.56224">
        <ele>46</ele>
        <time>2021-04-20T12:23:49.000Z</time>
      </trkpt>
      <trkpt lat="47.24373" lon="-1.56241">
        <ele>46</ele>
        <time>2021-04-20T12:23:51.000Z</time>
      </trkpt>
      <trkpt lat="47.24377" lon="-1.56258">
        <ele>46</ele>
        <time>2021-04-20T12:23:53.000Z</time>
      </trkpt>
      <trkpt lat="47.24378" lon="-1.56275">
        <ele>44</ele>
        <time>2021-04-20T12:23:55.000Z</time>
      </trkpt>
      <trkpt lat="47.24377" lon="-1.56291">
        <ele>45</ele>
        <time>2021-04-20T12:23:59.000Z</time>
      </trkpt>
      <trkpt lat="47.24374" lon="-1.56307">
        <ele>45</ele>
        <time>2021-04-20T12:24:03.000Z</time>
      </trkpt>
      <trkpt lat="47.24374" lon="-1.56324">
        <ele>46</ele>
        <time>2021-04-20T12:24:08.000Z</time>
      </trkpt>
      <trkpt lat="47.24374" lon="-1.56342">
        <ele>46</ele>
        <time>2021-04-20T12:24:11.000Z</time>
      </trkpt>
      <trkpt lat="47.24374" lon="-1.56358">
        <ele>47</ele>
        <time>2021-04-20T12:24:13.000Z</time>
      </trkpt>
      <trkpt lat="47.24375" lon="-1.56373">
        <ele>47</ele>
        <time>2021-04-20T12:24:15.000Z</time>
      </trkpt>
      <trkpt lat="47.24375" lon="-1.56387">
        <ele>48</ele>
        <time>2021-04-20T12:24:17.000Z</time>
      </trkpt>
      <trkpt lat="47.24373" lon="-1.56403">
        <ele>48</ele>
        <time>2021-04-20T12:24:19.000Z</time>
      </trkpt>
      <trkpt lat="47.24369" lon="-1.56418">
        <ele>50</ele>
        <time>2021-04-20T12:24:21.000Z</time>
      </trkpt>
      <trkpt lat="47.24364" lon="-1.56432">
        <ele>52</ele>
        <time>2021-04-20T12:24:23.000Z</time>
      </trkpt>
      <trkpt lat="47.2436" lon="-1.5645">
        <ele>52</ele>
        <time>2021-04-20T12:24:26.000Z</time>
      </trkpt>
      <trkpt lat="47.24358" lon="-1.56465">
        <ele>52</ele>
        <time>2021-04-20T12:24:28.000Z</time>
      </trkpt>
      <trkpt lat="47.24359" lon="-1.5648">
        <ele>52</ele>
        <time>2021-04-20T12:24:30.000Z</time>
      </trkpt>
      <trkpt lat="47.24359" lon="-1.56497">
        <ele>52</ele>
        <time>2021-04-20T12:24:33.000Z</time>
      </trkpt>
      <trkpt lat="47.24352" lon="-1.56512">
        <ele>52</ele>
        <time>2021-04-20T12:24:36.000Z</time>
      </trkpt>
      <trkpt lat="47.24344" lon="-1.56526">
        <ele>52</ele>
        <time>2021-04-20T12:24:38.000Z</time>
      </trkpt>
      <trkpt lat="47.24339" lon="-1.56542">
        <ele>52</ele>
        <time>2021-04-20T12:24:40.000Z</time>
      </trkpt>
      <trkpt lat="47.2434" lon="-1.5656">
        <ele>53</ele>
        <time>2021-04-20T12:24:42.000Z</time>
      </trkpt>
      <trkpt lat="47.24341" lon="-1.5658">
        <ele>53</ele>
        <time>2021-04-20T12:24:44.000Z</time>
      </trkpt>
      <trkpt lat="47.24343" lon="-1.56598">
        <ele>54</ele>
        <time>2021-04-20T12:24:46.000Z</time>
      </trkpt>
      <trkpt lat="47.24344" lon="-1.56615">
        <ele>54</ele>
        <time>2021-04-20T12:24:48.000Z</time>
      </trkpt>
      <trkpt lat="47.24346" lon="-1.56633">
        <ele>55</ele>
        <time>2021-04-20T12:24:50.000Z</time>
      </trkpt>
      <trkpt lat="47.24346" lon="-1.56649">
        <ele>55</ele>
        <time>2021-04-20T12:24:52.000Z</time>
      </trkpt>
      <trkpt lat="47.24347" lon="-1.56668">
        <ele>54</ele>
        <time>2021-04-20T12:24:54.000Z</time>
      </trkpt>
      <trkpt lat="47.24349" lon="-1.56685">
        <ele>55</ele>
        <time>2021-04-20T12:24:56.000Z</time>
      </trkpt>
      <trkpt lat="47.24351" lon="-1.56704">
        <ele>55</ele>
        <time>2021-04-20T12:24:58.000Z</time>
      </trkpt>
      <trkpt lat="47.24353" lon="-1.56723">
        <ele>55</ele>
        <time>2021-04-20T12:25:00.000Z</time>
      </trkpt>
      <trkpt lat="47.24355" lon="-1.56743">
        <ele>56</ele>
        <time>2021-04-20T12:25:02.000Z</time>
      </trkpt>
      <trkpt lat="47.24358" lon="-1.56763">
        <ele>56</ele>
        <time>2021-04-20T12:25:04.000Z</time>
      </trkpt>
      <trkpt lat="47.24359" lon="-1.56783">
        <ele>56</ele>
        <time>2021-04-20T12:25:06.000Z</time>
      </trkpt>
      <trkpt lat="47.24361" lon="-1.56803">
        <ele>56</ele>
        <time>2021-04-20T12:25:08.000Z</time>
      </trkpt>
      <trkpt lat="47.24366" lon="-1.56821">
        <ele>55</ele>
        <time>2021-04-20T12:25:10.000Z</time>
      </trkpt>
      <trkpt lat="47.24371" lon="-1.5684">
        <ele>55</ele>
        <time>2021-04-20T12:25:12.000Z</time>
      </trkpt>
      <trkpt lat="47.24375" lon="-1.56858">
        <ele>55</ele>
        <time>2021-04-20T12:25:14.000Z</time>
      </trkpt>
      <trkpt lat="47.2438" lon="-1.56876">
        <ele>54</ele>
        <time>2021-04-20T12:25:16.000Z</time>
      </trkpt>
      <trkpt lat="47.24386" lon="-1.56894">
        <ele>54</ele>
        <time>2021-04-20T12:25:18.000Z</time>
      </trkpt>
      <trkpt lat="47.24394" lon="-1.56913">
        <ele>53</ele>
        <time>2021-04-20T12:25:20.000Z</time>
      </trkpt>
      <trkpt lat="47.24402" lon="-1.56929">
        <ele>52</ele>
        <time>2021-04-20T12:25:22.000Z</time>
      </trkpt>
      <trkpt lat="47.24413" lon="-1.56946">
        <ele>52</ele>
        <time>2021-04-20T12:25:24.000Z</time>
      </trkpt>
      <trkpt lat="47.24422" lon="-1.56962">
        <ele>51</ele>
        <time>2021-04-20T12:25:26.000Z</time>
      </trkpt>
      <trkpt lat="47.24431" lon="-1.56978">
        <ele>51</ele>
        <time>2021-04-20T12:25:28.000Z</time>
      </trkpt>
      <trkpt lat="47.24439" lon="-1.56994">
        <ele>50</ele>
        <time>2021-04-20T12:25:30.000Z</time>
      </trkpt>
      <trkpt lat="47.24448" lon="-1.57009">
        <ele>51</ele>
        <time>2021-04-20T12:25:32.000Z</time>
      </trkpt>
      <trkpt lat="47.24457" lon="-1.57024">
        <ele>51</ele>
        <time>2021-04-20T12:25:34.000Z</time>
      </trkpt>
      <trkpt lat="47.24466" lon="-1.57037">
        <ele>51</ele>
        <time>2021-04-20T12:25:36.000Z</time>
      </trkpt>
      <trkpt lat="47.24473" lon="-1.57051">
        <ele>51</ele>
        <time>2021-04-20T12:25:38.000Z</time>
      </trkpt>
      <trkpt lat="47.24481" lon="-1.57064">
        <ele>51</ele>
        <time>2021-04-20T12:25:40.000Z</time>
      </trkpt>
      <trkpt lat="47.24488" lon="-1.57079">
        <ele>51</ele>
        <time>2021-04-20T12:25:43.000Z</time>
      </trkpt>
      <trkpt lat="47.24491" lon="-1.57095">
        <ele>51</ele>
        <time>2021-04-20T12:25:46.000Z</time>
      </trkpt>
      <trkpt lat="47.24494" lon="-1.57112">
        <ele>51</ele>
        <time>2021-04-20T12:25:49.000Z</time>
      </trkpt>
      <trkpt lat="47.24494" lon="-1.57127">
        <ele>50</ele>
        <time>2021-04-20T12:25:51.000Z</time>
      </trkpt>
      <trkpt lat="47.24491" lon="-1.57146">
        <ele>50</ele>
        <time>2021-04-20T12:25:53.000Z</time>
      </trkpt>
      <trkpt lat="47.24489" lon="-1.57166">
        <ele>50</ele>
        <time>2021-04-20T12:25:55.000Z</time>
      </trkpt>
      <trkpt lat="47.24486" lon="-1.57186">
        <ele>49</ele>
        <time>2021-04-20T12:25:57.000Z</time>
      </trkpt>
      <trkpt lat="47.24483" lon="-1.57205">
        <ele>50</ele>
        <time>2021-04-20T12:25:59.000Z</time>
      </trkpt>
      <trkpt lat="47.24481" lon="-1.57224">
        <ele>49</ele>
        <time>2021-04-20T12:26:01.000Z</time>
      </trkpt>
      <trkpt lat="47.24481" lon="-1.57242">
        <ele>49</ele>
        <time>2021-04-20T12:26:03.000Z</time>
      </trkpt>
      <trkpt lat="47.24482" lon="-1.57262">
        <ele>49</ele>
        <time>2021-04-20T12:26:05.000Z</time>
      </trkpt>
      <trkpt lat="47.24484" lon="-1.57281">
        <ele>49</ele>
        <time>2021-04-20T12:26:07.000Z</time>
      </trkpt>
      <trkpt lat="47.24489" lon="-1.573">
        <ele>48</ele>
        <time>2021-04-20T12:26:09.000Z</time>
      </trkpt>
      <trkpt lat="47.24497" lon="-1.57315">
        <ele>48</ele>
        <time>2021-04-20T12:26:11.000Z</time>
      </trkpt>
      <trkpt lat="47.24506" lon="-1.57329">
        <ele>48</ele>
        <time>2021-04-20T12:26:13.000Z</time>
      </trkpt>
      <trkpt lat="47.24514" lon="-1.57346">
        <ele>49</ele>
        <time>2021-04-20T12:26:15.000Z</time>
      </trkpt>
      <trkpt lat="47.24518" lon="-1.57365">
        <ele>48</ele>
        <time>2021-04-20T12:26:17.000Z</time>
      </trkpt>
      <trkpt lat="47.24518" lon="-1.57385">
        <ele>49</ele>
        <time>2021-04-20T12:26:19.000Z</time>
      </trkpt>
      <trkpt lat="47.24518" lon="-1.57403">
        <ele>49</ele>
        <time>2021-04-20T12:26:21.000Z</time>
      </trkpt>
      <trkpt lat="47.24517" lon="-1.57422">
        <ele>49</ele>
        <time>2021-04-20T12:26:23.000Z</time>
      </trkpt>
      <trkpt lat="47.24518" lon="-1.57441">
        <ele>49</ele>
        <time>2021-04-20T12:26:25.000Z</time>
      </trkpt>
      <trkpt lat="47.24522" lon="-1.57458">
        <ele>48</ele>
        <time>2021-04-20T12:26:27.000Z</time>
      </trkpt>
      <trkpt lat="47.24527" lon="-1.57476">
        <ele>48</ele>
        <time>2021-04-20T12:26:29.000Z</time>
      </trkpt>
      <trkpt lat="47.24532" lon="-1.57492">
        <ele>48</ele>
        <time>2021-04-20T12:26:31.000Z</time>
      </trkpt>
      <trkpt lat="47.24538" lon="-1.57507">
        <ele>48</ele>
        <time>2021-04-20T12:26:33.000Z</time>
      </trkpt>
      <trkpt lat="47.24547" lon="-1.57518">
        <ele>48</ele>
        <time>2021-04-20T12:26:35.000Z</time>
      </trkpt>
      <trkpt lat="47.24559" lon="-1.57525">
        <ele>48</ele>
        <time>2021-04-20T12:26:37.000Z</time>
      </trkpt>
      <trkpt lat="47.24571" lon="-1.57531">
        <ele>48</ele>
        <time>2021-04-20T12:26:39.000Z</time>
      </trkpt>
      <trkpt lat="47.24583" lon="-1.5754">
        <ele>49</ele>
        <time>2021-04-20T12:26:41.000Z</time>
      </trkpt>
      <trkpt lat="47.24594" lon="-1.57554">
        <ele>49</ele>
        <time>2021-04-20T12:26:43.000Z</time>
      </trkpt>
      <trkpt lat="47.24603" lon="-1.57568">
        <ele>48</ele>
        <time>2021-04-20T12:26:45.000Z</time>
      </trkpt>
      <trkpt lat="47.24611" lon="-1.57578">
        <ele>48</ele>
        <time>2021-04-20T12:26:47.000Z</time>
      </trkpt>
      <trkpt lat="47.24621" lon="-1.57588">
        <ele>47</ele>
        <time>2021-04-20T12:26:49.000Z</time>
      </trkpt>
      <trkpt lat="47.24631" lon="-1.57599">
        <ele>46</ele>
        <time>2021-04-20T12:26:51.000Z</time>
      </trkpt>
      <trkpt lat="47.24641" lon="-1.57612">
        <ele>46</ele>
        <time>2021-04-20T12:26:53.000Z</time>
      </trkpt>
      <trkpt lat="47.24651" lon="-1.57623">
        <ele>47</ele>
        <time>2021-04-20T12:26:55.000Z</time>
      </trkpt>
      <trkpt lat="47.24659" lon="-1.57632">
        <ele>47</ele>
        <time>2021-04-20T12:26:57.000Z</time>
      </trkpt>
      <trkpt lat="47.2467" lon="-1.57635">
        <ele>47</ele>
        <time>2021-04-20T12:27:01.000Z</time>
      </trkpt>
      <trkpt lat="47.24679" lon="-1.57632">
        <ele>48</ele>
        <time>2021-04-20T12:27:06.000Z</time>
      </trkpt>
      <trkpt lat="47.24686" lon="-1.57644">
        <ele>48</ele>
        <time>2021-04-20T12:27:08.000Z</time>
      </trkpt>
      <trkpt lat="47.24694" lon="-1.57657">
        <ele>47</ele>
        <time>2021-04-20T12:27:10.000Z</time>
      </trkpt>
      <trkpt lat="47.24702" lon="-1.5767">
        <ele>48</ele>
        <time>2021-04-20T12:27:12.000Z</time>
      </trkpt>
      <trkpt lat="47.24709" lon="-1.57682">
        <ele>47</ele>
        <time>2021-04-20T12:27:14.000Z</time>
      </trkpt>
      <trkpt lat="47.24716" lon="-1.57693">
        <ele>47</ele>
        <time>2021-04-20T12:27:16.000Z</time>
      </trkpt>
      <trkpt lat="47.24725" lon="-1.57706">
        <ele>49</ele>
        <time>2021-04-20T12:27:19.000Z</time>
      </trkpt>
      <trkpt lat="47.24733" lon="-1.57713">
        <ele>49</ele>
        <time>2021-04-20T12:27:21.000Z</time>
      </trkpt>
      <trkpt lat="47.24741" lon="-1.57721">
        <ele>50</ele>
        <time>2021-04-20T12:27:23.000Z</time>
      </trkpt>
      <trkpt lat="47.24749" lon="-1.57732">
        <ele>51</ele>
        <time>2021-04-20T12:27:26.000Z</time>
      </trkpt>
      <trkpt lat="47.24759" lon="-1.57737">
        <ele>51</ele>
        <time>2021-04-20T12:27:32.000Z</time>
      </trkpt>
      <trkpt lat="47.24767" lon="-1.57734">
        <ele>52</ele>
        <time>2021-04-20T12:27:38.000Z</time>
      </trkpt>
      <trkpt lat="47.24776" lon="-1.57739">
        <ele>54</ele>
        <time>2021-04-20T12:27:42.000Z</time>
      </trkpt>
      <trkpt lat="47.24786" lon="-1.57741">
        <ele>54</ele>
        <time>2021-04-20T12:27:51.000Z</time>
      </trkpt>
      <trkpt lat="47.24785" lon="-1.57755">
        <ele>54</ele>
        <time>2021-04-20T12:27:54.000Z</time>
      </trkpt>
      <trkpt lat="47.24787" lon="-1.5777">
        <ele>53</ele>
        <time>2021-04-20T12:27:56.000Z</time>
      </trkpt>
      <trkpt lat="47.24798" lon="-1.57783">
        <ele>53</ele>
        <time>2021-04-20T12:27:58.000Z</time>
      </trkpt>
      <trkpt lat="47.24808" lon="-1.57797">
        <ele>53</ele>
        <time>2021-04-20T12:28:00.000Z</time>
      </trkpt>
      <trkpt lat="47.24818" lon="-1.57812">
        <ele>54</ele>
        <time>2021-04-20T12:28:02.000Z</time>
      </trkpt>
      <trkpt lat="47.24828" lon="-1.57826">
        <ele>53</ele>
        <time>2021-04-20T12:28:04.000Z</time>
      </trkpt>
      <trkpt lat="47.24838" lon="-1.57839">
        <ele>53</ele>
        <time>2021-04-20T12:28:06.000Z</time>
      </trkpt>
      <trkpt lat="47.24849" lon="-1.57852">
        <ele>53</ele>
        <time>2021-04-20T12:28:08.000Z</time>
      </trkpt>
      <trkpt lat="47.24859" lon="-1.57865">
        <ele>53</ele>
        <time>2021-04-20T12:28:10.000Z</time>
      </trkpt>
      <trkpt lat="47.24867" lon="-1.57876">
        <ele>53</ele>
        <time>2021-04-20T12:28:12.000Z</time>
      </trkpt>
      <trkpt lat="47.24874" lon="-1.57886">
        <ele>53</ele>
        <time>2021-04-20T12:28:14.000Z</time>
      </trkpt>
      <trkpt lat="47.2488" lon="-1.57897">
        <ele>53</ele>
        <time>2021-04-20T12:28:16.000Z</time>
      </trkpt>
      <trkpt lat="47.24889" lon="-1.5791">
        <ele>53</ele>
        <time>2021-04-20T12:28:19.000Z</time>
      </trkpt>
      <trkpt lat="47.24898" lon="-1.57921">
        <ele>53</ele>
        <time>2021-04-20T12:28:22.000Z</time>
      </trkpt>
      <trkpt lat="47.24906" lon="-1.57914">
        <ele>52</ele>
        <time>2021-04-20T12:28:29.000Z</time>
      </trkpt>
      <trkpt lat="47.24915" lon="-1.57904">
        <ele>51</ele>
        <time>2021-04-20T12:28:33.000Z</time>
      </trkpt>
      <trkpt lat="47.24922" lon="-1.57895">
        <ele>50</ele>
        <time>2021-04-20T12:28:38.000Z</time>
      </trkpt>
      <trkpt lat="47.24928" lon="-1.57885">
        <ele>50</ele>
        <time>2021-04-20T12:28:41.000Z</time>
      </trkpt>
      <trkpt lat="47.24937" lon="-1.57881">
        <ele>49</ele>
        <time>2021-04-20T12:28:43.000Z</time>
      </trkpt>
      <trkpt lat="47.24949" lon="-1.57895">
        <ele>48</ele>
        <time>2021-04-20T12:28:46.000Z</time>
      </trkpt>
      <trkpt lat="47.24955" lon="-1.5791">
        <ele>48</ele>
        <time>2021-04-20T12:28:48.000Z</time>
      </trkpt>
      <trkpt lat="47.24956" lon="-1.57926">
        <ele>48</ele>
        <time>2021-04-20T12:28:50.000Z</time>
      </trkpt>
      <trkpt lat="47.24964" lon="-1.57939">
        <ele>48</ele>
        <time>2021-04-20T12:28:52.000Z</time>
      </trkpt>
      <trkpt lat="47.24975" lon="-1.57948">
        <ele>49</ele>
        <time>2021-04-20T12:28:54.000Z</time>
      </trkpt>
      <trkpt lat="47.24983" lon="-1.5796">
        <ele>49</ele>
        <time>2021-04-20T12:28:56.000Z</time>
      </trkpt>
      <trkpt lat="47.24991" lon="-1.57974">
        <ele>48</ele>
        <time>2021-04-20T12:28:58.000Z</time>
      </trkpt>
      <trkpt lat="47.24999" lon="-1.57989">
        <ele>49</ele>
        <time>2021-04-20T12:29:00.000Z</time>
      </trkpt>
      <trkpt lat="47.25008" lon="-1.58001">
        <ele>48</ele>
        <time>2021-04-20T12:29:02.000Z</time>
      </trkpt>
      <trkpt lat="47.2502" lon="-1.58012">
        <ele>48</ele>
        <time>2021-04-20T12:29:04.000Z</time>
      </trkpt>
      <trkpt lat="47.25034" lon="-1.58022">
        <ele>48</ele>
        <time>2021-04-20T12:29:06.000Z</time>
      </trkpt>
      <trkpt lat="47.25048" lon="-1.58029">
        <ele>48</ele>
        <time>2021-04-20T12:29:08.000Z</time>
      </trkpt>
      <trkpt lat="47.25061" lon="-1.58036">
        <ele>48</ele>
        <time>2021-04-20T12:29:10.000Z</time>
      </trkpt>
      <trkpt lat="47.25072" lon="-1.58046">
        <ele>48</ele>
        <time>2021-04-20T12:29:12.000Z</time>
      </trkpt>
      <trkpt lat="47.2508" lon="-1.58062">
        <ele>48</ele>
        <time>2021-04-20T12:29:14.000Z</time>
      </trkpt>
      <trkpt lat="47.25086" lon="-1.58079">
        <ele>47</ele>
        <time>2021-04-20T12:29:16.000Z</time>
      </trkpt>
      <trkpt lat="47.25087" lon="-1.58098">
        <ele>48</ele>
        <time>2021-04-20T12:29:18.000Z</time>
      </trkpt>
      <trkpt lat="47.25085" lon="-1.58113">
        <ele>50</ele>
        <time>2021-04-20T12:29:20.000Z</time>
      </trkpt>
      <trkpt lat="47.25083" lon="-1.58128">
        <ele>51</ele>
        <time>2021-04-20T12:29:22.000Z</time>
      </trkpt>
      <trkpt lat="47.25083" lon="-1.58145">
        <ele>51</ele>
        <time>2021-04-20T12:29:24.000Z</time>
      </trkpt>
      <trkpt lat="47.25087" lon="-1.58163">
        <ele>51</ele>
        <time>2021-04-20T12:29:26.000Z</time>
      </trkpt>
      <trkpt lat="47.2509" lon="-1.5818">
        <ele>51</ele>
        <time>2021-04-20T12:29:28.000Z</time>
      </trkpt>
      <trkpt lat="47.25097" lon="-1.58195">
        <ele>50</ele>
        <time>2021-04-20T12:29:30.000Z</time>
      </trkpt>
      <trkpt lat="47.25102" lon="-1.5821">
        <ele>50</ele>
        <time>2021-04-20T12:29:32.000Z</time>
      </trkpt>
      <trkpt lat="47.25105" lon="-1.58223">
        <ele>50</ele>
        <time>2021-04-20T12:29:34.000Z</time>
      </trkpt>
      <trkpt lat="47.25107" lon="-1.58244">
        <ele>50</ele>
        <time>2021-04-20T12:29:37.000Z</time>
      </trkpt>
      <trkpt lat="47.25107" lon="-1.58261">
        <ele>50</ele>
        <time>2021-04-20T12:29:39.000Z</time>
      </trkpt>
      <trkpt lat="47.25106" lon="-1.58278">
        <ele>49</ele>
        <time>2021-04-20T12:29:41.000Z</time>
      </trkpt>
      <trkpt lat="47.25105" lon="-1.58296">
        <ele>50</ele>
        <time>2021-04-20T12:29:43.000Z</time>
      </trkpt>
      <trkpt lat="47.25103" lon="-1.58313">
        <ele>49</ele>
        <time>2021-04-20T12:29:45.000Z</time>
      </trkpt>
      <trkpt lat="47.25102" lon="-1.5833">
        <ele>49</ele>
        <time>2021-04-20T12:29:47.000Z</time>
      </trkpt>
      <trkpt lat="47.251" lon="-1.58344">
        <ele>49</ele>
        <time>2021-04-20T12:29:49.000Z</time>
      </trkpt>
      <trkpt lat="47.25098" lon="-1.58358">
        <ele>49</ele>
        <time>2021-04-20T12:29:51.000Z</time>
      </trkpt>
      <trkpt lat="47.25098" lon="-1.58372">
        <ele>49</ele>
        <time>2021-04-20T12:29:53.000Z</time>
      </trkpt>
      <trkpt lat="47.25098" lon="-1.58387">
        <ele>49</ele>
        <time>2021-04-20T12:29:55.000Z</time>
      </trkpt>
      <trkpt lat="47.25099" lon="-1.584">
        <ele>49</ele>
        <time>2021-04-20T12:29:57.000Z</time>
      </trkpt>
      <trkpt lat="47.25101" lon="-1.58413">
        <ele>49</ele>
        <time>2021-04-20T12:29:59.000Z</time>
      </trkpt>
      <trkpt lat="47.25105" lon="-1.58428">
        <ele>49</ele>
        <time>2021-04-20T12:30:01.000Z</time>
      </trkpt>
      <trkpt lat="47.25108" lon="-1.58443">
        <ele>49</ele>
        <time>2021-04-20T12:30:03.000Z</time>
      </trkpt>
      <trkpt lat="47.25113" lon="-1.58459">
        <ele>49</ele>
        <time>2021-04-20T12:30:05.000Z</time>
      </trkpt>
      <trkpt lat="47.25118" lon="-1.58475">
        <ele>48</ele>
        <time>2021-04-20T12:30:07.000Z</time>
      </trkpt>
      <trkpt lat="47.25123" lon="-1.58491">
        <ele>48</ele>
        <time>2021-04-20T12:30:09.000Z</time>
      </trkpt>
      <trkpt lat="47.25131" lon="-1.58503">
        <ele>47</ele>
        <time>2021-04-20T12:30:11.000Z</time>
      </trkpt>
      <trkpt lat="47.25143" lon="-1.58513">
        <ele>48</ele>
        <time>2021-04-20T12:30:13.000Z</time>
      </trkpt>
      <trkpt lat="47.25153" lon="-1.58524">
        <ele>48</ele>
        <time>2021-04-20T12:30:15.000Z</time>
      </trkpt>
      <trkpt lat="47.25162" lon="-1.58533">
        <ele>48</ele>
        <time>2021-04-20T12:30:17.000Z</time>
      </trkpt>
      <trkpt lat="47.25172" lon="-1.58542">
        <ele>48</ele>
        <time>2021-04-20T12:30:19.000Z</time>
      </trkpt>
      <trkpt lat="47.2518" lon="-1.5855">
        <ele>48</ele>
        <time>2021-04-20T12:30:21.000Z</time>
      </trkpt>
      <trkpt lat="47.25189" lon="-1.58556">
        <ele>48</ele>
        <time>2021-04-20T12:30:23.000Z</time>
      </trkpt>
      <trkpt lat="47.25201" lon="-1.58558">
        <ele>48</ele>
        <time>2021-04-20T12:30:25.000Z</time>
      </trkpt>
      <trkpt lat="47.25211" lon="-1.58556">
        <ele>48</ele>
        <time>2021-04-20T12:30:27.000Z</time>
      </trkpt>
      <trkpt lat="47.2522" lon="-1.58551">
        <ele>49</ele>
        <time>2021-04-20T12:30:29.000Z</time>
      </trkpt>
      <trkpt lat="47.2523" lon="-1.58549">
        <ele>49</ele>
        <time>2021-04-20T12:30:31.000Z</time>
      </trkpt>
      <trkpt lat="47.2524" lon="-1.58548">
        <ele>49</ele>
        <time>2021-04-20T12:30:33.000Z</time>
      </trkpt>
      <trkpt lat="47.2525" lon="-1.58549">
        <ele>50</ele>
        <time>2021-04-20T12:30:35.000Z</time>
      </trkpt>
      <trkpt lat="47.25262" lon="-1.58552">
        <ele>50</ele>
        <time>2021-04-20T12:30:37.000Z</time>
      </trkpt>
      <trkpt lat="47.25273" lon="-1.58556">
        <ele>50</ele>
        <time>2021-04-20T12:30:39.000Z</time>
      </trkpt>
      <trkpt lat="47.25285" lon="-1.58562">
        <ele>49</ele>
        <time>2021-04-20T12:30:41.000Z</time>
      </trkpt>
      <trkpt lat="47.253" lon="-1.5857">
        <ele>50</ele>
        <time>2021-04-20T12:30:43.000Z</time>
      </trkpt>
      <trkpt lat="47.25312" lon="-1.5858">
        <ele>51</ele>
        <time>2021-04-20T12:30:45.000Z</time>
      </trkpt>
      <trkpt lat="47.2532" lon="-1.58596">
        <ele>50</ele>
        <time>2021-04-20T12:30:47.000Z</time>
      </trkpt>
      <trkpt lat="47.25322" lon="-1.58616">
        <ele>49</ele>
        <time>2021-04-20T12:30:49.000Z</time>
      </trkpt>
      <trkpt lat="47.25322" lon="-1.58634">
        <ele>49</ele>
        <time>2021-04-20T12:30:51.000Z</time>
      </trkpt>
      <trkpt lat="47.25321" lon="-1.58652">
        <ele>49</ele>
        <time>2021-04-20T12:30:53.000Z</time>
      </trkpt>
      <trkpt lat="47.25319" lon="-1.58671">
        <ele>49</ele>
        <time>2021-04-20T12:30:55.000Z</time>
      </trkpt>
      <trkpt lat="47.25317" lon="-1.58688">
        <ele>50</ele>
        <time>2021-04-20T12:30:57.000Z</time>
      </trkpt>
      <trkpt lat="47.25313" lon="-1.58705">
        <ele>49</ele>
        <time>2021-04-20T12:30:59.000Z</time>
      </trkpt>
      <trkpt lat="47.2531" lon="-1.58722">
        <ele>49</ele>
        <time>2021-04-20T12:31:01.000Z</time>
      </trkpt>
      <trkpt lat="47.25306" lon="-1.58738">
        <ele>49</ele>
        <time>2021-04-20T12:31:03.000Z</time>
      </trkpt>
      <trkpt lat="47.25302" lon="-1.58752">
        <ele>49</ele>
        <time>2021-04-20T12:31:05.000Z</time>
      </trkpt>
      <trkpt lat="47.25298" lon="-1.58767">
        <ele>49</ele>
        <time>2021-04-20T12:31:07.000Z</time>
      </trkpt>
      <trkpt lat="47.25296" lon="-1.58782">
        <ele>50</ele>
        <time>2021-04-20T12:31:09.000Z</time>
      </trkpt>
      <trkpt lat="47.25295" lon="-1.58796">
        <ele>49</ele>
        <time>2021-04-20T12:31:11.000Z</time>
      </trkpt>
      <trkpt lat="47.25294" lon="-1.58809">
        <ele>49</ele>
        <time>2021-04-20T12:31:13.000Z</time>
      </trkpt>
      <trkpt lat="47.25296" lon="-1.58823">
        <ele>49</ele>
        <time>2021-04-20T12:31:17.000Z</time>
      </trkpt>
      <trkpt lat="47.25297" lon="-1.58836">
        <ele>50</ele>
        <time>2021-04-20T12:31:38.000Z</time>
      </trkpt>
      <trkpt lat="47.25287" lon="-1.58836">
        <ele>50</ele>
        <time>2021-04-20T12:31:41.000Z</time>
      </trkpt>
      <trkpt lat="47.25275" lon="-1.58832">
        <ele>49</ele>
        <time>2021-04-20T12:31:44.000Z</time>
      </trkpt>
      <trkpt lat="47.25263" lon="-1.58827">
        <ele>50</ele>
        <time>2021-04-20T12:31:47.000Z</time>
      </trkpt>
      <trkpt lat="47.2525" lon="-1.58828">
        <ele>50</ele>
        <time>2021-04-20T12:31:50.000Z</time>
      </trkpt>
      <trkpt lat="47.25244" lon="-1.58845">
        <ele>51</ele>
        <time>2021-04-20T12:31:53.000Z</time>
      </trkpt>
      <trkpt lat="47.25235" lon="-1.58859">
        <ele>53</ele>
        <time>2021-04-20T12:31:56.000Z</time>
      </trkpt>
      <trkpt lat="47.25228" lon="-1.58873">
        <ele>54</ele>
        <time>2021-04-20T12:31:59.000Z</time>
      </trkpt>
      <trkpt lat="47.2523" lon="-1.58889">
        <ele>55</ele>
        <time>2021-04-20T12:32:03.000Z</time>
      </trkpt>
      <trkpt lat="47.25239" lon="-1.58898">
        <ele>55</ele>
        <time>2021-04-20T12:32:06.000Z</time>
      </trkpt>
      <trkpt lat="47.25247" lon="-1.58906">
        <ele>55</ele>
        <time>2021-04-20T12:32:08.000Z</time>
      </trkpt>
      <trkpt lat="47.25259" lon="-1.58923">
        <ele>55</ele>
        <time>2021-04-20T12:32:11.000Z</time>
      </trkpt>
      <trkpt lat="47.25271" lon="-1.58939">
        <ele>54</ele>
        <time>2021-04-20T12:32:13.000Z</time>
      </trkpt>
      <trkpt lat="47.25283" lon="-1.58951">
        <ele>54</ele>
        <time>2021-04-20T12:32:15.000Z</time>
      </trkpt>
      <trkpt lat="47.25293" lon="-1.58962">
        <ele>54</ele>
        <time>2021-04-20T12:32:17.000Z</time>
      </trkpt>
      <trkpt lat="47.25303" lon="-1.58973">
        <ele>55</ele>
        <time>2021-04-20T12:32:19.000Z</time>
      </trkpt>
      <trkpt lat="47.25311" lon="-1.58982">
        <ele>55</ele>
        <time>2021-04-20T12:32:21.000Z</time>
      </trkpt>
      <trkpt lat="47.2532" lon="-1.58993">
        <ele>55</ele>
        <time>2021-04-20T12:32:23.000Z</time>
      </trkpt>
      <trkpt lat="47.25329" lon="-1.59001">
        <ele>55</ele>
        <time>2021-04-20T12:32:25.000Z</time>
      </trkpt>
      <trkpt lat="47.25337" lon="-1.59012">
        <ele>55</ele>
        <time>2021-04-20T12:32:27.000Z</time>
      </trkpt>
      <trkpt lat="47.25342" lon="-1.59025">
        <ele>55</ele>
        <time>2021-04-20T12:32:29.000Z</time>
      </trkpt>
      <trkpt lat="47.2535" lon="-1.5904">
        <ele>56</ele>
        <time>2021-04-20T12:32:31.000Z</time>
      </trkpt>
      <trkpt lat="47.25362" lon="-1.5905">
        <ele>58</ele>
        <time>2021-04-20T12:32:33.000Z</time>
      </trkpt>
      <trkpt lat="47.25376" lon="-1.5906">
        <ele>60</ele>
        <time>2021-04-20T12:32:35.000Z</time>
      </trkpt>
      <trkpt lat="47.25388" lon="-1.59064">
        <ele>60</ele>
        <time>2021-04-20T12:32:37.000Z</time>
      </trkpt>
      <trkpt lat="47.25401" lon="-1.59068">
        <ele>60</ele>
        <time>2021-04-20T12:32:39.000Z</time>
      </trkpt>
      <trkpt lat="47.25415" lon="-1.5907">
        <ele>60</ele>
        <time>2021-04-20T12:32:41.000Z</time>
      </trkpt>
      <trkpt lat="47.25425" lon="-1.5907">
        <ele>60</ele>
        <time>2021-04-20T12:32:43.000Z</time>
      </trkpt>
      <trkpt lat="47.25435" lon="-1.59066">
        <ele>60</ele>
        <time>2021-04-20T12:32:45.000Z</time>
      </trkpt>
      <trkpt lat="47.25444" lon="-1.59057">
        <ele>60</ele>
        <time>2021-04-20T12:32:47.000Z</time>
      </trkpt>
      <trkpt lat="47.25453" lon="-1.59044">
        <ele>60</ele>
        <time>2021-04-20T12:32:49.000Z</time>
      </trkpt>
      <trkpt lat="47.25463" lon="-1.59031">
        <ele>59</ele>
        <time>2021-04-20T12:32:51.000Z</time>
      </trkpt>
      <trkpt lat="47.25475" lon="-1.59017">
        <ele>59</ele>
        <time>2021-04-20T12:32:53.000Z</time>
      </trkpt>
      <trkpt lat="47.25486" lon="-1.59006">
        <ele>58</ele>
        <time>2021-04-20T12:32:55.000Z</time>
      </trkpt>
      <trkpt lat="47.25497" lon="-1.58998">
        <ele>59</ele>
        <time>2021-04-20T12:32:57.000Z</time>
      </trkpt>
      <trkpt lat="47.25509" lon="-1.58991">
        <ele>60</ele>
        <time>2021-04-20T12:32:59.000Z</time>
      </trkpt>
      <trkpt lat="47.25518" lon="-1.58981">
        <ele>60</ele>
        <time>2021-04-20T12:33:01.000Z</time>
      </trkpt>
      <trkpt lat="47.25523" lon="-1.58968">
        <ele>60</ele>
        <time>2021-04-20T12:33:03.000Z</time>
      </trkpt>
      <trkpt lat="47.25526" lon="-1.58952">
        <ele>59</ele>
        <time>2021-04-20T12:33:05.000Z</time>
      </trkpt>
      <trkpt lat="47.25528" lon="-1.58934">
        <ele>59</ele>
        <time>2021-04-20T12:33:07.000Z</time>
      </trkpt>
      <trkpt lat="47.25531" lon="-1.58918">
        <ele>58</ele>
        <time>2021-04-20T12:33:09.000Z</time>
      </trkpt>
      <trkpt lat="47.25534" lon="-1.589">
        <ele>58</ele>
        <time>2021-04-20T12:33:11.000Z</time>
      </trkpt>
      <trkpt lat="47.25537" lon="-1.58882">
        <ele>57</ele>
        <time>2021-04-20T12:33:13.000Z</time>
      </trkpt>
      <trkpt lat="47.25542" lon="-1.58865">
        <ele>56</ele>
        <time>2021-04-20T12:33:15.000Z</time>
      </trkpt>
      <trkpt lat="47.25547" lon="-1.58851">
        <ele>55</ele>
        <time>2021-04-20T12:33:17.000Z</time>
      </trkpt>
      <trkpt lat="47.25552" lon="-1.58837">
        <ele>55</ele>
        <time>2021-04-20T12:33:19.000Z</time>
      </trkpt>
      <trkpt lat="47.2556" lon="-1.58827">
        <ele>55</ele>
        <time>2021-04-20T12:33:21.000Z</time>
      </trkpt>
      <trkpt lat="47.25569" lon="-1.58824">
        <ele>56</ele>
        <time>2021-04-20T12:33:23.000Z</time>
      </trkpt>
      <trkpt lat="47.2558" lon="-1.58822">
        <ele>57</ele>
        <time>2021-04-20T12:33:25.000Z</time>
      </trkpt>
      <trkpt lat="47.25591" lon="-1.58823">
        <ele>57</ele>
        <time>2021-04-20T12:33:27.000Z</time>
      </trkpt>
      <trkpt lat="47.256" lon="-1.58825">
        <ele>57</ele>
        <time>2021-04-20T12:33:29.000Z</time>
      </trkpt>
      <trkpt lat="47.2561" lon="-1.58826">
        <ele>57</ele>
        <time>2021-04-20T12:33:32.000Z</time>
      </trkpt>
      <trkpt lat="47.25619" lon="-1.58818">
        <ele>57</ele>
        <time>2021-04-20T12:33:38.000Z</time>
      </trkpt>
      <trkpt lat="47.25628" lon="-1.58823">
        <ele>56</ele>
        <time>2021-04-20T12:33:43.000Z</time>
      </trkpt>
      <trkpt lat="47.25635" lon="-1.58836">
        <ele>57</ele>
        <time>2021-04-20T12:33:46.000Z</time>
      </trkpt>
      <trkpt lat="47.25643" lon="-1.58848">
        <ele>57</ele>
        <time>2021-04-20T12:33:48.000Z</time>
      </trkpt>
      <trkpt lat="47.25652" lon="-1.58857">
        <ele>57</ele>
        <time>2021-04-20T12:33:50.000Z</time>
      </trkpt>
      <trkpt lat="47.25659" lon="-1.58867">
        <ele>57</ele>
        <time>2021-04-20T12:33:52.000Z</time>
      </trkpt>
      <trkpt lat="47.25663" lon="-1.58879">
        <ele>57</ele>
        <time>2021-04-20T12:33:54.000Z</time>
      </trkpt>
      <trkpt lat="47.25662" lon="-1.58892">
        <ele>56</ele>
        <time>2021-04-20T12:33:56.000Z</time>
      </trkpt>
      <trkpt lat="47.25656" lon="-1.58903">
        <ele>56</ele>
        <time>2021-04-20T12:33:59.000Z</time>
      </trkpt>
      <trkpt lat="47.2565" lon="-1.58914">
        <ele>56</ele>
        <time>2021-04-20T12:34:02.000Z</time>
      </trkpt>
      <trkpt lat="47.25642" lon="-1.58924">
        <ele>55</ele>
        <time>2021-04-20T12:34:05.000Z</time>
      </trkpt>
      <trkpt lat="47.2564" lon="-1.58938">
        <ele>56</ele>
        <time>2021-04-20T12:34:09.000Z</time>
      </trkpt>
      <trkpt lat="47.25645" lon="-1.5895">
        <ele>57</ele>
        <time>2021-04-20T12:34:12.000Z</time>
      </trkpt>
      <trkpt lat="47.25653" lon="-1.58968">
        <ele>57</ele>
        <time>2021-04-20T12:34:15.000Z</time>
      </trkpt>
      <trkpt lat="47.25658" lon="-1.58984">
        <ele>57</ele>
        <time>2021-04-20T12:34:17.000Z</time>
      </trkpt>
      <trkpt lat="47.25662" lon="-1.58998">
        <ele>58</ele>
        <time>2021-04-20T12:34:19.000Z</time>
      </trkpt>
      <trkpt lat="47.25667" lon="-1.59011">
        <ele>59</ele>
        <time>2021-04-20T12:34:21.000Z</time>
      </trkpt>
      <trkpt lat="47.25671" lon="-1.59023">
        <ele>58</ele>
        <time>2021-04-20T12:34:23.000Z</time>
      </trkpt>
      <trkpt lat="47.25679" lon="-1.59037">
        <ele>58</ele>
        <time>2021-04-20T12:34:26.000Z</time>
      </trkpt>
      <trkpt lat="47.25689" lon="-1.59044">
        <ele>59</ele>
        <time>2021-04-20T12:34:29.000Z</time>
      </trkpt>
      <trkpt lat="47.25697" lon="-1.59052">
        <ele>59</ele>
        <time>2021-04-20T12:34:32.000Z</time>
      </trkpt>
      <trkpt lat="47.25707" lon="-1.59058">
        <ele>60</ele>
        <time>2021-04-20T12:34:36.000Z</time>
      </trkpt>
      <trkpt lat="47.25718" lon="-1.59058">
        <ele>59</ele>
        <time>2021-04-20T12:34:41.000Z</time>
      </trkpt>
      <trkpt lat="47.25727" lon="-1.59069">
        <ele>59</ele>
        <time>2021-04-20T12:34:45.000Z</time>
      </trkpt>
      <trkpt lat="47.25729" lon="-1.59086">
        <ele>57</ele>
        <time>2021-04-20T12:34:48.000Z</time>
      </trkpt>
      <trkpt lat="47.25729" lon="-1.59102">
        <ele>56</ele>
        <time>2021-04-20T12:34:51.000Z</time>
      </trkpt>
      <trkpt lat="47.25733" lon="-1.59114">
        <ele>57</ele>
        <time>2021-04-20T12:34:54.000Z</time>
      </trkpt>
      <trkpt lat="47.25743" lon="-1.59126">
        <ele>58</ele>
        <time>2021-04-20T12:34:57.000Z</time>
      </trkpt>
      <trkpt lat="47.25753" lon="-1.59135">
        <ele>58</ele>
        <time>2021-04-20T12:34:59.000Z</time>
      </trkpt>
      <trkpt lat="47.25762" lon="-1.59145">
        <ele>59</ele>
        <time>2021-04-20T12:35:01.000Z</time>
      </trkpt>
      <trkpt lat="47.2577" lon="-1.59159">
        <ele>59</ele>
        <time>2021-04-20T12:35:03.000Z</time>
      </trkpt>
      <trkpt lat="47.25778" lon="-1.5917">
        <ele>59</ele>
        <time>2021-04-20T12:35:05.000Z</time>
      </trkpt>
      <trkpt lat="47.25786" lon="-1.59183">
        <ele>58</ele>
        <time>2021-04-20T12:35:07.000Z</time>
      </trkpt>
      <trkpt lat="47.25795" lon="-1.59195">
        <ele>58</ele>
        <time>2021-04-20T12:35:09.000Z</time>
      </trkpt>
      <trkpt lat="47.25802" lon="-1.59208">
        <ele>57</ele>
        <time>2021-04-20T12:35:11.000Z</time>
      </trkpt>
      <trkpt lat="47.25809" lon="-1.5922">
        <ele>57</ele>
        <time>2021-04-20T12:35:13.000Z</time>
      </trkpt>
      <trkpt lat="47.25816" lon="-1.5923">
        <ele>57</ele>
        <time>2021-04-20T12:35:15.000Z</time>
      </trkpt>
      <trkpt lat="47.25824" lon="-1.5924">
        <ele>58</ele>
        <time>2021-04-20T12:35:17.000Z</time>
      </trkpt>
      <trkpt lat="47.25833" lon="-1.59248">
        <ele>58</ele>
        <time>2021-04-20T12:35:19.000Z</time>
      </trkpt>
      <trkpt lat="47.25842" lon="-1.59256">
        <ele>58</ele>
        <time>2021-04-20T12:35:21.000Z</time>
      </trkpt>
      <trkpt lat="47.25852" lon="-1.59261">
        <ele>58</ele>
        <time>2021-04-20T12:35:23.000Z</time>
      </trkpt>
      <trkpt lat="47.25862" lon="-1.59263">
        <ele>58</ele>
        <time>2021-04-20T12:35:25.000Z</time>
      </trkpt>
      <trkpt lat="47.25872" lon="-1.5926">
        <ele>59</ele>
        <time>2021-04-20T12:35:27.000Z</time>
      </trkpt>
      <trkpt lat="47.25881" lon="-1.59254">
        <ele>58</ele>
        <time>2021-04-20T12:35:29.000Z</time>
      </trkpt>
      <trkpt lat="47.2589" lon="-1.59246">
        <ele>58</ele>
        <time>2021-04-20T12:35:31.000Z</time>
      </trkpt>
      <trkpt lat="47.25898" lon="-1.59234">
        <ele>57</ele>
        <time>2021-04-20T12:35:34.000Z</time>
      </trkpt>
      <trkpt lat="47.25904" lon="-1.59222">
        <ele>57</ele>
        <time>2021-04-20T12:35:38.000Z</time>
      </trkpt>
      <trkpt lat="47.25912" lon="-1.59209">
        <ele>57</ele>
        <time>2021-04-20T12:35:41.000Z</time>
      </trkpt>
      <trkpt lat="47.25919" lon="-1.59199">
        <ele>57</ele>
        <time>2021-04-20T12:35:43.000Z</time>
      </trkpt>
      <trkpt lat="47.25928" lon="-1.59193">
        <ele>56</ele>
        <time>2021-04-20T12:35:45.000Z</time>
      </trkpt>
      <trkpt lat="47.2594" lon="-1.59193">
        <ele>55</ele>
        <time>2021-04-20T12:35:47.000Z</time>
      </trkpt>
      <trkpt lat="47.25952" lon="-1.59197">
        <ele>56</ele>
        <time>2021-04-20T12:35:49.000Z</time>
      </trkpt>
      <trkpt lat="47.25964" lon="-1.59201">
        <ele>57</ele>
        <time>2021-04-20T12:35:51.000Z</time>
      </trkpt>
      <trkpt lat="47.25976" lon="-1.59204">
        <ele>58</ele>
        <time>2021-04-20T12:35:53.000Z</time>
      </trkpt>
      <trkpt lat="47.25987" lon="-1.59208">
        <ele>58</ele>
        <time>2021-04-20T12:35:55.000Z</time>
      </trkpt>
      <trkpt lat="47.25997" lon="-1.59212">
        <ele>58</ele>
        <time>2021-04-20T12:35:57.000Z</time>
      </trkpt>
      <trkpt lat="47.26006" lon="-1.59218">
        <ele>58</ele>
        <time>2021-04-20T12:35:59.000Z</time>
      </trkpt>
      <trkpt lat="47.26013" lon="-1.59228">
        <ele>57</ele>
        <time>2021-04-20T12:36:01.000Z</time>
      </trkpt>
      <trkpt lat="47.26018" lon="-1.59241">
        <ele>57</ele>
        <time>2021-04-20T12:36:03.000Z</time>
      </trkpt>
      <trkpt lat="47.26021" lon="-1.59256">
        <ele>57</ele>
        <time>2021-04-20T12:36:05.000Z</time>
      </trkpt>
      <trkpt lat="47.26024" lon="-1.59271">
        <ele>57</ele>
        <time>2021-04-20T12:36:07.000Z</time>
      </trkpt>
      <trkpt lat="47.26028" lon="-1.59286">
        <ele>57</ele>
        <time>2021-04-20T12:36:09.000Z</time>
      </trkpt>
      <trkpt lat="47.2603" lon="-1.59301">
        <ele>57</ele>
        <time>2021-04-20T12:36:11.000Z</time>
      </trkpt>
      <trkpt lat="47.26031" lon="-1.59315">
        <ele>57</ele>
        <time>2021-04-20T12:36:13.000Z</time>
      </trkpt>
      <trkpt lat="47.26028" lon="-1.59328">
        <ele>57</ele>
        <time>2021-04-20T12:36:15.000Z</time>
      </trkpt>
      <trkpt lat="47.26023" lon="-1.59344">
        <ele>57</ele>
        <time>2021-04-20T12:36:17.000Z</time>
      </trkpt>
      <trkpt lat="47.26017" lon="-1.59361">
        <ele>56</ele>
        <time>2021-04-20T12:36:19.000Z</time>
      </trkpt>
      <trkpt lat="47.26009" lon="-1.59376">
        <ele>56</ele>
        <time>2021-04-20T12:36:21.000Z</time>
      </trkpt>
      <trkpt lat="47.26002" lon="-1.59391">
        <ele>56</ele>
        <time>2021-04-20T12:36:23.000Z</time>
      </trkpt>
      <trkpt lat="47.25995" lon="-1.59405">
        <ele>56</ele>
        <time>2021-04-20T12:36:25.000Z</time>
      </trkpt>
      <trkpt lat="47.25988" lon="-1.59419">
        <ele>57</ele>
        <time>2021-04-20T12:36:27.000Z</time>
      </trkpt>
      <trkpt lat="47.2598" lon="-1.59433">
        <ele>56</ele>
        <time>2021-04-20T12:36:29.000Z</time>
      </trkpt>
      <trkpt lat="47.25973" lon="-1.59447">
        <ele>56</ele>
        <time>2021-04-20T12:36:31.000Z</time>
      </trkpt>
      <trkpt lat="47.2597" lon="-1.59461">
        <ele>56</ele>
        <time>2021-04-20T12:36:33.000Z</time>
      </trkpt>
      <trkpt lat="47.25972" lon="-1.59475">
        <ele>56</ele>
        <time>2021-04-20T12:36:35.000Z</time>
      </trkpt>
      <trkpt lat="47.25976" lon="-1.5949">
        <ele>56</ele>
        <time>2021-04-20T12:36:37.000Z</time>
      </trkpt>
      <trkpt lat="47.2598" lon="-1.59505">
        <ele>56</ele>
        <time>2021-04-20T12:36:39.000Z</time>
      </trkpt>
      <trkpt lat="47.25982" lon="-1.59519">
        <ele>56</ele>
        <time>2021-04-20T12:36:41.000Z</time>
      </trkpt>
      <trkpt lat="47.25981" lon="-1.59534">
        <ele>56</ele>
        <time>2021-04-20T12:36:43.000Z</time>
      </trkpt>
      <trkpt lat="47.25981" lon="-1.59549">
        <ele>56</ele>
        <time>2021-04-20T12:36:45.000Z</time>
      </trkpt>
      <trkpt lat="47.25981" lon="-1.59563">
        <ele>56</ele>
        <time>2021-04-20T12:36:47.000Z</time>
      </trkpt>
      <trkpt lat="47.25982" lon="-1.59577">
        <ele>56</ele>
        <time>2021-04-20T12:36:49.000Z</time>
      </trkpt>
      <trkpt lat="47.25985" lon="-1.59592">
        <ele>56</ele>
        <time>2021-04-20T12:36:51.000Z</time>
      </trkpt>
      <trkpt lat="47.25988" lon="-1.59606">
        <ele>56</ele>
        <time>2021-04-20T12:36:53.000Z</time>
      </trkpt>
      <trkpt lat="47.25994" lon="-1.5962">
        <ele>56</ele>
        <time>2021-04-20T12:36:55.000Z</time>
      </trkpt>
      <trkpt lat="47.26002" lon="-1.59631">
        <ele>55</ele>
        <time>2021-04-20T12:36:57.000Z</time>
      </trkpt>
      <trkpt lat="47.26011" lon="-1.59642">
        <ele>56</ele>
        <time>2021-04-20T12:36:59.000Z</time>
      </trkpt>
      <trkpt lat="47.2602" lon="-1.59651">
        <ele>56</ele>
        <time>2021-04-20T12:37:01.000Z</time>
      </trkpt>
      <trkpt lat="47.2603" lon="-1.5966">
        <ele>56</ele>
        <time>2021-04-20T12:37:03.000Z</time>
      </trkpt>
      <trkpt lat="47.26041" lon="-1.59668">
        <ele>56</ele>
        <time>2021-04-20T12:37:05.000Z</time>
      </trkpt>
      <trkpt lat="47.2605" lon="-1.59677">
        <ele>55</ele>
        <time>2021-04-20T12:37:07.000Z</time>
      </trkpt>
      <trkpt lat="47.26061" lon="-1.59685">
        <ele>55</ele>
        <time>2021-04-20T12:37:09.000Z</time>
      </trkpt>
      <trkpt lat="47.26072" lon="-1.59693">
        <ele>55</ele>
        <time>2021-04-20T12:37:11.000Z</time>
      </trkpt>
      <trkpt lat="47.26082" lon="-1.59701">
        <ele>55</ele>
        <time>2021-04-20T12:37:13.000Z</time>
      </trkpt>
      <trkpt lat="47.26092" lon="-1.59705">
        <ele>55</ele>
        <time>2021-04-20T12:37:15.000Z</time>
      </trkpt>
      <trkpt lat="47.26103" lon="-1.59707">
        <ele>55</ele>
        <time>2021-04-20T12:37:17.000Z</time>
      </trkpt>
      <trkpt lat="47.26115" lon="-1.59709">
        <ele>55</ele>
        <time>2021-04-20T12:37:19.000Z</time>
      </trkpt>
      <trkpt lat="47.26126" lon="-1.59712">
        <ele>55</ele>
        <time>2021-04-20T12:37:21.000Z</time>
      </trkpt>
      <trkpt lat="47.26137" lon="-1.59714">
        <ele>55</ele>
        <time>2021-04-20T12:37:23.000Z</time>
      </trkpt>
      <trkpt lat="47.26149" lon="-1.59717">
        <ele>55</ele>
        <time>2021-04-20T12:37:25.000Z</time>
      </trkpt>
      <trkpt lat="47.2616" lon="-1.5972">
        <ele>55</ele>
        <time>2021-04-20T12:37:27.000Z</time>
      </trkpt>
      <trkpt lat="47.26171" lon="-1.59723">
        <ele>55</ele>
        <time>2021-04-20T12:37:29.000Z</time>
      </trkpt>
      <trkpt lat="47.26181" lon="-1.59725">
        <ele>54</ele>
        <time>2021-04-20T12:37:31.000Z</time>
      </trkpt>
      <trkpt lat="47.26192" lon="-1.59729">
        <ele>54</ele>
        <time>2021-04-20T12:37:33.000Z</time>
      </trkpt>
      <trkpt lat="47.26203" lon="-1.59733">
        <ele>54</ele>
        <time>2021-04-20T12:37:35.000Z</time>
      </trkpt>
      <trkpt lat="47.26212" lon="-1.59739">
        <ele>54</ele>
        <time>2021-04-20T12:37:37.000Z</time>
      </trkpt>
      <trkpt lat="47.2622" lon="-1.59749">
        <ele>54</ele>
        <time>2021-04-20T12:37:39.000Z</time>
      </trkpt>
      <trkpt lat="47.26228" lon="-1.5976">
        <ele>54</ele>
        <time>2021-04-20T12:37:41.000Z</time>
      </trkpt>
      <trkpt lat="47.26236" lon="-1.59771">
        <ele>54</ele>
        <time>2021-04-20T12:37:43.000Z</time>
      </trkpt>
      <trkpt lat="47.26243" lon="-1.59782">
        <ele>54</ele>
        <time>2021-04-20T12:37:45.000Z</time>
      </trkpt>
      <trkpt lat="47.2625" lon="-1.59795">
        <ele>54</ele>
        <time>2021-04-20T12:37:48.000Z</time>
      </trkpt>
      <trkpt lat="47.26256" lon="-1.59807">
        <ele>54</ele>
        <time>2021-04-20T12:37:52.000Z</time>
      </trkpt>
      <trkpt lat="47.26258" lon="-1.59823">
        <ele>54</ele>
        <time>2021-04-20T12:37:56.000Z</time>
      </trkpt>
      <trkpt lat="47.26259" lon="-1.59836">
        <ele>54</ele>
        <time>2021-04-20T12:37:58.000Z</time>
      </trkpt>
      <trkpt lat="47.26259" lon="-1.59852">
        <ele>54</ele>
        <time>2021-04-20T12:38:00.000Z</time>
      </trkpt>
      <trkpt lat="47.26259" lon="-1.59868">
        <ele>54</ele>
        <time>2021-04-20T12:38:02.000Z</time>
      </trkpt>
      <trkpt lat="47.26258" lon="-1.59882">
        <ele>54</ele>
        <time>2021-04-20T12:38:04.000Z</time>
      </trkpt>
      <trkpt lat="47.26258" lon="-1.59895">
        <ele>54</ele>
        <time>2021-04-20T12:38:06.000Z</time>
      </trkpt>
      <trkpt lat="47.26257" lon="-1.59909">
        <ele>54</ele>
        <time>2021-04-20T12:38:08.000Z</time>
      </trkpt>
      <trkpt lat="47.26254" lon="-1.59924">
        <ele>54</ele>
        <time>2021-04-20T12:38:12.000Z</time>
      </trkpt>
      <trkpt lat="47.2625" lon="-1.59938">
        <ele>54</ele>
        <time>2021-04-20T12:38:15.000Z</time>
      </trkpt>
      <trkpt lat="47.26245" lon="-1.59952">
        <ele>53</ele>
        <time>2021-04-20T12:38:17.000Z</time>
      </trkpt>
      <trkpt lat="47.26239" lon="-1.59967">
        <ele>53</ele>
        <time>2021-04-20T12:38:19.000Z</time>
      </trkpt>
      <trkpt lat="47.26232" lon="-1.5998">
        <ele>53</ele>
        <time>2021-04-20T12:38:21.000Z</time>
      </trkpt>
      <trkpt lat="47.26225" lon="-1.59993">
        <ele>54</ele>
        <time>2021-04-20T12:38:23.000Z</time>
      </trkpt>
      <trkpt lat="47.26217" lon="-1.60007">
        <ele>54</ele>
        <time>2021-04-20T12:38:25.000Z</time>
      </trkpt>
      <trkpt lat="47.26211" lon="-1.6002">
        <ele>54</ele>
        <time>2021-04-20T12:38:27.000Z</time>
      </trkpt>
      <trkpt lat="47.26205" lon="-1.60033">
        <ele>54</ele>
        <time>2021-04-20T12:38:29.000Z</time>
      </trkpt>
      <trkpt lat="47.26201" lon="-1.60045">
        <ele>54</ele>
        <time>2021-04-20T12:38:31.000Z</time>
      </trkpt>
      <trkpt lat="47.26198" lon="-1.60059">
        <ele>53</ele>
        <time>2021-04-20T12:38:33.000Z</time>
      </trkpt>
      <trkpt lat="47.26197" lon="-1.60073">
        <ele>54</ele>
        <time>2021-04-20T12:38:35.000Z</time>
      </trkpt>
      <trkpt lat="47.262" lon="-1.60086">
        <ele>54</ele>
        <time>2021-04-20T12:38:37.000Z</time>
      </trkpt>
      <trkpt lat="47.26209" lon="-1.60097">
        <ele>53</ele>
        <time>2021-04-20T12:38:40.000Z</time>
      </trkpt>
      <trkpt lat="47.26219" lon="-1.60098">
        <ele>53</ele>
        <time>2021-04-20T12:38:44.000Z</time>
      </trkpt>
      <trkpt lat="47.26231" lon="-1.60095">
        <ele>54</ele>
        <time>2021-04-20T12:38:47.000Z</time>
      </trkpt>
      <trkpt lat="47.26241" lon="-1.60092">
        <ele>53</ele>
        <time>2021-04-20T12:38:49.000Z</time>
      </trkpt>
      <trkpt lat="47.2625" lon="-1.60088">
        <ele>54</ele>
        <time>2021-04-20T12:38:51.000Z</time>
      </trkpt>
      <trkpt lat="47.26259" lon="-1.60089">
        <ele>54</ele>
        <time>2021-04-20T12:38:53.000Z</time>
      </trkpt>
      <trkpt lat="47.26268" lon="-1.60094">
        <ele>54</ele>
        <time>2021-04-20T12:38:55.000Z</time>
      </trkpt>
      <trkpt lat="47.26275" lon="-1.60105">
        <ele>54</ele>
        <time>2021-04-20T12:38:57.000Z</time>
      </trkpt>
      <trkpt lat="47.26282" lon="-1.6012">
        <ele>54</ele>
        <time>2021-04-20T12:38:59.000Z</time>
      </trkpt>
      <trkpt lat="47.26289" lon="-1.60136">
        <ele>54</ele>
        <time>2021-04-20T12:39:01.000Z</time>
      </trkpt>
      <trkpt lat="47.26295" lon="-1.6015">
        <ele>54</ele>
        <time>2021-04-20T12:39:03.000Z</time>
      </trkpt>
      <trkpt lat="47.26302" lon="-1.60164">
        <ele>53</ele>
        <time>2021-04-20T12:39:05.000Z</time>
      </trkpt>
      <trkpt lat="47.26309" lon="-1.60176">
        <ele>53</ele>
        <time>2021-04-20T12:39:07.000Z</time>
      </trkpt>
      <trkpt lat="47.26317" lon="-1.60187">
        <ele>53</ele>
        <time>2021-04-20T12:39:09.000Z</time>
      </trkpt>
      <trkpt lat="47.26326" lon="-1.60199">
        <ele>53</ele>
        <time>2021-04-20T12:39:11.000Z</time>
      </trkpt>
      <trkpt lat="47.26335" lon="-1.60212">
        <ele>53</ele>
        <time>2021-04-20T12:39:13.000Z</time>
      </trkpt>
      <trkpt lat="47.26343" lon="-1.60225">
        <ele>53</ele>
        <time>2021-04-20T12:39:15.000Z</time>
      </trkpt>
      <trkpt lat="47.26347" lon="-1.60238">
        <ele>54</ele>
        <time>2021-04-20T12:39:17.000Z</time>
      </trkpt>
      <trkpt lat="47.26347" lon="-1.60252">
        <ele>54</ele>
        <time>2021-04-20T12:39:19.000Z</time>
      </trkpt>
      <trkpt lat="47.26343" lon="-1.60269">
        <ele>56</ele>
        <time>2021-04-20T12:39:22.000Z</time>
      </trkpt>
      <trkpt lat="47.26339" lon="-1.60288">
        <ele>57</ele>
        <time>2021-04-20T12:39:25.000Z</time>
      </trkpt>
      <trkpt lat="47.26336" lon="-1.60302">
        <ele>57</ele>
        <time>2021-04-20T12:39:27.000Z</time>
      </trkpt>
      <trkpt lat="47.26331" lon="-1.60318">
        <ele>58</ele>
        <time>2021-04-20T12:39:29.000Z</time>
      </trkpt>
      <trkpt lat="47.26326" lon="-1.60334">
        <ele>58</ele>
        <time>2021-04-20T12:39:31.000Z</time>
      </trkpt>
      <trkpt lat="47.26321" lon="-1.60348">
        <ele>59</ele>
        <time>2021-04-20T12:39:33.000Z</time>
      </trkpt>
      <trkpt lat="47.26315" lon="-1.60361">
        <ele>59</ele>
        <time>2021-04-20T12:39:35.000Z</time>
      </trkpt>
      <trkpt lat="47.26311" lon="-1.60377">
        <ele>59</ele>
        <time>2021-04-20T12:39:37.000Z</time>
      </trkpt>
      <trkpt lat="47.26309" lon="-1.60395">
        <ele>60</ele>
        <time>2021-04-20T12:39:39.000Z</time>
      </trkpt>
      <trkpt lat="47.26307" lon="-1.60412">
        <ele>61</ele>
        <time>2021-04-20T12:39:41.000Z</time>
      </trkpt>
      <trkpt lat="47.26305" lon="-1.6043">
        <ele>61</ele>
        <time>2021-04-20T12:39:43.000Z</time>
      </trkpt>
      <trkpt lat="47.26302" lon="-1.60447">
        <ele>61</ele>
        <time>2021-04-20T12:39:45.000Z</time>
      </trkpt>
      <trkpt lat="47.26299" lon="-1.60464">
        <ele>61</ele>
        <time>2021-04-20T12:39:47.000Z</time>
      </trkpt>
      <trkpt lat="47.26298" lon="-1.60481">
        <ele>61</ele>
        <time>2021-04-20T12:39:49.000Z</time>
      </trkpt>
      <trkpt lat="47.26299" lon="-1.60499">
        <ele>61</ele>
        <time>2021-04-20T12:39:51.000Z</time>
      </trkpt>
      <trkpt lat="47.26305" lon="-1.60514">
        <ele>61</ele>
        <time>2021-04-20T12:39:53.000Z</time>
      </trkpt>
      <trkpt lat="47.26309" lon="-1.6053">
        <ele>61</ele>
        <time>2021-04-20T12:39:55.000Z</time>
      </trkpt>
      <trkpt lat="47.26311" lon="-1.60548">
        <ele>61</ele>
        <time>2021-04-20T12:39:57.000Z</time>
      </trkpt>
      <trkpt lat="47.26313" lon="-1.60564">
        <ele>61</ele>
        <time>2021-04-20T12:39:59.000Z</time>
      </trkpt>
      <trkpt lat="47.26315" lon="-1.60581">
        <ele>61</ele>
        <time>2021-04-20T12:40:01.000Z</time>
      </trkpt>
      <trkpt lat="47.26317" lon="-1.60598">
        <ele>61</ele>
        <time>2021-04-20T12:40:03.000Z</time>
      </trkpt>
      <trkpt lat="47.2632" lon="-1.60613">
        <ele>60</ele>
        <time>2021-04-20T12:40:05.000Z</time>
      </trkpt>
      <trkpt lat="47.26323" lon="-1.60629">
        <ele>59</ele>
        <time>2021-04-20T12:40:07.000Z</time>
      </trkpt>
      <trkpt lat="47.26328" lon="-1.60644">
        <ele>59</ele>
        <time>2021-04-20T12:40:09.000Z</time>
      </trkpt>
      <trkpt lat="47.26335" lon="-1.60655">
        <ele>59</ele>
        <time>2021-04-20T12:40:11.000Z</time>
      </trkpt>
      <trkpt lat="47.26345" lon="-1.60666">
        <ele>59</ele>
        <time>2021-04-20T12:40:13.000Z</time>
      </trkpt>
      <trkpt lat="47.26355" lon="-1.60678">
        <ele>60</ele>
        <time>2021-04-20T12:40:15.000Z</time>
      </trkpt>
      <trkpt lat="47.26363" lon="-1.60688">
        <ele>60</ele>
        <time>2021-04-20T12:40:17.000Z</time>
      </trkpt>
      <trkpt lat="47.26367" lon="-1.60704">
        <ele>59</ele>
        <time>2021-04-20T12:40:20.000Z</time>
      </trkpt>
      <trkpt lat="47.26363" lon="-1.60719">
        <ele>58</ele>
        <time>2021-04-20T12:40:22.000Z</time>
      </trkpt>
      <trkpt lat="47.26359" lon="-1.60734">
        <ele>59</ele>
        <time>2021-04-20T12:40:24.000Z</time>
      </trkpt>
      <trkpt lat="47.26354" lon="-1.6075">
        <ele>59</ele>
        <time>2021-04-20T12:40:26.000Z</time>
      </trkpt>
      <trkpt lat="47.2635" lon="-1.60765">
        <ele>60</ele>
        <time>2021-04-20T12:40:28.000Z</time>
      </trkpt>
      <trkpt lat="47.26346" lon="-1.60779">
        <ele>60</ele>
        <time>2021-04-20T12:40:30.000Z</time>
      </trkpt>
      <trkpt lat="47.26342" lon="-1.60794">
        <ele>61</ele>
        <time>2021-04-20T12:40:32.000Z</time>
      </trkpt>
      <trkpt lat="47.26339" lon="-1.60808">
        <ele>62</ele>
        <time>2021-04-20T12:40:34.000Z</time>
      </trkpt>
      <trkpt lat="47.26334" lon="-1.60822">
        <ele>62</ele>
        <time>2021-04-20T12:40:36.000Z</time>
      </trkpt>
      <trkpt lat="47.2633" lon="-1.60836">
        <ele>63</ele>
        <time>2021-04-20T12:40:38.000Z</time>
      </trkpt>
      <trkpt lat="47.26327" lon="-1.60849">
        <ele>63</ele>
        <time>2021-04-20T12:40:40.000Z</time>
      </trkpt>
      <trkpt lat="47.26328" lon="-1.60862">
        <ele>63</ele>
        <time>2021-04-20T12:40:44.000Z</time>
      </trkpt>
      <trkpt lat="47.26338" lon="-1.6085">
        <ele>62</ele>
        <time>2021-04-20T12:40:47.000Z</time>
      </trkpt>
      <trkpt lat="47.26346" lon="-1.60839">
        <ele>61</ele>
        <time>2021-04-20T12:40:49.000Z</time>
      </trkpt>
      <trkpt lat="47.26355" lon="-1.60827">
        <ele>61</ele>
        <time>2021-04-20T12:40:51.000Z</time>
      </trkpt>
      <trkpt lat="47.26365" lon="-1.60818">
        <ele>60</ele>
        <time>2021-04-20T12:40:53.000Z</time>
      </trkpt>
      <trkpt lat="47.26374" lon="-1.60809">
        <ele>59</ele>
        <time>2021-04-20T12:40:55.000Z</time>
      </trkpt>
      <trkpt lat="47.26385" lon="-1.60807">
        <ele>59</ele>
        <time>2021-04-20T12:40:58.000Z</time>
      </trkpt>
      <trkpt lat="47.26392" lon="-1.60818">
        <ele>59</ele>
        <time>2021-04-20T12:41:00.000Z</time>
      </trkpt>
      <trkpt lat="47.26396" lon="-1.60834">
        <ele>59</ele>
        <time>2021-04-20T12:41:02.000Z</time>
      </trkpt>
      <trkpt lat="47.26401" lon="-1.60849">
        <ele>59</ele>
        <time>2021-04-20T12:41:04.000Z</time>
      </trkpt>
      <trkpt lat="47.26407" lon="-1.60864">
        <ele>58</ele>
        <time>2021-04-20T12:41:06.000Z</time>
      </trkpt>
      <trkpt lat="47.26414" lon="-1.6088">
        <ele>58</ele>
        <time>2021-04-20T12:41:08.000Z</time>
      </trkpt>
      <trkpt lat="47.26422" lon="-1.60895">
        <ele>58</ele>
        <time>2021-04-20T12:41:10.000Z</time>
      </trkpt>
      <trkpt lat="47.2643" lon="-1.60909">
        <ele>58</ele>
        <time>2021-04-20T12:41:12.000Z</time>
      </trkpt>
      <trkpt lat="47.26438" lon="-1.60924">
        <ele>58</ele>
        <time>2021-04-20T12:41:14.000Z</time>
      </trkpt>
      <trkpt lat="47.26446" lon="-1.60939">
        <ele>57</ele>
        <time>2021-04-20T12:41:16.000Z</time>
      </trkpt>
      <trkpt lat="47.26454" lon="-1.60953">
        <ele>57</ele>
        <time>2021-04-20T12:41:18.000Z</time>
      </trkpt>
      <trkpt lat="47.26462" lon="-1.60966">
        <ele>57</ele>
        <time>2021-04-20T12:41:20.000Z</time>
      </trkpt>
      <trkpt lat="47.26469" lon="-1.60981">
        <ele>57</ele>
        <time>2021-04-20T12:41:22.000Z</time>
      </trkpt>
      <trkpt lat="47.26474" lon="-1.60999">
        <ele>57</ele>
        <time>2021-04-20T12:41:24.000Z</time>
      </trkpt>
      <trkpt lat="47.26475" lon="-1.61017">
        <ele>57</ele>
        <time>2021-04-20T12:41:26.000Z</time>
      </trkpt>
      <trkpt lat="47.26476" lon="-1.61035">
        <ele>58</ele>
        <time>2021-04-20T12:41:28.000Z</time>
      </trkpt>
      <trkpt lat="47.26476" lon="-1.61053">
        <ele>58</ele>
        <time>2021-04-20T12:41:30.000Z</time>
      </trkpt>
      <trkpt lat="47.26476" lon="-1.61071">
        <ele>59</ele>
        <time>2021-04-20T12:41:32.000Z</time>
      </trkpt>
      <trkpt lat="47.26476" lon="-1.61088">
        <ele>59</ele>
        <time>2021-04-20T12:41:34.000Z</time>
      </trkpt>
      <trkpt lat="47.26476" lon="-1.61106">
        <ele>58</ele>
        <time>2021-04-20T12:41:36.000Z</time>
      </trkpt>
      <trkpt lat="47.26473" lon="-1.61123">
        <ele>57</ele>
        <time>2021-04-20T12:41:38.000Z</time>
      </trkpt>
      <trkpt lat="47.26468" lon="-1.6114">
        <ele>57</ele>
        <time>2021-04-20T12:41:40.000Z</time>
      </trkpt>
      <trkpt lat="47.26462" lon="-1.61157">
        <ele>57</ele>
        <time>2021-04-20T12:41:42.000Z</time>
      </trkpt>
      <trkpt lat="47.26456" lon="-1.61173">
        <ele>57</ele>
        <time>2021-04-20T12:41:44.000Z</time>
      </trkpt>
      <trkpt lat="47.26451" lon="-1.6119">
        <ele>57</ele>
        <time>2021-04-20T12:41:46.000Z</time>
      </trkpt>
      <trkpt lat="47.26444" lon="-1.61204">
        <ele>58</ele>
        <time>2021-04-20T12:41:48.000Z</time>
      </trkpt>
      <trkpt lat="47.26435" lon="-1.61216">
        <ele>58</ele>
        <time>2021-04-20T12:41:50.000Z</time>
      </trkpt>
      <trkpt lat="47.26425" lon="-1.61226">
        <ele>58</ele>
        <time>2021-04-20T12:41:52.000Z</time>
      </trkpt>
      <trkpt lat="47.26415" lon="-1.61237">
        <ele>58</ele>
        <time>2021-04-20T12:41:54.000Z</time>
      </trkpt>
      <trkpt lat="47.26405" lon="-1.61247">
        <ele>58</ele>
        <time>2021-04-20T12:41:56.000Z</time>
      </trkpt>
      <trkpt lat="47.26397" lon="-1.61258">
        <ele>59</ele>
        <time>2021-04-20T12:41:58.000Z</time>
      </trkpt>
      <trkpt lat="47.26389" lon="-1.61271">
        <ele>59</ele>
        <time>2021-04-20T12:42:00.000Z</time>
      </trkpt>
      <trkpt lat="47.26384" lon="-1.61285">
        <ele>59</ele>
        <time>2021-04-20T12:42:02.000Z</time>
      </trkpt>
      <trkpt lat="47.2638" lon="-1.61301">
        <ele>59</ele>
        <time>2021-04-20T12:42:04.000Z</time>
      </trkpt>
      <trkpt lat="47.26378" lon="-1.61318">
        <ele>59</ele>
        <time>2021-04-20T12:42:06.000Z</time>
      </trkpt>
      <trkpt lat="47.26376" lon="-1.61335">
        <ele>59</ele>
        <time>2021-04-20T12:42:08.000Z</time>
      </trkpt>
      <trkpt lat="47.26374" lon="-1.61352">
        <ele>59</ele>
        <time>2021-04-20T12:42:10.000Z</time>
      </trkpt>
      <trkpt lat="47.26372" lon="-1.61368">
        <ele>59</ele>
        <time>2021-04-20T12:42:12.000Z</time>
      </trkpt>
      <trkpt lat="47.26369" lon="-1.61385">
        <ele>59</ele>
        <time>2021-04-20T12:42:14.000Z</time>
      </trkpt>
      <trkpt lat="47.26366" lon="-1.61402">
        <ele>60</ele>
        <time>2021-04-20T12:42:16.000Z</time>
      </trkpt>
      <trkpt lat="47.26364" lon="-1.61419">
        <ele>62</ele>
        <time>2021-04-20T12:42:18.000Z</time>
      </trkpt>
      <trkpt lat="47.26365" lon="-1.61434">
        <ele>62</ele>
        <time>2021-04-20T12:42:20.000Z</time>
      </trkpt>
      <trkpt lat="47.26369" lon="-1.61449">
        <ele>62</ele>
        <time>2021-04-20T12:42:22.000Z</time>
      </trkpt>
      <trkpt lat="47.26374" lon="-1.61467">
        <ele>62</ele>
        <time>2021-04-20T12:42:24.000Z</time>
      </trkpt>
      <trkpt lat="47.26381" lon="-1.61482">
        <ele>62</ele>
        <time>2021-04-20T12:42:26.000Z</time>
      </trkpt>
      <trkpt lat="47.2639" lon="-1.61493">
        <ele>62</ele>
        <time>2021-04-20T12:42:28.000Z</time>
      </trkpt>
      <trkpt lat="47.26401" lon="-1.61502">
        <ele>61</ele>
        <time>2021-04-20T12:42:30.000Z</time>
      </trkpt>
      <trkpt lat="47.26411" lon="-1.61512">
        <ele>61</ele>
        <time>2021-04-20T12:42:32.000Z</time>
      </trkpt>
      <trkpt lat="47.26421" lon="-1.61524">
        <ele>61</ele>
        <time>2021-04-20T12:42:34.000Z</time>
      </trkpt>
      <trkpt lat="47.26429" lon="-1.61537">
        <ele>61</ele>
        <time>2021-04-20T12:42:36.000Z</time>
      </trkpt>
      <trkpt lat="47.26436" lon="-1.6155">
        <ele>61</ele>
        <time>2021-04-20T12:42:38.000Z</time>
      </trkpt>
      <trkpt lat="47.26444" lon="-1.61562">
        <ele>60</ele>
        <time>2021-04-20T12:42:40.000Z</time>
      </trkpt>
      <trkpt lat="47.26454" lon="-1.6157">
        <ele>60</ele>
        <time>2021-04-20T12:42:42.000Z</time>
      </trkpt>
      <trkpt lat="47.26463" lon="-1.61577">
        <ele>60</ele>
        <time>2021-04-20T12:42:44.000Z</time>
      </trkpt>
      <trkpt lat="47.26473" lon="-1.61582">
        <ele>60</ele>
        <time>2021-04-20T12:42:46.000Z</time>
      </trkpt>
      <trkpt lat="47.26485" lon="-1.61587">
        <ele>59</ele>
        <time>2021-04-20T12:42:48.000Z</time>
      </trkpt>
      <trkpt lat="47.26497" lon="-1.61591">
        <ele>59</ele>
        <time>2021-04-20T12:42:50.000Z</time>
      </trkpt>
      <trkpt lat="47.26509" lon="-1.61596">
        <ele>59</ele>
        <time>2021-04-20T12:42:52.000Z</time>
      </trkpt>
      <trkpt lat="47.26521" lon="-1.61601">
        <ele>58</ele>
        <time>2021-04-20T12:42:54.000Z</time>
      </trkpt>
      <trkpt lat="47.2653" lon="-1.6161">
        <ele>58</ele>
        <time>2021-04-20T12:42:56.000Z</time>
      </trkpt>
      <trkpt lat="47.26538" lon="-1.61625">
        <ele>58</ele>
        <time>2021-04-20T12:42:58.000Z</time>
      </trkpt>
      <trkpt lat="47.26545" lon="-1.61641">
        <ele>58</ele>
        <time>2021-04-20T12:43:00.000Z</time>
      </trkpt>
      <trkpt lat="47.26552" lon="-1.61656">
        <ele>57</ele>
        <time>2021-04-20T12:43:02.000Z</time>
      </trkpt>
      <trkpt lat="47.26559" lon="-1.61672">
        <ele>56</ele>
        <time>2021-04-20T12:43:04.000Z</time>
      </trkpt>
      <trkpt lat="47.26566" lon="-1.61687">
        <ele>56</ele>
        <time>2021-04-20T12:43:06.000Z</time>
      </trkpt>
      <trkpt lat="47.26574" lon="-1.61703">
        <ele>57</ele>
        <time>2021-04-20T12:43:08.000Z</time>
      </trkpt>
      <trkpt lat="47.26581" lon="-1.61717">
        <ele>57</ele>
        <time>2021-04-20T12:43:10.000Z</time>
      </trkpt>
      <trkpt lat="47.26589" lon="-1.61731">
        <ele>58</ele>
        <time>2021-04-20T12:43:12.000Z</time>
      </trkpt>
      <trkpt lat="47.26598" lon="-1.61743">
        <ele>58</ele>
        <time>2021-04-20T12:43:14.000Z</time>
      </trkpt>
      <trkpt lat="47.26608" lon="-1.61752">
        <ele>57</ele>
        <time>2021-04-20T12:43:16.000Z</time>
      </trkpt>
      <trkpt lat="47.26618" lon="-1.61759">
        <ele>58</ele>
        <time>2021-04-20T12:43:18.000Z</time>
      </trkpt>
      <trkpt lat="47.26629" lon="-1.61764">
        <ele>58</ele>
        <time>2021-04-20T12:43:20.000Z</time>
      </trkpt>
      <trkpt lat="47.26641" lon="-1.6177">
        <ele>59</ele>
        <time>2021-04-20T12:43:22.000Z</time>
      </trkpt>
      <trkpt lat="47.26652" lon="-1.61776">
        <ele>59</ele>
        <time>2021-04-20T12:43:24.000Z</time>
      </trkpt>
      <trkpt lat="47.26662" lon="-1.61782">
        <ele>59</ele>
        <time>2021-04-20T12:43:26.000Z</time>
      </trkpt>
      <trkpt lat="47.26673" lon="-1.61788">
        <ele>59</ele>
        <time>2021-04-20T12:43:28.000Z</time>
      </trkpt>
      <trkpt lat="47.26684" lon="-1.61794">
        <ele>59</ele>
        <time>2021-04-20T12:43:30.000Z</time>
      </trkpt>
      <trkpt lat="47.26695" lon="-1.61798">
        <ele>58</ele>
        <time>2021-04-20T12:43:32.000Z</time>
      </trkpt>
      <trkpt lat="47.26706" lon="-1.61801">
        <ele>59</ele>
        <time>2021-04-20T12:43:34.000Z</time>
      </trkpt>
      <trkpt lat="47.26716" lon="-1.61806">
        <ele>59</ele>
        <time>2021-04-20T12:43:36.000Z</time>
      </trkpt>
      <trkpt lat="47.26727" lon="-1.61814">
        <ele>59</ele>
        <time>2021-04-20T12:43:38.000Z</time>
      </trkpt>
      <trkpt lat="47.26737" lon="-1.61824">
        <ele>59</ele>
        <time>2021-04-20T12:43:40.000Z</time>
      </trkpt>
      <trkpt lat="47.26745" lon="-1.61836">
        <ele>58</ele>
        <time>2021-04-20T12:43:42.000Z</time>
      </trkpt>
      <trkpt lat="47.26753" lon="-1.61849">
        <ele>58</ele>
        <time>2021-04-20T12:43:44.000Z</time>
      </trkpt>
      <trkpt lat="47.26757" lon="-1.61864">
        <ele>58</ele>
        <time>2021-04-20T12:43:46.000Z</time>
      </trkpt>
      <trkpt lat="47.26755" lon="-1.61878">
        <ele>58</ele>
        <time>2021-04-20T12:43:48.000Z</time>
      </trkpt>
      <trkpt lat="47.2675" lon="-1.61891">
        <ele>58</ele>
        <time>2021-04-20T12:43:50.000Z</time>
      </trkpt>
      <trkpt lat="47.26748" lon="-1.61907">
        <ele>58</ele>
        <time>2021-04-20T12:43:52.000Z</time>
      </trkpt>
      <trkpt lat="47.26747" lon="-1.61924">
        <ele>59</ele>
        <time>2021-04-20T12:43:54.000Z</time>
      </trkpt>
      <trkpt lat="47.26746" lon="-1.61941">
        <ele>59</ele>
        <time>2021-04-20T12:43:56.000Z</time>
      </trkpt>
      <trkpt lat="47.26746" lon="-1.61957">
        <ele>59</ele>
        <time>2021-04-20T12:43:58.000Z</time>
      </trkpt>
      <trkpt lat="47.26745" lon="-1.61976">
        <ele>59</ele>
        <time>2021-04-20T12:44:00.000Z</time>
      </trkpt>
      <trkpt lat="47.26745" lon="-1.61994">
        <ele>60</ele>
        <time>2021-04-20T12:44:02.000Z</time>
      </trkpt>
      <trkpt lat="47.26744" lon="-1.62011">
        <ele>60</ele>
        <time>2021-04-20T12:44:04.000Z</time>
      </trkpt>
      <trkpt lat="47.26743" lon="-1.62028">
        <ele>60</ele>
        <time>2021-04-20T12:44:06.000Z</time>
      </trkpt>
      <trkpt lat="47.26744" lon="-1.62045">
        <ele>60</ele>
        <time>2021-04-20T12:44:08.000Z</time>
      </trkpt>
      <trkpt lat="47.26745" lon="-1.6206">
        <ele>61</ele>
        <time>2021-04-20T12:44:10.000Z</time>
      </trkpt>
      <trkpt lat="47.26749" lon="-1.62076">
        <ele>61</ele>
        <time>2021-04-20T12:44:12.000Z</time>
      </trkpt>
      <trkpt lat="47.26751" lon="-1.62093">
        <ele>62</ele>
        <time>2021-04-20T12:44:14.000Z</time>
      </trkpt>
      <trkpt lat="47.26751" lon="-1.6211">
        <ele>62</ele>
        <time>2021-04-20T12:44:16.000Z</time>
      </trkpt>
      <trkpt lat="47.26752" lon="-1.62126">
        <ele>62</ele>
        <time>2021-04-20T12:44:18.000Z</time>
      </trkpt>
      <trkpt lat="47.26754" lon="-1.62144">
        <ele>62</ele>
        <time>2021-04-20T12:44:20.000Z</time>
      </trkpt>
      <trkpt lat="47.26756" lon="-1.62162">
        <ele>62</ele>
        <time>2021-04-20T12:44:22.000Z</time>
      </trkpt>
      <trkpt lat="47.26757" lon="-1.62179">
        <ele>63</ele>
        <time>2021-04-20T12:44:24.000Z</time>
      </trkpt>
      <trkpt lat="47.26759" lon="-1.62195">
        <ele>63</ele>
        <time>2021-04-20T12:44:26.000Z</time>
      </trkpt>
      <trkpt lat="47.26759" lon="-1.62211">
        <ele>63</ele>
        <time>2021-04-20T12:44:28.000Z</time>
      </trkpt>
      <trkpt lat="47.26759" lon="-1.62227">
        <ele>63</ele>
        <time>2021-04-20T12:44:30.000Z</time>
      </trkpt>
      <trkpt lat="47.26759" lon="-1.62241">
        <ele>63</ele>
        <time>2021-04-20T12:44:32.000Z</time>
      </trkpt>
      <trkpt lat="47.26763" lon="-1.62256">
        <ele>63</ele>
        <time>2021-04-20T12:44:35.000Z</time>
      </trkpt>
      <trkpt lat="47.26774" lon="-1.62261">
        <ele>63</ele>
        <time>2021-04-20T12:44:39.000Z</time>
      </trkpt>
      <trkpt lat="47.26774" lon="-1.62274">
        <ele>62</ele>
        <time>2021-04-20T12:44:42.000Z</time>
      </trkpt>
      <trkpt lat="47.26768" lon="-1.62287">
        <ele>62</ele>
        <time>2021-04-20T12:44:46.000Z</time>
      </trkpt>
      <trkpt lat="47.26763" lon="-1.623">
        <ele>62</ele>
        <time>2021-04-20T12:44:50.000Z</time>
      </trkpt>
      <trkpt lat="47.26764" lon="-1.62314">
        <ele>61</ele>
        <time>2021-04-20T12:44:54.000Z</time>
      </trkpt>
      <trkpt lat="47.26768" lon="-1.62327">
        <ele>62</ele>
        <time>2021-04-20T12:44:57.000Z</time>
      </trkpt>
      <trkpt lat="47.26773" lon="-1.62339">
        <ele>63</ele>
        <time>2021-04-20T12:44:59.000Z</time>
      </trkpt>
      <trkpt lat="47.26778" lon="-1.6235">
        <ele>63</ele>
        <time>2021-04-20T12:45:01.000Z</time>
      </trkpt>
      <trkpt lat="47.26784" lon="-1.62363">
        <ele>63</ele>
        <time>2021-04-20T12:45:03.000Z</time>
      </trkpt>
      <trkpt lat="47.26789" lon="-1.62375">
        <ele>63</ele>
        <time>2021-04-20T12:45:05.000Z</time>
      </trkpt>
      <trkpt lat="47.26791" lon="-1.62388">
        <ele>63</ele>
        <time>2021-04-20T12:45:07.000Z</time>
      </trkpt>
      <trkpt lat="47.26791" lon="-1.62401">
        <ele>63</ele>
        <time>2021-04-20T12:45:09.000Z</time>
      </trkpt>
      <trkpt lat="47.26791" lon="-1.62417">
        <ele>62</ele>
        <time>2021-04-20T12:45:11.000Z</time>
      </trkpt>
      <trkpt lat="47.26789" lon="-1.62434">
        <ele>62</ele>
        <time>2021-04-20T12:45:13.000Z</time>
      </trkpt>
      <trkpt lat="47.26786" lon="-1.62451">
        <ele>62</ele>
        <time>2021-04-20T12:45:15.000Z</time>
      </trkpt>
      <trkpt lat="47.26784" lon="-1.62468">
        <ele>62</ele>
        <time>2021-04-20T12:45:17.000Z</time>
      </trkpt>
      <trkpt lat="47.26781" lon="-1.62485">
        <ele>62</ele>
        <time>2021-04-20T12:45:19.000Z</time>
      </trkpt>
      <trkpt lat="47.2678" lon="-1.62503">
        <ele>62</ele>
        <time>2021-04-20T12:45:21.000Z</time>
      </trkpt>
      <trkpt lat="47.26779" lon="-1.62521">
        <ele>62</ele>
        <time>2021-04-20T12:45:23.000Z</time>
      </trkpt>
      <trkpt lat="47.26778" lon="-1.62539">
        <ele>62</ele>
        <time>2021-04-20T12:45:25.000Z</time>
      </trkpt>
      <trkpt lat="47.26776" lon="-1.62556">
        <ele>63</ele>
        <time>2021-04-20T12:45:27.000Z</time>
      </trkpt>
      <trkpt lat="47.26774" lon="-1.62573">
        <ele>64</ele>
        <time>2021-04-20T12:45:29.000Z</time>
      </trkpt>
      <trkpt lat="47.26773" lon="-1.6259">
        <ele>64</ele>
        <time>2021-04-20T12:45:31.000Z</time>
      </trkpt>
      <trkpt lat="47.26773" lon="-1.62608">
        <ele>63</ele>
        <time>2021-04-20T12:45:33.000Z</time>
      </trkpt>
      <trkpt lat="47.26774" lon="-1.62626">
        <ele>63</ele>
        <time>2021-04-20T12:45:35.000Z</time>
      </trkpt>
      <trkpt lat="47.26775" lon="-1.62645">
        <ele>62</ele>
        <time>2021-04-20T12:45:37.000Z</time>
      </trkpt>
      <trkpt lat="47.26776" lon="-1.62664">
        <ele>62</ele>
        <time>2021-04-20T12:45:39.000Z</time>
      </trkpt>
      <trkpt lat="47.26776" lon="-1.62683">
        <ele>61</ele>
        <time>2021-04-20T12:45:41.000Z</time>
      </trkpt>
      <trkpt lat="47.26776" lon="-1.62701">
        <ele>61</ele>
        <time>2021-04-20T12:45:43.000Z</time>
      </trkpt>
      <trkpt lat="47.26776" lon="-1.62719">
        <ele>61</ele>
        <time>2021-04-20T12:45:45.000Z</time>
      </trkpt>
      <trkpt lat="47.26776" lon="-1.62736">
        <ele>62</ele>
        <time>2021-04-20T12:45:47.000Z</time>
      </trkpt>
      <trkpt lat="47.26777" lon="-1.62754">
        <ele>62</ele>
        <time>2021-04-20T12:45:49.000Z</time>
      </trkpt>
      <trkpt lat="47.26778" lon="-1.62773">
        <ele>61</ele>
        <time>2021-04-20T12:45:51.000Z</time>
      </trkpt>
      <trkpt lat="47.2678" lon="-1.6279">
        <ele>61</ele>
        <time>2021-04-20T12:45:53.000Z</time>
      </trkpt>
      <trkpt lat="47.26781" lon="-1.62808">
        <ele>60</ele>
        <time>2021-04-20T12:45:55.000Z</time>
      </trkpt>
      <trkpt lat="47.26783" lon="-1.62826">
        <ele>61</ele>
        <time>2021-04-20T12:45:57.000Z</time>
      </trkpt>
      <trkpt lat="47.26786" lon="-1.62844">
        <ele>61</ele>
        <time>2021-04-20T12:45:59.000Z</time>
      </trkpt>
      <trkpt lat="47.26789" lon="-1.62862">
        <ele>61</ele>
        <time>2021-04-20T12:46:01.000Z</time>
      </trkpt>
      <trkpt lat="47.26789" lon="-1.62882">
        <ele>62</ele>
        <time>2021-04-20T12:46:03.000Z</time>
      </trkpt>
      <trkpt lat="47.26785" lon="-1.62899">
        <ele>64</ele>
        <time>2021-04-20T12:46:05.000Z</time>
      </trkpt>
      <trkpt lat="47.26778" lon="-1.62914">
        <ele>64</ele>
        <time>2021-04-20T12:46:07.000Z</time>
      </trkpt>
      <trkpt lat="47.26773" lon="-1.6293">
        <ele>64</ele>
        <time>2021-04-20T12:46:09.000Z</time>
      </trkpt>
      <trkpt lat="47.26769" lon="-1.62946">
        <ele>65</ele>
        <time>2021-04-20T12:46:11.000Z</time>
      </trkpt>
      <trkpt lat="47.26765" lon="-1.62962">
        <ele>65</ele>
        <time>2021-04-20T12:46:13.000Z</time>
      </trkpt>
      <trkpt lat="47.26762" lon="-1.62979">
        <ele>65</ele>
        <time>2021-04-20T12:46:15.000Z</time>
      </trkpt>
      <trkpt lat="47.26763" lon="-1.62996">
        <ele>65</ele>
        <time>2021-04-20T12:46:17.000Z</time>
      </trkpt>
      <trkpt lat="47.26768" lon="-1.63012">
        <ele>65</ele>
        <time>2021-04-20T12:46:19.000Z</time>
      </trkpt>
      <trkpt lat="47.26775" lon="-1.63023">
        <ele>65</ele>
        <time>2021-04-20T12:46:21.000Z</time>
      </trkpt>
      <trkpt lat="47.26786" lon="-1.63027">
        <ele>65</ele>
        <time>2021-04-20T12:46:23.000Z</time>
      </trkpt>
      <trkpt lat="47.26798" lon="-1.63028">
        <ele>65</ele>
        <time>2021-04-20T12:46:25.000Z</time>
      </trkpt>
      <trkpt lat="47.26809" lon="-1.63031">
        <ele>65</ele>
        <time>2021-04-20T12:46:27.000Z</time>
      </trkpt>
      <trkpt lat="47.2682" lon="-1.63032">
        <ele>64</ele>
        <time>2021-04-20T12:46:29.000Z</time>
      </trkpt>
      <trkpt lat="47.2683" lon="-1.63034">
        <ele>65</ele>
        <time>2021-04-20T12:46:31.000Z</time>
      </trkpt>
      <trkpt lat="47.26839" lon="-1.63042">
        <ele>65</ele>
        <time>2021-04-20T12:46:33.000Z</time>
      </trkpt>
      <trkpt lat="47.26848" lon="-1.63055">
        <ele>65</ele>
        <time>2021-04-20T12:46:35.000Z</time>
      </trkpt>
      <trkpt lat="47.26856" lon="-1.6307">
        <ele>65</ele>
        <time>2021-04-20T12:46:37.000Z</time>
      </trkpt>
      <trkpt lat="47.26864" lon="-1.63083">
        <ele>65</ele>
        <time>2021-04-20T12:46:39.000Z</time>
      </trkpt>
      <trkpt lat="47.26871" lon="-1.63098">
        <ele>65</ele>
        <time>2021-04-20T12:46:41.000Z</time>
      </trkpt>
      <trkpt lat="47.26876" lon="-1.63114">
        <ele>66</ele>
        <time>2021-04-20T12:46:43.000Z</time>
      </trkpt>
      <trkpt lat="47.2688" lon="-1.63131">
        <ele>65</ele>
        <time>2021-04-20T12:46:45.000Z</time>
      </trkpt>
      <trkpt lat="47.26884" lon="-1.63147">
        <ele>65</ele>
        <time>2021-04-20T12:46:47.000Z</time>
      </trkpt>
      <trkpt lat="47.2689" lon="-1.63163">
        <ele>65</ele>
        <time>2021-04-20T12:46:49.000Z</time>
      </trkpt>
      <trkpt lat="47.26896" lon="-1.63176">
        <ele>65</ele>
        <time>2021-04-20T12:46:51.000Z</time>
      </trkpt>
      <trkpt lat="47.26896" lon="-1.63192">
        <ele>65</ele>
        <time>2021-04-20T12:46:53.000Z</time>
      </trkpt>
      <trkpt lat="47.26894" lon="-1.63208">
        <ele>66</ele>
        <time>2021-04-20T12:46:55.000Z</time>
      </trkpt>
      <trkpt lat="47.26893" lon="-1.63223">
        <ele>66</ele>
        <time>2021-04-20T12:46:57.000Z</time>
      </trkpt>
      <trkpt lat="47.26891" lon="-1.63238">
        <ele>66</ele>
        <time>2021-04-20T12:47:00.000Z</time>
      </trkpt>
      <trkpt lat="47.26892" lon="-1.63253">
        <ele>67</ele>
        <time>2021-04-20T12:47:04.000Z</time>
      </trkpt>
      <trkpt lat="47.26893" lon="-1.6327">
        <ele>68</ele>
        <time>2021-04-20T12:47:08.000Z</time>
      </trkpt>
      <trkpt lat="47.26894" lon="-1.63283">
        <ele>68</ele>
        <time>2021-04-20T12:47:12.000Z</time>
      </trkpt>
      <trkpt lat="47.26893" lon="-1.63298">
        <ele>67</ele>
        <time>2021-04-20T12:47:17.000Z</time>
      </trkpt>
      <trkpt lat="47.26891" lon="-1.63316">
        <ele>67</ele>
        <time>2021-04-20T12:47:20.000Z</time>
      </trkpt>
      <trkpt lat="47.2689" lon="-1.63329">
        <ele>67</ele>
        <time>2021-04-20T12:47:22.000Z</time>
      </trkpt>
      <trkpt lat="47.26891" lon="-1.63345">
        <ele>68</ele>
        <time>2021-04-20T12:47:25.000Z</time>
      </trkpt>
      <trkpt lat="47.2689" lon="-1.63358">
        <ele>69</ele>
        <time>2021-04-20T12:47:30.000Z</time>
      </trkpt>
      <trkpt lat="47.2689" lon="-1.63374">
        <ele>69</ele>
        <time>2021-04-20T12:47:34.000Z</time>
      </trkpt>
      <trkpt lat="47.2689" lon="-1.63388">
        <ele>69</ele>
        <time>2021-04-20T12:47:36.000Z</time>
      </trkpt>
      <trkpt lat="47.2689" lon="-1.63403">
        <ele>69</ele>
        <time>2021-04-20T12:47:38.000Z</time>
      </trkpt>
      <trkpt lat="47.2689" lon="-1.63419">
        <ele>70</ele>
        <time>2021-04-20T12:47:40.000Z</time>
      </trkpt>
      <trkpt lat="47.26889" lon="-1.63433">
        <ele>71</ele>
        <time>2021-04-20T12:47:42.000Z</time>
      </trkpt>
      <trkpt lat="47.26887" lon="-1.63448">
        <ele>72</ele>
        <time>2021-04-20T12:47:44.000Z</time>
      </trkpt>
      <trkpt lat="47.26886" lon="-1.63463">
        <ele>74</ele>
        <time>2021-04-20T12:47:46.000Z</time>
      </trkpt>
      <trkpt lat="47.26886" lon="-1.63477">
        <ele>75</ele>
        <time>2021-04-20T12:47:48.000Z</time>
      </trkpt>
      <trkpt lat="47.26887" lon="-1.63495">
        <ele>76</ele>
        <time>2021-04-20T12:47:51.000Z</time>
      </trkpt>
      <trkpt lat="47.26886" lon="-1.63514">
        <ele>77</ele>
        <time>2021-04-20T12:47:54.000Z</time>
      </trkpt>
      <trkpt lat="47.26886" lon="-1.63531">
        <ele>78</ele>
        <time>2021-04-20T12:47:57.000Z</time>
      </trkpt>
      <trkpt lat="47.26887" lon="-1.63551">
        <ele>79</ele>
        <time>2021-04-20T12:48:00.000Z</time>
      </trkpt>
      <trkpt lat="47.26884" lon="-1.63567">
        <ele>80</ele>
        <time>2021-04-20T12:48:03.000Z</time>
      </trkpt>
      <trkpt lat="47.26879" lon="-1.63581">
        <ele>80</ele>
        <time>2021-04-20T12:48:06.000Z</time>
      </trkpt>
      <trkpt lat="47.26877" lon="-1.63596">
        <ele>81</ele>
        <time>2021-04-20T12:48:09.000Z</time>
      </trkpt>
      <trkpt lat="47.26879" lon="-1.63611">
        <ele>81</ele>
        <time>2021-04-20T12:48:12.000Z</time>
      </trkpt>
      <trkpt lat="47.26884" lon="-1.63625">
        <ele>82</ele>
        <time>2021-04-20T12:48:15.000Z</time>
      </trkpt>
      <trkpt lat="47.26887" lon="-1.6364">
        <ele>82</ele>
        <time>2021-04-20T12:48:18.000Z</time>
      </trkpt>
      <trkpt lat="47.26886" lon="-1.63657">
        <ele>82</ele>
        <time>2021-04-20T12:48:21.000Z</time>
      </trkpt>
      <trkpt lat="47.26883" lon="-1.63673">
        <ele>85</ele>
        <time>2021-04-20T12:48:24.000Z</time>
      </trkpt>
      <trkpt lat="47.2688" lon="-1.63689">
        <ele>86</ele>
        <time>2021-04-20T12:48:27.000Z</time>
      </trkpt>
      <trkpt lat="47.26876" lon="-1.63705">
        <ele>86</ele>
        <time>2021-04-20T12:48:30.000Z</time>
      </trkpt>
      <trkpt lat="47.26875" lon="-1.63722">
        <ele>86</ele>
        <time>2021-04-20T12:48:33.000Z</time>
      </trkpt>
      <trkpt lat="47.26875" lon="-1.63742">
        <ele>87</ele>
        <time>2021-04-20T12:48:36.000Z</time>
      </trkpt>
      <trkpt lat="47.26875" lon="-1.63756">
        <ele>87</ele>
        <time>2021-04-20T12:48:38.000Z</time>
      </trkpt>
      <trkpt lat="47.26876" lon="-1.6377">
        <ele>87</ele>
        <time>2021-04-20T12:48:40.000Z</time>
      </trkpt>
      <trkpt lat="47.26878" lon="-1.63788">
        <ele>88</ele>
        <time>2021-04-20T12:48:43.000Z</time>
      </trkpt>
      <trkpt lat="47.26879" lon="-1.63806">
        <ele>87</ele>
        <time>2021-04-20T12:48:46.000Z</time>
      </trkpt>
      <trkpt lat="47.26878" lon="-1.63821">
        <ele>88</ele>
        <time>2021-04-20T12:48:49.000Z</time>
      </trkpt>
      <trkpt lat="47.2687" lon="-1.63829">
        <ele>88</ele>
        <time>2021-04-20T12:48:53.000Z</time>
      </trkpt>
      <trkpt lat="47.26861" lon="-1.63838">
        <ele>88</ele>
        <time>2021-04-20T12:48:56.000Z</time>
      </trkpt>
      <trkpt lat="47.26851" lon="-1.6385">
        <ele>88</ele>
        <time>2021-04-20T12:48:59.000Z</time>
      </trkpt>
      <trkpt lat="47.26843" lon="-1.63859">
        <ele>88</ele>
        <time>2021-04-20T12:49:01.000Z</time>
      </trkpt>
      <trkpt lat="47.26837" lon="-1.63869">
        <ele>88</ele>
        <time>2021-04-20T12:49:03.000Z</time>
      </trkpt>
      <trkpt lat="47.2683" lon="-1.63881">
        <ele>88</ele>
        <time>2021-04-20T12:49:07.000Z</time>
      </trkpt>
      <trkpt lat="47.26821" lon="-1.63889">
        <ele>87</ele>
        <time>2021-04-20T12:49:11.000Z</time>
      </trkpt>
      <trkpt lat="47.26813" lon="-1.63895">
        <ele>87</ele>
        <time>2021-04-20T12:49:14.000Z</time>
      </trkpt>
      <trkpt lat="47.26804" lon="-1.63906">
        <ele>86</ele>
        <time>2021-04-20T12:49:17.000Z</time>
      </trkpt>
      <trkpt lat="47.26798" lon="-1.63917">
        <ele>85</ele>
        <time>2021-04-20T12:49:19.000Z</time>
      </trkpt>
      <trkpt lat="47.26791" lon="-1.63926">
        <ele>85</ele>
        <time>2021-04-20T12:49:21.000Z</time>
      </trkpt>
      <trkpt lat="47.26782" lon="-1.63937">
        <ele>84</ele>
        <time>2021-04-20T12:49:24.000Z</time>
      </trkpt>
      <trkpt lat="47.26769" lon="-1.63944">
        <ele>82</ele>
        <time>2021-04-20T12:49:27.000Z</time>
      </trkpt>
      <trkpt lat="47.2676" lon="-1.63944">
        <ele>81</ele>
        <time>2021-04-20T12:49:30.000Z</time>
      </trkpt>
      <trkpt lat="47.2675" lon="-1.63942">
        <ele>77</ele>
        <time>2021-04-20T12:49:39.000Z</time>
      </trkpt>
      <trkpt lat="47.26742" lon="-1.63934">
        <ele>75</ele>
        <time>2021-04-20T12:49:43.000Z</time>
      </trkpt>
      <trkpt lat="47.26734" lon="-1.63946">
        <ele>74</ele>
        <time>2021-04-20T12:49:49.000Z</time>
      </trkpt>
      <trkpt lat="47.26732" lon="-1.63962">
        <ele>73</ele>
        <time>2021-04-20T12:49:53.000Z</time>
      </trkpt>
      <trkpt lat="47.26732" lon="-1.63977">
        <ele>72</ele>
        <time>2021-04-20T12:49:56.000Z</time>
      </trkpt>
      <trkpt lat="47.26735" lon="-1.63991">
        <ele>72</ele>
        <time>2021-04-20T12:49:59.000Z</time>
      </trkpt>
      <trkpt lat="47.26733" lon="-1.64008">
        <ele>72</ele>
        <time>2021-04-20T12:50:03.000Z</time>
      </trkpt>
      <trkpt lat="47.26728" lon="-1.64024">
        <ele>72</ele>
        <time>2021-04-20T12:50:07.000Z</time>
      </trkpt>
      <trkpt lat="47.26724" lon="-1.64037">
        <ele>72</ele>
        <time>2021-04-20T12:50:10.000Z</time>
      </trkpt>
      <trkpt lat="47.26719" lon="-1.64052">
        <ele>72</ele>
        <time>2021-04-20T12:50:13.000Z</time>
      </trkpt>
      <trkpt lat="47.26715" lon="-1.64065">
        <ele>72</ele>
        <time>2021-04-20T12:50:16.000Z</time>
      </trkpt>
      <trkpt lat="47.2671" lon="-1.6408">
        <ele>73</ele>
        <time>2021-04-20T12:50:20.000Z</time>
      </trkpt>
      <trkpt lat="47.26705" lon="-1.64092">
        <ele>74</ele>
        <time>2021-04-20T12:50:23.000Z</time>
      </trkpt>
      <trkpt lat="47.26699" lon="-1.64102">
        <ele>75</ele>
        <time>2021-04-20T12:50:26.000Z</time>
      </trkpt>
      <trkpt lat="47.26691" lon="-1.64111">
        <ele>76</ele>
        <time>2021-04-20T12:50:29.000Z</time>
      </trkpt>
      <trkpt lat="47.26684" lon="-1.64118">
        <ele>78</ele>
        <time>2021-04-20T12:50:32.000Z</time>
      </trkpt>
      <trkpt lat="47.26674" lon="-1.64123">
        <ele>80</ele>
        <time>2021-04-20T12:50:35.000Z</time>
      </trkpt>
      <trkpt lat="47.26663" lon="-1.64129">
        <ele>80</ele>
        <time>2021-04-20T12:50:39.000Z</time>
      </trkpt>
      <trkpt lat="47.26653" lon="-1.64131">
        <ele>79</ele>
        <time>2021-04-20T12:50:43.000Z</time>
      </trkpt>
      <trkpt lat="47.26644" lon="-1.64132">
        <ele>81</ele>
        <time>2021-04-20T12:50:47.000Z</time>
      </trkpt>
      <trkpt lat="47.26634" lon="-1.64133">
        <ele>80</ele>
        <time>2021-04-20T12:50:51.000Z</time>
      </trkpt>
      <trkpt lat="47.26623" lon="-1.64131">
        <ele>81</ele>
        <time>2021-04-20T12:50:56.000Z</time>
      </trkpt>
      <trkpt lat="47.26615" lon="-1.64128">
        <ele>81</ele>
        <time>2021-04-20T12:51:00.000Z</time>
      </trkpt>
      <trkpt lat="47.26606" lon="-1.64124">
        <ele>82</ele>
        <time>2021-04-20T12:51:04.000Z</time>
      </trkpt>
      <trkpt lat="47.26595" lon="-1.64121">
        <ele>82</ele>
        <time>2021-04-20T12:51:09.000Z</time>
      </trkpt>
      <trkpt lat="47.26584" lon="-1.64118">
        <ele>83</ele>
        <time>2021-04-20T12:51:14.000Z</time>
      </trkpt>
      <trkpt lat="47.26573" lon="-1.64117">
        <ele>85</ele>
        <time>2021-04-20T12:51:19.000Z</time>
      </trkpt>
      <trkpt lat="47.26563" lon="-1.64112">
        <ele>88</ele>
        <time>2021-04-20T12:51:23.000Z</time>
      </trkpt>
      <trkpt lat="47.26552" lon="-1.64107">
        <ele>90</ele>
        <time>2021-04-20T12:51:28.000Z</time>
      </trkpt>
      <trkpt lat="47.26543" lon="-1.64104">
        <ele>89</ele>
        <time>2021-04-20T12:51:32.000Z</time>
      </trkpt>
      <trkpt lat="47.26534" lon="-1.641">
        <ele>89</ele>
        <time>2021-04-20T12:51:36.000Z</time>
      </trkpt>
      <trkpt lat="47.26525" lon="-1.64094">
        <ele>88</ele>
        <time>2021-04-20T12:51:39.000Z</time>
      </trkpt>
      <trkpt lat="47.26513" lon="-1.64086">
        <ele>87</ele>
        <time>2021-04-20T12:51:43.000Z</time>
      </trkpt>
      <trkpt lat="47.26504" lon="-1.64077">
        <ele>87</ele>
        <time>2021-04-20T12:51:46.000Z</time>
      </trkpt>
      <trkpt lat="47.26494" lon="-1.64069">
        <ele>87</ele>
        <time>2021-04-20T12:51:49.000Z</time>
      </trkpt>
      <trkpt lat="47.26486" lon="-1.64062">
        <ele>89</ele>
        <time>2021-04-20T12:51:52.000Z</time>
      </trkpt>
      <trkpt lat="47.26476" lon="-1.64055">
        <ele>90</ele>
        <time>2021-04-20T12:51:56.000Z</time>
      </trkpt>
      <trkpt lat="47.26467" lon="-1.64055">
        <ele>93</ele>
        <time>2021-04-20T12:52:01.000Z</time>
      </trkpt>
      <trkpt lat="47.26461" lon="-1.64066">
        <ele>95</ele>
        <time>2021-04-20T12:52:04.000Z</time>
      </trkpt>
      <trkpt lat="47.26453" lon="-1.64078">
        <ele>98</ele>
        <time>2021-04-20T12:52:07.000Z</time>
      </trkpt>
      <trkpt lat="47.26444" lon="-1.64091">
        <ele>99</ele>
        <time>2021-04-20T12:52:10.000Z</time>
      </trkpt>
      <trkpt lat="47.26435" lon="-1.64104">
        <ele>100</ele>
        <time>2021-04-20T12:52:13.000Z</time>
      </trkpt>
      <trkpt lat="47.26427" lon="-1.64118">
        <ele>101</ele>
        <time>2021-04-20T12:52:16.000Z</time>
      </trkpt>
      <trkpt lat="47.2642" lon="-1.64128">
        <ele>101</ele>
        <time>2021-04-20T12:52:18.000Z</time>
      </trkpt>
      <trkpt lat="47.26414" lon="-1.64139">
        <ele>102</ele>
        <time>2021-04-20T12:52:20.000Z</time>
      </trkpt>
      <trkpt lat="47.26408" lon="-1.6415">
        <ele>102</ele>
        <time>2021-04-20T12:52:22.000Z</time>
      </trkpt>
      <trkpt lat="47.26402" lon="-1.64161">
        <ele>102</ele>
        <time>2021-04-20T12:52:24.000Z</time>
      </trkpt>
      <trkpt lat="47.26396" lon="-1.64171">
        <ele>102</ele>
        <time>2021-04-20T12:52:26.000Z</time>
      </trkpt>
      <trkpt lat="47.2639" lon="-1.64182">
        <ele>102</ele>
        <time>2021-04-20T12:52:28.000Z</time>
      </trkpt>
      <trkpt lat="47.26384" lon="-1.64194">
        <ele>102</ele>
        <time>2021-04-20T12:52:30.000Z</time>
      </trkpt>
      <trkpt lat="47.26378" lon="-1.64206">
        <ele>102</ele>
        <time>2021-04-20T12:52:32.000Z</time>
      </trkpt>
      <trkpt lat="47.26373" lon="-1.64218">
        <ele>102</ele>
        <time>2021-04-20T12:52:34.000Z</time>
      </trkpt>
      <trkpt lat="47.26368" lon="-1.64231">
        <ele>102</ele>
        <time>2021-04-20T12:52:36.000Z</time>
      </trkpt>
      <trkpt lat="47.26361" lon="-1.64243">
        <ele>102</ele>
        <time>2021-04-20T12:52:38.000Z</time>
      </trkpt>
      <trkpt lat="47.2635" lon="-1.64249">
        <ele>101</ele>
        <time>2021-04-20T12:52:40.000Z</time>
      </trkpt>
      <trkpt lat="47.26339" lon="-1.64256">
        <ele>101</ele>
        <time>2021-04-20T12:52:42.000Z</time>
      </trkpt>
      <trkpt lat="47.26325" lon="-1.64261">
        <ele>100</ele>
        <time>2021-04-20T12:52:44.000Z</time>
      </trkpt>
      <trkpt lat="47.2631" lon="-1.64266">
        <ele>99</ele>
        <time>2021-04-20T12:52:46.000Z</time>
      </trkpt>
      <trkpt lat="47.26287" lon="-1.64276">
        <ele>98</ele>
        <time>2021-04-20T12:52:49.000Z</time>
      </trkpt>
      <trkpt lat="47.26273" lon="-1.64283">
        <ele>98</ele>
        <time>2021-04-20T12:52:51.000Z</time>
      </trkpt>
      <trkpt lat="47.2626" lon="-1.64289">
        <ele>99</ele>
        <time>2021-04-20T12:52:53.000Z</time>
      </trkpt>
      <trkpt lat="47.2625" lon="-1.64296">
        <ele>99</ele>
        <time>2021-04-20T12:52:55.000Z</time>
      </trkpt>
      <trkpt lat="47.26239" lon="-1.64302">
        <ele>100</ele>
        <time>2021-04-20T12:52:57.000Z</time>
      </trkpt>
      <trkpt lat="47.26229" lon="-1.64306">
        <ele>100</ele>
        <time>2021-04-20T12:52:59.000Z</time>
      </trkpt>
      <trkpt lat="47.2622" lon="-1.64312">
        <ele>100</ele>
        <time>2021-04-20T12:53:01.000Z</time>
      </trkpt>
      <trkpt lat="47.26211" lon="-1.64317">
        <ele>100</ele>
        <time>2021-04-20T12:53:03.000Z</time>
      </trkpt>
      <trkpt lat="47.26201" lon="-1.64323">
        <ele>101</ele>
        <time>2021-04-20T12:53:05.000Z</time>
      </trkpt>
      <trkpt lat="47.26191" lon="-1.6433">
        <ele>101</ele>
        <time>2021-04-20T12:53:07.000Z</time>
      </trkpt>
      <trkpt lat="47.2618" lon="-1.64337">
        <ele>101</ele>
        <time>2021-04-20T12:53:09.000Z</time>
      </trkpt>
      <trkpt lat="47.26169" lon="-1.64344">
        <ele>102</ele>
        <time>2021-04-20T12:53:11.000Z</time>
      </trkpt>
      <trkpt lat="47.26159" lon="-1.6435">
        <ele>102</ele>
        <time>2021-04-20T12:53:13.000Z</time>
      </trkpt>
      <trkpt lat="47.26148" lon="-1.64357">
        <ele>102</ele>
        <time>2021-04-20T12:53:15.000Z</time>
      </trkpt>
      <trkpt lat="47.26138" lon="-1.64363">
        <ele>102</ele>
        <time>2021-04-20T12:53:17.000Z</time>
      </trkpt>
      <trkpt lat="47.26122" lon="-1.64373">
        <ele>102</ele>
        <time>2021-04-20T12:53:20.000Z</time>
      </trkpt>
      <trkpt lat="47.26112" lon="-1.64379">
        <ele>103</ele>
        <time>2021-04-20T12:53:22.000Z</time>
      </trkpt>
      <trkpt lat="47.26103" lon="-1.64386">
        <ele>103</ele>
        <time>2021-04-20T12:53:24.000Z</time>
      </trkpt>
      <trkpt lat="47.26096" lon="-1.64398">
        <ele>103</ele>
        <time>2021-04-20T12:53:26.000Z</time>
      </trkpt>
      <trkpt lat="47.26086" lon="-1.64407">
        <ele>103</ele>
        <time>2021-04-20T12:53:28.000Z</time>
      </trkpt>
      <trkpt lat="47.26075" lon="-1.64406">
        <ele>103</ele>
        <time>2021-04-20T12:53:30.000Z</time>
      </trkpt>
      <trkpt lat="47.26063" lon="-1.64405">
        <ele>103</ele>
        <time>2021-04-20T12:53:32.000Z</time>
      </trkpt>
      <trkpt lat="47.26054" lon="-1.64411">
        <ele>104</ele>
        <time>2021-04-20T12:53:34.000Z</time>
      </trkpt>
      <trkpt lat="47.26043" lon="-1.64418">
        <ele>104</ele>
        <time>2021-04-20T12:53:36.000Z</time>
      </trkpt>
      <trkpt lat="47.26032" lon="-1.64424">
        <ele>105</ele>
        <time>2021-04-20T12:53:38.000Z</time>
      </trkpt>
      <trkpt lat="47.26022" lon="-1.64429">
        <ele>105</ele>
        <time>2021-04-20T12:53:40.000Z</time>
      </trkpt>
      <trkpt lat="47.26011" lon="-1.64435">
        <ele>106</ele>
        <time>2021-04-20T12:53:42.000Z</time>
      </trkpt>
      <trkpt lat="47.26001" lon="-1.64441">
        <ele>106</ele>
        <time>2021-04-20T12:53:44.000Z</time>
      </trkpt>
      <trkpt lat="47.25991" lon="-1.64447">
        <ele>107</ele>
        <time>2021-04-20T12:53:46.000Z</time>
      </trkpt>
      <trkpt lat="47.2598" lon="-1.64453">
        <ele>107</ele>
        <time>2021-04-20T12:53:48.000Z</time>
      </trkpt>
      <trkpt lat="47.25969" lon="-1.64459">
        <ele>107</ele>
        <time>2021-04-20T12:53:50.000Z</time>
      </trkpt>
      <trkpt lat="47.25952" lon="-1.64468">
        <ele>107</ele>
        <time>2021-04-20T12:53:53.000Z</time>
      </trkpt>
      <trkpt lat="47.25943" lon="-1.64473">
        <ele>108</ele>
        <time>2021-04-20T12:53:55.000Z</time>
      </trkpt>
      <trkpt lat="47.25933" lon="-1.64479">
        <ele>108</ele>
        <time>2021-04-20T12:53:57.000Z</time>
      </trkpt>
      <trkpt lat="47.25923" lon="-1.64484">
        <ele>109</ele>
        <time>2021-04-20T12:53:59.000Z</time>
      </trkpt>
      <trkpt lat="47.25912" lon="-1.6449">
        <ele>109</ele>
        <time>2021-04-20T12:54:01.000Z</time>
      </trkpt>
      <trkpt lat="47.25902" lon="-1.64497">
        <ele>109</ele>
        <time>2021-04-20T12:54:03.000Z</time>
      </trkpt>
      <trkpt lat="47.25887" lon="-1.64505">
        <ele>109</ele>
        <time>2021-04-20T12:54:06.000Z</time>
      </trkpt>
      <trkpt lat="47.25872" lon="-1.64514">
        <ele>110</ele>
        <time>2021-04-20T12:54:09.000Z</time>
      </trkpt>
      <trkpt lat="47.25863" lon="-1.64519">
        <ele>109</ele>
        <time>2021-04-20T12:54:11.000Z</time>
      </trkpt>
      <trkpt lat="47.25849" lon="-1.64527">
        <ele>110</ele>
        <time>2021-04-20T12:54:14.000Z</time>
      </trkpt>
      <trkpt lat="47.25835" lon="-1.64535">
        <ele>109</ele>
        <time>2021-04-20T12:54:17.000Z</time>
      </trkpt>
      <trkpt lat="47.25825" lon="-1.6454">
        <ele>110</ele>
        <time>2021-04-20T12:54:19.000Z</time>
      </trkpt>
      <trkpt lat="47.25814" lon="-1.64546">
        <ele>110</ele>
        <time>2021-04-20T12:54:22.000Z</time>
      </trkpt>
      <trkpt lat="47.25805" lon="-1.64551">
        <ele>111</ele>
        <time>2021-04-20T12:54:27.000Z</time>
      </trkpt>
      <trkpt lat="47.25788" lon="-1.64551">
        <ele>111</ele>
        <time>2021-04-20T12:54:31.000Z</time>
      </trkpt>
      <trkpt lat="47.25779" lon="-1.64539">
        <ele>111</ele>
        <time>2021-04-20T12:54:33.000Z</time>
      </trkpt>
      <trkpt lat="47.25773" lon="-1.64524">
        <ele>111</ele>
        <time>2021-04-20T12:54:35.000Z</time>
      </trkpt>
      <trkpt lat="47.25766" lon="-1.6451">
        <ele>110</ele>
        <time>2021-04-20T12:54:37.000Z</time>
      </trkpt>
      <trkpt lat="47.25758" lon="-1.64495">
        <ele>109</ele>
        <time>2021-04-20T12:54:39.000Z</time>
      </trkpt>
      <trkpt lat="47.2575" lon="-1.64481">
        <ele>109</ele>
        <time>2021-04-20T12:54:41.000Z</time>
      </trkpt>
      <trkpt lat="47.25741" lon="-1.64468">
        <ele>109</ele>
        <time>2021-04-20T12:54:43.000Z</time>
      </trkpt>
      <trkpt lat="47.25731" lon="-1.64455">
        <ele>109</ele>
        <time>2021-04-20T12:54:45.000Z</time>
      </trkpt>
      <trkpt lat="47.25715" lon="-1.64436">
        <ele>108</ele>
        <time>2021-04-20T12:54:48.000Z</time>
      </trkpt>
      <trkpt lat="47.25703" lon="-1.64425">
        <ele>108</ele>
        <time>2021-04-20T12:54:50.000Z</time>
      </trkpt>
      <trkpt lat="47.2569" lon="-1.64415">
        <ele>108</ele>
        <time>2021-04-20T12:54:52.000Z</time>
      </trkpt>
      <trkpt lat="47.25677" lon="-1.64406">
        <ele>108</ele>
        <time>2021-04-20T12:54:54.000Z</time>
      </trkpt>
      <trkpt lat="47.25664" lon="-1.64398">
        <ele>108</ele>
        <time>2021-04-20T12:54:56.000Z</time>
      </trkpt>
      <trkpt lat="47.2565" lon="-1.64391">
        <ele>108</ele>
        <time>2021-04-20T12:54:58.000Z</time>
      </trkpt>
      <trkpt lat="47.25636" lon="-1.64385">
        <ele>108</ele>
        <time>2021-04-20T12:55:00.000Z</time>
      </trkpt>
      <trkpt lat="47.25622" lon="-1.6438">
        <ele>108</ele>
        <time>2021-04-20T12:55:02.000Z</time>
      </trkpt>
      <trkpt lat="47.25607" lon="-1.64374">
        <ele>108</ele>
        <time>2021-04-20T12:55:04.000Z</time>
      </trkpt>
      <trkpt lat="47.25592" lon="-1.64369">
        <ele>108</ele>
        <time>2021-04-20T12:55:06.000Z</time>
      </trkpt>
      <trkpt lat="47.25578" lon="-1.64363">
        <ele>107</ele>
        <time>2021-04-20T12:55:08.000Z</time>
      </trkpt>
      <trkpt lat="47.25566" lon="-1.64355">
        <ele>107</ele>
        <time>2021-04-20T12:55:10.000Z</time>
      </trkpt>
      <trkpt lat="47.25555" lon="-1.64345">
        <ele>105</ele>
        <time>2021-04-20T12:55:12.000Z</time>
      </trkpt>
      <trkpt lat="47.25544" lon="-1.64333">
        <ele>105</ele>
        <time>2021-04-20T12:55:14.000Z</time>
      </trkpt>
      <trkpt lat="47.25535" lon="-1.64321">
        <ele>104</ele>
        <time>2021-04-20T12:55:16.000Z</time>
      </trkpt>
      <trkpt lat="47.25523" lon="-1.64309">
        <ele>105</ele>
        <time>2021-04-20T12:55:18.000Z</time>
      </trkpt>
      <trkpt lat="47.25505" lon="-1.64297">
        <ele>105</ele>
        <time>2021-04-20T12:55:21.000Z</time>
      </trkpt>
      <trkpt lat="47.25492" lon="-1.64292">
        <ele>106</ele>
        <time>2021-04-20T12:55:23.000Z</time>
      </trkpt>
      <trkpt lat="47.25479" lon="-1.6429">
        <ele>106</ele>
        <time>2021-04-20T12:55:25.000Z</time>
      </trkpt>
      <trkpt lat="47.25464" lon="-1.64291">
        <ele>106</ele>
        <time>2021-04-20T12:55:27.000Z</time>
      </trkpt>
      <trkpt lat="47.2545" lon="-1.64294">
        <ele>106</ele>
        <time>2021-04-20T12:55:29.000Z</time>
      </trkpt>
      <trkpt lat="47.25435" lon="-1.64298">
        <ele>105</ele>
        <time>2021-04-20T12:55:31.000Z</time>
      </trkpt>
      <trkpt lat="47.25421" lon="-1.64303">
        <ele>104</ele>
        <time>2021-04-20T12:55:33.000Z</time>
      </trkpt>
      <trkpt lat="47.25407" lon="-1.64307">
        <ele>104</ele>
        <time>2021-04-20T12:55:35.000Z</time>
      </trkpt>
      <trkpt lat="47.25392" lon="-1.64311">
        <ele>103</ele>
        <time>2021-04-20T12:55:37.000Z</time>
      </trkpt>
      <trkpt lat="47.25378" lon="-1.64316">
        <ele>103</ele>
        <time>2021-04-20T12:55:39.000Z</time>
      </trkpt>
      <trkpt lat="47.25364" lon="-1.64322">
        <ele>103</ele>
        <time>2021-04-20T12:55:41.000Z</time>
      </trkpt>
      <trkpt lat="47.2535" lon="-1.64327">
        <ele>102</ele>
        <time>2021-04-20T12:55:43.000Z</time>
      </trkpt>
      <trkpt lat="47.25336" lon="-1.64332">
        <ele>102</ele>
        <time>2021-04-20T12:55:45.000Z</time>
      </trkpt>
      <trkpt lat="47.25322" lon="-1.6434">
        <ele>101</ele>
        <time>2021-04-20T12:55:47.000Z</time>
      </trkpt>
      <trkpt lat="47.25309" lon="-1.6435">
        <ele>101</ele>
        <time>2021-04-20T12:55:49.000Z</time>
      </trkpt>
      <trkpt lat="47.25296" lon="-1.64362">
        <ele>100</ele>
        <time>2021-04-20T12:55:51.000Z</time>
      </trkpt>
      <trkpt lat="47.25284" lon="-1.64373">
        <ele>101</ele>
        <time>2021-04-20T12:55:53.000Z</time>
      </trkpt>
      <trkpt lat="47.2527" lon="-1.64385">
        <ele>100</ele>
        <time>2021-04-20T12:55:55.000Z</time>
      </trkpt>
      <trkpt lat="47.25257" lon="-1.64397">
        <ele>100</ele>
        <time>2021-04-20T12:55:57.000Z</time>
      </trkpt>
      <trkpt lat="47.25244" lon="-1.64408">
        <ele>100</ele>
        <time>2021-04-20T12:55:59.000Z</time>
      </trkpt>
      <trkpt lat="47.2523" lon="-1.6442">
        <ele>100</ele>
        <time>2021-04-20T12:56:01.000Z</time>
      </trkpt>
      <trkpt lat="47.25217" lon="-1.6443">
        <ele>99</ele>
        <time>2021-04-20T12:56:03.000Z</time>
      </trkpt>
      <trkpt lat="47.25203" lon="-1.64441">
        <ele>98</ele>
        <time>2021-04-20T12:56:05.000Z</time>
      </trkpt>
      <trkpt lat="47.25189" lon="-1.64452">
        <ele>98</ele>
        <time>2021-04-20T12:56:07.000Z</time>
      </trkpt>
      <trkpt lat="47.25174" lon="-1.64463">
        <ele>97</ele>
        <time>2021-04-20T12:56:09.000Z</time>
      </trkpt>
      <trkpt lat="47.25159" lon="-1.64473">
        <ele>97</ele>
        <time>2021-04-20T12:56:11.000Z</time>
      </trkpt>
      <trkpt lat="47.25144" lon="-1.64483">
        <ele>96</ele>
        <time>2021-04-20T12:56:13.000Z</time>
      </trkpt>
      <trkpt lat="47.2513" lon="-1.64493">
        <ele>95</ele>
        <time>2021-04-20T12:56:15.000Z</time>
      </trkpt>
      <trkpt lat="47.25114" lon="-1.64505">
        <ele>94</ele>
        <time>2021-04-20T12:56:17.000Z</time>
      </trkpt>
      <trkpt lat="47.25106" lon="-1.64513">
        <ele>94</ele>
        <time>2021-04-20T12:56:18.000Z</time>
      </trkpt>
      <trkpt lat="47.25099" lon="-1.6452">
        <ele>94</ele>
        <time>2021-04-20T12:56:19.000Z</time>
      </trkpt>
      <trkpt lat="47.25091" lon="-1.64529">
        <ele>93</ele>
        <time>2021-04-20T12:56:20.000Z</time>
      </trkpt>
      <trkpt lat="47.25083" lon="-1.64536">
        <ele>93</ele>
        <time>2021-04-20T12:56:21.000Z</time>
      </trkpt>
      <trkpt lat="47.25075" lon="-1.64545">
        <ele>92</ele>
        <time>2021-04-20T12:56:22.000Z</time>
      </trkpt>
      <trkpt lat="47.25059" lon="-1.64561">
        <ele>92</ele>
        <time>2021-04-20T12:56:24.000Z</time>
      </trkpt>
      <trkpt lat="47.2505" lon="-1.64569">
        <ele>91</ele>
        <time>2021-04-20T12:56:25.000Z</time>
      </trkpt>
      <trkpt lat="47.25042" lon="-1.64577">
        <ele>90</ele>
        <time>2021-04-20T12:56:26.000Z</time>
      </trkpt>
      <trkpt lat="47.25034" lon="-1.64585">
        <ele>89</ele>
        <time>2021-04-20T12:56:27.000Z</time>
      </trkpt>
      <trkpt lat="47.25026" lon="-1.64593">
        <ele>89</ele>
        <time>2021-04-20T12:56:28.000Z</time>
      </trkpt>
      <trkpt lat="47.25007" lon="-1.64608">
        <ele>88</ele>
        <time>2021-04-20T12:56:30.000Z</time>
      </trkpt>
      <trkpt lat="47.24998" lon="-1.64615">
        <ele>87</ele>
        <time>2021-04-20T12:56:31.000Z</time>
      </trkpt>
      <trkpt lat="47.24988" lon="-1.64621">
        <ele>86</ele>
        <time>2021-04-20T12:56:32.000Z</time>
      </trkpt>
      <trkpt lat="47.24977" lon="-1.64626">
        <ele>85</ele>
        <time>2021-04-20T12:56:33.000Z</time>
      </trkpt>
      <trkpt lat="47.24966" lon="-1.6463">
        <ele>84</ele>
        <time>2021-04-20T12:56:34.000Z</time>
      </trkpt>
      <trkpt lat="47.24945" lon="-1.64636">
        <ele>82</ele>
        <time>2021-04-20T12:56:36.000Z</time>
      </trkpt>
      <trkpt lat="47.24934" lon="-1.64639">
        <ele>81</ele>
        <time>2021-04-20T12:56:37.000Z</time>
      </trkpt>
      <trkpt lat="47.24923" lon="-1.6464">
        <ele>80</ele>
        <time>2021-04-20T12:56:38.000Z</time>
      </trkpt>
      <trkpt lat="47.24912" lon="-1.64641">
        <ele>79</ele>
        <time>2021-04-20T12:56:39.000Z</time>
      </trkpt>
      <trkpt lat="47.24901" lon="-1.64642">
        <ele>79</ele>
        <time>2021-04-20T12:56:40.000Z</time>
      </trkpt>
      <trkpt lat="47.2489" lon="-1.64644">
        <ele>78</ele>
        <time>2021-04-20T12:56:41.000Z</time>
      </trkpt>
      <trkpt lat="47.24879" lon="-1.64645">
        <ele>77</ele>
        <time>2021-04-20T12:56:42.000Z</time>
      </trkpt>
      <trkpt lat="47.24868" lon="-1.64647">
        <ele>76</ele>
        <time>2021-04-20T12:56:43.000Z</time>
      </trkpt>
      <trkpt lat="47.24858" lon="-1.64648">
        <ele>76</ele>
        <time>2021-04-20T12:56:44.000Z</time>
      </trkpt>
      <trkpt lat="47.24847" lon="-1.64649">
        <ele>75</ele>
        <time>2021-04-20T12:56:45.000Z</time>
      </trkpt>
      <trkpt lat="47.24836" lon="-1.6465">
        <ele>75</ele>
        <time>2021-04-20T12:56:46.000Z</time>
      </trkpt>
      <trkpt lat="47.24825" lon="-1.64651">
        <ele>74</ele>
        <time>2021-04-20T12:56:47.000Z</time>
      </trkpt>
      <trkpt lat="47.24815" lon="-1.64652">
        <ele>73</ele>
        <time>2021-04-20T12:56:48.000Z</time>
      </trkpt>
      <trkpt lat="47.24805" lon="-1.64653">
        <ele>73</ele>
        <time>2021-04-20T12:56:49.000Z</time>
      </trkpt>
      <trkpt lat="47.24795" lon="-1.64654">
        <ele>72</ele>
        <time>2021-04-20T12:56:50.000Z</time>
      </trkpt>
      <trkpt lat="47.24786" lon="-1.64655">
        <ele>72</ele>
        <time>2021-04-20T12:56:51.000Z</time>
      </trkpt>
      <trkpt lat="47.24777" lon="-1.64658">
        <ele>72</ele>
        <time>2021-04-20T12:56:52.000Z</time>
      </trkpt>
      <trkpt lat="47.2476" lon="-1.64664">
        <ele>72</ele>
        <time>2021-04-20T12:56:54.000Z</time>
      </trkpt>
      <trkpt lat="47.24747" lon="-1.64677">
        <ele>72</ele>
        <time>2021-04-20T12:56:56.000Z</time>
      </trkpt>
      <trkpt lat="47.24735" lon="-1.64693">
        <ele>72</ele>
        <time>2021-04-20T12:56:58.000Z</time>
      </trkpt>
      <trkpt lat="47.24724" lon="-1.6471">
        <ele>73</ele>
        <time>2021-04-20T12:57:00.000Z</time>
      </trkpt>
      <trkpt lat="47.24715" lon="-1.64727">
        <ele>73</ele>
        <time>2021-04-20T12:57:02.000Z</time>
      </trkpt>
      <trkpt lat="47.24706" lon="-1.64743">
        <ele>74</ele>
        <time>2021-04-20T12:57:04.000Z</time>
      </trkpt>
      <trkpt lat="47.24698" lon="-1.64758">
        <ele>74</ele>
        <time>2021-04-20T12:57:06.000Z</time>
      </trkpt>
      <trkpt lat="47.2469" lon="-1.64772">
        <ele>75</ele>
        <time>2021-04-20T12:57:08.000Z</time>
      </trkpt>
      <trkpt lat="47.24682" lon="-1.64784">
        <ele>76</ele>
        <time>2021-04-20T12:57:10.000Z</time>
      </trkpt>
      <trkpt lat="47.24673" lon="-1.64795">
        <ele>77</ele>
        <time>2021-04-20T12:57:12.000Z</time>
      </trkpt>
      <trkpt lat="47.24663" lon="-1.64805">
        <ele>76</ele>
        <time>2021-04-20T12:57:14.000Z</time>
      </trkpt>
      <trkpt lat="47.24652" lon="-1.64813">
        <ele>77</ele>
        <time>2021-04-20T12:57:16.000Z</time>
      </trkpt>
      <trkpt lat="47.2464" lon="-1.64821">
        <ele>77</ele>
        <time>2021-04-20T12:57:18.000Z</time>
      </trkpt>
      <trkpt lat="47.24629" lon="-1.64829">
        <ele>78</ele>
        <time>2021-04-20T12:57:20.000Z</time>
      </trkpt>
      <trkpt lat="47.24618" lon="-1.64837">
        <ele>79</ele>
        <time>2021-04-20T12:57:22.000Z</time>
      </trkpt>
      <trkpt lat="47.24607" lon="-1.64843">
        <ele>79</ele>
        <time>2021-04-20T12:57:24.000Z</time>
      </trkpt>
      <trkpt lat="47.24596" lon="-1.6485">
        <ele>80</ele>
        <time>2021-04-20T12:57:26.000Z</time>
      </trkpt>
      <trkpt lat="47.24586" lon="-1.64856">
        <ele>81</ele>
        <time>2021-04-20T12:57:28.000Z</time>
      </trkpt>
      <trkpt lat="47.24575" lon="-1.64863">
        <ele>82</ele>
        <time>2021-04-20T12:57:30.000Z</time>
      </trkpt>
      <trkpt lat="47.24563" lon="-1.6487">
        <ele>83</ele>
        <time>2021-04-20T12:57:32.000Z</time>
      </trkpt>
      <trkpt lat="47.24551" lon="-1.64877">
        <ele>84</ele>
        <time>2021-04-20T12:57:34.000Z</time>
      </trkpt>
      <trkpt lat="47.2454" lon="-1.64883">
        <ele>84</ele>
        <time>2021-04-20T12:57:36.000Z</time>
      </trkpt>
      <trkpt lat="47.2453" lon="-1.6489">
        <ele>85</ele>
        <time>2021-04-20T12:57:38.000Z</time>
      </trkpt>
      <trkpt lat="47.24518" lon="-1.64897">
        <ele>85</ele>
        <time>2021-04-20T12:57:40.000Z</time>
      </trkpt>
      <trkpt lat="47.24508" lon="-1.64905">
        <ele>85</ele>
        <time>2021-04-20T12:57:42.000Z</time>
      </trkpt>
      <trkpt lat="47.24496" lon="-1.64911">
        <ele>85</ele>
        <time>2021-04-20T12:57:44.000Z</time>
      </trkpt>
      <trkpt lat="47.24486" lon="-1.64918">
        <ele>86</ele>
        <time>2021-04-20T12:57:46.000Z</time>
      </trkpt>
      <trkpt lat="47.24476" lon="-1.64925">
        <ele>87</ele>
        <time>2021-04-20T12:57:48.000Z</time>
      </trkpt>
      <trkpt lat="47.24465" lon="-1.64932">
        <ele>87</ele>
        <time>2021-04-20T12:57:50.000Z</time>
      </trkpt>
      <trkpt lat="47.24455" lon="-1.64938">
        <ele>88</ele>
        <time>2021-04-20T12:57:52.000Z</time>
      </trkpt>
      <trkpt lat="47.24445" lon="-1.64945">
        <ele>88</ele>
        <time>2021-04-20T12:57:54.000Z</time>
      </trkpt>
      <trkpt lat="47.24435" lon="-1.64951">
        <ele>88</ele>
        <time>2021-04-20T12:57:56.000Z</time>
      </trkpt>
      <trkpt lat="47.24425" lon="-1.64956">
        <ele>88</ele>
        <time>2021-04-20T12:57:58.000Z</time>
      </trkpt>
      <trkpt lat="47.24415" lon="-1.6496">
        <ele>88</ele>
        <time>2021-04-20T12:58:00.000Z</time>
      </trkpt>
      <trkpt lat="47.24405" lon="-1.64963">
        <ele>88</ele>
        <time>2021-04-20T12:58:02.000Z</time>
      </trkpt>
      <trkpt lat="47.24394" lon="-1.64965">
        <ele>88</ele>
        <time>2021-04-20T12:58:04.000Z</time>
      </trkpt>
      <trkpt lat="47.24382" lon="-1.64964">
        <ele>88</ele>
        <time>2021-04-20T12:58:06.000Z</time>
      </trkpt>
      <trkpt lat="47.24371" lon="-1.64963">
        <ele>88</ele>
        <time>2021-04-20T12:58:08.000Z</time>
      </trkpt>
      <trkpt lat="47.24359" lon="-1.6496">
        <ele>88</ele>
        <time>2021-04-20T12:58:10.000Z</time>
      </trkpt>
      <trkpt lat="47.24347" lon="-1.64955">
        <ele>88</ele>
        <time>2021-04-20T12:58:12.000Z</time>
      </trkpt>
      <trkpt lat="47.24335" lon="-1.64949">
        <ele>87</ele>
        <time>2021-04-20T12:58:14.000Z</time>
      </trkpt>
      <trkpt lat="47.24323" lon="-1.64942">
        <ele>87</ele>
        <time>2021-04-20T12:58:16.000Z</time>
      </trkpt>
      <trkpt lat="47.24311" lon="-1.64934">
        <ele>87</ele>
        <time>2021-04-20T12:58:18.000Z</time>
      </trkpt>
      <trkpt lat="47.24299" lon="-1.64927">
        <ele>86</ele>
        <time>2021-04-20T12:58:20.000Z</time>
      </trkpt>
      <trkpt lat="47.24286" lon="-1.6492">
        <ele>86</ele>
        <time>2021-04-20T12:58:22.000Z</time>
      </trkpt>
      <trkpt lat="47.24274" lon="-1.64912">
        <ele>86</ele>
        <time>2021-04-20T12:58:24.000Z</time>
      </trkpt>
      <trkpt lat="47.24261" lon="-1.64905">
        <ele>85</ele>
        <time>2021-04-20T12:58:26.000Z</time>
      </trkpt>
      <trkpt lat="47.24248" lon="-1.64899">
        <ele>85</ele>
        <time>2021-04-20T12:58:28.000Z</time>
      </trkpt>
      <trkpt lat="47.24235" lon="-1.64893">
        <ele>84</ele>
        <time>2021-04-20T12:58:30.000Z</time>
      </trkpt>
      <trkpt lat="47.24222" lon="-1.64891">
        <ele>84</ele>
        <time>2021-04-20T12:58:32.000Z</time>
      </trkpt>
      <trkpt lat="47.24209" lon="-1.64891">
        <ele>84</ele>
        <time>2021-04-20T12:58:34.000Z</time>
      </trkpt>
      <trkpt lat="47.24196" lon="-1.64895">
        <ele>85</ele>
        <time>2021-04-20T12:58:36.000Z</time>
      </trkpt>
      <trkpt lat="47.24185" lon="-1.64902">
        <ele>85</ele>
        <time>2021-04-20T12:58:38.000Z</time>
      </trkpt>
      <trkpt lat="47.24174" lon="-1.64913">
        <ele>86</ele>
        <time>2021-04-20T12:58:40.000Z</time>
      </trkpt>
      <trkpt lat="47.24164" lon="-1.64924">
        <ele>86</ele>
        <time>2021-04-20T12:58:42.000Z</time>
      </trkpt>
      <trkpt lat="47.24155" lon="-1.64935">
        <ele>87</ele>
        <time>2021-04-20T12:58:44.000Z</time>
      </trkpt>
      <trkpt lat="47.24146" lon="-1.64946">
        <ele>88</ele>
        <time>2021-04-20T12:58:46.000Z</time>
      </trkpt>
      <trkpt lat="47.24137" lon="-1.64958">
        <ele>88</ele>
        <time>2021-04-20T12:58:48.000Z</time>
      </trkpt>
      <trkpt lat="47.24129" lon="-1.64969">
        <ele>89</ele>
        <time>2021-04-20T12:58:50.000Z</time>
      </trkpt>
      <trkpt lat="47.2412" lon="-1.6498">
        <ele>89</ele>
        <time>2021-04-20T12:58:52.000Z</time>
      </trkpt>
      <trkpt lat="47.2411" lon="-1.64989">
        <ele>90</ele>
        <time>2021-04-20T12:58:54.000Z</time>
      </trkpt>
      <trkpt lat="47.241" lon="-1.64994">
        <ele>91</ele>
        <time>2021-04-20T12:58:56.000Z</time>
      </trkpt>
      <trkpt lat="47.24089" lon="-1.64998">
        <ele>91</ele>
        <time>2021-04-20T12:58:58.000Z</time>
      </trkpt>
      <trkpt lat="47.24077" lon="-1.64997">
        <ele>90</ele>
        <time>2021-04-20T12:59:00.000Z</time>
      </trkpt>
      <trkpt lat="47.24064" lon="-1.64991">
        <ele>89</ele>
        <time>2021-04-20T12:59:02.000Z</time>
      </trkpt>
      <trkpt lat="47.24052" lon="-1.64984">
        <ele>89</ele>
        <time>2021-04-20T12:59:04.000Z</time>
      </trkpt>
      <trkpt lat="47.2404" lon="-1.64978">
        <ele>89</ele>
        <time>2021-04-20T12:59:06.000Z</time>
      </trkpt>
      <trkpt lat="47.24027" lon="-1.64971">
        <ele>89</ele>
        <time>2021-04-20T12:59:08.000Z</time>
      </trkpt>
      <trkpt lat="47.24015" lon="-1.64965">
        <ele>89</ele>
        <time>2021-04-20T12:59:10.000Z</time>
      </trkpt>
      <trkpt lat="47.24003" lon="-1.6496">
        <ele>89</ele>
        <time>2021-04-20T12:59:12.000Z</time>
      </trkpt>
      <trkpt lat="47.23993" lon="-1.64956">
        <ele>89</ele>
        <time>2021-04-20T12:59:14.000Z</time>
      </trkpt>
      <trkpt lat="47.23983" lon="-1.64952">
        <ele>89</ele>
        <time>2021-04-20T12:59:16.000Z</time>
      </trkpt>
      <trkpt lat="47.23972" lon="-1.64948">
        <ele>89</ele>
        <time>2021-04-20T12:59:18.000Z</time>
      </trkpt>
      <trkpt lat="47.23962" lon="-1.64946">
        <ele>89</ele>
        <time>2021-04-20T12:59:20.000Z</time>
      </trkpt>
      <trkpt lat="47.23952" lon="-1.64946">
        <ele>88</ele>
        <time>2021-04-20T12:59:22.000Z</time>
      </trkpt>
      <trkpt lat="47.2394" lon="-1.64947">
        <ele>89</ele>
        <time>2021-04-20T12:59:24.000Z</time>
      </trkpt>
      <trkpt lat="47.23928" lon="-1.64949">
        <ele>89</ele>
        <time>2021-04-20T12:59:26.000Z</time>
      </trkpt>
      <trkpt lat="47.23916" lon="-1.64953">
        <ele>90</ele>
        <time>2021-04-20T12:59:28.000Z</time>
      </trkpt>
      <trkpt lat="47.23905" lon="-1.64958">
        <ele>92</ele>
        <time>2021-04-20T12:59:30.000Z</time>
      </trkpt>
      <trkpt lat="47.23893" lon="-1.64963">
        <ele>93</ele>
        <time>2021-04-20T12:59:32.000Z</time>
      </trkpt>
      <trkpt lat="47.23882" lon="-1.64968">
        <ele>93</ele>
        <time>2021-04-20T12:59:34.000Z</time>
      </trkpt>
      <trkpt lat="47.23871" lon="-1.64973">
        <ele>94</ele>
        <time>2021-04-20T12:59:36.000Z</time>
      </trkpt>
      <trkpt lat="47.2386" lon="-1.64976">
        <ele>95</ele>
        <time>2021-04-20T12:59:38.000Z</time>
      </trkpt>
      <trkpt lat="47.23848" lon="-1.6498">
        <ele>95</ele>
        <time>2021-04-20T12:59:40.000Z</time>
      </trkpt>
      <trkpt lat="47.23837" lon="-1.64984">
        <ele>95</ele>
        <time>2021-04-20T12:59:42.000Z</time>
      </trkpt>
      <trkpt lat="47.23826" lon="-1.64989">
        <ele>96</ele>
        <time>2021-04-20T12:59:44.000Z</time>
      </trkpt>
      <trkpt lat="47.23815" lon="-1.64993">
        <ele>96</ele>
        <time>2021-04-20T12:59:46.000Z</time>
      </trkpt>
      <trkpt lat="47.23804" lon="-1.64999">
        <ele>97</ele>
        <time>2021-04-20T12:59:48.000Z</time>
      </trkpt>
      <trkpt lat="47.23793" lon="-1.65003">
        <ele>97</ele>
        <time>2021-04-20T12:59:50.000Z</time>
      </trkpt>
      <trkpt lat="47.23783" lon="-1.65007">
        <ele>98</ele>
        <time>2021-04-20T12:59:52.000Z</time>
      </trkpt>
      <trkpt lat="47.23772" lon="-1.65011">
        <ele>99</ele>
        <time>2021-04-20T12:59:54.000Z</time>
      </trkpt>
      <trkpt lat="47.23761" lon="-1.65013">
        <ele>99</ele>
        <time>2021-04-20T12:59:56.000Z</time>
      </trkpt>
      <trkpt lat="47.2375" lon="-1.65015">
        <ele>100</ele>
        <time>2021-04-20T12:59:58.000Z</time>
      </trkpt>
      <trkpt lat="47.23738" lon="-1.65017">
        <ele>100</ele>
        <time>2021-04-20T13:00:00.000Z</time>
      </trkpt>
      <trkpt lat="47.23727" lon="-1.65017">
        <ele>99</ele>
        <time>2021-04-20T13:00:02.000Z</time>
      </trkpt>
      <trkpt lat="47.23716" lon="-1.65019">
        <ele>99</ele>
        <time>2021-04-20T13:00:04.000Z</time>
      </trkpt>
      <trkpt lat="47.23705" lon="-1.65021">
        <ele>100</ele>
        <time>2021-04-20T13:00:06.000Z</time>
      </trkpt>
      <trkpt lat="47.23694" lon="-1.65023">
        <ele>100</ele>
        <time>2021-04-20T13:00:08.000Z</time>
      </trkpt>
      <trkpt lat="47.23683" lon="-1.65025">
        <ele>100</ele>
        <time>2021-04-20T13:00:10.000Z</time>
      </trkpt>
      <trkpt lat="47.23672" lon="-1.65027">
        <ele>100</ele>
        <time>2021-04-20T13:00:12.000Z</time>
      </trkpt>
      <trkpt lat="47.23661" lon="-1.65029">
        <ele>100</ele>
        <time>2021-04-20T13:00:14.000Z</time>
      </trkpt>
      <trkpt lat="47.23651" lon="-1.65032">
        <ele>100</ele>
        <time>2021-04-20T13:00:16.000Z</time>
      </trkpt>
      <trkpt lat="47.2364" lon="-1.65037">
        <ele>100</ele>
        <time>2021-04-20T13:00:18.000Z</time>
      </trkpt>
      <trkpt lat="47.2363" lon="-1.65043">
        <ele>100</ele>
        <time>2021-04-20T13:00:20.000Z</time>
      </trkpt>
      <trkpt lat="47.23619" lon="-1.65051">
        <ele>100</ele>
        <time>2021-04-20T13:00:22.000Z</time>
      </trkpt>
      <trkpt lat="47.2361" lon="-1.65059">
        <ele>101</ele>
        <time>2021-04-20T13:00:24.000Z</time>
      </trkpt>
      <trkpt lat="47.236" lon="-1.65067">
        <ele>101</ele>
        <time>2021-04-20T13:00:26.000Z</time>
      </trkpt>
      <trkpt lat="47.2359" lon="-1.65076">
        <ele>101</ele>
        <time>2021-04-20T13:00:28.000Z</time>
      </trkpt>
      <trkpt lat="47.23579" lon="-1.65084">
        <ele>101</ele>
        <time>2021-04-20T13:00:30.000Z</time>
      </trkpt>
      <trkpt lat="47.23569" lon="-1.65092">
        <ele>102</ele>
        <time>2021-04-20T13:00:32.000Z</time>
      </trkpt>
      <trkpt lat="47.23559" lon="-1.651">
        <ele>101</ele>
        <time>2021-04-20T13:00:34.000Z</time>
      </trkpt>
      <trkpt lat="47.23548" lon="-1.65108">
        <ele>102</ele>
        <time>2021-04-20T13:00:36.000Z</time>
      </trkpt>
      <trkpt lat="47.23538" lon="-1.65116">
        <ele>102</ele>
        <time>2021-04-20T13:00:38.000Z</time>
      </trkpt>
      <trkpt lat="47.23529" lon="-1.65123">
        <ele>101</ele>
        <time>2021-04-20T13:00:40.000Z</time>
      </trkpt>
      <trkpt lat="47.23519" lon="-1.65131">
        <ele>101</ele>
        <time>2021-04-20T13:00:42.000Z</time>
      </trkpt>
      <trkpt lat="47.2351" lon="-1.65141">
        <ele>101</ele>
        <time>2021-04-20T13:00:44.000Z</time>
      </trkpt>
      <trkpt lat="47.23509" lon="-1.65156">
        <ele>101</ele>
        <time>2021-04-20T13:00:46.000Z</time>
      </trkpt>
      <trkpt lat="47.23513" lon="-1.65171">
        <ele>101</ele>
        <time>2021-04-20T13:00:48.000Z</time>
      </trkpt>
      <trkpt lat="47.23518" lon="-1.65187">
        <ele>101</ele>
        <time>2021-04-20T13:00:50.000Z</time>
      </trkpt>
      <trkpt lat="47.23523" lon="-1.65203">
        <ele>101</ele>
        <time>2021-04-20T13:00:52.000Z</time>
      </trkpt>
      <trkpt lat="47.23528" lon="-1.65219">
        <ele>101</ele>
        <time>2021-04-20T13:00:54.000Z</time>
      </trkpt>
      <trkpt lat="47.23534" lon="-1.65235">
        <ele>101</ele>
        <time>2021-04-20T13:00:56.000Z</time>
      </trkpt>
      <trkpt lat="47.2354" lon="-1.65251">
        <ele>100</ele>
        <time>2021-04-20T13:00:58.000Z</time>
      </trkpt>
      <trkpt lat="47.23547" lon="-1.65267">
        <ele>100</ele>
        <time>2021-04-20T13:01:00.000Z</time>
      </trkpt>
      <trkpt lat="47.23554" lon="-1.65283">
        <ele>100</ele>
        <time>2021-04-20T13:01:02.000Z</time>
      </trkpt>
      <trkpt lat="47.23562" lon="-1.65297">
        <ele>100</ele>
        <time>2021-04-20T13:01:04.000Z</time>
      </trkpt>
      <trkpt lat="47.23569" lon="-1.65311">
        <ele>100</ele>
        <time>2021-04-20T13:01:06.000Z</time>
      </trkpt>
      <trkpt lat="47.23576" lon="-1.65325">
        <ele>100</ele>
        <time>2021-04-20T13:01:08.000Z</time>
      </trkpt>
      <trkpt lat="47.23584" lon="-1.65339">
        <ele>100</ele>
        <time>2021-04-20T13:01:10.000Z</time>
      </trkpt>
      <trkpt lat="47.23592" lon="-1.65353">
        <ele>100</ele>
        <time>2021-04-20T13:01:12.000Z</time>
      </trkpt>
      <trkpt lat="47.23599" lon="-1.65368">
        <ele>100</ele>
        <time>2021-04-20T13:01:14.000Z</time>
      </trkpt>
      <trkpt lat="47.23607" lon="-1.65382">
        <ele>100</ele>
        <time>2021-04-20T13:01:16.000Z</time>
      </trkpt>
      <trkpt lat="47.23615" lon="-1.65396">
        <ele>100</ele>
        <time>2021-04-20T13:01:18.000Z</time>
      </trkpt>
      <trkpt lat="47.23623" lon="-1.6541">
        <ele>100</ele>
        <time>2021-04-20T13:01:20.000Z</time>
      </trkpt>
      <trkpt lat="47.2363" lon="-1.65424">
        <ele>100</ele>
        <time>2021-04-20T13:01:22.000Z</time>
      </trkpt>
      <trkpt lat="47.23639" lon="-1.65439">
        <ele>100</ele>
        <time>2021-04-20T13:01:24.000Z</time>
      </trkpt>
      <trkpt lat="47.23648" lon="-1.65452">
        <ele>99</ele>
        <time>2021-04-20T13:01:26.000Z</time>
      </trkpt>
      <trkpt lat="47.23656" lon="-1.65465">
        <ele>99</ele>
        <time>2021-04-20T13:01:28.000Z</time>
      </trkpt>
      <trkpt lat="47.23665" lon="-1.65478">
        <ele>98</ele>
        <time>2021-04-20T13:01:30.000Z</time>
      </trkpt>
      <trkpt lat="47.23674" lon="-1.6549">
        <ele>98</ele>
        <time>2021-04-20T13:01:32.000Z</time>
      </trkpt>
      <trkpt lat="47.23683" lon="-1.65502">
        <ele>99</ele>
        <time>2021-04-20T13:01:34.000Z</time>
      </trkpt>
      <trkpt lat="47.23692" lon="-1.65513">
        <ele>99</ele>
        <time>2021-04-20T13:01:36.000Z</time>
      </trkpt>
      <trkpt lat="47.23701" lon="-1.65524">
        <ele>100</ele>
        <time>2021-04-20T13:01:38.000Z</time>
      </trkpt>
      <trkpt lat="47.23711" lon="-1.65533">
        <ele>100</ele>
        <time>2021-04-20T13:01:40.000Z</time>
      </trkpt>
      <trkpt lat="47.2372" lon="-1.65543">
        <ele>101</ele>
        <time>2021-04-20T13:01:42.000Z</time>
      </trkpt>
      <trkpt lat="47.23729" lon="-1.65554">
        <ele>101</ele>
        <time>2021-04-20T13:01:44.000Z</time>
      </trkpt>
      <trkpt lat="47.23737" lon="-1.65566">
        <ele>101</ele>
        <time>2021-04-20T13:01:46.000Z</time>
      </trkpt>
      <trkpt lat="47.23746" lon="-1.65576">
        <ele>101</ele>
        <time>2021-04-20T13:01:48.000Z</time>
      </trkpt>
      <trkpt lat="47.23756" lon="-1.65585">
        <ele>101</ele>
        <time>2021-04-20T13:01:50.000Z</time>
      </trkpt>
      <trkpt lat="47.23765" lon="-1.65595">
        <ele>101</ele>
        <time>2021-04-20T13:01:52.000Z</time>
      </trkpt>
      <trkpt lat="47.23774" lon="-1.65605">
        <ele>101</ele>
        <time>2021-04-20T13:01:54.000Z</time>
      </trkpt>
      <trkpt lat="47.23784" lon="-1.65616">
        <ele>101</ele>
        <time>2021-04-20T13:01:56.000Z</time>
      </trkpt>
      <trkpt lat="47.23793" lon="-1.65628">
        <ele>101</ele>
        <time>2021-04-20T13:01:58.000Z</time>
      </trkpt>
      <trkpt lat="47.23803" lon="-1.65639">
        <ele>101</ele>
        <time>2021-04-20T13:02:00.000Z</time>
      </trkpt>
      <trkpt lat="47.23811" lon="-1.6565">
        <ele>101</ele>
        <time>2021-04-20T13:02:02.000Z</time>
      </trkpt>
      <trkpt lat="47.2382" lon="-1.65662">
        <ele>101</ele>
        <time>2021-04-20T13:02:04.000Z</time>
      </trkpt>
      <trkpt lat="47.23829" lon="-1.65673">
        <ele>101</ele>
        <time>2021-04-20T13:02:06.000Z</time>
      </trkpt>
      <trkpt lat="47.23837" lon="-1.65686">
        <ele>102</ele>
        <time>2021-04-20T13:02:08.000Z</time>
      </trkpt>
      <trkpt lat="47.23846" lon="-1.65697">
        <ele>102</ele>
        <time>2021-04-20T13:02:10.000Z</time>
      </trkpt>
      <trkpt lat="47.23854" lon="-1.6571">
        <ele>102</ele>
        <time>2021-04-20T13:02:12.000Z</time>
      </trkpt>
      <trkpt lat="47.23862" lon="-1.65722">
        <ele>102</ele>
        <time>2021-04-20T13:02:14.000Z</time>
      </trkpt>
      <trkpt lat="47.23869" lon="-1.65735">
        <ele>102</ele>
        <time>2021-04-20T13:02:16.000Z</time>
      </trkpt>
      <trkpt lat="47.23878" lon="-1.65746">
        <ele>102</ele>
        <time>2021-04-20T13:02:18.000Z</time>
      </trkpt>
      <trkpt lat="47.23886" lon="-1.65757">
        <ele>102</ele>
        <time>2021-04-20T13:02:20.000Z</time>
      </trkpt>
      <trkpt lat="47.23893" lon="-1.6577">
        <ele>102</ele>
        <time>2021-04-20T13:02:22.000Z</time>
      </trkpt>
      <trkpt lat="47.23903" lon="-1.65781">
        <ele>102</ele>
        <time>2021-04-20T13:02:24.000Z</time>
      </trkpt>
      <trkpt lat="47.23914" lon="-1.65791">
        <ele>102</ele>
        <time>2021-04-20T13:02:26.000Z</time>
      </trkpt>
      <trkpt lat="47.23923" lon="-1.65804">
        <ele>102</ele>
        <time>2021-04-20T13:02:28.000Z</time>
      </trkpt>
      <trkpt lat="47.23932" lon="-1.65817">
        <ele>102</ele>
        <time>2021-04-20T13:02:30.000Z</time>
      </trkpt>
      <trkpt lat="47.2394" lon="-1.6583">
        <ele>102</ele>
        <time>2021-04-20T13:02:32.000Z</time>
      </trkpt>
      <trkpt lat="47.23948" lon="-1.65842">
        <ele>102</ele>
        <time>2021-04-20T13:02:34.000Z</time>
      </trkpt>
      <trkpt lat="47.23956" lon="-1.65856">
        <ele>102</ele>
        <time>2021-04-20T13:02:36.000Z</time>
      </trkpt>
      <trkpt lat="47.23963" lon="-1.6587">
        <ele>102</ele>
        <time>2021-04-20T13:02:38.000Z</time>
      </trkpt>
      <trkpt lat="47.2397" lon="-1.65885">
        <ele>102</ele>
        <time>2021-04-20T13:02:40.000Z</time>
      </trkpt>
      <trkpt lat="47.23977" lon="-1.65901">
        <ele>102</ele>
        <time>2021-04-20T13:02:42.000Z</time>
      </trkpt>
      <trkpt lat="47.23984" lon="-1.65916">
        <ele>101</ele>
        <time>2021-04-20T13:02:44.000Z</time>
      </trkpt>
      <trkpt lat="47.2399" lon="-1.65932">
        <ele>101</ele>
        <time>2021-04-20T13:02:46.000Z</time>
      </trkpt>
      <trkpt lat="47.23996" lon="-1.65948">
        <ele>101</ele>
        <time>2021-04-20T13:02:48.000Z</time>
      </trkpt>
      <trkpt lat="47.24002" lon="-1.65965">
        <ele>101</ele>
        <time>2021-04-20T13:02:50.000Z</time>
      </trkpt>
      <trkpt lat="47.24008" lon="-1.65982">
        <ele>101</ele>
        <time>2021-04-20T13:02:52.000Z</time>
      </trkpt>
      <trkpt lat="47.24013" lon="-1.66">
        <ele>100</ele>
        <time>2021-04-20T13:02:54.000Z</time>
      </trkpt>
      <trkpt lat="47.24018" lon="-1.66018">
        <ele>100</ele>
        <time>2021-04-20T13:02:56.000Z</time>
      </trkpt>
      <trkpt lat="47.24023" lon="-1.66036">
        <ele>100</ele>
        <time>2021-04-20T13:02:58.000Z</time>
      </trkpt>
      <trkpt lat="47.24028" lon="-1.66055">
        <ele>100</ele>
        <time>2021-04-20T13:03:00.000Z</time>
      </trkpt>
      <trkpt lat="47.24033" lon="-1.66073">
        <ele>100</ele>
        <time>2021-04-20T13:03:02.000Z</time>
      </trkpt>
      <trkpt lat="47.24038" lon="-1.66092">
        <ele>100</ele>
        <time>2021-04-20T13:03:04.000Z</time>
      </trkpt>
      <trkpt lat="47.24042" lon="-1.6611">
        <ele>100</ele>
        <time>2021-04-20T13:03:06.000Z</time>
      </trkpt>
      <trkpt lat="47.24047" lon="-1.66128">
        <ele>100</ele>
        <time>2021-04-20T13:03:08.000Z</time>
      </trkpt>
      <trkpt lat="47.24052" lon="-1.66145">
        <ele>99</ele>
        <time>2021-04-20T13:03:10.000Z</time>
      </trkpt>
      <trkpt lat="47.24057" lon="-1.66164">
        <ele>99</ele>
        <time>2021-04-20T13:03:12.000Z</time>
      </trkpt>
      <trkpt lat="47.24062" lon="-1.66182">
        <ele>99</ele>
        <time>2021-04-20T13:03:14.000Z</time>
      </trkpt>
      <trkpt lat="47.24067" lon="-1.66201">
        <ele>99</ele>
        <time>2021-04-20T13:03:16.000Z</time>
      </trkpt>
      <trkpt lat="47.24071" lon="-1.66218">
        <ele>99</ele>
        <time>2021-04-20T13:03:18.000Z</time>
      </trkpt>
      <trkpt lat="47.24076" lon="-1.66234">
        <ele>100</ele>
        <time>2021-04-20T13:03:20.000Z</time>
      </trkpt>
      <trkpt lat="47.24081" lon="-1.66251">
        <ele>100</ele>
        <time>2021-04-20T13:03:22.000Z</time>
      </trkpt>
      <trkpt lat="47.24085" lon="-1.66269">
        <ele>100</ele>
        <time>2021-04-20T13:03:24.000Z</time>
      </trkpt>
      <trkpt lat="47.24091" lon="-1.66286">
        <ele>100</ele>
        <time>2021-04-20T13:03:26.000Z</time>
      </trkpt>
      <trkpt lat="47.24095" lon="-1.66302">
        <ele>100</ele>
        <time>2021-04-20T13:03:28.000Z</time>
      </trkpt>
      <trkpt lat="47.241" lon="-1.66318">
        <ele>100</ele>
        <time>2021-04-20T13:03:30.000Z</time>
      </trkpt>
      <trkpt lat="47.24104" lon="-1.66334">
        <ele>100</ele>
        <time>2021-04-20T13:03:32.000Z</time>
      </trkpt>
      <trkpt lat="47.24108" lon="-1.6635">
        <ele>100</ele>
        <time>2021-04-20T13:03:34.000Z</time>
      </trkpt>
      <trkpt lat="47.24112" lon="-1.66365">
        <ele>101</ele>
        <time>2021-04-20T13:03:36.000Z</time>
      </trkpt>
      <trkpt lat="47.24116" lon="-1.66381">
        <ele>101</ele>
        <time>2021-04-20T13:03:38.000Z</time>
      </trkpt>
      <trkpt lat="47.24121" lon="-1.66397">
        <ele>102</ele>
        <time>2021-04-20T13:03:40.000Z</time>
      </trkpt>
      <trkpt lat="47.24124" lon="-1.66413">
        <ele>102</ele>
        <time>2021-04-20T13:03:42.000Z</time>
      </trkpt>
      <trkpt lat="47.24128" lon="-1.6643">
        <ele>103</ele>
        <time>2021-04-20T13:03:44.000Z</time>
      </trkpt>
      <trkpt lat="47.24131" lon="-1.66447">
        <ele>103</ele>
        <time>2021-04-20T13:03:46.000Z</time>
      </trkpt>
      <trkpt lat="47.24135" lon="-1.66464">
        <ele>103</ele>
        <time>2021-04-20T13:03:48.000Z</time>
      </trkpt>
      <trkpt lat="47.24139" lon="-1.6648">
        <ele>103</ele>
        <time>2021-04-20T13:03:50.000Z</time>
      </trkpt>
      <trkpt lat="47.24143" lon="-1.66497">
        <ele>103</ele>
        <time>2021-04-20T13:03:52.000Z</time>
      </trkpt>
      <trkpt lat="47.24146" lon="-1.66514">
        <ele>103</ele>
        <time>2021-04-20T13:03:54.000Z</time>
      </trkpt>
      <trkpt lat="47.24148" lon="-1.6653">
        <ele>103</ele>
        <time>2021-04-20T13:03:56.000Z</time>
      </trkpt>
      <trkpt lat="47.24151" lon="-1.66545">
        <ele>103</ele>
        <time>2021-04-20T13:03:58.000Z</time>
      </trkpt>
      <trkpt lat="47.24154" lon="-1.66561">
        <ele>104</ele>
        <time>2021-04-20T13:04:00.000Z</time>
      </trkpt>
      <trkpt lat="47.24158" lon="-1.66578">
        <ele>103</ele>
        <time>2021-04-20T13:04:02.000Z</time>
      </trkpt>
      <trkpt lat="47.24162" lon="-1.66594">
        <ele>103</ele>
        <time>2021-04-20T13:04:04.000Z</time>
      </trkpt>
      <trkpt lat="47.24167" lon="-1.6661">
        <ele>103</ele>
        <time>2021-04-20T13:04:06.000Z</time>
      </trkpt>
      <trkpt lat="47.24173" lon="-1.66624">
        <ele>103</ele>
        <time>2021-04-20T13:04:08.000Z</time>
      </trkpt>
      <trkpt lat="47.2418" lon="-1.66637">
        <ele>103</ele>
        <time>2021-04-20T13:04:10.000Z</time>
      </trkpt>
      <trkpt lat="47.24189" lon="-1.66648">
        <ele>104</ele>
        <time>2021-04-20T13:04:12.000Z</time>
      </trkpt>
      <trkpt lat="47.24197" lon="-1.66659">
        <ele>104</ele>
        <time>2021-04-20T13:04:14.000Z</time>
      </trkpt>
      <trkpt lat="47.24206" lon="-1.6667">
        <ele>104</ele>
        <time>2021-04-20T13:04:16.000Z</time>
      </trkpt>
      <trkpt lat="47.24214" lon="-1.66681">
        <ele>104</ele>
        <time>2021-04-20T13:04:18.000Z</time>
      </trkpt>
      <trkpt lat="47.24223" lon="-1.66692">
        <ele>104</ele>
        <time>2021-04-20T13:04:20.000Z</time>
      </trkpt>
      <trkpt lat="47.24232" lon="-1.66702">
        <ele>104</ele>
        <time>2021-04-20T13:04:22.000Z</time>
      </trkpt>
      <trkpt lat="47.24241" lon="-1.66713">
        <ele>104</ele>
        <time>2021-04-20T13:04:24.000Z</time>
      </trkpt>
      <trkpt lat="47.2425" lon="-1.66724">
        <ele>104</ele>
        <time>2021-04-20T13:04:26.000Z</time>
      </trkpt>
      <trkpt lat="47.24259" lon="-1.66734">
        <ele>104</ele>
        <time>2021-04-20T13:04:28.000Z</time>
      </trkpt>
      <trkpt lat="47.24268" lon="-1.66745">
        <ele>104</ele>
        <time>2021-04-20T13:04:30.000Z</time>
      </trkpt>
      <trkpt lat="47.24277" lon="-1.66756">
        <ele>104</ele>
        <time>2021-04-20T13:04:32.000Z</time>
      </trkpt>
      <trkpt lat="47.24285" lon="-1.66769">
        <ele>104</ele>
        <time>2021-04-20T13:04:34.000Z</time>
      </trkpt>
      <trkpt lat="47.24289" lon="-1.66783">
        <ele>104</ele>
        <time>2021-04-20T13:04:36.000Z</time>
      </trkpt>
      <trkpt lat="47.24294" lon="-1.66798">
        <ele>104</ele>
        <time>2021-04-20T13:04:38.000Z</time>
      </trkpt>
      <trkpt lat="47.24303" lon="-1.66806">
        <ele>104</ele>
        <time>2021-04-20T13:04:40.000Z</time>
      </trkpt>
      <trkpt lat="47.24313" lon="-1.66814">
        <ele>104</ele>
        <time>2021-04-20T13:04:42.000Z</time>
      </trkpt>
      <trkpt lat="47.24318" lon="-1.6683">
        <ele>104</ele>
        <time>2021-04-20T13:04:44.000Z</time>
      </trkpt>
      <trkpt lat="47.24315" lon="-1.66847">
        <ele>104</ele>
        <time>2021-04-20T13:04:46.000Z</time>
      </trkpt>
      <trkpt lat="47.24305" lon="-1.66858">
        <ele>104</ele>
        <time>2021-04-20T13:04:48.000Z</time>
      </trkpt>
      <trkpt lat="47.24294" lon="-1.66865">
        <ele>104</ele>
        <time>2021-04-20T13:04:50.000Z</time>
      </trkpt>
      <trkpt lat="47.24288" lon="-1.66878">
        <ele>103</ele>
        <time>2021-04-20T13:04:52.000Z</time>
      </trkpt>
      <trkpt lat="47.24283" lon="-1.66894">
        <ele>103</ele>
        <time>2021-04-20T13:04:54.000Z</time>
      </trkpt>
      <trkpt lat="47.24279" lon="-1.6691">
        <ele>103</ele>
        <time>2021-04-20T13:04:56.000Z</time>
      </trkpt>
      <trkpt lat="47.24276" lon="-1.66927">
        <ele>104</ele>
        <time>2021-04-20T13:04:58.000Z</time>
      </trkpt>
      <trkpt lat="47.24273" lon="-1.66943">
        <ele>104</ele>
        <time>2021-04-20T13:05:00.000Z</time>
      </trkpt>
      <trkpt lat="47.24269" lon="-1.6696">
        <ele>104</ele>
        <time>2021-04-20T13:05:02.000Z</time>
      </trkpt>
      <trkpt lat="47.24266" lon="-1.66975">
        <ele>104</ele>
        <time>2021-04-20T13:05:04.000Z</time>
      </trkpt>
      <trkpt lat="47.24263" lon="-1.6699">
        <ele>104</ele>
        <time>2021-04-20T13:05:06.000Z</time>
      </trkpt>
      <trkpt lat="47.2426" lon="-1.67007">
        <ele>104</ele>
        <time>2021-04-20T13:05:08.000Z</time>
      </trkpt>
      <trkpt lat="47.24258" lon="-1.67025">
        <ele>104</ele>
        <time>2021-04-20T13:05:10.000Z</time>
      </trkpt>
      <trkpt lat="47.24256" lon="-1.67042">
        <ele>103</ele>
        <time>2021-04-20T13:05:12.000Z</time>
      </trkpt>
      <trkpt lat="47.24255" lon="-1.6706">
        <ele>103</ele>
        <time>2021-04-20T13:05:14.000Z</time>
      </trkpt>
      <trkpt lat="47.24254" lon="-1.67078">
        <ele>103</ele>
        <time>2021-04-20T13:05:16.000Z</time>
      </trkpt>
      <trkpt lat="47.24254" lon="-1.67099">
        <ele>103</ele>
        <time>2021-04-20T13:05:18.000Z</time>
      </trkpt>
      <trkpt lat="47.24254" lon="-1.6712">
        <ele>102</ele>
        <time>2021-04-20T13:05:20.000Z</time>
      </trkpt>
      <trkpt lat="47.24255" lon="-1.6714">
        <ele>102</ele>
        <time>2021-04-20T13:05:22.000Z</time>
      </trkpt>
      <trkpt lat="47.24257" lon="-1.67161">
        <ele>102</ele>
        <time>2021-04-20T13:05:24.000Z</time>
      </trkpt>
      <trkpt lat="47.24262" lon="-1.6718">
        <ele>102</ele>
        <time>2021-04-20T13:05:26.000Z</time>
      </trkpt>
      <trkpt lat="47.24263" lon="-1.672">
        <ele>102</ele>
        <time>2021-04-20T13:05:28.000Z</time>
      </trkpt>
      <trkpt lat="47.24252" lon="-1.67211">
        <ele>102</ele>
        <time>2021-04-20T13:05:30.000Z</time>
      </trkpt>
      <trkpt lat="47.2424" lon="-1.67212">
        <ele>102</ele>
        <time>2021-04-20T13:05:32.000Z</time>
      </trkpt>
      <trkpt lat="47.24233" lon="-1.67228">
        <ele>101</ele>
        <time>2021-04-20T13:05:34.000Z</time>
      </trkpt>
      <trkpt lat="47.24231" lon="-1.67247">
        <ele>101</ele>
        <time>2021-04-20T13:05:36.000Z</time>
      </trkpt>
      <trkpt lat="47.24227" lon="-1.67263">
        <ele>101</ele>
        <time>2021-04-20T13:05:38.000Z</time>
      </trkpt>
      <trkpt lat="47.24219" lon="-1.67276">
        <ele>102</ele>
        <time>2021-04-20T13:05:40.000Z</time>
      </trkpt>
      <trkpt lat="47.24207" lon="-1.67284">
        <ele>102</ele>
        <time>2021-04-20T13:05:42.000Z</time>
      </trkpt>
      <trkpt lat="47.24196" lon="-1.6729">
        <ele>104</ele>
        <time>2021-04-20T13:05:44.000Z</time>
      </trkpt>
      <trkpt lat="47.24184" lon="-1.67295">
        <ele>104</ele>
        <time>2021-04-20T13:05:46.000Z</time>
      </trkpt>
      <trkpt lat="47.24172" lon="-1.673">
        <ele>105</ele>
        <time>2021-04-20T13:05:48.000Z</time>
      </trkpt>
      <trkpt lat="47.24159" lon="-1.67302">
        <ele>106</ele>
        <time>2021-04-20T13:05:50.000Z</time>
      </trkpt>
      <trkpt lat="47.24147" lon="-1.67303">
        <ele>107</ele>
        <time>2021-04-20T13:05:52.000Z</time>
      </trkpt>
      <trkpt lat="47.24135" lon="-1.67303">
        <ele>107</ele>
        <time>2021-04-20T13:05:54.000Z</time>
      </trkpt>
      <trkpt lat="47.24123" lon="-1.67303">
        <ele>108</ele>
        <time>2021-04-20T13:05:56.000Z</time>
      </trkpt>
      <trkpt lat="47.2411" lon="-1.67302">
        <ele>108</ele>
        <time>2021-04-20T13:05:58.000Z</time>
      </trkpt>
      <trkpt lat="47.24098" lon="-1.67301">
        <ele>109</ele>
        <time>2021-04-20T13:06:00.000Z</time>
      </trkpt>
      <trkpt lat="47.24087" lon="-1.67301">
        <ele>109</ele>
        <time>2021-04-20T13:06:02.000Z</time>
      </trkpt>
      <trkpt lat="47.24075" lon="-1.67299">
        <ele>109</ele>
        <time>2021-04-20T13:06:04.000Z</time>
      </trkpt>
      <trkpt lat="47.24062" lon="-1.67297">
        <ele>109</ele>
        <time>2021-04-20T13:06:06.000Z</time>
      </trkpt>
      <trkpt lat="47.24051" lon="-1.67296">
        <ele>110</ele>
        <time>2021-04-20T13:06:08.000Z</time>
      </trkpt>
      <trkpt lat="47.24038" lon="-1.67294">
        <ele>110</ele>
        <time>2021-04-20T13:06:10.000Z</time>
      </trkpt>
      <trkpt lat="47.24026" lon="-1.67289">
        <ele>110</ele>
        <time>2021-04-20T13:06:12.000Z</time>
      </trkpt>
      <trkpt lat="47.24016" lon="-1.67282">
        <ele>111</ele>
        <time>2021-04-20T13:06:14.000Z</time>
      </trkpt>
      <trkpt lat="47.24005" lon="-1.67275">
        <ele>111</ele>
        <time>2021-04-20T13:06:16.000Z</time>
      </trkpt>
      <trkpt lat="47.23996" lon="-1.67266">
        <ele>112</ele>
        <time>2021-04-20T13:06:18.000Z</time>
      </trkpt>
      <trkpt lat="47.23986" lon="-1.67257">
        <ele>112</ele>
        <time>2021-04-20T13:06:20.000Z</time>
      </trkpt>
      <trkpt lat="47.23978" lon="-1.67246">
        <ele>112</ele>
        <time>2021-04-20T13:06:22.000Z</time>
      </trkpt>
      <trkpt lat="47.2397" lon="-1.67234">
        <ele>112</ele>
        <time>2021-04-20T13:06:24.000Z</time>
      </trkpt>
      <trkpt lat="47.23962" lon="-1.67222">
        <ele>112</ele>
        <time>2021-04-20T13:06:26.000Z</time>
      </trkpt>
      <trkpt lat="47.23955" lon="-1.67211">
        <ele>112</ele>
        <time>2021-04-20T13:06:28.000Z</time>
      </trkpt>
      <trkpt lat="47.23948" lon="-1.672">
        <ele>112</ele>
        <time>2021-04-20T13:06:30.000Z</time>
      </trkpt>
      <trkpt lat="47.2394" lon="-1.67191">
        <ele>112</ele>
        <time>2021-04-20T13:06:32.000Z</time>
      </trkpt>
      <trkpt lat="47.23931" lon="-1.67183">
        <ele>111</ele>
        <time>2021-04-20T13:06:34.000Z</time>
      </trkpt>
      <trkpt lat="47.23922" lon="-1.67177">
        <ele>111</ele>
        <time>2021-04-20T13:06:36.000Z</time>
      </trkpt>
      <trkpt lat="47.23912" lon="-1.67171">
        <ele>110</ele>
        <time>2021-04-20T13:06:38.000Z</time>
      </trkpt>
      <trkpt lat="47.23902" lon="-1.67165">
        <ele>110</ele>
        <time>2021-04-20T13:06:40.000Z</time>
      </trkpt>
      <trkpt lat="47.23892" lon="-1.67159">
        <ele>109</ele>
        <time>2021-04-20T13:06:42.000Z</time>
      </trkpt>
      <trkpt lat="47.23882" lon="-1.67153">
        <ele>109</ele>
        <time>2021-04-20T13:06:44.000Z</time>
      </trkpt>
      <trkpt lat="47.23871" lon="-1.67148">
        <ele>109</ele>
        <time>2021-04-20T13:06:46.000Z</time>
      </trkpt>
      <trkpt lat="47.23861" lon="-1.67144">
        <ele>109</ele>
        <time>2021-04-20T13:06:48.000Z</time>
      </trkpt>
      <trkpt lat="47.2385" lon="-1.67141">
        <ele>108</ele>
        <time>2021-04-20T13:06:50.000Z</time>
      </trkpt>
      <trkpt lat="47.23837" lon="-1.6714">
        <ele>109</ele>
        <time>2021-04-20T13:06:52.000Z</time>
      </trkpt>
      <trkpt lat="47.23825" lon="-1.67141">
        <ele>109</ele>
        <time>2021-04-20T13:06:54.000Z</time>
      </trkpt>
      <trkpt lat="47.23813" lon="-1.67143">
        <ele>108</ele>
        <time>2021-04-20T13:06:56.000Z</time>
      </trkpt>
      <trkpt lat="47.238" lon="-1.67145">
        <ele>108</ele>
        <time>2021-04-20T13:06:58.000Z</time>
      </trkpt>
      <trkpt lat="47.23788" lon="-1.67149">
        <ele>108</ele>
        <time>2021-04-20T13:07:00.000Z</time>
      </trkpt>
      <trkpt lat="47.23776" lon="-1.67153">
        <ele>108</ele>
        <time>2021-04-20T13:07:02.000Z</time>
      </trkpt>
      <trkpt lat="47.23764" lon="-1.67158">
        <ele>108</ele>
        <time>2021-04-20T13:07:04.000Z</time>
      </trkpt>
      <trkpt lat="47.23752" lon="-1.67162">
        <ele>109</ele>
        <time>2021-04-20T13:07:06.000Z</time>
      </trkpt>
      <trkpt lat="47.2374" lon="-1.67167">
        <ele>109</ele>
        <time>2021-04-20T13:07:08.000Z</time>
      </trkpt>
      <trkpt lat="47.23728" lon="-1.67172">
        <ele>109</ele>
        <time>2021-04-20T13:07:10.000Z</time>
      </trkpt>
      <trkpt lat="47.23716" lon="-1.67176">
        <ele>109</ele>
        <time>2021-04-20T13:07:12.000Z</time>
      </trkpt>
      <trkpt lat="47.23704" lon="-1.67178">
        <ele>109</ele>
        <time>2021-04-20T13:07:14.000Z</time>
      </trkpt>
      <trkpt lat="47.23692" lon="-1.67179">
        <ele>109</ele>
        <time>2021-04-20T13:07:16.000Z</time>
      </trkpt>
      <trkpt lat="47.2368" lon="-1.6718">
        <ele>109</ele>
        <time>2021-04-20T13:07:18.000Z</time>
      </trkpt>
      <trkpt lat="47.23668" lon="-1.67182">
        <ele>109</ele>
        <time>2021-04-20T13:07:20.000Z</time>
      </trkpt>
      <trkpt lat="47.23658" lon="-1.67192">
        <ele>109</ele>
        <time>2021-04-20T13:07:22.000Z</time>
      </trkpt>
      <trkpt lat="47.23648" lon="-1.67201">
        <ele>109</ele>
        <time>2021-04-20T13:07:24.000Z</time>
      </trkpt>
      <trkpt lat="47.23635" lon="-1.67198">
        <ele>108</ele>
        <time>2021-04-20T13:07:26.000Z</time>
      </trkpt>
      <trkpt lat="47.23624" lon="-1.67188">
        <ele>108</ele>
        <time>2021-04-20T13:07:28.000Z</time>
      </trkpt>
      <trkpt lat="47.23612" lon="-1.67186">
        <ele>108</ele>
        <time>2021-04-20T13:07:30.000Z</time>
      </trkpt>
      <trkpt lat="47.236" lon="-1.67188">
        <ele>109</ele>
        <time>2021-04-20T13:07:32.000Z</time>
      </trkpt>
      <trkpt lat="47.23587" lon="-1.67189">
        <ele>109</ele>
        <time>2021-04-20T13:07:34.000Z</time>
      </trkpt>
      <trkpt lat="47.23575" lon="-1.67191">
        <ele>110</ele>
        <time>2021-04-20T13:07:36.000Z</time>
      </trkpt>
      <trkpt lat="47.23563" lon="-1.67194">
        <ele>110</ele>
        <time>2021-04-20T13:07:38.000Z</time>
      </trkpt>
      <trkpt lat="47.2355" lon="-1.67198">
        <ele>109</ele>
        <time>2021-04-20T13:07:40.000Z</time>
      </trkpt>
      <trkpt lat="47.23538" lon="-1.67202">
        <ele>109</ele>
        <time>2021-04-20T13:07:42.000Z</time>
      </trkpt>
      <trkpt lat="47.23526" lon="-1.67208">
        <ele>109</ele>
        <time>2021-04-20T13:07:44.000Z</time>
      </trkpt>
      <trkpt lat="47.23514" lon="-1.67215">
        <ele>110</ele>
        <time>2021-04-20T13:07:46.000Z</time>
      </trkpt>
      <trkpt lat="47.23503" lon="-1.67223">
        <ele>111</ele>
        <time>2021-04-20T13:07:48.000Z</time>
      </trkpt>
      <trkpt lat="47.23492" lon="-1.67231">
        <ele>112</ele>
        <time>2021-04-20T13:07:50.000Z</time>
      </trkpt>
      <trkpt lat="47.2348" lon="-1.6724">
        <ele>113</ele>
        <time>2021-04-20T13:07:52.000Z</time>
      </trkpt>
      <trkpt lat="47.23468" lon="-1.67248">
        <ele>114</ele>
        <time>2021-04-20T13:07:54.000Z</time>
      </trkpt>
      <trkpt lat="47.23455" lon="-1.67254">
        <ele>113</ele>
        <time>2021-04-20T13:07:56.000Z</time>
      </trkpt>
      <trkpt lat="47.23442" lon="-1.6726">
        <ele>111</ele>
        <time>2021-04-20T13:07:58.000Z</time>
      </trkpt>
      <trkpt lat="47.23431" lon="-1.67268">
        <ele>111</ele>
        <time>2021-04-20T13:08:00.000Z</time>
      </trkpt>
      <trkpt lat="47.23418" lon="-1.67275">
        <ele>110</ele>
        <time>2021-04-20T13:08:02.000Z</time>
      </trkpt>
      <trkpt lat="47.23406" lon="-1.67283">
        <ele>110</ele>
        <time>2021-04-20T13:08:04.000Z</time>
      </trkpt>
      <trkpt lat="47.23395" lon="-1.67291">
        <ele>109</ele>
        <time>2021-04-20T13:08:06.000Z</time>
      </trkpt>
      <trkpt lat="47.23383" lon="-1.67298">
        <ele>109</ele>
        <time>2021-04-20T13:08:08.000Z</time>
      </trkpt>
      <trkpt lat="47.23371" lon="-1.67306">
        <ele>108</ele>
        <time>2021-04-20T13:08:10.000Z</time>
      </trkpt>
      <trkpt lat="47.23359" lon="-1.67315">
        <ele>108</ele>
        <time>2021-04-20T13:08:12.000Z</time>
      </trkpt>
      <trkpt lat="47.23347" lon="-1.67323">
        <ele>108</ele>
        <time>2021-04-20T13:08:14.000Z</time>
      </trkpt>
      <trkpt lat="47.23335" lon="-1.67332">
        <ele>108</ele>
        <time>2021-04-20T13:08:16.000Z</time>
      </trkpt>
      <trkpt lat="47.23323" lon="-1.6734">
        <ele>108</ele>
        <time>2021-04-20T13:08:18.000Z</time>
      </trkpt>
      <trkpt lat="47.23311" lon="-1.67349">
        <ele>107</ele>
        <time>2021-04-20T13:08:20.000Z</time>
      </trkpt>
      <trkpt lat="47.23299" lon="-1.67357">
        <ele>107</ele>
        <time>2021-04-20T13:08:22.000Z</time>
      </trkpt>
      <trkpt lat="47.23286" lon="-1.67366">
        <ele>107</ele>
        <time>2021-04-20T13:08:24.000Z</time>
      </trkpt>
      <trkpt lat="47.23272" lon="-1.67376">
        <ele>106</ele>
        <time>2021-04-20T13:08:26.000Z</time>
      </trkpt>
      <trkpt lat="47.23257" lon="-1.67386">
        <ele>105</ele>
        <time>2021-04-20T13:08:28.000Z</time>
      </trkpt>
      <trkpt lat="47.23242" lon="-1.67397">
        <ele>104</ele>
        <time>2021-04-20T13:08:30.000Z</time>
      </trkpt>
      <trkpt lat="47.23234" lon="-1.67404">
        <ele>104</ele>
        <time>2021-04-20T13:08:31.000Z</time>
      </trkpt>
      <trkpt lat="47.23219" lon="-1.67419">
        <ele>102</ele>
        <time>2021-04-20T13:08:33.000Z</time>
      </trkpt>
      <trkpt lat="47.23211" lon="-1.67427">
        <ele>102</ele>
        <time>2021-04-20T13:08:34.000Z</time>
      </trkpt>
      <trkpt lat="47.23203" lon="-1.67435">
        <ele>102</ele>
        <time>2021-04-20T13:08:35.000Z</time>
      </trkpt>
      <trkpt lat="47.23196" lon="-1.67444">
        <ele>101</ele>
        <time>2021-04-20T13:08:36.000Z</time>
      </trkpt>
      <trkpt lat="47.23188" lon="-1.67452">
        <ele>101</ele>
        <time>2021-04-20T13:08:37.000Z</time>
      </trkpt>
      <trkpt lat="47.2318" lon="-1.67461">
        <ele>100</ele>
        <time>2021-04-20T13:08:38.000Z</time>
      </trkpt>
      <trkpt lat="47.23173" lon="-1.67469">
        <ele>100</ele>
        <time>2021-04-20T13:08:39.000Z</time>
      </trkpt>
      <trkpt lat="47.23165" lon="-1.67478">
        <ele>100</ele>
        <time>2021-04-20T13:08:40.000Z</time>
      </trkpt>
      <trkpt lat="47.23158" lon="-1.67485">
        <ele>99</ele>
        <time>2021-04-20T13:08:41.000Z</time>
      </trkpt>
      <trkpt lat="47.23144" lon="-1.67501">
        <ele>99</ele>
        <time>2021-04-20T13:08:43.000Z</time>
      </trkpt>
      <trkpt lat="47.2313" lon="-1.67516">
        <ele>98</ele>
        <time>2021-04-20T13:08:45.000Z</time>
      </trkpt>
      <trkpt lat="47.23116" lon="-1.67531">
        <ele>98</ele>
        <time>2021-04-20T13:08:47.000Z</time>
      </trkpt>
      <trkpt lat="47.23102" lon="-1.67547">
        <ele>97</ele>
        <time>2021-04-20T13:08:49.000Z</time>
      </trkpt>
      <trkpt lat="47.23089" lon="-1.67563">
        <ele>97</ele>
        <time>2021-04-20T13:08:51.000Z</time>
      </trkpt>
      <trkpt lat="47.23077" lon="-1.67579">
        <ele>96</ele>
        <time>2021-04-20T13:08:53.000Z</time>
      </trkpt>
      <trkpt lat="47.23066" lon="-1.67595">
        <ele>96</ele>
        <time>2021-04-20T13:08:55.000Z</time>
      </trkpt>
      <trkpt lat="47.23054" lon="-1.67613">
        <ele>96</ele>
        <time>2021-04-20T13:08:57.000Z</time>
      </trkpt>
      <trkpt lat="47.23043" lon="-1.67629">
        <ele>96</ele>
        <time>2021-04-20T13:08:59.000Z</time>
      </trkpt>
      <trkpt lat="47.23031" lon="-1.67644">
        <ele>96</ele>
        <time>2021-04-20T13:09:01.000Z</time>
      </trkpt>
      <trkpt lat="47.23018" lon="-1.67657">
        <ele>96</ele>
        <time>2021-04-20T13:09:03.000Z</time>
      </trkpt>
      <trkpt lat="47.23005" lon="-1.67668">
        <ele>95</ele>
        <time>2021-04-20T13:09:05.000Z</time>
      </trkpt>
      <trkpt lat="47.22991" lon="-1.67679">
        <ele>95</ele>
        <time>2021-04-20T13:09:07.000Z</time>
      </trkpt>
      <trkpt lat="47.22978" lon="-1.67688">
        <ele>95</ele>
        <time>2021-04-20T13:09:09.000Z</time>
      </trkpt>
      <trkpt lat="47.22965" lon="-1.67697">
        <ele>95</ele>
        <time>2021-04-20T13:09:11.000Z</time>
      </trkpt>
      <trkpt lat="47.22951" lon="-1.67706">
        <ele>96</ele>
        <time>2021-04-20T13:09:13.000Z</time>
      </trkpt>
      <trkpt lat="47.22938" lon="-1.67715">
        <ele>95</ele>
        <time>2021-04-20T13:09:15.000Z</time>
      </trkpt>
      <trkpt lat="47.22925" lon="-1.67724">
        <ele>96</ele>
        <time>2021-04-20T13:09:17.000Z</time>
      </trkpt>
      <trkpt lat="47.22912" lon="-1.67734">
        <ele>96</ele>
        <time>2021-04-20T13:09:19.000Z</time>
      </trkpt>
      <trkpt lat="47.22899" lon="-1.67743">
        <ele>95</ele>
        <time>2021-04-20T13:09:21.000Z</time>
      </trkpt>
      <trkpt lat="47.22886" lon="-1.67751">
        <ele>94</ele>
        <time>2021-04-20T13:09:23.000Z</time>
      </trkpt>
      <trkpt lat="47.22872" lon="-1.67761">
        <ele>94</ele>
        <time>2021-04-20T13:09:25.000Z</time>
      </trkpt>
      <trkpt lat="47.22858" lon="-1.67767">
        <ele>93</ele>
        <time>2021-04-20T13:09:27.000Z</time>
      </trkpt>
      <trkpt lat="47.22844" lon="-1.67775">
        <ele>93</ele>
        <time>2021-04-20T13:09:29.000Z</time>
      </trkpt>
      <trkpt lat="47.22829" lon="-1.67782">
        <ele>93</ele>
        <time>2021-04-20T13:09:31.000Z</time>
      </trkpt>
      <trkpt lat="47.22814" lon="-1.67789">
        <ele>93</ele>
        <time>2021-04-20T13:09:33.000Z</time>
      </trkpt>
      <trkpt lat="47.22799" lon="-1.67795">
        <ele>92</ele>
        <time>2021-04-20T13:09:35.000Z</time>
      </trkpt>
      <trkpt lat="47.22783" lon="-1.67801">
        <ele>92</ele>
        <time>2021-04-20T13:09:37.000Z</time>
      </trkpt>
      <trkpt lat="47.22768" lon="-1.67807">
        <ele>91</ele>
        <time>2021-04-20T13:09:39.000Z</time>
      </trkpt>
      <trkpt lat="47.22752" lon="-1.67813">
        <ele>91</ele>
        <time>2021-04-20T13:09:41.000Z</time>
      </trkpt>
      <trkpt lat="47.22736" lon="-1.67817">
        <ele>90</ele>
        <time>2021-04-20T13:09:43.000Z</time>
      </trkpt>
      <trkpt lat="47.22719" lon="-1.6782">
        <ele>89</ele>
        <time>2021-04-20T13:09:45.000Z</time>
      </trkpt>
      <trkpt lat="47.22702" lon="-1.67825">
        <ele>89</ele>
        <time>2021-04-20T13:09:47.000Z</time>
      </trkpt>
      <trkpt lat="47.22685" lon="-1.67828">
        <ele>89</ele>
        <time>2021-04-20T13:09:49.000Z</time>
      </trkpt>
      <trkpt lat="47.22669" lon="-1.67832">
        <ele>88</ele>
        <time>2021-04-20T13:09:51.000Z</time>
      </trkpt>
      <trkpt lat="47.22652" lon="-1.67836">
        <ele>87</ele>
        <time>2021-04-20T13:09:53.000Z</time>
      </trkpt>
      <trkpt lat="47.22635" lon="-1.67839">
        <ele>87</ele>
        <time>2021-04-20T13:09:55.000Z</time>
      </trkpt>
      <trkpt lat="47.22619" lon="-1.67842">
        <ele>86</ele>
        <time>2021-04-20T13:09:57.000Z</time>
      </trkpt>
      <trkpt lat="47.22603" lon="-1.67846">
        <ele>85</ele>
        <time>2021-04-20T13:09:59.000Z</time>
      </trkpt>
      <trkpt lat="47.22586" lon="-1.67848">
        <ele>86</ele>
        <time>2021-04-20T13:10:01.000Z</time>
      </trkpt>
      <trkpt lat="47.22569" lon="-1.67846">
        <ele>85</ele>
        <time>2021-04-20T13:10:03.000Z</time>
      </trkpt>
      <trkpt lat="47.22552" lon="-1.67845">
        <ele>84</ele>
        <time>2021-04-20T13:10:05.000Z</time>
      </trkpt>
      <trkpt lat="47.22536" lon="-1.67843">
        <ele>83</ele>
        <time>2021-04-20T13:10:07.000Z</time>
      </trkpt>
      <trkpt lat="47.22519" lon="-1.67841">
        <ele>82</ele>
        <time>2021-04-20T13:10:09.000Z</time>
      </trkpt>
      <trkpt lat="47.22502" lon="-1.67838">
        <ele>82</ele>
        <time>2021-04-20T13:10:11.000Z</time>
      </trkpt>
      <trkpt lat="47.22485" lon="-1.67834">
        <ele>80</ele>
        <time>2021-04-20T13:10:13.000Z</time>
      </trkpt>
      <trkpt lat="47.22469" lon="-1.67832">
        <ele>80</ele>
        <time>2021-04-20T13:10:15.000Z</time>
      </trkpt>
      <trkpt lat="47.22452" lon="-1.67831">
        <ele>80</ele>
        <time>2021-04-20T13:10:17.000Z</time>
      </trkpt>
      <trkpt lat="47.22435" lon="-1.67831">
        <ele>79</ele>
        <time>2021-04-20T13:10:19.000Z</time>
      </trkpt>
      <trkpt lat="47.22418" lon="-1.67832">
        <ele>79</ele>
        <time>2021-04-20T13:10:21.000Z</time>
      </trkpt>
      <trkpt lat="47.22402" lon="-1.67836">
        <ele>79</ele>
        <time>2021-04-20T13:10:23.000Z</time>
      </trkpt>
      <trkpt lat="47.22387" lon="-1.6784">
        <ele>79</ele>
        <time>2021-04-20T13:10:25.000Z</time>
      </trkpt>
      <trkpt lat="47.22371" lon="-1.67845">
        <ele>78</ele>
        <time>2021-04-20T13:10:27.000Z</time>
      </trkpt>
      <trkpt lat="47.22355" lon="-1.67852">
        <ele>78</ele>
        <time>2021-04-20T13:10:29.000Z</time>
      </trkpt>
      <trkpt lat="47.22341" lon="-1.67861">
        <ele>77</ele>
        <time>2021-04-20T13:10:31.000Z</time>
      </trkpt>
      <trkpt lat="47.22327" lon="-1.67869">
        <ele>76</ele>
        <time>2021-04-20T13:10:33.000Z</time>
      </trkpt>
      <trkpt lat="47.22313" lon="-1.67879">
        <ele>76</ele>
        <time>2021-04-20T13:10:35.000Z</time>
      </trkpt>
      <trkpt lat="47.22299" lon="-1.67889">
        <ele>76</ele>
        <time>2021-04-20T13:10:37.000Z</time>
      </trkpt>
      <trkpt lat="47.22285" lon="-1.67898">
        <ele>77</ele>
        <time>2021-04-20T13:10:39.000Z</time>
      </trkpt>
      <trkpt lat="47.22272" lon="-1.67907">
        <ele>77</ele>
        <time>2021-04-20T13:10:41.000Z</time>
      </trkpt>
      <trkpt lat="47.22258" lon="-1.67916">
        <ele>77</ele>
        <time>2021-04-20T13:10:43.000Z</time>
      </trkpt>
      <trkpt lat="47.22244" lon="-1.67925">
        <ele>77</ele>
        <time>2021-04-20T13:10:45.000Z</time>
      </trkpt>
      <trkpt lat="47.2223" lon="-1.67934">
        <ele>77</ele>
        <time>2021-04-20T13:10:47.000Z</time>
      </trkpt>
      <trkpt lat="47.22216" lon="-1.67944">
        <ele>77</ele>
        <time>2021-04-20T13:10:49.000Z</time>
      </trkpt>
      <trkpt lat="47.22203" lon="-1.67953">
        <ele>77</ele>
        <time>2021-04-20T13:10:51.000Z</time>
      </trkpt>
      <trkpt lat="47.22188" lon="-1.67962">
        <ele>77</ele>
        <time>2021-04-20T13:10:53.000Z</time>
      </trkpt>
      <trkpt lat="47.22175" lon="-1.67971">
        <ele>78</ele>
        <time>2021-04-20T13:10:55.000Z</time>
      </trkpt>
      <trkpt lat="47.22162" lon="-1.6798">
        <ele>79</ele>
        <time>2021-04-20T13:10:57.000Z</time>
      </trkpt>
      <trkpt lat="47.2215" lon="-1.6799">
        <ele>78</ele>
        <time>2021-04-20T13:10:59.000Z</time>
      </trkpt>
      <trkpt lat="47.22137" lon="-1.67999">
        <ele>78</ele>
        <time>2021-04-20T13:11:01.000Z</time>
      </trkpt>
      <trkpt lat="47.22126" lon="-1.68011">
        <ele>77</ele>
        <time>2021-04-20T13:11:03.000Z</time>
      </trkpt>
      <trkpt lat="47.22115" lon="-1.68024">
        <ele>77</ele>
        <time>2021-04-20T13:11:05.000Z</time>
      </trkpt>
      <trkpt lat="47.22104" lon="-1.68037">
        <ele>77</ele>
        <time>2021-04-20T13:11:07.000Z</time>
      </trkpt>
      <trkpt lat="47.22093" lon="-1.68052">
        <ele>77</ele>
        <time>2021-04-20T13:11:09.000Z</time>
      </trkpt>
      <trkpt lat="47.22083" lon="-1.68066">
        <ele>77</ele>
        <time>2021-04-20T13:11:11.000Z</time>
      </trkpt>
      <trkpt lat="47.22073" lon="-1.6808">
        <ele>77</ele>
        <time>2021-04-20T13:11:13.000Z</time>
      </trkpt>
      <trkpt lat="47.22062" lon="-1.68094">
        <ele>77</ele>
        <time>2021-04-20T13:11:15.000Z</time>
      </trkpt>
      <trkpt lat="47.22051" lon="-1.68109">
        <ele>77</ele>
        <time>2021-04-20T13:11:17.000Z</time>
      </trkpt>
      <trkpt lat="47.22039" lon="-1.68123">
        <ele>76</ele>
        <time>2021-04-20T13:11:19.000Z</time>
      </trkpt>
      <trkpt lat="47.22027" lon="-1.68136">
        <ele>76</ele>
        <time>2021-04-20T13:11:21.000Z</time>
      </trkpt>
      <trkpt lat="47.22015" lon="-1.68148">
        <ele>76</ele>
        <time>2021-04-20T13:11:23.000Z</time>
      </trkpt>
      <trkpt lat="47.22002" lon="-1.68158">
        <ele>76</ele>
        <time>2021-04-20T13:11:25.000Z</time>
      </trkpt>
      <trkpt lat="47.21988" lon="-1.68167">
        <ele>75</ele>
        <time>2021-04-20T13:11:27.000Z</time>
      </trkpt>
      <trkpt lat="47.21975" lon="-1.68176">
        <ele>75</ele>
        <time>2021-04-20T13:11:29.000Z</time>
      </trkpt>
      <trkpt lat="47.21962" lon="-1.68184">
        <ele>75</ele>
        <time>2021-04-20T13:11:31.000Z</time>
      </trkpt>
      <trkpt lat="47.21948" lon="-1.68193">
        <ele>74</ele>
        <time>2021-04-20T13:11:33.000Z</time>
      </trkpt>
      <trkpt lat="47.21936" lon="-1.68201">
        <ele>74</ele>
        <time>2021-04-20T13:11:35.000Z</time>
      </trkpt>
      <trkpt lat="47.21923" lon="-1.68209">
        <ele>74</ele>
        <time>2021-04-20T13:11:37.000Z</time>
      </trkpt>
      <trkpt lat="47.21911" lon="-1.68217">
        <ele>75</ele>
        <time>2021-04-20T13:11:39.000Z</time>
      </trkpt>
      <trkpt lat="47.21898" lon="-1.68224">
        <ele>75</ele>
        <time>2021-04-20T13:11:41.000Z</time>
      </trkpt>
      <trkpt lat="47.21886" lon="-1.68232">
        <ele>75</ele>
        <time>2021-04-20T13:11:43.000Z</time>
      </trkpt>
      <trkpt lat="47.21872" lon="-1.68237">
        <ele>75</ele>
        <time>2021-04-20T13:11:45.000Z</time>
      </trkpt>
      <trkpt lat="47.21859" lon="-1.68239">
        <ele>75</ele>
        <time>2021-04-20T13:11:47.000Z</time>
      </trkpt>
      <trkpt lat="47.21845" lon="-1.6824">
        <ele>75</ele>
        <time>2021-04-20T13:11:49.000Z</time>
      </trkpt>
      <trkpt lat="47.21832" lon="-1.6824">
        <ele>75</ele>
        <time>2021-04-20T13:11:51.000Z</time>
      </trkpt>
      <trkpt lat="47.2182" lon="-1.68245">
        <ele>75</ele>
        <time>2021-04-20T13:11:53.000Z</time>
      </trkpt>
      <trkpt lat="47.21811" lon="-1.68257">
        <ele>76</ele>
        <time>2021-04-20T13:11:55.000Z</time>
      </trkpt>
      <trkpt lat="47.21799" lon="-1.68259">
        <ele>76</ele>
        <time>2021-04-20T13:11:57.000Z</time>
      </trkpt>
      <trkpt lat="47.21789" lon="-1.68248">
        <ele>76</ele>
        <time>2021-04-20T13:11:59.000Z</time>
      </trkpt>
      <trkpt lat="47.2178" lon="-1.68236">
        <ele>77</ele>
        <time>2021-04-20T13:12:01.000Z</time>
      </trkpt>
      <trkpt lat="47.21769" lon="-1.68234">
        <ele>77</ele>
        <time>2021-04-20T13:12:03.000Z</time>
      </trkpt>
      <trkpt lat="47.21763" lon="-1.68248">
        <ele>76</ele>
        <time>2021-04-20T13:12:05.000Z</time>
      </trkpt>
      <trkpt lat="47.21757" lon="-1.68265">
        <ele>75</ele>
        <time>2021-04-20T13:12:07.000Z</time>
      </trkpt>
      <trkpt lat="47.21751" lon="-1.6828">
        <ele>75</ele>
        <time>2021-04-20T13:12:09.000Z</time>
      </trkpt>
      <trkpt lat="47.21743" lon="-1.68296">
        <ele>76</ele>
        <time>2021-04-20T13:12:11.000Z</time>
      </trkpt>
      <trkpt lat="47.21734" lon="-1.6831">
        <ele>76</ele>
        <time>2021-04-20T13:12:13.000Z</time>
      </trkpt>
      <trkpt lat="47.21724" lon="-1.68322">
        <ele>76</ele>
        <time>2021-04-20T13:12:15.000Z</time>
      </trkpt>
      <trkpt lat="47.21714" lon="-1.68332">
        <ele>77</ele>
        <time>2021-04-20T13:12:17.000Z</time>
      </trkpt>
      <trkpt lat="47.21703" lon="-1.68341">
        <ele>77</ele>
        <time>2021-04-20T13:12:19.000Z</time>
      </trkpt>
      <trkpt lat="47.21692" lon="-1.68349">
        <ele>77</ele>
        <time>2021-04-20T13:12:21.000Z</time>
      </trkpt>
      <trkpt lat="47.2168" lon="-1.68357">
        <ele>77</ele>
        <time>2021-04-20T13:12:23.000Z</time>
      </trkpt>
      <trkpt lat="47.21669" lon="-1.68364">
        <ele>78</ele>
        <time>2021-04-20T13:12:25.000Z</time>
      </trkpt>
      <trkpt lat="47.21657" lon="-1.68371">
        <ele>78</ele>
        <time>2021-04-20T13:12:27.000Z</time>
      </trkpt>
      <trkpt lat="47.21645" lon="-1.68378">
        <ele>78</ele>
        <time>2021-04-20T13:12:29.000Z</time>
      </trkpt>
      <trkpt lat="47.21633" lon="-1.68383">
        <ele>77</ele>
        <time>2021-04-20T13:12:31.000Z</time>
      </trkpt>
      <trkpt lat="47.2162" lon="-1.68387">
        <ele>77</ele>
        <time>2021-04-20T13:12:33.000Z</time>
      </trkpt>
      <trkpt lat="47.21608" lon="-1.68389">
        <ele>77</ele>
        <time>2021-04-20T13:12:35.000Z</time>
      </trkpt>
      <trkpt lat="47.21596" lon="-1.68387">
        <ele>77</ele>
        <time>2021-04-20T13:12:37.000Z</time>
      </trkpt>
      <trkpt lat="47.21585" lon="-1.68384">
        <ele>78</ele>
        <time>2021-04-20T13:12:39.000Z</time>
      </trkpt>
      <trkpt lat="47.21573" lon="-1.68381">
        <ele>78</ele>
        <time>2021-04-20T13:12:41.000Z</time>
      </trkpt>
      <trkpt lat="47.21563" lon="-1.68382">
        <ele>77</ele>
        <time>2021-04-20T13:12:43.000Z</time>
      </trkpt>
      <trkpt lat="47.21552" lon="-1.68392">
        <ele>77</ele>
        <time>2021-04-20T13:12:46.000Z</time>
      </trkpt>
      <trkpt lat="47.21541" lon="-1.684">
        <ele>77</ele>
        <time>2021-04-20T13:12:49.000Z</time>
      </trkpt>
      <trkpt lat="47.21534" lon="-1.68388">
        <ele>76</ele>
        <time>2021-04-20T13:12:51.000Z</time>
      </trkpt>
      <trkpt lat="47.21535" lon="-1.68371">
        <ele>76</ele>
        <time>2021-04-20T13:12:53.000Z</time>
      </trkpt>
      <trkpt lat="47.21535" lon="-1.68353">
        <ele>76</ele>
        <time>2021-04-20T13:12:55.000Z</time>
      </trkpt>
      <trkpt lat="47.21537" lon="-1.68336">
        <ele>76</ele>
        <time>2021-04-20T13:12:57.000Z</time>
      </trkpt>
      <trkpt lat="47.21539" lon="-1.68318">
        <ele>77</ele>
        <time>2021-04-20T13:12:59.000Z</time>
      </trkpt>
      <trkpt lat="47.21541" lon="-1.68301">
        <ele>77</ele>
        <time>2021-04-20T13:13:01.000Z</time>
      </trkpt>
      <trkpt lat="47.21543" lon="-1.68283">
        <ele>77</ele>
        <time>2021-04-20T13:13:03.000Z</time>
      </trkpt>
      <trkpt lat="47.21544" lon="-1.68265">
        <ele>76</ele>
        <time>2021-04-20T13:13:05.000Z</time>
      </trkpt>
      <trkpt lat="47.21541" lon="-1.68248">
        <ele>76</ele>
        <time>2021-04-20T13:13:07.000Z</time>
      </trkpt>
      <trkpt lat="47.21538" lon="-1.68232">
        <ele>76</ele>
        <time>2021-04-20T13:13:09.000Z</time>
      </trkpt>
      <trkpt lat="47.21534" lon="-1.68217">
        <ele>75</ele>
        <time>2021-04-20T13:13:11.000Z</time>
      </trkpt>
      <trkpt lat="47.21533" lon="-1.68203">
        <ele>75</ele>
        <time>2021-04-20T13:13:13.000Z</time>
      </trkpt>
      <trkpt lat="47.21529" lon="-1.68191">
        <ele>75</ele>
        <time>2021-04-20T13:13:15.000Z</time>
      </trkpt>
      <trkpt lat="47.21519" lon="-1.68188">
        <ele>75</ele>
        <time>2021-04-20T13:13:17.000Z</time>
      </trkpt>
      <trkpt lat="47.21506" lon="-1.68197">
        <ele>75</ele>
        <time>2021-04-20T13:13:19.000Z</time>
      </trkpt>
      <trkpt lat="47.21493" lon="-1.68204">
        <ele>74</ele>
        <time>2021-04-20T13:13:21.000Z</time>
      </trkpt>
      <trkpt lat="47.21481" lon="-1.68212">
        <ele>74</ele>
        <time>2021-04-20T13:13:23.000Z</time>
      </trkpt>
      <trkpt lat="47.21468" lon="-1.68218">
        <ele>74</ele>
        <time>2021-04-20T13:13:25.000Z</time>
      </trkpt>
      <trkpt lat="47.21455" lon="-1.68221">
        <ele>74</ele>
        <time>2021-04-20T13:13:27.000Z</time>
      </trkpt>
      <trkpt lat="47.21443" lon="-1.68223">
        <ele>74</ele>
        <time>2021-04-20T13:13:29.000Z</time>
      </trkpt>
      <trkpt lat="47.21429" lon="-1.68224">
        <ele>74</ele>
        <time>2021-04-20T13:13:31.000Z</time>
      </trkpt>
      <trkpt lat="47.21415" lon="-1.68226">
        <ele>74</ele>
        <time>2021-04-20T13:13:33.000Z</time>
      </trkpt>
      <trkpt lat="47.21402" lon="-1.68228">
        <ele>74</ele>
        <time>2021-04-20T13:13:35.000Z</time>
      </trkpt>
      <trkpt lat="47.21389" lon="-1.68229">
        <ele>74</ele>
        <time>2021-04-20T13:13:37.000Z</time>
      </trkpt>
      <trkpt lat="47.21375" lon="-1.68231">
        <ele>73</ele>
        <time>2021-04-20T13:13:39.000Z</time>
      </trkpt>
      <trkpt lat="47.21363" lon="-1.68232">
        <ele>72</ele>
        <time>2021-04-20T13:13:41.000Z</time>
      </trkpt>
      <trkpt lat="47.2135" lon="-1.68234">
        <ele>72</ele>
        <time>2021-04-20T13:13:43.000Z</time>
      </trkpt>
      <trkpt lat="47.21336" lon="-1.68238">
        <ele>71</ele>
        <time>2021-04-20T13:13:45.000Z</time>
      </trkpt>
      <trkpt lat="47.21322" lon="-1.68243">
        <ele>71</ele>
        <time>2021-04-20T13:13:47.000Z</time>
      </trkpt>
      <trkpt lat="47.21307" lon="-1.68249">
        <ele>71</ele>
        <time>2021-04-20T13:13:49.000Z</time>
      </trkpt>
      <trkpt lat="47.21292" lon="-1.68258">
        <ele>70</ele>
        <time>2021-04-20T13:13:51.000Z</time>
      </trkpt>
      <trkpt lat="47.21277" lon="-1.68265">
        <ele>68</ele>
        <time>2021-04-20T13:13:53.000Z</time>
      </trkpt>
      <trkpt lat="47.21261" lon="-1.68274">
        <ele>68</ele>
        <time>2021-04-20T13:13:55.000Z</time>
      </trkpt>
      <trkpt lat="47.21245" lon="-1.68281">
        <ele>66</ele>
        <time>2021-04-20T13:13:57.000Z</time>
      </trkpt>
      <trkpt lat="47.21228" lon="-1.68285">
        <ele>66</ele>
        <time>2021-04-20T13:13:59.000Z</time>
      </trkpt>
      <trkpt lat="47.21219" lon="-1.68286">
        <ele>65</ele>
        <time>2021-04-20T13:14:00.000Z</time>
      </trkpt>
      <trkpt lat="47.21209" lon="-1.68288">
        <ele>64</ele>
        <time>2021-04-20T13:14:01.000Z</time>
      </trkpt>
      <trkpt lat="47.21201" lon="-1.68296">
        <ele>64</ele>
        <time>2021-04-20T13:14:02.000Z</time>
      </trkpt>
      <trkpt lat="47.21195" lon="-1.68307">
        <ele>63</ele>
        <time>2021-04-20T13:14:03.000Z</time>
      </trkpt>
      <trkpt lat="47.21193" lon="-1.68321">
        <ele>62</ele>
        <time>2021-04-20T13:14:04.000Z</time>
      </trkpt>
      <trkpt lat="47.21193" lon="-1.68335">
        <ele>62</ele>
        <time>2021-04-20T13:14:05.000Z</time>
      </trkpt>
      <trkpt lat="47.21195" lon="-1.68348">
        <ele>61</ele>
        <time>2021-04-20T13:14:06.000Z</time>
      </trkpt>
      <trkpt lat="47.21197" lon="-1.68361">
        <ele>60</ele>
        <time>2021-04-20T13:14:07.000Z</time>
      </trkpt>
      <trkpt lat="47.21198" lon="-1.68385">
        <ele>59</ele>
        <time>2021-04-20T13:14:09.000Z</time>
      </trkpt>
      <trkpt lat="47.21189" lon="-1.68406">
        <ele>57</ele>
        <time>2021-04-20T13:14:11.000Z</time>
      </trkpt>
      <trkpt lat="47.21173" lon="-1.68413">
        <ele>57</ele>
        <time>2021-04-20T13:14:13.000Z</time>
      </trkpt>
      <trkpt lat="47.21157" lon="-1.68413">
        <ele>56</ele>
        <time>2021-04-20T13:14:15.000Z</time>
      </trkpt>
      <trkpt lat="47.21142" lon="-1.68413">
        <ele>55</ele>
        <time>2021-04-20T13:14:17.000Z</time>
      </trkpt>
      <trkpt lat="47.21126" lon="-1.68412">
        <ele>54</ele>
        <time>2021-04-20T13:14:19.000Z</time>
      </trkpt>
      <trkpt lat="47.21111" lon="-1.68412">
        <ele>53</ele>
        <time>2021-04-20T13:14:21.000Z</time>
      </trkpt>
      <trkpt lat="47.21095" lon="-1.68411">
        <ele>53</ele>
        <time>2021-04-20T13:14:23.000Z</time>
      </trkpt>
      <trkpt lat="47.2108" lon="-1.6841">
        <ele>52</ele>
        <time>2021-04-20T13:14:25.000Z</time>
      </trkpt>
      <trkpt lat="47.21066" lon="-1.68409">
        <ele>52</ele>
        <time>2021-04-20T13:14:27.000Z</time>
      </trkpt>
      <trkpt lat="47.21051" lon="-1.68408">
        <ele>52</ele>
        <time>2021-04-20T13:14:29.000Z</time>
      </trkpt>
      <trkpt lat="47.21038" lon="-1.68408">
        <ele>52</ele>
        <time>2021-04-20T13:14:31.000Z</time>
      </trkpt>
      <trkpt lat="47.21023" lon="-1.68407">
        <ele>52</ele>
        <time>2021-04-20T13:14:33.000Z</time>
      </trkpt>
      <trkpt lat="47.21009" lon="-1.68406">
        <ele>51</ele>
        <time>2021-04-20T13:14:35.000Z</time>
      </trkpt>
      <trkpt lat="47.20996" lon="-1.68406">
        <ele>52</ele>
        <time>2021-04-20T13:14:37.000Z</time>
      </trkpt>
      <trkpt lat="47.20983" lon="-1.68406">
        <ele>52</ele>
        <time>2021-04-20T13:14:39.000Z</time>
      </trkpt>
      <trkpt lat="47.20969" lon="-1.68406">
        <ele>51</ele>
        <time>2021-04-20T13:14:41.000Z</time>
      </trkpt>
      <trkpt lat="47.20957" lon="-1.68405">
        <ele>51</ele>
        <time>2021-04-20T13:14:43.000Z</time>
      </trkpt>
      <trkpt lat="47.20944" lon="-1.68404">
        <ele>51</ele>
        <time>2021-04-20T13:14:45.000Z</time>
      </trkpt>
      <trkpt lat="47.20932" lon="-1.68403">
        <ele>51</ele>
        <time>2021-04-20T13:14:47.000Z</time>
      </trkpt>
      <trkpt lat="47.20919" lon="-1.68403">
        <ele>51</ele>
        <time>2021-04-20T13:14:49.000Z</time>
      </trkpt>
      <trkpt lat="47.20906" lon="-1.68403">
        <ele>51</ele>
        <time>2021-04-20T13:14:51.000Z</time>
      </trkpt>
      <trkpt lat="47.20893" lon="-1.68402">
        <ele>51</ele>
        <time>2021-04-20T13:14:53.000Z</time>
      </trkpt>
      <trkpt lat="47.20879" lon="-1.68401">
        <ele>52</ele>
        <time>2021-04-20T13:14:55.000Z</time>
      </trkpt>
      <trkpt lat="47.20866" lon="-1.68401">
        <ele>51</ele>
        <time>2021-04-20T13:14:57.000Z</time>
      </trkpt>
      <trkpt lat="47.20852" lon="-1.68401">
        <ele>51</ele>
        <time>2021-04-20T13:14:59.000Z</time>
      </trkpt>
      <trkpt lat="47.2084" lon="-1.684">
        <ele>51</ele>
        <time>2021-04-20T13:15:01.000Z</time>
      </trkpt>
      <trkpt lat="47.20826" lon="-1.684">
        <ele>51</ele>
        <time>2021-04-20T13:15:03.000Z</time>
      </trkpt>
      <trkpt lat="47.20813" lon="-1.68399">
        <ele>51</ele>
        <time>2021-04-20T13:15:05.000Z</time>
      </trkpt>
      <trkpt lat="47.208" lon="-1.68399">
        <ele>51</ele>
        <time>2021-04-20T13:15:07.000Z</time>
      </trkpt>
      <trkpt lat="47.20788" lon="-1.68399">
        <ele>51</ele>
        <time>2021-04-20T13:15:09.000Z</time>
      </trkpt>
      <trkpt lat="47.20776" lon="-1.68399">
        <ele>52</ele>
        <time>2021-04-20T13:15:11.000Z</time>
      </trkpt>
      <trkpt lat="47.20763" lon="-1.684">
        <ele>51</ele>
        <time>2021-04-20T13:15:13.000Z</time>
      </trkpt>
      <trkpt lat="47.20751" lon="-1.684">
        <ele>51</ele>
        <time>2021-04-20T13:15:15.000Z</time>
      </trkpt>
      <trkpt lat="47.20739" lon="-1.68406">
        <ele>51</ele>
        <time>2021-04-20T13:15:17.000Z</time>
      </trkpt>
      <trkpt lat="47.20728" lon="-1.68416">
        <ele>51</ele>
        <time>2021-04-20T13:15:19.000Z</time>
      </trkpt>
      <trkpt lat="47.20715" lon="-1.68419">
        <ele>51</ele>
        <time>2021-04-20T13:15:21.000Z</time>
      </trkpt>
      <trkpt lat="47.20703" lon="-1.68409">
        <ele>51</ele>
        <time>2021-04-20T13:15:23.000Z</time>
      </trkpt>
      <trkpt lat="47.207" lon="-1.6839">
        <ele>52</ele>
        <time>2021-04-20T13:15:25.000Z</time>
      </trkpt>
      <trkpt lat="47.20701" lon="-1.68373">
        <ele>52</ele>
        <time>2021-04-20T13:15:27.000Z</time>
      </trkpt>
      <trkpt lat="47.20698" lon="-1.68353">
        <ele>51</ele>
        <time>2021-04-20T13:15:29.000Z</time>
      </trkpt>
      <trkpt lat="47.20693" lon="-1.68335">
        <ele>51</ele>
        <time>2021-04-20T13:15:31.000Z</time>
      </trkpt>
      <trkpt lat="47.20688" lon="-1.68317">
        <ele>52</ele>
        <time>2021-04-20T13:15:33.000Z</time>
      </trkpt>
      <trkpt lat="47.20683" lon="-1.68301">
        <ele>52</ele>
        <time>2021-04-20T13:15:35.000Z</time>
      </trkpt>
      <trkpt lat="47.20678" lon="-1.68283">
        <ele>52</ele>
        <time>2021-04-20T13:15:37.000Z</time>
      </trkpt>
      <trkpt lat="47.20673" lon="-1.68266">
        <ele>52</ele>
        <time>2021-04-20T13:15:39.000Z</time>
      </trkpt>
      <trkpt lat="47.20668" lon="-1.68248">
        <ele>52</ele>
        <time>2021-04-20T13:15:41.000Z</time>
      </trkpt>
      <trkpt lat="47.20663" lon="-1.68231">
        <ele>52</ele>
        <time>2021-04-20T13:15:43.000Z</time>
      </trkpt>
      <trkpt lat="47.20658" lon="-1.68213">
        <ele>52</ele>
        <time>2021-04-20T13:15:45.000Z</time>
      </trkpt>
      <trkpt lat="47.20653" lon="-1.68196">
        <ele>53</ele>
        <time>2021-04-20T13:15:47.000Z</time>
      </trkpt>
      <trkpt lat="47.20647" lon="-1.68178">
        <ele>53</ele>
        <time>2021-04-20T13:15:49.000Z</time>
      </trkpt>
      <trkpt lat="47.20642" lon="-1.6816">
        <ele>53</ele>
        <time>2021-04-20T13:15:51.000Z</time>
      </trkpt>
      <trkpt lat="47.20637" lon="-1.68143">
        <ele>53</ele>
        <time>2021-04-20T13:15:53.000Z</time>
      </trkpt>
      <trkpt lat="47.20632" lon="-1.68126">
        <ele>53</ele>
        <time>2021-04-20T13:15:55.000Z</time>
      </trkpt>
      <trkpt lat="47.20627" lon="-1.68108">
        <ele>53</ele>
        <time>2021-04-20T13:15:57.000Z</time>
      </trkpt>
      <trkpt lat="47.20621" lon="-1.68091">
        <ele>53</ele>
        <time>2021-04-20T13:15:59.000Z</time>
      </trkpt>
      <trkpt lat="47.20616" lon="-1.68073">
        <ele>53</ele>
        <time>2021-04-20T13:16:01.000Z</time>
      </trkpt>
      <trkpt lat="47.2061" lon="-1.68056">
        <ele>53</ele>
        <time>2021-04-20T13:16:03.000Z</time>
      </trkpt>
      <trkpt lat="47.20606" lon="-1.68037">
        <ele>53</ele>
        <time>2021-04-20T13:16:05.000Z</time>
      </trkpt>
      <trkpt lat="47.20601" lon="-1.6802">
        <ele>53</ele>
        <time>2021-04-20T13:16:07.000Z</time>
      </trkpt>
      <trkpt lat="47.20595" lon="-1.68003">
        <ele>53</ele>
        <time>2021-04-20T13:16:09.000Z</time>
      </trkpt>
      <trkpt lat="47.2059" lon="-1.67984">
        <ele>53</ele>
        <time>2021-04-20T13:16:11.000Z</time>
      </trkpt>
      <trkpt lat="47.20585" lon="-1.67966">
        <ele>53</ele>
        <time>2021-04-20T13:16:13.000Z</time>
      </trkpt>
      <trkpt lat="47.20579" lon="-1.67949">
        <ele>53</ele>
        <time>2021-04-20T13:16:15.000Z</time>
      </trkpt>
      <trkpt lat="47.20574" lon="-1.67931">
        <ele>53</ele>
        <time>2021-04-20T13:16:17.000Z</time>
      </trkpt>
      <trkpt lat="47.20569" lon="-1.67914">
        <ele>53</ele>
        <time>2021-04-20T13:16:19.000Z</time>
      </trkpt>
      <trkpt lat="47.20563" lon="-1.67896">
        <ele>53</ele>
        <time>2021-04-20T13:16:21.000Z</time>
      </trkpt>
      <trkpt lat="47.20558" lon="-1.67878">
        <ele>53</ele>
        <time>2021-04-20T13:16:23.000Z</time>
      </trkpt>
      <trkpt lat="47.20553" lon="-1.67861">
        <ele>53</ele>
        <time>2021-04-20T13:16:25.000Z</time>
      </trkpt>
      <trkpt lat="47.20547" lon="-1.67843">
        <ele>54</ele>
        <time>2021-04-20T13:16:27.000Z</time>
      </trkpt>
      <trkpt lat="47.20542" lon="-1.67826">
        <ele>54</ele>
        <time>2021-04-20T13:16:29.000Z</time>
      </trkpt>
      <trkpt lat="47.20536" lon="-1.67808">
        <ele>54</ele>
        <time>2021-04-20T13:16:31.000Z</time>
      </trkpt>
      <trkpt lat="47.2053" lon="-1.67791">
        <ele>54</ele>
        <time>2021-04-20T13:16:33.000Z</time>
      </trkpt>
      <trkpt lat="47.20524" lon="-1.67774">
        <ele>54</ele>
        <time>2021-04-20T13:16:35.000Z</time>
      </trkpt>
      <trkpt lat="47.20518" lon="-1.67757">
        <ele>54</ele>
        <time>2021-04-20T13:16:37.000Z</time>
      </trkpt>
      <trkpt lat="47.20512" lon="-1.67739">
        <ele>54</ele>
        <time>2021-04-20T13:16:39.000Z</time>
      </trkpt>
      <trkpt lat="47.20506" lon="-1.67722">
        <ele>54</ele>
        <time>2021-04-20T13:16:41.000Z</time>
      </trkpt>
      <trkpt lat="47.205" lon="-1.67704">
        <ele>54</ele>
        <time>2021-04-20T13:16:43.000Z</time>
      </trkpt>
      <trkpt lat="47.20493" lon="-1.67688">
        <ele>54</ele>
        <time>2021-04-20T13:16:45.000Z</time>
      </trkpt>
      <trkpt lat="47.20487" lon="-1.67671">
        <ele>54</ele>
        <time>2021-04-20T13:16:47.000Z</time>
      </trkpt>
      <trkpt lat="47.2048" lon="-1.67654">
        <ele>54</ele>
        <time>2021-04-20T13:16:49.000Z</time>
      </trkpt>
      <trkpt lat="47.20473" lon="-1.67638">
        <ele>54</ele>
        <time>2021-04-20T13:16:51.000Z</time>
      </trkpt>
      <trkpt lat="47.20465" lon="-1.67623">
        <ele>55</ele>
        <time>2021-04-20T13:16:53.000Z</time>
      </trkpt>
      <trkpt lat="47.20456" lon="-1.67609">
        <ele>54</ele>
        <time>2021-04-20T13:16:55.000Z</time>
      </trkpt>
      <trkpt lat="47.20446" lon="-1.67596">
        <ele>54</ele>
        <time>2021-04-20T13:16:57.000Z</time>
      </trkpt>
      <trkpt lat="47.20435" lon="-1.67588">
        <ele>54</ele>
        <time>2021-04-20T13:16:59.000Z</time>
      </trkpt>
      <trkpt lat="47.20422" lon="-1.67584">
        <ele>53</ele>
        <time>2021-04-20T13:17:01.000Z</time>
      </trkpt>
      <trkpt lat="47.20413" lon="-1.67571">
        <ele>53</ele>
        <time>2021-04-20T13:17:03.000Z</time>
      </trkpt>
      <trkpt lat="47.2041" lon="-1.67551">
        <ele>53</ele>
        <time>2021-04-20T13:17:05.000Z</time>
      </trkpt>
      <trkpt lat="47.20414" lon="-1.67532">
        <ele>53</ele>
        <time>2021-04-20T13:17:07.000Z</time>
      </trkpt>
      <trkpt lat="47.20414" lon="-1.67514">
        <ele>53</ele>
        <time>2021-04-20T13:17:09.000Z</time>
      </trkpt>
      <trkpt lat="47.20408" lon="-1.67497">
        <ele>53</ele>
        <time>2021-04-20T13:17:11.000Z</time>
      </trkpt>
      <trkpt lat="47.20403" lon="-1.67479">
        <ele>53</ele>
        <time>2021-04-20T13:17:13.000Z</time>
      </trkpt>
      <trkpt lat="47.20397" lon="-1.67463">
        <ele>53</ele>
        <time>2021-04-20T13:17:15.000Z</time>
      </trkpt>
      <trkpt lat="47.20391" lon="-1.67447">
        <ele>53</ele>
        <time>2021-04-20T13:17:17.000Z</time>
      </trkpt>
      <trkpt lat="47.20385" lon="-1.6743">
        <ele>53</ele>
        <time>2021-04-20T13:17:19.000Z</time>
      </trkpt>
      <trkpt lat="47.20378" lon="-1.67413">
        <ele>53</ele>
        <time>2021-04-20T13:17:21.000Z</time>
      </trkpt>
      <trkpt lat="47.20371" lon="-1.67398">
        <ele>53</ele>
        <time>2021-04-20T13:17:23.000Z</time>
      </trkpt>
      <trkpt lat="47.20364" lon="-1.67382">
        <ele>53</ele>
        <time>2021-04-20T13:17:25.000Z</time>
      </trkpt>
      <trkpt lat="47.20356" lon="-1.67367">
        <ele>53</ele>
        <time>2021-04-20T13:17:27.000Z</time>
      </trkpt>
      <trkpt lat="47.20349" lon="-1.67351">
        <ele>53</ele>
        <time>2021-04-20T13:17:29.000Z</time>
      </trkpt>
      <trkpt lat="47.20342" lon="-1.67335">
        <ele>53</ele>
        <time>2021-04-20T13:17:31.000Z</time>
      </trkpt>
      <trkpt lat="47.20334" lon="-1.6732">
        <ele>53</ele>
        <time>2021-04-20T13:17:33.000Z</time>
      </trkpt>
      <trkpt lat="47.20327" lon="-1.67304">
        <ele>54</ele>
        <time>2021-04-20T13:17:35.000Z</time>
      </trkpt>
      <trkpt lat="47.20321" lon="-1.67288">
        <ele>54</ele>
        <time>2021-04-20T13:17:37.000Z</time>
      </trkpt>
      <trkpt lat="47.20313" lon="-1.67273">
        <ele>54</ele>
        <time>2021-04-20T13:17:39.000Z</time>
      </trkpt>
      <trkpt lat="47.20306" lon="-1.67257">
        <ele>54</ele>
        <time>2021-04-20T13:17:41.000Z</time>
      </trkpt>
      <trkpt lat="47.20299" lon="-1.67241">
        <ele>54</ele>
        <time>2021-04-20T13:17:43.000Z</time>
      </trkpt>
      <trkpt lat="47.20292" lon="-1.67225">
        <ele>54</ele>
        <time>2021-04-20T13:17:45.000Z</time>
      </trkpt>
      <trkpt lat="47.20285" lon="-1.67209">
        <ele>54</ele>
        <time>2021-04-20T13:17:47.000Z</time>
      </trkpt>
      <trkpt lat="47.20278" lon="-1.67192">
        <ele>54</ele>
        <time>2021-04-20T13:17:49.000Z</time>
      </trkpt>
      <trkpt lat="47.20271" lon="-1.67177">
        <ele>54</ele>
        <time>2021-04-20T13:17:51.000Z</time>
      </trkpt>
      <trkpt lat="47.20263" lon="-1.6716">
        <ele>54</ele>
        <time>2021-04-20T13:17:53.000Z</time>
      </trkpt>
      <trkpt lat="47.20256" lon="-1.67145">
        <ele>55</ele>
        <time>2021-04-20T13:17:55.000Z</time>
      </trkpt>
      <trkpt lat="47.20249" lon="-1.67129">
        <ele>55</ele>
        <time>2021-04-20T13:17:57.000Z</time>
      </trkpt>
      <trkpt lat="47.20241" lon="-1.67112">
        <ele>55</ele>
        <time>2021-04-20T13:17:59.000Z</time>
      </trkpt>
      <trkpt lat="47.20234" lon="-1.67096">
        <ele>55</ele>
        <time>2021-04-20T13:18:01.000Z</time>
      </trkpt>
      <trkpt lat="47.20227" lon="-1.6708">
        <ele>55</ele>
        <time>2021-04-20T13:18:03.000Z</time>
      </trkpt>
      <trkpt lat="47.2022" lon="-1.67065">
        <ele>55</ele>
        <time>2021-04-20T13:18:05.000Z</time>
      </trkpt>
      <trkpt lat="47.20213" lon="-1.67049">
        <ele>55</ele>
        <time>2021-04-20T13:18:07.000Z</time>
      </trkpt>
      <trkpt lat="47.20206" lon="-1.67033">
        <ele>54</ele>
        <time>2021-04-20T13:18:09.000Z</time>
      </trkpt>
      <trkpt lat="47.20199" lon="-1.67017">
        <ele>54</ele>
        <time>2021-04-20T13:18:11.000Z</time>
      </trkpt>
      <trkpt lat="47.20192" lon="-1.67001">
        <ele>53</ele>
        <time>2021-04-20T13:18:13.000Z</time>
      </trkpt>
      <trkpt lat="47.20185" lon="-1.66984">
        <ele>54</ele>
        <time>2021-04-20T13:18:15.000Z</time>
      </trkpt>
      <trkpt lat="47.20178" lon="-1.66968">
        <ele>54</ele>
        <time>2021-04-20T13:18:17.000Z</time>
      </trkpt>
      <trkpt lat="47.20171" lon="-1.66952">
        <ele>54</ele>
        <time>2021-04-20T13:18:19.000Z</time>
      </trkpt>
      <trkpt lat="47.20164" lon="-1.66936">
        <ele>54</ele>
        <time>2021-04-20T13:18:21.000Z</time>
      </trkpt>
      <trkpt lat="47.20156" lon="-1.6692">
        <ele>53</ele>
        <time>2021-04-20T13:18:23.000Z</time>
      </trkpt>
      <trkpt lat="47.20149" lon="-1.66904">
        <ele>54</ele>
        <time>2021-04-20T13:18:25.000Z</time>
      </trkpt>
      <trkpt lat="47.20142" lon="-1.66889">
        <ele>54</ele>
        <time>2021-04-20T13:18:27.000Z</time>
      </trkpt>
      <trkpt lat="47.20135" lon="-1.66874">
        <ele>54</ele>
        <time>2021-04-20T13:18:29.000Z</time>
      </trkpt>
      <trkpt lat="47.20128" lon="-1.6686">
        <ele>54</ele>
        <time>2021-04-20T13:18:31.000Z</time>
      </trkpt>
      <trkpt lat="47.20121" lon="-1.66845">
        <ele>54</ele>
        <time>2021-04-20T13:18:33.000Z</time>
      </trkpt>
      <trkpt lat="47.20115" lon="-1.66831">
        <ele>55</ele>
        <time>2021-04-20T13:18:35.000Z</time>
      </trkpt>
      <trkpt lat="47.20106" lon="-1.66822">
        <ele>55</ele>
        <time>2021-04-20T13:18:37.000Z</time>
      </trkpt>
      <trkpt lat="47.20096" lon="-1.66812">
        <ele>55</ele>
        <time>2021-04-20T13:18:39.000Z</time>
      </trkpt>
      <trkpt lat="47.2009" lon="-1.66797">
        <ele>55</ele>
        <time>2021-04-20T13:18:41.000Z</time>
      </trkpt>
      <trkpt lat="47.20088" lon="-1.66778">
        <ele>55</ele>
        <time>2021-04-20T13:18:43.000Z</time>
      </trkpt>
      <trkpt lat="47.20092" lon="-1.6676">
        <ele>55</ele>
        <time>2021-04-20T13:18:45.000Z</time>
      </trkpt>
      <trkpt lat="47.20098" lon="-1.66744">
        <ele>55</ele>
        <time>2021-04-20T13:18:47.000Z</time>
      </trkpt>
      <trkpt lat="47.20101" lon="-1.66724">
        <ele>54</ele>
        <time>2021-04-20T13:18:49.000Z</time>
      </trkpt>
      <trkpt lat="47.20102" lon="-1.66703">
        <ele>53</ele>
        <time>2021-04-20T13:18:51.000Z</time>
      </trkpt>
      <trkpt lat="47.20103" lon="-1.66683">
        <ele>53</ele>
        <time>2021-04-20T13:18:53.000Z</time>
      </trkpt>
      <trkpt lat="47.20104" lon="-1.66664">
        <ele>53</ele>
        <time>2021-04-20T13:18:55.000Z</time>
      </trkpt>
      <trkpt lat="47.20104" lon="-1.66644">
        <ele>53</ele>
        <time>2021-04-20T13:18:57.000Z</time>
      </trkpt>
      <trkpt lat="47.20105" lon="-1.66624">
        <ele>53</ele>
        <time>2021-04-20T13:18:59.000Z</time>
      </trkpt>
      <trkpt lat="47.20105" lon="-1.66603">
        <ele>53</ele>
        <time>2021-04-20T13:19:01.000Z</time>
      </trkpt>
      <trkpt lat="47.20106" lon="-1.66584">
        <ele>53</ele>
        <time>2021-04-20T13:19:03.000Z</time>
      </trkpt>
      <trkpt lat="47.20106" lon="-1.66564">
        <ele>53</ele>
        <time>2021-04-20T13:19:05.000Z</time>
      </trkpt>
      <trkpt lat="47.20107" lon="-1.66545">
        <ele>53</ele>
        <time>2021-04-20T13:19:07.000Z</time>
      </trkpt>
      <trkpt lat="47.20107" lon="-1.66525">
        <ele>53</ele>
        <time>2021-04-20T13:19:09.000Z</time>
      </trkpt>
      <trkpt lat="47.20107" lon="-1.66506">
        <ele>53</ele>
        <time>2021-04-20T13:19:11.000Z</time>
      </trkpt>
      <trkpt lat="47.20108" lon="-1.66487">
        <ele>53</ele>
        <time>2021-04-20T13:19:13.000Z</time>
      </trkpt>
      <trkpt lat="47.20108" lon="-1.66468">
        <ele>53</ele>
        <time>2021-04-20T13:19:15.000Z</time>
      </trkpt>
      <trkpt lat="47.20109" lon="-1.66449">
        <ele>54</ele>
        <time>2021-04-20T13:19:17.000Z</time>
      </trkpt>
      <trkpt lat="47.20109" lon="-1.66429">
        <ele>54</ele>
        <time>2021-04-20T13:19:19.000Z</time>
      </trkpt>
      <trkpt lat="47.20109" lon="-1.6641">
        <ele>55</ele>
        <time>2021-04-20T13:19:21.000Z</time>
      </trkpt>
      <trkpt lat="47.2011" lon="-1.66391">
        <ele>54</ele>
        <time>2021-04-20T13:19:23.000Z</time>
      </trkpt>
      <trkpt lat="47.2011" lon="-1.66372">
        <ele>55</ele>
        <time>2021-04-20T13:19:25.000Z</time>
      </trkpt>
      <trkpt lat="47.20111" lon="-1.66353">
        <ele>55</ele>
        <time>2021-04-20T13:19:27.000Z</time>
      </trkpt>
      <trkpt lat="47.20111" lon="-1.66334">
        <ele>55</ele>
        <time>2021-04-20T13:19:29.000Z</time>
      </trkpt>
      <trkpt lat="47.20111" lon="-1.66316">
        <ele>55</ele>
        <time>2021-04-20T13:19:31.000Z</time>
      </trkpt>
      <trkpt lat="47.20108" lon="-1.66299">
        <ele>55</ele>
        <time>2021-04-20T13:19:33.000Z</time>
      </trkpt>
      <trkpt lat="47.20099" lon="-1.66286">
        <ele>55</ele>
        <time>2021-04-20T13:19:35.000Z</time>
      </trkpt>
      <trkpt lat="47.20097" lon="-1.66268">
        <ele>55</ele>
        <time>2021-04-20T13:19:37.000Z</time>
      </trkpt>
      <trkpt lat="47.20105" lon="-1.66251">
        <ele>55</ele>
        <time>2021-04-20T13:19:39.000Z</time>
      </trkpt>
      <trkpt lat="47.20112" lon="-1.66235">
        <ele>55</ele>
        <time>2021-04-20T13:19:41.000Z</time>
      </trkpt>
      <trkpt lat="47.20114" lon="-1.66214">
        <ele>56</ele>
        <time>2021-04-20T13:19:43.000Z</time>
      </trkpt>
      <trkpt lat="47.20113" lon="-1.66194">
        <ele>56</ele>
        <time>2021-04-20T13:19:45.000Z</time>
      </trkpt>
      <trkpt lat="47.20112" lon="-1.66175">
        <ele>56</ele>
        <time>2021-04-20T13:19:47.000Z</time>
      </trkpt>
      <trkpt lat="47.20111" lon="-1.66155">
        <ele>56</ele>
        <time>2021-04-20T13:19:49.000Z</time>
      </trkpt>
      <trkpt lat="47.2011" lon="-1.66135">
        <ele>56</ele>
        <time>2021-04-20T13:19:51.000Z</time>
      </trkpt>
      <trkpt lat="47.20109" lon="-1.66116">
        <ele>55</ele>
        <time>2021-04-20T13:19:53.000Z</time>
      </trkpt>
      <trkpt lat="47.20107" lon="-1.66096">
        <ele>55</ele>
        <time>2021-04-20T13:19:55.000Z</time>
      </trkpt>
      <trkpt lat="47.20105" lon="-1.66078">
        <ele>55</ele>
        <time>2021-04-20T13:19:57.000Z</time>
      </trkpt>
      <trkpt lat="47.20103" lon="-1.66058">
        <ele>55</ele>
        <time>2021-04-20T13:19:59.000Z</time>
      </trkpt>
      <trkpt lat="47.20101" lon="-1.66038">
        <ele>55</ele>
        <time>2021-04-20T13:20:01.000Z</time>
      </trkpt>
      <trkpt lat="47.20099" lon="-1.66018">
        <ele>54</ele>
        <time>2021-04-20T13:20:03.000Z</time>
      </trkpt>
      <trkpt lat="47.20096" lon="-1.65998">
        <ele>55</ele>
        <time>2021-04-20T13:20:05.000Z</time>
      </trkpt>
      <trkpt lat="47.20093" lon="-1.65978">
        <ele>54</ele>
        <time>2021-04-20T13:20:07.000Z</time>
      </trkpt>
      <trkpt lat="47.2009" lon="-1.65958">
        <ele>55</ele>
        <time>2021-04-20T13:20:09.000Z</time>
      </trkpt>
      <trkpt lat="47.20087" lon="-1.65938">
        <ele>55</ele>
        <time>2021-04-20T13:20:11.000Z</time>
      </trkpt>
      <trkpt lat="47.20083" lon="-1.65917">
        <ele>55</ele>
        <time>2021-04-20T13:20:13.000Z</time>
      </trkpt>
      <trkpt lat="47.2008" lon="-1.65895">
        <ele>54</ele>
        <time>2021-04-20T13:20:15.000Z</time>
      </trkpt>
      <trkpt lat="47.20077" lon="-1.65874">
        <ele>54</ele>
        <time>2021-04-20T13:20:17.000Z</time>
      </trkpt>
      <trkpt lat="47.20073" lon="-1.65853">
        <ele>54</ele>
        <time>2021-04-20T13:20:19.000Z</time>
      </trkpt>
      <trkpt lat="47.2007" lon="-1.65833">
        <ele>54</ele>
        <time>2021-04-20T13:20:21.000Z</time>
      </trkpt>
      <trkpt lat="47.20067" lon="-1.65812">
        <ele>54</ele>
        <time>2021-04-20T13:20:23.000Z</time>
      </trkpt>
      <trkpt lat="47.20063" lon="-1.65792">
        <ele>54</ele>
        <time>2021-04-20T13:20:25.000Z</time>
      </trkpt>
      <trkpt lat="47.2006" lon="-1.65772">
        <ele>54</ele>
        <time>2021-04-20T13:20:27.000Z</time>
      </trkpt>
      <trkpt lat="47.20056" lon="-1.65752">
        <ele>54</ele>
        <time>2021-04-20T13:20:29.000Z</time>
      </trkpt>
      <trkpt lat="47.20053" lon="-1.65731">
        <ele>54</ele>
        <time>2021-04-20T13:20:31.000Z</time>
      </trkpt>
      <trkpt lat="47.20049" lon="-1.65712">
        <ele>54</ele>
        <time>2021-04-20T13:20:33.000Z</time>
      </trkpt>
      <trkpt lat="47.20046" lon="-1.65692">
        <ele>54</ele>
        <time>2021-04-20T13:20:35.000Z</time>
      </trkpt>
      <trkpt lat="47.20042" lon="-1.65672">
        <ele>54</ele>
        <time>2021-04-20T13:20:37.000Z</time>
      </trkpt>
      <trkpt lat="47.20039" lon="-1.65652">
        <ele>54</ele>
        <time>2021-04-20T13:20:39.000Z</time>
      </trkpt>
      <trkpt lat="47.20035" lon="-1.65633">
        <ele>54</ele>
        <time>2021-04-20T13:20:41.000Z</time>
      </trkpt>
      <trkpt lat="47.20032" lon="-1.65613">
        <ele>55</ele>
        <time>2021-04-20T13:20:43.000Z</time>
      </trkpt>
      <trkpt lat="47.20028" lon="-1.65594">
        <ele>54</ele>
        <time>2021-04-20T13:20:45.000Z</time>
      </trkpt>
      <trkpt lat="47.20024" lon="-1.65575">
        <ele>55</ele>
        <time>2021-04-20T13:20:47.000Z</time>
      </trkpt>
      <trkpt lat="47.20021" lon="-1.65557">
        <ele>55</ele>
        <time>2021-04-20T13:20:49.000Z</time>
      </trkpt>
      <trkpt lat="47.20017" lon="-1.65537">
        <ele>56</ele>
        <time>2021-04-20T13:20:51.000Z</time>
      </trkpt>
      <trkpt lat="47.20013" lon="-1.65518">
        <ele>56</ele>
        <time>2021-04-20T13:20:53.000Z</time>
      </trkpt>
      <trkpt lat="47.2001" lon="-1.65498">
        <ele>55</ele>
        <time>2021-04-20T13:20:55.000Z</time>
      </trkpt>
      <trkpt lat="47.20006" lon="-1.65479">
        <ele>55</ele>
        <time>2021-04-20T13:20:57.000Z</time>
      </trkpt>
      <trkpt lat="47.20002" lon="-1.6546">
        <ele>55</ele>
        <time>2021-04-20T13:20:59.000Z</time>
      </trkpt>
      <trkpt lat="47.19997" lon="-1.65441">
        <ele>55</ele>
        <time>2021-04-20T13:21:01.000Z</time>
      </trkpt>
      <trkpt lat="47.19993" lon="-1.65423">
        <ele>56</ele>
        <time>2021-04-20T13:21:03.000Z</time>
      </trkpt>
      <trkpt lat="47.19989" lon="-1.65405">
        <ele>56</ele>
        <time>2021-04-20T13:21:05.000Z</time>
      </trkpt>
      <trkpt lat="47.19984" lon="-1.65386">
        <ele>56</ele>
        <time>2021-04-20T13:21:07.000Z</time>
      </trkpt>
      <trkpt lat="47.19979" lon="-1.65368">
        <ele>56</ele>
        <time>2021-04-20T13:21:09.000Z</time>
      </trkpt>
      <trkpt lat="47.19974" lon="-1.65349">
        <ele>55</ele>
        <time>2021-04-20T13:21:11.000Z</time>
      </trkpt>
      <trkpt lat="47.19969" lon="-1.6533">
        <ele>54</ele>
        <time>2021-04-20T13:21:13.000Z</time>
      </trkpt>
      <trkpt lat="47.19963" lon="-1.65312">
        <ele>55</ele>
        <time>2021-04-20T13:21:15.000Z</time>
      </trkpt>
      <trkpt lat="47.19958" lon="-1.65294">
        <ele>55</ele>
        <time>2021-04-20T13:21:17.000Z</time>
      </trkpt>
      <trkpt lat="47.19951" lon="-1.65275">
        <ele>54</ele>
        <time>2021-04-20T13:21:19.000Z</time>
      </trkpt>
      <trkpt lat="47.19945" lon="-1.65258">
        <ele>55</ele>
        <time>2021-04-20T13:21:21.000Z</time>
      </trkpt>
      <trkpt lat="47.19939" lon="-1.6524">
        <ele>55</ele>
        <time>2021-04-20T13:21:23.000Z</time>
      </trkpt>
      <trkpt lat="47.19933" lon="-1.65223">
        <ele>55</ele>
        <time>2021-04-20T13:21:25.000Z</time>
      </trkpt>
      <trkpt lat="47.19926" lon="-1.65206">
        <ele>55</ele>
        <time>2021-04-20T13:21:27.000Z</time>
      </trkpt>
      <trkpt lat="47.1992" lon="-1.65189">
        <ele>55</ele>
        <time>2021-04-20T13:21:29.000Z</time>
      </trkpt>
      <trkpt lat="47.19914" lon="-1.65173">
        <ele>55</ele>
        <time>2021-04-20T13:21:31.000Z</time>
      </trkpt>
      <trkpt lat="47.19908" lon="-1.65157">
        <ele>54</ele>
        <time>2021-04-20T13:21:33.000Z</time>
      </trkpt>
      <trkpt lat="47.19902" lon="-1.65141">
        <ele>55</ele>
        <time>2021-04-20T13:21:35.000Z</time>
      </trkpt>
      <trkpt lat="47.19896" lon="-1.65125">
        <ele>55</ele>
        <time>2021-04-20T13:21:37.000Z</time>
      </trkpt>
      <trkpt lat="47.19889" lon="-1.65109">
        <ele>55</ele>
        <time>2021-04-20T13:21:39.000Z</time>
      </trkpt>
      <trkpt lat="47.19882" lon="-1.65093">
        <ele>55</ele>
        <time>2021-04-20T13:21:41.000Z</time>
      </trkpt>
      <trkpt lat="47.19876" lon="-1.65077">
        <ele>55</ele>
        <time>2021-04-20T13:21:43.000Z</time>
      </trkpt>
      <trkpt lat="47.1987" lon="-1.65061">
        <ele>55</ele>
        <time>2021-04-20T13:21:45.000Z</time>
      </trkpt>
      <trkpt lat="47.19863" lon="-1.65044">
        <ele>55</ele>
        <time>2021-04-20T13:21:47.000Z</time>
      </trkpt>
      <trkpt lat="47.19857" lon="-1.65028">
        <ele>56</ele>
        <time>2021-04-20T13:21:49.000Z</time>
      </trkpt>
      <trkpt lat="47.1985" lon="-1.65011">
        <ele>56</ele>
        <time>2021-04-20T13:21:51.000Z</time>
      </trkpt>
      <trkpt lat="47.19844" lon="-1.64994">
        <ele>56</ele>
        <time>2021-04-20T13:21:53.000Z</time>
      </trkpt>
      <trkpt lat="47.19838" lon="-1.64978">
        <ele>55</ele>
        <time>2021-04-20T13:21:55.000Z</time>
      </trkpt>
      <trkpt lat="47.19832" lon="-1.64961">
        <ele>55</ele>
        <time>2021-04-20T13:21:57.000Z</time>
      </trkpt>
      <trkpt lat="47.19825" lon="-1.64945">
        <ele>55</ele>
        <time>2021-04-20T13:21:59.000Z</time>
      </trkpt>
      <trkpt lat="47.1982" lon="-1.64929">
        <ele>55</ele>
        <time>2021-04-20T13:22:01.000Z</time>
      </trkpt>
      <trkpt lat="47.19814" lon="-1.64914">
        <ele>55</ele>
        <time>2021-04-20T13:22:03.000Z</time>
      </trkpt>
      <trkpt lat="47.19808" lon="-1.64898">
        <ele>55</ele>
        <time>2021-04-20T13:22:05.000Z</time>
      </trkpt>
      <trkpt lat="47.19802" lon="-1.64882">
        <ele>56</ele>
        <time>2021-04-20T13:22:07.000Z</time>
      </trkpt>
      <trkpt lat="47.19796" lon="-1.64866">
        <ele>56</ele>
        <time>2021-04-20T13:22:09.000Z</time>
      </trkpt>
      <trkpt lat="47.19789" lon="-1.64851">
        <ele>56</ele>
        <time>2021-04-20T13:22:11.000Z</time>
      </trkpt>
      <trkpt lat="47.19783" lon="-1.64834">
        <ele>56</ele>
        <time>2021-04-20T13:22:13.000Z</time>
      </trkpt>
      <trkpt lat="47.19777" lon="-1.64818">
        <ele>56</ele>
        <time>2021-04-20T13:22:15.000Z</time>
      </trkpt>
      <trkpt lat="47.19771" lon="-1.64802">
        <ele>56</ele>
        <time>2021-04-20T13:22:17.000Z</time>
      </trkpt>
      <trkpt lat="47.19765" lon="-1.64785">
        <ele>55</ele>
        <time>2021-04-20T13:22:19.000Z</time>
      </trkpt>
      <trkpt lat="47.19759" lon="-1.64769">
        <ele>55</ele>
        <time>2021-04-20T13:22:21.000Z</time>
      </trkpt>
      <trkpt lat="47.19753" lon="-1.64753">
        <ele>55</ele>
        <time>2021-04-20T13:22:23.000Z</time>
      </trkpt>
      <trkpt lat="47.19747" lon="-1.64737">
        <ele>56</ele>
        <time>2021-04-20T13:22:25.000Z</time>
      </trkpt>
      <trkpt lat="47.1974" lon="-1.64721">
        <ele>56</ele>
        <time>2021-04-20T13:22:27.000Z</time>
      </trkpt>
      <trkpt lat="47.19734" lon="-1.64706">
        <ele>56</ele>
        <time>2021-04-20T13:22:29.000Z</time>
      </trkpt>
      <trkpt lat="47.19727" lon="-1.6469">
        <ele>55</ele>
        <time>2021-04-20T13:22:31.000Z</time>
      </trkpt>
      <trkpt lat="47.19721" lon="-1.64674">
        <ele>56</ele>
        <time>2021-04-20T13:22:33.000Z</time>
      </trkpt>
      <trkpt lat="47.19715" lon="-1.64658">
        <ele>56</ele>
        <time>2021-04-20T13:22:35.000Z</time>
      </trkpt>
      <trkpt lat="47.19709" lon="-1.64643">
        <ele>56</ele>
        <time>2021-04-20T13:22:37.000Z</time>
      </trkpt>
      <trkpt lat="47.19702" lon="-1.64627">
        <ele>56</ele>
        <time>2021-04-20T13:22:39.000Z</time>
      </trkpt>
      <trkpt lat="47.19696" lon="-1.64611">
        <ele>55</ele>
        <time>2021-04-20T13:22:41.000Z</time>
      </trkpt>
      <trkpt lat="47.1969" lon="-1.64594">
        <ele>56</ele>
        <time>2021-04-20T13:22:43.000Z</time>
      </trkpt>
      <trkpt lat="47.19684" lon="-1.64577">
        <ele>56</ele>
        <time>2021-04-20T13:22:45.000Z</time>
      </trkpt>
      <trkpt lat="47.19677" lon="-1.64561">
        <ele>56</ele>
        <time>2021-04-20T13:22:47.000Z</time>
      </trkpt>
      <trkpt lat="47.19671" lon="-1.64544">
        <ele>56</ele>
        <time>2021-04-20T13:22:49.000Z</time>
      </trkpt>
      <trkpt lat="47.19664" lon="-1.64527">
        <ele>56</ele>
        <time>2021-04-20T13:22:51.000Z</time>
      </trkpt>
      <trkpt lat="47.19658" lon="-1.64511">
        <ele>55</ele>
        <time>2021-04-20T13:22:53.000Z</time>
      </trkpt>
      <trkpt lat="47.19652" lon="-1.64495">
        <ele>55</ele>
        <time>2021-04-20T13:22:55.000Z</time>
      </trkpt>
      <trkpt lat="47.19645" lon="-1.64478">
        <ele>56</ele>
        <time>2021-04-20T13:22:57.000Z</time>
      </trkpt>
      <trkpt lat="47.19639" lon="-1.64461">
        <ele>55</ele>
        <time>2021-04-20T13:22:59.000Z</time>
      </trkpt>
      <trkpt lat="47.19633" lon="-1.64445">
        <ele>55</ele>
        <time>2021-04-20T13:23:01.000Z</time>
      </trkpt>
      <trkpt lat="47.19626" lon="-1.64429">
        <ele>56</ele>
        <time>2021-04-20T13:23:03.000Z</time>
      </trkpt>
      <trkpt lat="47.1962" lon="-1.64413">
        <ele>56</ele>
        <time>2021-04-20T13:23:05.000Z</time>
      </trkpt>
      <trkpt lat="47.19614" lon="-1.64396">
        <ele>56</ele>
        <time>2021-04-20T13:23:07.000Z</time>
      </trkpt>
      <trkpt lat="47.19608" lon="-1.64379">
        <ele>56</ele>
        <time>2021-04-20T13:23:09.000Z</time>
      </trkpt>
      <trkpt lat="47.19602" lon="-1.64363">
        <ele>56</ele>
        <time>2021-04-20T13:23:11.000Z</time>
      </trkpt>
      <trkpt lat="47.19595" lon="-1.64347">
        <ele>56</ele>
        <time>2021-04-20T13:23:13.000Z</time>
      </trkpt>
      <trkpt lat="47.19589" lon="-1.6433">
        <ele>56</ele>
        <time>2021-04-20T13:23:15.000Z</time>
      </trkpt>
      <trkpt lat="47.19582" lon="-1.64313">
        <ele>56</ele>
        <time>2021-04-20T13:23:17.000Z</time>
      </trkpt>
      <trkpt lat="47.19576" lon="-1.64296">
        <ele>56</ele>
        <time>2021-04-20T13:23:19.000Z</time>
      </trkpt>
      <trkpt lat="47.1957" lon="-1.64279">
        <ele>55</ele>
        <time>2021-04-20T13:23:21.000Z</time>
      </trkpt>
      <trkpt lat="47.19563" lon="-1.64262">
        <ele>55</ele>
        <time>2021-04-20T13:23:23.000Z</time>
      </trkpt>
      <trkpt lat="47.19556" lon="-1.64245">
        <ele>55</ele>
        <time>2021-04-20T13:23:25.000Z</time>
      </trkpt>
      <trkpt lat="47.1955" lon="-1.64228">
        <ele>55</ele>
        <time>2021-04-20T13:23:27.000Z</time>
      </trkpt>
      <trkpt lat="47.19544" lon="-1.64212">
        <ele>55</ele>
        <time>2021-04-20T13:23:29.000Z</time>
      </trkpt>
      <trkpt lat="47.19537" lon="-1.64195">
        <ele>55</ele>
        <time>2021-04-20T13:23:31.000Z</time>
      </trkpt>
      <trkpt lat="47.1953" lon="-1.64179">
        <ele>55</ele>
        <time>2021-04-20T13:23:33.000Z</time>
      </trkpt>
      <trkpt lat="47.19523" lon="-1.64162">
        <ele>56</ele>
        <time>2021-04-20T13:23:35.000Z</time>
      </trkpt>
      <trkpt lat="47.19517" lon="-1.64145">
        <ele>56</ele>
        <time>2021-04-20T13:23:37.000Z</time>
      </trkpt>
      <trkpt lat="47.1951" lon="-1.64129">
        <ele>56</ele>
        <time>2021-04-20T13:23:39.000Z</time>
      </trkpt>
      <trkpt lat="47.19504" lon="-1.64112">
        <ele>56</ele>
        <time>2021-04-20T13:23:41.000Z</time>
      </trkpt>
      <trkpt lat="47.19498" lon="-1.64096">
        <ele>56</ele>
        <time>2021-04-20T13:23:43.000Z</time>
      </trkpt>
      <trkpt lat="47.19491" lon="-1.64079">
        <ele>56</ele>
        <time>2021-04-20T13:23:45.000Z</time>
      </trkpt>
      <trkpt lat="47.19485" lon="-1.64063">
        <ele>56</ele>
        <time>2021-04-20T13:23:47.000Z</time>
      </trkpt>
      <trkpt lat="47.19479" lon="-1.64046">
        <ele>56</ele>
        <time>2021-04-20T13:23:49.000Z</time>
      </trkpt>
      <trkpt lat="47.19474" lon="-1.64029">
        <ele>56</ele>
        <time>2021-04-20T13:23:51.000Z</time>
      </trkpt>
      <trkpt lat="47.19468" lon="-1.64011">
        <ele>56</ele>
        <time>2021-04-20T13:23:53.000Z</time>
      </trkpt>
      <trkpt lat="47.19463" lon="-1.63993">
        <ele>56</ele>
        <time>2021-04-20T13:23:55.000Z</time>
      </trkpt>
      <trkpt lat="47.19458" lon="-1.63975">
        <ele>56</ele>
        <time>2021-04-20T13:23:57.000Z</time>
      </trkpt>
      <trkpt lat="47.19454" lon="-1.63957">
        <ele>55</ele>
        <time>2021-04-20T13:23:59.000Z</time>
      </trkpt>
      <trkpt lat="47.19451" lon="-1.63939">
        <ele>55</ele>
        <time>2021-04-20T13:24:01.000Z</time>
      </trkpt>
      <trkpt lat="47.19448" lon="-1.63921">
        <ele>56</ele>
        <time>2021-04-20T13:24:03.000Z</time>
      </trkpt>
      <trkpt lat="47.19446" lon="-1.63904">
        <ele>56</ele>
        <time>2021-04-20T13:24:05.000Z</time>
      </trkpt>
      <trkpt lat="47.19445" lon="-1.63887">
        <ele>55</ele>
        <time>2021-04-20T13:24:07.000Z</time>
      </trkpt>
      <trkpt lat="47.19445" lon="-1.63871">
        <ele>55</ele>
        <time>2021-04-20T13:24:09.000Z</time>
      </trkpt>
      <trkpt lat="47.1944" lon="-1.63858">
        <ele>55</ele>
        <time>2021-04-20T13:24:11.000Z</time>
      </trkpt>
      <trkpt lat="47.19433" lon="-1.63845">
        <ele>55</ele>
        <time>2021-04-20T13:24:13.000Z</time>
      </trkpt>
      <trkpt lat="47.19429" lon="-1.6383">
        <ele>55</ele>
        <time>2021-04-20T13:24:15.000Z</time>
      </trkpt>
      <trkpt lat="47.19429" lon="-1.63814">
        <ele>55</ele>
        <time>2021-04-20T13:24:17.000Z</time>
      </trkpt>
      <trkpt lat="47.19429" lon="-1.638">
        <ele>55</ele>
        <time>2021-04-20T13:24:19.000Z</time>
      </trkpt>
      <trkpt lat="47.19429" lon="-1.63786">
        <ele>55</ele>
        <time>2021-04-20T13:24:22.000Z</time>
      </trkpt>
      <trkpt lat="47.19442" lon="-1.6378">
        <ele>55</ele>
        <time>2021-04-20T13:24:25.000Z</time>
      </trkpt>
      <trkpt lat="47.19448" lon="-1.63769">
        <ele>55</ele>
        <time>2021-04-20T13:24:27.000Z</time>
      </trkpt>
      <trkpt lat="47.19449" lon="-1.63753">
        <ele>54</ele>
        <time>2021-04-20T13:24:29.000Z</time>
      </trkpt>
      <trkpt lat="47.19446" lon="-1.63735">
        <ele>54</ele>
        <time>2021-04-20T13:24:31.000Z</time>
      </trkpt>
      <trkpt lat="47.19445" lon="-1.63717">
        <ele>53</ele>
        <time>2021-04-20T13:24:33.000Z</time>
      </trkpt>
      <trkpt lat="47.19445" lon="-1.63699">
        <ele>53</ele>
        <time>2021-04-20T13:24:35.000Z</time>
      </trkpt>
      <trkpt lat="47.19445" lon="-1.6368">
        <ele>53</ele>
        <time>2021-04-20T13:24:37.000Z</time>
      </trkpt>
      <trkpt lat="47.19446" lon="-1.63661">
        <ele>53</ele>
        <time>2021-04-20T13:24:39.000Z</time>
      </trkpt>
      <trkpt lat="47.19446" lon="-1.63642">
        <ele>53</ele>
        <time>2021-04-20T13:24:41.000Z</time>
      </trkpt>
      <trkpt lat="47.19446" lon="-1.63622">
        <ele>53</ele>
        <time>2021-04-20T13:24:43.000Z</time>
      </trkpt>
      <trkpt lat="47.19449" lon="-1.63602">
        <ele>53</ele>
        <time>2021-04-20T13:24:45.000Z</time>
      </trkpt>
      <trkpt lat="47.19451" lon="-1.63583">
        <ele>53</ele>
        <time>2021-04-20T13:24:47.000Z</time>
      </trkpt>
      <trkpt lat="47.19453" lon="-1.63565">
        <ele>53</ele>
        <time>2021-04-20T13:24:49.000Z</time>
      </trkpt>
      <trkpt lat="47.19455" lon="-1.63547">
        <ele>52</ele>
        <time>2021-04-20T13:24:51.000Z</time>
      </trkpt>
      <trkpt lat="47.19457" lon="-1.63528">
        <ele>52</ele>
        <time>2021-04-20T13:24:53.000Z</time>
      </trkpt>
      <trkpt lat="47.19459" lon="-1.6351">
        <ele>52</ele>
        <time>2021-04-20T13:24:55.000Z</time>
      </trkpt>
      <trkpt lat="47.19461" lon="-1.63493">
        <ele>53</ele>
        <time>2021-04-20T13:24:57.000Z</time>
      </trkpt>
      <trkpt lat="47.19464" lon="-1.63475">
        <ele>53</ele>
        <time>2021-04-20T13:24:59.000Z</time>
      </trkpt>
      <trkpt lat="47.19466" lon="-1.63456">
        <ele>53</ele>
        <time>2021-04-20T13:25:01.000Z</time>
      </trkpt>
      <trkpt lat="47.19468" lon="-1.63438">
        <ele>53</ele>
        <time>2021-04-20T13:25:03.000Z</time>
      </trkpt>
      <trkpt lat="47.19471" lon="-1.6342">
        <ele>53</ele>
        <time>2021-04-20T13:25:05.000Z</time>
      </trkpt>
      <trkpt lat="47.19473" lon="-1.63402">
        <ele>53</ele>
        <time>2021-04-20T13:25:07.000Z</time>
      </trkpt>
      <trkpt lat="47.19475" lon="-1.63383">
        <ele>53</ele>
        <time>2021-04-20T13:25:09.000Z</time>
      </trkpt>
      <trkpt lat="47.19477" lon="-1.63365">
        <ele>53</ele>
        <time>2021-04-20T13:25:11.000Z</time>
      </trkpt>
      <trkpt lat="47.1948" lon="-1.63346">
        <ele>53</ele>
        <time>2021-04-20T13:25:13.000Z</time>
      </trkpt>
      <trkpt lat="47.19482" lon="-1.63327">
        <ele>53</ele>
        <time>2021-04-20T13:25:15.000Z</time>
      </trkpt>
      <trkpt lat="47.19485" lon="-1.63308">
        <ele>53</ele>
        <time>2021-04-20T13:25:17.000Z</time>
      </trkpt>
      <trkpt lat="47.19487" lon="-1.63291">
        <ele>53</ele>
        <time>2021-04-20T13:25:19.000Z</time>
      </trkpt>
      <trkpt lat="47.19489" lon="-1.63272">
        <ele>54</ele>
        <time>2021-04-20T13:25:21.000Z</time>
      </trkpt>
      <trkpt lat="47.19491" lon="-1.63253">
        <ele>53</ele>
        <time>2021-04-20T13:25:23.000Z</time>
      </trkpt>
      <trkpt lat="47.19494" lon="-1.63235">
        <ele>53</ele>
        <time>2021-04-20T13:25:25.000Z</time>
      </trkpt>
      <trkpt lat="47.19496" lon="-1.63217">
        <ele>53</ele>
        <time>2021-04-20T13:25:27.000Z</time>
      </trkpt>
      <trkpt lat="47.19498" lon="-1.63199">
        <ele>53</ele>
        <time>2021-04-20T13:25:29.000Z</time>
      </trkpt>
      <trkpt lat="47.195" lon="-1.63182">
        <ele>53</ele>
        <time>2021-04-20T13:25:31.000Z</time>
      </trkpt>
      <trkpt lat="47.19501" lon="-1.63163">
        <ele>53</ele>
        <time>2021-04-20T13:25:33.000Z</time>
      </trkpt>
      <trkpt lat="47.19504" lon="-1.63145">
        <ele>53</ele>
        <time>2021-04-20T13:25:35.000Z</time>
      </trkpt>
      <trkpt lat="47.19504" lon="-1.63127">
        <ele>53</ele>
        <time>2021-04-20T13:25:37.000Z</time>
      </trkpt>
      <trkpt lat="47.19505" lon="-1.63108">
        <ele>53</ele>
        <time>2021-04-20T13:25:39.000Z</time>
      </trkpt>
      <trkpt lat="47.19505" lon="-1.6309">
        <ele>53</ele>
        <time>2021-04-20T13:25:41.000Z</time>
      </trkpt>
      <trkpt lat="47.19505" lon="-1.63072">
        <ele>53</ele>
        <time>2021-04-20T13:25:43.000Z</time>
      </trkpt>
      <trkpt lat="47.19505" lon="-1.63053">
        <ele>53</ele>
        <time>2021-04-20T13:25:45.000Z</time>
      </trkpt>
      <trkpt lat="47.19504" lon="-1.63033">
        <ele>53</ele>
        <time>2021-04-20T13:25:47.000Z</time>
      </trkpt>
      <trkpt lat="47.19503" lon="-1.63015">
        <ele>53</ele>
        <time>2021-04-20T13:25:49.000Z</time>
      </trkpt>
      <trkpt lat="47.19501" lon="-1.62997">
        <ele>53</ele>
        <time>2021-04-20T13:25:51.000Z</time>
      </trkpt>
      <trkpt lat="47.195" lon="-1.62978">
        <ele>53</ele>
        <time>2021-04-20T13:25:53.000Z</time>
      </trkpt>
      <trkpt lat="47.19498" lon="-1.6296">
        <ele>53</ele>
        <time>2021-04-20T13:25:55.000Z</time>
      </trkpt>
      <trkpt lat="47.19495" lon="-1.62942">
        <ele>53</ele>
        <time>2021-04-20T13:25:57.000Z</time>
      </trkpt>
      <trkpt lat="47.19493" lon="-1.62924">
        <ele>52</ele>
        <time>2021-04-20T13:25:59.000Z</time>
      </trkpt>
      <trkpt lat="47.19491" lon="-1.62905">
        <ele>52</ele>
        <time>2021-04-20T13:26:01.000Z</time>
      </trkpt>
      <trkpt lat="47.1949" lon="-1.62887">
        <ele>52</ele>
        <time>2021-04-20T13:26:03.000Z</time>
      </trkpt>
      <trkpt lat="47.19488" lon="-1.62869">
        <ele>52</ele>
        <time>2021-04-20T13:26:05.000Z</time>
      </trkpt>
      <trkpt lat="47.19487" lon="-1.62851">
        <ele>53</ele>
        <time>2021-04-20T13:26:07.000Z</time>
      </trkpt>
      <trkpt lat="47.19485" lon="-1.62832">
        <ele>52</ele>
        <time>2021-04-20T13:26:09.000Z</time>
      </trkpt>
      <trkpt lat="47.19484" lon="-1.62814">
        <ele>53</ele>
        <time>2021-04-20T13:26:11.000Z</time>
      </trkpt>
      <trkpt lat="47.19483" lon="-1.62796">
        <ele>53</ele>
        <time>2021-04-20T13:26:13.000Z</time>
      </trkpt>
      <trkpt lat="47.19481" lon="-1.62778">
        <ele>53</ele>
        <time>2021-04-20T13:26:15.000Z</time>
      </trkpt>
      <trkpt lat="47.1948" lon="-1.6276">
        <ele>53</ele>
        <time>2021-04-20T13:26:17.000Z</time>
      </trkpt>
      <trkpt lat="47.19479" lon="-1.62742">
        <ele>53</ele>
        <time>2021-04-20T13:26:19.000Z</time>
      </trkpt>
      <trkpt lat="47.19478" lon="-1.62724">
        <ele>53</ele>
        <time>2021-04-20T13:26:21.000Z</time>
      </trkpt>
      <trkpt lat="47.19478" lon="-1.62705">
        <ele>53</ele>
        <time>2021-04-20T13:26:23.000Z</time>
      </trkpt>
      <trkpt lat="47.19477" lon="-1.62685">
        <ele>52</ele>
        <time>2021-04-20T13:26:25.000Z</time>
      </trkpt>
      <trkpt lat="47.19476" lon="-1.62667">
        <ele>53</ele>
        <time>2021-04-20T13:26:27.000Z</time>
      </trkpt>
      <trkpt lat="47.19475" lon="-1.62648">
        <ele>53</ele>
        <time>2021-04-20T13:26:29.000Z</time>
      </trkpt>
      <trkpt lat="47.19474" lon="-1.6263">
        <ele>53</ele>
        <time>2021-04-20T13:26:31.000Z</time>
      </trkpt>
      <trkpt lat="47.19473" lon="-1.62612">
        <ele>53</ele>
        <time>2021-04-20T13:26:33.000Z</time>
      </trkpt>
      <trkpt lat="47.19472" lon="-1.62594">
        <ele>53</ele>
        <time>2021-04-20T13:26:35.000Z</time>
      </trkpt>
      <trkpt lat="47.19472" lon="-1.62577">
        <ele>53</ele>
        <time>2021-04-20T13:26:37.000Z</time>
      </trkpt>
      <trkpt lat="47.19471" lon="-1.62558">
        <ele>53</ele>
        <time>2021-04-20T13:26:39.000Z</time>
      </trkpt>
      <trkpt lat="47.1947" lon="-1.62539">
        <ele>53</ele>
        <time>2021-04-20T13:26:41.000Z</time>
      </trkpt>
      <trkpt lat="47.1947" lon="-1.62521">
        <ele>53</ele>
        <time>2021-04-20T13:26:43.000Z</time>
      </trkpt>
      <trkpt lat="47.19469" lon="-1.62503">
        <ele>53</ele>
        <time>2021-04-20T13:26:45.000Z</time>
      </trkpt>
      <trkpt lat="47.19468" lon="-1.62485">
        <ele>53</ele>
        <time>2021-04-20T13:26:47.000Z</time>
      </trkpt>
      <trkpt lat="47.19467" lon="-1.62467">
        <ele>53</ele>
        <time>2021-04-20T13:26:49.000Z</time>
      </trkpt>
      <trkpt lat="47.19467" lon="-1.62449">
        <ele>54</ele>
        <time>2021-04-20T13:26:51.000Z</time>
      </trkpt>
      <trkpt lat="47.19466" lon="-1.62431">
        <ele>54</ele>
        <time>2021-04-20T13:26:53.000Z</time>
      </trkpt>
      <trkpt lat="47.19466" lon="-1.62413">
        <ele>54</ele>
        <time>2021-04-20T13:26:55.000Z</time>
      </trkpt>
      <trkpt lat="47.19465" lon="-1.62395">
        <ele>54</ele>
        <time>2021-04-20T13:26:57.000Z</time>
      </trkpt>
      <trkpt lat="47.19464" lon="-1.62378">
        <ele>53</ele>
        <time>2021-04-20T13:26:59.000Z</time>
      </trkpt>
      <trkpt lat="47.19464" lon="-1.62359">
        <ele>54</ele>
        <time>2021-04-20T13:27:01.000Z</time>
      </trkpt>
      <trkpt lat="47.19464" lon="-1.62342">
        <ele>53</ele>
        <time>2021-04-20T13:27:03.000Z</time>
      </trkpt>
      <trkpt lat="47.19464" lon="-1.62323">
        <ele>54</ele>
        <time>2021-04-20T13:27:05.000Z</time>
      </trkpt>
      <trkpt lat="47.19464" lon="-1.62305">
        <ele>54</ele>
        <time>2021-04-20T13:27:07.000Z</time>
      </trkpt>
      <trkpt lat="47.19464" lon="-1.62287">
        <ele>54</ele>
        <time>2021-04-20T13:27:09.000Z</time>
      </trkpt>
      <trkpt lat="47.19464" lon="-1.62268">
        <ele>54</ele>
        <time>2021-04-20T13:27:11.000Z</time>
      </trkpt>
      <trkpt lat="47.19464" lon="-1.6225">
        <ele>54</ele>
        <time>2021-04-20T13:27:13.000Z</time>
      </trkpt>
      <trkpt lat="47.19466" lon="-1.62231">
        <ele>54</ele>
        <time>2021-04-20T13:27:15.000Z</time>
      </trkpt>
      <trkpt lat="47.19467" lon="-1.62212">
        <ele>54</ele>
        <time>2021-04-20T13:27:17.000Z</time>
      </trkpt>
      <trkpt lat="47.19467" lon="-1.62192">
        <ele>54</ele>
        <time>2021-04-20T13:27:19.000Z</time>
      </trkpt>
      <trkpt lat="47.19467" lon="-1.62173">
        <ele>55</ele>
        <time>2021-04-20T13:27:21.000Z</time>
      </trkpt>
      <trkpt lat="47.19466" lon="-1.62154">
        <ele>54</ele>
        <time>2021-04-20T13:27:23.000Z</time>
      </trkpt>
      <trkpt lat="47.19465" lon="-1.62134">
        <ele>54</ele>
        <time>2021-04-20T13:27:25.000Z</time>
      </trkpt>
      <trkpt lat="47.19465" lon="-1.62115">
        <ele>54</ele>
        <time>2021-04-20T13:27:27.000Z</time>
      </trkpt>
      <trkpt lat="47.19464" lon="-1.62097">
        <ele>54</ele>
        <time>2021-04-20T13:27:29.000Z</time>
      </trkpt>
      <trkpt lat="47.19463" lon="-1.62078">
        <ele>54</ele>
        <time>2021-04-20T13:27:31.000Z</time>
      </trkpt>
      <trkpt lat="47.19463" lon="-1.6206">
        <ele>54</ele>
        <time>2021-04-20T13:27:33.000Z</time>
      </trkpt>
      <trkpt lat="47.19462" lon="-1.62043">
        <ele>54</ele>
        <time>2021-04-20T13:27:35.000Z</time>
      </trkpt>
      <trkpt lat="47.19462" lon="-1.62027">
        <ele>55</ele>
        <time>2021-04-20T13:27:37.000Z</time>
      </trkpt>
      <trkpt lat="47.19462" lon="-1.6201">
        <ele>55</ele>
        <time>2021-04-20T13:27:39.000Z</time>
      </trkpt>
      <trkpt lat="47.19463" lon="-1.61994">
        <ele>55</ele>
        <time>2021-04-20T13:27:41.000Z</time>
      </trkpt>
      <trkpt lat="47.19465" lon="-1.61981">
        <ele>55</ele>
        <time>2021-04-20T13:27:43.000Z</time>
      </trkpt>
      <trkpt lat="47.19455" lon="-1.61972">
        <ele>54</ele>
        <time>2021-04-20T13:27:46.000Z</time>
      </trkpt>
      <trkpt lat="47.1945" lon="-1.61959">
        <ele>55</ele>
        <time>2021-04-20T13:27:48.000Z</time>
      </trkpt>
      <trkpt lat="47.19447" lon="-1.61941">
        <ele>55</ele>
        <time>2021-04-20T13:27:50.000Z</time>
      </trkpt>
      <trkpt lat="47.19446" lon="-1.61922">
        <ele>55</ele>
        <time>2021-04-20T13:27:52.000Z</time>
      </trkpt>
      <trkpt lat="47.19443" lon="-1.61906">
        <ele>55</ele>
        <time>2021-04-20T13:27:54.000Z</time>
      </trkpt>
      <trkpt lat="47.19436" lon="-1.6189">
        <ele>55</ele>
        <time>2021-04-20T13:27:56.000Z</time>
      </trkpt>
      <trkpt lat="47.19431" lon="-1.61872">
        <ele>55</ele>
        <time>2021-04-20T13:27:58.000Z</time>
      </trkpt>
      <trkpt lat="47.19429" lon="-1.61852">
        <ele>55</ele>
        <time>2021-04-20T13:28:00.000Z</time>
      </trkpt>
      <trkpt lat="47.19428" lon="-1.61833">
        <ele>54</ele>
        <time>2021-04-20T13:28:02.000Z</time>
      </trkpt>
      <trkpt lat="47.19428" lon="-1.61814">
        <ele>54</ele>
        <time>2021-04-20T13:28:04.000Z</time>
      </trkpt>
      <trkpt lat="47.19429" lon="-1.61795">
        <ele>55</ele>
        <time>2021-04-20T13:28:06.000Z</time>
      </trkpt>
      <trkpt lat="47.19432" lon="-1.61777">
        <ele>54</ele>
        <time>2021-04-20T13:28:08.000Z</time>
      </trkpt>
      <trkpt lat="47.19436" lon="-1.61759">
        <ele>54</ele>
        <time>2021-04-20T13:28:10.000Z</time>
      </trkpt>
      <trkpt lat="47.19439" lon="-1.61741">
        <ele>53</ele>
        <time>2021-04-20T13:28:12.000Z</time>
      </trkpt>
      <trkpt lat="47.19441" lon="-1.61723">
        <ele>53</ele>
        <time>2021-04-20T13:28:14.000Z</time>
      </trkpt>
      <trkpt lat="47.19443" lon="-1.61704">
        <ele>53</ele>
        <time>2021-04-20T13:28:16.000Z</time>
      </trkpt>
      <trkpt lat="47.19443" lon="-1.61686">
        <ele>53</ele>
        <time>2021-04-20T13:28:18.000Z</time>
      </trkpt>
      <trkpt lat="47.19445" lon="-1.61667">
        <ele>53</ele>
        <time>2021-04-20T13:28:20.000Z</time>
      </trkpt>
      <trkpt lat="47.19446" lon="-1.61649">
        <ele>52</ele>
        <time>2021-04-20T13:28:22.000Z</time>
      </trkpt>
      <trkpt lat="47.19448" lon="-1.61631">
        <ele>52</ele>
        <time>2021-04-20T13:28:24.000Z</time>
      </trkpt>
      <trkpt lat="47.19449" lon="-1.61614">
        <ele>53</ele>
        <time>2021-04-20T13:28:26.000Z</time>
      </trkpt>
      <trkpt lat="47.1945" lon="-1.61596">
        <ele>53</ele>
        <time>2021-04-20T13:28:28.000Z</time>
      </trkpt>
      <trkpt lat="47.19452" lon="-1.61579">
        <ele>53</ele>
        <time>2021-04-20T13:28:30.000Z</time>
      </trkpt>
      <trkpt lat="47.19454" lon="-1.61561">
        <ele>53</ele>
        <time>2021-04-20T13:28:32.000Z</time>
      </trkpt>
      <trkpt lat="47.19458" lon="-1.61543">
        <ele>53</ele>
        <time>2021-04-20T13:28:34.000Z</time>
      </trkpt>
      <trkpt lat="47.19462" lon="-1.61527">
        <ele>54</ele>
        <time>2021-04-20T13:28:36.000Z</time>
      </trkpt>
      <trkpt lat="47.19467" lon="-1.61511">
        <ele>54</ele>
        <time>2021-04-20T13:28:38.000Z</time>
      </trkpt>
      <trkpt lat="47.19473" lon="-1.61494">
        <ele>54</ele>
        <time>2021-04-20T13:28:40.000Z</time>
      </trkpt>
      <trkpt lat="47.19476" lon="-1.61478">
        <ele>54</ele>
        <time>2021-04-20T13:28:42.000Z</time>
      </trkpt>
      <trkpt lat="47.19479" lon="-1.61462">
        <ele>55</ele>
        <time>2021-04-20T13:28:44.000Z</time>
      </trkpt>
      <trkpt lat="47.1948" lon="-1.61446">
        <ele>55</ele>
        <time>2021-04-20T13:28:46.000Z</time>
      </trkpt>
      <trkpt lat="47.19478" lon="-1.61428">
        <ele>55</ele>
        <time>2021-04-20T13:28:48.000Z</time>
      </trkpt>
      <trkpt lat="47.19477" lon="-1.61409">
        <ele>54</ele>
        <time>2021-04-20T13:28:50.000Z</time>
      </trkpt>
      <trkpt lat="47.19477" lon="-1.61391">
        <ele>54</ele>
        <time>2021-04-20T13:28:52.000Z</time>
      </trkpt>
      <trkpt lat="47.19476" lon="-1.61373">
        <ele>54</ele>
        <time>2021-04-20T13:28:54.000Z</time>
      </trkpt>
      <trkpt lat="47.19475" lon="-1.61354">
        <ele>54</ele>
        <time>2021-04-20T13:28:56.000Z</time>
      </trkpt>
      <trkpt lat="47.19474" lon="-1.61336">
        <ele>54</ele>
        <time>2021-04-20T13:28:58.000Z</time>
      </trkpt>
      <trkpt lat="47.19473" lon="-1.61319">
        <ele>54</ele>
        <time>2021-04-20T13:29:00.000Z</time>
      </trkpt>
      <trkpt lat="47.19471" lon="-1.61301">
        <ele>54</ele>
        <time>2021-04-20T13:29:02.000Z</time>
      </trkpt>
      <trkpt lat="47.19469" lon="-1.61284">
        <ele>54</ele>
        <time>2021-04-20T13:29:04.000Z</time>
      </trkpt>
      <trkpt lat="47.19467" lon="-1.61266">
        <ele>53</ele>
        <time>2021-04-20T13:29:06.000Z</time>
      </trkpt>
      <trkpt lat="47.19466" lon="-1.61248">
        <ele>54</ele>
        <time>2021-04-20T13:29:08.000Z</time>
      </trkpt>
      <trkpt lat="47.19466" lon="-1.6123">
        <ele>53</ele>
        <time>2021-04-20T13:29:10.000Z</time>
      </trkpt>
      <trkpt lat="47.19465" lon="-1.61212">
        <ele>54</ele>
        <time>2021-04-20T13:29:12.000Z</time>
      </trkpt>
      <trkpt lat="47.19464" lon="-1.61194">
        <ele>54</ele>
        <time>2021-04-20T13:29:14.000Z</time>
      </trkpt>
      <trkpt lat="47.19463" lon="-1.61175">
        <ele>54</ele>
        <time>2021-04-20T13:29:16.000Z</time>
      </trkpt>
      <trkpt lat="47.19462" lon="-1.61157">
        <ele>54</ele>
        <time>2021-04-20T13:29:18.000Z</time>
      </trkpt>
      <trkpt lat="47.19461" lon="-1.61139">
        <ele>54</ele>
        <time>2021-04-20T13:29:20.000Z</time>
      </trkpt>
      <trkpt lat="47.1946" lon="-1.61121">
        <ele>54</ele>
        <time>2021-04-20T13:29:22.000Z</time>
      </trkpt>
      <trkpt lat="47.19459" lon="-1.61104">
        <ele>54</ele>
        <time>2021-04-20T13:29:24.000Z</time>
      </trkpt>
      <trkpt lat="47.19459" lon="-1.61087">
        <ele>54</ele>
        <time>2021-04-20T13:29:26.000Z</time>
      </trkpt>
      <trkpt lat="47.19458" lon="-1.61068">
        <ele>54</ele>
        <time>2021-04-20T13:29:28.000Z</time>
      </trkpt>
      <trkpt lat="47.19459" lon="-1.61051">
        <ele>53</ele>
        <time>2021-04-20T13:29:30.000Z</time>
      </trkpt>
      <trkpt lat="47.1946" lon="-1.61034">
        <ele>54</ele>
        <time>2021-04-20T13:29:32.000Z</time>
      </trkpt>
      <trkpt lat="47.19459" lon="-1.61016">
        <ele>54</ele>
        <time>2021-04-20T13:29:34.000Z</time>
      </trkpt>
      <trkpt lat="47.1946" lon="-1.60998">
        <ele>54</ele>
        <time>2021-04-20T13:29:36.000Z</time>
      </trkpt>
      <trkpt lat="47.19464" lon="-1.60982">
        <ele>55</ele>
        <time>2021-04-20T13:29:38.000Z</time>
      </trkpt>
      <trkpt lat="47.19469" lon="-1.60965">
        <ele>55</ele>
        <time>2021-04-20T13:29:40.000Z</time>
      </trkpt>
      <trkpt lat="47.19473" lon="-1.60948">
        <ele>54</ele>
        <time>2021-04-20T13:29:42.000Z</time>
      </trkpt>
      <trkpt lat="47.19475" lon="-1.60929">
        <ele>54</ele>
        <time>2021-04-20T13:29:44.000Z</time>
      </trkpt>
      <trkpt lat="47.19475" lon="-1.6091">
        <ele>55</ele>
        <time>2021-04-20T13:29:46.000Z</time>
      </trkpt>
      <trkpt lat="47.19477" lon="-1.60893">
        <ele>54</ele>
        <time>2021-04-20T13:29:48.000Z</time>
      </trkpt>
      <trkpt lat="47.19477" lon="-1.60875">
        <ele>55</ele>
        <time>2021-04-20T13:29:50.000Z</time>
      </trkpt>
      <trkpt lat="47.19479" lon="-1.60857">
        <ele>55</ele>
        <time>2021-04-20T13:29:52.000Z</time>
      </trkpt>
      <trkpt lat="47.1948" lon="-1.60839">
        <ele>55</ele>
        <time>2021-04-20T13:29:54.000Z</time>
      </trkpt>
      <trkpt lat="47.19481" lon="-1.60821">
        <ele>55</ele>
        <time>2021-04-20T13:29:56.000Z</time>
      </trkpt>
      <trkpt lat="47.19483" lon="-1.60803">
        <ele>54</ele>
        <time>2021-04-20T13:29:58.000Z</time>
      </trkpt>
      <trkpt lat="47.19484" lon="-1.60785">
        <ele>54</ele>
        <time>2021-04-20T13:30:00.000Z</time>
      </trkpt>
      <trkpt lat="47.19485" lon="-1.60768">
        <ele>54</ele>
        <time>2021-04-20T13:30:02.000Z</time>
      </trkpt>
      <trkpt lat="47.19486" lon="-1.60752">
        <ele>54</ele>
        <time>2021-04-20T13:30:04.000Z</time>
      </trkpt>
      <trkpt lat="47.19488" lon="-1.60736">
        <ele>54</ele>
        <time>2021-04-20T13:30:06.000Z</time>
      </trkpt>
      <trkpt lat="47.19489" lon="-1.60718">
        <ele>54</ele>
        <time>2021-04-20T13:30:08.000Z</time>
      </trkpt>
      <trkpt lat="47.19491" lon="-1.60701">
        <ele>53</ele>
        <time>2021-04-20T13:30:10.000Z</time>
      </trkpt>
      <trkpt lat="47.19493" lon="-1.60683">
        <ele>53</ele>
        <time>2021-04-20T13:30:12.000Z</time>
      </trkpt>
      <trkpt lat="47.19496" lon="-1.60666">
        <ele>53</ele>
        <time>2021-04-20T13:30:14.000Z</time>
      </trkpt>
      <trkpt lat="47.19498" lon="-1.60648">
        <ele>53</ele>
        <time>2021-04-20T13:30:16.000Z</time>
      </trkpt>
      <trkpt lat="47.195" lon="-1.60631">
        <ele>53</ele>
        <time>2021-04-20T13:30:18.000Z</time>
      </trkpt>
      <trkpt lat="47.19503" lon="-1.60615">
        <ele>53</ele>
        <time>2021-04-20T13:30:20.000Z</time>
      </trkpt>
      <trkpt lat="47.19505" lon="-1.60598">
        <ele>53</ele>
        <time>2021-04-20T13:30:22.000Z</time>
      </trkpt>
      <trkpt lat="47.19507" lon="-1.60581">
        <ele>53</ele>
        <time>2021-04-20T13:30:24.000Z</time>
      </trkpt>
      <trkpt lat="47.1951" lon="-1.60564">
        <ele>53</ele>
        <time>2021-04-20T13:30:26.000Z</time>
      </trkpt>
      <trkpt lat="47.19512" lon="-1.60547">
        <ele>53</ele>
        <time>2021-04-20T13:30:28.000Z</time>
      </trkpt>
      <trkpt lat="47.19513" lon="-1.60529">
        <ele>52</ele>
        <time>2021-04-20T13:30:30.000Z</time>
      </trkpt>
      <trkpt lat="47.19514" lon="-1.60512">
        <ele>52</ele>
        <time>2021-04-20T13:30:32.000Z</time>
      </trkpt>
      <trkpt lat="47.19516" lon="-1.60494">
        <ele>52</ele>
        <time>2021-04-20T13:30:34.000Z</time>
      </trkpt>
      <trkpt lat="47.19517" lon="-1.60477">
        <ele>53</ele>
        <time>2021-04-20T13:30:36.000Z</time>
      </trkpt>
      <trkpt lat="47.19519" lon="-1.60459">
        <ele>52</ele>
        <time>2021-04-20T13:30:38.000Z</time>
      </trkpt>
      <trkpt lat="47.1952" lon="-1.60442">
        <ele>53</ele>
        <time>2021-04-20T13:30:40.000Z</time>
      </trkpt>
      <trkpt lat="47.19521" lon="-1.60424">
        <ele>53</ele>
        <time>2021-04-20T13:30:42.000Z</time>
      </trkpt>
      <trkpt lat="47.19523" lon="-1.60408">
        <ele>53</ele>
        <time>2021-04-20T13:30:44.000Z</time>
      </trkpt>
      <trkpt lat="47.19523" lon="-1.60391">
        <ele>53</ele>
        <time>2021-04-20T13:30:46.000Z</time>
      </trkpt>
      <trkpt lat="47.19523" lon="-1.60374">
        <ele>54</ele>
        <time>2021-04-20T13:30:48.000Z</time>
      </trkpt>
      <trkpt lat="47.19523" lon="-1.60356">
        <ele>53</ele>
        <time>2021-04-20T13:30:50.000Z</time>
      </trkpt>
      <trkpt lat="47.19524" lon="-1.60339">
        <ele>53</ele>
        <time>2021-04-20T13:30:52.000Z</time>
      </trkpt>
      <trkpt lat="47.19525" lon="-1.60322">
        <ele>52</ele>
        <time>2021-04-20T13:30:54.000Z</time>
      </trkpt>
      <trkpt lat="47.19526" lon="-1.60305">
        <ele>52</ele>
        <time>2021-04-20T13:30:56.000Z</time>
      </trkpt>
      <trkpt lat="47.19528" lon="-1.60288">
        <ele>52</ele>
        <time>2021-04-20T13:30:58.000Z</time>
      </trkpt>
      <trkpt lat="47.19529" lon="-1.60269">
        <ele>53</ele>
        <time>2021-04-20T13:31:00.000Z</time>
      </trkpt>
      <trkpt lat="47.19531" lon="-1.60252">
        <ele>53</ele>
        <time>2021-04-20T13:31:02.000Z</time>
      </trkpt>
      <trkpt lat="47.19531" lon="-1.60235">
        <ele>54</ele>
        <time>2021-04-20T13:31:04.000Z</time>
      </trkpt>
      <trkpt lat="47.19533" lon="-1.60217">
        <ele>54</ele>
        <time>2021-04-20T13:31:06.000Z</time>
      </trkpt>
      <trkpt lat="47.19535" lon="-1.60199">
        <ele>54</ele>
        <time>2021-04-20T13:31:08.000Z</time>
      </trkpt>
      <trkpt lat="47.19536" lon="-1.60183">
        <ele>54</ele>
        <time>2021-04-20T13:31:10.000Z</time>
      </trkpt>
      <trkpt lat="47.19538" lon="-1.60166">
        <ele>54</ele>
        <time>2021-04-20T13:31:12.000Z</time>
      </trkpt>
      <trkpt lat="47.19539" lon="-1.6015">
        <ele>54</ele>
        <time>2021-04-20T13:31:14.000Z</time>
      </trkpt>
      <trkpt lat="47.19541" lon="-1.60132">
        <ele>54</ele>
        <time>2021-04-20T13:31:16.000Z</time>
      </trkpt>
      <trkpt lat="47.19542" lon="-1.60115">
        <ele>54</ele>
        <time>2021-04-20T13:31:18.000Z</time>
      </trkpt>
      <trkpt lat="47.19543" lon="-1.60099">
        <ele>54</ele>
        <time>2021-04-20T13:31:20.000Z</time>
      </trkpt>
      <trkpt lat="47.19544" lon="-1.60083">
        <ele>53</ele>
        <time>2021-04-20T13:31:22.000Z</time>
      </trkpt>
      <trkpt lat="47.19545" lon="-1.60066">
        <ele>53</ele>
        <time>2021-04-20T13:31:24.000Z</time>
      </trkpt>
      <trkpt lat="47.19547" lon="-1.6005">
        <ele>53</ele>
        <time>2021-04-20T13:31:26.000Z</time>
      </trkpt>
      <trkpt lat="47.19549" lon="-1.60033">
        <ele>53</ele>
        <time>2021-04-20T13:31:28.000Z</time>
      </trkpt>
      <trkpt lat="47.19549" lon="-1.60016">
        <ele>53</ele>
        <time>2021-04-20T13:31:30.000Z</time>
      </trkpt>
      <trkpt lat="47.19551" lon="-1.59999">
        <ele>52</ele>
        <time>2021-04-20T13:31:32.000Z</time>
      </trkpt>
      <trkpt lat="47.19553" lon="-1.59982">
        <ele>53</ele>
        <time>2021-04-20T13:31:34.000Z</time>
      </trkpt>
      <trkpt lat="47.19554" lon="-1.59966">
        <ele>53</ele>
        <time>2021-04-20T13:31:36.000Z</time>
      </trkpt>
      <trkpt lat="47.19556" lon="-1.59949">
        <ele>53</ele>
        <time>2021-04-20T13:31:38.000Z</time>
      </trkpt>
      <trkpt lat="47.19558" lon="-1.59932">
        <ele>52</ele>
        <time>2021-04-20T13:31:40.000Z</time>
      </trkpt>
      <trkpt lat="47.19561" lon="-1.59915">
        <ele>53</ele>
        <time>2021-04-20T13:31:42.000Z</time>
      </trkpt>
      <trkpt lat="47.19564" lon="-1.59898">
        <ele>53</ele>
        <time>2021-04-20T13:31:44.000Z</time>
      </trkpt>
      <trkpt lat="47.19568" lon="-1.59882">
        <ele>53</ele>
        <time>2021-04-20T13:31:46.000Z</time>
      </trkpt>
      <trkpt lat="47.19574" lon="-1.59866">
        <ele>53</ele>
        <time>2021-04-20T13:31:48.000Z</time>
      </trkpt>
      <trkpt lat="47.19578" lon="-1.59851">
        <ele>53</ele>
        <time>2021-04-20T13:31:50.000Z</time>
      </trkpt>
      <trkpt lat="47.19585" lon="-1.59828">
        <ele>53</ele>
        <time>2021-04-20T13:31:53.000Z</time>
      </trkpt>
      <trkpt lat="47.1959" lon="-1.59813">
        <ele>53</ele>
        <time>2021-04-20T13:31:55.000Z</time>
      </trkpt>
      <trkpt lat="47.19595" lon="-1.59799">
        <ele>53</ele>
        <time>2021-04-20T13:31:57.000Z</time>
      </trkpt>
      <trkpt lat="47.196" lon="-1.59784">
        <ele>53</ele>
        <time>2021-04-20T13:31:59.000Z</time>
      </trkpt>
      <trkpt lat="47.19605" lon="-1.59771">
        <ele>53</ele>
        <time>2021-04-20T13:32:01.000Z</time>
      </trkpt>
      <trkpt lat="47.1961" lon="-1.59757">
        <ele>53</ele>
        <time>2021-04-20T13:32:03.000Z</time>
      </trkpt>
      <trkpt lat="47.19614" lon="-1.59743">
        <ele>53</ele>
        <time>2021-04-20T13:32:05.000Z</time>
      </trkpt>
      <trkpt lat="47.19619" lon="-1.59728">
        <ele>53</ele>
        <time>2021-04-20T13:32:07.000Z</time>
      </trkpt>
      <trkpt lat="47.19624" lon="-1.59715">
        <ele>53</ele>
        <time>2021-04-20T13:32:09.000Z</time>
      </trkpt>
      <trkpt lat="47.19628" lon="-1.59701">
        <ele>53</ele>
        <time>2021-04-20T13:32:11.000Z</time>
      </trkpt>
      <trkpt lat="47.19632" lon="-1.59685">
        <ele>54</ele>
        <time>2021-04-20T13:32:13.000Z</time>
      </trkpt>
      <trkpt lat="47.19639" lon="-1.59663">
        <ele>54</ele>
        <time>2021-04-20T13:32:16.000Z</time>
      </trkpt>
      <trkpt lat="47.19644" lon="-1.59648">
        <ele>54</ele>
        <time>2021-04-20T13:32:18.000Z</time>
      </trkpt>
      <trkpt lat="47.19649" lon="-1.59634">
        <ele>54</ele>
        <time>2021-04-20T13:32:20.000Z</time>
      </trkpt>
      <trkpt lat="47.19652" lon="-1.59618">
        <ele>54</ele>
        <time>2021-04-20T13:32:22.000Z</time>
      </trkpt>
      <trkpt lat="47.19654" lon="-1.59602">
        <ele>53</ele>
        <time>2021-04-20T13:32:24.000Z</time>
      </trkpt>
      <trkpt lat="47.19657" lon="-1.59586">
        <ele>53</ele>
        <time>2021-04-20T13:32:26.000Z</time>
      </trkpt>
      <trkpt lat="47.1966" lon="-1.59569">
        <ele>53</ele>
        <time>2021-04-20T13:32:28.000Z</time>
      </trkpt>
      <trkpt lat="47.19662" lon="-1.59554">
        <ele>52</ele>
        <time>2021-04-20T13:32:30.000Z</time>
      </trkpt>
      <trkpt lat="47.19664" lon="-1.59538">
        <ele>52</ele>
        <time>2021-04-20T13:32:32.000Z</time>
      </trkpt>
      <trkpt lat="47.19667" lon="-1.59521">
        <ele>52</ele>
        <time>2021-04-20T13:32:34.000Z</time>
      </trkpt>
      <trkpt lat="47.1967" lon="-1.59498">
        <ele>52</ele>
        <time>2021-04-20T13:32:37.000Z</time>
      </trkpt>
      <trkpt lat="47.19673" lon="-1.59482">
        <ele>52</ele>
        <time>2021-04-20T13:32:39.000Z</time>
      </trkpt>
      <trkpt lat="47.19676" lon="-1.59468">
        <ele>52</ele>
        <time>2021-04-20T13:32:41.000Z</time>
      </trkpt>
      <trkpt lat="47.19678" lon="-1.59453">
        <ele>53</ele>
        <time>2021-04-20T13:32:43.000Z</time>
      </trkpt>
      <trkpt lat="47.1968" lon="-1.59437">
        <ele>52</ele>
        <time>2021-04-20T13:32:45.000Z</time>
      </trkpt>
      <trkpt lat="47.19683" lon="-1.59421">
        <ele>52</ele>
        <time>2021-04-20T13:32:47.000Z</time>
      </trkpt>
      <trkpt lat="47.19686" lon="-1.59405">
        <ele>52</ele>
        <time>2021-04-20T13:32:49.000Z</time>
      </trkpt>
      <trkpt lat="47.1969" lon="-1.5939">
        <ele>52</ele>
        <time>2021-04-20T13:32:51.000Z</time>
      </trkpt>
      <trkpt lat="47.19694" lon="-1.59375">
        <ele>52</ele>
        <time>2021-04-20T13:32:53.000Z</time>
      </trkpt>
      <trkpt lat="47.19698" lon="-1.59359">
        <ele>52</ele>
        <time>2021-04-20T13:32:55.000Z</time>
      </trkpt>
      <trkpt lat="47.19703" lon="-1.59344">
        <ele>53</ele>
        <time>2021-04-20T13:32:57.000Z</time>
      </trkpt>
      <trkpt lat="47.1971" lon="-1.59322">
        <ele>53</ele>
        <time>2021-04-20T13:33:00.000Z</time>
      </trkpt>
      <trkpt lat="47.19716" lon="-1.59308">
        <ele>53</ele>
        <time>2021-04-20T13:33:02.000Z</time>
      </trkpt>
      <trkpt lat="47.19721" lon="-1.59294">
        <ele>53</ele>
        <time>2021-04-20T13:33:04.000Z</time>
      </trkpt>
      <trkpt lat="47.19725" lon="-1.59281">
        <ele>53</ele>
        <time>2021-04-20T13:33:06.000Z</time>
      </trkpt>
      <trkpt lat="47.1973" lon="-1.59266">
        <ele>53</ele>
        <time>2021-04-20T13:33:08.000Z</time>
      </trkpt>
      <trkpt lat="47.19733" lon="-1.59253">
        <ele>53</ele>
        <time>2021-04-20T13:33:10.000Z</time>
      </trkpt>
      <trkpt lat="47.19736" lon="-1.59241">
        <ele>53</ele>
        <time>2021-04-20T13:33:12.000Z</time>
      </trkpt>
      <trkpt lat="47.19739" lon="-1.59222">
        <ele>53</ele>
        <time>2021-04-20T13:33:15.000Z</time>
      </trkpt>
      <trkpt lat="47.19741" lon="-1.59205">
        <ele>54</ele>
        <time>2021-04-20T13:33:18.000Z</time>
      </trkpt>
      <trkpt lat="47.19744" lon="-1.59186">
        <ele>54</ele>
        <time>2021-04-20T13:33:21.000Z</time>
      </trkpt>
      <trkpt lat="47.19742" lon="-1.59169">
        <ele>55</ele>
        <time>2021-04-20T13:33:23.000Z</time>
      </trkpt>
      <trkpt lat="47.19744" lon="-1.5914">
        <ele>56</ele>
        <time>2021-04-20T13:33:26.000Z</time>
      </trkpt>
      <trkpt lat="47.19747" lon="-1.59122">
        <ele>56</ele>
        <time>2021-04-20T13:33:28.000Z</time>
      </trkpt>
      <trkpt lat="47.1975" lon="-1.59103">
        <ele>55</ele>
        <time>2021-04-20T13:33:30.000Z</time>
      </trkpt>
      <trkpt lat="47.19753" lon="-1.59084">
        <ele>55</ele>
        <time>2021-04-20T13:33:32.000Z</time>
      </trkpt>
      <trkpt lat="47.19755" lon="-1.59065">
        <ele>54</ele>
        <time>2021-04-20T13:33:34.000Z</time>
      </trkpt>
      <trkpt lat="47.19757" lon="-1.59047">
        <ele>54</ele>
        <time>2021-04-20T13:33:36.000Z</time>
      </trkpt>
      <trkpt lat="47.1976" lon="-1.5903">
        <ele>54</ele>
        <time>2021-04-20T13:33:38.000Z</time>
      </trkpt>
      <trkpt lat="47.19763" lon="-1.59012">
        <ele>53</ele>
        <time>2021-04-20T13:33:40.000Z</time>
      </trkpt>
      <trkpt lat="47.19767" lon="-1.58986">
        <ele>53</ele>
        <time>2021-04-20T13:33:43.000Z</time>
      </trkpt>
      <trkpt lat="47.19771" lon="-1.58968">
        <ele>53</ele>
        <time>2021-04-20T13:33:45.000Z</time>
      </trkpt>
      <trkpt lat="47.19774" lon="-1.58949">
        <ele>53</ele>
        <time>2021-04-20T13:33:47.000Z</time>
      </trkpt>
      <trkpt lat="47.19776" lon="-1.58932">
        <ele>53</ele>
        <time>2021-04-20T13:33:49.000Z</time>
      </trkpt>
      <trkpt lat="47.19778" lon="-1.58915">
        <ele>53</ele>
        <time>2021-04-20T13:33:51.000Z</time>
      </trkpt>
      <trkpt lat="47.1978" lon="-1.58896">
        <ele>54</ele>
        <time>2021-04-20T13:33:53.000Z</time>
      </trkpt>
      <trkpt lat="47.19779" lon="-1.58879">
        <ele>54</ele>
        <time>2021-04-20T13:33:55.000Z</time>
      </trkpt>
      <trkpt lat="47.19776" lon="-1.58861">
        <ele>54</ele>
        <time>2021-04-20T13:33:57.000Z</time>
      </trkpt>
      <trkpt lat="47.19773" lon="-1.58845">
        <ele>54</ele>
        <time>2021-04-20T13:33:59.000Z</time>
      </trkpt>
      <trkpt lat="47.19771" lon="-1.58827">
        <ele>54</ele>
        <time>2021-04-20T13:34:01.000Z</time>
      </trkpt>
      <trkpt lat="47.19771" lon="-1.58809">
        <ele>53</ele>
        <time>2021-04-20T13:34:03.000Z</time>
      </trkpt>
      <trkpt lat="47.19772" lon="-1.58791">
        <ele>53</ele>
        <time>2021-04-20T13:34:05.000Z</time>
      </trkpt>
      <trkpt lat="47.19776" lon="-1.58774">
        <ele>53</ele>
        <time>2021-04-20T13:34:07.000Z</time>
      </trkpt>
      <trkpt lat="47.19779" lon="-1.58757">
        <ele>54</ele>
        <time>2021-04-20T13:34:09.000Z</time>
      </trkpt>
      <trkpt lat="47.19784" lon="-1.5874">
        <ele>53</ele>
        <time>2021-04-20T13:34:11.000Z</time>
      </trkpt>
      <trkpt lat="47.19788" lon="-1.58723">
        <ele>54</ele>
        <time>2021-04-20T13:34:13.000Z</time>
      </trkpt>
      <trkpt lat="47.19792" lon="-1.58706">
        <ele>54</ele>
        <time>2021-04-20T13:34:15.000Z</time>
      </trkpt>
      <trkpt lat="47.19796" lon="-1.5869">
        <ele>53</ele>
        <time>2021-04-20T13:34:17.000Z</time>
      </trkpt>
      <trkpt lat="47.19801" lon="-1.58673">
        <ele>53</ele>
        <time>2021-04-20T13:34:19.000Z</time>
      </trkpt>
      <trkpt lat="47.19805" lon="-1.58655">
        <ele>53</ele>
        <time>2021-04-20T13:34:21.000Z</time>
      </trkpt>
      <trkpt lat="47.19808" lon="-1.5864">
        <ele>53</ele>
        <time>2021-04-20T13:34:23.000Z</time>
      </trkpt>
      <trkpt lat="47.19812" lon="-1.58624">
        <ele>53</ele>
        <time>2021-04-20T13:34:25.000Z</time>
      </trkpt>
      <trkpt lat="47.19815" lon="-1.58608">
        <ele>53</ele>
        <time>2021-04-20T13:34:27.000Z</time>
      </trkpt>
      <trkpt lat="47.1982" lon="-1.58594">
        <ele>53</ele>
        <time>2021-04-20T13:34:29.000Z</time>
      </trkpt>
      <trkpt lat="47.19828" lon="-1.58585">
        <ele>52</ele>
        <time>2021-04-20T13:34:31.000Z</time>
      </trkpt>
      <trkpt lat="47.19839" lon="-1.58575">
        <ele>53</ele>
        <time>2021-04-20T13:34:34.000Z</time>
      </trkpt>
      <trkpt lat="47.19841" lon="-1.5856">
        <ele>53</ele>
        <time>2021-04-20T13:34:36.000Z</time>
      </trkpt>
      <trkpt lat="47.19844" lon="-1.58547">
        <ele>52</ele>
        <time>2021-04-20T13:34:38.000Z</time>
      </trkpt>
      <trkpt lat="47.19849" lon="-1.58532">
        <ele>52</ele>
        <time>2021-04-20T13:34:40.000Z</time>
      </trkpt>
      <trkpt lat="47.19854" lon="-1.58515">
        <ele>52</ele>
        <time>2021-04-20T13:34:42.000Z</time>
      </trkpt>
      <trkpt lat="47.19857" lon="-1.58498">
        <ele>52</ele>
        <time>2021-04-20T13:34:44.000Z</time>
      </trkpt>
      <trkpt lat="47.19857" lon="-1.58481">
        <ele>51</ele>
        <time>2021-04-20T13:34:46.000Z</time>
      </trkpt>
      <trkpt lat="47.1986" lon="-1.58464">
        <ele>52</ele>
        <time>2021-04-20T13:34:48.000Z</time>
      </trkpt>
      <trkpt lat="47.19863" lon="-1.58448">
        <ele>51</ele>
        <time>2021-04-20T13:34:50.000Z</time>
      </trkpt>
      <trkpt lat="47.19867" lon="-1.58433">
        <ele>50</ele>
        <time>2021-04-20T13:34:52.000Z</time>
      </trkpt>
      <trkpt lat="47.1987" lon="-1.58417">
        <ele>49</ele>
        <time>2021-04-20T13:34:54.000Z</time>
      </trkpt>
      <trkpt lat="47.19873" lon="-1.58403">
        <ele>49</ele>
        <time>2021-04-20T13:34:56.000Z</time>
      </trkpt>
      <trkpt lat="47.19877" lon="-1.58388">
        <ele>48</ele>
        <time>2021-04-20T13:34:58.000Z</time>
      </trkpt>
      <trkpt lat="47.19881" lon="-1.58372">
        <ele>48</ele>
        <time>2021-04-20T13:35:00.000Z</time>
      </trkpt>
      <trkpt lat="47.19884" lon="-1.58357">
        <ele>48</ele>
        <time>2021-04-20T13:35:02.000Z</time>
      </trkpt>
      <trkpt lat="47.19887" lon="-1.58342">
        <ele>48</ele>
        <time>2021-04-20T13:35:04.000Z</time>
      </trkpt>
      <trkpt lat="47.19891" lon="-1.58324">
        <ele>49</ele>
        <time>2021-04-20T13:35:06.000Z</time>
      </trkpt>
      <trkpt lat="47.19894" lon="-1.58305">
        <ele>48</ele>
        <time>2021-04-20T13:35:08.000Z</time>
      </trkpt>
      <trkpt lat="47.19898" lon="-1.58287">
        <ele>49</ele>
        <time>2021-04-20T13:35:10.000Z</time>
      </trkpt>
      <trkpt lat="47.19902" lon="-1.5827">
        <ele>50</ele>
        <time>2021-04-20T13:35:12.000Z</time>
      </trkpt>
      <trkpt lat="47.19905" lon="-1.58254">
        <ele>50</ele>
        <time>2021-04-20T13:35:14.000Z</time>
      </trkpt>
      <trkpt lat="47.19909" lon="-1.58238">
        <ele>51</ele>
        <time>2021-04-20T13:35:16.000Z</time>
      </trkpt>
      <trkpt lat="47.19913" lon="-1.58223">
        <ele>51</ele>
        <time>2021-04-20T13:35:18.000Z</time>
      </trkpt>
      <trkpt lat="47.19916" lon="-1.58207">
        <ele>51</ele>
        <time>2021-04-20T13:35:20.000Z</time>
      </trkpt>
      <trkpt lat="47.1992" lon="-1.58191">
        <ele>51</ele>
        <time>2021-04-20T13:35:22.000Z</time>
      </trkpt>
      <trkpt lat="47.19923" lon="-1.58177">
        <ele>52</ele>
        <time>2021-04-20T13:35:24.000Z</time>
      </trkpt>
      <trkpt lat="47.19926" lon="-1.58163">
        <ele>52</ele>
        <time>2021-04-20T13:35:26.000Z</time>
      </trkpt>
      <trkpt lat="47.19929" lon="-1.58147">
        <ele>52</ele>
        <time>2021-04-20T13:35:28.000Z</time>
      </trkpt>
      <trkpt lat="47.19934" lon="-1.5813">
        <ele>53</ele>
        <time>2021-04-20T13:35:30.000Z</time>
      </trkpt>
      <trkpt lat="47.19939" lon="-1.58112">
        <ele>53</ele>
        <time>2021-04-20T13:35:32.000Z</time>
      </trkpt>
      <trkpt lat="47.19944" lon="-1.58094">
        <ele>52</ele>
        <time>2021-04-20T13:35:34.000Z</time>
      </trkpt>
      <trkpt lat="47.1995" lon="-1.58077">
        <ele>53</ele>
        <time>2021-04-20T13:35:36.000Z</time>
      </trkpt>
      <trkpt lat="47.19955" lon="-1.58061">
        <ele>53</ele>
        <time>2021-04-20T13:35:38.000Z</time>
      </trkpt>
      <trkpt lat="47.1996" lon="-1.58044">
        <ele>54</ele>
        <time>2021-04-20T13:35:40.000Z</time>
      </trkpt>
      <trkpt lat="47.19966" lon="-1.58028">
        <ele>54</ele>
        <time>2021-04-20T13:35:42.000Z</time>
      </trkpt>
      <trkpt lat="47.19971" lon="-1.58012">
        <ele>54</ele>
        <time>2021-04-20T13:35:44.000Z</time>
      </trkpt>
      <trkpt lat="47.19977" lon="-1.57997">
        <ele>54</ele>
        <time>2021-04-20T13:35:46.000Z</time>
      </trkpt>
      <trkpt lat="47.19983" lon="-1.57982">
        <ele>54</ele>
        <time>2021-04-20T13:35:48.000Z</time>
      </trkpt>
      <trkpt lat="47.19989" lon="-1.57967">
        <ele>54</ele>
        <time>2021-04-20T13:35:50.000Z</time>
      </trkpt>
      <trkpt lat="47.19994" lon="-1.57953">
        <ele>54</ele>
        <time>2021-04-20T13:35:52.000Z</time>
      </trkpt>
      <trkpt lat="47.19999" lon="-1.57937">
        <ele>55</ele>
        <time>2021-04-20T13:35:54.000Z</time>
      </trkpt>
      <trkpt lat="47.20005" lon="-1.57922">
        <ele>55</ele>
        <time>2021-04-20T13:35:56.000Z</time>
      </trkpt>
      <trkpt lat="47.2001" lon="-1.57906">
        <ele>55</ele>
        <time>2021-04-20T13:35:58.000Z</time>
      </trkpt>
      <trkpt lat="47.20015" lon="-1.57892">
        <ele>55</ele>
        <time>2021-04-20T13:36:00.000Z</time>
      </trkpt>
      <trkpt lat="47.2002" lon="-1.57878">
        <ele>55</ele>
        <time>2021-04-20T13:36:02.000Z</time>
      </trkpt>
      <trkpt lat="47.20026" lon="-1.57865">
        <ele>55</ele>
        <time>2021-04-20T13:36:04.000Z</time>
      </trkpt>
      <trkpt lat="47.20033" lon="-1.57852">
        <ele>55</ele>
        <time>2021-04-20T13:36:06.000Z</time>
      </trkpt>
      <trkpt lat="47.2004" lon="-1.57837">
        <ele>55</ele>
        <time>2021-04-20T13:36:08.000Z</time>
      </trkpt>
      <trkpt lat="47.20047" lon="-1.57824">
        <ele>55</ele>
        <time>2021-04-20T13:36:10.000Z</time>
      </trkpt>
      <trkpt lat="47.20054" lon="-1.5781">
        <ele>54</ele>
        <time>2021-04-20T13:36:12.000Z</time>
      </trkpt>
      <trkpt lat="47.20061" lon="-1.57797">
        <ele>54</ele>
        <time>2021-04-20T13:36:14.000Z</time>
      </trkpt>
      <trkpt lat="47.20069" lon="-1.57784">
        <ele>54</ele>
        <time>2021-04-20T13:36:16.000Z</time>
      </trkpt>
      <trkpt lat="47.20077" lon="-1.57771">
        <ele>54</ele>
        <time>2021-04-20T13:36:18.000Z</time>
      </trkpt>
      <trkpt lat="47.20085" lon="-1.57758">
        <ele>53</ele>
        <time>2021-04-20T13:36:20.000Z</time>
      </trkpt>
      <trkpt lat="47.20093" lon="-1.57744">
        <ele>54</ele>
        <time>2021-04-20T13:36:22.000Z</time>
      </trkpt>
      <trkpt lat="47.20102" lon="-1.57731">
        <ele>54</ele>
        <time>2021-04-20T13:36:24.000Z</time>
      </trkpt>
      <trkpt lat="47.20111" lon="-1.57719">
        <ele>54</ele>
        <time>2021-04-20T13:36:26.000Z</time>
      </trkpt>
      <trkpt lat="47.20119" lon="-1.57707">
        <ele>54</ele>
        <time>2021-04-20T13:36:28.000Z</time>
      </trkpt>
      <trkpt lat="47.20127" lon="-1.57696">
        <ele>54</ele>
        <time>2021-04-20T13:36:30.000Z</time>
      </trkpt>
      <trkpt lat="47.20136" lon="-1.57685">
        <ele>54</ele>
        <time>2021-04-20T13:36:32.000Z</time>
      </trkpt>
      <trkpt lat="47.20146" lon="-1.57674">
        <ele>54</ele>
        <time>2021-04-20T13:36:34.000Z</time>
      </trkpt>
      <trkpt lat="47.20155" lon="-1.57664">
        <ele>54</ele>
        <time>2021-04-20T13:36:36.000Z</time>
      </trkpt>
      <trkpt lat="47.20165" lon="-1.57654">
        <ele>54</ele>
        <time>2021-04-20T13:36:38.000Z</time>
      </trkpt>
      <trkpt lat="47.20174" lon="-1.57645">
        <ele>54</ele>
        <time>2021-04-20T13:36:40.000Z</time>
      </trkpt>
      <trkpt lat="47.20184" lon="-1.57636">
        <ele>54</ele>
        <time>2021-04-20T13:36:42.000Z</time>
      </trkpt>
      <trkpt lat="47.20193" lon="-1.57627">
        <ele>54</ele>
        <time>2021-04-20T13:36:44.000Z</time>
      </trkpt>
      <trkpt lat="47.20203" lon="-1.57619">
        <ele>54</ele>
        <time>2021-04-20T13:36:46.000Z</time>
      </trkpt>
      <trkpt lat="47.20213" lon="-1.57611">
        <ele>54</ele>
        <time>2021-04-20T13:36:48.000Z</time>
      </trkpt>
      <trkpt lat="47.20224" lon="-1.57603">
        <ele>54</ele>
        <time>2021-04-20T13:36:50.000Z</time>
      </trkpt>
      <trkpt lat="47.20234" lon="-1.57595">
        <ele>54</ele>
        <time>2021-04-20T13:36:52.000Z</time>
      </trkpt>
      <trkpt lat="47.20244" lon="-1.57587">
        <ele>54</ele>
        <time>2021-04-20T13:36:54.000Z</time>
      </trkpt>
      <trkpt lat="47.20255" lon="-1.57581">
        <ele>54</ele>
        <time>2021-04-20T13:36:56.000Z</time>
      </trkpt>
      <trkpt lat="47.20265" lon="-1.57574">
        <ele>54</ele>
        <time>2021-04-20T13:36:58.000Z</time>
      </trkpt>
      <trkpt lat="47.20276" lon="-1.57567">
        <ele>54</ele>
        <time>2021-04-20T13:37:00.000Z</time>
      </trkpt>
      <trkpt lat="47.20286" lon="-1.57561">
        <ele>53</ele>
        <time>2021-04-20T13:37:02.000Z</time>
      </trkpt>
      <trkpt lat="47.20297" lon="-1.57554">
        <ele>53</ele>
        <time>2021-04-20T13:37:04.000Z</time>
      </trkpt>
      <trkpt lat="47.20308" lon="-1.57548">
        <ele>53</ele>
        <time>2021-04-20T13:37:06.000Z</time>
      </trkpt>
      <trkpt lat="47.20319" lon="-1.57543">
        <ele>54</ele>
        <time>2021-04-20T13:37:08.000Z</time>
      </trkpt>
      <trkpt lat="47.20329" lon="-1.57537">
        <ele>53</ele>
        <time>2021-04-20T13:37:10.000Z</time>
      </trkpt>
      <trkpt lat="47.20339" lon="-1.57531">
        <ele>53</ele>
        <time>2021-04-20T13:37:12.000Z</time>
      </trkpt>
      <trkpt lat="47.2035" lon="-1.57525">
        <ele>53</ele>
        <time>2021-04-20T13:37:14.000Z</time>
      </trkpt>
      <trkpt lat="47.20361" lon="-1.57519">
        <ele>53</ele>
        <time>2021-04-20T13:37:16.000Z</time>
      </trkpt>
      <trkpt lat="47.20372" lon="-1.57514">
        <ele>53</ele>
        <time>2021-04-20T13:37:18.000Z</time>
      </trkpt>
      <trkpt lat="47.20382" lon="-1.57509">
        <ele>53</ele>
        <time>2021-04-20T13:37:20.000Z</time>
      </trkpt>
      <trkpt lat="47.20393" lon="-1.57504">
        <ele>53</ele>
        <time>2021-04-20T13:37:22.000Z</time>
      </trkpt>
      <trkpt lat="47.20405" lon="-1.57501">
        <ele>54</ele>
        <time>2021-04-20T13:37:24.000Z</time>
      </trkpt>
      <trkpt lat="47.20416" lon="-1.57498">
        <ele>54</ele>
        <time>2021-04-20T13:37:26.000Z</time>
      </trkpt>
      <trkpt lat="47.20427" lon="-1.57495">
        <ele>54</ele>
        <time>2021-04-20T13:37:28.000Z</time>
      </trkpt>
      <trkpt lat="47.20439" lon="-1.57492">
        <ele>54</ele>
        <time>2021-04-20T13:37:30.000Z</time>
      </trkpt>
      <trkpt lat="47.20451" lon="-1.57489">
        <ele>54</ele>
        <time>2021-04-20T13:37:32.000Z</time>
      </trkpt>
      <trkpt lat="47.20463" lon="-1.57484">
        <ele>54</ele>
        <time>2021-04-20T13:37:34.000Z</time>
      </trkpt>
      <trkpt lat="47.20474" lon="-1.57478">
        <ele>55</ele>
        <time>2021-04-20T13:37:36.000Z</time>
      </trkpt>
      <trkpt lat="47.20486" lon="-1.57473">
        <ele>55</ele>
        <time>2021-04-20T13:37:38.000Z</time>
      </trkpt>
      <trkpt lat="47.20497" lon="-1.57467">
        <ele>55</ele>
        <time>2021-04-20T13:37:40.000Z</time>
      </trkpt>
      <trkpt lat="47.20508" lon="-1.57461">
        <ele>55</ele>
        <time>2021-04-20T13:37:42.000Z</time>
      </trkpt>
      <trkpt lat="47.20518" lon="-1.57452">
        <ele>55</ele>
        <time>2021-04-20T13:37:44.000Z</time>
      </trkpt>
      <trkpt lat="47.20529" lon="-1.57442">
        <ele>55</ele>
        <time>2021-04-20T13:37:46.000Z</time>
      </trkpt>
      <trkpt lat="47.20539" lon="-1.57433">
        <ele>56</ele>
        <time>2021-04-20T13:37:48.000Z</time>
      </trkpt>
      <trkpt lat="47.20549" lon="-1.57423">
        <ele>56</ele>
        <time>2021-04-20T13:37:50.000Z</time>
      </trkpt>
      <trkpt lat="47.20558" lon="-1.57414">
        <ele>56</ele>
        <time>2021-04-20T13:37:52.000Z</time>
      </trkpt>
      <trkpt lat="47.20568" lon="-1.57404">
        <ele>56</ele>
        <time>2021-04-20T13:37:54.000Z</time>
      </trkpt>
      <trkpt lat="47.20576" lon="-1.57393">
        <ele>56</ele>
        <time>2021-04-20T13:37:56.000Z</time>
      </trkpt>
      <trkpt lat="47.20586" lon="-1.57383">
        <ele>56</ele>
        <time>2021-04-20T13:37:58.000Z</time>
      </trkpt>
      <trkpt lat="47.20596" lon="-1.57373">
        <ele>57</ele>
        <time>2021-04-20T13:38:00.000Z</time>
      </trkpt>
      <trkpt lat="47.20606" lon="-1.57363">
        <ele>57</ele>
        <time>2021-04-20T13:38:02.000Z</time>
      </trkpt>
      <trkpt lat="47.20615" lon="-1.57354">
        <ele>57</ele>
        <time>2021-04-20T13:38:04.000Z</time>
      </trkpt>
      <trkpt lat="47.20623" lon="-1.57344">
        <ele>57</ele>
        <time>2021-04-20T13:38:06.000Z</time>
      </trkpt>
      <trkpt lat="47.20633" lon="-1.57333">
        <ele>57</ele>
        <time>2021-04-20T13:38:08.000Z</time>
      </trkpt>
      <trkpt lat="47.20641" lon="-1.57322">
        <ele>57</ele>
        <time>2021-04-20T13:38:10.000Z</time>
      </trkpt>
      <trkpt lat="47.20649" lon="-1.57312">
        <ele>56</ele>
        <time>2021-04-20T13:38:12.000Z</time>
      </trkpt>
      <trkpt lat="47.20653" lon="-1.57298">
        <ele>55</ele>
        <time>2021-04-20T13:38:14.000Z</time>
      </trkpt>
      <trkpt lat="47.20657" lon="-1.57284">
        <ele>55</ele>
        <time>2021-04-20T13:38:16.000Z</time>
      </trkpt>
      <trkpt lat="47.20662" lon="-1.5727">
        <ele>54</ele>
        <time>2021-04-20T13:38:18.000Z</time>
      </trkpt>
      <trkpt lat="47.2067" lon="-1.57258">
        <ele>54</ele>
        <time>2021-04-20T13:38:20.000Z</time>
      </trkpt>
      <trkpt lat="47.20678" lon="-1.57247">
        <ele>53</ele>
        <time>2021-04-20T13:38:22.000Z</time>
      </trkpt>
      <trkpt lat="47.20685" lon="-1.57235">
        <ele>53</ele>
        <time>2021-04-20T13:38:24.000Z</time>
      </trkpt>
      <trkpt lat="47.20693" lon="-1.57225">
        <ele>54</ele>
        <time>2021-04-20T13:38:26.000Z</time>
      </trkpt>
      <trkpt lat="47.207" lon="-1.57216">
        <ele>54</ele>
        <time>2021-04-20T13:38:28.000Z</time>
      </trkpt>
      <trkpt lat="47.2071" lon="-1.57206">
        <ele>53</ele>
        <time>2021-04-20T13:38:31.000Z</time>
      </trkpt>
      <trkpt lat="47.20715" lon="-1.57194">
        <ele>53</ele>
        <time>2021-04-20T13:38:34.000Z</time>
      </trkpt>
      <trkpt lat="47.20717" lon="-1.5718">
        <ele>54</ele>
        <time>2021-04-20T13:38:38.000Z</time>
      </trkpt>
      <trkpt lat="47.20713" lon="-1.57168">
        <ele>54</ele>
        <time>2021-04-20T13:38:40.000Z</time>
      </trkpt>
      <trkpt lat="47.20713" lon="-1.57153">
        <ele>54</ele>
        <time>2021-04-20T13:38:42.000Z</time>
      </trkpt>
      <trkpt lat="47.20719" lon="-1.57138">
        <ele>54</ele>
        <time>2021-04-20T13:38:44.000Z</time>
      </trkpt>
      <trkpt lat="47.20726" lon="-1.57124">
        <ele>53</ele>
        <time>2021-04-20T13:38:46.000Z</time>
      </trkpt>
      <trkpt lat="47.20732" lon="-1.57109">
        <ele>53</ele>
        <time>2021-04-20T13:38:48.000Z</time>
      </trkpt>
      <trkpt lat="47.20739" lon="-1.57094">
        <ele>53</ele>
        <time>2021-04-20T13:38:50.000Z</time>
      </trkpt>
      <trkpt lat="47.20748" lon="-1.57079">
        <ele>53</ele>
        <time>2021-04-20T13:38:52.000Z</time>
      </trkpt>
      <trkpt lat="47.20754" lon="-1.57063">
        <ele>53</ele>
        <time>2021-04-20T13:38:54.000Z</time>
      </trkpt>
      <trkpt lat="47.20759" lon="-1.57047">
        <ele>53</ele>
        <time>2021-04-20T13:38:56.000Z</time>
      </trkpt>
      <trkpt lat="47.20766" lon="-1.57031">
        <ele>53</ele>
        <time>2021-04-20T13:38:58.000Z</time>
      </trkpt>
      <trkpt lat="47.20773" lon="-1.57016">
        <ele>52</ele>
        <time>2021-04-20T13:39:00.000Z</time>
      </trkpt>
      <trkpt lat="47.2078" lon="-1.57004">
        <ele>53</ele>
        <time>2021-04-20T13:39:02.000Z</time>
      </trkpt>
      <trkpt lat="47.20786" lon="-1.56989">
        <ele>53</ele>
        <time>2021-04-20T13:39:04.000Z</time>
      </trkpt>
      <trkpt lat="47.20791" lon="-1.56973">
        <ele>53</ele>
        <time>2021-04-20T13:39:06.000Z</time>
      </trkpt>
      <trkpt lat="47.20796" lon="-1.56958">
        <ele>53</ele>
        <time>2021-04-20T13:39:08.000Z</time>
      </trkpt>
      <trkpt lat="47.20801" lon="-1.56942">
        <ele>53</ele>
        <time>2021-04-20T13:39:10.000Z</time>
      </trkpt>
      <trkpt lat="47.20806" lon="-1.56926">
        <ele>53</ele>
        <time>2021-04-20T13:39:12.000Z</time>
      </trkpt>
      <trkpt lat="47.20811" lon="-1.56911">
        <ele>54</ele>
        <time>2021-04-20T13:39:14.000Z</time>
      </trkpt>
      <trkpt lat="47.20816" lon="-1.56895">
        <ele>54</ele>
        <time>2021-04-20T13:39:16.000Z</time>
      </trkpt>
      <trkpt lat="47.20822" lon="-1.56878">
        <ele>53</ele>
        <time>2021-04-20T13:39:18.000Z</time>
      </trkpt>
      <trkpt lat="47.20827" lon="-1.56862">
        <ele>53</ele>
        <time>2021-04-20T13:39:20.000Z</time>
      </trkpt>
      <trkpt lat="47.20832" lon="-1.56846">
        <ele>53</ele>
        <time>2021-04-20T13:39:22.000Z</time>
      </trkpt>
      <trkpt lat="47.20837" lon="-1.56829">
        <ele>53</ele>
        <time>2021-04-20T13:39:24.000Z</time>
      </trkpt>
      <trkpt lat="47.20842" lon="-1.56813">
        <ele>53</ele>
        <time>2021-04-20T13:39:26.000Z</time>
      </trkpt>
      <trkpt lat="47.20847" lon="-1.56796">
        <ele>53</ele>
        <time>2021-04-20T13:39:28.000Z</time>
      </trkpt>
      <trkpt lat="47.20852" lon="-1.5678">
        <ele>53</ele>
        <time>2021-04-20T13:39:30.000Z</time>
      </trkpt>
      <trkpt lat="47.20858" lon="-1.56764">
        <ele>53</ele>
        <time>2021-04-20T13:39:32.000Z</time>
      </trkpt>
      <trkpt lat="47.20862" lon="-1.56749">
        <ele>53</ele>
        <time>2021-04-20T13:39:34.000Z</time>
      </trkpt>
      <trkpt lat="47.20868" lon="-1.56733">
        <ele>53</ele>
        <time>2021-04-20T13:39:36.000Z</time>
      </trkpt>
      <trkpt lat="47.20873" lon="-1.56718">
        <ele>53</ele>
        <time>2021-04-20T13:39:38.000Z</time>
      </trkpt>
      <trkpt lat="47.20877" lon="-1.56702">
        <ele>53</ele>
        <time>2021-04-20T13:39:40.000Z</time>
      </trkpt>
      <trkpt lat="47.20881" lon="-1.56687">
        <ele>53</ele>
        <time>2021-04-20T13:39:42.000Z</time>
      </trkpt>
      <trkpt lat="47.20886" lon="-1.56674">
        <ele>53</ele>
        <time>2021-04-20T13:39:44.000Z</time>
      </trkpt>
      <trkpt lat="47.20889" lon="-1.56662">
        <ele>54</ele>
        <time>2021-04-20T13:39:46.000Z</time>
      </trkpt>
      <trkpt lat="47.20885" lon="-1.56649">
        <ele>54</ele>
        <time>2021-04-20T13:39:49.000Z</time>
      </trkpt>
      <trkpt lat="47.20876" lon="-1.56641">
        <ele>55</ele>
        <time>2021-04-20T13:39:51.000Z</time>
      </trkpt>
      <trkpt lat="47.20865" lon="-1.56631">
        <ele>56</ele>
        <time>2021-04-20T13:39:53.000Z</time>
      </trkpt>
      <trkpt lat="47.20855" lon="-1.56619">
        <ele>57</ele>
        <time>2021-04-20T13:39:55.000Z</time>
      </trkpt>
      <trkpt lat="47.20842" lon="-1.5661">
        <ele>57</ele>
        <time>2021-04-20T13:39:57.000Z</time>
      </trkpt>
      <trkpt lat="47.20828" lon="-1.56598">
        <ele>57</ele>
        <time>2021-04-20T13:39:59.000Z</time>
      </trkpt>
      <trkpt lat="47.20814" lon="-1.56585">
        <ele>57</ele>
        <time>2021-04-20T13:40:01.000Z</time>
      </trkpt>
      <trkpt lat="47.20801" lon="-1.56573">
        <ele>57</ele>
        <time>2021-04-20T13:40:03.000Z</time>
      </trkpt>
      <trkpt lat="47.20788" lon="-1.56561">
        <ele>56</ele>
        <time>2021-04-20T13:40:05.000Z</time>
      </trkpt>
      <trkpt lat="47.20774" lon="-1.56547">
        <ele>54</ele>
        <time>2021-04-20T13:40:07.000Z</time>
      </trkpt>
      <trkpt lat="47.2076" lon="-1.56534">
        <ele>54</ele>
        <time>2021-04-20T13:40:09.000Z</time>
      </trkpt>
      <trkpt lat="47.20745" lon="-1.56522">
        <ele>53</ele>
        <time>2021-04-20T13:40:11.000Z</time>
      </trkpt>
      <trkpt lat="47.2073" lon="-1.56509">
        <ele>53</ele>
        <time>2021-04-20T13:40:13.000Z</time>
      </trkpt>
      <trkpt lat="47.20717" lon="-1.56496">
        <ele>53</ele>
        <time>2021-04-20T13:40:15.000Z</time>
      </trkpt>
      <trkpt lat="47.20704" lon="-1.56483">
        <ele>53</ele>
        <time>2021-04-20T13:40:17.000Z</time>
      </trkpt>
      <trkpt lat="47.20692" lon="-1.56471">
        <ele>54</ele>
        <time>2021-04-20T13:40:19.000Z</time>
      </trkpt>
      <trkpt lat="47.20679" lon="-1.56461">
        <ele>54</ele>
        <time>2021-04-20T13:40:21.000Z</time>
      </trkpt>
      <trkpt lat="47.20667" lon="-1.56449">
        <ele>54</ele>
        <time>2021-04-20T13:40:23.000Z</time>
      </trkpt>
      <trkpt lat="47.20656" lon="-1.56439">
        <ele>54</ele>
        <time>2021-04-20T13:40:25.000Z</time>
      </trkpt>
      <trkpt lat="47.20645" lon="-1.5643">
        <ele>55</ele>
        <time>2021-04-20T13:40:27.000Z</time>
      </trkpt>
      <trkpt lat="47.20635" lon="-1.5642">
        <ele>56</ele>
        <time>2021-04-20T13:40:29.000Z</time>
      </trkpt>
      <trkpt lat="47.20623" lon="-1.56409">
        <ele>56</ele>
        <time>2021-04-20T13:40:31.000Z</time>
      </trkpt>
      <trkpt lat="47.20611" lon="-1.56397">
        <ele>57</ele>
        <time>2021-04-20T13:40:33.000Z</time>
      </trkpt>
      <trkpt lat="47.20598" lon="-1.56387">
        <ele>58</ele>
        <time>2021-04-20T13:40:35.000Z</time>
      </trkpt>
      <trkpt lat="47.20585" lon="-1.56375">
        <ele>60</ele>
        <time>2021-04-20T13:40:37.000Z</time>
      </trkpt>
      <trkpt lat="47.20572" lon="-1.56366">
        <ele>61</ele>
        <time>2021-04-20T13:40:39.000Z</time>
      </trkpt>
      <trkpt lat="47.20561" lon="-1.56355">
        <ele>61</ele>
        <time>2021-04-20T13:40:41.000Z</time>
      </trkpt>
      <trkpt lat="47.20549" lon="-1.56344">
        <ele>61</ele>
        <time>2021-04-20T13:40:43.000Z</time>
      </trkpt>
      <trkpt lat="47.20537" lon="-1.56335">
        <ele>62</ele>
        <time>2021-04-20T13:40:45.000Z</time>
      </trkpt>
      <trkpt lat="47.20524" lon="-1.56326">
        <ele>64</ele>
        <time>2021-04-20T13:40:47.000Z</time>
      </trkpt>
      <trkpt lat="47.20511" lon="-1.56314">
        <ele>65</ele>
        <time>2021-04-20T13:40:49.000Z</time>
      </trkpt>
      <trkpt lat="47.20499" lon="-1.56305">
        <ele>64</ele>
        <time>2021-04-20T13:40:51.000Z</time>
      </trkpt>
      <trkpt lat="47.20488" lon="-1.56299">
        <ele>64</ele>
        <time>2021-04-20T13:40:53.000Z</time>
      </trkpt>
      <trkpt lat="47.20478" lon="-1.56287">
        <ele>64</ele>
        <time>2021-04-20T13:40:55.000Z</time>
      </trkpt>
      <trkpt lat="47.2047" lon="-1.56277">
        <ele>64</ele>
        <time>2021-04-20T13:40:57.000Z</time>
      </trkpt>
      <trkpt lat="47.20462" lon="-1.56266">
        <ele>62</ele>
        <time>2021-04-20T13:40:59.000Z</time>
      </trkpt>
      <trkpt lat="47.20452" lon="-1.56262">
        <ele>62</ele>
        <time>2021-04-20T13:41:01.000Z</time>
      </trkpt>
      <trkpt lat="47.20442" lon="-1.56258">
        <ele>63</ele>
        <time>2021-04-20T13:41:03.000Z</time>
      </trkpt>
      <trkpt lat="47.20433" lon="-1.56244">
        <ele>64</ele>
        <time>2021-04-20T13:41:05.000Z</time>
      </trkpt>
      <trkpt lat="47.20424" lon="-1.5623">
        <ele>62</ele>
        <time>2021-04-20T13:41:07.000Z</time>
      </trkpt>
      <trkpt lat="47.20412" lon="-1.56219">
        <ele>61</ele>
        <time>2021-04-20T13:41:09.000Z</time>
      </trkpt>
      <trkpt lat="47.20401" lon="-1.5621">
        <ele>59</ele>
        <time>2021-04-20T13:41:11.000Z</time>
      </trkpt>
      <trkpt lat="47.2039" lon="-1.562">
        <ele>58</ele>
        <time>2021-04-20T13:41:13.000Z</time>
      </trkpt>
      <trkpt lat="47.20382" lon="-1.56185">
        <ele>58</ele>
        <time>2021-04-20T13:41:15.000Z</time>
      </trkpt>
      <trkpt lat="47.20383" lon="-1.56164">
        <ele>57</ele>
        <time>2021-04-20T13:41:17.000Z</time>
      </trkpt>
      <trkpt lat="47.20384" lon="-1.56144">
        <ele>57</ele>
        <time>2021-04-20T13:41:19.000Z</time>
      </trkpt>
      <trkpt lat="47.20387" lon="-1.56125">
        <ele>56</ele>
        <time>2021-04-20T13:41:21.000Z</time>
      </trkpt>
      <trkpt lat="47.20388" lon="-1.56105">
        <ele>56</ele>
        <time>2021-04-20T13:41:23.000Z</time>
      </trkpt>
      <trkpt lat="47.20391" lon="-1.56086">
        <ele>56</ele>
        <time>2021-04-20T13:41:25.000Z</time>
      </trkpt>
      <trkpt lat="47.20393" lon="-1.56066">
        <ele>55</ele>
        <time>2021-04-20T13:41:27.000Z</time>
      </trkpt>
      <trkpt lat="47.20394" lon="-1.56047">
        <ele>55</ele>
        <time>2021-04-20T13:41:29.000Z</time>
      </trkpt>
      <trkpt lat="47.20395" lon="-1.56028">
        <ele>56</ele>
        <time>2021-04-20T13:41:31.000Z</time>
      </trkpt>
      <trkpt lat="47.20396" lon="-1.56008">
        <ele>56</ele>
        <time>2021-04-20T13:41:33.000Z</time>
      </trkpt>
      <trkpt lat="47.20398" lon="-1.55988">
        <ele>55</ele>
        <time>2021-04-20T13:41:35.000Z</time>
      </trkpt>
      <trkpt lat="47.20401" lon="-1.55968">
        <ele>55</ele>
        <time>2021-04-20T13:41:37.000Z</time>
      </trkpt>
      <trkpt lat="47.20403" lon="-1.55948">
        <ele>55</ele>
        <time>2021-04-20T13:41:39.000Z</time>
      </trkpt>
      <trkpt lat="47.20405" lon="-1.55928">
        <ele>55</ele>
        <time>2021-04-20T13:41:41.000Z</time>
      </trkpt>
      <trkpt lat="47.20407" lon="-1.55908">
        <ele>55</ele>
        <time>2021-04-20T13:41:43.000Z</time>
      </trkpt>
      <trkpt lat="47.20409" lon="-1.55887">
        <ele>54</ele>
        <time>2021-04-20T13:41:45.000Z</time>
      </trkpt>
      <trkpt lat="47.20411" lon="-1.55867">
        <ele>54</ele>
        <time>2021-04-20T13:41:47.000Z</time>
      </trkpt>
      <trkpt lat="47.20413" lon="-1.55845">
        <ele>55</ele>
        <time>2021-04-20T13:41:49.000Z</time>
      </trkpt>
      <trkpt lat="47.20415" lon="-1.55825">
        <ele>54</ele>
        <time>2021-04-20T13:41:51.000Z</time>
      </trkpt>
      <trkpt lat="47.20417" lon="-1.55805">
        <ele>54</ele>
        <time>2021-04-20T13:41:53.000Z</time>
      </trkpt>
      <trkpt lat="47.2042" lon="-1.55784">
        <ele>54</ele>
        <time>2021-04-20T13:41:55.000Z</time>
      </trkpt>
      <trkpt lat="47.20422" lon="-1.55764">
        <ele>54</ele>
        <time>2021-04-20T13:41:57.000Z</time>
      </trkpt>
      <trkpt lat="47.20424" lon="-1.55743">
        <ele>54</ele>
        <time>2021-04-20T13:41:59.000Z</time>
      </trkpt>
      <trkpt lat="47.20426" lon="-1.55724">
        <ele>54</ele>
        <time>2021-04-20T13:42:01.000Z</time>
      </trkpt>
      <trkpt lat="47.20428" lon="-1.55704">
        <ele>54</ele>
        <time>2021-04-20T13:42:03.000Z</time>
      </trkpt>
      <trkpt lat="47.2043" lon="-1.55684">
        <ele>54</ele>
        <time>2021-04-20T13:42:05.000Z</time>
      </trkpt>
      <trkpt lat="47.20431" lon="-1.55665">
        <ele>54</ele>
        <time>2021-04-20T13:42:07.000Z</time>
      </trkpt>
      <trkpt lat="47.20434" lon="-1.55646">
        <ele>54</ele>
        <time>2021-04-20T13:42:09.000Z</time>
      </trkpt>
      <trkpt lat="47.20436" lon="-1.55626">
        <ele>55</ele>
        <time>2021-04-20T13:42:11.000Z</time>
      </trkpt>
      <trkpt lat="47.20437" lon="-1.55607">
        <ele>55</ele>
        <time>2021-04-20T13:42:13.000Z</time>
      </trkpt>
      <trkpt lat="47.20439" lon="-1.55589">
        <ele>54</ele>
        <time>2021-04-20T13:42:15.000Z</time>
      </trkpt>
      <trkpt lat="47.20441" lon="-1.55571">
        <ele>54</ele>
        <time>2021-04-20T13:42:17.000Z</time>
      </trkpt>
      <trkpt lat="47.20443" lon="-1.55552">
        <ele>54</ele>
        <time>2021-04-20T13:42:19.000Z</time>
      </trkpt>
      <trkpt lat="47.20445" lon="-1.55534">
        <ele>55</ele>
        <time>2021-04-20T13:42:21.000Z</time>
      </trkpt>
      <trkpt lat="47.20447" lon="-1.55515">
        <ele>55</ele>
        <time>2021-04-20T13:42:23.000Z</time>
      </trkpt>
      <trkpt lat="47.20448" lon="-1.55498">
        <ele>55</ele>
        <time>2021-04-20T13:42:25.000Z</time>
      </trkpt>
      <trkpt lat="47.20449" lon="-1.55479">
        <ele>55</ele>
        <time>2021-04-20T13:42:27.000Z</time>
      </trkpt>
      <trkpt lat="47.2045" lon="-1.5546">
        <ele>56</ele>
        <time>2021-04-20T13:42:29.000Z</time>
      </trkpt>
      <trkpt lat="47.2045" lon="-1.55442">
        <ele>56</ele>
        <time>2021-04-20T13:42:31.000Z</time>
      </trkpt>
      <trkpt lat="47.20449" lon="-1.55425">
        <ele>56</ele>
        <time>2021-04-20T13:42:33.000Z</time>
      </trkpt>
      <trkpt lat="47.2045" lon="-1.55406">
        <ele>56</ele>
        <time>2021-04-20T13:42:35.000Z</time>
      </trkpt>
      <trkpt lat="47.20451" lon="-1.55388">
        <ele>56</ele>
        <time>2021-04-20T13:42:37.000Z</time>
      </trkpt>
      <trkpt lat="47.20452" lon="-1.55371">
        <ele>56</ele>
        <time>2021-04-20T13:42:39.000Z</time>
      </trkpt>
      <trkpt lat="47.20455" lon="-1.55357">
        <ele>56</ele>
        <time>2021-04-20T13:42:41.000Z</time>
      </trkpt>
      <trkpt lat="47.20459" lon="-1.55344">
        <ele>57</ele>
        <time>2021-04-20T13:42:44.000Z</time>
      </trkpt>
      <trkpt lat="47.20459" lon="-1.55326">
        <ele>57</ele>
        <time>2021-04-20T13:42:48.000Z</time>
      </trkpt>
      <trkpt lat="47.20453" lon="-1.55315">
        <ele>58</ele>
        <time>2021-04-20T13:42:50.000Z</time>
      </trkpt>
      <trkpt lat="47.20445" lon="-1.55303">
        <ele>58</ele>
        <time>2021-04-20T13:42:52.000Z</time>
      </trkpt>
      <trkpt lat="47.20438" lon="-1.5529">
        <ele>58</ele>
        <time>2021-04-20T13:42:54.000Z</time>
      </trkpt>
      <trkpt lat="47.2043" lon="-1.55273">
        <ele>58</ele>
        <time>2021-04-20T13:42:56.000Z</time>
      </trkpt>
      <trkpt lat="47.20422" lon="-1.55254">
        <ele>59</ele>
        <time>2021-04-20T13:42:58.000Z</time>
      </trkpt>
      <trkpt lat="47.20414" lon="-1.55236">
        <ele>59</ele>
        <time>2021-04-20T13:43:00.000Z</time>
      </trkpt>
      <trkpt lat="47.20407" lon="-1.55219">
        <ele>59</ele>
        <time>2021-04-20T13:43:02.000Z</time>
      </trkpt>
      <trkpt lat="47.20399" lon="-1.55204">
        <ele>59</ele>
        <time>2021-04-20T13:43:04.000Z</time>
      </trkpt>
      <trkpt lat="47.20394" lon="-1.55192">
        <ele>58</ele>
        <time>2021-04-20T13:43:06.000Z</time>
      </trkpt>
      <trkpt lat="47.20383" lon="-1.55185">
        <ele>59</ele>
        <time>2021-04-20T13:43:09.000Z</time>
      </trkpt>
      <trkpt lat="47.20372" lon="-1.55188">
        <ele>59</ele>
        <time>2021-04-20T13:43:15.000Z</time>
      </trkpt>
      <trkpt lat="47.20364" lon="-1.55198">
        <ele>59</ele>
        <time>2021-04-20T13:43:17.000Z</time>
      </trkpt>
      <trkpt lat="47.20353" lon="-1.55211">
        <ele>58</ele>
        <time>2021-04-20T13:43:19.000Z</time>
      </trkpt>
      <trkpt lat="47.20342" lon="-1.55224">
        <ele>58</ele>
        <time>2021-04-20T13:43:21.000Z</time>
      </trkpt>
      <trkpt lat="47.2033" lon="-1.55237">
        <ele>58</ele>
        <time>2021-04-20T13:43:23.000Z</time>
      </trkpt>
      <trkpt lat="47.2032" lon="-1.5525">
        <ele>58</ele>
        <time>2021-04-20T13:43:25.000Z</time>
      </trkpt>
      <trkpt lat="47.2031" lon="-1.55264">
        <ele>58</ele>
        <time>2021-04-20T13:43:27.000Z</time>
      </trkpt>
      <trkpt lat="47.203" lon="-1.55277">
        <ele>59</ele>
        <time>2021-04-20T13:43:29.000Z</time>
      </trkpt>
      <trkpt lat="47.20291" lon="-1.55289">
        <ele>59</ele>
        <time>2021-04-20T13:43:31.000Z</time>
      </trkpt>
      <trkpt lat="47.20281" lon="-1.55301">
        <ele>59</ele>
        <time>2021-04-20T13:43:33.000Z</time>
      </trkpt>
      <trkpt lat="47.20272" lon="-1.55314">
        <ele>58</ele>
        <time>2021-04-20T13:43:35.000Z</time>
      </trkpt>
      <trkpt lat="47.20263" lon="-1.55326">
        <ele>58</ele>
        <time>2021-04-20T13:43:37.000Z</time>
      </trkpt>
      <trkpt lat="47.20254" lon="-1.55338">
        <ele>58</ele>
        <time>2021-04-20T13:43:39.000Z</time>
      </trkpt>
      <trkpt lat="47.20245" lon="-1.55352">
        <ele>58</ele>
        <time>2021-04-20T13:43:41.000Z</time>
      </trkpt>
      <trkpt lat="47.20235" lon="-1.55366">
        <ele>56</ele>
        <time>2021-04-20T13:43:43.000Z</time>
      </trkpt>
      <trkpt lat="47.20226" lon="-1.55377">
        <ele>57</ele>
        <time>2021-04-20T13:43:45.000Z</time>
      </trkpt>
      <trkpt lat="47.20218" lon="-1.5539">
        <ele>57</ele>
        <time>2021-04-20T13:43:47.000Z</time>
      </trkpt>
      <trkpt lat="47.20208" lon="-1.55402">
        <ele>57</ele>
        <time>2021-04-20T13:43:49.000Z</time>
      </trkpt>
      <trkpt lat="47.202" lon="-1.55414">
        <ele>57</ele>
        <time>2021-04-20T13:43:51.000Z</time>
      </trkpt>
      <trkpt lat="47.2019" lon="-1.55425">
        <ele>57</ele>
        <time>2021-04-20T13:43:53.000Z</time>
      </trkpt>
      <trkpt lat="47.20181" lon="-1.55438">
        <ele>56</ele>
        <time>2021-04-20T13:43:55.000Z</time>
      </trkpt>
      <trkpt lat="47.20172" lon="-1.55453">
        <ele>56</ele>
        <time>2021-04-20T13:43:57.000Z</time>
      </trkpt>
      <trkpt lat="47.2016" lon="-1.55463">
        <ele>55</ele>
        <time>2021-04-20T13:43:59.000Z</time>
      </trkpt>
      <trkpt lat="47.20149" lon="-1.55474">
        <ele>55</ele>
        <time>2021-04-20T13:44:01.000Z</time>
      </trkpt>
      <trkpt lat="47.20136" lon="-1.55482">
        <ele>54</ele>
        <time>2021-04-20T13:44:03.000Z</time>
      </trkpt>
      <trkpt lat="47.20123" lon="-1.55493">
        <ele>54</ele>
        <time>2021-04-20T13:44:05.000Z</time>
      </trkpt>
      <trkpt lat="47.20112" lon="-1.55506">
        <ele>53</ele>
        <time>2021-04-20T13:44:07.000Z</time>
      </trkpt>
      <trkpt lat="47.20101" lon="-1.5552">
        <ele>53</ele>
        <time>2021-04-20T13:44:09.000Z</time>
      </trkpt>
      <trkpt lat="47.20091" lon="-1.55534">
        <ele>53</ele>
        <time>2021-04-20T13:44:11.000Z</time>
      </trkpt>
      <trkpt lat="47.2008" lon="-1.55548">
        <ele>53</ele>
        <time>2021-04-20T13:44:13.000Z</time>
      </trkpt>
      <trkpt lat="47.2007" lon="-1.55562">
        <ele>54</ele>
        <time>2021-04-20T13:44:15.000Z</time>
      </trkpt>
      <trkpt lat="47.20059" lon="-1.55576">
        <ele>54</ele>
        <time>2021-04-20T13:44:17.000Z</time>
      </trkpt>
      <trkpt lat="47.20049" lon="-1.5559">
        <ele>54</ele>
        <time>2021-04-20T13:44:19.000Z</time>
      </trkpt>
      <trkpt lat="47.20039" lon="-1.55604">
        <ele>53</ele>
        <time>2021-04-20T13:44:21.000Z</time>
      </trkpt>
      <trkpt lat="47.20029" lon="-1.55616">
        <ele>53</ele>
        <time>2021-04-20T13:44:23.000Z</time>
      </trkpt>
      <trkpt lat="47.20019" lon="-1.55627">
        <ele>53</ele>
        <time>2021-04-20T13:44:25.000Z</time>
      </trkpt>
      <trkpt lat="47.20007" lon="-1.55631">
        <ele>53</ele>
        <time>2021-04-20T13:44:27.000Z</time>
      </trkpt>
      <trkpt lat="47.19995" lon="-1.55634">
        <ele>53</ele>
        <time>2021-04-20T13:44:29.000Z</time>
      </trkpt>
      <trkpt lat="47.19983" lon="-1.55643">
        <ele>53</ele>
        <time>2021-04-20T13:44:31.000Z</time>
      </trkpt>
      <trkpt lat="47.19971" lon="-1.55651">
        <ele>54</ele>
        <time>2021-04-20T13:44:33.000Z</time>
      </trkpt>
      <trkpt lat="47.19959" lon="-1.55661">
        <ele>54</ele>
        <time>2021-04-20T13:44:35.000Z</time>
      </trkpt>
      <trkpt lat="47.19948" lon="-1.55673">
        <ele>53</ele>
        <time>2021-04-20T13:44:37.000Z</time>
      </trkpt>
      <trkpt lat="47.1994" lon="-1.55688">
        <ele>53</ele>
        <time>2021-04-20T13:44:39.000Z</time>
      </trkpt>
      <trkpt lat="47.19934" lon="-1.55706">
        <ele>54</ele>
        <time>2021-04-20T13:44:41.000Z</time>
      </trkpt>
      <trkpt lat="47.19932" lon="-1.55725">
        <ele>54</ele>
        <time>2021-04-20T13:44:43.000Z</time>
      </trkpt>
      <trkpt lat="47.19931" lon="-1.55744">
        <ele>54</ele>
        <time>2021-04-20T13:44:45.000Z</time>
      </trkpt>
      <trkpt lat="47.19931" lon="-1.55763">
        <ele>54</ele>
        <time>2021-04-20T13:44:47.000Z</time>
      </trkpt>
      <trkpt lat="47.19931" lon="-1.55782">
        <ele>53</ele>
        <time>2021-04-20T13:44:49.000Z</time>
      </trkpt>
      <trkpt lat="47.19932" lon="-1.55801">
        <ele>53</ele>
        <time>2021-04-20T13:44:51.000Z</time>
      </trkpt>
      <trkpt lat="47.19932" lon="-1.55821">
        <ele>53</ele>
        <time>2021-04-20T13:44:53.000Z</time>
      </trkpt>
      <trkpt lat="47.19933" lon="-1.55841">
        <ele>53</ele>
        <time>2021-04-20T13:44:55.000Z</time>
      </trkpt>
      <trkpt lat="47.19932" lon="-1.55861">
        <ele>53</ele>
        <time>2021-04-20T13:44:57.000Z</time>
      </trkpt>
      <trkpt lat="47.19932" lon="-1.5588">
        <ele>53</ele>
        <time>2021-04-20T13:44:59.000Z</time>
      </trkpt>
      <trkpt lat="47.19932" lon="-1.55899">
        <ele>54</ele>
        <time>2021-04-20T13:45:01.000Z</time>
      </trkpt>
      <trkpt lat="47.19932" lon="-1.55918">
        <ele>54</ele>
        <time>2021-04-20T13:45:03.000Z</time>
      </trkpt>
      <trkpt lat="47.19933" lon="-1.55937">
        <ele>54</ele>
        <time>2021-04-20T13:45:05.000Z</time>
      </trkpt>
      <trkpt lat="47.19933" lon="-1.55956">
        <ele>54</ele>
        <time>2021-04-20T13:45:07.000Z</time>
      </trkpt>
      <trkpt lat="47.19934" lon="-1.55975">
        <ele>54</ele>
        <time>2021-04-20T13:45:09.000Z</time>
      </trkpt>
      <trkpt lat="47.19934" lon="-1.55994">
        <ele>54</ele>
        <time>2021-04-20T13:45:11.000Z</time>
      </trkpt>
      <trkpt lat="47.19934" lon="-1.56013">
        <ele>54</ele>
        <time>2021-04-20T13:45:13.000Z</time>
      </trkpt>
      <trkpt lat="47.19934" lon="-1.56032">
        <ele>54</ele>
        <time>2021-04-20T13:45:15.000Z</time>
      </trkpt>
      <trkpt lat="47.19934" lon="-1.5605">
        <ele>54</ele>
        <time>2021-04-20T13:45:17.000Z</time>
      </trkpt>
      <trkpt lat="47.19937" lon="-1.56069">
        <ele>54</ele>
        <time>2021-04-20T13:45:19.000Z</time>
      </trkpt>
      <trkpt lat="47.1994" lon="-1.56086">
        <ele>54</ele>
        <time>2021-04-20T13:45:21.000Z</time>
      </trkpt>
      <trkpt lat="47.19948" lon="-1.56099">
        <ele>54</ele>
        <time>2021-04-20T13:45:23.000Z</time>
      </trkpt>
      <trkpt lat="47.19954" lon="-1.56112">
        <ele>55</ele>
        <time>2021-04-20T13:45:25.000Z</time>
      </trkpt>
      <trkpt lat="47.19957" lon="-1.56124">
        <ele>55</ele>
        <time>2021-04-20T13:45:27.000Z</time>
      </trkpt>
      <trkpt lat="47.19962" lon="-1.56137">
        <ele>55</ele>
        <time>2021-04-20T13:45:30.000Z</time>
      </trkpt>
      <trkpt lat="47.19969" lon="-1.56149">
        <ele>56</ele>
        <time>2021-04-20T13:45:36.000Z</time>
      </trkpt>
      <trkpt lat="47.19965" lon="-1.56167">
        <ele>57</ele>
        <time>2021-04-20T13:45:39.000Z</time>
      </trkpt>
      <trkpt lat="47.19956" lon="-1.56171">
        <ele>57</ele>
        <time>2021-04-20T13:45:41.000Z</time>
      </trkpt>
      <trkpt lat="47.19944" lon="-1.56174">
        <ele>58</ele>
        <time>2021-04-20T13:45:43.000Z</time>
      </trkpt>
      <trkpt lat="47.19931" lon="-1.56176">
        <ele>58</ele>
        <time>2021-04-20T13:45:45.000Z</time>
      </trkpt>
      <trkpt lat="47.19918" lon="-1.56178">
        <ele>59</ele>
        <time>2021-04-20T13:45:47.000Z</time>
      </trkpt>
      <trkpt lat="47.19906" lon="-1.56179">
        <ele>59</ele>
        <time>2021-04-20T13:45:49.000Z</time>
      </trkpt>
      <trkpt lat="47.19894" lon="-1.5618">
        <ele>60</ele>
        <time>2021-04-20T13:45:51.000Z</time>
      </trkpt>
      <trkpt lat="47.19882" lon="-1.56182">
        <ele>60</ele>
        <time>2021-04-20T13:45:53.000Z</time>
      </trkpt>
      <trkpt lat="47.1987" lon="-1.56184">
        <ele>61</ele>
        <time>2021-04-20T13:45:55.000Z</time>
      </trkpt>
      <trkpt lat="47.19859" lon="-1.56186">
        <ele>61</ele>
        <time>2021-04-20T13:45:57.000Z</time>
      </trkpt>
      <trkpt lat="47.19847" lon="-1.56188">
        <ele>61</ele>
        <time>2021-04-20T13:45:59.000Z</time>
      </trkpt>
      <trkpt lat="47.19836" lon="-1.5619">
        <ele>61</ele>
        <time>2021-04-20T13:46:01.000Z</time>
      </trkpt>
      <trkpt lat="47.19825" lon="-1.56192">
        <ele>61</ele>
        <time>2021-04-20T13:46:03.000Z</time>
      </trkpt>
      <trkpt lat="47.19814" lon="-1.56194">
        <ele>61</ele>
        <time>2021-04-20T13:46:05.000Z</time>
      </trkpt>
      <trkpt lat="47.19803" lon="-1.56196">
        <ele>61</ele>
        <time>2021-04-20T13:46:07.000Z</time>
      </trkpt>
      <trkpt lat="47.19792" lon="-1.56199">
        <ele>61</ele>
        <time>2021-04-20T13:46:09.000Z</time>
      </trkpt>
      <trkpt lat="47.1978" lon="-1.562">
        <ele>61</ele>
        <time>2021-04-20T13:46:11.000Z</time>
      </trkpt>
      <trkpt lat="47.19768" lon="-1.56202">
        <ele>60</ele>
        <time>2021-04-20T13:46:13.000Z</time>
      </trkpt>
      <trkpt lat="47.19756" lon="-1.56205">
        <ele>60</ele>
        <time>2021-04-20T13:46:15.000Z</time>
      </trkpt>
      <trkpt lat="47.19742" lon="-1.56208">
        <ele>59</ele>
        <time>2021-04-20T13:46:17.000Z</time>
      </trkpt>
      <trkpt lat="47.19728" lon="-1.56211">
        <ele>58</ele>
        <time>2021-04-20T13:46:19.000Z</time>
      </trkpt>
      <trkpt lat="47.19714" lon="-1.56213">
        <ele>57</ele>
        <time>2021-04-20T13:46:21.000Z</time>
      </trkpt>
      <trkpt lat="47.19699" lon="-1.56216">
        <ele>56</ele>
        <time>2021-04-20T13:46:23.000Z</time>
      </trkpt>
      <trkpt lat="47.19684" lon="-1.5622">
        <ele>55</ele>
        <time>2021-04-20T13:46:25.000Z</time>
      </trkpt>
      <trkpt lat="47.19668" lon="-1.56225">
        <ele>54</ele>
        <time>2021-04-20T13:46:27.000Z</time>
      </trkpt>
      <trkpt lat="47.19651" lon="-1.56228">
        <ele>53</ele>
        <time>2021-04-20T13:46:29.000Z</time>
      </trkpt>
      <trkpt lat="47.19638" lon="-1.56243">
        <ele>52</ele>
        <time>2021-04-20T13:46:31.000Z</time>
      </trkpt>
      <trkpt lat="47.19635" lon="-1.56266">
        <ele>53</ele>
        <time>2021-04-20T13:46:33.000Z</time>
      </trkpt>
      <trkpt lat="47.19634" lon="-1.56288">
        <ele>53</ele>
        <time>2021-04-20T13:46:35.000Z</time>
      </trkpt>
      <trkpt lat="47.19633" lon="-1.56311">
        <ele>52</ele>
        <time>2021-04-20T13:46:37.000Z</time>
      </trkpt>
      <trkpt lat="47.19632" lon="-1.56332">
        <ele>53</ele>
        <time>2021-04-20T13:46:39.000Z</time>
      </trkpt>
      <trkpt lat="47.19631" lon="-1.56354">
        <ele>53</ele>
        <time>2021-04-20T13:46:41.000Z</time>
      </trkpt>
      <trkpt lat="47.19631" lon="-1.56375">
        <ele>53</ele>
        <time>2021-04-20T13:46:43.000Z</time>
      </trkpt>
      <trkpt lat="47.19631" lon="-1.56396">
        <ele>53</ele>
        <time>2021-04-20T13:46:45.000Z</time>
      </trkpt>
      <trkpt lat="47.19632" lon="-1.56418">
        <ele>53</ele>
        <time>2021-04-20T13:46:47.000Z</time>
      </trkpt>
      <trkpt lat="47.19633" lon="-1.56439">
        <ele>53</ele>
        <time>2021-04-20T13:46:49.000Z</time>
      </trkpt>
      <trkpt lat="47.19633" lon="-1.56461">
        <ele>53</ele>
        <time>2021-04-20T13:46:51.000Z</time>
      </trkpt>
      <trkpt lat="47.19634" lon="-1.56482">
        <ele>53</ele>
        <time>2021-04-20T13:46:53.000Z</time>
      </trkpt>
      <trkpt lat="47.19634" lon="-1.56504">
        <ele>54</ele>
        <time>2021-04-20T13:46:55.000Z</time>
      </trkpt>
      <trkpt lat="47.19634" lon="-1.56526">
        <ele>54</ele>
        <time>2021-04-20T13:46:57.000Z</time>
      </trkpt>
      <trkpt lat="47.19633" lon="-1.56547">
        <ele>55</ele>
        <time>2021-04-20T13:46:59.000Z</time>
      </trkpt>
      <trkpt lat="47.19633" lon="-1.56568">
        <ele>55</ele>
        <time>2021-04-20T13:47:01.000Z</time>
      </trkpt>
      <trkpt lat="47.19632" lon="-1.56589">
        <ele>55</ele>
        <time>2021-04-20T13:47:03.000Z</time>
      </trkpt>
      <trkpt lat="47.19631" lon="-1.56609">
        <ele>56</ele>
        <time>2021-04-20T13:47:05.000Z</time>
      </trkpt>
      <trkpt lat="47.1963" lon="-1.56629">
        <ele>56</ele>
        <time>2021-04-20T13:47:07.000Z</time>
      </trkpt>
      <trkpt lat="47.1963" lon="-1.56649">
        <ele>57</ele>
        <time>2021-04-20T13:47:09.000Z</time>
      </trkpt>
      <trkpt lat="47.19629" lon="-1.56669">
        <ele>57</ele>
        <time>2021-04-20T13:47:11.000Z</time>
      </trkpt>
      <trkpt lat="47.19628" lon="-1.56689">
        <ele>57</ele>
        <time>2021-04-20T13:47:13.000Z</time>
      </trkpt>
      <trkpt lat="47.19627" lon="-1.56709">
        <ele>58</ele>
        <time>2021-04-20T13:47:15.000Z</time>
      </trkpt>
      <trkpt lat="47.19626" lon="-1.56729">
        <ele>57</ele>
        <time>2021-04-20T13:47:17.000Z</time>
      </trkpt>
      <trkpt lat="47.19624" lon="-1.56751">
        <ele>57</ele>
        <time>2021-04-20T13:47:19.000Z</time>
      </trkpt>
      <trkpt lat="47.19622" lon="-1.56773">
        <ele>57</ele>
        <time>2021-04-20T13:47:21.000Z</time>
      </trkpt>
      <trkpt lat="47.19621" lon="-1.56794">
        <ele>57</ele>
        <time>2021-04-20T13:47:23.000Z</time>
      </trkpt>
      <trkpt lat="47.19619" lon="-1.56815">
        <ele>56</ele>
        <time>2021-04-20T13:47:25.000Z</time>
      </trkpt>
      <trkpt lat="47.19618" lon="-1.56836">
        <ele>57</ele>
        <time>2021-04-20T13:47:27.000Z</time>
      </trkpt>
      <trkpt lat="47.19617" lon="-1.56856">
        <ele>57</ele>
        <time>2021-04-20T13:47:29.000Z</time>
      </trkpt>
      <trkpt lat="47.19616" lon="-1.56878">
        <ele>57</ele>
        <time>2021-04-20T13:47:31.000Z</time>
      </trkpt>
      <trkpt lat="47.19614" lon="-1.56898">
        <ele>57</ele>
        <time>2021-04-20T13:47:33.000Z</time>
      </trkpt>
      <trkpt lat="47.19613" lon="-1.56919">
        <ele>57</ele>
        <time>2021-04-20T13:47:35.000Z</time>
      </trkpt>
      <trkpt lat="47.19612" lon="-1.5694">
        <ele>56</ele>
        <time>2021-04-20T13:47:37.000Z</time>
      </trkpt>
      <trkpt lat="47.1961" lon="-1.56961">
        <ele>56</ele>
        <time>2021-04-20T13:47:39.000Z</time>
      </trkpt>
      <trkpt lat="47.19608" lon="-1.56981">
        <ele>56</ele>
        <time>2021-04-20T13:47:41.000Z</time>
      </trkpt>
      <trkpt lat="47.19606" lon="-1.57003">
        <ele>56</ele>
        <time>2021-04-20T13:47:43.000Z</time>
      </trkpt>
      <trkpt lat="47.19605" lon="-1.57023">
        <ele>55</ele>
        <time>2021-04-20T13:47:45.000Z</time>
      </trkpt>
      <trkpt lat="47.19605" lon="-1.57043">
        <ele>55</ele>
        <time>2021-04-20T13:47:47.000Z</time>
      </trkpt>
      <trkpt lat="47.19604" lon="-1.57062">
        <ele>54</ele>
        <time>2021-04-20T13:47:49.000Z</time>
      </trkpt>
      <trkpt lat="47.19603" lon="-1.57082">
        <ele>54</ele>
        <time>2021-04-20T13:47:51.000Z</time>
      </trkpt>
      <trkpt lat="47.19602" lon="-1.57102">
        <ele>54</ele>
        <time>2021-04-20T13:47:53.000Z</time>
      </trkpt>
      <trkpt lat="47.19602" lon="-1.57121">
        <ele>55</ele>
        <time>2021-04-20T13:47:55.000Z</time>
      </trkpt>
      <trkpt lat="47.19599" lon="-1.57142">
        <ele>55</ele>
        <time>2021-04-20T13:47:57.000Z</time>
      </trkpt>
      <trkpt lat="47.19597" lon="-1.57163">
        <ele>56</ele>
        <time>2021-04-20T13:47:59.000Z</time>
      </trkpt>
      <trkpt lat="47.19596" lon="-1.57185">
        <ele>56</ele>
        <time>2021-04-20T13:48:01.000Z</time>
      </trkpt>
      <trkpt lat="47.19595" lon="-1.57207">
        <ele>55</ele>
        <time>2021-04-20T13:48:03.000Z</time>
      </trkpt>
      <trkpt lat="47.19594" lon="-1.57229">
        <ele>55</ele>
        <time>2021-04-20T13:48:05.000Z</time>
      </trkpt>
      <trkpt lat="47.19592" lon="-1.57251">
        <ele>56</ele>
        <time>2021-04-20T13:48:07.000Z</time>
      </trkpt>
      <trkpt lat="47.1959" lon="-1.57271">
        <ele>56</ele>
        <time>2021-04-20T13:48:09.000Z</time>
      </trkpt>
      <trkpt lat="47.19589" lon="-1.57291">
        <ele>56</ele>
        <time>2021-04-20T13:48:11.000Z</time>
      </trkpt>
      <trkpt lat="47.19588" lon="-1.5731">
        <ele>55</ele>
        <time>2021-04-20T13:48:13.000Z</time>
      </trkpt>
      <trkpt lat="47.19586" lon="-1.57325">
        <ele>55</ele>
        <time>2021-04-20T13:48:16.000Z</time>
      </trkpt>
      <trkpt lat="47.19583" lon="-1.57341">
        <ele>55</ele>
        <time>2021-04-20T13:48:30.000Z</time>
      </trkpt>
      <trkpt lat="47.19579" lon="-1.57356">
        <ele>55</ele>
        <time>2021-04-20T13:48:32.000Z</time>
      </trkpt>
      <trkpt lat="47.19576" lon="-1.57375">
        <ele>55</ele>
        <time>2021-04-20T13:48:34.000Z</time>
      </trkpt>
      <trkpt lat="47.19571" lon="-1.57399">
        <ele>55</ele>
        <time>2021-04-20T13:48:36.000Z</time>
      </trkpt>
      <trkpt lat="47.19569" lon="-1.57411">
        <ele>55</ele>
        <time>2021-04-20T13:48:37.000Z</time>
      </trkpt>
      <trkpt lat="47.19566" lon="-1.57425">
        <ele>55</ele>
        <time>2021-04-20T13:48:38.000Z</time>
      </trkpt>
      <trkpt lat="47.19564" lon="-1.57439">
        <ele>56</ele>
        <time>2021-04-20T13:48:39.000Z</time>
      </trkpt>
      <trkpt lat="47.19561" lon="-1.57452">
        <ele>56</ele>
        <time>2021-04-20T13:48:40.000Z</time>
      </trkpt>
      <trkpt lat="47.19558" lon="-1.57466">
        <ele>56</ele>
        <time>2021-04-20T13:48:41.000Z</time>
      </trkpt>
      <trkpt lat="47.19555" lon="-1.5748">
        <ele>56</ele>
        <time>2021-04-20T13:48:42.000Z</time>
      </trkpt>
      <trkpt lat="47.19553" lon="-1.57495">
        <ele>55</ele>
        <time>2021-04-20T13:48:43.000Z</time>
      </trkpt>
      <trkpt lat="47.1955" lon="-1.57508">
        <ele>55</ele>
        <time>2021-04-20T13:48:44.000Z</time>
      </trkpt>
      <trkpt lat="47.19544" lon="-1.57533">
        <ele>54</ele>
        <time>2021-04-20T13:48:46.000Z</time>
      </trkpt>
      <trkpt lat="47.19539" lon="-1.57557">
        <ele>54</ele>
        <time>2021-04-20T13:48:48.000Z</time>
      </trkpt>
      <trkpt lat="47.19535" lon="-1.5758">
        <ele>54</ele>
        <time>2021-04-20T13:48:50.000Z</time>
      </trkpt>
      <trkpt lat="47.19531" lon="-1.576">
        <ele>54</ele>
        <time>2021-04-20T13:48:52.000Z</time>
      </trkpt>
      <trkpt lat="47.19527" lon="-1.57618">
        <ele>54</ele>
        <time>2021-04-20T13:48:54.000Z</time>
      </trkpt>
      <trkpt lat="47.19523" lon="-1.57637">
        <ele>54</ele>
        <time>2021-04-20T13:48:56.000Z</time>
      </trkpt>
      <trkpt lat="47.1952" lon="-1.57652">
        <ele>54</ele>
        <time>2021-04-20T13:48:58.000Z</time>
      </trkpt>
      <trkpt lat="47.19518" lon="-1.57667">
        <ele>53</ele>
        <time>2021-04-20T13:49:00.000Z</time>
      </trkpt>
      <trkpt lat="47.19514" lon="-1.57687">
        <ele>54</ele>
        <time>2021-04-20T13:49:02.000Z</time>
      </trkpt>
      <trkpt lat="47.1951" lon="-1.57706">
        <ele>54</ele>
        <time>2021-04-20T13:49:04.000Z</time>
      </trkpt>
      <trkpt lat="47.19505" lon="-1.57726">
        <ele>54</ele>
        <time>2021-04-20T13:49:06.000Z</time>
      </trkpt>
      <trkpt lat="47.19501" lon="-1.57745">
        <ele>53</ele>
        <time>2021-04-20T13:49:08.000Z</time>
      </trkpt>
      <trkpt lat="47.19498" lon="-1.5776">
        <ele>53</ele>
        <time>2021-04-20T13:49:10.000Z</time>
      </trkpt>
      <trkpt lat="47.19493" lon="-1.57779">
        <ele>53</ele>
        <time>2021-04-20T13:49:13.000Z</time>
      </trkpt>
      <trkpt lat="47.19491" lon="-1.57793">
        <ele>53</ele>
        <time>2021-04-20T13:49:15.000Z</time>
      </trkpt>
      <trkpt lat="47.19488" lon="-1.57806">
        <ele>53</ele>
        <time>2021-04-20T13:49:17.000Z</time>
      </trkpt>
      <trkpt lat="47.19485" lon="-1.5782">
        <ele>53</ele>
        <time>2021-04-20T13:49:19.000Z</time>
      </trkpt>
      <trkpt lat="47.19482" lon="-1.57835">
        <ele>53</ele>
        <time>2021-04-20T13:49:21.000Z</time>
      </trkpt>
      <trkpt lat="47.1948" lon="-1.5785">
        <ele>52</ele>
        <time>2021-04-20T13:49:23.000Z</time>
      </trkpt>
      <trkpt lat="47.1948" lon="-1.57864">
        <ele>52</ele>
        <time>2021-04-20T13:49:25.000Z</time>
      </trkpt>
      <trkpt lat="47.19477" lon="-1.57881">
        <ele>53</ele>
        <time>2021-04-20T13:49:28.000Z</time>
      </trkpt>
      <trkpt lat="47.19474" lon="-1.57896">
        <ele>53</ele>
        <time>2021-04-20T13:49:31.000Z</time>
      </trkpt>
      <trkpt lat="47.19472" lon="-1.5791">
        <ele>54</ele>
        <time>2021-04-20T13:49:33.000Z</time>
      </trkpt>
      <trkpt lat="47.19471" lon="-1.57924">
        <ele>54</ele>
        <time>2021-04-20T13:49:35.000Z</time>
      </trkpt>
      <trkpt lat="47.1947" lon="-1.57939">
        <ele>54</ele>
        <time>2021-04-20T13:49:37.000Z</time>
      </trkpt>
      <trkpt lat="47.19468" lon="-1.57956">
        <ele>54</ele>
        <time>2021-04-20T13:49:40.000Z</time>
      </trkpt>
      <trkpt lat="47.19466" lon="-1.57974">
        <ele>53</ele>
        <time>2021-04-20T13:49:43.000Z</time>
      </trkpt>
      <trkpt lat="47.19466" lon="-1.57988">
        <ele>53</ele>
        <time>2021-04-20T13:49:45.000Z</time>
      </trkpt>
      <trkpt lat="47.19464" lon="-1.58003">
        <ele>53</ele>
        <time>2021-04-20T13:49:47.000Z</time>
      </trkpt>
      <trkpt lat="47.19464" lon="-1.58017">
        <ele>53</ele>
        <time>2021-04-20T13:49:49.000Z</time>
      </trkpt>
      <trkpt lat="47.19462" lon="-1.58034">
        <ele>54</ele>
        <time>2021-04-20T13:49:52.000Z</time>
      </trkpt>
      <trkpt lat="47.19461" lon="-1.58049">
        <ele>54</ele>
        <time>2021-04-20T13:49:55.000Z</time>
      </trkpt>
      <trkpt lat="47.19459" lon="-1.58066">
        <ele>54</ele>
        <time>2021-04-20T13:49:59.000Z</time>
      </trkpt>
      <trkpt lat="47.19457" lon="-1.5808">
        <ele>54</ele>
        <time>2021-04-20T13:50:02.000Z</time>
      </trkpt>
      <trkpt lat="47.19454" lon="-1.58094">
        <ele>55</ele>
        <time>2021-04-20T13:50:06.000Z</time>
      </trkpt>
      <trkpt lat="47.19443" lon="-1.58106">
        <ele>55</ele>
        <time>2021-04-20T13:50:10.000Z</time>
      </trkpt>
      <trkpt lat="47.19434" lon="-1.58116">
        <ele>55</ele>
        <time>2021-04-20T13:50:12.000Z</time>
      </trkpt>
      <trkpt lat="47.19424" lon="-1.58127">
        <ele>54</ele>
        <time>2021-04-20T13:50:14.000Z</time>
      </trkpt>
      <trkpt lat="47.19416" lon="-1.58136">
        <ele>54</ele>
        <time>2021-04-20T13:50:16.000Z</time>
      </trkpt>
      <trkpt lat="47.19408" lon="-1.58147">
        <ele>54</ele>
        <time>2021-04-20T13:50:18.000Z</time>
      </trkpt>
      <trkpt lat="47.19402" lon="-1.58158">
        <ele>54</ele>
        <time>2021-04-20T13:50:20.000Z</time>
      </trkpt>
      <trkpt lat="47.19394" lon="-1.58169">
        <ele>55</ele>
        <time>2021-04-20T13:50:23.000Z</time>
      </trkpt>
      <trkpt lat="47.19388" lon="-1.58182">
        <ele>55</ele>
        <time>2021-04-20T13:50:25.000Z</time>
      </trkpt>
      <trkpt lat="47.19383" lon="-1.58201">
        <ele>55</ele>
        <time>2021-04-20T13:50:27.000Z</time>
      </trkpt>
      <trkpt lat="47.19375" lon="-1.5822">
        <ele>54</ele>
        <time>2021-04-20T13:50:29.000Z</time>
      </trkpt>
      <trkpt lat="47.19368" lon="-1.58239">
        <ele>53</ele>
        <time>2021-04-20T13:50:31.000Z</time>
      </trkpt>
      <trkpt lat="47.19361" lon="-1.58257">
        <ele>53</ele>
        <time>2021-04-20T13:50:33.000Z</time>
      </trkpt>
      <trkpt lat="47.19351" lon="-1.58274">
        <ele>53</ele>
        <time>2021-04-20T13:50:35.000Z</time>
      </trkpt>
      <trkpt lat="47.19339" lon="-1.58289">
        <ele>52</ele>
        <time>2021-04-20T13:50:37.000Z</time>
      </trkpt>
      <trkpt lat="47.19326" lon="-1.58301">
        <ele>52</ele>
        <time>2021-04-20T13:50:39.000Z</time>
      </trkpt>
      <trkpt lat="47.19313" lon="-1.58313">
        <ele>52</ele>
        <time>2021-04-20T13:50:41.000Z</time>
      </trkpt>
      <trkpt lat="47.193" lon="-1.58324">
        <ele>52</ele>
        <time>2021-04-20T13:50:43.000Z</time>
      </trkpt>
      <trkpt lat="47.19287" lon="-1.58335">
        <ele>52</ele>
        <time>2021-04-20T13:50:45.000Z</time>
      </trkpt>
      <trkpt lat="47.19275" lon="-1.58348">
        <ele>52</ele>
        <time>2021-04-20T13:50:47.000Z</time>
      </trkpt>
      <trkpt lat="47.19264" lon="-1.58361">
        <ele>52</ele>
        <time>2021-04-20T13:50:49.000Z</time>
      </trkpt>
      <trkpt lat="47.19251" lon="-1.58373">
        <ele>52</ele>
        <time>2021-04-20T13:50:51.000Z</time>
      </trkpt>
      <trkpt lat="47.19239" lon="-1.58384">
        <ele>52</ele>
        <time>2021-04-20T13:50:53.000Z</time>
      </trkpt>
      <trkpt lat="47.19226" lon="-1.58395">
        <ele>52</ele>
        <time>2021-04-20T13:50:55.000Z</time>
      </trkpt>
      <trkpt lat="47.19214" lon="-1.58407">
        <ele>52</ele>
        <time>2021-04-20T13:50:57.000Z</time>
      </trkpt>
      <trkpt lat="47.19202" lon="-1.58418">
        <ele>53</ele>
        <time>2021-04-20T13:50:59.000Z</time>
      </trkpt>
      <trkpt lat="47.1919" lon="-1.58429">
        <ele>53</ele>
        <time>2021-04-20T13:51:01.000Z</time>
      </trkpt>
      <trkpt lat="47.19178" lon="-1.5844">
        <ele>52</ele>
        <time>2021-04-20T13:51:03.000Z</time>
      </trkpt>
      <trkpt lat="47.19168" lon="-1.5845">
        <ele>53</ele>
        <time>2021-04-20T13:51:05.000Z</time>
      </trkpt>
      <trkpt lat="47.19158" lon="-1.58462">
        <ele>52</ele>
        <time>2021-04-20T13:51:07.000Z</time>
      </trkpt>
      <trkpt lat="47.19149" lon="-1.5847">
        <ele>52</ele>
        <time>2021-04-20T13:51:09.000Z</time>
      </trkpt>
      <trkpt lat="47.19137" lon="-1.58482">
        <ele>52</ele>
        <time>2021-04-20T13:51:12.000Z</time>
      </trkpt>
      <trkpt lat="47.19127" lon="-1.58492">
        <ele>52</ele>
        <time>2021-04-20T13:51:14.000Z</time>
      </trkpt>
      <trkpt lat="47.19116" lon="-1.58503">
        <ele>53</ele>
        <time>2021-04-20T13:51:16.000Z</time>
      </trkpt>
      <trkpt lat="47.19102" lon="-1.58516">
        <ele>53</ele>
        <time>2021-04-20T13:51:18.000Z</time>
      </trkpt>
      <trkpt lat="47.19088" lon="-1.5853">
        <ele>54</ele>
        <time>2021-04-20T13:51:20.000Z</time>
      </trkpt>
      <trkpt lat="47.19075" lon="-1.58541">
        <ele>54</ele>
        <time>2021-04-20T13:51:22.000Z</time>
      </trkpt>
      <trkpt lat="47.19063" lon="-1.58555">
        <ele>53</ele>
        <time>2021-04-20T13:51:24.000Z</time>
      </trkpt>
      <trkpt lat="47.19051" lon="-1.58568">
        <ele>54</ele>
        <time>2021-04-20T13:51:26.000Z</time>
      </trkpt>
      <trkpt lat="47.19038" lon="-1.5858">
        <ele>53</ele>
        <time>2021-04-20T13:51:28.000Z</time>
      </trkpt>
      <trkpt lat="47.19026" lon="-1.58593">
        <ele>53</ele>
        <time>2021-04-20T13:51:30.000Z</time>
      </trkpt>
      <trkpt lat="47.19015" lon="-1.58606">
        <ele>54</ele>
        <time>2021-04-20T13:51:32.000Z</time>
      </trkpt>
      <trkpt lat="47.19003" lon="-1.58618">
        <ele>54</ele>
        <time>2021-04-20T13:51:34.000Z</time>
      </trkpt>
      <trkpt lat="47.18991" lon="-1.5863">
        <ele>54</ele>
        <time>2021-04-20T13:51:36.000Z</time>
      </trkpt>
      <trkpt lat="47.1898" lon="-1.5864">
        <ele>54</ele>
        <time>2021-04-20T13:51:38.000Z</time>
      </trkpt>
      <trkpt lat="47.18968" lon="-1.58652">
        <ele>54</ele>
        <time>2021-04-20T13:51:40.000Z</time>
      </trkpt>
      <trkpt lat="47.18957" lon="-1.58663">
        <ele>54</ele>
        <time>2021-04-20T13:51:42.000Z</time>
      </trkpt>
      <trkpt lat="47.18945" lon="-1.58674">
        <ele>54</ele>
        <time>2021-04-20T13:51:44.000Z</time>
      </trkpt>
      <trkpt lat="47.18934" lon="-1.58684">
        <ele>53</ele>
        <time>2021-04-20T13:51:46.000Z</time>
      </trkpt>
      <trkpt lat="47.18922" lon="-1.58695">
        <ele>53</ele>
        <time>2021-04-20T13:51:48.000Z</time>
      </trkpt>
      <trkpt lat="47.18911" lon="-1.58705">
        <ele>53</ele>
        <time>2021-04-20T13:51:50.000Z</time>
      </trkpt>
      <trkpt lat="47.18899" lon="-1.58713">
        <ele>53</ele>
        <time>2021-04-20T13:51:52.000Z</time>
      </trkpt>
      <trkpt lat="47.18888" lon="-1.58719">
        <ele>53</ele>
        <time>2021-04-20T13:51:54.000Z</time>
      </trkpt>
      <trkpt lat="47.18878" lon="-1.58726">
        <ele>53</ele>
        <time>2021-04-20T13:51:56.000Z</time>
      </trkpt>
      <trkpt lat="47.18868" lon="-1.58732">
        <ele>53</ele>
        <time>2021-04-20T13:51:58.000Z</time>
      </trkpt>
      <trkpt lat="47.18861" lon="-1.58743">
        <ele>53</ele>
        <time>2021-04-20T13:52:00.000Z</time>
      </trkpt>
      <trkpt lat="47.18859" lon="-1.5876">
        <ele>53</ele>
        <time>2021-04-20T13:52:02.000Z</time>
      </trkpt>
      <trkpt lat="47.18858" lon="-1.58779">
        <ele>54</ele>
        <time>2021-04-20T13:52:04.000Z</time>
      </trkpt>
      <trkpt lat="47.1886" lon="-1.58796">
        <ele>54</ele>
        <time>2021-04-20T13:52:06.000Z</time>
      </trkpt>
      <trkpt lat="47.1886" lon="-1.58814">
        <ele>54</ele>
        <time>2021-04-20T13:52:08.000Z</time>
      </trkpt>
      <trkpt lat="47.18851" lon="-1.58824">
        <ele>54</ele>
        <time>2021-04-20T13:52:10.000Z</time>
      </trkpt>
      <trkpt lat="47.18839" lon="-1.5882">
        <ele>54</ele>
        <time>2021-04-20T13:52:12.000Z</time>
      </trkpt>
      <trkpt lat="47.1883" lon="-1.58811">
        <ele>54</ele>
        <time>2021-04-20T13:52:14.000Z</time>
      </trkpt>
      <trkpt lat="47.18821" lon="-1.58804">
        <ele>54</ele>
        <time>2021-04-20T13:52:16.000Z</time>
      </trkpt>
      <trkpt lat="47.18809" lon="-1.58806">
        <ele>54</ele>
        <time>2021-04-20T13:52:18.000Z</time>
      </trkpt>
      <trkpt lat="47.18799" lon="-1.58813">
        <ele>54</ele>
        <time>2021-04-20T13:52:20.000Z</time>
      </trkpt>
      <trkpt lat="47.18791" lon="-1.58825">
        <ele>53</ele>
        <time>2021-04-20T13:52:22.000Z</time>
      </trkpt>
      <trkpt lat="47.18787" lon="-1.58844">
        <ele>53</ele>
        <time>2021-04-20T13:52:24.000Z</time>
      </trkpt>
      <trkpt lat="47.18783" lon="-1.58863">
        <ele>53</ele>
        <time>2021-04-20T13:52:26.000Z</time>
      </trkpt>
      <trkpt lat="47.18779" lon="-1.58881">
        <ele>53</ele>
        <time>2021-04-20T13:52:28.000Z</time>
      </trkpt>
      <trkpt lat="47.18776" lon="-1.589">
        <ele>54</ele>
        <time>2021-04-20T13:52:30.000Z</time>
      </trkpt>
      <trkpt lat="47.18775" lon="-1.5892">
        <ele>53</ele>
        <time>2021-04-20T13:52:32.000Z</time>
      </trkpt>
      <trkpt lat="47.18773" lon="-1.58939">
        <ele>53</ele>
        <time>2021-04-20T13:52:34.000Z</time>
      </trkpt>
      <trkpt lat="47.1877" lon="-1.5896">
        <ele>54</ele>
        <time>2021-04-20T13:52:36.000Z</time>
      </trkpt>
      <trkpt lat="47.18768" lon="-1.58979">
        <ele>54</ele>
        <time>2021-04-20T13:52:38.000Z</time>
      </trkpt>
      <trkpt lat="47.18766" lon="-1.58999">
        <ele>54</ele>
        <time>2021-04-20T13:52:40.000Z</time>
      </trkpt>
      <trkpt lat="47.18763" lon="-1.59018">
        <ele>55</ele>
        <time>2021-04-20T13:52:42.000Z</time>
      </trkpt>
      <trkpt lat="47.18761" lon="-1.59037">
        <ele>55</ele>
        <time>2021-04-20T13:52:44.000Z</time>
      </trkpt>
      <trkpt lat="47.18759" lon="-1.59057">
        <ele>55</ele>
        <time>2021-04-20T13:52:46.000Z</time>
      </trkpt>
      <trkpt lat="47.18757" lon="-1.59077">
        <ele>55</ele>
        <time>2021-04-20T13:52:48.000Z</time>
      </trkpt>
      <trkpt lat="47.18755" lon="-1.59097">
        <ele>55</ele>
        <time>2021-04-20T13:52:50.000Z</time>
      </trkpt>
      <trkpt lat="47.18753" lon="-1.59116">
        <ele>55</ele>
        <time>2021-04-20T13:52:52.000Z</time>
      </trkpt>
      <trkpt lat="47.18751" lon="-1.59136">
        <ele>55</ele>
        <time>2021-04-20T13:52:54.000Z</time>
      </trkpt>
      <trkpt lat="47.18748" lon="-1.59157">
        <ele>54</ele>
        <time>2021-04-20T13:52:56.000Z</time>
      </trkpt>
      <trkpt lat="47.18746" lon="-1.59177">
        <ele>54</ele>
        <time>2021-04-20T13:52:58.000Z</time>
      </trkpt>
      <trkpt lat="47.18744" lon="-1.59198">
        <ele>53</ele>
        <time>2021-04-20T13:53:00.000Z</time>
      </trkpt>
      <trkpt lat="47.18742" lon="-1.59218">
        <ele>53</ele>
        <time>2021-04-20T13:53:02.000Z</time>
      </trkpt>
      <trkpt lat="47.18739" lon="-1.5924">
        <ele>53</ele>
        <time>2021-04-20T13:53:04.000Z</time>
      </trkpt>
      <trkpt lat="47.18737" lon="-1.59262">
        <ele>53</ele>
        <time>2021-04-20T13:53:06.000Z</time>
      </trkpt>
      <trkpt lat="47.18735" lon="-1.59284">
        <ele>53</ele>
        <time>2021-04-20T13:53:08.000Z</time>
      </trkpt>
      <trkpt lat="47.18732" lon="-1.59306">
        <ele>53</ele>
        <time>2021-04-20T13:53:10.000Z</time>
      </trkpt>
      <trkpt lat="47.1873" lon="-1.59328">
        <ele>53</ele>
        <time>2021-04-20T13:53:12.000Z</time>
      </trkpt>
      <trkpt lat="47.18728" lon="-1.5935">
        <ele>53</ele>
        <time>2021-04-20T13:53:14.000Z</time>
      </trkpt>
      <trkpt lat="47.18725" lon="-1.59373">
        <ele>52</ele>
        <time>2021-04-20T13:53:16.000Z</time>
      </trkpt>
      <trkpt lat="47.18723" lon="-1.59396">
        <ele>53</ele>
        <time>2021-04-20T13:53:18.000Z</time>
      </trkpt>
      <trkpt lat="47.1872" lon="-1.59419">
        <ele>53</ele>
        <time>2021-04-20T13:53:20.000Z</time>
      </trkpt>
      <trkpt lat="47.18717" lon="-1.59441">
        <ele>53</ele>
        <time>2021-04-20T13:53:22.000Z</time>
      </trkpt>
      <trkpt lat="47.18715" lon="-1.59464">
        <ele>53</ele>
        <time>2021-04-20T13:53:24.000Z</time>
      </trkpt>
      <trkpt lat="47.18712" lon="-1.59486">
        <ele>54</ele>
        <time>2021-04-20T13:53:26.000Z</time>
      </trkpt>
      <trkpt lat="47.1871" lon="-1.59508">
        <ele>54</ele>
        <time>2021-04-20T13:53:28.000Z</time>
      </trkpt>
      <trkpt lat="47.18708" lon="-1.5953">
        <ele>54</ele>
        <time>2021-04-20T13:53:30.000Z</time>
      </trkpt>
      <trkpt lat="47.18705" lon="-1.59552">
        <ele>54</ele>
        <time>2021-04-20T13:53:32.000Z</time>
      </trkpt>
      <trkpt lat="47.18703" lon="-1.59574">
        <ele>54</ele>
        <time>2021-04-20T13:53:34.000Z</time>
      </trkpt>
      <trkpt lat="47.187" lon="-1.59595">
        <ele>54</ele>
        <time>2021-04-20T13:53:36.000Z</time>
      </trkpt>
      <trkpt lat="47.18698" lon="-1.59616">
        <ele>54</ele>
        <time>2021-04-20T13:53:38.000Z</time>
      </trkpt>
      <trkpt lat="47.18694" lon="-1.59637">
        <ele>54</ele>
        <time>2021-04-20T13:53:40.000Z</time>
      </trkpt>
      <trkpt lat="47.18691" lon="-1.59659">
        <ele>54</ele>
        <time>2021-04-20T13:53:42.000Z</time>
      </trkpt>
      <trkpt lat="47.18688" lon="-1.59681">
        <ele>54</ele>
        <time>2021-04-20T13:53:44.000Z</time>
      </trkpt>
      <trkpt lat="47.18686" lon="-1.59703">
        <ele>54</ele>
        <time>2021-04-20T13:53:46.000Z</time>
      </trkpt>
      <trkpt lat="47.18685" lon="-1.59725">
        <ele>54</ele>
        <time>2021-04-20T13:53:48.000Z</time>
      </trkpt>
      <trkpt lat="47.18685" lon="-1.59748">
        <ele>54</ele>
        <time>2021-04-20T13:53:50.000Z</time>
      </trkpt>
      <trkpt lat="47.18684" lon="-1.59772">
        <ele>54</ele>
        <time>2021-04-20T13:53:52.000Z</time>
      </trkpt>
      <trkpt lat="47.18686" lon="-1.59797">
        <ele>54</ele>
        <time>2021-04-20T13:53:54.000Z</time>
      </trkpt>
      <trkpt lat="47.18682" lon="-1.59821">
        <ele>54</ele>
        <time>2021-04-20T13:53:56.000Z</time>
      </trkpt>
      <trkpt lat="47.1867" lon="-1.59839">
        <ele>54</ele>
        <time>2021-04-20T13:53:58.000Z</time>
      </trkpt>
      <trkpt lat="47.18655" lon="-1.59844">
        <ele>54</ele>
        <time>2021-04-20T13:54:00.000Z</time>
      </trkpt>
      <trkpt lat="47.18639" lon="-1.59838">
        <ele>53</ele>
        <time>2021-04-20T13:54:02.000Z</time>
      </trkpt>
      <trkpt lat="47.18626" lon="-1.59832">
        <ele>52</ele>
        <time>2021-04-20T13:54:04.000Z</time>
      </trkpt>
      <trkpt lat="47.18617" lon="-1.59837">
        <ele>52</ele>
        <time>2021-04-20T13:54:06.000Z</time>
      </trkpt>
      <trkpt lat="47.1862" lon="-1.59852">
        <ele>52</ele>
        <time>2021-04-20T13:54:08.000Z</time>
      </trkpt>
      <trkpt lat="47.18626" lon="-1.59866">
        <ele>53</ele>
        <time>2021-04-20T13:54:10.000Z</time>
      </trkpt>
      <trkpt lat="47.18622" lon="-1.59884">
        <ele>53</ele>
        <time>2021-04-20T13:54:12.000Z</time>
      </trkpt>
      <trkpt lat="47.18617" lon="-1.59904">
        <ele>53</ele>
        <time>2021-04-20T13:54:14.000Z</time>
      </trkpt>
      <trkpt lat="47.18612" lon="-1.59923">
        <ele>52</ele>
        <time>2021-04-20T13:54:16.000Z</time>
      </trkpt>
      <trkpt lat="47.18606" lon="-1.59941">
        <ele>52</ele>
        <time>2021-04-20T13:54:18.000Z</time>
      </trkpt>
      <trkpt lat="47.18601" lon="-1.5996">
        <ele>52</ele>
        <time>2021-04-20T13:54:20.000Z</time>
      </trkpt>
      <trkpt lat="47.18595" lon="-1.59978">
        <ele>53</ele>
        <time>2021-04-20T13:54:22.000Z</time>
      </trkpt>
      <trkpt lat="47.1859" lon="-1.59996">
        <ele>53</ele>
        <time>2021-04-20T13:54:24.000Z</time>
      </trkpt>
      <trkpt lat="47.18584" lon="-1.60015">
        <ele>53</ele>
        <time>2021-04-20T13:54:26.000Z</time>
      </trkpt>
      <trkpt lat="47.18578" lon="-1.60032">
        <ele>53</ele>
        <time>2021-04-20T13:54:28.000Z</time>
      </trkpt>
      <trkpt lat="47.18571" lon="-1.6005">
        <ele>53</ele>
        <time>2021-04-20T13:54:30.000Z</time>
      </trkpt>
      <trkpt lat="47.18564" lon="-1.60068">
        <ele>54</ele>
        <time>2021-04-20T13:54:32.000Z</time>
      </trkpt>
      <trkpt lat="47.18557" lon="-1.60085">
        <ele>54</ele>
        <time>2021-04-20T13:54:34.000Z</time>
      </trkpt>
      <trkpt lat="47.1855" lon="-1.60102">
        <ele>53</ele>
        <time>2021-04-20T13:54:36.000Z</time>
      </trkpt>
      <trkpt lat="47.18543" lon="-1.6012">
        <ele>53</ele>
        <time>2021-04-20T13:54:38.000Z</time>
      </trkpt>
      <trkpt lat="47.18535" lon="-1.60136">
        <ele>53</ele>
        <time>2021-04-20T13:54:40.000Z</time>
      </trkpt>
      <trkpt lat="47.18528" lon="-1.60152">
        <ele>53</ele>
        <time>2021-04-20T13:54:42.000Z</time>
      </trkpt>
      <trkpt lat="47.1852" lon="-1.60168">
        <ele>54</ele>
        <time>2021-04-20T13:54:44.000Z</time>
      </trkpt>
      <trkpt lat="47.18512" lon="-1.60185">
        <ele>54</ele>
        <time>2021-04-20T13:54:46.000Z</time>
      </trkpt>
      <trkpt lat="47.18504" lon="-1.602">
        <ele>54</ele>
        <time>2021-04-20T13:54:48.000Z</time>
      </trkpt>
      <trkpt lat="47.18497" lon="-1.60217">
        <ele>54</ele>
        <time>2021-04-20T13:54:50.000Z</time>
      </trkpt>
      <trkpt lat="47.18488" lon="-1.60232">
        <ele>54</ele>
        <time>2021-04-20T13:54:52.000Z</time>
      </trkpt>
      <trkpt lat="47.1848" lon="-1.60247">
        <ele>54</ele>
        <time>2021-04-20T13:54:54.000Z</time>
      </trkpt>
      <trkpt lat="47.18472" lon="-1.60263">
        <ele>54</ele>
        <time>2021-04-20T13:54:56.000Z</time>
      </trkpt>
      <trkpt lat="47.18463" lon="-1.60278">
        <ele>53</ele>
        <time>2021-04-20T13:54:58.000Z</time>
      </trkpt>
      <trkpt lat="47.18455" lon="-1.60293">
        <ele>53</ele>
        <time>2021-04-20T13:55:00.000Z</time>
      </trkpt>
      <trkpt lat="47.18446" lon="-1.60308">
        <ele>53</ele>
        <time>2021-04-20T13:55:02.000Z</time>
      </trkpt>
      <trkpt lat="47.18437" lon="-1.60323">
        <ele>53</ele>
        <time>2021-04-20T13:55:04.000Z</time>
      </trkpt>
      <trkpt lat="47.18428" lon="-1.60337">
        <ele>52</ele>
        <time>2021-04-20T13:55:06.000Z</time>
      </trkpt>
      <trkpt lat="47.18418" lon="-1.60352">
        <ele>52</ele>
        <time>2021-04-20T13:55:08.000Z</time>
      </trkpt>
      <trkpt lat="47.18407" lon="-1.60365">
        <ele>52</ele>
        <time>2021-04-20T13:55:10.000Z</time>
      </trkpt>
      <trkpt lat="47.18397" lon="-1.60378">
        <ele>52</ele>
        <time>2021-04-20T13:55:12.000Z</time>
      </trkpt>
      <trkpt lat="47.18387" lon="-1.60392">
        <ele>51</ele>
        <time>2021-04-20T13:55:14.000Z</time>
      </trkpt>
      <trkpt lat="47.18377" lon="-1.60406">
        <ele>51</ele>
        <time>2021-04-20T13:55:16.000Z</time>
      </trkpt>
      <trkpt lat="47.18367" lon="-1.60419">
        <ele>52</ele>
        <time>2021-04-20T13:55:18.000Z</time>
      </trkpt>
      <trkpt lat="47.18357" lon="-1.60431">
        <ele>52</ele>
        <time>2021-04-20T13:55:20.000Z</time>
      </trkpt>
      <trkpt lat="47.18346" lon="-1.60445">
        <ele>52</ele>
        <time>2021-04-20T13:55:22.000Z</time>
      </trkpt>
      <trkpt lat="47.18336" lon="-1.60458">
        <ele>52</ele>
        <time>2021-04-20T13:55:24.000Z</time>
      </trkpt>
      <trkpt lat="47.18325" lon="-1.60471">
        <ele>52</ele>
        <time>2021-04-20T13:55:26.000Z</time>
      </trkpt>
      <trkpt lat="47.18314" lon="-1.60483">
        <ele>52</ele>
        <time>2021-04-20T13:55:28.000Z</time>
      </trkpt>
      <trkpt lat="47.18304" lon="-1.60495">
        <ele>52</ele>
        <time>2021-04-20T13:55:30.000Z</time>
      </trkpt>
      <trkpt lat="47.18293" lon="-1.60507">
        <ele>52</ele>
        <time>2021-04-20T13:55:32.000Z</time>
      </trkpt>
      <trkpt lat="47.18282" lon="-1.60519">
        <ele>52</ele>
        <time>2021-04-20T13:55:34.000Z</time>
      </trkpt>
      <trkpt lat="47.18271" lon="-1.60529">
        <ele>52</ele>
        <time>2021-04-20T13:55:36.000Z</time>
      </trkpt>
      <trkpt lat="47.18259" lon="-1.60539">
        <ele>51</ele>
        <time>2021-04-20T13:55:38.000Z</time>
      </trkpt>
      <trkpt lat="47.18248" lon="-1.60548">
        <ele>52</ele>
        <time>2021-04-20T13:55:40.000Z</time>
      </trkpt>
      <trkpt lat="47.18236" lon="-1.60556">
        <ele>51</ele>
        <time>2021-04-20T13:55:42.000Z</time>
      </trkpt>
      <trkpt lat="47.18225" lon="-1.60563">
        <ele>51</ele>
        <time>2021-04-20T13:55:44.000Z</time>
      </trkpt>
      <trkpt lat="47.18214" lon="-1.60568">
        <ele>51</ele>
        <time>2021-04-20T13:55:46.000Z</time>
      </trkpt>
      <trkpt lat="47.18204" lon="-1.60573">
        <ele>51</ele>
        <time>2021-04-20T13:55:48.000Z</time>
      </trkpt>
      <trkpt lat="47.18194" lon="-1.60576">
        <ele>51</ele>
        <time>2021-04-20T13:55:50.000Z</time>
      </trkpt>
      <trkpt lat="47.1819" lon="-1.60589">
        <ele>51</ele>
        <time>2021-04-20T13:56:00.000Z</time>
      </trkpt>
      <trkpt lat="47.18183" lon="-1.60598">
        <ele>51</ele>
        <time>2021-04-20T13:56:02.000Z</time>
      </trkpt>
      <trkpt lat="47.1817" lon="-1.60601">
        <ele>51</ele>
        <time>2021-04-20T13:56:04.000Z</time>
      </trkpt>
      <trkpt lat="47.18159" lon="-1.60603">
        <ele>51</ele>
        <time>2021-04-20T13:56:06.000Z</time>
      </trkpt>
      <trkpt lat="47.18147" lon="-1.60603">
        <ele>51</ele>
        <time>2021-04-20T13:56:08.000Z</time>
      </trkpt>
      <trkpt lat="47.18136" lon="-1.60602">
        <ele>52</ele>
        <time>2021-04-20T13:56:10.000Z</time>
      </trkpt>
      <trkpt lat="47.18124" lon="-1.60599">
        <ele>52</ele>
        <time>2021-04-20T13:56:12.000Z</time>
      </trkpt>
      <trkpt lat="47.18111" lon="-1.60594">
        <ele>52</ele>
        <time>2021-04-20T13:56:14.000Z</time>
      </trkpt>
      <trkpt lat="47.18098" lon="-1.60589">
        <ele>52</ele>
        <time>2021-04-20T13:56:16.000Z</time>
      </trkpt>
      <trkpt lat="47.18085" lon="-1.60583">
        <ele>52</ele>
        <time>2021-04-20T13:56:18.000Z</time>
      </trkpt>
      <trkpt lat="47.18074" lon="-1.60576">
        <ele>52</ele>
        <time>2021-04-20T13:56:20.000Z</time>
      </trkpt>
      <trkpt lat="47.18062" lon="-1.6057">
        <ele>52</ele>
        <time>2021-04-20T13:56:22.000Z</time>
      </trkpt>
      <trkpt lat="47.18051" lon="-1.60563">
        <ele>52</ele>
        <time>2021-04-20T13:56:24.000Z</time>
      </trkpt>
      <trkpt lat="47.18039" lon="-1.60557">
        <ele>52</ele>
        <time>2021-04-20T13:56:26.000Z</time>
      </trkpt>
      <trkpt lat="47.18028" lon="-1.60552">
        <ele>52</ele>
        <time>2021-04-20T13:56:28.000Z</time>
      </trkpt>
      <trkpt lat="47.18016" lon="-1.60553">
        <ele>52</ele>
        <time>2021-04-20T13:56:30.000Z</time>
      </trkpt>
      <trkpt lat="47.18003" lon="-1.60556">
        <ele>52</ele>
        <time>2021-04-20T13:56:32.000Z</time>
      </trkpt>
      <trkpt lat="47.17991" lon="-1.60559">
        <ele>52</ele>
        <time>2021-04-20T13:56:34.000Z</time>
      </trkpt>
      <trkpt lat="47.17979" lon="-1.60564">
        <ele>53</ele>
        <time>2021-04-20T13:56:36.000Z</time>
      </trkpt>
      <trkpt lat="47.17968" lon="-1.60569">
        <ele>53</ele>
        <time>2021-04-20T13:56:38.000Z</time>
      </trkpt>
      <trkpt lat="47.17957" lon="-1.60573">
        <ele>53</ele>
        <time>2021-04-20T13:56:40.000Z</time>
      </trkpt>
      <trkpt lat="47.17946" lon="-1.60579">
        <ele>53</ele>
        <time>2021-04-20T13:56:42.000Z</time>
      </trkpt>
      <trkpt lat="47.17935" lon="-1.60585">
        <ele>54</ele>
        <time>2021-04-20T13:56:44.000Z</time>
      </trkpt>
      <trkpt lat="47.17926" lon="-1.60587">
        <ele>54</ele>
        <time>2021-04-20T13:56:46.000Z</time>
      </trkpt>
      <trkpt lat="47.17916" lon="-1.60587">
        <ele>54</ele>
        <time>2021-04-20T13:56:48.000Z</time>
      </trkpt>
      <trkpt lat="47.17908" lon="-1.60594">
        <ele>52</ele>
        <time>2021-04-20T13:56:50.000Z</time>
      </trkpt>
      <trkpt lat="47.17904" lon="-1.60612">
        <ele>51</ele>
        <time>2021-04-20T13:56:52.000Z</time>
      </trkpt>
      <trkpt lat="47.179" lon="-1.6063">
        <ele>51</ele>
        <time>2021-04-20T13:56:54.000Z</time>
      </trkpt>
      <trkpt lat="47.17893" lon="-1.60648">
        <ele>51</ele>
        <time>2021-04-20T13:56:56.000Z</time>
      </trkpt>
      <trkpt lat="47.17887" lon="-1.60667">
        <ele>51</ele>
        <time>2021-04-20T13:56:58.000Z</time>
      </trkpt>
      <trkpt lat="47.17881" lon="-1.60686">
        <ele>51</ele>
        <time>2021-04-20T13:57:00.000Z</time>
      </trkpt>
      <trkpt lat="47.17876" lon="-1.60704">
        <ele>50</ele>
        <time>2021-04-20T13:57:02.000Z</time>
      </trkpt>
      <trkpt lat="47.17871" lon="-1.60723">
        <ele>51</ele>
        <time>2021-04-20T13:57:04.000Z</time>
      </trkpt>
      <trkpt lat="47.17866" lon="-1.60741">
        <ele>51</ele>
        <time>2021-04-20T13:57:06.000Z</time>
      </trkpt>
      <trkpt lat="47.17862" lon="-1.6076">
        <ele>51</ele>
        <time>2021-04-20T13:57:08.000Z</time>
      </trkpt>
      <trkpt lat="47.17858" lon="-1.60776">
        <ele>50</ele>
        <time>2021-04-20T13:57:10.000Z</time>
      </trkpt>
      <trkpt lat="47.17854" lon="-1.60793">
        <ele>49</ele>
        <time>2021-04-20T13:57:12.000Z</time>
      </trkpt>
      <trkpt lat="47.17851" lon="-1.60811">
        <ele>49</ele>
        <time>2021-04-20T13:57:14.000Z</time>
      </trkpt>
      <trkpt lat="47.17846" lon="-1.60828">
        <ele>49</ele>
        <time>2021-04-20T13:57:16.000Z</time>
      </trkpt>
      <trkpt lat="47.1784" lon="-1.60845">
        <ele>49</ele>
        <time>2021-04-20T13:57:18.000Z</time>
      </trkpt>
      <trkpt lat="47.17832" lon="-1.6086">
        <ele>49</ele>
        <time>2021-04-20T13:57:20.000Z</time>
      </trkpt>
      <trkpt lat="47.17823" lon="-1.60875">
        <ele>49</ele>
        <time>2021-04-20T13:57:22.000Z</time>
      </trkpt>
      <trkpt lat="47.17813" lon="-1.60887">
        <ele>49</ele>
        <time>2021-04-20T13:57:24.000Z</time>
      </trkpt>
      <trkpt lat="47.17802" lon="-1.60897">
        <ele>50</ele>
        <time>2021-04-20T13:57:26.000Z</time>
      </trkpt>
      <trkpt lat="47.1779" lon="-1.60906">
        <ele>50</ele>
        <time>2021-04-20T13:57:28.000Z</time>
      </trkpt>
      <trkpt lat="47.17779" lon="-1.60915">
        <ele>51</ele>
        <time>2021-04-20T13:57:30.000Z</time>
      </trkpt>
      <trkpt lat="47.17768" lon="-1.60924">
        <ele>51</ele>
        <time>2021-04-20T13:57:32.000Z</time>
      </trkpt>
      <trkpt lat="47.17757" lon="-1.60933">
        <ele>52</ele>
        <time>2021-04-20T13:57:34.000Z</time>
      </trkpt>
      <trkpt lat="47.17746" lon="-1.60941">
        <ele>52</ele>
        <time>2021-04-20T13:57:36.000Z</time>
      </trkpt>
      <trkpt lat="47.17734" lon="-1.6095">
        <ele>52</ele>
        <time>2021-04-20T13:57:38.000Z</time>
      </trkpt>
      <trkpt lat="47.17723" lon="-1.60959">
        <ele>52</ele>
        <time>2021-04-20T13:57:40.000Z</time>
      </trkpt>
      <trkpt lat="47.1771" lon="-1.60966">
        <ele>52</ele>
        <time>2021-04-20T13:57:42.000Z</time>
      </trkpt>
      <trkpt lat="47.17698" lon="-1.60972">
        <ele>52</ele>
        <time>2021-04-20T13:57:44.000Z</time>
      </trkpt>
      <trkpt lat="47.17685" lon="-1.60974">
        <ele>52</ele>
        <time>2021-04-20T13:57:46.000Z</time>
      </trkpt>
      <trkpt lat="47.17671" lon="-1.60971">
        <ele>51</ele>
        <time>2021-04-20T13:57:48.000Z</time>
      </trkpt>
      <trkpt lat="47.17657" lon="-1.60975">
        <ele>50</ele>
        <time>2021-04-20T13:57:50.000Z</time>
      </trkpt>
      <trkpt lat="47.17644" lon="-1.60985">
        <ele>50</ele>
        <time>2021-04-20T13:57:52.000Z</time>
      </trkpt>
      <trkpt lat="47.17632" lon="-1.60996">
        <ele>50</ele>
        <time>2021-04-20T13:57:54.000Z</time>
      </trkpt>
      <trkpt lat="47.1762" lon="-1.61006">
        <ele>50</ele>
        <time>2021-04-20T13:57:56.000Z</time>
      </trkpt>
      <trkpt lat="47.17609" lon="-1.61017">
        <ele>50</ele>
        <time>2021-04-20T13:57:58.000Z</time>
      </trkpt>
      <trkpt lat="47.17597" lon="-1.61028">
        <ele>50</ele>
        <time>2021-04-20T13:58:00.000Z</time>
      </trkpt>
      <trkpt lat="47.17586" lon="-1.61037">
        <ele>50</ele>
        <time>2021-04-20T13:58:02.000Z</time>
      </trkpt>
      <trkpt lat="47.17574" lon="-1.61047">
        <ele>50</ele>
        <time>2021-04-20T13:58:04.000Z</time>
      </trkpt>
      <trkpt lat="47.17562" lon="-1.61056">
        <ele>50</ele>
        <time>2021-04-20T13:58:06.000Z</time>
      </trkpt>
      <trkpt lat="47.17551" lon="-1.61067">
        <ele>50</ele>
        <time>2021-04-20T13:58:08.000Z</time>
      </trkpt>
      <trkpt lat="47.17539" lon="-1.61077">
        <ele>50</ele>
        <time>2021-04-20T13:58:10.000Z</time>
      </trkpt>
      <trkpt lat="47.17527" lon="-1.61087">
        <ele>51</ele>
        <time>2021-04-20T13:58:12.000Z</time>
      </trkpt>
      <trkpt lat="47.17516" lon="-1.61097">
        <ele>51</ele>
        <time>2021-04-20T13:58:14.000Z</time>
      </trkpt>
      <trkpt lat="47.17505" lon="-1.61103">
        <ele>51</ele>
        <time>2021-04-20T13:58:16.000Z</time>
      </trkpt>
      <trkpt lat="47.17492" lon="-1.61105">
        <ele>51</ele>
        <time>2021-04-20T13:58:18.000Z</time>
      </trkpt>
      <trkpt lat="47.17479" lon="-1.61103">
        <ele>51</ele>
        <time>2021-04-20T13:58:20.000Z</time>
      </trkpt>
      <trkpt lat="47.17468" lon="-1.61096">
        <ele>51</ele>
        <time>2021-04-20T13:58:22.000Z</time>
      </trkpt>
      <trkpt lat="47.17458" lon="-1.61086">
        <ele>51</ele>
        <time>2021-04-20T13:58:24.000Z</time>
      </trkpt>
      <trkpt lat="47.17449" lon="-1.61076">
        <ele>52</ele>
        <time>2021-04-20T13:58:26.000Z</time>
      </trkpt>
      <trkpt lat="47.17442" lon="-1.61063">
        <ele>53</ele>
        <time>2021-04-20T13:58:28.000Z</time>
      </trkpt>
      <trkpt lat="47.17437" lon="-1.61049">
        <ele>53</ele>
        <time>2021-04-20T13:58:30.000Z</time>
      </trkpt>
      <trkpt lat="47.17433" lon="-1.61037">
        <ele>54</ele>
        <time>2021-04-20T13:58:32.000Z</time>
      </trkpt>
      <trkpt lat="47.17428" lon="-1.6102">
        <ele>54</ele>
        <time>2021-04-20T13:58:35.000Z</time>
      </trkpt>
      <trkpt lat="47.17424" lon="-1.61037">
        <ele>54</ele>
        <time>2021-04-20T13:58:40.000Z</time>
      </trkpt>
      <trkpt lat="47.17428" lon="-1.61051">
        <ele>54</ele>
        <time>2021-04-20T13:58:42.000Z</time>
      </trkpt>
      <trkpt lat="47.17434" lon="-1.61065">
        <ele>55</ele>
        <time>2021-04-20T13:58:44.000Z</time>
      </trkpt>
      <trkpt lat="47.1744" lon="-1.6108">
        <ele>55</ele>
        <time>2021-04-20T13:58:46.000Z</time>
      </trkpt>
      <trkpt lat="47.17445" lon="-1.61094">
        <ele>55</ele>
        <time>2021-04-20T13:58:48.000Z</time>
      </trkpt>
      <trkpt lat="47.17451" lon="-1.61108">
        <ele>56</ele>
        <time>2021-04-20T13:58:50.000Z</time>
      </trkpt>
      <trkpt lat="47.17456" lon="-1.61122">
        <ele>57</ele>
        <time>2021-04-20T13:58:52.000Z</time>
      </trkpt>
      <trkpt lat="47.17461" lon="-1.61135">
        <ele>58</ele>
        <time>2021-04-20T13:58:54.000Z</time>
      </trkpt>
      <trkpt lat="47.17467" lon="-1.61147">
        <ele>58</ele>
        <time>2021-04-20T13:58:56.000Z</time>
      </trkpt>
      <trkpt lat="47.17472" lon="-1.61161">
        <ele>58</ele>
        <time>2021-04-20T13:58:58.000Z</time>
      </trkpt>
      <trkpt lat="47.17476" lon="-1.61173">
        <ele>58</ele>
        <time>2021-04-20T13:59:00.000Z</time>
      </trkpt>
      <trkpt lat="47.17481" lon="-1.61186">
        <ele>58</ele>
        <time>2021-04-20T13:59:02.000Z</time>
      </trkpt>
      <trkpt lat="47.17486" lon="-1.61199">
        <ele>59</ele>
        <time>2021-04-20T13:59:04.000Z</time>
      </trkpt>
      <trkpt lat="47.17491" lon="-1.61211">
        <ele>59</ele>
        <time>2021-04-20T13:59:06.000Z</time>
      </trkpt>
      <trkpt lat="47.17498" lon="-1.61228">
        <ele>59</ele>
        <time>2021-04-20T13:59:09.000Z</time>
      </trkpt>
      <trkpt lat="47.17503" lon="-1.6124">
        <ele>59</ele>
        <time>2021-04-20T13:59:11.000Z</time>
      </trkpt>
      <trkpt lat="47.1751" lon="-1.61251">
        <ele>59</ele>
        <time>2021-04-20T13:59:13.000Z</time>
      </trkpt>
      <trkpt lat="47.17515" lon="-1.61261">
        <ele>59</ele>
        <time>2021-04-20T13:59:15.000Z</time>
      </trkpt>
      <trkpt lat="47.17525" lon="-1.61275">
        <ele>60</ele>
        <time>2021-04-20T13:59:18.000Z</time>
      </trkpt>
      <trkpt lat="47.17536" lon="-1.61283">
        <ele>60</ele>
        <time>2021-04-20T13:59:21.000Z</time>
      </trkpt>
      <trkpt lat="47.17549" lon="-1.61286">
        <ele>59</ele>
        <time>2021-04-20T13:59:24.000Z</time>
      </trkpt>
      <trkpt lat="47.17556" lon="-1.61297">
        <ele>60</ele>
        <time>2021-04-20T13:59:26.000Z</time>
      </trkpt>
      <trkpt lat="47.1756" lon="-1.61316">
        <ele>59</ele>
        <time>2021-04-20T13:59:28.000Z</time>
      </trkpt>
      <trkpt lat="47.17561" lon="-1.61336">
        <ele>60</ele>
        <time>2021-04-20T13:59:30.000Z</time>
      </trkpt>
      <trkpt lat="47.17553" lon="-1.61353">
        <ele>59</ele>
        <time>2021-04-20T13:59:32.000Z</time>
      </trkpt>
      <trkpt lat="47.17539" lon="-1.61363">
        <ele>59</ele>
        <time>2021-04-20T13:59:34.000Z</time>
      </trkpt>
      <trkpt lat="47.1753" lon="-1.61379">
        <ele>59</ele>
        <time>2021-04-20T13:59:36.000Z</time>
      </trkpt>
      <trkpt lat="47.17525" lon="-1.61399">
        <ele>60</ele>
        <time>2021-04-20T13:59:38.000Z</time>
      </trkpt>
      <trkpt lat="47.17521" lon="-1.61417">
        <ele>60</ele>
        <time>2021-04-20T13:59:40.000Z</time>
      </trkpt>
      <trkpt lat="47.17517" lon="-1.61436">
        <ele>61</ele>
        <time>2021-04-20T13:59:42.000Z</time>
      </trkpt>
      <trkpt lat="47.17513" lon="-1.61451">
        <ele>61</ele>
        <time>2021-04-20T13:59:44.000Z</time>
      </trkpt>
      <trkpt lat="47.17505" lon="-1.61462">
        <ele>62</ele>
        <time>2021-04-20T13:59:46.000Z</time>
      </trkpt>
      <trkpt lat="47.17492" lon="-1.61469">
        <ele>62</ele>
        <time>2021-04-20T13:59:48.000Z</time>
      </trkpt>
      <trkpt lat="47.1748" lon="-1.61474">
        <ele>63</ele>
        <time>2021-04-20T13:59:50.000Z</time>
      </trkpt>
      <trkpt lat="47.17468" lon="-1.61478">
        <ele>64</ele>
        <time>2021-04-20T13:59:52.000Z</time>
      </trkpt>
      <trkpt lat="47.17456" lon="-1.61483">
        <ele>65</ele>
        <time>2021-04-20T13:59:54.000Z</time>
      </trkpt>
      <trkpt lat="47.17445" lon="-1.61488">
        <ele>65</ele>
        <time>2021-04-20T13:59:56.000Z</time>
      </trkpt>
      <trkpt lat="47.17434" lon="-1.61496">
        <ele>66</ele>
        <time>2021-04-20T13:59:58.000Z</time>
      </trkpt>
      <trkpt lat="47.17422" lon="-1.61503">
        <ele>66</ele>
        <time>2021-04-20T14:00:00.000Z</time>
      </trkpt>
      <trkpt lat="47.17412" lon="-1.6151">
        <ele>66</ele>
        <time>2021-04-20T14:00:02.000Z</time>
      </trkpt>
      <trkpt lat="47.17401" lon="-1.61518">
        <ele>66</ele>
        <time>2021-04-20T14:00:04.000Z</time>
      </trkpt>
      <trkpt lat="47.17391" lon="-1.61527">
        <ele>66</ele>
        <time>2021-04-20T14:00:06.000Z</time>
      </trkpt>
      <trkpt lat="47.17381" lon="-1.61536">
        <ele>67</ele>
        <time>2021-04-20T14:00:08.000Z</time>
      </trkpt>
      <trkpt lat="47.17372" lon="-1.61545">
        <ele>68</ele>
        <time>2021-04-20T14:00:10.000Z</time>
      </trkpt>
      <trkpt lat="47.17363" lon="-1.61554">
        <ele>68</ele>
        <time>2021-04-20T14:00:12.000Z</time>
      </trkpt>
      <trkpt lat="47.17355" lon="-1.61564">
        <ele>69</ele>
        <time>2021-04-20T14:00:14.000Z</time>
      </trkpt>
      <trkpt lat="47.17346" lon="-1.61574">
        <ele>69</ele>
        <time>2021-04-20T14:00:16.000Z</time>
      </trkpt>
      <trkpt lat="47.17337" lon="-1.61584">
        <ele>69</ele>
        <time>2021-04-20T14:00:18.000Z</time>
      </trkpt>
      <trkpt lat="47.17328" lon="-1.61596">
        <ele>69</ele>
        <time>2021-04-20T14:00:20.000Z</time>
      </trkpt>
      <trkpt lat="47.17319" lon="-1.61607">
        <ele>69</ele>
        <time>2021-04-20T14:00:22.000Z</time>
      </trkpt>
      <trkpt lat="47.17311" lon="-1.61619">
        <ele>69</ele>
        <time>2021-04-20T14:00:24.000Z</time>
      </trkpt>
      <trkpt lat="47.17304" lon="-1.61632">
        <ele>69</ele>
        <time>2021-04-20T14:00:26.000Z</time>
      </trkpt>
      <trkpt lat="47.17297" lon="-1.61645">
        <ele>68</ele>
        <time>2021-04-20T14:00:28.000Z</time>
      </trkpt>
      <trkpt lat="47.1729" lon="-1.61658">
        <ele>68</ele>
        <time>2021-04-20T14:00:30.000Z</time>
      </trkpt>
      <trkpt lat="47.17283" lon="-1.61672">
        <ele>68</ele>
        <time>2021-04-20T14:00:32.000Z</time>
      </trkpt>
      <trkpt lat="47.17276" lon="-1.61685">
        <ele>68</ele>
        <time>2021-04-20T14:00:34.000Z</time>
      </trkpt>
      <trkpt lat="47.17269" lon="-1.617">
        <ele>68</ele>
        <time>2021-04-20T14:00:36.000Z</time>
      </trkpt>
      <trkpt lat="47.17262" lon="-1.61714">
        <ele>68</ele>
        <time>2021-04-20T14:00:38.000Z</time>
      </trkpt>
      <trkpt lat="47.17255" lon="-1.61727">
        <ele>68</ele>
        <time>2021-04-20T14:00:40.000Z</time>
      </trkpt>
      <trkpt lat="47.17249" lon="-1.61741">
        <ele>68</ele>
        <time>2021-04-20T14:00:42.000Z</time>
      </trkpt>
      <trkpt lat="47.17247" lon="-1.61758">
        <ele>68</ele>
        <time>2021-04-20T14:00:44.000Z</time>
      </trkpt>
      <trkpt lat="47.17244" lon="-1.61773">
        <ele>68</ele>
        <time>2021-04-20T14:00:46.000Z</time>
      </trkpt>
      <trkpt lat="47.17235" lon="-1.61785">
        <ele>68</ele>
        <time>2021-04-20T14:00:48.000Z</time>
      </trkpt>
      <trkpt lat="47.17224" lon="-1.61793">
        <ele>68</ele>
        <time>2021-04-20T14:00:50.000Z</time>
      </trkpt>
      <trkpt lat="47.17214" lon="-1.61802">
        <ele>67</ele>
        <time>2021-04-20T14:00:52.000Z</time>
      </trkpt>
      <trkpt lat="47.17203" lon="-1.61811">
        <ele>68</ele>
        <time>2021-04-20T14:00:54.000Z</time>
      </trkpt>
      <trkpt lat="47.17193" lon="-1.6182">
        <ele>68</ele>
        <time>2021-04-20T14:00:56.000Z</time>
      </trkpt>
      <trkpt lat="47.17184" lon="-1.6183">
        <ele>68</ele>
        <time>2021-04-20T14:00:58.000Z</time>
      </trkpt>
      <trkpt lat="47.17174" lon="-1.61839">
        <ele>67</ele>
        <time>2021-04-20T14:01:00.000Z</time>
      </trkpt>
      <trkpt lat="47.17164" lon="-1.61849">
        <ele>68</ele>
        <time>2021-04-20T14:01:02.000Z</time>
      </trkpt>
      <trkpt lat="47.17154" lon="-1.61859">
        <ele>68</ele>
        <time>2021-04-20T14:01:04.000Z</time>
      </trkpt>
      <trkpt lat="47.17144" lon="-1.61868">
        <ele>67</ele>
        <time>2021-04-20T14:01:06.000Z</time>
      </trkpt>
      <trkpt lat="47.17133" lon="-1.61878">
        <ele>67</ele>
        <time>2021-04-20T14:01:08.000Z</time>
      </trkpt>
      <trkpt lat="47.17123" lon="-1.61888">
        <ele>67</ele>
        <time>2021-04-20T14:01:10.000Z</time>
      </trkpt>
      <trkpt lat="47.17112" lon="-1.61898">
        <ele>66</ele>
        <time>2021-04-20T14:01:12.000Z</time>
      </trkpt>
      <trkpt lat="47.17102" lon="-1.61908">
        <ele>66</ele>
        <time>2021-04-20T14:01:14.000Z</time>
      </trkpt>
      <trkpt lat="47.17092" lon="-1.61918">
        <ele>66</ele>
        <time>2021-04-20T14:01:16.000Z</time>
      </trkpt>
      <trkpt lat="47.17082" lon="-1.61928">
        <ele>66</ele>
        <time>2021-04-20T14:01:18.000Z</time>
      </trkpt>
      <trkpt lat="47.17072" lon="-1.61938">
        <ele>66</ele>
        <time>2021-04-20T14:01:20.000Z</time>
      </trkpt>
      <trkpt lat="47.17062" lon="-1.61949">
        <ele>66</ele>
        <time>2021-04-20T14:01:22.000Z</time>
      </trkpt>
      <trkpt lat="47.17052" lon="-1.61962">
        <ele>66</ele>
        <time>2021-04-20T14:01:24.000Z</time>
      </trkpt>
      <trkpt lat="47.17043" lon="-1.61976">
        <ele>66</ele>
        <time>2021-04-20T14:01:26.000Z</time>
      </trkpt>
      <trkpt lat="47.17033" lon="-1.61989">
        <ele>66</ele>
        <time>2021-04-20T14:01:28.000Z</time>
      </trkpt>
      <trkpt lat="47.17024" lon="-1.62003">
        <ele>66</ele>
        <time>2021-04-20T14:01:30.000Z</time>
      </trkpt>
      <trkpt lat="47.17015" lon="-1.62016">
        <ele>66</ele>
        <time>2021-04-20T14:01:32.000Z</time>
      </trkpt>
      <trkpt lat="47.17006" lon="-1.62031">
        <ele>66</ele>
        <time>2021-04-20T14:01:34.000Z</time>
      </trkpt>
      <trkpt lat="47.16998" lon="-1.62046">
        <ele>65</ele>
        <time>2021-04-20T14:01:36.000Z</time>
      </trkpt>
      <trkpt lat="47.16989" lon="-1.62061">
        <ele>65</ele>
        <time>2021-04-20T14:01:38.000Z</time>
      </trkpt>
      <trkpt lat="47.16982" lon="-1.62076">
        <ele>66</ele>
        <time>2021-04-20T14:01:40.000Z</time>
      </trkpt>
      <trkpt lat="47.16974" lon="-1.6209">
        <ele>66</ele>
        <time>2021-04-20T14:01:42.000Z</time>
      </trkpt>
      <trkpt lat="47.16965" lon="-1.62104">
        <ele>66</ele>
        <time>2021-04-20T14:01:44.000Z</time>
      </trkpt>
      <trkpt lat="47.16958" lon="-1.62119">
        <ele>66</ele>
        <time>2021-04-20T14:01:46.000Z</time>
      </trkpt>
      <trkpt lat="47.16951" lon="-1.62133">
        <ele>66</ele>
        <time>2021-04-20T14:01:48.000Z</time>
      </trkpt>
      <trkpt lat="47.16943" lon="-1.62148">
        <ele>65</ele>
        <time>2021-04-20T14:01:50.000Z</time>
      </trkpt>
      <trkpt lat="47.16935" lon="-1.62163">
        <ele>65</ele>
        <time>2021-04-20T14:01:52.000Z</time>
      </trkpt>
      <trkpt lat="47.16929" lon="-1.62179">
        <ele>66</ele>
        <time>2021-04-20T14:01:54.000Z</time>
      </trkpt>
      <trkpt lat="47.16921" lon="-1.62194">
        <ele>66</ele>
        <time>2021-04-20T14:01:56.000Z</time>
      </trkpt>
      <trkpt lat="47.16912" lon="-1.62208">
        <ele>66</ele>
        <time>2021-04-20T14:01:58.000Z</time>
      </trkpt>
      <trkpt lat="47.16903" lon="-1.62221">
        <ele>66</ele>
        <time>2021-04-20T14:02:00.000Z</time>
      </trkpt>
      <trkpt lat="47.16893" lon="-1.62233">
        <ele>66</ele>
        <time>2021-04-20T14:02:02.000Z</time>
      </trkpt>
      <trkpt lat="47.16884" lon="-1.62245">
        <ele>66</ele>
        <time>2021-04-20T14:02:04.000Z</time>
      </trkpt>
      <trkpt lat="47.16874" lon="-1.62257">
        <ele>66</ele>
        <time>2021-04-20T14:02:06.000Z</time>
      </trkpt>
      <trkpt lat="47.16865" lon="-1.62268">
        <ele>66</ele>
        <time>2021-04-20T14:02:08.000Z</time>
      </trkpt>
      <trkpt lat="47.16855" lon="-1.6228">
        <ele>66</ele>
        <time>2021-04-20T14:02:10.000Z</time>
      </trkpt>
      <trkpt lat="47.16846" lon="-1.62291">
        <ele>66</ele>
        <time>2021-04-20T14:02:12.000Z</time>
      </trkpt>
      <trkpt lat="47.16836" lon="-1.62303">
        <ele>67</ele>
        <time>2021-04-20T14:02:14.000Z</time>
      </trkpt>
      <trkpt lat="47.16826" lon="-1.62312">
        <ele>67</ele>
        <time>2021-04-20T14:02:16.000Z</time>
      </trkpt>
      <trkpt lat="47.16815" lon="-1.6232">
        <ele>67</ele>
        <time>2021-04-20T14:02:18.000Z</time>
      </trkpt>
      <trkpt lat="47.16803" lon="-1.62327">
        <ele>67</ele>
        <time>2021-04-20T14:02:20.000Z</time>
      </trkpt>
      <trkpt lat="47.16792" lon="-1.62334">
        <ele>66</ele>
        <time>2021-04-20T14:02:22.000Z</time>
      </trkpt>
      <trkpt lat="47.16781" lon="-1.62339">
        <ele>66</ele>
        <time>2021-04-20T14:02:24.000Z</time>
      </trkpt>
      <trkpt lat="47.16769" lon="-1.62347">
        <ele>66</ele>
        <time>2021-04-20T14:02:26.000Z</time>
      </trkpt>
      <trkpt lat="47.16758" lon="-1.62354">
        <ele>66</ele>
        <time>2021-04-20T14:02:28.000Z</time>
      </trkpt>
      <trkpt lat="47.16748" lon="-1.62365">
        <ele>66</ele>
        <time>2021-04-20T14:02:30.000Z</time>
      </trkpt>
      <trkpt lat="47.1674" lon="-1.62378">
        <ele>66</ele>
        <time>2021-04-20T14:02:32.000Z</time>
      </trkpt>
      <trkpt lat="47.16734" lon="-1.62394">
        <ele>66</ele>
        <time>2021-04-20T14:02:34.000Z</time>
      </trkpt>
      <trkpt lat="47.16732" lon="-1.62408">
        <ele>66</ele>
        <time>2021-04-20T14:02:36.000Z</time>
      </trkpt>
      <trkpt lat="47.1673" lon="-1.62422">
        <ele>66</ele>
        <time>2021-04-20T14:02:39.000Z</time>
      </trkpt>
      <trkpt lat="47.16728" lon="-1.62442">
        <ele>67</ele>
        <time>2021-04-20T14:02:42.000Z</time>
      </trkpt>
      <trkpt lat="47.16722" lon="-1.62457">
        <ele>67</ele>
        <time>2021-04-20T14:02:44.000Z</time>
      </trkpt>
      <trkpt lat="47.16719" lon="-1.62473">
        <ele>67</ele>
        <time>2021-04-20T14:02:46.000Z</time>
      </trkpt>
      <trkpt lat="47.16718" lon="-1.62488">
        <ele>67</ele>
        <time>2021-04-20T14:02:48.000Z</time>
      </trkpt>
      <trkpt lat="47.16725" lon="-1.62497">
        <ele>67</ele>
        <time>2021-04-20T14:02:50.000Z</time>
      </trkpt>
      <trkpt lat="47.16736" lon="-1.62501">
        <ele>68</ele>
        <time>2021-04-20T14:02:52.000Z</time>
      </trkpt>
      <trkpt lat="47.16747" lon="-1.62507">
        <ele>68</ele>
        <time>2021-04-20T14:02:54.000Z</time>
      </trkpt>
      <trkpt lat="47.16758" lon="-1.62512">
        <ele>68</ele>
        <time>2021-04-20T14:02:56.000Z</time>
      </trkpt>
      <trkpt lat="47.16769" lon="-1.62518">
        <ele>68</ele>
        <time>2021-04-20T14:02:58.000Z</time>
      </trkpt>
      <trkpt lat="47.16779" lon="-1.62524">
        <ele>69</ele>
        <time>2021-04-20T14:03:00.000Z</time>
      </trkpt>
      <trkpt lat="47.16789" lon="-1.62531">
        <ele>69</ele>
        <time>2021-04-20T14:03:02.000Z</time>
      </trkpt>
      <trkpt lat="47.16799" lon="-1.62538">
        <ele>69</ele>
        <time>2021-04-20T14:03:04.000Z</time>
      </trkpt>
      <trkpt lat="47.16808" lon="-1.62546">
        <ele>68</ele>
        <time>2021-04-20T14:03:06.000Z</time>
      </trkpt>
      <trkpt lat="47.16818" lon="-1.62553">
        <ele>68</ele>
        <time>2021-04-20T14:03:08.000Z</time>
      </trkpt>
      <trkpt lat="47.16826" lon="-1.62563">
        <ele>68</ele>
        <time>2021-04-20T14:03:10.000Z</time>
      </trkpt>
      <trkpt lat="47.16834" lon="-1.62574">
        <ele>67</ele>
        <time>2021-04-20T14:03:12.000Z</time>
      </trkpt>
      <trkpt lat="47.1683" lon="-1.62589">
        <ele>67</ele>
        <time>2021-04-20T14:03:14.000Z</time>
      </trkpt>
      <trkpt lat="47.16821" lon="-1.62603">
        <ele>67</ele>
        <time>2021-04-20T14:03:16.000Z</time>
      </trkpt>
      <trkpt lat="47.16815" lon="-1.62615">
        <ele>67</ele>
        <time>2021-04-20T14:03:18.000Z</time>
      </trkpt>
      <trkpt lat="47.16807" lon="-1.62627">
        <ele>68</ele>
        <time>2021-04-20T14:03:20.000Z</time>
      </trkpt>
      <trkpt lat="47.16798" lon="-1.62641">
        <ele>68</ele>
        <time>2021-04-20T14:03:23.000Z</time>
      </trkpt>
      <trkpt lat="47.16792" lon="-1.62653">
        <ele>67</ele>
        <time>2021-04-20T14:03:26.000Z</time>
      </trkpt>
      <trkpt lat="47.16785" lon="-1.6266">
        <ele>68</ele>
        <time>2021-04-20T14:03:54.000Z</time>
      </trkpt>
      <trkpt lat="47.16777" lon="-1.62652">
        <ele>68</ele>
        <time>2021-04-20T14:03:58.000Z</time>
      </trkpt>
    </trkseg>
  </trk>
</gpx>